<?xml version="1.0" encoding="UTF-8"?>
<gpx creator="Garmin Connect" version="1.1"
  xsi:schemaLocation="http://www.topografix.com/GPX/1/1 http://www.topografix.com/GPX/11.xsd"
  xmlns:ns3="http://www.garmin.com/xmlschemas/TrackPointExtension/v1"
  xmlns="http://www.topografix.com/GPX/1/1"
  xmlns:xsi="http://www.w3.org/2001/XMLSchema-instance" xmlns:ns2="http://www.garmin.com/xmlschemas/GpxExtensions/v3">
  <metadata>
    <link href="connect.garmin.com">
      <text>Garmin Connect</text>
    </link>
    <time>2024-01-27T09:05:45.000Z</time>
  </metadata>
  <trk>
    <name>Caveirac Course à pied</name>
    <type>running</type>
    <trkseg>
      <trkpt lat="43.82625552825629711151123046875" lon="4.26054493524134159088134765625">
        <ele>88</ele>
        <time>2024-01-27T09:05:45.000Z</time>
        <extensions>
          <ns3:TrackPointExtension>
            <ns3:hr>89</ns3:hr>
            <ns3:cad>0</ns3:cad>
          </ns3:TrackPointExtension>
        </extensions>
      </trkpt>
      <trkpt lat="43.8262587971985340118408203125" lon="4.26053973846137523651123046875">
        <ele>88</ele>
        <time>2024-01-27T09:05:46.000Z</time>
        <extensions>
          <ns3:TrackPointExtension>
            <ns3:hr>88</ns3:hr>
            <ns3:cad>0</ns3:cad>
          </ns3:TrackPointExtension>
        </extensions>
      </trkpt>
      <trkpt lat="43.82626122795045375823974609375" lon="4.2605388164520263671875">
        <ele>88</ele>
        <time>2024-01-27T09:05:47.000Z</time>
        <extensions>
          <ns3:TrackPointExtension>
            <ns3:hr>88</ns3:hr>
            <ns3:cad>0</ns3:cad>
          </ns3:TrackPointExtension>
        </extensions>
      </trkpt>
      <trkpt lat="43.82626441307365894317626953125" lon="4.2605393193662166595458984375">
        <ele>88</ele>
        <time>2024-01-27T09:05:48.000Z</time>
        <extensions>
          <ns3:TrackPointExtension>
            <ns3:hr>87</ns3:hr>
            <ns3:cad>0</ns3:cad>
          </ns3:TrackPointExtension>
        </extensions>
      </trkpt>
      <trkpt lat="43.826265670359134674072265625" lon="4.26054359413683414459228515625">
        <ele>88</ele>
        <time>2024-01-27T09:05:49.000Z</time>
        <extensions>
          <ns3:TrackPointExtension>
            <ns3:hr>87</ns3:hr>
            <ns3:cad>0</ns3:cad>
          </ns3:TrackPointExtension>
        </extensions>
      </trkpt>
      <trkpt lat="43.82627229206264019012451171875" lon="4.2605455219745635986328125">
        <ele>88</ele>
        <time>2024-01-27T09:05:50.000Z</time>
        <extensions>
          <ns3:TrackPointExtension>
            <ns3:hr>87</ns3:hr>
            <ns3:cad>0</ns3:cad>
          </ns3:TrackPointExtension>
        </extensions>
      </trkpt>
      <trkpt lat="43.8262876309454441070556640625" lon="4.26055767573416233062744140625">
        <ele>88</ele>
        <time>2024-01-27T09:05:51.000Z</time>
        <extensions>
          <ns3:TrackPointExtension>
            <ns3:hr>86</ns3:hr>
            <ns3:cad>0</ns3:cad>
          </ns3:TrackPointExtension>
        </extensions>
      </trkpt>
      <trkpt lat="43.82630431093275547027587890625" lon="4.26057376898825168609619140625">
        <ele>88</ele>
        <time>2024-01-27T09:05:52.000Z</time>
        <extensions>
          <ns3:TrackPointExtension>
            <ns3:hr>86</ns3:hr>
            <ns3:cad>0</ns3:cad>
          </ns3:TrackPointExtension>
        </extensions>
      </trkpt>
      <trkpt lat="43.82632191292941570281982421875" lon="4.2605953104794025421142578125">
        <ele>88</ele>
        <time>2024-01-27T09:05:53.000Z</time>
        <extensions>
          <ns3:TrackPointExtension>
            <ns3:hr>85</ns3:hr>
            <ns3:cad>0</ns3:cad>
          </ns3:TrackPointExtension>
        </extensions>
      </trkpt>
      <trkpt lat="43.826340101659297943115234375" lon="4.260620288550853729248046875">
        <ele>88.1999969482421875</ele>
        <time>2024-01-27T09:05:54.000Z</time>
        <extensions>
          <ns3:TrackPointExtension>
            <ns3:hr>85</ns3:hr>
            <ns3:cad>0</ns3:cad>
          </ns3:TrackPointExtension>
        </extensions>
      </trkpt>
      <trkpt lat="43.82635996676981449127197265625" lon="4.260648451745510101318359375">
        <ele>88.59999847412109375</ele>
        <time>2024-01-27T09:05:55.000Z</time>
        <extensions>
          <ns3:TrackPointExtension>
            <ns3:hr>85</ns3:hr>
            <ns3:cad>0</ns3:cad>
          </ns3:TrackPointExtension>
        </extensions>
      </trkpt>
      <trkpt lat="43.8263791613280773162841796875" lon="4.2606787942349910736083984375">
        <ele>88.59999847412109375</ele>
        <time>2024-01-27T09:05:56.000Z</time>
        <extensions>
          <ns3:TrackPointExtension>
            <ns3:hr>85</ns3:hr>
            <ns3:cad>87</ns3:cad>
          </ns3:TrackPointExtension>
        </extensions>
      </trkpt>
      <trkpt lat="43.82640103809535503387451171875" lon="4.260708801448345184326171875">
        <ele>88.8000030517578125</ele>
        <time>2024-01-27T09:05:57.000Z</time>
        <extensions>
          <ns3:TrackPointExtension>
            <ns3:hr>85</ns3:hr>
            <ns3:cad>87</ns3:cad>
          </ns3:TrackPointExtension>
        </extensions>
      </trkpt>
      <trkpt lat="43.826421238481998443603515625" lon="4.2607401497662067413330078125">
        <ele>88.8000030517578125</ele>
        <time>2024-01-27T09:05:58.000Z</time>
        <extensions>
          <ns3:TrackPointExtension>
            <ns3:hr>87</ns3:hr>
            <ns3:cad>87</ns3:cad>
          </ns3:TrackPointExtension>
        </extensions>
      </trkpt>
      <trkpt lat="43.8264408521354198455810546875" lon="4.2607723362743854522705078125">
        <ele>89</ele>
        <time>2024-01-27T09:05:59.000Z</time>
        <extensions>
          <ns3:TrackPointExtension>
            <ns3:hr>89</ns3:hr>
            <ns3:cad>87</ns3:cad>
          </ns3:TrackPointExtension>
        </extensions>
      </trkpt>
      <trkpt lat="43.82645920850336551666259765625" lon="4.26080343313515186309814453125">
        <ele>89.1999969482421875</ele>
        <time>2024-01-27T09:06:00.000Z</time>
        <extensions>
          <ns3:TrackPointExtension>
            <ns3:hr>91</ns3:hr>
            <ns3:cad>88</ns3:cad>
          </ns3:TrackPointExtension>
        </extensions>
      </trkpt>
      <trkpt lat="43.8264773972332477569580078125" lon="4.2608336918056011199951171875">
        <ele>89.1999969482421875</ele>
        <time>2024-01-27T09:06:01.000Z</time>
        <extensions>
          <ns3:TrackPointExtension>
            <ns3:hr>93</ns3:hr>
            <ns3:cad>90</ns3:cad>
          </ns3:TrackPointExtension>
        </extensions>
      </trkpt>
      <trkpt lat="43.82649374194443225860595703125" lon="4.26086110062897205352783203125">
        <ele>89.40000152587890625</ele>
        <time>2024-01-27T09:06:02.000Z</time>
        <extensions>
          <ns3:TrackPointExtension>
            <ns3:hr>95</ns3:hr>
            <ns3:cad>90</ns3:cad>
          </ns3:TrackPointExtension>
        </extensions>
      </trkpt>
      <trkpt lat="43.8265119306743144989013671875" lon="4.26088809035718441009521484375">
        <ele>89.40000152587890625</ele>
        <time>2024-01-27T09:06:03.000Z</time>
        <extensions>
          <ns3:TrackPointExtension>
            <ns3:hr>96</ns3:hr>
            <ns3:cad>91</ns3:cad>
          </ns3:TrackPointExtension>
        </extensions>
      </trkpt>
      <trkpt lat="43.8265280239284038543701171875" lon="4.2609131522476673126220703125">
        <ele>89.59999847412109375</ele>
        <time>2024-01-27T09:06:04.000Z</time>
        <extensions>
          <ns3:TrackPointExtension>
            <ns3:hr>98</ns3:hr>
            <ns3:cad>92</ns3:cad>
          </ns3:TrackPointExtension>
        </extensions>
      </trkpt>
      <trkpt lat="43.82654822431504726409912109375" lon="4.26094005815684795379638671875">
        <ele>89.59999847412109375</ele>
        <time>2024-01-27T09:06:05.000Z</time>
        <extensions>
          <ns3:TrackPointExtension>
            <ns3:hr>100</ns3:hr>
            <ns3:cad>92</ns3:cad>
          </ns3:TrackPointExtension>
        </extensions>
      </trkpt>
      <trkpt lat="43.8265645690262317657470703125" lon="4.260959923267364501953125">
        <ele>89.8000030517578125</ele>
        <time>2024-01-27T09:06:06.000Z</time>
        <extensions>
          <ns3:TrackPointExtension>
            <ns3:hr>101</ns3:hr>
            <ns3:cad>92</ns3:cad>
          </ns3:TrackPointExtension>
        </extensions>
      </trkpt>
      <trkpt lat="43.82659080438315868377685546875" lon="4.26098079420626163482666015625">
        <ele>89.8000030517578125</ele>
        <time>2024-01-27T09:06:07.000Z</time>
        <extensions>
          <ns3:TrackPointExtension>
            <ns3:hr>102</ns3:hr>
            <ns3:cad>92</ns3:cad>
          </ns3:TrackPointExtension>
        </extensions>
      </trkpt>
      <trkpt lat="43.82661092095077037811279296875" lon="4.261002503335475921630859375">
        <ele>89.8000030517578125</ele>
        <time>2024-01-27T09:06:08.000Z</time>
        <extensions>
          <ns3:TrackPointExtension>
            <ns3:hr>103</ns3:hr>
            <ns3:cad>92</ns3:cad>
          </ns3:TrackPointExtension>
        </extensions>
      </trkpt>
      <trkpt lat="43.826632797718048095703125" lon="4.2610254697501659393310546875">
        <ele>89.8000030517578125</ele>
        <time>2024-01-27T09:06:09.000Z</time>
        <extensions>
          <ns3:TrackPointExtension>
            <ns3:hr>104</ns3:hr>
            <ns3:cad>92</ns3:cad>
          </ns3:TrackPointExtension>
        </extensions>
      </trkpt>
      <trkpt lat="43.82665090262889862060546875" lon="4.26104583777487277984619140625">
        <ele>89.8000030517578125</ele>
        <time>2024-01-27T09:06:10.000Z</time>
        <extensions>
          <ns3:TrackPointExtension>
            <ns3:hr>105</ns3:hr>
            <ns3:cad>92</ns3:cad>
          </ns3:TrackPointExtension>
        </extensions>
      </trkpt>
      <trkpt lat="43.826670013368129730224609375" lon="4.26106628961861133575439453125">
        <ele>89.8000030517578125</ele>
        <time>2024-01-27T09:06:11.000Z</time>
        <extensions>
          <ns3:TrackPointExtension>
            <ns3:hr>106</ns3:hr>
            <ns3:cad>92</ns3:cad>
          </ns3:TrackPointExtension>
        </extensions>
      </trkpt>
      <trkpt lat="43.82668904028832912445068359375" lon="4.26108791492879390716552734375">
        <ele>90</ele>
        <time>2024-01-27T09:06:12.000Z</time>
        <extensions>
          <ns3:TrackPointExtension>
            <ns3:hr>107</ns3:hr>
            <ns3:cad>92</ns3:cad>
          </ns3:TrackPointExtension>
        </extensions>
      </trkpt>
      <trkpt lat="43.82671033032238483428955078125" lon="4.26110811531543731689453125">
        <ele>90.1999969482421875</ele>
        <time>2024-01-27T09:06:13.000Z</time>
        <extensions>
          <ns3:TrackPointExtension>
            <ns3:hr>108</ns3:hr>
            <ns3:cad>94</ns3:cad>
          </ns3:TrackPointExtension>
        </extensions>
      </trkpt>
      <trkpt lat="43.82673799060285091400146484375" lon="4.26112689077854156494140625">
        <ele>90.40000152587890625</ele>
        <time>2024-01-27T09:06:14.000Z</time>
        <extensions>
          <ns3:TrackPointExtension>
            <ns3:hr>109</ns3:hr>
            <ns3:cad>94</ns3:cad>
          </ns3:TrackPointExtension>
        </extensions>
      </trkpt>
      <trkpt lat="43.82676213048398494720458984375" lon="4.2611382901668548583984375">
        <ele>90.40000152587890625</ele>
        <time>2024-01-27T09:06:15.000Z</time>
        <extensions>
          <ns3:TrackPointExtension>
            <ns3:hr>110</ns3:hr>
            <ns3:cad>94</ns3:cad>
          </ns3:TrackPointExtension>
        </extensions>
      </trkpt>
      <trkpt lat="43.8267902098596096038818359375" lon="4.26112546585500240325927734375">
        <ele>90.40000152587890625</ele>
        <time>2024-01-27T09:06:16.000Z</time>
        <extensions>
          <ns3:TrackPointExtension>
            <ns3:hr>110</ns3:hr>
            <ns3:cad>94</ns3:cad>
          </ns3:TrackPointExtension>
        </extensions>
      </trkpt>
      <trkpt lat="43.826813511550426483154296875" lon="4.2611129768192768096923828125">
        <ele>90.59999847412109375</ele>
        <time>2024-01-27T09:06:17.000Z</time>
        <extensions>
          <ns3:TrackPointExtension>
            <ns3:hr>111</ns3:hr>
            <ns3:cad>94</ns3:cad>
          </ns3:TrackPointExtension>
        </extensions>
      </trkpt>
      <trkpt lat="43.82683857344090938568115234375" lon="4.26110249944031238555908203125">
        <ele>90.59999847412109375</ele>
        <time>2024-01-27T09:06:18.000Z</time>
        <extensions>
          <ns3:TrackPointExtension>
            <ns3:hr>111</ns3:hr>
            <ns3:cad>94</ns3:cad>
          </ns3:TrackPointExtension>
        </extensions>
      </trkpt>
      <trkpt lat="43.826859779655933380126953125" lon="4.2610908485949039459228515625">
        <ele>90.59999847412109375</ele>
        <time>2024-01-27T09:06:19.000Z</time>
        <extensions>
          <ns3:TrackPointExtension>
            <ns3:hr>112</ns3:hr>
            <ns3:cad>94</ns3:cad>
          </ns3:TrackPointExtension>
        </extensions>
      </trkpt>
      <trkpt lat="43.82688618265092372894287109375" lon="4.26109931431710720062255859375">
        <ele>90.8000030517578125</ele>
        <time>2024-01-27T09:06:20.000Z</time>
        <extensions>
          <ns3:TrackPointExtension>
            <ns3:hr>113</ns3:hr>
            <ns3:cad>94</ns3:cad>
          </ns3:TrackPointExtension>
        </extensions>
      </trkpt>
      <trkpt lat="43.826910741627216339111328125" lon="4.26111171953380107879638671875">
        <ele>90.8000030517578125</ele>
        <time>2024-01-27T09:06:21.000Z</time>
        <extensions>
          <ns3:TrackPointExtension>
            <ns3:hr>113</ns3:hr>
            <ns3:cad>93</ns3:cad>
          </ns3:TrackPointExtension>
        </extensions>
      </trkpt>
      <trkpt lat="43.8269370608031749725341796875" lon="4.2611364461481571197509765625">
        <ele>90.8000030517578125</ele>
        <time>2024-01-27T09:06:22.000Z</time>
        <extensions>
          <ns3:TrackPointExtension>
            <ns3:hr>113</ns3:hr>
            <ns3:cad>93</ns3:cad>
          </ns3:TrackPointExtension>
        </extensions>
      </trkpt>
      <trkpt lat="43.82695524953305721282958984375" lon="4.26116486079990863800048828125">
        <ele>90.8000030517578125</ele>
        <time>2024-01-27T09:06:23.000Z</time>
        <extensions>
          <ns3:TrackPointExtension>
            <ns3:hr>114</ns3:hr>
            <ns3:cad>93</ns3:cad>
          </ns3:TrackPointExtension>
        </extensions>
      </trkpt>
      <trkpt lat="43.82697486318647861480712890625" lon="4.2611947841942310333251953125">
        <ele>90.8000030517578125</ele>
        <time>2024-01-27T09:06:24.000Z</time>
        <extensions>
          <ns3:TrackPointExtension>
            <ns3:hr>114</ns3:hr>
            <ns3:cad>93</ns3:cad>
          </ns3:TrackPointExtension>
        </extensions>
      </trkpt>
      <trkpt lat="43.826993219554424285888671875" lon="4.2612169124186038970947265625">
        <ele>90.8000030517578125</ele>
        <time>2024-01-27T09:06:25.000Z</time>
        <extensions>
          <ns3:TrackPointExtension>
            <ns3:hr>115</ns3:hr>
            <ns3:cad>92</ns3:cad>
          </ns3:TrackPointExtension>
        </extensions>
      </trkpt>
      <trkpt lat="43.8270118273794651031494140625" lon="4.26124633289873600006103515625">
        <ele>90.8000030517578125</ele>
        <time>2024-01-27T09:06:26.000Z</time>
        <extensions>
          <ns3:TrackPointExtension>
            <ns3:hr>116</ns3:hr>
            <ns3:cad>92</ns3:cad>
          </ns3:TrackPointExtension>
        </extensions>
      </trkpt>
      <trkpt lat="43.8270284235477447509765625" lon="4.26126779057085514068603515625">
        <ele>90.8000030517578125</ele>
        <time>2024-01-27T09:06:27.000Z</time>
        <extensions>
          <ns3:TrackPointExtension>
            <ns3:hr>116</ns3:hr>
            <ns3:cad>92</ns3:cad>
          </ns3:TrackPointExtension>
        </extensions>
      </trkpt>
      <trkpt lat="43.827050887048244476318359375" lon="4.26129226572811603546142578125">
        <ele>90.8000030517578125</ele>
        <time>2024-01-27T09:06:28.000Z</time>
        <extensions>
          <ns3:TrackPointExtension>
            <ns3:hr>117</ns3:hr>
            <ns3:cad>91</ns3:cad>
          </ns3:TrackPointExtension>
        </extensions>
      </trkpt>
      <trkpt lat="43.82707309909164905548095703125" lon="4.2613144777715206146240234375">
        <ele>90.8000030517578125</ele>
        <time>2024-01-27T09:06:29.000Z</time>
        <extensions>
          <ns3:TrackPointExtension>
            <ns3:hr>117</ns3:hr>
            <ns3:cad>91</ns3:cad>
          </ns3:TrackPointExtension>
        </extensions>
      </trkpt>
      <trkpt lat="43.8270953111350536346435546875" lon="4.26131808198988437652587890625">
        <ele>90.8000030517578125</ele>
        <time>2024-01-27T09:06:30.000Z</time>
        <extensions>
          <ns3:TrackPointExtension>
            <ns3:hr>117</ns3:hr>
            <ns3:cad>91</ns3:cad>
          </ns3:TrackPointExtension>
        </extensions>
      </trkpt>
      <trkpt lat="43.8271276652812957763671875" lon="4.2613242007791996002197265625">
        <ele>91</ele>
        <time>2024-01-27T09:06:31.000Z</time>
        <extensions>
          <ns3:TrackPointExtension>
            <ns3:hr>118</ns3:hr>
            <ns3:cad>92</ns3:cad>
          </ns3:TrackPointExtension>
        </extensions>
      </trkpt>
      <trkpt lat="43.82715155370533466339111328125" lon="4.26132143475115299224853515625">
        <ele>91</ele>
        <time>2024-01-27T09:06:32.000Z</time>
        <extensions>
          <ns3:TrackPointExtension>
            <ns3:hr>118</ns3:hr>
            <ns3:cad>92</ns3:cad>
          </ns3:TrackPointExtension>
        </extensions>
      </trkpt>
      <trkpt lat="43.8271801359951496124267578125" lon="4.2613151483237743377685546875">
        <ele>91.1999969482421875</ele>
        <time>2024-01-27T09:06:33.000Z</time>
        <extensions>
          <ns3:TrackPointExtension>
            <ns3:hr>118</ns3:hr>
            <ns3:cad>92</ns3:cad>
          </ns3:TrackPointExtension>
        </extensions>
      </trkpt>
      <trkpt lat="43.8272069580852985382080078125" lon="4.26130467094480991363525390625">
        <ele>91.1999969482421875</ele>
        <time>2024-01-27T09:06:34.000Z</time>
        <extensions>
          <ns3:TrackPointExtension>
            <ns3:hr>118</ns3:hr>
            <ns3:cad>94</ns3:cad>
          </ns3:TrackPointExtension>
        </extensions>
      </trkpt>
      <trkpt lat="43.8272337801754474639892578125" lon="4.261292852461338043212890625">
        <ele>91.1999969482421875</ele>
        <time>2024-01-27T09:06:35.000Z</time>
        <extensions>
          <ns3:TrackPointExtension>
            <ns3:hr>117</ns3:hr>
            <ns3:cad>94</ns3:cad>
          </ns3:TrackPointExtension>
        </extensions>
      </trkpt>
      <trkpt lat="43.82725733332335948944091796875" lon="4.26128019578754901885986328125">
        <ele>91.1999969482421875</ele>
        <time>2024-01-27T09:06:36.000Z</time>
        <extensions>
          <ns3:TrackPointExtension>
            <ns3:hr>117</ns3:hr>
            <ns3:cad>93</ns3:cad>
          </ns3:TrackPointExtension>
        </extensions>
      </trkpt>
      <trkpt lat="43.82728524506092071533203125" lon="4.26127080805599689483642578125">
        <ele>91.40000152587890625</ele>
        <time>2024-01-27T09:06:37.000Z</time>
        <extensions>
          <ns3:TrackPointExtension>
            <ns3:hr>116</ns3:hr>
            <ns3:cad>92</ns3:cad>
          </ns3:TrackPointExtension>
        </extensions>
      </trkpt>
      <trkpt lat="43.8273078761994838714599609375" lon="4.261262007057666778564453125">
        <ele>91.40000152587890625</ele>
        <time>2024-01-27T09:06:38.000Z</time>
        <extensions>
          <ns3:TrackPointExtension>
            <ns3:hr>116</ns3:hr>
            <ns3:cad>92</ns3:cad>
          </ns3:TrackPointExtension>
        </extensions>
      </trkpt>
      <trkpt lat="43.827336542308330535888671875" lon="4.26125085912644863128662109375">
        <ele>91.40000152587890625</ele>
        <time>2024-01-27T09:06:39.000Z</time>
        <extensions>
          <ns3:TrackPointExtension>
            <ns3:hr>115</ns3:hr>
            <ns3:cad>93</ns3:cad>
          </ns3:TrackPointExtension>
        </extensions>
      </trkpt>
      <trkpt lat="43.82735892198979854583740234375" lon="4.26123417913913726806640625">
        <ele>91.40000152587890625</ele>
        <time>2024-01-27T09:06:40.000Z</time>
        <extensions>
          <ns3:TrackPointExtension>
            <ns3:hr>115</ns3:hr>
            <ns3:cad>93</ns3:cad>
          </ns3:TrackPointExtension>
        </extensions>
      </trkpt>
      <trkpt lat="43.82738582789897918701171875" lon="4.26122135482728481292724609375">
        <ele>91.59999847412109375</ele>
        <time>2024-01-27T09:06:41.000Z</time>
        <extensions>
          <ns3:TrackPointExtension>
            <ns3:hr>114</ns3:hr>
            <ns3:cad>93</ns3:cad>
          </ns3:TrackPointExtension>
        </extensions>
      </trkpt>
      <trkpt lat="43.8274104706943035125732421875" lon="4.26121096126735210418701171875">
        <ele>91.59999847412109375</ele>
        <time>2024-01-27T09:06:42.000Z</time>
        <extensions>
          <ns3:TrackPointExtension>
            <ns3:hr>114</ns3:hr>
            <ns3:cad>93</ns3:cad>
          </ns3:TrackPointExtension>
        </extensions>
      </trkpt>
      <trkpt lat="43.8274361193180084228515625" lon="4.26120475865900516510009765625">
        <ele>91.59999847412109375</ele>
        <time>2024-01-27T09:06:43.000Z</time>
        <extensions>
          <ns3:TrackPointExtension>
            <ns3:hr>114</ns3:hr>
            <ns3:cad>92</ns3:cad>
          </ns3:TrackPointExtension>
        </extensions>
      </trkpt>
      <trkpt lat="43.82746252231299877166748046875" lon="4.26121632568538188934326171875">
        <ele>91.59999847412109375</ele>
        <time>2024-01-27T09:06:44.000Z</time>
        <extensions>
          <ns3:TrackPointExtension>
            <ns3:hr>114</ns3:hr>
            <ns3:cad>92</ns3:cad>
          </ns3:TrackPointExtension>
        </extensions>
      </trkpt>
      <trkpt lat="43.8274771906435489654541015625" lon="4.26123979501426219940185546875">
        <ele>91.59999847412109375</ele>
        <time>2024-01-27T09:06:45.000Z</time>
        <extensions>
          <ns3:TrackPointExtension>
            <ns3:hr>114</ns3:hr>
            <ns3:cad>92</ns3:cad>
          </ns3:TrackPointExtension>
        </extensions>
      </trkpt>
      <trkpt lat="43.827491104602813720703125" lon="4.2612698860466480255126953125">
        <ele>91.8000030517578125</ele>
        <time>2024-01-27T09:06:46.000Z</time>
        <extensions>
          <ns3:TrackPointExtension>
            <ns3:hr>114</ns3:hr>
            <ns3:cad>92</ns3:cad>
          </ns3:TrackPointExtension>
        </extensions>
      </trkpt>
      <trkpt lat="43.82750074379146099090576171875" lon="4.26130182109773159027099609375">
        <ele>91.8000030517578125</ele>
        <time>2024-01-27T09:06:47.000Z</time>
        <extensions>
          <ns3:TrackPointExtension>
            <ns3:hr>113</ns3:hr>
            <ns3:cad>91</ns3:cad>
          </ns3:TrackPointExtension>
        </extensions>
      </trkpt>
      <trkpt lat="43.82750594057142734527587890625" lon="4.26134507171809673309326171875">
        <ele>91.8000030517578125</ele>
        <time>2024-01-27T09:06:48.000Z</time>
        <extensions>
          <ns3:TrackPointExtension>
            <ns3:hr>113</ns3:hr>
            <ns3:cad>90</ns3:cad>
          </ns3:TrackPointExtension>
        </extensions>
      </trkpt>
      <trkpt lat="43.82750786840915679931640625" lon="4.2613811977207660675048828125">
        <ele>91.8000030517578125</ele>
        <time>2024-01-27T09:06:49.000Z</time>
        <extensions>
          <ns3:TrackPointExtension>
            <ns3:hr>113</ns3:hr>
            <ns3:cad>90</ns3:cad>
          </ns3:TrackPointExtension>
        </extensions>
      </trkpt>
      <trkpt lat="43.8275053538382053375244140625" lon="4.26142168231308460235595703125">
        <ele>91.8000030517578125</ele>
        <time>2024-01-27T09:06:50.000Z</time>
        <extensions>
          <ns3:TrackPointExtension>
            <ns3:hr>112</ns3:hr>
            <ns3:cad>90</ns3:cad>
          </ns3:TrackPointExtension>
        </extensions>
      </trkpt>
      <trkpt lat="43.82750610820949077606201171875" lon="4.26145990379154682159423828125">
        <ele>91.8000030517578125</ele>
        <time>2024-01-27T09:06:51.000Z</time>
        <extensions>
          <ns3:TrackPointExtension>
            <ns3:hr>112</ns3:hr>
            <ns3:cad>90</ns3:cad>
          </ns3:TrackPointExtension>
        </extensions>
      </trkpt>
      <trkpt lat="43.82750627584755420684814453125" lon="4.26149644888937473297119140625">
        <ele>92</ele>
        <time>2024-01-27T09:06:52.000Z</time>
        <extensions>
          <ns3:TrackPointExtension>
            <ns3:hr>113</ns3:hr>
            <ns3:cad>92</ns3:cad>
          </ns3:TrackPointExtension>
        </extensions>
      </trkpt>
      <trkpt lat="43.827507197856903076171875" lon="4.261532910168170928955078125">
        <ele>92</ele>
        <time>2024-01-27T09:06:53.000Z</time>
        <extensions>
          <ns3:TrackPointExtension>
            <ns3:hr>113</ns3:hr>
            <ns3:cad>94</ns3:cad>
          </ns3:TrackPointExtension>
        </extensions>
      </trkpt>
      <trkpt lat="43.82750795222818851470947265625" lon="4.26157079637050628662109375">
        <ele>92.1999969482421875</ele>
        <time>2024-01-27T09:06:54.000Z</time>
        <extensions>
          <ns3:TrackPointExtension>
            <ns3:hr>114</ns3:hr>
            <ns3:cad>94</ns3:cad>
          </ns3:TrackPointExtension>
        </extensions>
      </trkpt>
      <trkpt lat="43.827509544789791107177734375" lon="4.261609353125095367431640625">
        <ele>92.40000152587890625</ele>
        <time>2024-01-27T09:06:55.000Z</time>
        <extensions>
          <ns3:TrackPointExtension>
            <ns3:hr>114</ns3:hr>
            <ns3:cad>93</ns3:cad>
          </ns3:TrackPointExtension>
        </extensions>
      </trkpt>
      <trkpt lat="43.82751046679913997650146484375" lon="4.261647574603557586669921875">
        <ele>92.40000152587890625</ele>
        <time>2024-01-27T09:06:56.000Z</time>
        <extensions>
          <ns3:TrackPointExtension>
            <ns3:hr>115</ns3:hr>
            <ns3:cad>93</ns3:cad>
          </ns3:TrackPointExtension>
        </extensions>
      </trkpt>
      <trkpt lat="43.8275087065994739532470703125" lon="4.26168487407267093658447265625">
        <ele>92.40000152587890625</ele>
        <time>2024-01-27T09:06:57.000Z</time>
        <extensions>
          <ns3:TrackPointExtension>
            <ns3:hr>115</ns3:hr>
            <ns3:cad>92</ns3:cad>
          </ns3:TrackPointExtension>
        </extensions>
      </trkpt>
      <trkpt lat="43.8275070302188396453857421875" lon="4.26171789877116680145263671875">
        <ele>92.40000152587890625</ele>
        <time>2024-01-27T09:06:58.000Z</time>
        <extensions>
          <ns3:TrackPointExtension>
            <ns3:hr>116</ns3:hr>
            <ns3:cad>92</ns3:cad>
          </ns3:TrackPointExtension>
        </extensions>
      </trkpt>
      <trkpt lat="43.82750644348561763763427734375" lon="4.2617563717067241668701171875">
        <ele>92.40000152587890625</ele>
        <time>2024-01-27T09:06:59.000Z</time>
        <extensions>
          <ns3:TrackPointExtension>
            <ns3:hr>116</ns3:hr>
            <ns3:cad>92</ns3:cad>
          </ns3:TrackPointExtension>
        </extensions>
      </trkpt>
      <trkpt lat="43.8275083713233470916748046875" lon="4.26178981550037860870361328125">
        <ele>92.40000152587890625</ele>
        <time>2024-01-27T09:07:00.000Z</time>
        <extensions>
          <ns3:TrackPointExtension>
            <ns3:hr>117</ns3:hr>
            <ns3:cad>93</ns3:cad>
          </ns3:TrackPointExtension>
        </extensions>
      </trkpt>
      <trkpt lat="43.8275164179503917694091796875" lon="4.26183289848268032073974609375">
        <ele>92.59999847412109375</ele>
        <time>2024-01-27T09:07:01.000Z</time>
        <extensions>
          <ns3:TrackPointExtension>
            <ns3:hr>117</ns3:hr>
            <ns3:cad>93</ns3:cad>
          </ns3:TrackPointExtension>
        </extensions>
      </trkpt>
      <trkpt lat="43.82752723060548305511474609375" lon="4.2618626542389392852783203125">
        <ele>92.59999847412109375</ele>
        <time>2024-01-27T09:07:02.000Z</time>
        <extensions>
          <ns3:TrackPointExtension>
            <ns3:hr>118</ns3:hr>
            <ns3:cad>93</ns3:cad>
          </ns3:TrackPointExtension>
        </extensions>
      </trkpt>
      <trkpt lat="43.8275465928018093109130859375" lon="4.2618985287845134735107421875">
        <ele>92.59999847412109375</ele>
        <time>2024-01-27T09:07:03.000Z</time>
        <extensions>
          <ns3:TrackPointExtension>
            <ns3:hr>118</ns3:hr>
            <ns3:cad>91</ns3:cad>
          </ns3:TrackPointExtension>
        </extensions>
      </trkpt>
      <trkpt lat="43.82756763137876987457275390625" lon="4.261920489370822906494140625">
        <ele>92.59999847412109375</ele>
        <time>2024-01-27T09:07:04.000Z</time>
        <extensions>
          <ns3:TrackPointExtension>
            <ns3:hr>119</ns3:hr>
            <ns3:cad>91</ns3:cad>
          </ns3:TrackPointExtension>
        </extensions>
      </trkpt>
      <trkpt lat="43.82759369909763336181640625" lon="4.261940605938434600830078125">
        <ele>92.59999847412109375</ele>
        <time>2024-01-27T09:07:05.000Z</time>
        <extensions>
          <ns3:TrackPointExtension>
            <ns3:hr>119</ns3:hr>
            <ns3:cad>92</ns3:cad>
          </ns3:TrackPointExtension>
        </extensions>
      </trkpt>
      <trkpt lat="43.8276213593780994415283203125" lon="4.2619535140693187713623046875">
        <ele>92.59999847412109375</ele>
        <time>2024-01-27T09:07:06.000Z</time>
        <extensions>
          <ns3:TrackPointExtension>
            <ns3:hr>120</ns3:hr>
            <ns3:cad>92</ns3:cad>
          </ns3:TrackPointExtension>
        </extensions>
      </trkpt>
      <trkpt lat="43.82764591835439205169677734375" lon="4.2619632370769977569580078125">
        <ele>92.59999847412109375</ele>
        <time>2024-01-27T09:07:07.000Z</time>
        <extensions>
          <ns3:TrackPointExtension>
            <ns3:hr>120</ns3:hr>
            <ns3:cad>92</ns3:cad>
          </ns3:TrackPointExtension>
        </extensions>
      </trkpt>
      <trkpt lat="43.8276748359203338623046875" lon="4.26196868531405925750732421875">
        <ele>92.8000030517578125</ele>
        <time>2024-01-27T09:07:08.000Z</time>
        <extensions>
          <ns3:TrackPointExtension>
            <ns3:hr>121</ns3:hr>
            <ns3:cad>92</ns3:cad>
          </ns3:TrackPointExtension>
        </extensions>
      </trkpt>
      <trkpt lat="43.82770157419145107269287109375" lon="4.26197321154177188873291015625">
        <ele>92.8000030517578125</ele>
        <time>2024-01-27T09:07:09.000Z</time>
        <extensions>
          <ns3:TrackPointExtension>
            <ns3:hr>121</ns3:hr>
            <ns3:cad>92</ns3:cad>
          </ns3:TrackPointExtension>
        </extensions>
      </trkpt>
      <trkpt lat="43.827728144824504852294921875" lon="4.261975474655628204345703125">
        <ele>92.8000030517578125</ele>
        <time>2024-01-27T09:07:10.000Z</time>
        <extensions>
          <ns3:TrackPointExtension>
            <ns3:hr>122</ns3:hr>
            <ns3:cad>92</ns3:cad>
          </ns3:TrackPointExtension>
        </extensions>
      </trkpt>
      <trkpt lat="43.82774968631565570831298828125" lon="4.26197170279920101165771484375">
        <ele>93</ele>
        <time>2024-01-27T09:07:11.000Z</time>
        <extensions>
          <ns3:TrackPointExtension>
            <ns3:hr>122</ns3:hr>
            <ns3:cad>92</ns3:cad>
          </ns3:TrackPointExtension>
        </extensions>
      </trkpt>
      <trkpt lat="43.82777608931064605712890625" lon="4.26196818239986896514892578125">
        <ele>93.1999969482421875</ele>
        <time>2024-01-27T09:07:12.000Z</time>
        <extensions>
          <ns3:TrackPointExtension>
            <ns3:hr>122</ns3:hr>
            <ns3:cad>92</ns3:cad>
          </ns3:TrackPointExtension>
        </extensions>
      </trkpt>
      <trkpt lat="43.82780048064887523651123046875" lon="4.26195845939218997955322265625">
        <ele>93.1999969482421875</ele>
        <time>2024-01-27T09:07:13.000Z</time>
        <extensions>
          <ns3:TrackPointExtension>
            <ns3:hr>123</ns3:hr>
            <ns3:cad>92</ns3:cad>
          </ns3:TrackPointExtension>
        </extensions>
      </trkpt>
      <trkpt lat="43.827826716005802154541015625" lon="4.26195175386965274810791015625">
        <ele>93.1999969482421875</ele>
        <time>2024-01-27T09:07:14.000Z</time>
        <extensions>
          <ns3:TrackPointExtension>
            <ns3:hr>123</ns3:hr>
            <ns3:cad>92</ns3:cad>
          </ns3:TrackPointExtension>
        </extensions>
      </trkpt>
      <trkpt lat="43.8278503529727458953857421875" lon="4.26194253377616405487060546875">
        <ele>93.1999969482421875</ele>
        <time>2024-01-27T09:07:15.000Z</time>
        <extensions>
          <ns3:TrackPointExtension>
            <ns3:hr>123</ns3:hr>
            <ns3:cad>92</ns3:cad>
          </ns3:TrackPointExtension>
        </extensions>
      </trkpt>
      <trkpt lat="43.82787558250129222869873046875" lon="4.26193582825362682342529296875">
        <ele>93.40000152587890625</ele>
        <time>2024-01-27T09:07:16.000Z</time>
        <extensions>
          <ns3:TrackPointExtension>
            <ns3:hr>123</ns3:hr>
            <ns3:cad>92</ns3:cad>
          </ns3:TrackPointExtension>
        </extensions>
      </trkpt>
      <trkpt lat="43.8279028236865997314453125" lon="4.261927194893360137939453125">
        <ele>93.40000152587890625</ele>
        <time>2024-01-27T09:07:17.000Z</time>
        <extensions>
          <ns3:TrackPointExtension>
            <ns3:hr>124</ns3:hr>
            <ns3:cad>92</ns3:cad>
          </ns3:TrackPointExtension>
        </extensions>
      </trkpt>
      <trkpt lat="43.8279283046722412109375" lon="4.26192141138017177581787109375">
        <ele>93.59999847412109375</ele>
        <time>2024-01-27T09:07:18.000Z</time>
        <extensions>
          <ns3:TrackPointExtension>
            <ns3:hr>124</ns3:hr>
            <ns3:cad>92</ns3:cad>
          </ns3:TrackPointExtension>
        </extensions>
      </trkpt>
      <trkpt lat="43.82795604877173900604248046875" lon="4.26191680133342742919921875">
        <ele>93.59999847412109375</ele>
        <time>2024-01-27T09:07:19.000Z</time>
        <extensions>
          <ns3:TrackPointExtension>
            <ns3:hr>124</ns3:hr>
            <ns3:cad>92</ns3:cad>
          </ns3:TrackPointExtension>
        </extensions>
      </trkpt>
      <trkpt lat="43.82797985337674617767333984375" lon="4.26191185601055622100830078125">
        <ele>93.59999847412109375</ele>
        <time>2024-01-27T09:07:20.000Z</time>
        <extensions>
          <ns3:TrackPointExtension>
            <ns3:hr>124</ns3:hr>
            <ns3:cad>94</ns3:cad>
          </ns3:TrackPointExtension>
        </extensions>
      </trkpt>
      <trkpt lat="43.82800810039043426513671875" lon="4.26190850324928760528564453125">
        <ele>93.8000030517578125</ele>
        <time>2024-01-27T09:07:21.000Z</time>
        <extensions>
          <ns3:TrackPointExtension>
            <ns3:hr>124</ns3:hr>
            <ns3:cad>94</ns3:cad>
          </ns3:TrackPointExtension>
        </extensions>
      </trkpt>
      <trkpt lat="43.8280317373573780059814453125" lon="4.26190070807933807373046875">
        <ele>93.8000030517578125</ele>
        <time>2024-01-27T09:07:22.000Z</time>
        <extensions>
          <ns3:TrackPointExtension>
            <ns3:hr>124</ns3:hr>
            <ns3:cad>92</ns3:cad>
          </ns3:TrackPointExtension>
        </extensions>
      </trkpt>
      <trkpt lat="43.8280585594475269317626953125" lon="4.26189525984227657318115234375">
        <ele>94</ele>
        <time>2024-01-27T09:07:23.000Z</time>
        <extensions>
          <ns3:TrackPointExtension>
            <ns3:hr>125</ns3:hr>
            <ns3:cad>92</ns3:cad>
          </ns3:TrackPointExtension>
        </extensions>
      </trkpt>
      <trkpt lat="43.8280800171196460723876953125" lon="4.2618893086910247802734375">
        <ele>94</ele>
        <time>2024-01-27T09:07:24.000Z</time>
        <extensions>
          <ns3:TrackPointExtension>
            <ns3:hr>124</ns3:hr>
            <ns3:cad>92</ns3:cad>
          </ns3:TrackPointExtension>
        </extensions>
      </trkpt>
      <trkpt lat="43.82810533046722412109375" lon="4.26188503392040729522705078125">
        <ele>94.1999969482421875</ele>
        <time>2024-01-27T09:07:25.000Z</time>
        <extensions>
          <ns3:TrackPointExtension>
            <ns3:hr>124</ns3:hr>
            <ns3:cad>94</ns3:cad>
          </ns3:TrackPointExtension>
        </extensions>
      </trkpt>
      <trkpt lat="43.82812938652932643890380859375" lon="4.2618807591497898101806640625">
        <ele>94.1999969482421875</ele>
        <time>2024-01-27T09:07:26.000Z</time>
        <extensions>
          <ns3:TrackPointExtension>
            <ns3:hr>124</ns3:hr>
            <ns3:cad>94</ns3:cad>
          </ns3:TrackPointExtension>
        </extensions>
      </trkpt>
      <trkpt lat="43.82815302349627017974853515625" lon="4.261876903474330902099609375">
        <ele>94.1999969482421875</ele>
        <time>2024-01-27T09:07:27.000Z</time>
        <extensions>
          <ns3:TrackPointExtension>
            <ns3:hr>123</ns3:hr>
            <ns3:cad>94</ns3:cad>
          </ns3:TrackPointExtension>
        </extensions>
      </trkpt>
      <trkpt lat="43.8281795941293239593505859375" lon="4.26187950186431407928466796875">
        <ele>94.40000152587890625</ele>
        <time>2024-01-27T09:07:28.000Z</time>
        <extensions>
          <ns3:TrackPointExtension>
            <ns3:hr>123</ns3:hr>
            <ns3:cad>94</ns3:cad>
          </ns3:TrackPointExtension>
        </extensions>
      </trkpt>
      <trkpt lat="43.82820297963917255401611328125" lon="4.261884279549121856689453125">
        <ele>94.40000152587890625</ele>
        <time>2024-01-27T09:07:29.000Z</time>
        <extensions>
          <ns3:TrackPointExtension>
            <ns3:hr>121</ns3:hr>
            <ns3:cad>94</ns3:cad>
          </ns3:TrackPointExtension>
        </extensions>
      </trkpt>
      <trkpt lat="43.828227035701274871826171875" lon="4.2618951760232448577880859375">
        <ele>94.59999847412109375</ele>
        <time>2024-01-27T09:07:30.000Z</time>
        <extensions>
          <ns3:TrackPointExtension>
            <ns3:hr>121</ns3:hr>
            <ns3:cad>94</ns3:cad>
          </ns3:TrackPointExtension>
        </extensions>
      </trkpt>
      <trkpt lat="43.82825142703950405120849609375" lon="4.261909425258636474609375">
        <ele>94.59999847412109375</ele>
        <time>2024-01-27T09:07:31.000Z</time>
        <extensions>
          <ns3:TrackPointExtension>
            <ns3:hr>121</ns3:hr>
            <ns3:cad>94</ns3:cad>
          </ns3:TrackPointExtension>
        </extensions>
      </trkpt>
      <trkpt lat="43.8282768242061138153076171875" lon="4.26194035448133945465087890625">
        <ele>94.8000030517578125</ele>
        <time>2024-01-27T09:07:32.000Z</time>
        <extensions>
          <ns3:TrackPointExtension>
            <ns3:hr>121</ns3:hr>
            <ns3:cad>91</ns3:cad>
          </ns3:TrackPointExtension>
        </extensions>
      </trkpt>
      <trkpt lat="43.82830088026821613311767578125" lon="4.26197237335145473480224609375">
        <ele>95</ele>
        <time>2024-01-27T09:07:33.000Z</time>
        <extensions>
          <ns3:TrackPointExtension>
            <ns3:hr>121</ns3:hr>
            <ns3:cad>91</ns3:cad>
          </ns3:TrackPointExtension>
        </extensions>
      </trkpt>
      <trkpt lat="43.82832200266420841217041015625" lon="4.26200933754444122314453125">
        <ele>95</ele>
        <time>2024-01-27T09:07:34.000Z</time>
        <extensions>
          <ns3:TrackPointExtension>
            <ns3:hr>121</ns3:hr>
            <ns3:cad>92</ns3:cad>
          </ns3:TrackPointExtension>
        </extensions>
      </trkpt>
      <trkpt lat="43.8283422030508518218994140625" lon="4.262051247060298919677734375">
        <ele>95.1999969482421875</ele>
        <time>2024-01-27T09:07:35.000Z</time>
        <extensions>
          <ns3:TrackPointExtension>
            <ns3:hr>121</ns3:hr>
            <ns3:cad>92</ns3:cad>
          </ns3:TrackPointExtension>
        </extensions>
      </trkpt>
      <trkpt lat="43.82835787720978260040283203125" lon="4.26208837889134883880615234375">
        <ele>95.1999969482421875</ele>
        <time>2024-01-27T09:07:36.000Z</time>
        <extensions>
          <ns3:TrackPointExtension>
            <ns3:hr>121</ns3:hr>
            <ns3:cad>94</ns3:cad>
          </ns3:TrackPointExtension>
        </extensions>
      </trkpt>
      <trkpt lat="43.828373886644840240478515625" lon="4.262130372226238250732421875">
        <ele>95.40000152587890625</ele>
        <time>2024-01-27T09:07:37.000Z</time>
        <extensions>
          <ns3:TrackPointExtension>
            <ns3:hr>122</ns3:hr>
            <ns3:cad>94</ns3:cad>
          </ns3:TrackPointExtension>
        </extensions>
      </trkpt>
      <trkpt lat="43.828389644622802734375" lon="4.262163229286670684814453125">
        <ele>95.59999847412109375</ele>
        <time>2024-01-27T09:07:38.000Z</time>
        <extensions>
          <ns3:TrackPointExtension>
            <ns3:hr>122</ns3:hr>
            <ns3:cad>94</ns3:cad>
          </ns3:TrackPointExtension>
        </extensions>
      </trkpt>
      <trkpt lat="43.8284048996865749359130859375" lon="4.26219684071838855743408203125">
        <ele>96</ele>
        <time>2024-01-27T09:07:39.000Z</time>
        <extensions>
          <ns3:TrackPointExtension>
            <ns3:hr>122</ns3:hr>
            <ns3:cad>94</ns3:cad>
          </ns3:TrackPointExtension>
        </extensions>
      </trkpt>
      <trkpt lat="43.82841990329325199127197265625" lon="4.2622224055230617523193359375">
        <ele>96.1999969482421875</ele>
        <time>2024-01-27T09:07:40.000Z</time>
        <extensions>
          <ns3:TrackPointExtension>
            <ns3:hr>122</ns3:hr>
            <ns3:cad>94</ns3:cad>
          </ns3:TrackPointExtension>
        </extensions>
      </trkpt>
      <trkpt lat="43.8284344039857387542724609375" lon="4.262252748012542724609375">
        <ele>96.40000152587890625</ele>
        <time>2024-01-27T09:07:41.000Z</time>
        <extensions>
          <ns3:TrackPointExtension>
            <ns3:hr>122</ns3:hr>
            <ns3:cad>94</ns3:cad>
          </ns3:TrackPointExtension>
        </extensions>
      </trkpt>
      <trkpt lat="43.828448988497257232666015625" lon="4.26228149794042110443115234375">
        <ele>96.40000152587890625</ele>
        <time>2024-01-27T09:07:42.000Z</time>
        <extensions>
          <ns3:TrackPointExtension>
            <ns3:hr>122</ns3:hr>
            <ns3:cad>94</ns3:cad>
          </ns3:TrackPointExtension>
        </extensions>
      </trkpt>
      <trkpt lat="43.82846483029425144195556640625" lon="4.262312762439250946044921875">
        <ele>96.59999847412109375</ele>
        <time>2024-01-27T09:07:43.000Z</time>
        <extensions>
          <ns3:TrackPointExtension>
            <ns3:hr>122</ns3:hr>
            <ns3:cad>94</ns3:cad>
          </ns3:TrackPointExtension>
        </extensions>
      </trkpt>
      <trkpt lat="43.82848176173865795135498046875" lon="4.26234670914709568023681640625">
        <ele>96.8000030517578125</ele>
        <time>2024-01-27T09:07:44.000Z</time>
        <extensions>
          <ns3:TrackPointExtension>
            <ns3:hr>122</ns3:hr>
            <ns3:cad>94</ns3:cad>
          </ns3:TrackPointExtension>
        </extensions>
      </trkpt>
      <trkpt lat="43.8284964300692081451416015625" lon="4.26237001083791255950927734375">
        <ele>96.8000030517578125</ele>
        <time>2024-01-27T09:07:45.000Z</time>
        <extensions>
          <ns3:TrackPointExtension>
            <ns3:hr>122</ns3:hr>
            <ns3:cad>94</ns3:cad>
          </ns3:TrackPointExtension>
        </extensions>
      </trkpt>
      <trkpt lat="43.82851369678974151611328125" lon="4.262404628098011016845703125">
        <ele>96.8000030517578125</ele>
        <time>2024-01-27T09:07:46.000Z</time>
        <extensions>
          <ns3:TrackPointExtension>
            <ns3:hr>122</ns3:hr>
            <ns3:cad>94</ns3:cad>
          </ns3:TrackPointExtension>
        </extensions>
      </trkpt>
      <trkpt lat="43.828529454767704010009765625" lon="4.2624349705874919891357421875">
        <ele>97</ele>
        <time>2024-01-27T09:07:47.000Z</time>
        <extensions>
          <ns3:TrackPointExtension>
            <ns3:hr>122</ns3:hr>
            <ns3:cad>94</ns3:cad>
          </ns3:TrackPointExtension>
        </extensions>
      </trkpt>
      <trkpt lat="43.828544877469539642333984375" lon="4.26246531307697296142578125">
        <ele>97</ele>
        <time>2024-01-27T09:07:48.000Z</time>
        <extensions>
          <ns3:TrackPointExtension>
            <ns3:hr>123</ns3:hr>
            <ns3:cad>94</ns3:cad>
          </ns3:TrackPointExtension>
        </extensions>
      </trkpt>
      <trkpt lat="43.828560300171375274658203125" lon="4.26248970441520214080810546875">
        <ele>97</ele>
        <time>2024-01-27T09:07:49.000Z</time>
        <extensions>
          <ns3:TrackPointExtension>
            <ns3:hr>123</ns3:hr>
            <ns3:cad>94</ns3:cad>
          </ns3:TrackPointExtension>
        </extensions>
      </trkpt>
      <trkpt lat="43.8285748846828937530517578125" lon="4.2625191248953342437744140625">
        <ele>97.40000152587890625</ele>
        <time>2024-01-27T09:07:50.000Z</time>
        <extensions>
          <ns3:TrackPointExtension>
            <ns3:hr>123</ns3:hr>
            <ns3:cad>94</ns3:cad>
          </ns3:TrackPointExtension>
        </extensions>
      </trkpt>
      <trkpt lat="43.82858854718506336212158203125" lon="4.26254452206194400787353515625">
        <ele>97.59999847412109375</ele>
        <time>2024-01-27T09:07:51.000Z</time>
        <extensions>
          <ns3:TrackPointExtension>
            <ns3:hr>123</ns3:hr>
            <ns3:cad>94</ns3:cad>
          </ns3:TrackPointExtension>
        </extensions>
      </trkpt>
      <trkpt lat="43.828602544963359832763671875" lon="4.26257201470434665679931640625">
        <ele>97.8000030517578125</ele>
        <time>2024-01-27T09:07:52.000Z</time>
        <extensions>
          <ns3:TrackPointExtension>
            <ns3:hr>124</ns3:hr>
            <ns3:cad>94</ns3:cad>
          </ns3:TrackPointExtension>
        </extensions>
      </trkpt>
      <trkpt lat="43.82861939258873462677001953125" lon="4.262609146535396575927734375">
        <ele>97.8000030517578125</ele>
        <time>2024-01-27T09:07:53.000Z</time>
        <extensions>
          <ns3:TrackPointExtension>
            <ns3:hr>124</ns3:hr>
            <ns3:cad>94</ns3:cad>
          </ns3:TrackPointExtension>
        </extensions>
      </trkpt>
      <trkpt lat="43.82863515056669712066650390625" lon="4.26263370551168918609619140625">
        <ele>98</ele>
        <time>2024-01-27T09:07:54.000Z</time>
        <extensions>
          <ns3:TrackPointExtension>
            <ns3:hr>124</ns3:hr>
            <ns3:cad>94</ns3:cad>
          </ns3:TrackPointExtension>
        </extensions>
      </trkpt>
      <trkpt lat="43.8286536745727062225341796875" lon="4.2626686580479145050048828125">
        <ele>98.1999969482421875</ele>
        <time>2024-01-27T09:07:55.000Z</time>
        <extensions>
          <ns3:TrackPointExtension>
            <ns3:hr>124</ns3:hr>
            <ns3:cad>94</ns3:cad>
          </ns3:TrackPointExtension>
        </extensions>
      </trkpt>
      <trkpt lat="43.82867060601711273193359375" lon="4.26269330084323883056640625">
        <ele>98.59999847412109375</ele>
        <time>2024-01-27T09:07:56.000Z</time>
        <extensions>
          <ns3:TrackPointExtension>
            <ns3:hr>124</ns3:hr>
            <ns3:cad>94</ns3:cad>
          </ns3:TrackPointExtension>
        </extensions>
      </trkpt>
      <trkpt lat="43.82868577726185321807861328125" lon="4.2627233080565929412841796875">
        <ele>98.59999847412109375</ele>
        <time>2024-01-27T09:07:57.000Z</time>
        <extensions>
          <ns3:TrackPointExtension>
            <ns3:hr>124</ns3:hr>
            <ns3:cad>92</ns3:cad>
          </ns3:TrackPointExtension>
        </extensions>
      </trkpt>
      <trkpt lat="43.828699104487895965576171875" lon="4.26274803467094898223876953125">
        <ele>98.8000030517578125</ele>
        <time>2024-01-27T09:07:58.000Z</time>
        <extensions>
          <ns3:TrackPointExtension>
            <ns3:hr>124</ns3:hr>
            <ns3:cad>92</ns3:cad>
          </ns3:TrackPointExtension>
        </extensions>
      </trkpt>
      <trkpt lat="43.8287128508090972900390625" lon="4.26278089173138141632080078125">
        <ele>99</ele>
        <time>2024-01-27T09:07:59.000Z</time>
        <extensions>
          <ns3:TrackPointExtension>
            <ns3:hr>125</ns3:hr>
            <ns3:cad>92</ns3:cad>
          </ns3:TrackPointExtension>
        </extensions>
      </trkpt>
      <trkpt lat="43.82872014306485652923583984375" lon="4.26281609572470188140869140625">
        <ele>99.1999969482421875</ele>
        <time>2024-01-27T09:08:00.000Z</time>
        <extensions>
          <ns3:TrackPointExtension>
            <ns3:hr>125</ns3:hr>
            <ns3:cad>92</ns3:cad>
          </ns3:TrackPointExtension>
        </extensions>
      </trkpt>
      <trkpt lat="43.82873053662478923797607421875" lon="4.26284886896610260009765625">
        <ele>99.59999847412109375</ele>
        <time>2024-01-27T09:08:01.000Z</time>
        <extensions>
          <ns3:TrackPointExtension>
            <ns3:hr>125</ns3:hr>
            <ns3:cad>94</ns3:cad>
          </ns3:TrackPointExtension>
        </extensions>
      </trkpt>
      <trkpt lat="43.8287368230521678924560546875" lon="4.2628842405974864959716796875">
        <ele>99.8000030517578125</ele>
        <time>2024-01-27T09:08:02.000Z</time>
        <extensions>
          <ns3:TrackPointExtension>
            <ns3:hr>125</ns3:hr>
            <ns3:cad>94</ns3:cad>
          </ns3:TrackPointExtension>
        </extensions>
      </trkpt>
      <trkpt lat="43.82874093018472194671630859375" lon="4.26291667856276035308837890625">
        <ele>100</ele>
        <time>2024-01-27T09:08:03.000Z</time>
        <extensions>
          <ns3:TrackPointExtension>
            <ns3:hr>125</ns3:hr>
            <ns3:cad>94</ns3:cad>
          </ns3:TrackPointExtension>
        </extensions>
      </trkpt>
      <trkpt lat="43.82874394766986370086669921875" lon="4.26295707933604717254638671875">
        <ele>100.1999969482421875</ele>
        <time>2024-01-27T09:08:04.000Z</time>
        <extensions>
          <ns3:TrackPointExtension>
            <ns3:hr>125</ns3:hr>
            <ns3:cad>94</ns3:cad>
          </ns3:TrackPointExtension>
        </extensions>
      </trkpt>
      <trkpt lat="43.82874914444983005523681640625" lon="4.26299228332936763763427734375">
        <ele>100.59999847412109375</ele>
        <time>2024-01-27T09:08:05.000Z</time>
        <extensions>
          <ns3:TrackPointExtension>
            <ns3:hr>125</ns3:hr>
            <ns3:cad>94</ns3:cad>
          </ns3:TrackPointExtension>
        </extensions>
      </trkpt>
      <trkpt lat="43.828751407563686370849609375" lon="4.2630324326455593109130859375">
        <ele>100.8000030517578125</ele>
        <time>2024-01-27T09:08:06.000Z</time>
        <extensions>
          <ns3:TrackPointExtension>
            <ns3:hr>125</ns3:hr>
            <ns3:cad>92</ns3:cad>
          </ns3:TrackPointExtension>
        </extensions>
      </trkpt>
      <trkpt lat="43.82875434122979640960693359375" lon="4.263063110411167144775390625">
        <ele>101</ele>
        <time>2024-01-27T09:08:07.000Z</time>
        <extensions>
          <ns3:TrackPointExtension>
            <ns3:hr>125</ns3:hr>
            <ns3:cad>92</ns3:cad>
          </ns3:TrackPointExtension>
        </extensions>
      </trkpt>
      <trkpt lat="43.8287522457540035247802734375" lon="4.26309890113770961761474609375">
        <ele>101.1999969482421875</ele>
        <time>2024-01-27T09:08:08.000Z</time>
        <extensions>
          <ns3:TrackPointExtension>
            <ns3:hr>126</ns3:hr>
            <ns3:cad>92</ns3:cad>
          </ns3:TrackPointExtension>
        </extensions>
      </trkpt>
      <trkpt lat="43.8287529163062572479248046875" lon="4.26313544623553752899169921875">
        <ele>101.1999969482421875</ele>
        <time>2024-01-27T09:08:09.000Z</time>
        <extensions>
          <ns3:TrackPointExtension>
            <ns3:hr>126</ns3:hr>
            <ns3:cad>92</ns3:cad>
          </ns3:TrackPointExtension>
        </extensions>
      </trkpt>
      <trkpt lat="43.82875216193497180938720703125" lon="4.26316847093403339385986328125">
        <ele>101.40000152587890625</ele>
        <time>2024-01-27T09:08:10.000Z</time>
        <extensions>
          <ns3:TrackPointExtension>
            <ns3:hr>126</ns3:hr>
            <ns3:cad>94</ns3:cad>
          </ns3:TrackPointExtension>
        </extensions>
      </trkpt>
      <trkpt lat="43.8287505693733692169189453125" lon="4.26320962607860565185546875">
        <ele>101.8000030517578125</ele>
        <time>2024-01-27T09:08:11.000Z</time>
        <extensions>
          <ns3:TrackPointExtension>
            <ns3:hr>126</ns3:hr>
            <ns3:cad>94</ns3:cad>
          </ns3:TrackPointExtension>
        </extensions>
      </trkpt>
      <trkpt lat="43.82875182665884494781494140625" lon="4.26324290223419666290283203125">
        <ele>102</ele>
        <time>2024-01-27T09:08:12.000Z</time>
        <extensions>
          <ns3:TrackPointExtension>
            <ns3:hr>126</ns3:hr>
            <ns3:cad>94</ns3:cad>
          </ns3:TrackPointExtension>
        </extensions>
      </trkpt>
      <trkpt lat="43.828749395906925201416015625" lon="4.26328548230230808258056640625">
        <ele>102.1999969482421875</ele>
        <time>2024-01-27T09:08:13.000Z</time>
        <extensions>
          <ns3:TrackPointExtension>
            <ns3:hr>126</ns3:hr>
            <ns3:cad>94</ns3:cad>
          </ns3:TrackPointExtension>
        </extensions>
      </trkpt>
      <trkpt lat="43.82875098846852779388427734375" lon="4.26331825554370880126953125">
        <ele>102.40000152587890625</ele>
        <time>2024-01-27T09:08:14.000Z</time>
        <extensions>
          <ns3:TrackPointExtension>
            <ns3:hr>127</ns3:hr>
            <ns3:cad>94</ns3:cad>
          </ns3:TrackPointExtension>
        </extensions>
      </trkpt>
      <trkpt lat="43.82875283248722553253173828125" lon="4.26335580646991729736328125">
        <ele>102.59999847412109375</ele>
        <time>2024-01-27T09:08:15.000Z</time>
        <extensions>
          <ns3:TrackPointExtension>
            <ns3:hr>127</ns3:hr>
            <ns3:cad>94</ns3:cad>
          </ns3:TrackPointExtension>
        </extensions>
      </trkpt>
      <trkpt lat="43.82875584997236728668212890625" lon="4.26339075900614261627197265625">
        <ele>102.8000030517578125</ele>
        <time>2024-01-27T09:08:16.000Z</time>
        <extensions>
          <ns3:TrackPointExtension>
            <ns3:hr>127</ns3:hr>
            <ns3:cad>94</ns3:cad>
          </ns3:TrackPointExtension>
        </extensions>
      </trkpt>
      <trkpt lat="43.8287562690675258636474609375" lon="4.26342361606657505035400390625">
        <ele>103</ele>
        <time>2024-01-27T09:08:17.000Z</time>
        <extensions>
          <ns3:TrackPointExtension>
            <ns3:hr>128</ns3:hr>
            <ns3:cad>95</ns3:cad>
          </ns3:TrackPointExtension>
        </extensions>
      </trkpt>
      <trkpt lat="43.82875752635300159454345703125" lon="4.26346217282116413116455078125">
        <ele>103.1999969482421875</ele>
        <time>2024-01-27T09:08:18.000Z</time>
        <extensions>
          <ns3:TrackPointExtension>
            <ns3:hr>128</ns3:hr>
            <ns3:cad>95</ns3:cad>
          </ns3:TrackPointExtension>
        </extensions>
      </trkpt>
      <trkpt lat="43.82876138202846050262451171875" lon="4.26349394023418426513671875">
        <ele>103.40000152587890625</ele>
        <time>2024-01-27T09:08:19.000Z</time>
        <extensions>
          <ns3:TrackPointExtension>
            <ns3:hr>128</ns3:hr>
            <ns3:cad>95</ns3:cad>
          </ns3:TrackPointExtension>
        </extensions>
      </trkpt>
      <trkpt lat="43.828762136399745941162109375" lon="4.2635308206081390380859375">
        <ele>103.8000030517578125</ele>
        <time>2024-01-27T09:08:20.000Z</time>
        <extensions>
          <ns3:TrackPointExtension>
            <ns3:hr>129</ns3:hr>
            <ns3:cad>95</ns3:cad>
          </ns3:TrackPointExtension>
        </extensions>
      </trkpt>
      <trkpt lat="43.828766159713268280029296875" lon="4.2635601572692394256591796875">
        <ele>104</ele>
        <time>2024-01-27T09:08:21.000Z</time>
        <extensions>
          <ns3:TrackPointExtension>
            <ns3:hr>129</ns3:hr>
            <ns3:cad>95</ns3:cad>
          </ns3:TrackPointExtension>
        </extensions>
      </trkpt>
      <trkpt lat="43.8287706859409809112548828125" lon="4.26359712146222591400146484375">
        <ele>104.1999969482421875</ele>
        <time>2024-01-27T09:08:22.000Z</time>
        <extensions>
          <ns3:TrackPointExtension>
            <ns3:hr>129</ns3:hr>
            <ns3:cad>95</ns3:cad>
          </ns3:TrackPointExtension>
        </extensions>
      </trkpt>
      <trkpt lat="43.82877747528254985809326171875" lon="4.2636262066662311553955078125">
        <ele>104.40000152587890625</ele>
        <time>2024-01-27T09:08:23.000Z</time>
        <extensions>
          <ns3:TrackPointExtension>
            <ns3:hr>130</ns3:hr>
            <ns3:cad>94</ns3:cad>
          </ns3:TrackPointExtension>
        </extensions>
      </trkpt>
      <trkpt lat="43.82878367789089679718017578125" lon="4.26366032101213932037353515625">
        <ele>104.59999847412109375</ele>
        <time>2024-01-27T09:08:24.000Z</time>
        <extensions>
          <ns3:TrackPointExtension>
            <ns3:hr>130</ns3:hr>
            <ns3:cad>94</ns3:cad>
          </ns3:TrackPointExtension>
        </extensions>
      </trkpt>
      <trkpt lat="43.82879021577537059783935546875" lon="4.26369904540479183197021484375">
        <ele>105</ele>
        <time>2024-01-27T09:08:25.000Z</time>
        <extensions>
          <ns3:TrackPointExtension>
            <ns3:hr>130</ns3:hr>
            <ns3:cad>94</ns3:cad>
          </ns3:TrackPointExtension>
        </extensions>
      </trkpt>
      <trkpt lat="43.828798346221446990966796875" lon="4.26372670568525791168212890625">
        <ele>105</ele>
        <time>2024-01-27T09:08:26.000Z</time>
        <extensions>
          <ns3:TrackPointExtension>
            <ns3:hr>131</ns3:hr>
            <ns3:cad>95</ns3:cad>
          </ns3:TrackPointExtension>
        </extensions>
      </trkpt>
      <trkpt lat="43.82880580611526966094970703125" lon="4.2637619934976100921630859375">
        <ele>105.40000152587890625</ele>
        <time>2024-01-27T09:08:27.000Z</time>
        <extensions>
          <ns3:TrackPointExtension>
            <ns3:hr>131</ns3:hr>
            <ns3:cad>95</ns3:cad>
          </ns3:TrackPointExtension>
        </extensions>
      </trkpt>
      <trkpt lat="43.82881754077970981597900390625" lon="4.26378361880779266357421875">
        <ele>105.59999847412109375</ele>
        <time>2024-01-27T09:08:28.000Z</time>
        <extensions>
          <ns3:TrackPointExtension>
            <ns3:hr>131</ns3:hr>
            <ns3:cad>95</ns3:cad>
          </ns3:TrackPointExtension>
        </extensions>
      </trkpt>
      <trkpt lat="43.82883287966251373291015625" lon="4.26381471566855907440185546875">
        <ele>105.8000030517578125</ele>
        <time>2024-01-27T09:08:29.000Z</time>
        <extensions>
          <ns3:TrackPointExtension>
            <ns3:hr>132</ns3:hr>
            <ns3:cad>94</ns3:cad>
          </ns3:TrackPointExtension>
        </extensions>
      </trkpt>
      <trkpt lat="43.82885056547820568084716796875" lon="4.26383365876972675323486328125">
        <ele>106</ele>
        <time>2024-01-27T09:08:30.000Z</time>
        <extensions>
          <ns3:TrackPointExtension>
            <ns3:hr>132</ns3:hr>
            <ns3:cad>94</ns3:cad>
          </ns3:TrackPointExtension>
        </extensions>
      </trkpt>
      <trkpt lat="43.8288716040551662445068359375" lon="4.2638515122234821319580078125">
        <ele>106.40000152587890625</ele>
        <time>2024-01-27T09:08:31.000Z</time>
        <extensions>
          <ns3:TrackPointExtension>
            <ns3:hr>132</ns3:hr>
            <ns3:cad>93</ns3:cad>
          </ns3:TrackPointExtension>
        </extensions>
      </trkpt>
      <trkpt lat="43.8288944028317928314208984375" lon="4.2638622410595417022705078125">
        <ele>106.8000030517578125</ele>
        <time>2024-01-27T09:08:32.000Z</time>
        <extensions>
          <ns3:TrackPointExtension>
            <ns3:hr>132</ns3:hr>
            <ns3:cad>93</ns3:cad>
          </ns3:TrackPointExtension>
        </extensions>
      </trkpt>
      <trkpt lat="43.8289166986942291259765625" lon="4.26386567763984203338623046875">
        <ele>107</ele>
        <time>2024-01-27T09:08:33.000Z</time>
        <extensions>
          <ns3:TrackPointExtension>
            <ns3:hr>132</ns3:hr>
            <ns3:cad>93</ns3:cad>
          </ns3:TrackPointExtension>
        </extensions>
      </trkpt>
      <trkpt lat="43.82894461043179035186767578125" lon="4.26386685110628604888916015625">
        <ele>107</ele>
        <time>2024-01-27T09:08:34.000Z</time>
        <extensions>
          <ns3:TrackPointExtension>
            <ns3:hr>132</ns3:hr>
            <ns3:cad>93</ns3:cad>
          </ns3:TrackPointExtension>
        </extensions>
      </trkpt>
      <trkpt lat="43.82896757684648036956787109375" lon="4.26386618055403232574462890625">
        <ele>107.40000152587890625</ele>
        <time>2024-01-27T09:08:35.000Z</time>
        <extensions>
          <ns3:TrackPointExtension>
            <ns3:hr>133</ns3:hr>
            <ns3:cad>93</ns3:cad>
          </ns3:TrackPointExtension>
        </extensions>
      </trkpt>
      <trkpt lat="43.82899641059339046478271484375" lon="4.26386735402047634124755859375">
        <ele>107.8000030517578125</ele>
        <time>2024-01-27T09:08:36.000Z</time>
        <extensions>
          <ns3:TrackPointExtension>
            <ns3:hr>133</ns3:hr>
            <ns3:cad>93</ns3:cad>
          </ns3:TrackPointExtension>
        </extensions>
      </trkpt>
      <trkpt lat="43.829023651778697967529296875" lon="4.26386433653533458709716796875">
        <ele>108</ele>
        <time>2024-01-27T09:08:37.000Z</time>
        <extensions>
          <ns3:TrackPointExtension>
            <ns3:hr>133</ns3:hr>
            <ns3:cad>93</ns3:cad>
          </ns3:TrackPointExtension>
        </extensions>
      </trkpt>
      <trkpt lat="43.82904603146016597747802734375" lon="4.26386048085987567901611328125">
        <ele>108.1999969482421875</ele>
        <time>2024-01-27T09:08:38.000Z</time>
        <extensions>
          <ns3:TrackPointExtension>
            <ns3:hr>133</ns3:hr>
            <ns3:cad>93</ns3:cad>
          </ns3:TrackPointExtension>
        </extensions>
      </trkpt>
      <trkpt lat="43.8290771283209323883056640625" lon="4.26386416889727115631103515625">
        <ele>108.59999847412109375</ele>
        <time>2024-01-27T09:08:39.000Z</time>
        <extensions>
          <ns3:TrackPointExtension>
            <ns3:hr>133</ns3:hr>
            <ns3:cad>95</ns3:cad>
          </ns3:TrackPointExtension>
        </extensions>
      </trkpt>
      <trkpt lat="43.829102106392383575439453125" lon="4.26386953331530094146728515625">
        <ele>108.8000030517578125</ele>
        <time>2024-01-27T09:08:40.000Z</time>
        <extensions>
          <ns3:TrackPointExtension>
            <ns3:hr>133</ns3:hr>
            <ns3:cad>93</ns3:cad>
          </ns3:TrackPointExtension>
        </extensions>
      </trkpt>
      <trkpt lat="43.829130269587039947509765625" lon="4.2638796754181385040283203125">
        <ele>109</ele>
        <time>2024-01-27T09:08:41.000Z</time>
        <extensions>
          <ns3:TrackPointExtension>
            <ns3:hr>133</ns3:hr>
            <ns3:cad>93</ns3:cad>
          </ns3:TrackPointExtension>
        </extensions>
      </trkpt>
      <trkpt lat="43.82915415801107883453369140625" lon="4.26388512365520000457763671875">
        <ele>109</ele>
        <time>2024-01-27T09:08:42.000Z</time>
        <extensions>
          <ns3:TrackPointExtension>
            <ns3:hr>134</ns3:hr>
            <ns3:cad>93</ns3:cad>
          </ns3:TrackPointExtension>
        </extensions>
      </trkpt>
      <trkpt lat="43.82918198592960834503173828125" lon="4.26389970816671848297119140625">
        <ele>109.1999969482421875</ele>
        <time>2024-01-27T09:08:43.000Z</time>
        <extensions>
          <ns3:TrackPointExtension>
            <ns3:hr>134</ns3:hr>
            <ns3:cad>93</ns3:cad>
          </ns3:TrackPointExtension>
        </extensions>
      </trkpt>
      <trkpt lat="43.82920813746750354766845703125" lon="4.26390708424150943756103515625">
        <ele>109.1999969482421875</ele>
        <time>2024-01-27T09:08:44.000Z</time>
        <extensions>
          <ns3:TrackPointExtension>
            <ns3:hr>134</ns3:hr>
            <ns3:cad>93</ns3:cad>
          </ns3:TrackPointExtension>
        </extensions>
      </trkpt>
      <trkpt lat="43.829232864081859588623046875" lon="4.2639197409152984619140625">
        <ele>109.1999969482421875</ele>
        <time>2024-01-27T09:08:45.000Z</time>
        <extensions>
          <ns3:TrackPointExtension>
            <ns3:hr>134</ns3:hr>
            <ns3:cad>92</ns3:cad>
          </ns3:TrackPointExtension>
        </extensions>
      </trkpt>
      <trkpt lat="43.829256333410739898681640625" lon="4.2639276199042797088623046875">
        <ele>109.1999969482421875</ele>
        <time>2024-01-27T09:08:46.000Z</time>
        <extensions>
          <ns3:TrackPointExtension>
            <ns3:hr>134</ns3:hr>
            <ns3:cad>92</ns3:cad>
          </ns3:TrackPointExtension>
        </extensions>
      </trkpt>
      <trkpt lat="43.82928106002509593963623046875" lon="4.2639356665313243865966796875">
        <ele>109.1999969482421875</ele>
        <time>2024-01-27T09:08:47.000Z</time>
        <extensions>
          <ns3:TrackPointExtension>
            <ns3:hr>134</ns3:hr>
            <ns3:cad>92</ns3:cad>
          </ns3:TrackPointExtension>
        </extensions>
      </trkpt>
      <trkpt lat="43.82930972613394260406494140625" lon="4.263942539691925048828125">
        <ele>109.1999969482421875</ele>
        <time>2024-01-27T09:08:48.000Z</time>
        <extensions>
          <ns3:TrackPointExtension>
            <ns3:hr>134</ns3:hr>
            <ns3:cad>92</ns3:cad>
          </ns3:TrackPointExtension>
        </extensions>
      </trkpt>
      <trkpt lat="43.82933353073894977569580078125" lon="4.26394949667155742645263671875">
        <ele>109.1999969482421875</ele>
        <time>2024-01-27T09:08:49.000Z</time>
        <extensions>
          <ns3:TrackPointExtension>
            <ns3:hr>134</ns3:hr>
            <ns3:cad>92</ns3:cad>
          </ns3:TrackPointExtension>
        </extensions>
      </trkpt>
      <trkpt lat="43.829364292323589324951171875" lon="4.263957627117633819580078125">
        <ele>109.1999969482421875</ele>
        <time>2024-01-27T09:08:50.000Z</time>
        <extensions>
          <ns3:TrackPointExtension>
            <ns3:hr>134</ns3:hr>
            <ns3:cad>92</ns3:cad>
          </ns3:TrackPointExtension>
        </extensions>
      </trkpt>
      <trkpt lat="43.82938851602375507354736328125" lon="4.26396123133599758148193359375">
        <ele>109.1999969482421875</ele>
        <time>2024-01-27T09:08:51.000Z</time>
        <extensions>
          <ns3:TrackPointExtension>
            <ns3:hr>134</ns3:hr>
            <ns3:cad>92</ns3:cad>
          </ns3:TrackPointExtension>
        </extensions>
      </trkpt>
      <trkpt lat="43.82941550575196743011474609375" lon="4.26396558992564678192138671875">
        <ele>109.1999969482421875</ele>
        <time>2024-01-27T09:08:52.000Z</time>
        <extensions>
          <ns3:TrackPointExtension>
            <ns3:hr>134</ns3:hr>
            <ns3:cad>92</ns3:cad>
          </ns3:TrackPointExtension>
        </extensions>
      </trkpt>
      <trkpt lat="43.8294355385005474090576171875" lon="4.26396659575402736663818359375">
        <ele>109.1999969482421875</ele>
        <time>2024-01-27T09:08:53.000Z</time>
        <extensions>
          <ns3:TrackPointExtension>
            <ns3:hr>135</ns3:hr>
            <ns3:cad>92</ns3:cad>
          </ns3:TrackPointExtension>
        </extensions>
      </trkpt>
      <trkpt lat="43.8294643722474575042724609375" lon="4.26397782750427722930908203125">
        <ele>109.1999969482421875</ele>
        <time>2024-01-27T09:08:54.000Z</time>
        <extensions>
          <ns3:TrackPointExtension>
            <ns3:hr>134</ns3:hr>
            <ns3:cad>94</ns3:cad>
          </ns3:TrackPointExtension>
        </extensions>
      </trkpt>
      <trkpt lat="43.82948960177600383758544921875" lon="4.2639842815697193145751953125">
        <ele>109</ele>
        <time>2024-01-27T09:08:55.000Z</time>
        <extensions>
          <ns3:TrackPointExtension>
            <ns3:hr>134</ns3:hr>
            <ns3:cad>94</ns3:cad>
          </ns3:TrackPointExtension>
        </extensions>
      </trkpt>
      <trkpt lat="43.8295153342187404632568359375" lon="4.26399894990026950836181640625">
        <ele>109</ele>
        <time>2024-01-27T09:08:56.000Z</time>
        <extensions>
          <ns3:TrackPointExtension>
            <ns3:hr>134</ns3:hr>
            <ns3:cad>94</ns3:cad>
          </ns3:TrackPointExtension>
        </extensions>
      </trkpt>
      <trkpt lat="43.8295421563088893890380859375" lon="4.26400967873632907867431640625">
        <ele>109</ele>
        <time>2024-01-27T09:08:57.000Z</time>
        <extensions>
          <ns3:TrackPointExtension>
            <ns3:hr>134</ns3:hr>
            <ns3:cad>93</ns3:cad>
          </ns3:TrackPointExtension>
        </extensions>
      </trkpt>
      <trkpt lat="43.829569481313228607177734375" lon="4.26402593962848186492919921875">
        <ele>108.8000030517578125</ele>
        <time>2024-01-27T09:08:58.000Z</time>
        <extensions>
          <ns3:TrackPointExtension>
            <ns3:hr>134</ns3:hr>
            <ns3:cad>93</ns3:cad>
          </ns3:TrackPointExtension>
        </extensions>
      </trkpt>
      <trkpt lat="43.82959320209920406341552734375" lon="4.264040775597095489501953125">
        <ele>108.8000030517578125</ele>
        <time>2024-01-27T09:08:59.000Z</time>
        <extensions>
          <ns3:TrackPointExtension>
            <ns3:hr>134</ns3:hr>
            <ns3:cad>92</ns3:cad>
          </ns3:TrackPointExtension>
        </extensions>
      </trkpt>
      <trkpt lat="43.829613737761974334716796875" lon="4.26406198181211948394775390625">
        <ele>108.59999847412109375</ele>
        <time>2024-01-27T09:09:00.000Z</time>
        <extensions>
          <ns3:TrackPointExtension>
            <ns3:hr>134</ns3:hr>
            <ns3:cad>92</ns3:cad>
          </ns3:TrackPointExtension>
        </extensions>
      </trkpt>
      <trkpt lat="43.829636871814727783203125" lon="4.264084361493587493896484375">
        <ele>108.59999847412109375</ele>
        <time>2024-01-27T09:09:01.000Z</time>
        <extensions>
          <ns3:TrackPointExtension>
            <ns3:hr>133</ns3:hr>
            <ns3:cad>94</ns3:cad>
          </ns3:TrackPointExtension>
        </extensions>
      </trkpt>
      <trkpt lat="43.82965573109686374664306640625" lon="4.26410690881311893463134765625">
        <ele>108.59999847412109375</ele>
        <time>2024-01-27T09:09:02.000Z</time>
        <extensions>
          <ns3:TrackPointExtension>
            <ns3:hr>132</ns3:hr>
            <ns3:cad>94</ns3:cad>
          </ns3:TrackPointExtension>
        </extensions>
      </trkpt>
      <trkpt lat="43.829675428569316864013671875" lon="4.26413021050393581390380859375">
        <ele>108.40000152587890625</ele>
        <time>2024-01-27T09:09:03.000Z</time>
        <extensions>
          <ns3:TrackPointExtension>
            <ns3:hr>132</ns3:hr>
            <ns3:cad>94</ns3:cad>
          </ns3:TrackPointExtension>
        </extensions>
      </trkpt>
      <trkpt lat="43.82969445548951625823974609375" lon="4.2641572840511798858642578125">
        <ele>108.40000152587890625</ele>
        <time>2024-01-27T09:09:04.000Z</time>
        <extensions>
          <ns3:TrackPointExtension>
            <ns3:hr>131</ns3:hr>
            <ns3:cad>93</ns3:cad>
          </ns3:TrackPointExtension>
        </extensions>
      </trkpt>
      <trkpt lat="43.82971541024744510650634765625" lon="4.2641825973987579345703125">
        <ele>108.1999969482421875</ele>
        <time>2024-01-27T09:09:05.000Z</time>
        <extensions>
          <ns3:TrackPointExtension>
            <ns3:hr>131</ns3:hr>
            <ns3:cad>92</ns3:cad>
          </ns3:TrackPointExtension>
        </extensions>
      </trkpt>
      <trkpt lat="43.8297342695295810699462890625" lon="4.264211095869541168212890625">
        <ele>108</ele>
        <time>2024-01-27T09:09:06.000Z</time>
        <extensions>
          <ns3:TrackPointExtension>
            <ns3:hr>131</ns3:hr>
            <ns3:cad>92</ns3:cad>
          </ns3:TrackPointExtension>
        </extensions>
      </trkpt>
      <trkpt lat="43.8297553919255733489990234375" lon="4.26424168981611728668212890625">
        <ele>107.8000030517578125</ele>
        <time>2024-01-27T09:09:07.000Z</time>
        <extensions>
          <ns3:TrackPointExtension>
            <ns3:hr>131</ns3:hr>
            <ns3:cad>92</ns3:cad>
          </ns3:TrackPointExtension>
        </extensions>
      </trkpt>
      <trkpt lat="43.82977165281772613525390625" lon="4.26426918245851993560791015625">
        <ele>107.8000030517578125</ele>
        <time>2024-01-27T09:09:08.000Z</time>
        <extensions>
          <ns3:TrackPointExtension>
            <ns3:hr>131</ns3:hr>
            <ns3:cad>92</ns3:cad>
          </ns3:TrackPointExtension>
        </extensions>
      </trkpt>
      <trkpt lat="43.8297889195382595062255859375" lon="4.26429851911962032318115234375">
        <ele>107.59999847412109375</ele>
        <time>2024-01-27T09:09:09.000Z</time>
        <extensions>
          <ns3:TrackPointExtension>
            <ns3:hr>131</ns3:hr>
            <ns3:cad>92</ns3:cad>
          </ns3:TrackPointExtension>
        </extensions>
      </trkpt>
      <trkpt lat="43.82980375550687313079833984375" lon="4.26432115025818347930908203125">
        <ele>107.59999847412109375</ele>
        <time>2024-01-27T09:09:10.000Z</time>
        <extensions>
          <ns3:TrackPointExtension>
            <ns3:hr>131</ns3:hr>
            <ns3:cad>93</ns3:cad>
          </ns3:TrackPointExtension>
        </extensions>
      </trkpt>
      <trkpt lat="43.8298197649419307708740234375" lon="4.2643550969660282135009765625">
        <ele>107.59999847412109375</ele>
        <time>2024-01-27T09:09:11.000Z</time>
        <extensions>
          <ns3:TrackPointExtension>
            <ns3:hr>131</ns3:hr>
            <ns3:cad>93</ns3:cad>
          </ns3:TrackPointExtension>
        </extensions>
      </trkpt>
      <trkpt lat="43.82983258925378322601318359375" lon="4.26438384689390659332275390625">
        <ele>107.40000152587890625</ele>
        <time>2024-01-27T09:09:12.000Z</time>
        <extensions>
          <ns3:TrackPointExtension>
            <ns3:hr>131</ns3:hr>
            <ns3:cad>93</ns3:cad>
          </ns3:TrackPointExtension>
        </extensions>
      </trkpt>
      <trkpt lat="43.82984675467014312744140625" lon="4.2644134350121021270751953125">
        <ele>107.40000152587890625</ele>
        <time>2024-01-27T09:09:13.000Z</time>
        <extensions>
          <ns3:TrackPointExtension>
            <ns3:hr>131</ns3:hr>
            <ns3:cad>93</ns3:cad>
          </ns3:TrackPointExtension>
        </extensions>
      </trkpt>
      <trkpt lat="43.82985890842974185943603515625" lon="4.264435730874538421630859375">
        <ele>107.1999969482421875</ele>
        <time>2024-01-27T09:09:14.000Z</time>
        <extensions>
          <ns3:TrackPointExtension>
            <ns3:hr>131</ns3:hr>
            <ns3:cad>94</ns3:cad>
          </ns3:TrackPointExtension>
        </extensions>
      </trkpt>
      <trkpt lat="43.82987416349351406097412109375" lon="4.2644669115543365478515625">
        <ele>107.1999969482421875</ele>
        <time>2024-01-27T09:09:15.000Z</time>
        <extensions>
          <ns3:TrackPointExtension>
            <ns3:hr>131</ns3:hr>
            <ns3:cad>93</ns3:cad>
          </ns3:TrackPointExtension>
        </extensions>
      </trkpt>
      <trkpt lat="43.8298911787569522857666015625" lon="4.2644935660064220428466796875">
        <ele>107</ele>
        <time>2024-01-27T09:09:16.000Z</time>
        <extensions>
          <ns3:TrackPointExtension>
            <ns3:hr>131</ns3:hr>
            <ns3:cad>94</ns3:cad>
          </ns3:TrackPointExtension>
        </extensions>
      </trkpt>
      <trkpt lat="43.829906769096851348876953125" lon="4.26451929844915866851806640625">
        <ele>107</ele>
        <time>2024-01-27T09:09:17.000Z</time>
        <extensions>
          <ns3:TrackPointExtension>
            <ns3:hr>131</ns3:hr>
            <ns3:cad>94</ns3:cad>
          </ns3:TrackPointExtension>
        </extensions>
      </trkpt>
      <trkpt lat="43.8299216888844966888427734375" lon="4.26454025320708751678466796875">
        <ele>106.8000030517578125</ele>
        <time>2024-01-27T09:09:18.000Z</time>
        <extensions>
          <ns3:TrackPointExtension>
            <ns3:hr>131</ns3:hr>
            <ns3:cad>94</ns3:cad>
          </ns3:TrackPointExtension>
        </extensions>
      </trkpt>
      <trkpt lat="43.8299401290714740753173828125" lon="4.26456254906952381134033203125">
        <ele>106.8000030517578125</ele>
        <time>2024-01-27T09:09:19.000Z</time>
        <extensions>
          <ns3:TrackPointExtension>
            <ns3:hr>131</ns3:hr>
            <ns3:cad>94</ns3:cad>
          </ns3:TrackPointExtension>
        </extensions>
      </trkpt>
      <trkpt lat="43.829959072172641754150390625" lon="4.2645847611129283905029296875">
        <ele>106.59999847412109375</ele>
        <time>2024-01-27T09:09:20.000Z</time>
        <extensions>
          <ns3:TrackPointExtension>
            <ns3:hr>131</ns3:hr>
            <ns3:cad>94</ns3:cad>
          </ns3:TrackPointExtension>
        </extensions>
      </trkpt>
      <trkpt lat="43.829978518187999725341796875" lon="4.2646055482327938079833984375">
        <ele>106.40000152587890625</ele>
        <time>2024-01-27T09:09:21.000Z</time>
        <extensions>
          <ns3:TrackPointExtension>
            <ns3:hr>131</ns3:hr>
            <ns3:cad>94</ns3:cad>
          </ns3:TrackPointExtension>
        </extensions>
      </trkpt>
      <trkpt lat="43.830002658069133758544921875" lon="4.2646280117332935333251953125">
        <ele>106.40000152587890625</ele>
        <time>2024-01-27T09:09:22.000Z</time>
        <extensions>
          <ns3:TrackPointExtension>
            <ns3:hr>131</ns3:hr>
            <ns3:cad>94</ns3:cad>
          </ns3:TrackPointExtension>
        </extensions>
      </trkpt>
      <trkpt lat="43.83002621121704578399658203125" lon="4.26464837975800037384033203125">
        <ele>106.1999969482421875</ele>
        <time>2024-01-27T09:09:23.000Z</time>
        <extensions>
          <ns3:TrackPointExtension>
            <ns3:hr>130</ns3:hr>
            <ns3:cad>94</ns3:cad>
          </ns3:TrackPointExtension>
        </extensions>
      </trkpt>
      <trkpt lat="43.830052278935909271240234375" lon="4.26467235200107097625732421875">
        <ele>106</ele>
        <time>2024-01-27T09:09:24.000Z</time>
        <extensions>
          <ns3:TrackPointExtension>
            <ns3:hr>130</ns3:hr>
            <ns3:cad>92</ns3:cad>
          </ns3:TrackPointExtension>
        </extensions>
      </trkpt>
      <trkpt lat="43.83007281459867954254150390625" lon="4.2646895349025726318359375">
        <ele>105.8000030517578125</ele>
        <time>2024-01-27T09:09:25.000Z</time>
        <extensions>
          <ns3:TrackPointExtension>
            <ns3:hr>130</ns3:hr>
            <ns3:cad>92</ns3:cad>
          </ns3:TrackPointExtension>
        </extensions>
      </trkpt>
      <trkpt lat="43.83009393699467182159423828125" lon="4.26470839418470859527587890625">
        <ele>105.59999847412109375</ele>
        <time>2024-01-27T09:09:26.000Z</time>
        <extensions>
          <ns3:TrackPointExtension>
            <ns3:hr>130</ns3:hr>
            <ns3:cad>92</ns3:cad>
          </ns3:TrackPointExtension>
        </extensions>
      </trkpt>
      <trkpt lat="43.83011489175260066986083984375" lon="4.2647270858287811279296875">
        <ele>105.40000152587890625</ele>
        <time>2024-01-27T09:09:27.000Z</time>
        <extensions>
          <ns3:TrackPointExtension>
            <ns3:hr>131</ns3:hr>
            <ns3:cad>92</ns3:cad>
          </ns3:TrackPointExtension>
        </extensions>
      </trkpt>
      <trkpt lat="43.83013735525310039520263671875" lon="4.26474628038704395294189453125">
        <ele>105.1999969482421875</ele>
        <time>2024-01-27T09:09:28.000Z</time>
        <extensions>
          <ns3:TrackPointExtension>
            <ns3:hr>131</ns3:hr>
            <ns3:cad>92</ns3:cad>
          </ns3:TrackPointExtension>
        </extensions>
      </trkpt>
      <trkpt lat="43.83016099222004413604736328125" lon="4.2647621221840381622314453125">
        <ele>105.1999969482421875</ele>
        <time>2024-01-27T09:09:29.000Z</time>
        <extensions>
          <ns3:TrackPointExtension>
            <ns3:hr>131</ns3:hr>
            <ns3:cad>92</ns3:cad>
          </ns3:TrackPointExtension>
        </extensions>
      </trkpt>
      <trkpt lat="43.83018479682505130767822265625" lon="4.264780394732952117919921875">
        <ele>105</ele>
        <time>2024-01-27T09:09:30.000Z</time>
        <extensions>
          <ns3:TrackPointExtension>
            <ns3:hr>132</ns3:hr>
            <ns3:cad>94</ns3:cad>
          </ns3:TrackPointExtension>
        </extensions>
      </trkpt>
      <trkpt lat="43.8302110321819782257080078125" lon="4.26479070447385311126708984375">
        <ele>104.8000030517578125</ele>
        <time>2024-01-27T09:09:31.000Z</time>
        <extensions>
          <ns3:TrackPointExtension>
            <ns3:hr>132</ns3:hr>
            <ns3:cad>93</ns3:cad>
          </ns3:TrackPointExtension>
        </extensions>
      </trkpt>
      <trkpt lat="43.83023525588214397430419921875" lon="4.2647990025579929351806640625">
        <ele>104.59999847412109375</ele>
        <time>2024-01-27T09:09:32.000Z</time>
        <extensions>
          <ns3:TrackPointExtension>
            <ns3:hr>132</ns3:hr>
            <ns3:cad>93</ns3:cad>
          </ns3:TrackPointExtension>
        </extensions>
      </trkpt>
      <trkpt lat="43.8302629999816417694091796875" lon="4.264807887375354766845703125">
        <ele>104.59999847412109375</ele>
        <time>2024-01-27T09:09:33.000Z</time>
        <extensions>
          <ns3:TrackPointExtension>
            <ns3:hr>132</ns3:hr>
            <ns3:cad>93</ns3:cad>
          </ns3:TrackPointExtension>
        </extensions>
      </trkpt>
      <trkpt lat="43.8302861340343952178955078125" lon="4.264816939830780029296875">
        <ele>104.40000152587890625</ele>
        <time>2024-01-27T09:09:34.000Z</time>
        <extensions>
          <ns3:TrackPointExtension>
            <ns3:hr>132</ns3:hr>
            <ns3:cad>93</ns3:cad>
          </ns3:TrackPointExtension>
        </extensions>
      </trkpt>
      <trkpt lat="43.8303129561245441436767578125" lon="4.264823980629444122314453125">
        <ele>104.40000152587890625</ele>
        <time>2024-01-27T09:09:35.000Z</time>
        <extensions>
          <ns3:TrackPointExtension>
            <ns3:hr>131</ns3:hr>
            <ns3:cad>92</ns3:cad>
          </ns3:TrackPointExtension>
        </extensions>
      </trkpt>
      <trkpt lat="43.83033516816794872283935546875" lon="4.26482825540006160736083984375">
        <ele>104.1999969482421875</ele>
        <time>2024-01-27T09:09:36.000Z</time>
        <extensions>
          <ns3:TrackPointExtension>
            <ns3:hr>131</ns3:hr>
            <ns3:cad>92</ns3:cad>
          </ns3:TrackPointExtension>
        </extensions>
      </trkpt>
      <trkpt lat="43.83035838603973388671875" lon="4.26483227871358394622802734375">
        <ele>104</ele>
        <time>2024-01-27T09:09:37.000Z</time>
        <extensions>
          <ns3:TrackPointExtension>
            <ns3:hr>131</ns3:hr>
            <ns3:cad>92</ns3:cad>
          </ns3:TrackPointExtension>
        </extensions>
      </trkpt>
      <trkpt lat="43.830381520092487335205078125" lon="4.26483236253261566162109375">
        <ele>104</ele>
        <time>2024-01-27T09:09:38.000Z</time>
        <extensions>
          <ns3:TrackPointExtension>
            <ns3:hr>131</ns3:hr>
            <ns3:cad>93</ns3:cad>
          </ns3:TrackPointExtension>
        </extensions>
      </trkpt>
      <trkpt lat="43.830404318869113922119140625" lon="4.26483026705682277679443359375">
        <ele>103.8000030517578125</ele>
        <time>2024-01-27T09:09:39.000Z</time>
        <extensions>
          <ns3:TrackPointExtension>
            <ns3:hr>131</ns3:hr>
            <ns3:cad>93</ns3:cad>
          </ns3:TrackPointExtension>
        </extensions>
      </trkpt>
      <trkpt lat="43.83042619563639163970947265625" lon="4.2648264952003955841064453125">
        <ele>103.8000030517578125</ele>
        <time>2024-01-27T09:09:40.000Z</time>
        <extensions>
          <ns3:TrackPointExtension>
            <ns3:hr>131</ns3:hr>
            <ns3:cad>93</ns3:cad>
          </ns3:TrackPointExtension>
        </extensions>
      </trkpt>
      <trkpt lat="43.83045251481235027313232421875" lon="4.26482272334396839141845703125">
        <ele>103.59999847412109375</ele>
        <time>2024-01-27T09:09:41.000Z</time>
        <extensions>
          <ns3:TrackPointExtension>
            <ns3:hr>131</ns3:hr>
            <ns3:cad>93</ns3:cad>
          </ns3:TrackPointExtension>
        </extensions>
      </trkpt>
      <trkpt lat="43.8304772414267063140869140625" lon="4.264817275106906890869140625">
        <ele>103.59999847412109375</ele>
        <time>2024-01-27T09:09:42.000Z</time>
        <extensions>
          <ns3:TrackPointExtension>
            <ns3:hr>131</ns3:hr>
            <ns3:cad>92</ns3:cad>
          </ns3:TrackPointExtension>
        </extensions>
      </trkpt>
      <trkpt lat="43.83050255477428436279296875" lon="4.2648181132972240447998046875">
        <ele>103.59999847412109375</ele>
        <time>2024-01-27T09:09:43.000Z</time>
        <extensions>
          <ns3:TrackPointExtension>
            <ns3:hr>131</ns3:hr>
            <ns3:cad>92</ns3:cad>
          </ns3:TrackPointExtension>
        </extensions>
      </trkpt>
      <trkpt lat="43.83053029887378215789794921875" lon="4.264815263450145721435546875">
        <ele>103.40000152587890625</ele>
        <time>2024-01-27T09:09:44.000Z</time>
        <extensions>
          <ns3:TrackPointExtension>
            <ns3:hr>131</ns3:hr>
            <ns3:cad>92</ns3:cad>
          </ns3:TrackPointExtension>
        </extensions>
      </trkpt>
      <trkpt lat="43.83055611513555049896240234375" lon="4.2648177780210971832275390625">
        <ele>103.40000152587890625</ele>
        <time>2024-01-27T09:09:45.000Z</time>
        <extensions>
          <ns3:TrackPointExtension>
            <ns3:hr>131</ns3:hr>
            <ns3:cad>92</ns3:cad>
          </ns3:TrackPointExtension>
        </extensions>
      </trkpt>
      <trkpt lat="43.8305845297873020172119140625" lon="4.26481668837368488311767578125">
        <ele>103.40000152587890625</ele>
        <time>2024-01-27T09:09:46.000Z</time>
        <extensions>
          <ns3:TrackPointExtension>
            <ns3:hr>131</ns3:hr>
            <ns3:cad>94</ns3:cad>
          </ns3:TrackPointExtension>
        </extensions>
      </trkpt>
      <trkpt lat="43.83061093278229236602783203125" lon="4.26481618545949459075927734375">
        <ele>103.1999969482421875</ele>
        <time>2024-01-27T09:09:47.000Z</time>
        <extensions>
          <ns3:TrackPointExtension>
            <ns3:hr>131</ns3:hr>
            <ns3:cad>94</ns3:cad>
          </ns3:TrackPointExtension>
        </extensions>
      </trkpt>
      <trkpt lat="43.83063792251050472259521484375" lon="4.26481098867952823638916015625">
        <ele>103.1999969482421875</ele>
        <time>2024-01-27T09:09:48.000Z</time>
        <extensions>
          <ns3:TrackPointExtension>
            <ns3:hr>131</ns3:hr>
            <ns3:cad>92</ns3:cad>
          </ns3:TrackPointExtension>
        </extensions>
      </trkpt>
      <trkpt lat="43.83066072128713130950927734375" lon="4.26480310969054698944091796875">
        <ele>103.1999969482421875</ele>
        <time>2024-01-27T09:09:49.000Z</time>
        <extensions>
          <ns3:TrackPointExtension>
            <ns3:hr>131</ns3:hr>
            <ns3:cad>91</ns3:cad>
          </ns3:TrackPointExtension>
        </extensions>
      </trkpt>
      <trkpt lat="43.8306834362447261810302734375" lon="4.26478802226483821868896484375">
        <ele>103.1999969482421875</ele>
        <time>2024-01-27T09:09:50.000Z</time>
        <extensions>
          <ns3:TrackPointExtension>
            <ns3:hr>131</ns3:hr>
            <ns3:cad>91</ns3:cad>
          </ns3:TrackPointExtension>
        </extensions>
      </trkpt>
      <trkpt lat="43.83069969713687896728515625" lon="4.2647705040872097015380859375">
        <ele>103.1999969482421875</ele>
        <time>2024-01-27T09:09:51.000Z</time>
        <extensions>
          <ns3:TrackPointExtension>
            <ns3:hr>131</ns3:hr>
            <ns3:cad>92</ns3:cad>
          </ns3:TrackPointExtension>
        </extensions>
      </trkpt>
      <trkpt lat="43.8307149522006511688232421875" lon="4.26475055515766143798828125">
        <ele>103.1999969482421875</ele>
        <time>2024-01-27T09:09:52.000Z</time>
        <extensions>
          <ns3:TrackPointExtension>
            <ns3:hr>131</ns3:hr>
            <ns3:cad>93</ns3:cad>
          </ns3:TrackPointExtension>
        </extensions>
      </trkpt>
      <trkpt lat="43.83072274737060070037841796875" lon="4.2647279240190982818603515625">
        <ele>103.1999969482421875</ele>
        <time>2024-01-27T09:09:53.000Z</time>
        <extensions>
          <ns3:TrackPointExtension>
            <ns3:hr>131</ns3:hr>
            <ns3:cad>93</ns3:cad>
          </ns3:TrackPointExtension>
        </extensions>
      </trkpt>
      <trkpt lat="43.83073314093053340911865234375" lon="4.26469850353896617889404296875">
        <ele>103.8000030517578125</ele>
        <time>2024-01-27T09:09:54.000Z</time>
        <extensions>
          <ns3:TrackPointExtension>
            <ns3:hr>130</ns3:hr>
            <ns3:cad>93</ns3:cad>
          </ns3:TrackPointExtension>
        </extensions>
      </trkpt>
      <trkpt lat="43.83074127137660980224609375" lon="4.264669083058834075927734375">
        <ele>103.8000030517578125</ele>
        <time>2024-01-27T09:09:55.000Z</time>
        <extensions>
          <ns3:TrackPointExtension>
            <ns3:hr>130</ns3:hr>
            <ns3:cad>93</ns3:cad>
          </ns3:TrackPointExtension>
        </extensions>
      </trkpt>
      <trkpt lat="43.83075191639363765716552734375" lon="4.26464200951159000396728515625">
        <ele>104</ele>
        <time>2024-01-27T09:09:56.000Z</time>
        <extensions>
          <ns3:TrackPointExtension>
            <ns3:hr>130</ns3:hr>
            <ns3:cad>91</ns3:cad>
          </ns3:TrackPointExtension>
        </extensions>
      </trkpt>
      <trkpt lat="43.83075795136392116546630859375" lon="4.26461166702210903167724609375">
        <ele>104</ele>
        <time>2024-01-27T09:09:57.000Z</time>
        <extensions>
          <ns3:TrackPointExtension>
            <ns3:hr>130</ns3:hr>
            <ns3:cad>91</ns3:cad>
          </ns3:TrackPointExtension>
        </extensions>
      </trkpt>
      <trkpt lat="43.83076482452452182769775390625" lon="4.26458132453262805938720703125">
        <ele>104</ele>
        <time>2024-01-27T09:09:58.000Z</time>
        <extensions>
          <ns3:TrackPointExtension>
            <ns3:hr>130</ns3:hr>
            <ns3:cad>91</ns3:cad>
          </ns3:TrackPointExtension>
        </extensions>
      </trkpt>
      <trkpt lat="43.830775804817676544189453125" lon="4.26453740336000919342041015625">
        <ele>104</ele>
        <time>2024-01-27T09:09:59.000Z</time>
        <extensions>
          <ns3:TrackPointExtension>
            <ns3:hr>130</ns3:hr>
            <ns3:cad>92</ns3:cad>
          </ns3:TrackPointExtension>
        </extensions>
      </trkpt>
      <trkpt lat="43.8307799957692623138427734375" lon="4.26450924016535282135009765625">
        <ele>104</ele>
        <time>2024-01-27T09:10:00.000Z</time>
        <extensions>
          <ns3:TrackPointExtension>
            <ns3:hr>131</ns3:hr>
            <ns3:cad>93</ns3:cad>
          </ns3:TrackPointExtension>
        </extensions>
      </trkpt>
      <trkpt lat="43.83078728802502155303955078125" lon="4.26447403617203235626220703125">
        <ele>103.8000030517578125</ele>
        <time>2024-01-27T09:10:01.000Z</time>
        <extensions>
          <ns3:TrackPointExtension>
            <ns3:hr>131</ns3:hr>
            <ns3:cad>93</ns3:cad>
          </ns3:TrackPointExtension>
        </extensions>
      </trkpt>
      <trkpt lat="43.83079131133854389190673828125" lon="4.26444469951093196868896484375">
        <ele>103.8000030517578125</ele>
        <time>2024-01-27T09:10:02.000Z</time>
        <extensions>
          <ns3:TrackPointExtension>
            <ns3:hr>132</ns3:hr>
            <ns3:cad>93</ns3:cad>
          </ns3:TrackPointExtension>
        </extensions>
      </trkpt>
      <trkpt lat="43.83079969324171543121337890625" lon="4.2644077353179454803466796875">
        <ele>103.8000030517578125</ele>
        <time>2024-01-27T09:10:03.000Z</time>
        <extensions>
          <ns3:TrackPointExtension>
            <ns3:hr>132</ns3:hr>
            <ns3:cad>93</ns3:cad>
          </ns3:TrackPointExtension>
        </extensions>
      </trkpt>
      <trkpt lat="43.83080857805907726287841796875" lon="4.26437043584883213043212890625">
        <ele>103.8000030517578125</ele>
        <time>2024-01-27T09:10:04.000Z</time>
        <extensions>
          <ns3:TrackPointExtension>
            <ns3:hr>132</ns3:hr>
            <ns3:cad>93</ns3:cad>
          </ns3:TrackPointExtension>
        </extensions>
      </trkpt>
      <trkpt lat="43.83081980980932712554931640625" lon="4.2643420211970806121826171875">
        <ele>103.8000030517578125</ele>
        <time>2024-01-27T09:10:05.000Z</time>
        <extensions>
          <ns3:TrackPointExtension>
            <ns3:hr>132</ns3:hr>
            <ns3:cad>93</ns3:cad>
          </ns3:TrackPointExtension>
        </extensions>
      </trkpt>
      <trkpt lat="43.830831460654735565185546875" lon="4.264303632080554962158203125">
        <ele>103.8000030517578125</ele>
        <time>2024-01-27T09:10:06.000Z</time>
        <extensions>
          <ns3:TrackPointExtension>
            <ns3:hr>132</ns3:hr>
            <ns3:cad>93</ns3:cad>
          </ns3:TrackPointExtension>
        </extensions>
      </trkpt>
      <trkpt lat="43.83084244094789028167724609375" lon="4.26427588798105716705322265625">
        <ele>103.8000030517578125</ele>
        <time>2024-01-27T09:10:07.000Z</time>
        <extensions>
          <ns3:TrackPointExtension>
            <ns3:hr>132</ns3:hr>
            <ns3:cad>93</ns3:cad>
          </ns3:TrackPointExtension>
        </extensions>
      </trkpt>
      <trkpt lat="43.83085601963102817535400390625" lon="4.26424118690192699432373046875">
        <ele>103.8000030517578125</ele>
        <time>2024-01-27T09:10:08.000Z</time>
        <extensions>
          <ns3:TrackPointExtension>
            <ns3:hr>132</ns3:hr>
            <ns3:cad>93</ns3:cad>
          </ns3:TrackPointExtension>
        </extensions>
      </trkpt>
      <trkpt lat="43.8308634795248508453369140625" lon="4.2642156220972537994384765625">
        <ele>103.8000030517578125</ele>
        <time>2024-01-27T09:10:09.000Z</time>
        <extensions>
          <ns3:TrackPointExtension>
            <ns3:hr>132</ns3:hr>
            <ns3:cad>93</ns3:cad>
          </ns3:TrackPointExtension>
        </extensions>
      </trkpt>
      <trkpt lat="43.83086792193353176116943359375" lon="4.26417731679975986480712890625">
        <ele>103.8000030517578125</ele>
        <time>2024-01-27T09:10:10.000Z</time>
        <extensions>
          <ns3:TrackPointExtension>
            <ns3:hr>132</ns3:hr>
            <ns3:cad>95</ns3:cad>
          </ns3:TrackPointExtension>
        </extensions>
      </trkpt>
      <trkpt lat="43.83087194524705410003662109375" lon="4.2641482315957546234130859375">
        <ele>103.8000030517578125</ele>
        <time>2024-01-27T09:10:11.000Z</time>
        <extensions>
          <ns3:TrackPointExtension>
            <ns3:hr>132</ns3:hr>
            <ns3:cad>95</ns3:cad>
          </ns3:TrackPointExtension>
        </extensions>
      </trkpt>
      <trkpt lat="43.8308792375028133392333984375" lon="4.26411218941211700439453125">
        <ele>104</ele>
        <time>2024-01-27T09:10:12.000Z</time>
        <extensions>
          <ns3:TrackPointExtension>
            <ns3:hr>133</ns3:hr>
            <ns3:cad>95</ns3:cad>
          </ns3:TrackPointExtension>
        </extensions>
      </trkpt>
      <trkpt lat="43.83088636212050914764404296875" lon="4.26407606340944766998291015625">
        <ele>104</ele>
        <time>2024-01-27T09:10:13.000Z</time>
        <extensions>
          <ns3:TrackPointExtension>
            <ns3:hr>133</ns3:hr>
            <ns3:cad>94</ns3:cad>
          </ns3:TrackPointExtension>
        </extensions>
      </trkpt>
      <trkpt lat="43.83089541457593441009521484375" lon="4.264042116701602935791015625">
        <ele>104.1999969482421875</ele>
        <time>2024-01-27T09:10:14.000Z</time>
        <extensions>
          <ns3:TrackPointExtension>
            <ns3:hr>133</ns3:hr>
            <ns3:cad>93</ns3:cad>
          </ns3:TrackPointExtension>
        </extensions>
      </trkpt>
      <trkpt lat="43.8309033773839473724365234375" lon="4.2640050686895847320556640625">
        <ele>104.1999969482421875</ele>
        <time>2024-01-27T09:10:15.000Z</time>
        <extensions>
          <ns3:TrackPointExtension>
            <ns3:hr>133</ns3:hr>
            <ns3:cad>93</ns3:cad>
          </ns3:TrackPointExtension>
        </extensions>
      </trkpt>
      <trkpt lat="43.83091293275356292724609375" lon="4.26397447474300861358642578125">
        <ele>104.40000152587890625</ele>
        <time>2024-01-27T09:10:16.000Z</time>
        <extensions>
          <ns3:TrackPointExtension>
            <ns3:hr>133</ns3:hr>
            <ns3:cad>91</ns3:cad>
          </ns3:TrackPointExtension>
        </extensions>
      </trkpt>
      <trkpt lat="43.83092701435089111328125" lon="4.26393675617873668670654296875">
        <ele>104.40000152587890625</ele>
        <time>2024-01-27T09:10:17.000Z</time>
        <extensions>
          <ns3:TrackPointExtension>
            <ns3:hr>133</ns3:hr>
            <ns3:cad>91</ns3:cad>
          </ns3:TrackPointExtension>
        </extensions>
      </trkpt>
      <trkpt lat="43.83093615062534809112548828125" lon="4.26390524022281169891357421875">
        <ele>104.59999847412109375</ele>
        <time>2024-01-27T09:10:18.000Z</time>
        <extensions>
          <ns3:TrackPointExtension>
            <ns3:hr>133</ns3:hr>
            <ns3:cad>91</ns3:cad>
          </ns3:TrackPointExtension>
        </extensions>
      </trkpt>
      <trkpt lat="43.8309452868998050689697265625" lon="4.2638696171343326568603515625">
        <ele>104.8000030517578125</ele>
        <time>2024-01-27T09:10:19.000Z</time>
        <extensions>
          <ns3:TrackPointExtension>
            <ns3:hr>133</ns3:hr>
            <ns3:cad>92</ns3:cad>
          </ns3:TrackPointExtension>
        </extensions>
      </trkpt>
      <trkpt lat="43.83095174096524715423583984375" lon="4.26384086720645427703857421875">
        <ele>104.8000030517578125</ele>
        <time>2024-01-27T09:10:20.000Z</time>
        <extensions>
          <ns3:TrackPointExtension>
            <ns3:hr>133</ns3:hr>
            <ns3:cad>92</ns3:cad>
          </ns3:TrackPointExtension>
        </extensions>
      </trkpt>
      <trkpt lat="43.8309613801538944244384765625" lon="4.2638035677373409271240234375">
        <ele>105</ele>
        <time>2024-01-27T09:10:21.000Z</time>
        <extensions>
          <ns3:TrackPointExtension>
            <ns3:hr>133</ns3:hr>
            <ns3:cad>92</ns3:cad>
          </ns3:TrackPointExtension>
        </extensions>
      </trkpt>
      <trkpt lat="43.830969594419002532958984375" lon="4.26376911811530590057373046875">
        <ele>105</ele>
        <time>2024-01-27T09:10:22.000Z</time>
        <extensions>
          <ns3:TrackPointExtension>
            <ns3:hr>133</ns3:hr>
            <ns3:cad>92</ns3:cad>
          </ns3:TrackPointExtension>
        </extensions>
      </trkpt>
      <trkpt lat="43.8309771381318569183349609375" lon="4.26374137401580810546875">
        <ele>105</ele>
        <time>2024-01-27T09:10:23.000Z</time>
        <extensions>
          <ns3:TrackPointExtension>
            <ns3:hr>133</ns3:hr>
            <ns3:cad>94</ns3:cad>
          </ns3:TrackPointExtension>
        </extensions>
      </trkpt>
      <trkpt lat="43.83098644204437732696533203125" lon="4.26370994187891483306884765625">
        <ele>105.1999969482421875</ele>
        <time>2024-01-27T09:10:24.000Z</time>
        <extensions>
          <ns3:TrackPointExtension>
            <ns3:hr>133</ns3:hr>
            <ns3:cad>94</ns3:cad>
          </ns3:TrackPointExtension>
        </extensions>
      </trkpt>
      <trkpt lat="43.8309952430427074432373046875" lon="4.263684041798114776611328125">
        <ele>105.1999969482421875</ele>
        <time>2024-01-27T09:10:25.000Z</time>
        <extensions>
          <ns3:TrackPointExtension>
            <ns3:hr>133</ns3:hr>
            <ns3:cad>94</ns3:cad>
          </ns3:TrackPointExtension>
        </extensions>
      </trkpt>
      <trkpt lat="43.83100337348878383636474609375" lon="4.26365378312766551971435546875">
        <ele>105.40000152587890625</ele>
        <time>2024-01-27T09:10:26.000Z</time>
        <extensions>
          <ns3:TrackPointExtension>
            <ns3:hr>133</ns3:hr>
            <ns3:cad>94</ns3:cad>
          </ns3:TrackPointExtension>
        </extensions>
      </trkpt>
      <trkpt lat="43.8310073129832744598388671875" lon="4.2636268772184848785400390625">
        <ele>105.59999847412109375</ele>
        <time>2024-01-27T09:10:27.000Z</time>
        <extensions>
          <ns3:TrackPointExtension>
            <ns3:hr>133</ns3:hr>
            <ns3:cad>94</ns3:cad>
          </ns3:TrackPointExtension>
        </extensions>
      </trkpt>
      <trkpt lat="43.8310141861438751220703125" lon="4.26358941011130809783935546875">
        <ele>105.8000030517578125</ele>
        <time>2024-01-27T09:10:28.000Z</time>
        <extensions>
          <ns3:TrackPointExtension>
            <ns3:hr>133</ns3:hr>
            <ns3:cad>94</ns3:cad>
          </ns3:TrackPointExtension>
        </extensions>
      </trkpt>
      <trkpt lat="43.8310177065432071685791015625" lon="4.26356074400246143341064453125">
        <ele>106</ele>
        <time>2024-01-27T09:10:29.000Z</time>
        <extensions>
          <ns3:TrackPointExtension>
            <ns3:hr>133</ns3:hr>
            <ns3:cad>93</ns3:cad>
          </ns3:TrackPointExtension>
        </extensions>
      </trkpt>
      <trkpt lat="43.83102357387542724609375" lon="4.2635309882462024688720703125">
        <ele>106</ele>
        <time>2024-01-27T09:10:30.000Z</time>
        <extensions>
          <ns3:TrackPointExtension>
            <ns3:hr>133</ns3:hr>
            <ns3:cad>92</ns3:cad>
          </ns3:TrackPointExtension>
        </extensions>
      </trkpt>
      <trkpt lat="43.83103002794086933135986328125" lon="4.26350190304219722747802734375">
        <ele>106.1999969482421875</ele>
        <time>2024-01-27T09:10:31.000Z</time>
        <extensions>
          <ns3:TrackPointExtension>
            <ns3:hr>133</ns3:hr>
            <ns3:cad>92</ns3:cad>
          </ns3:TrackPointExtension>
        </extensions>
      </trkpt>
      <trkpt lat="43.83103765547275543212890625" lon="4.2634763382375240325927734375">
        <ele>106.40000152587890625</ele>
        <time>2024-01-27T09:10:32.000Z</time>
        <extensions>
          <ns3:TrackPointExtension>
            <ns3:hr>133</ns3:hr>
            <ns3:cad>92</ns3:cad>
          </ns3:TrackPointExtension>
        </extensions>
      </trkpt>
      <trkpt lat="43.83104226551949977874755859375" lon="4.26345127634704113006591796875">
        <ele>106.59999847412109375</ele>
        <time>2024-01-27T09:10:33.000Z</time>
        <extensions>
          <ns3:TrackPointExtension>
            <ns3:hr>133</ns3:hr>
            <ns3:cad>92</ns3:cad>
          </ns3:TrackPointExtension>
        </extensions>
      </trkpt>
      <trkpt lat="43.83105148561298847198486328125" lon="4.263421185314655303955078125">
        <ele>106.8000030517578125</ele>
        <time>2024-01-27T09:10:34.000Z</time>
        <extensions>
          <ns3:TrackPointExtension>
            <ns3:hr>133</ns3:hr>
            <ns3:cad>93</ns3:cad>
          </ns3:TrackPointExtension>
        </extensions>
      </trkpt>
      <trkpt lat="43.8310633040964603424072265625" lon="4.26338531076908111572265625">
        <ele>107</ele>
        <time>2024-01-27T09:10:35.000Z</time>
        <extensions>
          <ns3:TrackPointExtension>
            <ns3:hr>133</ns3:hr>
            <ns3:cad>94</ns3:cad>
          </ns3:TrackPointExtension>
        </extensions>
      </trkpt>
      <trkpt lat="43.8310710154473781585693359375" lon="4.2633583210408687591552734375">
        <ele>107.1999969482421875</ele>
        <time>2024-01-27T09:10:36.000Z</time>
        <extensions>
          <ns3:TrackPointExtension>
            <ns3:hr>133</ns3:hr>
            <ns3:cad>93</ns3:cad>
          </ns3:TrackPointExtension>
        </extensions>
      </trkpt>
      <trkpt lat="43.83108166046440601348876953125" lon="4.26332722418010234832763671875">
        <ele>107.1999969482421875</ele>
        <time>2024-01-27T09:10:37.000Z</time>
        <extensions>
          <ns3:TrackPointExtension>
            <ns3:hr>133</ns3:hr>
            <ns3:cad>94</ns3:cad>
          </ns3:TrackPointExtension>
        </extensions>
      </trkpt>
      <trkpt lat="43.831082917749881744384765625" lon="4.2632993124425411224365234375">
        <ele>107.40000152587890625</ele>
        <time>2024-01-27T09:10:38.000Z</time>
        <extensions>
          <ns3:TrackPointExtension>
            <ns3:hr>133</ns3:hr>
            <ns3:cad>94</ns3:cad>
          </ns3:TrackPointExtension>
        </extensions>
      </trkpt>
      <trkpt lat="43.83108987472951412200927734375" lon="4.263267628848552703857421875">
        <ele>107.59999847412109375</ele>
        <time>2024-01-27T09:10:39.000Z</time>
        <extensions>
          <ns3:TrackPointExtension>
            <ns3:hr>133</ns3:hr>
            <ns3:cad>94</ns3:cad>
          </ns3:TrackPointExtension>
        </extensions>
      </trkpt>
      <trkpt lat="43.831094987690448760986328125" lon="4.263241477310657501220703125">
        <ele>108</ele>
        <time>2024-01-27T09:10:40.000Z</time>
        <extensions>
          <ns3:TrackPointExtension>
            <ns3:hr>134</ns3:hr>
            <ns3:cad>92</ns3:cad>
          </ns3:TrackPointExtension>
        </extensions>
      </trkpt>
      <trkpt lat="43.8311035372316837310791015625" lon="4.26321499049663543701171875">
        <ele>108</ele>
        <time>2024-01-27T09:10:41.000Z</time>
        <extensions>
          <ns3:TrackPointExtension>
            <ns3:hr>134</ns3:hr>
            <ns3:cad>92</ns3:cad>
          </ns3:TrackPointExtension>
        </extensions>
      </trkpt>
      <trkpt lat="43.83110948838293552398681640625" lon="4.26318808458745479583740234375">
        <ele>108.1999969482421875</ele>
        <time>2024-01-27T09:10:42.000Z</time>
        <extensions>
          <ns3:TrackPointExtension>
            <ns3:hr>134</ns3:hr>
            <ns3:cad>94</ns3:cad>
          </ns3:TrackPointExtension>
        </extensions>
      </trkpt>
      <trkpt lat="43.83111753500998020172119140625" lon="4.26316260360181331634521484375">
        <ele>108.59999847412109375</ele>
        <time>2024-01-27T09:10:43.000Z</time>
        <extensions>
          <ns3:TrackPointExtension>
            <ns3:hr>134</ns3:hr>
            <ns3:cad>94</ns3:cad>
          </ns3:TrackPointExtension>
        </extensions>
      </trkpt>
      <trkpt lat="43.83112826384603977203369140625" lon="4.2631313391029834747314453125">
        <ele>108.8000030517578125</ele>
        <time>2024-01-27T09:10:44.000Z</time>
        <extensions>
          <ns3:TrackPointExtension>
            <ns3:hr>134</ns3:hr>
            <ns3:cad>94</ns3:cad>
          </ns3:TrackPointExtension>
        </extensions>
      </trkpt>
      <trkpt lat="43.8311375677585601806640625" lon="4.26310359500348567962646484375">
        <ele>108.8000030517578125</ele>
        <time>2024-01-27T09:10:45.000Z</time>
        <extensions>
          <ns3:TrackPointExtension>
            <ns3:hr>134</ns3:hr>
            <ns3:cad>92</ns3:cad>
          </ns3:TrackPointExtension>
        </extensions>
      </trkpt>
      <trkpt lat="43.83115164935588836669921875" lon="4.263069145381450653076171875">
        <ele>109.1999969482421875</ele>
        <time>2024-01-27T09:10:46.000Z</time>
        <extensions>
          <ns3:TrackPointExtension>
            <ns3:hr>134</ns3:hr>
            <ns3:cad>91</ns3:cad>
          </ns3:TrackPointExtension>
        </extensions>
      </trkpt>
      <trkpt lat="43.8311618752777576446533203125" lon="4.2630480229854583740234375">
        <ele>109.40000152587890625</ele>
        <time>2024-01-27T09:10:47.000Z</time>
        <extensions>
          <ns3:TrackPointExtension>
            <ns3:hr>134</ns3:hr>
            <ns3:cad>91</ns3:cad>
          </ns3:TrackPointExtension>
        </extensions>
      </trkpt>
      <trkpt lat="43.8311783038079738616943359375" lon="4.26301918923854827880859375">
        <ele>109.59999847412109375</ele>
        <time>2024-01-27T09:10:48.000Z</time>
        <extensions>
          <ns3:TrackPointExtension>
            <ns3:hr>134</ns3:hr>
            <ns3:cad>94</ns3:cad>
          </ns3:TrackPointExtension>
        </extensions>
      </trkpt>
      <trkpt lat="43.83119062520563602447509765625" lon="4.262998737394809722900390625">
        <ele>109.8000030517578125</ele>
        <time>2024-01-27T09:10:49.000Z</time>
        <extensions>
          <ns3:TrackPointExtension>
            <ns3:hr>134</ns3:hr>
            <ns3:cad>94</ns3:cad>
          </ns3:TrackPointExtension>
        </extensions>
      </trkpt>
      <trkpt lat="43.8312121666967868804931640625" lon="4.2629673890769481658935546875">
        <ele>109.8000030517578125</ele>
        <time>2024-01-27T09:10:50.000Z</time>
        <extensions>
          <ns3:TrackPointExtension>
            <ns3:hr>134</ns3:hr>
            <ns3:cad>94</ns3:cad>
          </ns3:TrackPointExtension>
        </extensions>
      </trkpt>
      <trkpt lat="43.8312287628650665283203125" lon="4.2629434168338775634765625">
        <ele>109.8000030517578125</ele>
        <time>2024-01-27T09:10:51.000Z</time>
        <extensions>
          <ns3:TrackPointExtension>
            <ns3:hr>134</ns3:hr>
            <ns3:cad>94</ns3:cad>
          </ns3:TrackPointExtension>
        </extensions>
      </trkpt>
      <trkpt lat="43.83125131018459796905517578125" lon="4.2629160918295383453369140625">
        <ele>110</ele>
        <time>2024-01-27T09:10:52.000Z</time>
        <extensions>
          <ns3:TrackPointExtension>
            <ns3:hr>134</ns3:hr>
            <ns3:cad>93</ns3:cad>
          </ns3:TrackPointExtension>
        </extensions>
      </trkpt>
      <trkpt lat="43.831267990171909332275390625" lon="4.262894131243228912353515625">
        <ele>110.1999969482421875</ele>
        <time>2024-01-27T09:10:53.000Z</time>
        <extensions>
          <ns3:TrackPointExtension>
            <ns3:hr>134</ns3:hr>
            <ns3:cad>93</ns3:cad>
          </ns3:TrackPointExtension>
        </extensions>
      </trkpt>
      <trkpt lat="43.83129179477691650390625" lon="4.2628721706569194793701171875">
        <ele>110.40000152587890625</ele>
        <time>2024-01-27T09:10:54.000Z</time>
        <extensions>
          <ns3:TrackPointExtension>
            <ns3:hr>134</ns3:hr>
            <ns3:cad>93</ns3:cad>
          </ns3:TrackPointExtension>
        </extensions>
      </trkpt>
      <trkpt lat="43.83131518028676509857177734375" lon="4.26285230554640293121337890625">
        <ele>110.59999847412109375</ele>
        <time>2024-01-27T09:10:55.000Z</time>
        <extensions>
          <ns3:TrackPointExtension>
            <ns3:hr>134</ns3:hr>
            <ns3:cad>93</ns3:cad>
          </ns3:TrackPointExtension>
        </extensions>
      </trkpt>
      <trkpt lat="43.8313389010727405548095703125" lon="4.26284325309097766876220703125">
        <ele>110.59999847412109375</ele>
        <time>2024-01-27T09:10:56.000Z</time>
        <extensions>
          <ns3:TrackPointExtension>
            <ns3:hr>135</ns3:hr>
            <ns3:cad>93</ns3:cad>
          </ns3:TrackPointExtension>
        </extensions>
      </trkpt>
      <trkpt lat="43.8313640467822551727294921875" lon="4.262835122644901275634765625">
        <ele>110.59999847412109375</ele>
        <time>2024-01-27T09:10:57.000Z</time>
        <extensions>
          <ns3:TrackPointExtension>
            <ns3:hr>135</ns3:hr>
            <ns3:cad>93</ns3:cad>
          </ns3:TrackPointExtension>
        </extensions>
      </trkpt>
      <trkpt lat="43.83138977922499179840087890625" lon="4.26283277571201324462890625">
        <ele>110.59999847412109375</ele>
        <time>2024-01-27T09:10:58.000Z</time>
        <extensions>
          <ns3:TrackPointExtension>
            <ns3:hr>135</ns3:hr>
            <ns3:cad>93</ns3:cad>
          </ns3:TrackPointExtension>
        </extensions>
      </trkpt>
      <trkpt lat="43.83141408674418926239013671875" lon="4.26282816566526889801025390625">
        <ele>110.8000030517578125</ele>
        <time>2024-01-27T09:10:59.000Z</time>
        <extensions>
          <ns3:TrackPointExtension>
            <ns3:hr>135</ns3:hr>
            <ns3:cad>93</ns3:cad>
          </ns3:TrackPointExtension>
        </extensions>
      </trkpt>
      <trkpt lat="43.8314378075301647186279296875" lon="4.26282766275107860565185546875">
        <ele>110.8000030517578125</ele>
        <time>2024-01-27T09:11:00.000Z</time>
        <extensions>
          <ns3:TrackPointExtension>
            <ns3:hr>135</ns3:hr>
            <ns3:cad>92</ns3:cad>
          </ns3:TrackPointExtension>
        </extensions>
      </trkpt>
      <trkpt lat="43.8314673118293285369873046875" lon="4.26282405853271484375">
        <ele>110.8000030517578125</ele>
        <time>2024-01-27T09:11:01.000Z</time>
        <extensions>
          <ns3:TrackPointExtension>
            <ns3:hr>135</ns3:hr>
            <ns3:cad>92</ns3:cad>
          </ns3:TrackPointExtension>
        </extensions>
      </trkpt>
      <trkpt lat="43.83149438537657260894775390625" lon="4.2628252319991588592529296875">
        <ele>111</ele>
        <time>2024-01-27T09:11:02.000Z</time>
        <extensions>
          <ns3:TrackPointExtension>
            <ns3:hr>135</ns3:hr>
            <ns3:cad>92</ns3:cad>
          </ns3:TrackPointExtension>
        </extensions>
      </trkpt>
      <trkpt lat="43.83152539841830730438232421875" lon="4.26282296888530254364013671875">
        <ele>111</ele>
        <time>2024-01-27T09:11:03.000Z</time>
        <extensions>
          <ns3:TrackPointExtension>
            <ns3:hr>135</ns3:hr>
            <ns3:cad>92</ns3:cad>
          </ns3:TrackPointExtension>
        </extensions>
      </trkpt>
      <trkpt lat="43.831548951566219329833984375" lon="4.26282213069498538970947265625">
        <ele>111</ele>
        <time>2024-01-27T09:11:04.000Z</time>
        <extensions>
          <ns3:TrackPointExtension>
            <ns3:hr>135</ns3:hr>
            <ns3:cad>92</ns3:cad>
          </ns3:TrackPointExtension>
        </extensions>
      </trkpt>
      <trkpt lat="43.8315772823989391326904296875" lon="4.262817688286304473876953125">
        <ele>111.1999969482421875</ele>
        <time>2024-01-27T09:11:05.000Z</time>
        <extensions>
          <ns3:TrackPointExtension>
            <ns3:hr>135</ns3:hr>
            <ns3:cad>92</ns3:cad>
          </ns3:TrackPointExtension>
        </extensions>
      </trkpt>
      <trkpt lat="43.83159966208040714263916015625" lon="4.26281257532536983489990234375">
        <ele>111.1999969482421875</ele>
        <time>2024-01-27T09:11:06.000Z</time>
        <extensions>
          <ns3:TrackPointExtension>
            <ns3:hr>135</ns3:hr>
            <ns3:cad>93</ns3:cad>
          </ns3:TrackPointExtension>
        </extensions>
      </trkpt>
      <trkpt lat="43.8316245563328266143798828125" lon="4.262805618345737457275390625">
        <ele>111.1999969482421875</ele>
        <time>2024-01-27T09:11:07.000Z</time>
        <extensions>
          <ns3:TrackPointExtension>
            <ns3:hr>135</ns3:hr>
            <ns3:cad>93</ns3:cad>
          </ns3:TrackPointExtension>
        </extensions>
      </trkpt>
      <trkpt lat="43.8316471874713897705078125" lon="4.26279614679515361785888671875">
        <ele>111.1999969482421875</ele>
        <time>2024-01-27T09:11:08.000Z</time>
        <extensions>
          <ns3:TrackPointExtension>
            <ns3:hr>135</ns3:hr>
            <ns3:cad>92</ns3:cad>
          </ns3:TrackPointExtension>
        </extensions>
      </trkpt>
      <trkpt lat="43.831669650971889495849609375" lon="4.26278793253004550933837890625">
        <ele>111.40000152587890625</ele>
        <time>2024-01-27T09:11:09.000Z</time>
        <extensions>
          <ns3:TrackPointExtension>
            <ns3:hr>135</ns3:hr>
            <ns3:cad>92</ns3:cad>
          </ns3:TrackPointExtension>
        </extensions>
      </trkpt>
      <trkpt lat="43.83168943226337432861328125" lon="4.26277820952236652374267578125">
        <ele>111.40000152587890625</ele>
        <time>2024-01-27T09:11:10.000Z</time>
        <extensions>
          <ns3:TrackPointExtension>
            <ns3:hr>135</ns3:hr>
            <ns3:cad>92</ns3:cad>
          </ns3:TrackPointExtension>
        </extensions>
      </trkpt>
      <trkpt lat="43.831709884107112884521484375" lon="4.26277183927595615386962890625">
        <ele>111.40000152587890625</ele>
        <time>2024-01-27T09:11:11.000Z</time>
        <extensions>
          <ns3:TrackPointExtension>
            <ns3:hr>135</ns3:hr>
            <ns3:cad>92</ns3:cad>
          </ns3:TrackPointExtension>
        </extensions>
      </trkpt>
      <trkpt lat="43.8317315094172954559326171875" lon="4.26276312209665775299072265625">
        <ele>111.59999847412109375</ele>
        <time>2024-01-27T09:11:12.000Z</time>
        <extensions>
          <ns3:TrackPointExtension>
            <ns3:hr>135</ns3:hr>
            <ns3:cad>92</ns3:cad>
          </ns3:TrackPointExtension>
        </extensions>
      </trkpt>
      <trkpt lat="43.83175288327038288116455078125" lon="4.2627548240125179290771484375">
        <ele>111.59999847412109375</ele>
        <time>2024-01-27T09:11:13.000Z</time>
        <extensions>
          <ns3:TrackPointExtension>
            <ns3:hr>135</ns3:hr>
            <ns3:cad>94</ns3:cad>
          </ns3:TrackPointExtension>
        </extensions>
      </trkpt>
      <trkpt lat="43.831779621541500091552734375" lon="4.26274635829031467437744140625">
        <ele>111.8000030517578125</ele>
        <time>2024-01-27T09:11:14.000Z</time>
        <extensions>
          <ns3:TrackPointExtension>
            <ns3:hr>134</ns3:hr>
            <ns3:cad>94</ns3:cad>
          </ns3:TrackPointExtension>
        </extensions>
      </trkpt>
      <trkpt lat="43.8318032585084438323974609375" lon="4.26274015568196773529052734375">
        <ele>111.8000030517578125</ele>
        <time>2024-01-27T09:11:15.000Z</time>
        <extensions>
          <ns3:TrackPointExtension>
            <ns3:hr>134</ns3:hr>
            <ns3:cad>94</ns3:cad>
          </ns3:TrackPointExtension>
        </extensions>
      </trkpt>
      <trkpt lat="43.83183150552213191986083984375" lon="4.26273479126393795013427734375">
        <ele>111.8000030517578125</ele>
        <time>2024-01-27T09:11:16.000Z</time>
        <extensions>
          <ns3:TrackPointExtension>
            <ns3:hr>134</ns3:hr>
            <ns3:cad>94</ns3:cad>
          </ns3:TrackPointExtension>
        </extensions>
      </trkpt>
      <trkpt lat="43.83185799233615398406982421875" lon="4.26273127086460590362548828125">
        <ele>111.8000030517578125</ele>
        <time>2024-01-27T09:11:17.000Z</time>
        <extensions>
          <ns3:TrackPointExtension>
            <ns3:hr>134</ns3:hr>
            <ns3:cad>94</ns3:cad>
          </ns3:TrackPointExtension>
        </extensions>
      </trkpt>
      <trkpt lat="43.83188481442630290985107421875" lon="4.26272775046527385711669921875">
        <ele>112</ele>
        <time>2024-01-27T09:11:18.000Z</time>
        <extensions>
          <ns3:TrackPointExtension>
            <ns3:hr>134</ns3:hr>
            <ns3:cad>94</ns3:cad>
          </ns3:TrackPointExtension>
        </extensions>
      </trkpt>
      <trkpt lat="43.8319071941077709197998046875" lon="4.26272724755108356475830078125">
        <ele>112</ele>
        <time>2024-01-27T09:11:19.000Z</time>
        <extensions>
          <ns3:TrackPointExtension>
            <ns3:hr>134</ns3:hr>
            <ns3:cad>92</ns3:cad>
          </ns3:TrackPointExtension>
        </extensions>
      </trkpt>
      <trkpt lat="43.8319306634366512298583984375" lon="4.26273093558847904205322265625">
        <ele>112</ele>
        <time>2024-01-27T09:11:20.000Z</time>
        <extensions>
          <ns3:TrackPointExtension>
            <ns3:hr>134</ns3:hr>
            <ns3:cad>92</ns3:cad>
          </ns3:TrackPointExtension>
        </extensions>
      </trkpt>
      <trkpt lat="43.83195497095584869384765625" lon="4.26273009739816188812255859375">
        <ele>112.1999969482421875</ele>
        <time>2024-01-27T09:11:21.000Z</time>
        <extensions>
          <ns3:TrackPointExtension>
            <ns3:hr>134</ns3:hr>
            <ns3:cad>92</ns3:cad>
          </ns3:TrackPointExtension>
        </extensions>
      </trkpt>
      <trkpt lat="43.8319772668182849884033203125" lon="4.26272925920784473419189453125">
        <ele>112.40000152587890625</ele>
        <time>2024-01-27T09:11:22.000Z</time>
        <extensions>
          <ns3:TrackPointExtension>
            <ns3:hr>133</ns3:hr>
            <ns3:cad>92</ns3:cad>
          </ns3:TrackPointExtension>
        </extensions>
      </trkpt>
      <trkpt lat="43.8320034183561801910400390625" lon="4.26272682845592498779296875">
        <ele>112.59999847412109375</ele>
        <time>2024-01-27T09:11:23.000Z</time>
        <extensions>
          <ns3:TrackPointExtension>
            <ns3:hr>133</ns3:hr>
            <ns3:cad>94</ns3:cad>
          </ns3:TrackPointExtension>
        </extensions>
      </trkpt>
      <trkpt lat="43.832024373114109039306640625" lon="4.2627202905714511871337890625">
        <ele>112.59999847412109375</ele>
        <time>2024-01-27T09:11:24.000Z</time>
        <extensions>
          <ns3:TrackPointExtension>
            <ns3:hr>133</ns3:hr>
            <ns3:cad>94</ns3:cad>
          </ns3:TrackPointExtension>
        </extensions>
      </trkpt>
      <trkpt lat="43.83205027319490909576416015625" lon="4.262717105448246002197265625">
        <ele>112.8000030517578125</ele>
        <time>2024-01-27T09:11:25.000Z</time>
        <extensions>
          <ns3:TrackPointExtension>
            <ns3:hr>133</ns3:hr>
            <ns3:cad>94</ns3:cad>
          </ns3:TrackPointExtension>
        </extensions>
      </trkpt>
      <trkpt lat="43.8320731557905673980712890625" lon="4.26270939409732818603515625">
        <ele>112.8000030517578125</ele>
        <time>2024-01-27T09:11:26.000Z</time>
        <extensions>
          <ns3:TrackPointExtension>
            <ns3:hr>133</ns3:hr>
            <ns3:cad>94</ns3:cad>
          </ns3:TrackPointExtension>
        </extensions>
      </trkpt>
      <trkpt lat="43.8320966251194477081298828125" lon="4.26270612515509128570556640625">
        <ele>113</ele>
        <time>2024-01-27T09:11:27.000Z</time>
        <extensions>
          <ns3:TrackPointExtension>
            <ns3:hr>132</ns3:hr>
            <ns3:cad>93</ns3:cad>
          </ns3:TrackPointExtension>
        </extensions>
      </trkpt>
      <trkpt lat="43.8321194238960742950439453125" lon="4.26270109601318836212158203125">
        <ele>113.1999969482421875</ele>
        <time>2024-01-27T09:11:28.000Z</time>
        <extensions>
          <ns3:TrackPointExtension>
            <ns3:hr>132</ns3:hr>
            <ns3:cad>92</ns3:cad>
          </ns3:TrackPointExtension>
        </extensions>
      </trkpt>
      <trkpt lat="43.83214247412979602813720703125" lon="4.26270344294607639312744140625">
        <ele>113.40000152587890625</ele>
        <time>2024-01-27T09:11:29.000Z</time>
        <extensions>
          <ns3:TrackPointExtension>
            <ns3:hr>132</ns3:hr>
            <ns3:cad>92</ns3:cad>
          </ns3:TrackPointExtension>
        </extensions>
      </trkpt>
      <trkpt lat="43.83216510526835918426513671875" lon="4.26270411349833011627197265625">
        <ele>113.40000152587890625</ele>
        <time>2024-01-27T09:11:30.000Z</time>
        <extensions>
          <ns3:TrackPointExtension>
            <ns3:hr>132</ns3:hr>
            <ns3:cad>94</ns3:cad>
          </ns3:TrackPointExtension>
        </extensions>
      </trkpt>
      <trkpt lat="43.83218564093112945556640625" lon="4.26271115429699420928955078125">
        <ele>113.59999847412109375</ele>
        <time>2024-01-27T09:11:31.000Z</time>
        <extensions>
          <ns3:TrackPointExtension>
            <ns3:hr>132</ns3:hr>
            <ns3:cad>94</ns3:cad>
          </ns3:TrackPointExtension>
        </extensions>
      </trkpt>
      <trkpt lat="43.8322092778980731964111328125" lon="4.26272272132337093353271484375">
        <ele>113.59999847412109375</ele>
        <time>2024-01-27T09:11:32.000Z</time>
        <extensions>
          <ns3:TrackPointExtension>
            <ns3:hr>132</ns3:hr>
            <ns3:cad>93</ns3:cad>
          </ns3:TrackPointExtension>
        </extensions>
      </trkpt>
      <trkpt lat="43.83223283104598522186279296875" lon="4.26273847930133342742919921875">
        <ele>113.8000030517578125</ele>
        <time>2024-01-27T09:11:33.000Z</time>
        <extensions>
          <ns3:TrackPointExtension>
            <ns3:hr>132</ns3:hr>
            <ns3:cad>92</ns3:cad>
          </ns3:TrackPointExtension>
        </extensions>
      </trkpt>
      <trkpt lat="43.83225462399423122406005859375" lon="4.26275373436510562896728515625">
        <ele>114</ele>
        <time>2024-01-27T09:11:34.000Z</time>
        <extensions>
          <ns3:TrackPointExtension>
            <ns3:hr>132</ns3:hr>
            <ns3:cad>92</ns3:cad>
          </ns3:TrackPointExtension>
        </extensions>
      </trkpt>
      <trkpt lat="43.83227088488638401031494140625" lon="4.262770749628543853759765625">
        <ele>114.1999969482421875</ele>
        <time>2024-01-27T09:11:35.000Z</time>
        <extensions>
          <ns3:TrackPointExtension>
            <ns3:hr>132</ns3:hr>
            <ns3:cad>92</ns3:cad>
          </ns3:TrackPointExtension>
        </extensions>
      </trkpt>
      <trkpt lat="43.83228848688304424285888671875" lon="4.2627896927297115325927734375">
        <ele>114.40000152587890625</ele>
        <time>2024-01-27T09:11:36.000Z</time>
        <extensions>
          <ns3:TrackPointExtension>
            <ns3:hr>132</ns3:hr>
            <ns3:cad>93</ns3:cad>
          </ns3:TrackPointExtension>
        </extensions>
      </trkpt>
      <trkpt lat="43.83230357430875301361083984375" lon="4.26280436106026172637939453125">
        <ele>114.59999847412109375</ele>
        <time>2024-01-27T09:11:37.000Z</time>
        <extensions>
          <ns3:TrackPointExtension>
            <ns3:hr>132</ns3:hr>
            <ns3:cad>93</ns3:cad>
          </ns3:TrackPointExtension>
        </extensions>
      </trkpt>
      <trkpt lat="43.83231841027736663818359375" lon="4.26282095722854137420654296875">
        <ele>114.8000030517578125</ele>
        <time>2024-01-27T09:11:38.000Z</time>
        <extensions>
          <ns3:TrackPointExtension>
            <ns3:hr>132</ns3:hr>
            <ns3:cad>92</ns3:cad>
          </ns3:TrackPointExtension>
        </extensions>
      </trkpt>
      <trkpt lat="43.8323323242366313934326171875" lon="4.26283587701618671417236328125">
        <ele>115.1999969482421875</ele>
        <time>2024-01-27T09:11:39.000Z</time>
        <extensions>
          <ns3:TrackPointExtension>
            <ns3:hr>132</ns3:hr>
            <ns3:cad>92</ns3:cad>
          </ns3:TrackPointExtension>
        </extensions>
      </trkpt>
      <trkpt lat="43.8323490880429744720458984375" lon="4.26285012625157833099365234375">
        <ele>115.40000152587890625</ele>
        <time>2024-01-27T09:11:40.000Z</time>
        <extensions>
          <ns3:TrackPointExtension>
            <ns3:hr>132</ns3:hr>
            <ns3:cad>90</ns3:cad>
          </ns3:TrackPointExtension>
        </extensions>
      </trkpt>
      <trkpt lat="43.8323658518493175506591796875" lon="4.2628601007163524627685546875">
        <ele>116</ele>
        <time>2024-01-27T09:11:41.000Z</time>
        <extensions>
          <ns3:TrackPointExtension>
            <ns3:hr>132</ns3:hr>
            <ns3:cad>90</ns3:cad>
          </ns3:TrackPointExtension>
        </extensions>
      </trkpt>
      <trkpt lat="43.8323846273124217987060546875" lon="4.2628627829253673553466796875">
        <ele>116.1999969482421875</ele>
        <time>2024-01-27T09:11:42.000Z</time>
        <extensions>
          <ns3:TrackPointExtension>
            <ns3:hr>132</ns3:hr>
            <ns3:cad>90</ns3:cad>
          </ns3:TrackPointExtension>
        </extensions>
      </trkpt>
      <trkpt lat="43.83240449242293834686279296875" lon="4.26286437548696994781494140625">
        <ele>116.40000152587890625</ele>
        <time>2024-01-27T09:11:43.000Z</time>
        <extensions>
          <ns3:TrackPointExtension>
            <ns3:hr>133</ns3:hr>
            <ns3:cad>90</ns3:cad>
          </ns3:TrackPointExtension>
        </extensions>
      </trkpt>
      <trkpt lat="43.8324241898953914642333984375" lon="4.262865297496318817138671875">
        <ele>116.8000030517578125</ele>
        <time>2024-01-27T09:11:44.000Z</time>
        <extensions>
          <ns3:TrackPointExtension>
            <ns3:hr>133</ns3:hr>
            <ns3:cad>90</ns3:cad>
          </ns3:TrackPointExtension>
        </extensions>
      </trkpt>
      <trkpt lat="43.8324456475675106048583984375" lon="4.262863285839557647705078125">
        <ele>117.1999969482421875</ele>
        <time>2024-01-27T09:11:45.000Z</time>
        <extensions>
          <ns3:TrackPointExtension>
            <ns3:hr>133</ns3:hr>
            <ns3:cad>90</ns3:cad>
          </ns3:TrackPointExtension>
        </extensions>
      </trkpt>
      <trkpt lat="43.83247188292443752288818359375" lon="4.26286521367728710174560546875">
        <ele>117.1999969482421875</ele>
        <time>2024-01-27T09:11:46.000Z</time>
        <extensions>
          <ns3:TrackPointExtension>
            <ns3:hr>133</ns3:hr>
            <ns3:cad>90</ns3:cad>
          </ns3:TrackPointExtension>
        </extensions>
      </trkpt>
      <trkpt lat="43.8324932567775249481201171875" lon="4.26286655478179454803466796875">
        <ele>117.59999847412109375</ele>
        <time>2024-01-27T09:11:47.000Z</time>
        <extensions>
          <ns3:TrackPointExtension>
            <ns3:hr>133</ns3:hr>
            <ns3:cad>90</ns3:cad>
          </ns3:TrackPointExtension>
        </extensions>
      </trkpt>
      <trkpt lat="43.83251513354480266571044921875" lon="4.26286789588630199432373046875">
        <ele>117.8000030517578125</ele>
        <time>2024-01-27T09:11:48.000Z</time>
        <extensions>
          <ns3:TrackPointExtension>
            <ns3:hr>133</ns3:hr>
            <ns3:cad>90</ns3:cad>
          </ns3:TrackPointExtension>
        </extensions>
      </trkpt>
      <trkpt lat="43.83253525011241436004638671875" lon="4.262869320809841156005859375">
        <ele>118</ele>
        <time>2024-01-27T09:11:49.000Z</time>
        <extensions>
          <ns3:TrackPointExtension>
            <ns3:hr>133</ns3:hr>
            <ns3:cad>90</ns3:cad>
          </ns3:TrackPointExtension>
        </extensions>
      </trkpt>
      <trkpt lat="43.83255335502326488494873046875" lon="4.262872673571109771728515625">
        <ele>118.40000152587890625</ele>
        <time>2024-01-27T09:11:50.000Z</time>
        <extensions>
          <ns3:TrackPointExtension>
            <ns3:hr>133</ns3:hr>
            <ns3:cad>92</ns3:cad>
          </ns3:TrackPointExtension>
        </extensions>
      </trkpt>
      <trkpt lat="43.83257112465798854827880859375" lon="4.26287527196109294891357421875">
        <ele>118.59999847412109375</ele>
        <time>2024-01-27T09:11:51.000Z</time>
        <extensions>
          <ns3:TrackPointExtension>
            <ns3:hr>133</ns3:hr>
            <ns3:cad>92</ns3:cad>
          </ns3:TrackPointExtension>
        </extensions>
      </trkpt>
      <trkpt lat="43.83259140886366367340087890625" lon="4.262876696884632110595703125">
        <ele>119</ele>
        <time>2024-01-27T09:11:52.000Z</time>
        <extensions>
          <ns3:TrackPointExtension>
            <ns3:hr>133</ns3:hr>
            <ns3:cad>92</ns3:cad>
          </ns3:TrackPointExtension>
        </extensions>
      </trkpt>
      <trkpt lat="43.83260951377451419830322265625" lon="4.2628741823136806488037109375">
        <ele>119.40000152587890625</ele>
        <time>2024-01-27T09:11:53.000Z</time>
        <extensions>
          <ns3:TrackPointExtension>
            <ns3:hr>133</ns3:hr>
            <ns3:cad>92</ns3:cad>
          </ns3:TrackPointExtension>
        </extensions>
      </trkpt>
      <trkpt lat="43.83263180963695049285888671875" lon="4.2628701590001583099365234375">
        <ele>119.8000030517578125</ele>
        <time>2024-01-27T09:11:54.000Z</time>
        <extensions>
          <ns3:TrackPointExtension>
            <ns3:hr>133</ns3:hr>
            <ns3:cad>92</ns3:cad>
          </ns3:TrackPointExtension>
        </extensions>
      </trkpt>
      <trkpt lat="43.8326556980609893798828125" lon="4.26286504603922367095947265625">
        <ele>120.1999969482421875</ele>
        <time>2024-01-27T09:11:55.000Z</time>
        <extensions>
          <ns3:TrackPointExtension>
            <ns3:hr>133</ns3:hr>
            <ns3:cad>92</ns3:cad>
          </ns3:TrackPointExtension>
        </extensions>
      </trkpt>
      <trkpt lat="43.8326786644756793975830078125" lon="4.26286336965858936309814453125">
        <ele>120.40000152587890625</ele>
        <time>2024-01-27T09:11:56.000Z</time>
        <extensions>
          <ns3:TrackPointExtension>
            <ns3:hr>133</ns3:hr>
            <ns3:cad>91</ns3:cad>
          </ns3:TrackPointExtension>
        </extensions>
      </trkpt>
      <trkpt lat="43.83269869722425937652587890625" lon="4.26286336965858936309814453125">
        <ele>120.59999847412109375</ele>
        <time>2024-01-27T09:11:57.000Z</time>
        <extensions>
          <ns3:TrackPointExtension>
            <ns3:hr>134</ns3:hr>
            <ns3:cad>90</ns3:cad>
          </ns3:TrackPointExtension>
        </extensions>
      </trkpt>
      <trkpt lat="43.83271696977317333221435546875" lon="4.26286437548696994781494140625">
        <ele>120.8000030517578125</ele>
        <time>2024-01-27T09:11:58.000Z</time>
        <extensions>
          <ns3:TrackPointExtension>
            <ns3:hr>134</ns3:hr>
            <ns3:cad>90</ns3:cad>
          </ns3:TrackPointExtension>
        </extensions>
      </trkpt>
      <trkpt lat="43.83273608051240444183349609375" lon="4.26286471076309680938720703125">
        <ele>121</ele>
        <time>2024-01-27T09:11:59.000Z</time>
        <extensions>
          <ns3:TrackPointExtension>
            <ns3:hr>133</ns3:hr>
            <ns3:cad>91</ns3:cad>
          </ns3:TrackPointExtension>
        </extensions>
      </trkpt>
      <trkpt lat="43.83275217376649379730224609375" lon="4.26286471076309680938720703125">
        <ele>121.40000152587890625</ele>
        <time>2024-01-27T09:12:00.000Z</time>
        <extensions>
          <ns3:TrackPointExtension>
            <ns3:hr>133</ns3:hr>
            <ns3:cad>94</ns3:cad>
          </ns3:TrackPointExtension>
        </extensions>
      </trkpt>
      <trkpt lat="43.832769691944122314453125" lon="4.26286538131535053253173828125">
        <ele>121.59999847412109375</ele>
        <time>2024-01-27T09:12:01.000Z</time>
        <extensions>
          <ns3:TrackPointExtension>
            <ns3:hr>133</ns3:hr>
            <ns3:cad>94</ns3:cad>
          </ns3:TrackPointExtension>
        </extensions>
      </trkpt>
      <trkpt lat="43.83278645575046539306640625" lon="4.26286404021084308624267578125">
        <ele>121.8000030517578125</ele>
        <time>2024-01-27T09:12:02.000Z</time>
        <extensions>
          <ns3:TrackPointExtension>
            <ns3:hr>134</ns3:hr>
            <ns3:cad>94</ns3:cad>
          </ns3:TrackPointExtension>
        </extensions>
      </trkpt>
      <trkpt lat="43.83280648849904537200927734375" lon="4.2628631182014942169189453125">
        <ele>122.40000152587890625</ele>
        <time>2024-01-27T09:12:03.000Z</time>
        <extensions>
          <ns3:TrackPointExtension>
            <ns3:hr>134</ns3:hr>
            <ns3:cad>93</ns3:cad>
          </ns3:TrackPointExtension>
        </extensions>
      </trkpt>
      <trkpt lat="43.8328255154192447662353515625" lon="4.2628644593060016632080078125">
        <ele>122.59999847412109375</ele>
        <time>2024-01-27T09:12:04.000Z</time>
        <extensions>
          <ns3:TrackPointExtension>
            <ns3:hr>135</ns3:hr>
            <ns3:cad>93</ns3:cad>
          </ns3:TrackPointExtension>
        </extensions>
      </trkpt>
      <trkpt lat="43.83284437470138072967529296875" lon="4.2628631182014942169189453125">
        <ele>122.8000030517578125</ele>
        <time>2024-01-27T09:12:05.000Z</time>
        <extensions>
          <ns3:TrackPointExtension>
            <ns3:hr>135</ns3:hr>
            <ns3:cad>92</ns3:cad>
          </ns3:TrackPointExtension>
        </extensions>
      </trkpt>
      <trkpt lat="43.8328644074499607086181640625" lon="4.26286269910633563995361328125">
        <ele>123</ele>
        <time>2024-01-27T09:12:06.000Z</time>
        <extensions>
          <ns3:TrackPointExtension>
            <ns3:hr>135</ns3:hr>
            <ns3:cad>91</ns3:cad>
          </ns3:TrackPointExtension>
        </extensions>
      </trkpt>
      <trkpt lat="43.8328858651220798492431640625" lon="4.26286018453538417816162109375">
        <ele>123.40000152587890625</ele>
        <time>2024-01-27T09:12:07.000Z</time>
        <extensions>
          <ns3:TrackPointExtension>
            <ns3:hr>135</ns3:hr>
            <ns3:cad>90</ns3:cad>
          </ns3:TrackPointExtension>
        </extensions>
      </trkpt>
      <trkpt lat="43.832905478775501251220703125" lon="4.26285498775541782379150390625">
        <ele>123.59999847412109375</ele>
        <time>2024-01-27T09:12:08.000Z</time>
        <extensions>
          <ns3:TrackPointExtension>
            <ns3:hr>136</ns3:hr>
            <ns3:cad>90</ns3:cad>
          </ns3:TrackPointExtension>
        </extensions>
      </trkpt>
      <trkpt lat="43.8329260982573032379150390625" lon="4.26284928806126117706298828125">
        <ele>123.8000030517578125</ele>
        <time>2024-01-27T09:12:09.000Z</time>
        <extensions>
          <ns3:TrackPointExtension>
            <ns3:hr>136</ns3:hr>
            <ns3:cad>88</ns3:cad>
          </ns3:TrackPointExtension>
        </extensions>
      </trkpt>
      <trkpt lat="43.83293976075947284698486328125" lon="4.2628388106822967529296875">
        <ele>124</ele>
        <time>2024-01-27T09:12:10.000Z</time>
        <extensions>
          <ns3:TrackPointExtension>
            <ns3:hr>137</ns3:hr>
            <ns3:cad>88</ns3:cad>
          </ns3:TrackPointExtension>
        </extensions>
      </trkpt>
      <trkpt lat="43.83295887149870395660400390625" lon="4.26282850094139575958251953125">
        <ele>124.40000152587890625</ele>
        <time>2024-01-27T09:12:11.000Z</time>
        <extensions>
          <ns3:TrackPointExtension>
            <ns3:hr>137</ns3:hr>
            <ns3:cad>90</ns3:cad>
          </ns3:TrackPointExtension>
        </extensions>
      </trkpt>
      <trkpt lat="43.83297312073409557342529296875" lon="4.2628161795437335968017578125">
        <ele>124.59999847412109375</ele>
        <time>2024-01-27T09:12:12.000Z</time>
        <extensions>
          <ns3:TrackPointExtension>
            <ns3:hr>138</ns3:hr>
            <ns3:cad>92</ns3:cad>
          </ns3:TrackPointExtension>
        </extensions>
      </trkpt>
      <trkpt lat="43.83299055509269237518310546875" lon="4.26280637271702289581298828125">
        <ele>124.8000030517578125</ele>
        <time>2024-01-27T09:12:13.000Z</time>
        <extensions>
          <ns3:TrackPointExtension>
            <ns3:hr>138</ns3:hr>
            <ns3:cad>93</ns3:cad>
          </ns3:TrackPointExtension>
        </extensions>
      </trkpt>
      <trkpt lat="43.8330089114606380462646484375" lon="4.2627960629761219024658203125">
        <ele>125</ele>
        <time>2024-01-27T09:12:14.000Z</time>
        <extensions>
          <ns3:TrackPointExtension>
            <ns3:hr>138</ns3:hr>
            <ns3:cad>93</ns3:cad>
          </ns3:TrackPointExtension>
        </extensions>
      </trkpt>
      <trkpt lat="43.83302542380988597869873046875" lon="4.2627905309200286865234375">
        <ele>125.1999969482421875</ele>
        <time>2024-01-27T09:12:15.000Z</time>
        <extensions>
          <ns3:TrackPointExtension>
            <ns3:hr>138</ns3:hr>
            <ns3:cad>93</ns3:cad>
          </ns3:TrackPointExtension>
        </extensions>
      </trkpt>
      <trkpt lat="43.8330427743494510650634765625" lon="4.26278642378747463226318359375">
        <ele>125.40000152587890625</ele>
        <time>2024-01-27T09:12:16.000Z</time>
        <extensions>
          <ns3:TrackPointExtension>
            <ns3:hr>138</ns3:hr>
            <ns3:cad>91</ns3:cad>
          </ns3:TrackPointExtension>
        </extensions>
      </trkpt>
      <trkpt lat="43.833062388002872467041015625" lon="4.26278583705425262451171875">
        <ele>125.59999847412109375</ele>
        <time>2024-01-27T09:12:17.000Z</time>
        <extensions>
          <ns3:TrackPointExtension>
            <ns3:hr>138</ns3:hr>
            <ns3:cad>91</ns3:cad>
          </ns3:TrackPointExtension>
        </extensions>
      </trkpt>
      <trkpt lat="43.83307890035212039947509765625" lon="4.2627742700278759002685546875">
        <ele>126</ele>
        <time>2024-01-27T09:12:18.000Z</time>
        <extensions>
          <ns3:TrackPointExtension>
            <ns3:hr>139</ns3:hr>
            <ns3:cad>92</ns3:cad>
          </ns3:TrackPointExtension>
        </extensions>
      </trkpt>
      <trkpt lat="43.83309566415846347808837890625" lon="4.262766055762767791748046875">
        <ele>126.40000152587890625</ele>
        <time>2024-01-27T09:12:19.000Z</time>
        <extensions>
          <ns3:TrackPointExtension>
            <ns3:hr>139</ns3:hr>
            <ns3:cad>92</ns3:cad>
          </ns3:TrackPointExtension>
        </extensions>
      </trkpt>
      <trkpt lat="43.83311745710670948028564453125" lon="4.2627568356692790985107421875">
        <ele>126.8000030517578125</ele>
        <time>2024-01-27T09:12:20.000Z</time>
        <extensions>
          <ns3:TrackPointExtension>
            <ns3:hr>139</ns3:hr>
            <ns3:cad>92</ns3:cad>
          </ns3:TrackPointExtension>
        </extensions>
      </trkpt>
      <trkpt lat="43.833140842616558074951171875" lon="4.2627544887363910675048828125">
        <ele>127</ele>
        <time>2024-01-27T09:12:21.000Z</time>
        <extensions>
          <ns3:TrackPointExtension>
            <ns3:hr>139</ns3:hr>
            <ns3:cad>90</ns3:cad>
          </ns3:TrackPointExtension>
        </extensions>
      </trkpt>
      <trkpt lat="43.83315852843225002288818359375" lon="4.2627502977848052978515625">
        <ele>127.40000152587890625</ele>
        <time>2024-01-27T09:12:22.000Z</time>
        <extensions>
          <ns3:TrackPointExtension>
            <ns3:hr>139</ns3:hr>
            <ns3:cad>89</ns3:cad>
          </ns3:TrackPointExtension>
        </extensions>
      </trkpt>
      <trkpt lat="43.8331787288188934326171875" lon="4.2627481184899806976318359375">
        <ele>128</ele>
        <time>2024-01-27T09:12:23.000Z</time>
        <extensions>
          <ns3:TrackPointExtension>
            <ns3:hr>139</ns3:hr>
            <ns3:cad>89</ns3:cad>
          </ns3:TrackPointExtension>
        </extensions>
      </trkpt>
      <trkpt lat="43.83319674991071224212646484375" lon="4.262742586433887481689453125">
        <ele>128.1999969482421875</ele>
        <time>2024-01-27T09:12:24.000Z</time>
        <extensions>
          <ns3:TrackPointExtension>
            <ns3:hr>139</ns3:hr>
            <ns3:cad>89</ns3:cad>
          </ns3:TrackPointExtension>
        </extensions>
      </trkpt>
      <trkpt lat="43.8332161121070384979248046875" lon="4.262741915881633758544921875">
        <ele>128.600006103515625</ele>
        <time>2024-01-27T09:12:25.000Z</time>
        <extensions>
          <ns3:TrackPointExtension>
            <ns3:hr>140</ns3:hr>
            <ns3:cad>89</ns3:cad>
          </ns3:TrackPointExtension>
        </extensions>
      </trkpt>
      <trkpt lat="43.8332298584282398223876953125" lon="4.26274032332003116607666015625">
        <ele>129</ele>
        <time>2024-01-27T09:12:26.000Z</time>
        <extensions>
          <ns3:TrackPointExtension>
            <ns3:hr>140</ns3:hr>
            <ns3:cad>88</ns3:cad>
          </ns3:TrackPointExtension>
        </extensions>
      </trkpt>
      <trkpt lat="43.8332509808242321014404296875" lon="4.262738563120365142822265625">
        <ele>129.399993896484375</ele>
        <time>2024-01-27T09:12:27.000Z</time>
        <extensions>
          <ns3:TrackPointExtension>
            <ns3:hr>140</ns3:hr>
            <ns3:cad>88</ns3:cad>
          </ns3:TrackPointExtension>
        </extensions>
      </trkpt>
      <trkpt lat="43.8332674093544483184814453125" lon="4.2627350427210330963134765625">
        <ele>129.8000030517578125</ele>
        <time>2024-01-27T09:12:28.000Z</time>
        <extensions>
          <ns3:TrackPointExtension>
            <ns3:hr>140</ns3:hr>
            <ns3:cad>88</ns3:cad>
          </ns3:TrackPointExtension>
        </extensions>
      </trkpt>
      <trkpt lat="43.83328610099852085113525390625" lon="4.2627306841313838958740234375">
        <ele>130</ele>
        <time>2024-01-27T09:12:29.000Z</time>
        <extensions>
          <ns3:TrackPointExtension>
            <ns3:hr>141</ns3:hr>
            <ns3:cad>89</ns3:cad>
          </ns3:TrackPointExtension>
        </extensions>
      </trkpt>
      <trkpt lat="43.83330068551003932952880859375" lon="4.262724481523036956787109375">
        <ele>130.1999969482421875</ele>
        <time>2024-01-27T09:12:30.000Z</time>
        <extensions>
          <ns3:TrackPointExtension>
            <ns3:hr>141</ns3:hr>
            <ns3:cad>90</ns3:cad>
          </ns3:TrackPointExtension>
        </extensions>
      </trkpt>
      <trkpt lat="43.83332147262990474700927734375" lon="4.2627280019223690032958984375">
        <ele>130.600006103515625</ele>
        <time>2024-01-27T09:12:31.000Z</time>
        <extensions>
          <ns3:TrackPointExtension>
            <ns3:hr>141</ns3:hr>
            <ns3:cad>90</ns3:cad>
          </ns3:TrackPointExtension>
        </extensions>
      </trkpt>
      <trkpt lat="43.83333488367497920989990234375" lon="4.26275004632771015167236328125">
        <ele>131</ele>
        <time>2024-01-27T09:12:32.000Z</time>
        <extensions>
          <ns3:TrackPointExtension>
            <ns3:hr>141</ns3:hr>
            <ns3:cad>89</ns3:cad>
          </ns3:TrackPointExtension>
        </extensions>
      </trkpt>
      <trkpt lat="43.83335047401487827301025390625" lon="4.26276194863021373748779296875">
        <ele>131.1999969482421875</ele>
        <time>2024-01-27T09:12:33.000Z</time>
        <extensions>
          <ns3:TrackPointExtension>
            <ns3:hr>141</ns3:hr>
            <ns3:cad>89</ns3:cad>
          </ns3:TrackPointExtension>
        </extensions>
      </trkpt>
      <trkpt lat="43.83336639963090419769287109375" lon="4.2627712525427341461181640625">
        <ele>131.399993896484375</ele>
        <time>2024-01-27T09:12:34.000Z</time>
        <extensions>
          <ns3:TrackPointExtension>
            <ns3:hr>141</ns3:hr>
            <ns3:cad>89</ns3:cad>
          </ns3:TrackPointExtension>
        </extensions>
      </trkpt>
      <trkpt lat="43.83338056504726409912109375" lon="4.26277938298881053924560546875">
        <ele>131.8000030517578125</ele>
        <time>2024-01-27T09:12:35.000Z</time>
        <extensions>
          <ns3:TrackPointExtension>
            <ns3:hr>141</ns3:hr>
            <ns3:cad>87</ns3:cad>
          </ns3:TrackPointExtension>
        </extensions>
      </trkpt>
      <trkpt lat="43.83339657448232173919677734375" lon="4.26279011182487010955810546875">
        <ele>132.1999969482421875</ele>
        <time>2024-01-27T09:12:36.000Z</time>
        <extensions>
          <ns3:TrackPointExtension>
            <ns3:hr>141</ns3:hr>
            <ns3:cad>85</ns3:cad>
          </ns3:TrackPointExtension>
        </extensions>
      </trkpt>
      <trkpt lat="43.8334119133651256561279296875" lon="4.2628010921180248260498046875">
        <ele>132.8000030517578125</ele>
        <time>2024-01-27T09:12:37.000Z</time>
        <extensions>
          <ns3:TrackPointExtension>
            <ns3:hr>141</ns3:hr>
            <ns3:cad>85</ns3:cad>
          </ns3:TrackPointExtension>
        </extensions>
      </trkpt>
      <trkpt lat="43.83342272602021694183349609375" lon="4.26280503161251544952392578125">
        <ele>133</ele>
        <time>2024-01-27T09:12:38.000Z</time>
        <extensions>
          <ns3:TrackPointExtension>
            <ns3:hr>141</ns3:hr>
            <ns3:cad>84</ns3:cad>
          </ns3:TrackPointExtension>
        </extensions>
      </trkpt>
      <trkpt lat="43.83343823254108428955078125" lon="4.2628133296966552734375">
        <ele>133.399993896484375</ele>
        <time>2024-01-27T09:12:39.000Z</time>
        <extensions>
          <ns3:TrackPointExtension>
            <ns3:hr>141</ns3:hr>
            <ns3:cad>84</ns3:cad>
          </ns3:TrackPointExtension>
        </extensions>
      </trkpt>
      <trkpt lat="43.8334496319293975830078125" lon="4.2628155089914798736572265625">
        <ele>133.8000030517578125</ele>
        <time>2024-01-27T09:12:40.000Z</time>
        <extensions>
          <ns3:TrackPointExtension>
            <ns3:hr>141</ns3:hr>
            <ns3:cad>84</ns3:cad>
          </ns3:TrackPointExtension>
        </extensions>
      </trkpt>
      <trkpt lat="43.83346748538315296173095703125" lon="4.26281877793371677398681640625">
        <ele>134</ele>
        <time>2024-01-27T09:12:41.000Z</time>
        <extensions>
          <ns3:TrackPointExtension>
            <ns3:hr>141</ns3:hr>
            <ns3:cad>84</ns3:cad>
          </ns3:TrackPointExtension>
        </extensions>
      </trkpt>
      <trkpt lat="43.8334803096950054168701171875" lon="4.262817017734050750732421875">
        <ele>134.399993896484375</ele>
        <time>2024-01-27T09:12:42.000Z</time>
        <extensions>
          <ns3:TrackPointExtension>
            <ns3:hr>141</ns3:hr>
            <ns3:cad>84</ns3:cad>
          </ns3:TrackPointExtension>
        </extensions>
      </trkpt>
      <trkpt lat="43.8334994204342365264892578125" lon="4.262825064361095428466796875">
        <ele>134.600006103515625</ele>
        <time>2024-01-27T09:12:43.000Z</time>
        <extensions>
          <ns3:TrackPointExtension>
            <ns3:hr>140</ns3:hr>
            <ns3:cad>88</ns3:cad>
          </ns3:TrackPointExtension>
        </extensions>
      </trkpt>
      <trkpt lat="43.83351744152605533599853515625" lon="4.26282783038914203643798828125">
        <ele>134.8000030517578125</ele>
        <time>2024-01-27T09:12:44.000Z</time>
        <extensions>
          <ns3:TrackPointExtension>
            <ns3:hr>140</ns3:hr>
            <ns3:cad>88</ns3:cad>
          </ns3:TrackPointExtension>
        </extensions>
      </trkpt>
      <trkpt lat="43.8335396535694599151611328125" lon="4.2628352902829647064208984375">
        <ele>135</ele>
        <time>2024-01-27T09:12:45.000Z</time>
        <extensions>
          <ns3:TrackPointExtension>
            <ns3:hr>140</ns3:hr>
            <ns3:cad>89</ns3:cad>
          </ns3:TrackPointExtension>
        </extensions>
      </trkpt>
      <trkpt lat="43.833558596670627593994140625" lon="4.26283688284456729888916015625">
        <ele>135.1999969482421875</ele>
        <time>2024-01-27T09:12:46.000Z</time>
        <extensions>
          <ns3:TrackPointExtension>
            <ns3:hr>140</ns3:hr>
            <ns3:cad>89</ns3:cad>
          </ns3:TrackPointExtension>
        </extensions>
      </trkpt>
      <trkpt lat="43.83357896469533443450927734375" lon="4.262845851480960845947265625">
        <ele>135.600006103515625</ele>
        <time>2024-01-27T09:12:47.000Z</time>
        <extensions>
          <ns3:TrackPointExtension>
            <ns3:hr>140</ns3:hr>
            <ns3:cad>88</ns3:cad>
          </ns3:TrackPointExtension>
        </extensions>
      </trkpt>
      <trkpt lat="43.83359388448297977447509765625" lon="4.26284844987094402313232421875">
        <ele>135.8000030517578125</ele>
        <time>2024-01-27T09:12:48.000Z</time>
        <extensions>
          <ns3:TrackPointExtension>
            <ns3:hr>139</ns3:hr>
            <ns3:cad>88</ns3:cad>
          </ns3:TrackPointExtension>
        </extensions>
      </trkpt>
      <trkpt lat="43.8336114026606082916259765625" lon="4.2628550715744495391845703125">
        <ele>136</ele>
        <time>2024-01-27T09:12:49.000Z</time>
        <extensions>
          <ns3:TrackPointExtension>
            <ns3:hr>140</ns3:hr>
            <ns3:cad>89</ns3:cad>
          </ns3:TrackPointExtension>
        </extensions>
      </trkpt>
      <trkpt lat="43.83362841792404651641845703125" lon="4.26285959780216217041015625">
        <ele>136.399993896484375</ele>
        <time>2024-01-27T09:12:50.000Z</time>
        <extensions>
          <ns3:TrackPointExtension>
            <ns3:hr>140</ns3:hr>
            <ns3:cad>89</ns3:cad>
          </ns3:TrackPointExtension>
        </extensions>
      </trkpt>
      <trkpt lat="43.8336459361016750335693359375" lon="4.26286554895341396331787109375">
        <ele>136.600006103515625</ele>
        <time>2024-01-27T09:12:51.000Z</time>
        <extensions>
          <ns3:TrackPointExtension>
            <ns3:hr>139</ns3:hr>
            <ns3:cad>90</ns3:cad>
          </ns3:TrackPointExtension>
        </extensions>
      </trkpt>
      <trkpt lat="43.83366093970835208892822265625" lon="4.26286630332469940185546875">
        <ele>136.8000030517578125</ele>
        <time>2024-01-27T09:12:52.000Z</time>
        <extensions>
          <ns3:TrackPointExtension>
            <ns3:hr>139</ns3:hr>
            <ns3:cad>90</ns3:cad>
          </ns3:TrackPointExtension>
        </extensions>
      </trkpt>
      <trkpt lat="43.8336789608001708984375" lon="4.262867979705333709716796875">
        <ele>137.1999969482421875</ele>
        <time>2024-01-27T09:12:53.000Z</time>
        <extensions>
          <ns3:TrackPointExtension>
            <ns3:hr>139</ns3:hr>
            <ns3:cad>90</ns3:cad>
          </ns3:TrackPointExtension>
        </extensions>
      </trkpt>
      <trkpt lat="43.83369513787329196929931640625" lon="4.26286990754306316375732421875">
        <ele>137.8000030517578125</ele>
        <time>2024-01-27T09:12:54.000Z</time>
        <extensions>
          <ns3:TrackPointExtension>
            <ns3:hr>139</ns3:hr>
            <ns3:cad>90</ns3:cad>
          </ns3:TrackPointExtension>
        </extensions>
      </trkpt>
      <trkpt lat="43.8337139971554279327392578125" lon="4.26286764442920684814453125">
        <ele>138</ele>
        <time>2024-01-27T09:12:55.000Z</time>
        <extensions>
          <ns3:TrackPointExtension>
            <ns3:hr>139</ns3:hr>
            <ns3:cad>90</ns3:cad>
          </ns3:TrackPointExtension>
        </extensions>
      </trkpt>
      <trkpt lat="43.83372983895242214202880859375" lon="4.26285959780216217041015625">
        <ele>138.1999969482421875</ele>
        <time>2024-01-27T09:12:56.000Z</time>
        <extensions>
          <ns3:TrackPointExtension>
            <ns3:hr>139</ns3:hr>
            <ns3:cad>88</ns3:cad>
          </ns3:TrackPointExtension>
        </extensions>
      </trkpt>
      <trkpt lat="43.8337448425590991973876953125" lon="4.26284459419548511505126953125">
        <ele>138.600006103515625</ele>
        <time>2024-01-27T09:12:57.000Z</time>
        <extensions>
          <ns3:TrackPointExtension>
            <ns3:hr>139</ns3:hr>
            <ns3:cad>87</ns3:cad>
          </ns3:TrackPointExtension>
        </extensions>
      </trkpt>
      <trkpt lat="43.833754062652587890625" lon="4.26282665692269802093505859375">
        <ele>138.8000030517578125</ele>
        <time>2024-01-27T09:12:58.000Z</time>
        <extensions>
          <ns3:TrackPointExtension>
            <ns3:hr>139</ns3:hr>
            <ns3:cad>86</ns3:cad>
          </ns3:TrackPointExtension>
        </extensions>
      </trkpt>
      <trkpt lat="43.8337663002312183380126953125" lon="4.26280905492603778839111328125">
        <ele>139</ele>
        <time>2024-01-27T09:12:59.000Z</time>
        <extensions>
          <ns3:TrackPointExtension>
            <ns3:hr>139</ns3:hr>
            <ns3:cad>86</ns3:cad>
          </ns3:TrackPointExtension>
        </extensions>
      </trkpt>
      <trkpt lat="43.83378163911402225494384765625" lon="4.26279447041451930999755859375">
        <ele>139</ele>
        <time>2024-01-27T09:13:00.000Z</time>
        <extensions>
          <ns3:TrackPointExtension>
            <ns3:hr>139</ns3:hr>
            <ns3:cad>86</ns3:cad>
          </ns3:TrackPointExtension>
        </extensions>
      </trkpt>
      <trkpt lat="43.833795301616191864013671875" lon="4.2627798020839691162109375">
        <ele>139.399993896484375</ele>
        <time>2024-01-27T09:13:01.000Z</time>
        <extensions>
          <ns3:TrackPointExtension>
            <ns3:hr>139</ns3:hr>
            <ns3:cad>86</ns3:cad>
          </ns3:TrackPointExtension>
        </extensions>
      </trkpt>
      <trkpt lat="43.83381147868931293487548828125" lon="4.2627682350575923919677734375">
        <ele>139.399993896484375</ele>
        <time>2024-01-27T09:13:02.000Z</time>
        <extensions>
          <ns3:TrackPointExtension>
            <ns3:hr>139</ns3:hr>
            <ns3:cad>88</ns3:cad>
          </ns3:TrackPointExtension>
        </extensions>
      </trkpt>
      <trkpt lat="43.8338251411914825439453125" lon="4.26275708712637424468994140625">
        <ele>139.8000030517578125</ele>
        <time>2024-01-27T09:13:03.000Z</time>
        <extensions>
          <ns3:TrackPointExtension>
            <ns3:hr>139</ns3:hr>
            <ns3:cad>88</ns3:cad>
          </ns3:TrackPointExtension>
        </extensions>
      </trkpt>
      <trkpt lat="43.83384324610233306884765625" lon="4.26274158060550689697265625">
        <ele>140</ele>
        <time>2024-01-27T09:13:04.000Z</time>
        <extensions>
          <ns3:TrackPointExtension>
            <ns3:hr>139</ns3:hr>
            <ns3:cad>88</ns3:cad>
          </ns3:TrackPointExtension>
        </extensions>
      </trkpt>
      <trkpt lat="43.83385808207094669342041015625" lon="4.26272490061819553375244140625">
        <ele>140.1999969482421875</ele>
        <time>2024-01-27T09:13:05.000Z</time>
        <extensions>
          <ns3:TrackPointExtension>
            <ns3:hr>139</ns3:hr>
            <ns3:cad>88</ns3:cad>
          </ns3:TrackPointExtension>
        </extensions>
      </trkpt>
      <trkpt lat="43.83386730216443538665771484375" lon="4.26270947791635990142822265625">
        <ele>140.399993896484375</ele>
        <time>2024-01-27T09:13:06.000Z</time>
        <extensions>
          <ns3:TrackPointExtension>
            <ns3:hr>139</ns3:hr>
            <ns3:cad>88</ns3:cad>
          </ns3:TrackPointExtension>
        </extensions>
      </trkpt>
      <trkpt lat="43.8338722474873065948486328125" lon="4.2626964859664440155029296875">
        <ele>140.600006103515625</ele>
        <time>2024-01-27T09:13:07.000Z</time>
        <extensions>
          <ns3:TrackPointExtension>
            <ns3:hr>139</ns3:hr>
            <ns3:cad>88</ns3:cad>
          </ns3:TrackPointExtension>
        </extensions>
      </trkpt>
      <trkpt lat="43.83387819863855838775634765625" lon="4.26268416456878185272216796875">
        <ele>141</ele>
        <time>2024-01-27T09:13:08.000Z</time>
        <extensions>
          <ns3:TrackPointExtension>
            <ns3:hr>139</ns3:hr>
            <ns3:cad>88</ns3:cad>
          </ns3:TrackPointExtension>
        </extensions>
      </trkpt>
      <trkpt lat="43.83388482034206390380859375" lon="4.26266958005726337432861328125">
        <ele>141.1999969482421875</ele>
        <time>2024-01-27T09:13:09.000Z</time>
        <extensions>
          <ns3:TrackPointExtension>
            <ns3:hr>139</ns3:hr>
            <ns3:cad>88</ns3:cad>
          </ns3:TrackPointExtension>
        </extensions>
      </trkpt>
      <trkpt lat="43.8338943757116794586181640625" lon="4.2626564204692840576171875">
        <ele>141.399993896484375</ele>
        <time>2024-01-27T09:13:10.000Z</time>
        <extensions>
          <ns3:TrackPointExtension>
            <ns3:hr>139</ns3:hr>
            <ns3:cad>88</ns3:cad>
          </ns3:TrackPointExtension>
        </extensions>
      </trkpt>
      <trkpt lat="43.83390451781451702117919921875" lon="4.262644015252590179443359375">
        <ele>141.600006103515625</ele>
        <time>2024-01-27T09:13:11.000Z</time>
        <extensions>
          <ns3:TrackPointExtension>
            <ns3:hr>139</ns3:hr>
            <ns3:cad>88</ns3:cad>
          </ns3:TrackPointExtension>
        </extensions>
      </trkpt>
      <trkpt lat="43.833918012678623199462890625" lon="4.2626317776739597320556640625">
        <ele>141.8000030517578125</ele>
        <time>2024-01-27T09:13:12.000Z</time>
        <extensions>
          <ns3:TrackPointExtension>
            <ns3:hr>139</ns3:hr>
            <ns3:cad>88</ns3:cad>
          </ns3:TrackPointExtension>
        </extensions>
      </trkpt>
      <trkpt lat="43.83393385447561740875244140625" lon="4.26261995919048786163330078125">
        <ele>142</ele>
        <time>2024-01-27T09:13:13.000Z</time>
        <extensions>
          <ns3:TrackPointExtension>
            <ns3:hr>139</ns3:hr>
            <ns3:cad>88</ns3:cad>
          </ns3:TrackPointExtension>
        </extensions>
      </trkpt>
      <trkpt lat="43.83394718170166015625" lon="4.26261551678180694580078125">
        <ele>142.1999969482421875</ele>
        <time>2024-01-27T09:13:14.000Z</time>
        <extensions>
          <ns3:TrackPointExtension>
            <ns3:hr>139</ns3:hr>
            <ns3:cad>0</ns3:cad>
          </ns3:TrackPointExtension>
        </extensions>
      </trkpt>
      <trkpt lat="43.83396671153604984283447265625" lon="4.26261140964925289154052734375">
        <ele>142.399993896484375</ele>
        <time>2024-01-27T09:13:15.000Z</time>
        <extensions>
          <ns3:TrackPointExtension>
            <ns3:hr>138</ns3:hr>
            <ns3:cad>0</ns3:cad>
          </ns3:TrackPointExtension>
        </extensions>
      </trkpt>
      <trkpt lat="43.8339795358479022979736328125" lon="4.26260755397379398345947265625">
        <ele>142.8000030517578125</ele>
        <time>2024-01-27T09:13:16.000Z</time>
        <extensions>
          <ns3:TrackPointExtension>
            <ns3:hr>138</ns3:hr>
            <ns3:cad>0</ns3:cad>
          </ns3:TrackPointExtension>
        </extensions>
      </trkpt>
      <trkpt lat="43.8339905999600887298583984375" lon="4.26260755397379398345947265625">
        <ele>143</ele>
        <time>2024-01-27T09:13:17.000Z</time>
        <extensions>
          <ns3:TrackPointExtension>
            <ns3:hr>138</ns3:hr>
            <ns3:cad>0</ns3:cad>
          </ns3:TrackPointExtension>
        </extensions>
      </trkpt>
      <trkpt lat="43.83400660939514636993408203125" lon="4.26260872744023799896240234375">
        <ele>143.1999969482421875</ele>
        <time>2024-01-27T09:13:18.000Z</time>
        <extensions>
          <ns3:TrackPointExtension>
            <ns3:hr>138</ns3:hr>
            <ns3:cad>0</ns3:cad>
          </ns3:TrackPointExtension>
        </extensions>
      </trkpt>
      <trkpt lat="43.8340241275727748870849609375" lon="4.2626116611063480377197265625">
        <ele>143.1999969482421875</ele>
        <time>2024-01-27T09:13:19.000Z</time>
        <extensions>
          <ns3:TrackPointExtension>
            <ns3:hr>138</ns3:hr>
            <ns3:cad>0</ns3:cad>
          </ns3:TrackPointExtension>
        </extensions>
      </trkpt>
      <trkpt lat="43.83403837680816650390625" lon="4.26261509768664836883544921875">
        <ele>143.399993896484375</ele>
        <time>2024-01-27T09:13:20.000Z</time>
        <extensions>
          <ns3:TrackPointExtension>
            <ns3:hr>137</ns3:hr>
            <ns3:cad>0</ns3:cad>
          </ns3:TrackPointExtension>
        </extensions>
      </trkpt>
      <trkpt lat="43.834047429263591766357421875" lon="4.26261727698147296905517578125">
        <ele>143.8000030517578125</ele>
        <time>2024-01-27T09:13:21.000Z</time>
        <extensions>
          <ns3:TrackPointExtension>
            <ns3:hr>137</ns3:hr>
            <ns3:cad>0</ns3:cad>
          </ns3:TrackPointExtension>
        </extensions>
      </trkpt>
      <trkpt lat="43.83405916392803192138671875" lon="4.2626215517520904541015625">
        <ele>144.1999969482421875</ele>
        <time>2024-01-27T09:13:22.000Z</time>
        <extensions>
          <ns3:TrackPointExtension>
            <ns3:hr>137</ns3:hr>
            <ns3:cad>0</ns3:cad>
          </ns3:TrackPointExtension>
        </extensions>
      </trkpt>
      <trkpt lat="43.83407014422118663787841796875" lon="4.2626277543604373931884765625">
        <ele>144.600006103515625</ele>
        <time>2024-01-27T09:13:23.000Z</time>
        <extensions>
          <ns3:TrackPointExtension>
            <ns3:hr>137</ns3:hr>
            <ns3:cad>0</ns3:cad>
          </ns3:TrackPointExtension>
        </extensions>
      </trkpt>
      <trkpt lat="43.83407953195273876190185546875" lon="4.26263370551168918609619140625">
        <ele>144.8000030517578125</ele>
        <time>2024-01-27T09:13:24.000Z</time>
        <extensions>
          <ns3:TrackPointExtension>
            <ns3:hr>137</ns3:hr>
            <ns3:cad>0</ns3:cad>
          </ns3:TrackPointExtension>
        </extensions>
      </trkpt>
      <trkpt lat="43.83409394882619380950927734375" lon="4.262644350528717041015625">
        <ele>145.1999969482421875</ele>
        <time>2024-01-27T09:13:25.000Z</time>
        <extensions>
          <ns3:TrackPointExtension>
            <ns3:hr>137</ns3:hr>
            <ns3:cad>0</ns3:cad>
          </ns3:TrackPointExtension>
        </extensions>
      </trkpt>
      <trkpt lat="43.83410752750933170318603515625" lon="4.26265264861285686492919921875">
        <ele>145.399993896484375</ele>
        <time>2024-01-27T09:13:26.000Z</time>
        <extensions>
          <ns3:TrackPointExtension>
            <ns3:hr>136</ns3:hr>
            <ns3:cad>0</ns3:cad>
          </ns3:TrackPointExtension>
        </extensions>
      </trkpt>
      <trkpt lat="43.83411339484155178070068359375" lon="4.26266354508697986602783203125">
        <ele>145.600006103515625</ele>
        <time>2024-01-27T09:13:27.000Z</time>
        <extensions>
          <ns3:TrackPointExtension>
            <ns3:hr>136</ns3:hr>
            <ns3:cad>0</ns3:cad>
          </ns3:TrackPointExtension>
        </extensions>
      </trkpt>
      <trkpt lat="43.83412010036408901214599609375" lon="4.26267108879983425140380859375">
        <ele>145.8000030517578125</ele>
        <time>2024-01-27T09:13:28.000Z</time>
        <extensions>
          <ns3:TrackPointExtension>
            <ns3:hr>136</ns3:hr>
            <ns3:cad>0</ns3:cad>
          </ns3:TrackPointExtension>
        </extensions>
      </trkpt>
      <trkpt lat="43.8341280631721019744873046875" lon="4.262678213417530059814453125">
        <ele>146</ele>
        <time>2024-01-27T09:13:29.000Z</time>
        <extensions>
          <ns3:TrackPointExtension>
            <ns3:hr>136</ns3:hr>
            <ns3:cad>64</ns3:cad>
          </ns3:TrackPointExtension>
        </extensions>
      </trkpt>
      <trkpt lat="43.83413535542786121368408203125" lon="4.26268399693071842193603515625">
        <ele>146.399993896484375</ele>
        <time>2024-01-27T09:13:30.000Z</time>
        <extensions>
          <ns3:TrackPointExtension>
            <ns3:hr>136</ns3:hr>
            <ns3:cad>64</ns3:cad>
          </ns3:TrackPointExtension>
        </extensions>
      </trkpt>
      <trkpt lat="43.83414641954004764556884765625" lon="4.2626938037574291229248046875">
        <ele>146.600006103515625</ele>
        <time>2024-01-27T09:13:31.000Z</time>
        <extensions>
          <ns3:TrackPointExtension>
            <ns3:hr>136</ns3:hr>
            <ns3:cad>64</ns3:cad>
          </ns3:TrackPointExtension>
        </extensions>
      </trkpt>
      <trkpt lat="43.8341558910906314849853515625" lon="4.2626998387277126312255859375">
        <ele>146.8000030517578125</ele>
        <time>2024-01-27T09:13:32.000Z</time>
        <extensions>
          <ns3:TrackPointExtension>
            <ns3:hr>135</ns3:hr>
            <ns3:cad>0</ns3:cad>
          </ns3:TrackPointExtension>
        </extensions>
      </trkpt>
      <trkpt lat="43.8341646082699298858642578125" lon="4.2627015151083469390869140625">
        <ele>147</ele>
        <time>2024-01-27T09:13:33.000Z</time>
        <extensions>
          <ns3:TrackPointExtension>
            <ns3:hr>135</ns3:hr>
            <ns3:cad>0</ns3:cad>
          </ns3:TrackPointExtension>
        </extensions>
      </trkpt>
      <trkpt lat="43.8341780193150043487548828125" lon="4.26270478405058383941650390625">
        <ele>147</ele>
        <time>2024-01-27T09:13:34.000Z</time>
        <extensions>
          <ns3:TrackPointExtension>
            <ns3:hr>135</ns3:hr>
            <ns3:cad>0</ns3:cad>
          </ns3:TrackPointExtension>
        </extensions>
      </trkpt>
      <trkpt lat="43.83419637568295001983642578125" lon="4.26270646043121814727783203125">
        <ele>147.399993896484375</ele>
        <time>2024-01-27T09:13:35.000Z</time>
        <extensions>
          <ns3:TrackPointExtension>
            <ns3:hr>135</ns3:hr>
            <ns3:cad>0</ns3:cad>
          </ns3:TrackPointExtension>
        </extensions>
      </trkpt>
      <trkpt lat="43.83421766571700572967529296875" lon="4.2627068795263767242431640625">
        <ele>147.8000030517578125</ele>
        <time>2024-01-27T09:13:36.000Z</time>
        <extensions>
          <ns3:TrackPointExtension>
            <ns3:hr>135</ns3:hr>
            <ns3:cad>0</ns3:cad>
          </ns3:TrackPointExtension>
        </extensions>
      </trkpt>
      <trkpt lat="43.83423308841884136199951171875" lon="4.2627073824405670166015625">
        <ele>148</ele>
        <time>2024-01-27T09:13:37.000Z</time>
        <extensions>
          <ns3:TrackPointExtension>
            <ns3:hr>135</ns3:hr>
            <ns3:cad>0</ns3:cad>
          </ns3:TrackPointExtension>
        </extensions>
      </trkpt>
      <trkpt lat="43.8342489302158355712890625" lon="4.26270344294607639312744140625">
        <ele>148.399993896484375</ele>
        <time>2024-01-27T09:13:38.000Z</time>
        <extensions>
          <ns3:TrackPointExtension>
            <ns3:hr>135</ns3:hr>
            <ns3:cad>86</ns3:cad>
          </ns3:TrackPointExtension>
        </extensions>
      </trkpt>
      <trkpt lat="43.83426276035606861114501953125" lon="4.26270126365125179290771484375">
        <ele>148.399993896484375</ele>
        <time>2024-01-27T09:13:39.000Z</time>
        <extensions>
          <ns3:TrackPointExtension>
            <ns3:hr>136</ns3:hr>
            <ns3:cad>90</ns3:cad>
          </ns3:TrackPointExtension>
        </extensions>
      </trkpt>
      <trkpt lat="43.8342812843620777130126953125" lon="4.26269573159515857696533203125">
        <ele>148.8000030517578125</ele>
        <time>2024-01-27T09:13:40.000Z</time>
        <extensions>
          <ns3:TrackPointExtension>
            <ns3:hr>136</ns3:hr>
            <ns3:cad>90</ns3:cad>
          </ns3:TrackPointExtension>
        </extensions>
      </trkpt>
      <trkpt lat="43.83430014364421367645263671875" lon="4.26269070245325565338134765625">
        <ele>149</ele>
        <time>2024-01-27T09:13:41.000Z</time>
        <extensions>
          <ns3:TrackPointExtension>
            <ns3:hr>137</ns3:hr>
            <ns3:cad>89</ns3:cad>
          </ns3:TrackPointExtension>
        </extensions>
      </trkpt>
      <trkpt lat="43.8343114592134952545166015625" lon="4.2626834101974964141845703125">
        <ele>149.399993896484375</ele>
        <time>2024-01-27T09:13:42.000Z</time>
        <extensions>
          <ns3:TrackPointExtension>
            <ns3:hr>137</ns3:hr>
            <ns3:cad>89</ns3:cad>
          </ns3:TrackPointExtension>
        </extensions>
      </trkpt>
      <trkpt lat="43.83432948030531406402587890625" lon="4.26267863251268863677978515625">
        <ele>149.600006103515625</ele>
        <time>2024-01-27T09:13:43.000Z</time>
        <extensions>
          <ns3:TrackPointExtension>
            <ns3:hr>136</ns3:hr>
            <ns3:cad>88</ns3:cad>
          </ns3:TrackPointExtension>
        </extensions>
      </trkpt>
      <trkpt lat="43.83434356190264225006103515625" lon="4.262675531208515167236328125">
        <ele>149.8000030517578125</ele>
        <time>2024-01-27T09:13:44.000Z</time>
        <extensions>
          <ns3:TrackPointExtension>
            <ns3:hr>136</ns3:hr>
            <ns3:cad>88</ns3:cad>
          </ns3:TrackPointExtension>
        </extensions>
      </trkpt>
      <trkpt lat="43.834361918270587921142578125" lon="4.26267184317111968994140625">
        <ele>149.8000030517578125</ele>
        <time>2024-01-27T09:13:45.000Z</time>
        <extensions>
          <ns3:TrackPointExtension>
            <ns3:hr>137</ns3:hr>
            <ns3:cad>88</ns3:cad>
          </ns3:TrackPointExtension>
        </extensions>
      </trkpt>
      <trkpt lat="43.83438278920948505401611328125" lon="4.26266354508697986602783203125">
        <ele>150</ele>
        <time>2024-01-27T09:13:46.000Z</time>
        <extensions>
          <ns3:TrackPointExtension>
            <ns3:hr>137</ns3:hr>
            <ns3:cad>90</ns3:cad>
          </ns3:TrackPointExtension>
        </extensions>
      </trkpt>
      <trkpt lat="43.83440307341516017913818359375" lon="4.26265633665025234222412109375">
        <ele>150.1999969482421875</ele>
        <time>2024-01-27T09:13:47.000Z</time>
        <extensions>
          <ns3:TrackPointExtension>
            <ns3:hr>137</ns3:hr>
            <ns3:cad>92</ns3:cad>
          </ns3:TrackPointExtension>
        </extensions>
      </trkpt>
      <trkpt lat="43.83442587219178676605224609375" lon="4.26265038549900054931640625">
        <ele>150.1999969482421875</ele>
        <time>2024-01-27T09:13:48.000Z</time>
        <extensions>
          <ns3:TrackPointExtension>
            <ns3:hr>137</ns3:hr>
            <ns3:cad>92</ns3:cad>
          </ns3:TrackPointExtension>
        </extensions>
      </trkpt>
      <trkpt lat="43.83444163016974925994873046875" lon="4.262651391327381134033203125">
        <ele>150.399993896484375</ele>
        <time>2024-01-27T09:13:49.000Z</time>
        <extensions>
          <ns3:TrackPointExtension>
            <ns3:hr>137</ns3:hr>
            <ns3:cad>91</ns3:cad>
          </ns3:TrackPointExtension>
        </extensions>
      </trkpt>
      <trkpt lat="43.8344549573957920074462890625" lon="4.262653402984142303466796875">
        <ele>150.600006103515625</ele>
        <time>2024-01-27T09:13:50.000Z</time>
        <extensions>
          <ns3:TrackPointExtension>
            <ns3:hr>138</ns3:hr>
            <ns3:cad>90</ns3:cad>
          </ns3:TrackPointExtension>
        </extensions>
      </trkpt>
      <trkpt lat="43.83447783999145030975341796875" lon="4.26265181042253971099853515625">
        <ele>150.8000030517578125</ele>
        <time>2024-01-27T09:13:51.000Z</time>
        <extensions>
          <ns3:TrackPointExtension>
            <ns3:hr>138</ns3:hr>
            <ns3:cad>90</ns3:cad>
          </ns3:TrackPointExtension>
        </extensions>
      </trkpt>
      <trkpt lat="43.8344982080161571502685546875" lon="4.26265063695609569549560546875">
        <ele>151</ele>
        <time>2024-01-27T09:13:52.000Z</time>
        <extensions>
          <ns3:TrackPointExtension>
            <ns3:hr>138</ns3:hr>
            <ns3:cad>90</ns3:cad>
          </ns3:TrackPointExtension>
        </extensions>
      </trkpt>
      <trkpt lat="43.8345243595540523529052734375" lon="4.26265013404190540313720703125">
        <ele>151.399993896484375</ele>
        <time>2024-01-27T09:13:53.000Z</time>
        <extensions>
          <ns3:TrackPointExtension>
            <ns3:hr>137</ns3:hr>
            <ns3:cad>90</ns3:cad>
          </ns3:TrackPointExtension>
        </extensions>
      </trkpt>
      <trkpt lat="43.83455629460513591766357421875" lon="4.262648709118366241455078125">
        <ele>151.8000030517578125</ele>
        <time>2024-01-27T09:13:54.000Z</time>
        <extensions>
          <ns3:TrackPointExtension>
            <ns3:hr>137</ns3:hr>
            <ns3:cad>90</ns3:cad>
          </ns3:TrackPointExtension>
        </extensions>
      </trkpt>
      <trkpt lat="43.83457808755338191986083984375" lon="4.2626572586596012115478515625">
        <ele>152</ele>
        <time>2024-01-27T09:13:55.000Z</time>
        <extensions>
          <ns3:TrackPointExtension>
            <ns3:hr>137</ns3:hr>
            <ns3:cad>90</ns3:cad>
          </ns3:TrackPointExtension>
        </extensions>
      </trkpt>
      <trkpt lat="43.8346002995967864990234375" lon="4.26266253925859928131103515625">
        <ele>152.399993896484375</ele>
        <time>2024-01-27T09:13:56.000Z</time>
        <extensions>
          <ns3:TrackPointExtension>
            <ns3:hr>136</ns3:hr>
            <ns3:cad>90</ns3:cad>
          </ns3:TrackPointExtension>
        </extensions>
      </trkpt>
      <trkpt lat="43.8346192426979541778564453125" lon="4.26266916096210479736328125">
        <ele>152.399993896484375</ele>
        <time>2024-01-27T09:13:57.000Z</time>
        <extensions>
          <ns3:TrackPointExtension>
            <ns3:hr>134</ns3:hr>
            <ns3:cad>90</ns3:cad>
          </ns3:TrackPointExtension>
        </extensions>
      </trkpt>
      <trkpt lat="43.834641538560390472412109375" lon="4.26267645321786403656005859375">
        <ele>152.600006103515625</ele>
        <time>2024-01-27T09:13:58.000Z</time>
        <extensions>
          <ns3:TrackPointExtension>
            <ns3:hr>133</ns3:hr>
            <ns3:cad>90</ns3:cad>
          </ns3:TrackPointExtension>
        </extensions>
      </trkpt>
      <trkpt lat="43.8346618227660655975341796875" lon="4.2626827396452426910400390625">
        <ele>152.8000030517578125</ele>
        <time>2024-01-27T09:13:59.000Z</time>
        <extensions>
          <ns3:TrackPointExtension>
            <ns3:hr>133</ns3:hr>
            <ns3:cad>91</ns3:cad>
          </ns3:TrackPointExtension>
        </extensions>
      </trkpt>
      <trkpt lat="43.834683112800121307373046875" lon="4.26268802024424076080322265625">
        <ele>153</ele>
        <time>2024-01-27T09:14:00.000Z</time>
        <extensions>
          <ns3:TrackPointExtension>
            <ns3:hr>133</ns3:hr>
            <ns3:cad>92</ns3:cad>
          </ns3:TrackPointExtension>
        </extensions>
      </trkpt>
      <trkpt lat="43.8347050733864307403564453125" lon="4.2626911215484142303466796875">
        <ele>153.1999969482421875</ele>
        <time>2024-01-27T09:14:01.000Z</time>
        <extensions>
          <ns3:TrackPointExtension>
            <ns3:hr>133</ns3:hr>
            <ns3:cad>92</ns3:cad>
          </ns3:TrackPointExtension>
        </extensions>
      </trkpt>
      <trkpt lat="43.83472711779177188873291015625" lon="4.2626907862722873687744140625">
        <ele>153.399993896484375</ele>
        <time>2024-01-27T09:14:02.000Z</time>
        <extensions>
          <ns3:TrackPointExtension>
            <ns3:hr>134</ns3:hr>
            <ns3:cad>91</ns3:cad>
          </ns3:TrackPointExtension>
        </extensions>
      </trkpt>
      <trkpt lat="43.83474840782582759857177734375" lon="4.26269371993839740753173828125">
        <ele>153.600006103515625</ele>
        <time>2024-01-27T09:14:03.000Z</time>
        <extensions>
          <ns3:TrackPointExtension>
            <ns3:hr>134</ns3:hr>
            <ns3:cad>91</ns3:cad>
          </ns3:TrackPointExtension>
        </extensions>
      </trkpt>
      <trkpt lat="43.8347717933356761932373046875" lon="4.26269455812871456146240234375">
        <ele>154</ele>
        <time>2024-01-27T09:14:04.000Z</time>
        <extensions>
          <ns3:TrackPointExtension>
            <ns3:hr>134</ns3:hr>
            <ns3:cad>89</ns3:cad>
          </ns3:TrackPointExtension>
        </extensions>
      </trkpt>
      <trkpt lat="43.83479199372231960296630859375" lon="4.2626974917948246002197265625">
        <ele>154.1999969482421875</ele>
        <time>2024-01-27T09:14:05.000Z</time>
        <extensions>
          <ns3:TrackPointExtension>
            <ns3:hr>135</ns3:hr>
            <ns3:cad>88</ns3:cad>
          </ns3:TrackPointExtension>
        </extensions>
      </trkpt>
      <trkpt lat="43.834813535213470458984375" lon="4.26269925199449062347412109375">
        <ele>154.399993896484375</ele>
        <time>2024-01-27T09:14:06.000Z</time>
        <extensions>
          <ns3:TrackPointExtension>
            <ns3:hr>135</ns3:hr>
            <ns3:cad>88</ns3:cad>
          </ns3:TrackPointExtension>
        </extensions>
      </trkpt>
      <trkpt lat="43.8348334841430187225341796875" lon="4.26270176656544208526611328125">
        <ele>154.399993896484375</ele>
        <time>2024-01-27T09:14:07.000Z</time>
        <extensions>
          <ns3:TrackPointExtension>
            <ns3:hr>135</ns3:hr>
            <ns3:cad>89</ns3:cad>
          </ns3:TrackPointExtension>
        </extensions>
      </trkpt>
      <trkpt lat="43.8348495773971080780029296875" lon="4.2627062089741230010986328125">
        <ele>154.600006103515625</ele>
        <time>2024-01-27T09:14:08.000Z</time>
        <extensions>
          <ns3:TrackPointExtension>
            <ns3:hr>135</ns3:hr>
            <ns3:cad>90</ns3:cad>
          </ns3:TrackPointExtension>
        </extensions>
      </trkpt>
      <trkpt lat="43.83486374281346797943115234375" lon="4.26271115429699420928955078125">
        <ele>154.600006103515625</ele>
        <time>2024-01-27T09:14:09.000Z</time>
        <extensions>
          <ns3:TrackPointExtension>
            <ns3:hr>135</ns3:hr>
            <ns3:cad>92</ns3:cad>
          </ns3:TrackPointExtension>
        </extensions>
      </trkpt>
      <trkpt lat="43.8348805904388427734375" lon="4.26271584816277027130126953125">
        <ele>154.8000030517578125</ele>
        <time>2024-01-27T09:14:10.000Z</time>
        <extensions>
          <ns3:TrackPointExtension>
            <ns3:hr>135</ns3:hr>
            <ns3:cad>92</ns3:cad>
          </ns3:TrackPointExtension>
        </extensions>
      </trkpt>
      <trkpt lat="43.834897018969058990478515625" lon="4.26271609961986541748046875">
        <ele>155</ele>
        <time>2024-01-27T09:14:11.000Z</time>
        <extensions>
          <ns3:TrackPointExtension>
            <ns3:hr>135</ns3:hr>
            <ns3:cad>92</ns3:cad>
          </ns3:TrackPointExtension>
        </extensions>
      </trkpt>
      <trkpt lat="43.834919817745685577392578125" lon="4.26271316595375537872314453125">
        <ele>155.399993896484375</ele>
        <time>2024-01-27T09:14:12.000Z</time>
        <extensions>
          <ns3:TrackPointExtension>
            <ns3:hr>135</ns3:hr>
            <ns3:cad>92</ns3:cad>
          </ns3:TrackPointExtension>
        </extensions>
      </trkpt>
      <trkpt lat="43.83493934758007526397705078125" lon="4.2627115733921527862548828125">
        <ele>155.600006103515625</ele>
        <time>2024-01-27T09:14:13.000Z</time>
        <extensions>
          <ns3:TrackPointExtension>
            <ns3:hr>135</ns3:hr>
            <ns3:cad>92</ns3:cad>
          </ns3:TrackPointExtension>
        </extensions>
      </trkpt>
      <trkpt lat="43.8349622301757335662841796875" lon="4.262708723545074462890625">
        <ele>155.600006103515625</ele>
        <time>2024-01-27T09:14:14.000Z</time>
        <extensions>
          <ns3:TrackPointExtension>
            <ns3:hr>135</ns3:hr>
            <ns3:cad>92</ns3:cad>
          </ns3:TrackPointExtension>
        </extensions>
      </trkpt>
      <trkpt lat="43.83498578332364559173583984375" lon="4.2627052031457424163818359375">
        <ele>155.600006103515625</ele>
        <time>2024-01-27T09:14:15.000Z</time>
        <extensions>
          <ns3:TrackPointExtension>
            <ns3:hr>135</ns3:hr>
            <ns3:cad>92</ns3:cad>
          </ns3:TrackPointExtension>
        </extensions>
      </trkpt>
      <trkpt lat="43.8350121863186359405517578125" lon="4.26270796917378902435302734375">
        <ele>155.8000030517578125</ele>
        <time>2024-01-27T09:14:16.000Z</time>
        <extensions>
          <ns3:TrackPointExtension>
            <ns3:hr>135</ns3:hr>
            <ns3:cad>90</ns3:cad>
          </ns3:TrackPointExtension>
        </extensions>
      </trkpt>
      <trkpt lat="43.8350336439907550811767578125" lon="4.2627048678696155548095703125">
        <ele>155.8000030517578125</ele>
        <time>2024-01-27T09:14:17.000Z</time>
        <extensions>
          <ns3:TrackPointExtension>
            <ns3:hr>135</ns3:hr>
            <ns3:cad>90</ns3:cad>
          </ns3:TrackPointExtension>
        </extensions>
      </trkpt>
      <trkpt lat="43.83505669422447681427001953125" lon="4.26270528696477413177490234375">
        <ele>155.8000030517578125</ele>
        <time>2024-01-27T09:14:18.000Z</time>
        <extensions>
          <ns3:TrackPointExtension>
            <ns3:hr>135</ns3:hr>
            <ns3:cad>90</ns3:cad>
          </ns3:TrackPointExtension>
        </extensions>
      </trkpt>
      <trkpt lat="43.8350772298872470855712890625" lon="4.26270243711769580841064453125">
        <ele>155.8000030517578125</ele>
        <time>2024-01-27T09:14:19.000Z</time>
        <extensions>
          <ns3:TrackPointExtension>
            <ns3:hr>135</ns3:hr>
            <ns3:cad>90</ns3:cad>
          </ns3:TrackPointExtension>
        </extensions>
      </trkpt>
      <trkpt lat="43.83509793318808078765869140625" lon="4.26270243711769580841064453125">
        <ele>156</ele>
        <time>2024-01-27T09:14:20.000Z</time>
        <extensions>
          <ns3:TrackPointExtension>
            <ns3:hr>135</ns3:hr>
            <ns3:cad>91</ns3:cad>
          </ns3:TrackPointExtension>
        </extensions>
      </trkpt>
      <trkpt lat="43.8351157866418361663818359375" lon="4.2626993358135223388671875">
        <ele>156</ele>
        <time>2024-01-27T09:14:21.000Z</time>
        <extensions>
          <ns3:TrackPointExtension>
            <ns3:hr>135</ns3:hr>
            <ns3:cad>92</ns3:cad>
          </ns3:TrackPointExtension>
        </extensions>
      </trkpt>
      <trkpt lat="43.83513548411428928375244140625" lon="4.2627005092799663543701171875">
        <ele>156.1999969482421875</ele>
        <time>2024-01-27T09:14:22.000Z</time>
        <extensions>
          <ns3:TrackPointExtension>
            <ns3:hr>135</ns3:hr>
            <ns3:cad>92</ns3:cad>
          </ns3:TrackPointExtension>
        </extensions>
      </trkpt>
      <trkpt lat="43.8351566903293132781982421875" lon="4.26270210184156894683837890625">
        <ele>156.1999969482421875</ele>
        <time>2024-01-27T09:14:23.000Z</time>
        <extensions>
          <ns3:TrackPointExtension>
            <ns3:hr>135</ns3:hr>
            <ns3:cad>92</ns3:cad>
          </ns3:TrackPointExtension>
        </extensions>
      </trkpt>
      <trkpt lat="43.8351788185536861419677734375" lon="4.26270981319248676300048828125">
        <ele>156.399993896484375</ele>
        <time>2024-01-27T09:14:24.000Z</time>
        <extensions>
          <ns3:TrackPointExtension>
            <ns3:hr>135</ns3:hr>
            <ns3:cad>92</ns3:cad>
          </ns3:TrackPointExtension>
        </extensions>
      </trkpt>
      <trkpt lat="43.83519734255969524383544921875" lon="4.2627078853547573089599609375">
        <ele>156.600006103515625</ele>
        <time>2024-01-27T09:14:25.000Z</time>
        <extensions>
          <ns3:TrackPointExtension>
            <ns3:hr>135</ns3:hr>
            <ns3:cad>92</ns3:cad>
          </ns3:TrackPointExtension>
        </extensions>
      </trkpt>
      <trkpt lat="43.8352180458605289459228515625" lon="4.26271140575408935546875">
        <ele>156.8000030517578125</ele>
        <time>2024-01-27T09:14:26.000Z</time>
        <extensions>
          <ns3:TrackPointExtension>
            <ns3:hr>135</ns3:hr>
            <ns3:cad>91</ns3:cad>
          </ns3:TrackPointExtension>
        </extensions>
      </trkpt>
      <trkpt lat="43.835236988961696624755859375" lon="4.26270939409732818603515625">
        <ele>157</ele>
        <time>2024-01-27T09:14:27.000Z</time>
        <extensions>
          <ns3:TrackPointExtension>
            <ns3:hr>136</ns3:hr>
            <ns3:cad>90</ns3:cad>
          </ns3:TrackPointExtension>
        </extensions>
      </trkpt>
      <trkpt lat="43.835257776081562042236328125" lon="4.2627109028398990631103515625">
        <ele>157.1999969482421875</ele>
        <time>2024-01-27T09:14:28.000Z</time>
        <extensions>
          <ns3:TrackPointExtension>
            <ns3:hr>136</ns3:hr>
            <ns3:cad>90</ns3:cad>
          </ns3:TrackPointExtension>
        </extensions>
      </trkpt>
      <trkpt lat="43.83528132922947406768798828125" lon="4.26270939409732818603515625">
        <ele>157.1999969482421875</ele>
        <time>2024-01-27T09:14:29.000Z</time>
        <extensions>
          <ns3:TrackPointExtension>
            <ns3:hr>136</ns3:hr>
            <ns3:cad>90</ns3:cad>
          </ns3:TrackPointExtension>
        </extensions>
      </trkpt>
      <trkpt lat="43.835301697254180908203125" lon="4.262709058821201324462890625">
        <ele>157.1999969482421875</ele>
        <time>2024-01-27T09:14:30.000Z</time>
        <extensions>
          <ns3:TrackPointExtension>
            <ns3:hr>136</ns3:hr>
            <ns3:cad>90</ns3:cad>
          </ns3:TrackPointExtension>
        </extensions>
      </trkpt>
      <trkpt lat="43.83532072417438030242919921875" lon="4.26270562224090099334716796875">
        <ele>157.399993896484375</ele>
        <time>2024-01-27T09:14:31.000Z</time>
        <extensions>
          <ns3:TrackPointExtension>
            <ns3:hr>136</ns3:hr>
            <ns3:cad>90</ns3:cad>
          </ns3:TrackPointExtension>
        </extensions>
      </trkpt>
      <trkpt lat="43.8353405892848968505859375" lon="4.26270377822220325469970703125">
        <ele>157.399993896484375</ele>
        <time>2024-01-27T09:14:32.000Z</time>
        <extensions>
          <ns3:TrackPointExtension>
            <ns3:hr>136</ns3:hr>
            <ns3:cad>91</ns3:cad>
          </ns3:TrackPointExtension>
        </extensions>
      </trkpt>
      <trkpt lat="43.83536045439541339874267578125" lon="4.26270176656544208526611328125">
        <ele>157.600006103515625</ele>
        <time>2024-01-27T09:14:33.000Z</time>
        <extensions>
          <ns3:TrackPointExtension>
            <ns3:hr>136</ns3:hr>
            <ns3:cad>93</ns3:cad>
          </ns3:TrackPointExtension>
        </extensions>
      </trkpt>
      <trkpt lat="43.83537570945918560028076171875" lon="4.26269908435642719268798828125">
        <ele>157.600006103515625</ele>
        <time>2024-01-27T09:14:34.000Z</time>
        <extensions>
          <ns3:TrackPointExtension>
            <ns3:hr>136</ns3:hr>
            <ns3:cad>93</ns3:cad>
          </ns3:TrackPointExtension>
        </extensions>
      </trkpt>
      <trkpt lat="43.83539264090359210968017578125" lon="4.26269858144223690032958984375">
        <ele>157.8000030517578125</ele>
        <time>2024-01-27T09:14:35.000Z</time>
        <extensions>
          <ns3:TrackPointExtension>
            <ns3:hr>136</ns3:hr>
            <ns3:cad>93</ns3:cad>
          </ns3:TrackPointExtension>
        </extensions>
      </trkpt>
      <trkpt lat="43.83540856651961803436279296875" lon="4.2626984976232051849365234375">
        <ele>158</ele>
        <time>2024-01-27T09:14:36.000Z</time>
        <extensions>
          <ns3:TrackPointExtension>
            <ns3:hr>136</ns3:hr>
            <ns3:cad>92</ns3:cad>
          </ns3:TrackPointExtension>
        </extensions>
      </trkpt>
      <trkpt lat="43.83543136529624462127685546875" lon="4.26269271411001682281494140625">
        <ele>158.399993896484375</ele>
        <time>2024-01-27T09:14:37.000Z</time>
        <extensions>
          <ns3:TrackPointExtension>
            <ns3:hr>136</ns3:hr>
            <ns3:cad>92</ns3:cad>
          </ns3:TrackPointExtension>
        </extensions>
      </trkpt>
      <trkpt lat="43.83544762618839740753173828125" lon="4.26268533803522586822509765625">
        <ele>158.399993896484375</ele>
        <time>2024-01-27T09:14:38.000Z</time>
        <extensions>
          <ns3:TrackPointExtension>
            <ns3:hr>136</ns3:hr>
            <ns3:cad>92</ns3:cad>
          </ns3:TrackPointExtension>
        </extensions>
      </trkpt>
      <trkpt lat="43.8354674912989139556884765625" lon="4.26268097944557666778564453125">
        <ele>158.600006103515625</ele>
        <time>2024-01-27T09:14:39.000Z</time>
        <extensions>
          <ns3:TrackPointExtension>
            <ns3:hr>135</ns3:hr>
            <ns3:cad>92</ns3:cad>
          </ns3:TrackPointExtension>
        </extensions>
      </trkpt>
      <trkpt lat="43.83548450656235218048095703125" lon="4.26267662085592746734619140625">
        <ele>159</ele>
        <time>2024-01-27T09:14:40.000Z</time>
        <extensions>
          <ns3:TrackPointExtension>
            <ns3:hr>135</ns3:hr>
            <ns3:cad>92</ns3:cad>
          </ns3:TrackPointExtension>
        </extensions>
      </trkpt>
      <trkpt lat="43.83551401086151599884033203125" lon="4.2626686580479145050048828125">
        <ele>159.1999969482421875</ele>
        <time>2024-01-27T09:14:41.000Z</time>
        <extensions>
          <ns3:TrackPointExtension>
            <ns3:hr>136</ns3:hr>
            <ns3:cad>92</ns3:cad>
          </ns3:TrackPointExtension>
        </extensions>
      </trkpt>
      <trkpt lat="43.8355328701436519622802734375" lon="4.262664802372455596923828125">
        <ele>159.399993896484375</ele>
        <time>2024-01-27T09:14:42.000Z</time>
        <extensions>
          <ns3:TrackPointExtension>
            <ns3:hr>136</ns3:hr>
            <ns3:cad>92</ns3:cad>
          </ns3:TrackPointExtension>
        </extensions>
      </trkpt>
      <trkpt lat="43.83555776439607143402099609375" lon="4.26265952177345752716064453125">
        <ele>159.600006103515625</ele>
        <time>2024-01-27T09:14:43.000Z</time>
        <extensions>
          <ns3:TrackPointExtension>
            <ns3:hr>136</ns3:hr>
            <ns3:cad>92</ns3:cad>
          </ns3:TrackPointExtension>
        </extensions>
      </trkpt>
      <trkpt lat="43.8355774618685245513916015625" lon="4.26265466026961803436279296875">
        <ele>159.600006103515625</ele>
        <time>2024-01-27T09:14:44.000Z</time>
        <extensions>
          <ns3:TrackPointExtension>
            <ns3:hr>136</ns3:hr>
            <ns3:cad>92</ns3:cad>
          </ns3:TrackPointExtension>
        </extensions>
      </trkpt>
      <trkpt lat="43.835598416626453399658203125" lon="4.26264862529933452606201171875">
        <ele>159.600006103515625</ele>
        <time>2024-01-27T09:14:45.000Z</time>
        <extensions>
          <ns3:TrackPointExtension>
            <ns3:hr>137</ns3:hr>
            <ns3:cad>92</ns3:cad>
          </ns3:TrackPointExtension>
        </extensions>
      </trkpt>
      <trkpt lat="43.835615180432796478271484375" lon="4.262644350528717041015625">
        <ele>159.8000030517578125</ele>
        <time>2024-01-27T09:14:46.000Z</time>
        <extensions>
          <ns3:TrackPointExtension>
            <ns3:hr>137</ns3:hr>
            <ns3:cad>92</ns3:cad>
          </ns3:TrackPointExtension>
        </extensions>
      </trkpt>
      <trkpt lat="43.83563437499105930328369140625" lon="4.26264124922454357147216796875">
        <ele>160</ele>
        <time>2024-01-27T09:14:47.000Z</time>
        <extensions>
          <ns3:TrackPointExtension>
            <ns3:hr>137</ns3:hr>
            <ns3:cad>92</ns3:cad>
          </ns3:TrackPointExtension>
        </extensions>
      </trkpt>
      <trkpt lat="43.8356512226164340972900390625" lon="4.26263571716845035552978515625">
        <ele>160</ele>
        <time>2024-01-27T09:14:48.000Z</time>
        <extensions>
          <ns3:TrackPointExtension>
            <ns3:hr>137</ns3:hr>
            <ns3:cad>91</ns3:cad>
          </ns3:TrackPointExtension>
        </extensions>
      </trkpt>
      <trkpt lat="43.8356689922511577606201171875" lon="4.26263085566461086273193359375">
        <ele>160.1999969482421875</ele>
        <time>2024-01-27T09:14:49.000Z</time>
        <extensions>
          <ns3:TrackPointExtension>
            <ns3:hr>137</ns3:hr>
            <ns3:cad>91</ns3:cad>
          </ns3:TrackPointExtension>
        </extensions>
      </trkpt>
      <trkpt lat="43.8356847502291202545166015625" lon="4.26262197084724903106689453125">
        <ele>160.399993896484375</ele>
        <time>2024-01-27T09:14:50.000Z</time>
        <extensions>
          <ns3:TrackPointExtension>
            <ns3:hr>138</ns3:hr>
            <ns3:cad>91</ns3:cad>
          </ns3:TrackPointExtension>
        </extensions>
      </trkpt>
      <trkpt lat="43.8357028551399707794189453125" lon="4.2626079730689525604248046875">
        <ele>160.600006103515625</ele>
        <time>2024-01-27T09:14:51.000Z</time>
        <extensions>
          <ns3:TrackPointExtension>
            <ns3:hr>138</ns3:hr>
            <ns3:cad>90</ns3:cad>
          </ns3:TrackPointExtension>
        </extensions>
      </trkpt>
      <trkpt lat="43.83571869693696498870849609375" lon="4.2625952325761318206787109375">
        <ele>160.600006103515625</ele>
        <time>2024-01-27T09:14:52.000Z</time>
        <extensions>
          <ns3:TrackPointExtension>
            <ns3:hr>139</ns3:hr>
            <ns3:cad>90</ns3:cad>
          </ns3:TrackPointExtension>
        </extensions>
      </trkpt>
      <trkpt lat="43.83573378436267375946044921875" lon="4.26257486455142498016357421875">
        <ele>160.8000030517578125</ele>
        <time>2024-01-27T09:14:53.000Z</time>
        <extensions>
          <ns3:TrackPointExtension>
            <ns3:hr>139</ns3:hr>
            <ns3:cad>90</ns3:cad>
          </ns3:TrackPointExtension>
        </extensions>
      </trkpt>
      <trkpt lat="43.83574493229389190673828125" lon="4.26255784928798675537109375">
        <ele>161</ele>
        <time>2024-01-27T09:14:54.000Z</time>
        <extensions>
          <ns3:TrackPointExtension>
            <ns3:hr>139</ns3:hr>
            <ns3:cad>89</ns3:cad>
          </ns3:TrackPointExtension>
        </extensions>
      </trkpt>
      <trkpt lat="43.83576211519539356231689453125" lon="4.26253278739750385284423828125">
        <ele>161</ele>
        <time>2024-01-27T09:14:55.000Z</time>
        <extensions>
          <ns3:TrackPointExtension>
            <ns3:hr>139</ns3:hr>
            <ns3:cad>89</ns3:cad>
          </ns3:TrackPointExtension>
        </extensions>
      </trkpt>
      <trkpt lat="43.83577443659305572509765625" lon="4.2625134252011775970458984375">
        <ele>161</ele>
        <time>2024-01-27T09:14:56.000Z</time>
        <extensions>
          <ns3:TrackPointExtension>
            <ns3:hr>139</ns3:hr>
            <ns3:cad>88</ns3:cad>
          </ns3:TrackPointExtension>
        </extensions>
      </trkpt>
      <trkpt lat="43.835788182914257049560546875" lon="4.262494146823883056640625">
        <ele>161</ele>
        <time>2024-01-27T09:14:57.000Z</time>
        <extensions>
          <ns3:TrackPointExtension>
            <ns3:hr>139</ns3:hr>
            <ns3:cad>88</ns3:cad>
          </ns3:TrackPointExtension>
        </extensions>
      </trkpt>
      <trkpt lat="43.83579916320741176605224609375" lon="4.2624752037227153778076171875">
        <ele>160.8000030517578125</ele>
        <time>2024-01-27T09:14:58.000Z</time>
        <extensions>
          <ns3:TrackPointExtension>
            <ns3:hr>139</ns3:hr>
            <ns3:cad>88</ns3:cad>
          </ns3:TrackPointExtension>
        </extensions>
      </trkpt>
      <trkpt lat="43.83581198751926422119140625" lon="4.26245885901153087615966796875">
        <ele>160.8000030517578125</ele>
        <time>2024-01-27T09:14:59.000Z</time>
        <extensions>
          <ns3:TrackPointExtension>
            <ns3:hr>139</ns3:hr>
            <ns3:cad>90</ns3:cad>
          </ns3:TrackPointExtension>
        </extensions>
      </trkpt>
      <trkpt lat="43.835823051631450653076171875" lon="4.26244117319583892822265625">
        <ele>160.8000030517578125</ele>
        <time>2024-01-27T09:15:00.000Z</time>
        <extensions>
          <ns3:TrackPointExtension>
            <ns3:hr>139</ns3:hr>
            <ns3:cad>91</ns3:cad>
          </ns3:TrackPointExtension>
        </extensions>
      </trkpt>
      <trkpt lat="43.83584056980907917022705078125" lon="4.26241309382021427154541015625">
        <ele>160.8000030517578125</ele>
        <time>2024-01-27T09:15:01.000Z</time>
        <extensions>
          <ns3:TrackPointExtension>
            <ns3:hr>139</ns3:hr>
            <ns3:cad>92</ns3:cad>
          </ns3:TrackPointExtension>
        </extensions>
      </trkpt>
      <trkpt lat="43.83585632778704166412353515625" lon="4.262389875948429107666015625">
        <ele>160.8000030517578125</ele>
        <time>2024-01-27T09:15:02.000Z</time>
        <extensions>
          <ns3:TrackPointExtension>
            <ns3:hr>139</ns3:hr>
            <ns3:cad>93</ns3:cad>
          </ns3:TrackPointExtension>
        </extensions>
      </trkpt>
      <trkpt lat="43.83587376214563846588134765625" lon="4.2623746208846569061279296875">
        <ele>160.8000030517578125</ele>
        <time>2024-01-27T09:15:03.000Z</time>
        <extensions>
          <ns3:TrackPointExtension>
            <ns3:hr>139</ns3:hr>
            <ns3:cad>93</ns3:cad>
          </ns3:TrackPointExtension>
        </extensions>
      </trkpt>
      <trkpt lat="43.8358942978084087371826171875" lon="4.26236330531537532806396484375">
        <ele>161</ele>
        <time>2024-01-27T09:15:04.000Z</time>
        <extensions>
          <ns3:TrackPointExtension>
            <ns3:hr>139</ns3:hr>
            <ns3:cad>92</ns3:cad>
          </ns3:TrackPointExtension>
        </extensions>
      </trkpt>
      <trkpt lat="43.8359160907566547393798828125" lon="4.26235534250736236572265625">
        <ele>161</ele>
        <time>2024-01-27T09:15:05.000Z</time>
        <extensions>
          <ns3:TrackPointExtension>
            <ns3:hr>139</ns3:hr>
            <ns3:cad>92</ns3:cad>
          </ns3:TrackPointExtension>
        </extensions>
      </trkpt>
      <trkpt lat="43.835943080484867095947265625" lon="4.262353666126728057861328125">
        <ele>161</ele>
        <time>2024-01-27T09:15:06.000Z</time>
        <extensions>
          <ns3:TrackPointExtension>
            <ns3:hr>139</ns3:hr>
            <ns3:cad>93</ns3:cad>
          </ns3:TrackPointExtension>
        </extensions>
      </trkpt>
      <trkpt lat="43.8359690643846988677978515625" lon="4.262365736067295074462890625">
        <ele>161</ele>
        <time>2024-01-27T09:15:07.000Z</time>
        <extensions>
          <ns3:TrackPointExtension>
            <ns3:hr>139</ns3:hr>
            <ns3:cad>93</ns3:cad>
          </ns3:TrackPointExtension>
        </extensions>
      </trkpt>
      <trkpt lat="43.8359968923032283782958984375" lon="4.26237772218883037567138671875">
        <ele>161</ele>
        <time>2024-01-27T09:15:08.000Z</time>
        <extensions>
          <ns3:TrackPointExtension>
            <ns3:hr>139</ns3:hr>
            <ns3:cad>93</ns3:cad>
          </ns3:TrackPointExtension>
        </extensions>
      </trkpt>
      <trkpt lat="43.83602195419371128082275390625" lon="4.262386858463287353515625">
        <ele>161</ele>
        <time>2024-01-27T09:15:09.000Z</time>
        <extensions>
          <ns3:TrackPointExtension>
            <ns3:hr>139</ns3:hr>
            <ns3:cad>93</ns3:cad>
          </ns3:TrackPointExtension>
        </extensions>
      </trkpt>
      <trkpt lat="43.836050368845462799072265625" lon="4.26239247433841228485107421875">
        <ele>161.1999969482421875</ele>
        <time>2024-01-27T09:15:10.000Z</time>
        <extensions>
          <ns3:TrackPointExtension>
            <ns3:hr>139</ns3:hr>
            <ns3:cad>93</ns3:cad>
          </ns3:TrackPointExtension>
        </extensions>
      </trkpt>
      <trkpt lat="43.83607241325080394744873046875" lon="4.26239423453807830810546875">
        <ele>161.399993896484375</ele>
        <time>2024-01-27T09:15:11.000Z</time>
        <extensions>
          <ns3:TrackPointExtension>
            <ns3:hr>139</ns3:hr>
            <ns3:cad>93</ns3:cad>
          </ns3:TrackPointExtension>
        </extensions>
      </trkpt>
      <trkpt lat="43.83610107935965061187744140625" lon="4.262397252023220062255859375">
        <ele>161.600006103515625</ele>
        <time>2024-01-27T09:15:12.000Z</time>
        <extensions>
          <ns3:TrackPointExtension>
            <ns3:hr>139</ns3:hr>
            <ns3:cad>93</ns3:cad>
          </ns3:TrackPointExtension>
        </extensions>
      </trkpt>
      <trkpt lat="43.8361253030598163604736328125" lon="4.26239917986094951629638671875">
        <ele>161.600006103515625</ele>
        <time>2024-01-27T09:15:13.000Z</time>
        <extensions>
          <ns3:TrackPointExtension>
            <ns3:hr>139</ns3:hr>
            <ns3:cad>93</ns3:cad>
          </ns3:TrackPointExtension>
        </extensions>
      </trkpt>
      <trkpt lat="43.83615170605480670928955078125" lon="4.262394569814205169677734375">
        <ele>161.8000030517578125</ele>
        <time>2024-01-27T09:15:14.000Z</time>
        <extensions>
          <ns3:TrackPointExtension>
            <ns3:hr>139</ns3:hr>
            <ns3:cad>92</ns3:cad>
          </ns3:TrackPointExtension>
        </extensions>
      </trkpt>
      <trkpt lat="43.8361752592027187347412109375" lon="4.26239146851003170013427734375">
        <ele>161.8000030517578125</ele>
        <time>2024-01-27T09:15:15.000Z</time>
        <extensions>
          <ns3:TrackPointExtension>
            <ns3:hr>139</ns3:hr>
            <ns3:cad>92</ns3:cad>
          </ns3:TrackPointExtension>
        </extensions>
      </trkpt>
      <trkpt lat="43.83620065636932849884033203125" lon="4.26238845102488994598388671875">
        <ele>161.8000030517578125</ele>
        <time>2024-01-27T09:15:16.000Z</time>
        <extensions>
          <ns3:TrackPointExtension>
            <ns3:hr>139</ns3:hr>
            <ns3:cad>90</ns3:cad>
          </ns3:TrackPointExtension>
        </extensions>
      </trkpt>
      <trkpt lat="43.83622278459370136260986328125" lon="4.262387193739414215087890625">
        <ele>161.8000030517578125</ele>
        <time>2024-01-27T09:15:17.000Z</time>
        <extensions>
          <ns3:TrackPointExtension>
            <ns3:hr>139</ns3:hr>
            <ns3:cad>90</ns3:cad>
          </ns3:TrackPointExtension>
        </extensions>
      </trkpt>
      <trkpt lat="43.83625245653092861175537109375" lon="4.262385182082653045654296875">
        <ele>161.600006103515625</ele>
        <time>2024-01-27T09:15:18.000Z</time>
        <extensions>
          <ns3:TrackPointExtension>
            <ns3:hr>139</ns3:hr>
            <ns3:cad>90</ns3:cad>
          </ns3:TrackPointExtension>
        </extensions>
      </trkpt>
      <trkpt lat="43.83627735078334808349609375" lon="4.26238576881587505340576171875">
        <ele>161.600006103515625</ele>
        <time>2024-01-27T09:15:19.000Z</time>
        <extensions>
          <ns3:TrackPointExtension>
            <ns3:hr>138</ns3:hr>
            <ns3:cad>89</ns3:cad>
          </ns3:TrackPointExtension>
        </extensions>
      </trkpt>
      <trkpt lat="43.83631012402474880218505859375" lon="4.262397922575473785400390625">
        <ele>161.600006103515625</ele>
        <time>2024-01-27T09:15:20.000Z</time>
        <extensions>
          <ns3:TrackPointExtension>
            <ns3:hr>138</ns3:hr>
            <ns3:cad>89</ns3:cad>
          </ns3:TrackPointExtension>
        </extensions>
      </trkpt>
      <trkpt lat="43.83633174933493137359619140625" lon="4.26240756176412105560302734375">
        <ele>161.600006103515625</ele>
        <time>2024-01-27T09:15:21.000Z</time>
        <extensions>
          <ns3:TrackPointExtension>
            <ns3:hr>138</ns3:hr>
            <ns3:cad>89</ns3:cad>
          </ns3:TrackPointExtension>
        </extensions>
      </trkpt>
      <trkpt lat="43.83635605685412883758544921875" lon="4.262422062456607818603515625">
        <ele>161.600006103515625</ele>
        <time>2024-01-27T09:15:22.000Z</time>
        <extensions>
          <ns3:TrackPointExtension>
            <ns3:hr>138</ns3:hr>
            <ns3:cad>90</ns3:cad>
          </ns3:TrackPointExtension>
        </extensions>
      </trkpt>
      <trkpt lat="43.83637701161205768585205078125" lon="4.26242834888398647308349609375">
        <ele>161.600006103515625</ele>
        <time>2024-01-27T09:15:23.000Z</time>
        <extensions>
          <ns3:TrackPointExtension>
            <ns3:hr>138</ns3:hr>
            <ns3:cad>90</ns3:cad>
          </ns3:TrackPointExtension>
        </extensions>
      </trkpt>
      <trkpt lat="43.83640341460704803466796875" lon="4.2624369822442531585693359375">
        <ele>161.600006103515625</ele>
        <time>2024-01-27T09:15:24.000Z</time>
        <extensions>
          <ns3:TrackPointExtension>
            <ns3:hr>138</ns3:hr>
            <ns3:cad>92</ns3:cad>
          </ns3:TrackPointExtension>
        </extensions>
      </trkpt>
      <trkpt lat="43.83642277680337429046630859375" lon="4.26244377158582210540771484375">
        <ele>161.600006103515625</ele>
        <time>2024-01-27T09:15:25.000Z</time>
        <extensions>
          <ns3:TrackPointExtension>
            <ns3:hr>137</ns3:hr>
            <ns3:cad>92</ns3:cad>
          </ns3:TrackPointExtension>
        </extensions>
      </trkpt>
      <trkpt lat="43.83644255809485912322998046875" lon="4.2624570988118648529052734375">
        <ele>161.600006103515625</ele>
        <time>2024-01-27T09:15:26.000Z</time>
        <extensions>
          <ns3:TrackPointExtension>
            <ns3:hr>137</ns3:hr>
            <ns3:cad>92</ns3:cad>
          </ns3:TrackPointExtension>
        </extensions>
      </trkpt>
      <trkpt lat="43.8364617526531219482421875" lon="4.26247277297079563140869140625">
        <ele>161.8000030517578125</ele>
        <time>2024-01-27T09:15:27.000Z</time>
        <extensions>
          <ns3:TrackPointExtension>
            <ns3:hr>137</ns3:hr>
            <ns3:cad>92</ns3:cad>
          </ns3:TrackPointExtension>
        </extensions>
      </trkpt>
      <trkpt lat="43.8364806957542896270751953125" lon="4.2624901235103607177734375">
        <ele>161.8000030517578125</ele>
        <time>2024-01-27T09:15:28.000Z</time>
        <extensions>
          <ns3:TrackPointExtension>
            <ns3:hr>136</ns3:hr>
            <ns3:cad>91</ns3:cad>
          </ns3:TrackPointExtension>
        </extensions>
      </trkpt>
      <trkpt lat="43.836499638855457305908203125" lon="4.2625043727457523345947265625">
        <ele>161.8000030517578125</ele>
        <time>2024-01-27T09:15:29.000Z</time>
        <extensions>
          <ns3:TrackPointExtension>
            <ns3:hr>135</ns3:hr>
            <ns3:cad>91</ns3:cad>
          </ns3:TrackPointExtension>
        </extensions>
      </trkpt>
      <trkpt lat="43.83651598356664180755615234375" lon="4.2625214718282222747802734375">
        <ele>161.8000030517578125</ele>
        <time>2024-01-27T09:15:30.000Z</time>
        <extensions>
          <ns3:TrackPointExtension>
            <ns3:hr>134</ns3:hr>
            <ns3:cad>91</ns3:cad>
          </ns3:TrackPointExtension>
        </extensions>
      </trkpt>
      <trkpt lat="43.8365329988300800323486328125" lon="4.262532703578472137451171875">
        <ele>162</ele>
        <time>2024-01-27T09:15:31.000Z</time>
        <extensions>
          <ns3:TrackPointExtension>
            <ns3:hr>133</ns3:hr>
            <ns3:cad>91</ns3:cad>
          </ns3:TrackPointExtension>
        </extensions>
      </trkpt>
      <trkpt lat="43.836549930274486541748046875" lon="4.26254955120384693145751953125">
        <ele>162.1999969482421875</ele>
        <time>2024-01-27T09:15:32.000Z</time>
        <extensions>
          <ns3:TrackPointExtension>
            <ns3:hr>132</ns3:hr>
            <ns3:cad>91</ns3:cad>
          </ns3:TrackPointExtension>
        </extensions>
      </trkpt>
      <trkpt lat="43.836568035185337066650390625" lon="4.26256748847663402557373046875">
        <ele>162.1999969482421875</ele>
        <time>2024-01-27T09:15:33.000Z</time>
        <extensions>
          <ns3:TrackPointExtension>
            <ns3:hr>131</ns3:hr>
            <ns3:cad>92</ns3:cad>
          </ns3:TrackPointExtension>
        </extensions>
      </trkpt>
      <trkpt lat="43.83658639155328273773193359375" lon="4.2625868506729602813720703125">
        <ele>162.1999969482421875</ele>
        <time>2024-01-27T09:15:34.000Z</time>
        <extensions>
          <ns3:TrackPointExtension>
            <ns3:hr>131</ns3:hr>
            <ns3:cad>92</ns3:cad>
          </ns3:TrackPointExtension>
        </extensions>
      </trkpt>
      <trkpt lat="43.8366044126451015472412109375" lon="4.26260076463222503662109375">
        <ele>162.399993896484375</ele>
        <time>2024-01-27T09:15:35.000Z</time>
        <extensions>
          <ns3:TrackPointExtension>
            <ns3:hr>131</ns3:hr>
            <ns3:cad>92</ns3:cad>
          </ns3:TrackPointExtension>
        </extensions>
      </trkpt>
      <trkpt lat="43.8366215117275714874267578125" lon="4.26261258311569690704345703125">
        <ele>162.399993896484375</ele>
        <time>2024-01-27T09:15:36.000Z</time>
        <extensions>
          <ns3:TrackPointExtension>
            <ns3:hr>131</ns3:hr>
            <ns3:cad>90</ns3:cad>
          </ns3:TrackPointExtension>
        </extensions>
      </trkpt>
      <trkpt lat="43.8366399519145488739013671875" lon="4.26261576823890209197998046875">
        <ele>162.399993896484375</ele>
        <time>2024-01-27T09:15:37.000Z</time>
        <extensions>
          <ns3:TrackPointExtension>
            <ns3:hr>131</ns3:hr>
            <ns3:cad>90</ns3:cad>
          </ns3:TrackPointExtension>
        </extensions>
      </trkpt>
      <trkpt lat="43.8366573862731456756591796875" lon="4.26261484622955322265625">
        <ele>162.399993896484375</ele>
        <time>2024-01-27T09:15:38.000Z</time>
        <extensions>
          <ns3:TrackPointExtension>
            <ns3:hr>131</ns3:hr>
            <ns3:cad>89</ns3:cad>
          </ns3:TrackPointExtension>
        </extensions>
      </trkpt>
      <trkpt lat="43.8366751559078693389892578125" lon="4.2626096494495868682861328125">
        <ele>162.399993896484375</ele>
        <time>2024-01-27T09:15:39.000Z</time>
        <extensions>
          <ns3:TrackPointExtension>
            <ns3:hr>131</ns3:hr>
            <ns3:cad>89</ns3:cad>
          </ns3:TrackPointExtension>
        </extensions>
      </trkpt>
      <trkpt lat="43.8366996310651302337646484375" lon="4.262602441012859344482421875">
        <ele>162.399993896484375</ele>
        <time>2024-01-27T09:15:40.000Z</time>
        <extensions>
          <ns3:TrackPointExtension>
            <ns3:hr>130</ns3:hr>
            <ns3:cad>89</ns3:cad>
          </ns3:TrackPointExtension>
        </extensions>
      </trkpt>
      <trkpt lat="43.83671413175761699676513671875" lon="4.2625955678522586822509765625">
        <ele>162.399993896484375</ele>
        <time>2024-01-27T09:15:41.000Z</time>
        <extensions>
          <ns3:TrackPointExtension>
            <ns3:hr>130</ns3:hr>
            <ns3:cad>89</ns3:cad>
          </ns3:TrackPointExtension>
        </extensions>
      </trkpt>
      <trkpt lat="43.8367348350584506988525390625" lon="4.26258408464491367340087890625">
        <ele>162.399993896484375</ele>
        <time>2024-01-27T09:15:42.000Z</time>
        <extensions>
          <ns3:TrackPointExtension>
            <ns3:hr>130</ns3:hr>
            <ns3:cad>89</ns3:cad>
          </ns3:TrackPointExtension>
        </extensions>
      </trkpt>
      <trkpt lat="43.8367566280066967010498046875" lon="4.26257570274174213409423828125">
        <ele>162.399993896484375</ele>
        <time>2024-01-27T09:15:43.000Z</time>
        <extensions>
          <ns3:TrackPointExtension>
            <ns3:hr>130</ns3:hr>
            <ns3:cad>88</ns3:cad>
          </ns3:TrackPointExtension>
        </extensions>
      </trkpt>
      <trkpt lat="43.83678420446813106536865234375" lon="4.26257134415209293365478515625">
        <ele>162.1999969482421875</ele>
        <time>2024-01-27T09:15:44.000Z</time>
        <extensions>
          <ns3:TrackPointExtension>
            <ns3:hr>130</ns3:hr>
            <ns3:cad>88</ns3:cad>
          </ns3:TrackPointExtension>
        </extensions>
      </trkpt>
      <trkpt lat="43.836808092892169952392578125" lon="4.26256832666695117950439453125">
        <ele>161.8000030517578125</ele>
        <time>2024-01-27T09:15:45.000Z</time>
        <extensions>
          <ns3:TrackPointExtension>
            <ns3:hr>130</ns3:hr>
            <ns3:cad>88</ns3:cad>
          </ns3:TrackPointExtension>
        </extensions>
      </trkpt>
      <trkpt lat="43.8368324004113674163818359375" lon="4.26258224062621593475341796875">
        <ele>161.8000030517578125</ele>
        <time>2024-01-27T09:15:46.000Z</time>
        <extensions>
          <ns3:TrackPointExtension>
            <ns3:hr>130</ns3:hr>
            <ns3:cad>88</ns3:cad>
          </ns3:TrackPointExtension>
        </extensions>
      </trkpt>
      <trkpt lat="43.83685478009283542633056640625" lon="4.26259364001452922821044921875">
        <ele>161.8000030517578125</ele>
        <time>2024-01-27T09:15:47.000Z</time>
        <extensions>
          <ns3:TrackPointExtension>
            <ns3:hr>130</ns3:hr>
            <ns3:cad>89</ns3:cad>
          </ns3:TrackPointExtension>
        </extensions>
      </trkpt>
      <trkpt lat="43.8368783332407474517822265625" lon="4.2626133374869823455810546875">
        <ele>161.8000030517578125</ele>
        <time>2024-01-27T09:15:48.000Z</time>
        <extensions>
          <ns3:TrackPointExtension>
            <ns3:hr>130</ns3:hr>
            <ns3:cad>90</ns3:cad>
          </ns3:TrackPointExtension>
        </extensions>
      </trkpt>
      <trkpt lat="43.836901970207691192626953125" lon="4.26262515597045421600341796875">
        <ele>161.8000030517578125</ele>
        <time>2024-01-27T09:15:49.000Z</time>
        <extensions>
          <ns3:TrackPointExtension>
            <ns3:hr>130</ns3:hr>
            <ns3:cad>91</ns3:cad>
          </ns3:TrackPointExtension>
        </extensions>
      </trkpt>
      <trkpt lat="43.8369246013462543487548828125" lon="4.26264233887195587158203125">
        <ele>162</ele>
        <time>2024-01-27T09:15:50.000Z</time>
        <extensions>
          <ns3:TrackPointExtension>
            <ns3:hr>130</ns3:hr>
            <ns3:cad>92</ns3:cad>
          </ns3:TrackPointExtension>
        </extensions>
      </trkpt>
      <trkpt lat="43.836946226656436920166015625" lon="4.2626562528312206268310546875">
        <ele>162.1999969482421875</ele>
        <time>2024-01-27T09:15:51.000Z</time>
        <extensions>
          <ns3:TrackPointExtension>
            <ns3:hr>130</ns3:hr>
            <ns3:cad>92</ns3:cad>
          </ns3:TrackPointExtension>
        </extensions>
      </trkpt>
      <trkpt lat="43.8369534350931644439697265625" lon="4.26269120536744594573974609375">
        <ele>162.399993896484375</ele>
        <time>2024-01-27T09:15:52.000Z</time>
        <extensions>
          <ns3:TrackPointExtension>
            <ns3:hr>130</ns3:hr>
            <ns3:cad>92</ns3:cad>
          </ns3:TrackPointExtension>
        </extensions>
      </trkpt>
      <trkpt lat="43.8369691930711269378662109375" lon="4.26271098665893077850341796875">
        <ele>162.600006103515625</ele>
        <time>2024-01-27T09:15:53.000Z</time>
        <extensions>
          <ns3:TrackPointExtension>
            <ns3:hr>130</ns3:hr>
            <ns3:cad>91</ns3:cad>
          </ns3:TrackPointExtension>
        </extensions>
      </trkpt>
      <trkpt lat="43.8369805924594402313232421875" lon="4.26273428834974765777587890625">
        <ele>162.8000030517578125</ele>
        <time>2024-01-27T09:15:54.000Z</time>
        <extensions>
          <ns3:TrackPointExtension>
            <ns3:hr>130</ns3:hr>
            <ns3:cad>91</ns3:cad>
          </ns3:TrackPointExtension>
        </extensions>
      </trkpt>
      <trkpt lat="43.83699324913322925567626953125" lon="4.26275474019348621368408203125">
        <ele>163.1999969482421875</ele>
        <time>2024-01-27T09:15:55.000Z</time>
        <extensions>
          <ns3:TrackPointExtension>
            <ns3:hr>130</ns3:hr>
            <ns3:cad>92</ns3:cad>
          </ns3:TrackPointExtension>
        </extensions>
      </trkpt>
      <trkpt lat="43.8370023854076862335205078125" lon="4.262776114046573638916015625">
        <ele>163.399993896484375</ele>
        <time>2024-01-27T09:15:56.000Z</time>
        <extensions>
          <ns3:TrackPointExtension>
            <ns3:hr>129</ns3:hr>
            <ns3:cad>92</ns3:cad>
          </ns3:TrackPointExtension>
        </extensions>
      </trkpt>
      <trkpt lat="43.837011940777301788330078125" lon="4.26279564388096332550048828125">
        <ele>163.600006103515625</ele>
        <time>2024-01-27T09:15:57.000Z</time>
        <extensions>
          <ns3:TrackPointExtension>
            <ns3:hr>130</ns3:hr>
            <ns3:cad>92</ns3:cad>
          </ns3:TrackPointExtension>
        </extensions>
      </trkpt>
      <trkpt lat="43.83702099323272705078125" lon="4.26281274296343326568603515625">
        <ele>163.8000030517578125</ele>
        <time>2024-01-27T09:15:58.000Z</time>
        <extensions>
          <ns3:TrackPointExtension>
            <ns3:hr>130</ns3:hr>
            <ns3:cad>92</ns3:cad>
          </ns3:TrackPointExtension>
        </extensions>
      </trkpt>
      <trkpt lat="43.8370332308113574981689453125" lon="4.26283705048263072967529296875">
        <ele>164.1999969482421875</ele>
        <time>2024-01-27T09:15:59.000Z</time>
        <extensions>
          <ns3:TrackPointExtension>
            <ns3:hr>130</ns3:hr>
            <ns3:cad>93</ns3:cad>
          </ns3:TrackPointExtension>
        </extensions>
      </trkpt>
      <trkpt lat="43.83704370819032192230224609375" lon="4.2628507129848003387451171875">
        <ele>164.399993896484375</ele>
        <time>2024-01-27T09:16:00.000Z</time>
        <extensions>
          <ns3:TrackPointExtension>
            <ns3:hr>130</ns3:hr>
            <ns3:cad>93</ns3:cad>
          </ns3:TrackPointExtension>
        </extensions>
      </trkpt>
      <trkpt lat="43.8370603881776332855224609375" lon="4.26287694834172725677490234375">
        <ele>164.8000030517578125</ele>
        <time>2024-01-27T09:16:01.000Z</time>
        <extensions>
          <ns3:TrackPointExtension>
            <ns3:hr>130</ns3:hr>
            <ns3:cad>91</ns3:cad>
          </ns3:TrackPointExtension>
        </extensions>
      </trkpt>
      <trkpt lat="43.83707103319466114044189453125" lon="4.26288918592035770416259765625">
        <ele>165.1999969482421875</ele>
        <time>2024-01-27T09:16:02.000Z</time>
        <extensions>
          <ns3:TrackPointExtension>
            <ns3:hr>130</ns3:hr>
            <ns3:cad>91</ns3:cad>
          </ns3:TrackPointExtension>
        </extensions>
      </trkpt>
      <trkpt lat="43.83708612062036991119384765625" lon="4.2629085481166839599609375">
        <ele>165.399993896484375</ele>
        <time>2024-01-27T09:16:03.000Z</time>
        <extensions>
          <ns3:TrackPointExtension>
            <ns3:hr>130</ns3:hr>
            <ns3:cad>91</ns3:cad>
          </ns3:TrackPointExtension>
        </extensions>
      </trkpt>
      <trkpt lat="43.8371019624173641204833984375" lon="4.2629231326282024383544921875">
        <ele>165.600006103515625</ele>
        <time>2024-01-27T09:16:04.000Z</time>
        <extensions>
          <ns3:TrackPointExtension>
            <ns3:hr>130</ns3:hr>
            <ns3:cad>92</ns3:cad>
          </ns3:TrackPointExtension>
        </extensions>
      </trkpt>
      <trkpt lat="43.837120570242404937744140625" lon="4.262942411005496978759765625">
        <ele>166</ele>
        <time>2024-01-27T09:16:05.000Z</time>
        <extensions>
          <ns3:TrackPointExtension>
            <ns3:hr>130</ns3:hr>
            <ns3:cad>94</ns3:cad>
          </ns3:TrackPointExtension>
        </extensions>
      </trkpt>
      <trkpt lat="43.83713624440133571624755859375" lon="4.26295272074639797210693359375">
        <ele>166.1999969482421875</ele>
        <time>2024-01-27T09:16:06.000Z</time>
        <extensions>
          <ns3:TrackPointExtension>
            <ns3:hr>131</ns3:hr>
            <ns3:cad>94</ns3:cad>
          </ns3:TrackPointExtension>
        </extensions>
      </trkpt>
      <trkpt lat="43.837151415646076202392578125" lon="4.2629663832485675811767578125">
        <ele>166.600006103515625</ele>
        <time>2024-01-27T09:16:07.000Z</time>
        <extensions>
          <ns3:TrackPointExtension>
            <ns3:hr>131</ns3:hr>
            <ns3:cad>93</ns3:cad>
          </ns3:TrackPointExtension>
        </extensions>
      </trkpt>
      <trkpt lat="43.83716675452888011932373046875" lon="4.26297895610332489013671875">
        <ele>166.8000030517578125</ele>
        <time>2024-01-27T09:16:08.000Z</time>
        <extensions>
          <ns3:TrackPointExtension>
            <ns3:hr>131</ns3:hr>
            <ns3:cad>93</ns3:cad>
          </ns3:TrackPointExtension>
        </extensions>
      </trkpt>
      <trkpt lat="43.837179578840732574462890625" lon="4.26299680955708026885986328125">
        <ele>167.1999969482421875</ele>
        <time>2024-01-27T09:16:09.000Z</time>
        <extensions>
          <ns3:TrackPointExtension>
            <ns3:hr>131</ns3:hr>
            <ns3:cad>93</ns3:cad>
          </ns3:TrackPointExtension>
        </extensions>
      </trkpt>
      <trkpt lat="43.83719491772353649139404296875" lon="4.26301256753504276275634765625">
        <ele>167.399993896484375</ele>
        <time>2024-01-27T09:16:10.000Z</time>
        <extensions>
          <ns3:TrackPointExtension>
            <ns3:hr>131</ns3:hr>
            <ns3:cad>93</ns3:cad>
          </ns3:TrackPointExtension>
        </extensions>
      </trkpt>
      <trkpt lat="43.8372048921883106231689453125" lon="4.26302731968462467193603515625">
        <ele>167.8000030517578125</ele>
        <time>2024-01-27T09:16:11.000Z</time>
        <extensions>
          <ns3:TrackPointExtension>
            <ns3:hr>131</ns3:hr>
            <ns3:cad>93</ns3:cad>
          </ns3:TrackPointExtension>
        </extensions>
      </trkpt>
      <trkpt lat="43.83721821941435337066650390625" lon="4.263041317462921142578125">
        <ele>168.399993896484375</ele>
        <time>2024-01-27T09:16:12.000Z</time>
        <extensions>
          <ns3:TrackPointExtension>
            <ns3:hr>131</ns3:hr>
            <ns3:cad>92</ns3:cad>
          </ns3:TrackPointExtension>
        </extensions>
      </trkpt>
      <trkpt lat="43.83723179809749126434326171875" lon="4.26305380649864673614501953125">
        <ele>168.600006103515625</ele>
        <time>2024-01-27T09:16:13.000Z</time>
        <extensions>
          <ns3:TrackPointExtension>
            <ns3:hr>131</ns3:hr>
            <ns3:cad>92</ns3:cad>
          </ns3:TrackPointExtension>
        </extensions>
      </trkpt>
      <trkpt lat="43.8372471369802951812744140625" lon="4.2630694806575775146484375">
        <ele>169.1999969482421875</ele>
        <time>2024-01-27T09:16:14.000Z</time>
        <extensions>
          <ns3:TrackPointExtension>
            <ns3:hr>131</ns3:hr>
            <ns3:cad>90</ns3:cad>
          </ns3:TrackPointExtension>
        </extensions>
      </trkpt>
      <trkpt lat="43.83726247586309909820556640625" lon="4.2630914412438869476318359375">
        <ele>169.399993896484375</ele>
        <time>2024-01-27T09:16:15.000Z</time>
        <extensions>
          <ns3:TrackPointExtension>
            <ns3:hr>131</ns3:hr>
            <ns3:cad>90</ns3:cad>
          </ns3:TrackPointExtension>
        </extensions>
      </trkpt>
      <trkpt lat="43.837284855544567108154296875" lon="4.263105690479278564453125">
        <ele>170</ele>
        <time>2024-01-27T09:16:16.000Z</time>
        <extensions>
          <ns3:TrackPointExtension>
            <ns3:hr>131</ns3:hr>
            <ns3:cad>89</ns3:cad>
          </ns3:TrackPointExtension>
        </extensions>
      </trkpt>
      <trkpt lat="43.83730438537895679473876953125" lon="4.26312052644789218902587890625">
        <ele>170</ele>
        <time>2024-01-27T09:16:17.000Z</time>
        <extensions>
          <ns3:TrackPointExtension>
            <ns3:hr>131</ns3:hr>
            <ns3:cad>89</ns3:cad>
          </ns3:TrackPointExtension>
        </extensions>
      </trkpt>
      <trkpt lat="43.83732064627110958099365234375" lon="4.26313226111233234405517578125">
        <ele>170.1999969482421875</ele>
        <time>2024-01-27T09:16:18.000Z</time>
        <extensions>
          <ns3:TrackPointExtension>
            <ns3:hr>131</ns3:hr>
            <ns3:cad>90</ns3:cad>
          </ns3:TrackPointExtension>
        </extensions>
      </trkpt>
      <trkpt lat="43.83734679780900478363037109375" lon="4.26321809180080890655517578125">
        <ele>171.399993896484375</ele>
        <time>2024-01-27T09:17:46.000Z</time>
        <extensions>
          <ns3:TrackPointExtension>
            <ns3:hr>106</ns3:hr>
            <ns3:cad>0</ns3:cad>
          </ns3:TrackPointExtension>
        </extensions>
      </trkpt>
      <trkpt lat="43.83734763599932193756103515625" lon="4.2632143199443817138671875">
        <ele>171.399993896484375</ele>
        <time>2024-01-27T09:17:47.000Z</time>
        <extensions>
          <ns3:TrackPointExtension>
            <ns3:hr>106</ns3:hr>
            <ns3:cad>0</ns3:cad>
          </ns3:TrackPointExtension>
        </extensions>
      </trkpt>
      <trkpt lat="43.83735082112252712249755859375" lon="4.26321373321115970611572265625">
        <ele>171.399993896484375</ele>
        <time>2024-01-27T09:17:48.000Z</time>
        <extensions>
          <ns3:TrackPointExtension>
            <ns3:hr>105</ns3:hr>
            <ns3:cad>0</ns3:cad>
          </ns3:TrackPointExtension>
        </extensions>
      </trkpt>
      <trkpt lat="43.83737110532820224761962890625" lon="4.26324223168194293975830078125">
        <ele>171.600006103515625</ele>
        <time>2024-01-27T09:17:49.000Z</time>
        <extensions>
          <ns3:TrackPointExtension>
            <ns3:hr>105</ns3:hr>
            <ns3:cad>0</ns3:cad>
          </ns3:TrackPointExtension>
        </extensions>
      </trkpt>
      <trkpt lat="43.837382756173610687255859375" lon="4.26326335407793521881103515625">
        <ele>171.600006103515625</ele>
        <time>2024-01-27T09:17:50.000Z</time>
        <extensions>
          <ns3:TrackPointExtension>
            <ns3:hr>105</ns3:hr>
            <ns3:cad>0</ns3:cad>
          </ns3:TrackPointExtension>
        </extensions>
      </trkpt>
      <trkpt lat="43.8374033756554126739501953125" lon="4.26329520530998706817626953125">
        <ele>171.600006103515625</ele>
        <time>2024-01-27T09:17:51.000Z</time>
        <extensions>
          <ns3:TrackPointExtension>
            <ns3:hr>104</ns3:hr>
            <ns3:cad>0</ns3:cad>
          </ns3:TrackPointExtension>
        </extensions>
      </trkpt>
      <trkpt lat="43.837417624890804290771484375" lon="4.2633123882114887237548828125">
        <ele>171.8000030517578125</ele>
        <time>2024-01-27T09:17:52.000Z</time>
        <extensions>
          <ns3:TrackPointExtension>
            <ns3:hr>104</ns3:hr>
            <ns3:cad>0</ns3:cad>
          </ns3:TrackPointExtension>
        </extensions>
      </trkpt>
      <trkpt lat="43.8374389149248600006103515625" lon="4.26333895884454250335693359375">
        <ele>172.1999969482421875</ele>
        <time>2024-01-27T09:17:53.000Z</time>
        <extensions>
          <ns3:TrackPointExtension>
            <ns3:hr>104</ns3:hr>
            <ns3:cad>91</ns3:cad>
          </ns3:TrackPointExtension>
        </extensions>
      </trkpt>
      <trkpt lat="43.83745928294956684112548828125" lon="4.26336360163986682891845703125">
        <ele>172.399993896484375</ele>
        <time>2024-01-27T09:17:54.000Z</time>
        <extensions>
          <ns3:TrackPointExtension>
            <ns3:hr>104</ns3:hr>
            <ns3:cad>91</ns3:cad>
          </ns3:TrackPointExtension>
        </extensions>
      </trkpt>
      <trkpt lat="43.83747587911784648895263671875" lon="4.26338732242584228515625">
        <ele>172.600006103515625</ele>
        <time>2024-01-27T09:17:55.000Z</time>
        <extensions>
          <ns3:TrackPointExtension>
            <ns3:hr>104</ns3:hr>
            <ns3:cad>91</ns3:cad>
          </ns3:TrackPointExtension>
        </extensions>
      </trkpt>
      <trkpt lat="43.83749800734221935272216796875" lon="4.26341288723051548004150390625">
        <ele>172.8000030517578125</ele>
        <time>2024-01-27T09:17:56.000Z</time>
        <extensions>
          <ns3:TrackPointExtension>
            <ns3:hr>104</ns3:hr>
            <ns3:cad>91</ns3:cad>
          </ns3:TrackPointExtension>
        </extensions>
      </trkpt>
      <trkpt lat="43.8375156931579113006591796875" lon="4.2634300701320171356201171875">
        <ele>172.8000030517578125</ele>
        <time>2024-01-27T09:17:57.000Z</time>
        <extensions>
          <ns3:TrackPointExtension>
            <ns3:hr>104</ns3:hr>
            <ns3:cad>92</ns3:cad>
          </ns3:TrackPointExtension>
        </extensions>
      </trkpt>
      <trkpt lat="43.83753941394388675689697265625" lon="4.2634562216699123382568359375">
        <ele>173</ele>
        <time>2024-01-27T09:17:58.000Z</time>
        <extensions>
          <ns3:TrackPointExtension>
            <ns3:hr>103</ns3:hr>
            <ns3:cad>94</ns3:cad>
          </ns3:TrackPointExtension>
        </extensions>
      </trkpt>
      <trkpt lat="43.837559111416339874267578125" lon="4.26347340457141399383544921875">
        <ele>173.1999969482421875</ele>
        <time>2024-01-27T09:17:59.000Z</time>
        <extensions>
          <ns3:TrackPointExtension>
            <ns3:hr>103</ns3:hr>
            <ns3:cad>94</ns3:cad>
          </ns3:TrackPointExtension>
        </extensions>
      </trkpt>
      <trkpt lat="43.837581239640712738037109375" lon="4.26349268294870853424072265625">
        <ele>173.399993896484375</ele>
        <time>2024-01-27T09:18:00.000Z</time>
        <extensions>
          <ns3:TrackPointExtension>
            <ns3:hr>103</ns3:hr>
            <ns3:cad>94</ns3:cad>
          </ns3:TrackPointExtension>
        </extensions>
      </trkpt>
      <trkpt lat="43.83759825490415096282958984375" lon="4.26350961439311504364013671875">
        <ele>173.600006103515625</ele>
        <time>2024-01-27T09:18:01.000Z</time>
        <extensions>
          <ns3:TrackPointExtension>
            <ns3:hr>103</ns3:hr>
            <ns3:cad>94</ns3:cad>
          </ns3:TrackPointExtension>
        </extensions>
      </trkpt>
      <trkpt lat="43.83761979639530181884765625" lon="4.2635360173881053924560546875">
        <ele>173.8000030517578125</ele>
        <time>2024-01-27T09:18:02.000Z</time>
        <extensions>
          <ns3:TrackPointExtension>
            <ns3:hr>103</ns3:hr>
            <ns3:cad>94</ns3:cad>
          </ns3:TrackPointExtension>
        </extensions>
      </trkpt>
      <trkpt lat="43.83763580583035945892333984375" lon="4.26355353556573390960693359375">
        <ele>174</ele>
        <time>2024-01-27T09:18:03.000Z</time>
        <extensions>
          <ns3:TrackPointExtension>
            <ns3:hr>103</ns3:hr>
            <ns3:cad>92</ns3:cad>
          </ns3:TrackPointExtension>
        </extensions>
      </trkpt>
      <trkpt lat="43.837655000388622283935546875" lon="4.2635739035904407501220703125">
        <ele>174.399993896484375</ele>
        <time>2024-01-27T09:18:04.000Z</time>
        <extensions>
          <ns3:TrackPointExtension>
            <ns3:hr>103</ns3:hr>
            <ns3:cad>92</ns3:cad>
          </ns3:TrackPointExtension>
        </extensions>
      </trkpt>
      <trkpt lat="43.83767553605139255523681640625" lon="4.26359360106289386749267578125">
        <ele>174.399993896484375</ele>
        <time>2024-01-27T09:18:05.000Z</time>
        <extensions>
          <ns3:TrackPointExtension>
            <ns3:hr>103</ns3:hr>
            <ns3:cad>92</ns3:cad>
          </ns3:TrackPointExtension>
        </extensions>
      </trkpt>
      <trkpt lat="43.83768928237259387969970703125" lon="4.26360902376472949981689453125">
        <ele>174.600006103515625</ele>
        <time>2024-01-27T09:18:06.000Z</time>
        <extensions>
          <ns3:TrackPointExtension>
            <ns3:hr>104</ns3:hr>
            <ns3:cad>94</ns3:cad>
          </ns3:TrackPointExtension>
        </extensions>
      </trkpt>
      <trkpt lat="43.83770990185439586639404296875" lon="4.263631738722324371337890625">
        <ele>174.8000030517578125</ele>
        <time>2024-01-27T09:18:07.000Z</time>
        <extensions>
          <ns3:TrackPointExtension>
            <ns3:hr>104</ns3:hr>
            <ns3:cad>94</ns3:cad>
          </ns3:TrackPointExtension>
        </extensions>
      </trkpt>
      <trkpt lat="43.8377277553081512451171875" lon="4.2636483348906040191650390625">
        <ele>175.1999969482421875</ele>
        <time>2024-01-27T09:18:08.000Z</time>
        <extensions>
          <ns3:TrackPointExtension>
            <ns3:hr>104</ns3:hr>
            <ns3:cad>94</ns3:cad>
          </ns3:TrackPointExtension>
        </extensions>
      </trkpt>
      <trkpt lat="43.83774854242801666259765625" lon="4.26366518251597881317138671875">
        <ele>175.399993896484375</ele>
        <time>2024-01-27T09:18:09.000Z</time>
        <extensions>
          <ns3:TrackPointExtension>
            <ns3:hr>104</ns3:hr>
            <ns3:cad>94</ns3:cad>
          </ns3:TrackPointExtension>
        </extensions>
      </trkpt>
      <trkpt lat="43.83776639588177204132080078125" lon="4.26367976702749729156494140625">
        <ele>175.600006103515625</ele>
        <time>2024-01-27T09:18:10.000Z</time>
        <extensions>
          <ns3:TrackPointExtension>
            <ns3:hr>105</ns3:hr>
            <ns3:cad>92</ns3:cad>
          </ns3:TrackPointExtension>
        </extensions>
      </trkpt>
      <trkpt lat="43.8377872668206691741943359375" lon="4.26369753666222095489501953125">
        <ele>175.600006103515625</ele>
        <time>2024-01-27T09:18:11.000Z</time>
        <extensions>
          <ns3:TrackPointExtension>
            <ns3:hr>105</ns3:hr>
            <ns3:cad>92</ns3:cad>
          </ns3:TrackPointExtension>
        </extensions>
      </trkpt>
      <trkpt lat="43.83780620992183685302734375" lon="4.26371027715504169464111328125">
        <ele>175.8000030517578125</ele>
        <time>2024-01-27T09:18:12.000Z</time>
        <extensions>
          <ns3:TrackPointExtension>
            <ns3:hr>105</ns3:hr>
            <ns3:cad>93</ns3:cad>
          </ns3:TrackPointExtension>
        </extensions>
      </trkpt>
      <trkpt lat="43.83783009834587574005126953125" lon="4.2637314833700656890869140625">
        <ele>175.8000030517578125</ele>
        <time>2024-01-27T09:18:13.000Z</time>
        <extensions>
          <ns3:TrackPointExtension>
            <ns3:hr>106</ns3:hr>
            <ns3:cad>93</ns3:cad>
          </ns3:TrackPointExtension>
        </extensions>
      </trkpt>
      <trkpt lat="43.83785004727542400360107421875" lon="4.26374363712966442108154296875">
        <ele>176</ele>
        <time>2024-01-27T09:18:14.000Z</time>
        <extensions>
          <ns3:TrackPointExtension>
            <ns3:hr>106</ns3:hr>
            <ns3:cad>93</ns3:cad>
          </ns3:TrackPointExtension>
        </extensions>
      </trkpt>
      <trkpt lat="43.8378737680613994598388671875" lon="4.2637589760124683380126953125">
        <ele>176.1999969482421875</ele>
        <time>2024-01-27T09:18:15.000Z</time>
        <extensions>
          <ns3:TrackPointExtension>
            <ns3:hr>106</ns3:hr>
            <ns3:cad>92</ns3:cad>
          </ns3:TrackPointExtension>
        </extensions>
      </trkpt>
      <trkpt lat="43.8378885202109813690185546875" lon="4.263772554695606231689453125">
        <ele>176.1999969482421875</ele>
        <time>2024-01-27T09:18:16.000Z</time>
        <extensions>
          <ns3:TrackPointExtension>
            <ns3:hr>106</ns3:hr>
            <ns3:cad>90</ns3:cad>
          </ns3:TrackPointExtension>
        </extensions>
      </trkpt>
      <trkpt lat="43.8379047811031341552734375" lon="4.26378856413066387176513671875">
        <ele>176.1999969482421875</ele>
        <time>2024-01-27T09:18:17.000Z</time>
        <extensions>
          <ns3:TrackPointExtension>
            <ns3:hr>107</ns3:hr>
            <ns3:cad>90</ns3:cad>
          </ns3:TrackPointExtension>
        </extensions>
      </trkpt>
      <trkpt lat="43.83791886270046234130859375" lon="4.26380298100411891937255859375">
        <ele>176.399993896484375</ele>
        <time>2024-01-27T09:18:18.000Z</time>
        <extensions>
          <ns3:TrackPointExtension>
            <ns3:hr>107</ns3:hr>
            <ns3:cad>90</ns3:cad>
          </ns3:TrackPointExtension>
        </extensions>
      </trkpt>
      <trkpt lat="43.83794006891548633575439453125" lon="4.2638260312378406524658203125">
        <ele>176.8000030517578125</ele>
        <time>2024-01-27T09:18:19.000Z</time>
        <extensions>
          <ns3:TrackPointExtension>
            <ns3:hr>107</ns3:hr>
            <ns3:cad>90</ns3:cad>
          </ns3:TrackPointExtension>
        </extensions>
      </trkpt>
      <trkpt lat="43.83795783855020999908447265625" lon="4.263840951025485992431640625">
        <ele>176.8000030517578125</ele>
        <time>2024-01-27T09:18:20.000Z</time>
        <extensions>
          <ns3:TrackPointExtension>
            <ns3:hr>107</ns3:hr>
            <ns3:cad>91</ns3:cad>
          </ns3:TrackPointExtension>
        </extensions>
      </trkpt>
      <trkpt lat="43.83797845803201198577880859375" lon="4.26386232487857341766357421875">
        <ele>177</ele>
        <time>2024-01-27T09:18:21.000Z</time>
        <extensions>
          <ns3:TrackPointExtension>
            <ns3:hr>108</ns3:hr>
            <ns3:cad>92</ns3:cad>
          </ns3:TrackPointExtension>
        </extensions>
      </trkpt>
      <trkpt lat="43.837997652590274810791015625" lon="4.26388084888458251953125">
        <ele>177</ele>
        <time>2024-01-27T09:18:22.000Z</time>
        <extensions>
          <ns3:TrackPointExtension>
            <ns3:hr>108</ns3:hr>
            <ns3:cad>92</ns3:cad>
          </ns3:TrackPointExtension>
        </extensions>
      </trkpt>
      <trkpt lat="43.8380176015198230743408203125" lon="4.2639031447470188140869140625">
        <ele>177</ele>
        <time>2024-01-27T09:18:23.000Z</time>
        <extensions>
          <ns3:TrackPointExtension>
            <ns3:hr>110</ns3:hr>
            <ns3:cad>92</ns3:cad>
          </ns3:TrackPointExtension>
        </extensions>
      </trkpt>
      <trkpt lat="43.838039226830005645751953125" lon="4.2639309726655483245849609375">
        <ele>177.1999969482421875</ele>
        <time>2024-01-27T09:18:24.000Z</time>
        <extensions>
          <ns3:TrackPointExtension>
            <ns3:hr>111</ns3:hr>
            <ns3:cad>92</ns3:cad>
          </ns3:TrackPointExtension>
        </extensions>
      </trkpt>
      <trkpt lat="43.838055320084095001220703125" lon="4.263952933251857757568359375">
        <ele>177.1999969482421875</ele>
        <time>2024-01-27T09:18:25.000Z</time>
        <extensions>
          <ns3:TrackPointExtension>
            <ns3:hr>113</ns3:hr>
            <ns3:cad>91</ns3:cad>
          </ns3:TrackPointExtension>
        </extensions>
      </trkpt>
      <trkpt lat="43.83807443082332611083984375" lon="4.2639826051890850067138671875">
        <ele>177.1999969482421875</ele>
        <time>2024-01-27T09:18:26.000Z</time>
        <extensions>
          <ns3:TrackPointExtension>
            <ns3:hr>114</ns3:hr>
            <ns3:cad>92</ns3:cad>
          </ns3:TrackPointExtension>
        </extensions>
      </trkpt>
      <trkpt lat="43.83809044025838375091552734375" lon="4.26400414668023586273193359375">
        <ele>177.1999969482421875</ele>
        <time>2024-01-27T09:18:27.000Z</time>
        <extensions>
          <ns3:TrackPointExtension>
            <ns3:hr>116</ns3:hr>
            <ns3:cad>92</ns3:cad>
          </ns3:TrackPointExtension>
        </extensions>
      </trkpt>
      <trkpt lat="43.83811038918793201446533203125" lon="4.26403247751295566558837890625">
        <ele>177.1999969482421875</ele>
        <time>2024-01-27T09:18:28.000Z</time>
        <extensions>
          <ns3:TrackPointExtension>
            <ns3:hr>118</ns3:hr>
            <ns3:cad>94</ns3:cad>
          </ns3:TrackPointExtension>
        </extensions>
      </trkpt>
      <trkpt lat="43.83812782354652881622314453125" lon="4.264050833880901336669921875">
        <ele>177.600006103515625</ele>
        <time>2024-01-27T09:18:29.000Z</time>
        <extensions>
          <ns3:TrackPointExtension>
            <ns3:hr>119</ns3:hr>
            <ns3:cad>94</ns3:cad>
          </ns3:TrackPointExtension>
        </extensions>
      </trkpt>
      <trkpt lat="43.8381515443325042724609375" lon="4.26407706923782825469970703125">
        <ele>177.8000030517578125</ele>
        <time>2024-01-27T09:18:30.000Z</time>
        <extensions>
          <ns3:TrackPointExtension>
            <ns3:hr>120</ns3:hr>
            <ns3:cad>94</ns3:cad>
          </ns3:TrackPointExtension>
        </extensions>
      </trkpt>
      <trkpt lat="43.838170655071735382080078125" lon="4.2640939168632030487060546875">
        <ele>177.8000030517578125</ele>
        <time>2024-01-27T09:18:31.000Z</time>
        <extensions>
          <ns3:TrackPointExtension>
            <ns3:hr>121</ns3:hr>
            <ns3:cad>94</ns3:cad>
          </ns3:TrackPointExtension>
        </extensions>
      </trkpt>
      <trkpt lat="43.83819286711513996124267578125" lon="4.26411596126854419708251953125">
        <ele>178</ele>
        <time>2024-01-27T09:18:32.000Z</time>
        <extensions>
          <ns3:TrackPointExtension>
            <ns3:hr>122</ns3:hr>
            <ns3:cad>92</ns3:cad>
          </ns3:TrackPointExtension>
        </extensions>
      </trkpt>
      <trkpt lat="43.83821482770144939422607421875" lon="4.2641344852745532989501953125">
        <ele>178</ele>
        <time>2024-01-27T09:18:33.000Z</time>
        <extensions>
          <ns3:TrackPointExtension>
            <ns3:hr>123</ns3:hr>
            <ns3:cad>92</ns3:cad>
          </ns3:TrackPointExtension>
        </extensions>
      </trkpt>
      <trkpt lat="43.83823913522064685821533203125" lon="4.2641579546034336090087890625">
        <ele>178</ele>
        <time>2024-01-27T09:18:34.000Z</time>
        <extensions>
          <ns3:TrackPointExtension>
            <ns3:hr>123</ns3:hr>
            <ns3:cad>92</ns3:cad>
          </ns3:TrackPointExtension>
        </extensions>
      </trkpt>
      <trkpt lat="43.83826243691146373748779296875" lon="4.2641740478575229644775390625">
        <ele>178</ele>
        <time>2024-01-27T09:18:35.000Z</time>
        <extensions>
          <ns3:TrackPointExtension>
            <ns3:hr>124</ns3:hr>
            <ns3:cad>94</ns3:cad>
          </ns3:TrackPointExtension>
        </extensions>
      </trkpt>
      <trkpt lat="43.83828138001263141632080078125" lon="4.2641884647309780120849609375">
        <ele>178.1999969482421875</ele>
        <time>2024-01-27T09:18:36.000Z</time>
        <extensions>
          <ns3:TrackPointExtension>
            <ns3:hr>124</ns3:hr>
            <ns3:cad>94</ns3:cad>
          </ns3:TrackPointExtension>
        </extensions>
      </trkpt>
      <trkpt lat="43.838306106626987457275390625" lon="4.264207743108272552490234375">
        <ele>178.1999969482421875</ele>
        <time>2024-01-27T09:18:37.000Z</time>
        <extensions>
          <ns3:TrackPointExtension>
            <ns3:hr>124</ns3:hr>
            <ns3:cad>92</ns3:cad>
          </ns3:TrackPointExtension>
        </extensions>
      </trkpt>
      <trkpt lat="43.83832396008074283599853515625" lon="4.264221489429473876953125">
        <ele>178.1999969482421875</ele>
        <time>2024-01-27T09:18:38.000Z</time>
        <extensions>
          <ns3:TrackPointExtension>
            <ns3:hr>124</ns3:hr>
            <ns3:cad>91</ns3:cad>
          </ns3:TrackPointExtension>
        </extensions>
      </trkpt>
      <trkpt lat="43.83834935724735260009765625" lon="4.26424269564449787139892578125">
        <ele>178.1999969482421875</ele>
        <time>2024-01-27T09:18:39.000Z</time>
        <extensions>
          <ns3:TrackPointExtension>
            <ns3:hr>124</ns3:hr>
            <ns3:cad>91</ns3:cad>
          </ns3:TrackPointExtension>
        </extensions>
      </trkpt>
      <trkpt lat="43.83836654014885425567626953125" lon="4.2642548494040966033935546875">
        <ele>178.1999969482421875</ele>
        <time>2024-01-27T09:18:40.000Z</time>
        <extensions>
          <ns3:TrackPointExtension>
            <ns3:hr>125</ns3:hr>
            <ns3:cad>92</ns3:cad>
          </ns3:TrackPointExtension>
        </extensions>
      </trkpt>
      <trkpt lat="43.83838783018290996551513671875" lon="4.264275133609771728515625">
        <ele>178.1999969482421875</ele>
        <time>2024-01-27T09:18:41.000Z</time>
        <extensions>
          <ns3:TrackPointExtension>
            <ns3:hr>125</ns3:hr>
            <ns3:cad>94</ns3:cad>
          </ns3:TrackPointExtension>
        </extensions>
      </trkpt>
      <trkpt lat="43.83840794675052165985107421875" lon="4.2642893828451633453369140625">
        <ele>178.1999969482421875</ele>
        <time>2024-01-27T09:18:42.000Z</time>
        <extensions>
          <ns3:TrackPointExtension>
            <ns3:hr>125</ns3:hr>
            <ns3:cad>94</ns3:cad>
          </ns3:TrackPointExtension>
        </extensions>
      </trkpt>
      <trkpt lat="43.83843208663165569305419921875" lon="4.26430933177471160888671875">
        <ele>178.1999969482421875</ele>
        <time>2024-01-27T09:18:43.000Z</time>
        <extensions>
          <ns3:TrackPointExtension>
            <ns3:hr>126</ns3:hr>
            <ns3:cad>93</ns3:cad>
          </ns3:TrackPointExtension>
        </extensions>
      </trkpt>
      <trkpt lat="43.83845019154250621795654296875" lon="4.2643229104578495025634765625">
        <ele>178.1999969482421875</ele>
        <time>2024-01-27T09:18:44.000Z</time>
        <extensions>
          <ns3:TrackPointExtension>
            <ns3:hr>126</ns3:hr>
            <ns3:cad>92</ns3:cad>
          </ns3:TrackPointExtension>
        </extensions>
      </trkpt>
      <trkpt lat="43.83847399614751338958740234375" lon="4.2643430270254611968994140625">
        <ele>178.1999969482421875</ele>
        <time>2024-01-27T09:18:45.000Z</time>
        <extensions>
          <ns3:TrackPointExtension>
            <ns3:hr>127</ns3:hr>
            <ns3:cad>92</ns3:cad>
          </ns3:TrackPointExtension>
        </extensions>
      </trkpt>
      <trkpt lat="43.83849620819091796875" lon="4.26435819827020168304443359375">
        <ele>178.1999969482421875</ele>
        <time>2024-01-27T09:18:46.000Z</time>
        <extensions>
          <ns3:TrackPointExtension>
            <ns3:hr>127</ns3:hr>
            <ns3:cad>92</ns3:cad>
          </ns3:TrackPointExtension>
        </extensions>
      </trkpt>
      <trkpt lat="43.83851607330143451690673828125" lon="4.2643725313246250152587890625">
        <ele>178.1999969482421875</ele>
        <time>2024-01-27T09:18:47.000Z</time>
        <extensions>
          <ns3:TrackPointExtension>
            <ns3:hr>127</ns3:hr>
            <ns3:cad>92</ns3:cad>
          </ns3:TrackPointExtension>
        </extensions>
      </trkpt>
      <trkpt lat="43.8385352678596973419189453125" lon="4.264385439455509185791015625">
        <ele>178.1999969482421875</ele>
        <time>2024-01-27T09:18:48.000Z</time>
        <extensions>
          <ns3:TrackPointExtension>
            <ns3:hr>128</ns3:hr>
            <ns3:cad>92</ns3:cad>
          </ns3:TrackPointExtension>
        </extensions>
      </trkpt>
      <trkpt lat="43.838552534580230712890625" lon="4.26440111361443996429443359375">
        <ele>178.1999969482421875</ele>
        <time>2024-01-27T09:18:49.000Z</time>
        <extensions>
          <ns3:TrackPointExtension>
            <ns3:hr>128</ns3:hr>
            <ns3:cad>92</ns3:cad>
          </ns3:TrackPointExtension>
        </extensions>
      </trkpt>
      <trkpt lat="43.838572986423969268798828125" lon="4.264425002038478851318359375">
        <ele>178.1999969482421875</ele>
        <time>2024-01-27T09:18:50.000Z</time>
        <extensions>
          <ns3:TrackPointExtension>
            <ns3:hr>129</ns3:hr>
            <ns3:cad>92</ns3:cad>
          </ns3:TrackPointExtension>
        </extensions>
      </trkpt>
      <trkpt lat="43.838590085506439208984375" lon="4.264453835785388946533203125">
        <ele>178</ele>
        <time>2024-01-27T09:18:51.000Z</time>
        <extensions>
          <ns3:TrackPointExtension>
            <ns3:hr>129</ns3:hr>
            <ns3:cad>92</ns3:cad>
          </ns3:TrackPointExtension>
        </extensions>
      </trkpt>
      <trkpt lat="43.83861045353114604949951171875" lon="4.26448744721710681915283203125">
        <ele>178</ele>
        <time>2024-01-27T09:18:52.000Z</time>
        <extensions>
          <ns3:TrackPointExtension>
            <ns3:hr>129</ns3:hr>
            <ns3:cad>92</ns3:cad>
          </ns3:TrackPointExtension>
        </extensions>
      </trkpt>
      <trkpt lat="43.838625289499759674072265625" lon="4.2645130120217800140380859375">
        <ele>177.8000030517578125</ele>
        <time>2024-01-27T09:18:53.000Z</time>
        <extensions>
          <ns3:TrackPointExtension>
            <ns3:hr>129</ns3:hr>
            <ns3:cad>92</ns3:cad>
          </ns3:TrackPointExtension>
        </extensions>
      </trkpt>
      <trkpt lat="43.83864515461027622222900390625" lon="4.26454645581543445587158203125">
        <ele>177.399993896484375</ele>
        <time>2024-01-27T09:18:54.000Z</time>
        <extensions>
          <ns3:TrackPointExtension>
            <ns3:hr>130</ns3:hr>
            <ns3:cad>93</ns3:cad>
          </ns3:TrackPointExtension>
        </extensions>
      </trkpt>
      <trkpt lat="43.83866342715919017791748046875" lon="4.26456808112561702728271484375">
        <ele>177.1999969482421875</ele>
        <time>2024-01-27T09:18:55.000Z</time>
        <extensions>
          <ns3:TrackPointExtension>
            <ns3:hr>130</ns3:hr>
            <ns3:cad>93</ns3:cad>
          </ns3:TrackPointExtension>
        </extensions>
      </trkpt>
      <trkpt lat="43.83868756704032421112060546875" lon="4.26459255628287792205810546875">
        <ele>177.1999969482421875</ele>
        <time>2024-01-27T09:18:56.000Z</time>
        <extensions>
          <ns3:TrackPointExtension>
            <ns3:hr>131</ns3:hr>
            <ns3:cad>93</ns3:cad>
          </ns3:TrackPointExtension>
        </extensions>
      </trkpt>
      <trkpt lat="43.83871153928339481353759765625" lon="4.26460781134665012359619140625">
        <ele>177</ele>
        <time>2024-01-27T09:18:57.000Z</time>
        <extensions>
          <ns3:TrackPointExtension>
            <ns3:hr>132</ns3:hr>
            <ns3:cad>93</ns3:cad>
          </ns3:TrackPointExtension>
        </extensions>
      </trkpt>
      <trkpt lat="43.83874121122062206268310546875" lon="4.2646246589720249176025390625">
        <ele>177</ele>
        <time>2024-01-27T09:18:58.000Z</time>
        <extensions>
          <ns3:TrackPointExtension>
            <ns3:hr>132</ns3:hr>
            <ns3:cad>93</ns3:cad>
          </ns3:TrackPointExtension>
        </extensions>
      </trkpt>
      <trkpt lat="43.8387602381408214569091796875" lon="4.2646347172558307647705078125">
        <ele>177</ele>
        <time>2024-01-27T09:18:59.000Z</time>
        <extensions>
          <ns3:TrackPointExtension>
            <ns3:hr>133</ns3:hr>
            <ns3:cad>93</ns3:cad>
          </ns3:TrackPointExtension>
        </extensions>
      </trkpt>
      <trkpt lat="43.8387857191264629364013671875" lon="4.26465122960507869720458984375">
        <ele>177</ele>
        <time>2024-01-27T09:19:00.000Z</time>
        <extensions>
          <ns3:TrackPointExtension>
            <ns3:hr>133</ns3:hr>
            <ns3:cad>93</ns3:cad>
          </ns3:TrackPointExtension>
        </extensions>
      </trkpt>
      <trkpt lat="43.83880726061761379241943359375" lon="4.26466514356434345245361328125">
        <ele>176.8000030517578125</ele>
        <time>2024-01-27T09:19:01.000Z</time>
        <extensions>
          <ns3:TrackPointExtension>
            <ns3:hr>134</ns3:hr>
            <ns3:cad>93</ns3:cad>
          </ns3:TrackPointExtension>
        </extensions>
      </trkpt>
      <trkpt lat="43.8388336636126041412353515625" lon="4.26468886435031890869140625">
        <ele>176.8000030517578125</ele>
        <time>2024-01-27T09:19:02.000Z</time>
        <extensions>
          <ns3:TrackPointExtension>
            <ns3:hr>134</ns3:hr>
            <ns3:cad>92</ns3:cad>
          </ns3:TrackPointExtension>
        </extensions>
      </trkpt>
      <trkpt lat="43.83885738439857959747314453125" lon="4.26470763981342315673828125">
        <ele>176.8000030517578125</ele>
        <time>2024-01-27T09:19:03.000Z</time>
        <extensions>
          <ns3:TrackPointExtension>
            <ns3:hr>134</ns3:hr>
            <ns3:cad>92</ns3:cad>
          </ns3:TrackPointExtension>
        </extensions>
      </trkpt>
      <trkpt lat="43.8388802669942378997802734375" lon="4.26472884602844715118408203125">
        <ele>176.600006103515625</ele>
        <time>2024-01-27T09:19:04.000Z</time>
        <extensions>
          <ns3:TrackPointExtension>
            <ns3:hr>135</ns3:hr>
            <ns3:cad>90</ns3:cad>
          </ns3:TrackPointExtension>
        </extensions>
      </trkpt>
      <trkpt lat="43.8389017246663570404052734375" lon="4.26474946551024913787841796875">
        <ele>176.399993896484375</ele>
        <time>2024-01-27T09:19:05.000Z</time>
        <extensions>
          <ns3:TrackPointExtension>
            <ns3:hr>135</ns3:hr>
            <ns3:cad>90</ns3:cad>
          </ns3:TrackPointExtension>
        </extensions>
      </trkpt>
      <trkpt lat="43.8389265350997447967529296875" lon="4.26477779634296894073486328125">
        <ele>176.1999969482421875</ele>
        <time>2024-01-27T09:19:06.000Z</time>
        <extensions>
          <ns3:TrackPointExtension>
            <ns3:hr>135</ns3:hr>
            <ns3:cad>90</ns3:cad>
          </ns3:TrackPointExtension>
        </extensions>
      </trkpt>
      <trkpt lat="43.838945142924785614013671875" lon="4.26479338668286800384521484375">
        <ele>176</ele>
        <time>2024-01-27T09:19:07.000Z</time>
        <extensions>
          <ns3:TrackPointExtension>
            <ns3:hr>135</ns3:hr>
            <ns3:cad>89</ns3:cad>
          </ns3:TrackPointExtension>
        </extensions>
      </trkpt>
      <trkpt lat="43.83897238411009311676025390625" lon="4.26482029259204864501953125">
        <ele>176</ele>
        <time>2024-01-27T09:19:08.000Z</time>
        <extensions>
          <ns3:TrackPointExtension>
            <ns3:hr>136</ns3:hr>
            <ns3:cad>89</ns3:cad>
          </ns3:TrackPointExtension>
        </extensions>
      </trkpt>
      <trkpt lat="43.83899308741092681884765625" lon="4.26484351046383380889892578125">
        <ele>176</ele>
        <time>2024-01-27T09:19:09.000Z</time>
        <extensions>
          <ns3:TrackPointExtension>
            <ns3:hr>136</ns3:hr>
            <ns3:cad>89</ns3:cad>
          </ns3:TrackPointExtension>
        </extensions>
      </trkpt>
      <trkpt lat="43.839018233120441436767578125" lon="4.26487402059137821197509765625">
        <ele>175.600006103515625</ele>
        <time>2024-01-27T09:19:10.000Z</time>
        <extensions>
          <ns3:TrackPointExtension>
            <ns3:hr>136</ns3:hr>
            <ns3:cad>89</ns3:cad>
          </ns3:TrackPointExtension>
        </extensions>
      </trkpt>
      <trkpt lat="43.839038349688053131103515625" lon="4.26489547826349735260009765625">
        <ele>175.1999969482421875</ele>
        <time>2024-01-27T09:19:11.000Z</time>
        <extensions>
          <ns3:TrackPointExtension>
            <ns3:hr>136</ns3:hr>
            <ns3:cad>89</ns3:cad>
          </ns3:TrackPointExtension>
        </extensions>
      </trkpt>
      <trkpt lat="43.83906223811209201812744140625" lon="4.26492330618202686309814453125">
        <ele>175</ele>
        <time>2024-01-27T09:19:12.000Z</time>
        <extensions>
          <ns3:TrackPointExtension>
            <ns3:hr>136</ns3:hr>
            <ns3:cad>89</ns3:cad>
          </ns3:TrackPointExtension>
        </extensions>
      </trkpt>
      <trkpt lat="43.8390834443271160125732421875" lon="4.26494308747351169586181640625">
        <ele>174.600006103515625</ele>
        <time>2024-01-27T09:19:13.000Z</time>
        <extensions>
          <ns3:TrackPointExtension>
            <ns3:hr>136</ns3:hr>
            <ns3:cad>89</ns3:cad>
          </ns3:TrackPointExtension>
        </extensions>
      </trkpt>
      <trkpt lat="43.8391102664172649383544921875" lon="4.26496773026883602142333984375">
        <ele>174.600006103515625</ele>
        <time>2024-01-27T09:19:14.000Z</time>
        <extensions>
          <ns3:TrackPointExtension>
            <ns3:hr>136</ns3:hr>
            <ns3:cad>89</ns3:cad>
          </ns3:TrackPointExtension>
        </extensions>
      </trkpt>
      <trkpt lat="43.83913214318454265594482421875" lon="4.264986254274845123291015625">
        <ele>174.1999969482421875</ele>
        <time>2024-01-27T09:19:15.000Z</time>
        <extensions>
          <ns3:TrackPointExtension>
            <ns3:hr>136</ns3:hr>
            <ns3:cad>89</ns3:cad>
          </ns3:TrackPointExtension>
        </extensions>
      </trkpt>
      <trkpt lat="43.8391592167317867279052734375" lon="4.26501165144145488739013671875">
        <ele>173.8000030517578125</ele>
        <time>2024-01-27T09:19:16.000Z</time>
        <extensions>
          <ns3:TrackPointExtension>
            <ns3:hr>137</ns3:hr>
            <ns3:cad>89</ns3:cad>
          </ns3:TrackPointExtension>
        </extensions>
      </trkpt>
      <trkpt lat="43.839179165661334991455078125" lon="4.2650313489139080047607421875">
        <ele>173.600006103515625</ele>
        <time>2024-01-27T09:19:17.000Z</time>
        <extensions>
          <ns3:TrackPointExtension>
            <ns3:hr>137</ns3:hr>
            <ns3:cad>90</ns3:cad>
          </ns3:TrackPointExtension>
        </extensions>
      </trkpt>
      <trkpt lat="43.839199952781200408935546875" lon="4.26505205221474170684814453125">
        <ele>173.1999969482421875</ele>
        <time>2024-01-27T09:19:18.000Z</time>
        <extensions>
          <ns3:TrackPointExtension>
            <ns3:hr>137</ns3:hr>
            <ns3:cad>90</ns3:cad>
          </ns3:TrackPointExtension>
        </extensions>
      </trkpt>
      <trkpt lat="43.83921780623495578765869140625" lon="4.265068732202053070068359375">
        <ele>173</ele>
        <time>2024-01-27T09:19:19.000Z</time>
        <extensions>
          <ns3:TrackPointExtension>
            <ns3:hr>137</ns3:hr>
            <ns3:cad>90</ns3:cad>
          </ns3:TrackPointExtension>
        </extensions>
      </trkpt>
      <trkpt lat="43.83924295194447040557861328125" lon="4.26508960314095020294189453125">
        <ele>172.600006103515625</ele>
        <time>2024-01-27T09:19:20.000Z</time>
        <extensions>
          <ns3:TrackPointExtension>
            <ns3:hr>137</ns3:hr>
            <ns3:cad>88</ns3:cad>
          </ns3:TrackPointExtension>
        </extensions>
      </trkpt>
      <trkpt lat="43.83926709182560443878173828125" lon="4.2651104740798473358154296875">
        <ele>172.600006103515625</ele>
        <time>2024-01-27T09:19:21.000Z</time>
        <extensions>
          <ns3:TrackPointExtension>
            <ns3:hr>137</ns3:hr>
            <ns3:cad>88</ns3:cad>
          </ns3:TrackPointExtension>
        </extensions>
      </trkpt>
      <trkpt lat="43.83929072879254817962646484375" lon="4.26512463949620723724365234375">
        <ele>172.399993896484375</ele>
        <time>2024-01-27T09:19:22.000Z</time>
        <extensions>
          <ns3:TrackPointExtension>
            <ns3:hr>137</ns3:hr>
            <ns3:cad>88</ns3:cad>
          </ns3:TrackPointExtension>
        </extensions>
      </trkpt>
      <trkpt lat="43.8393164612352848052978515625" lon="4.2651443369686603546142578125">
        <ele>172.1999969482421875</ele>
        <time>2024-01-27T09:19:23.000Z</time>
        <extensions>
          <ns3:TrackPointExtension>
            <ns3:hr>137</ns3:hr>
            <ns3:cad>88</ns3:cad>
          </ns3:TrackPointExtension>
        </extensions>
      </trkpt>
      <trkpt lat="43.839335404336452484130859375" lon="4.26515833474695682525634765625">
        <ele>172</ele>
        <time>2024-01-27T09:19:24.000Z</time>
        <extensions>
          <ns3:TrackPointExtension>
            <ns3:hr>137</ns3:hr>
            <ns3:cad>88</ns3:cad>
          </ns3:TrackPointExtension>
        </extensions>
      </trkpt>
      <trkpt lat="43.83936063386499881744384765625" lon="4.26517912186682224273681640625">
        <ele>171.8000030517578125</ele>
        <time>2024-01-27T09:19:25.000Z</time>
        <extensions>
          <ns3:TrackPointExtension>
            <ns3:hr>138</ns3:hr>
            <ns3:cad>86</ns3:cad>
          </ns3:TrackPointExtension>
        </extensions>
      </trkpt>
      <trkpt lat="43.83937957696616649627685546875" lon="4.26519420929253101348876953125">
        <ele>171.8000030517578125</ele>
        <time>2024-01-27T09:19:26.000Z</time>
        <extensions>
          <ns3:TrackPointExtension>
            <ns3:hr>138</ns3:hr>
            <ns3:cad>84</ns3:cad>
          </ns3:TrackPointExtension>
        </extensions>
      </trkpt>
      <trkpt lat="43.8394012860953807830810546875" lon="4.2652147449553012847900390625">
        <ele>171.1999969482421875</ele>
        <time>2024-01-27T09:19:27.000Z</time>
        <extensions>
          <ns3:TrackPointExtension>
            <ns3:hr>138</ns3:hr>
            <ns3:cad>84</ns3:cad>
          </ns3:TrackPointExtension>
        </extensions>
      </trkpt>
      <trkpt lat="43.83942064829170703887939453125" lon="4.26523192785680294036865234375">
        <ele>171</ele>
        <time>2024-01-27T09:19:28.000Z</time>
        <extensions>
          <ns3:TrackPointExtension>
            <ns3:hr>138</ns3:hr>
            <ns3:cad>84</ns3:cad>
          </ns3:TrackPointExtension>
        </extensions>
      </trkpt>
      <trkpt lat="43.8394452072679996490478515625" lon="4.26525212824344635009765625">
        <ele>170.600006103515625</ele>
        <time>2024-01-27T09:19:29.000Z</time>
        <extensions>
          <ns3:TrackPointExtension>
            <ns3:hr>139</ns3:hr>
            <ns3:cad>86</ns3:cad>
          </ns3:TrackPointExtension>
        </extensions>
      </trkpt>
      <trkpt lat="43.83946540765464305877685546875" lon="4.26526797004044055938720703125">
        <ele>170.399993896484375</ele>
        <time>2024-01-27T09:19:30.000Z</time>
        <extensions>
          <ns3:TrackPointExtension>
            <ns3:hr>139</ns3:hr>
            <ns3:cad>87</ns3:cad>
          </ns3:TrackPointExtension>
        </extensions>
      </trkpt>
      <trkpt lat="43.839487619698047637939453125" lon="4.265292696654796600341796875">
        <ele>170</ele>
        <time>2024-01-27T09:19:31.000Z</time>
        <extensions>
          <ns3:TrackPointExtension>
            <ns3:hr>140</ns3:hr>
            <ns3:cad>88</ns3:cad>
          </ns3:TrackPointExtension>
        </extensions>
      </trkpt>
      <trkpt lat="43.83950849063694477081298828125" lon="4.26531457342207431793212890625">
        <ele>169.8000030517578125</ele>
        <time>2024-01-27T09:19:32.000Z</time>
        <extensions>
          <ns3:TrackPointExtension>
            <ns3:hr>144</ns3:hr>
            <ns3:cad>88</ns3:cad>
          </ns3:TrackPointExtension>
        </extensions>
      </trkpt>
      <trkpt lat="43.83953095413744449615478515625" lon="4.26533527672290802001953125">
        <ele>169.399993896484375</ele>
        <time>2024-01-27T09:19:33.000Z</time>
        <extensions>
          <ns3:TrackPointExtension>
            <ns3:hr>147</ns3:hr>
            <ns3:cad>88</ns3:cad>
          </ns3:TrackPointExtension>
        </extensions>
      </trkpt>
      <trkpt lat="43.83955257944762706756591796875" lon="4.26535262726247310638427734375">
        <ele>169</ele>
        <time>2024-01-27T09:19:34.000Z</time>
        <extensions>
          <ns3:TrackPointExtension>
            <ns3:hr>148</ns3:hr>
            <ns3:cad>88</ns3:cad>
          </ns3:TrackPointExtension>
        </extensions>
      </trkpt>
      <trkpt lat="43.83957445621490478515625" lon="4.26536385901272296905517578125">
        <ele>168.8000030517578125</ele>
        <time>2024-01-27T09:19:35.000Z</time>
        <extensions>
          <ns3:TrackPointExtension>
            <ns3:hr>148</ns3:hr>
            <ns3:cad>88</ns3:cad>
          </ns3:TrackPointExtension>
        </extensions>
      </trkpt>
      <trkpt lat="43.83959767408668994903564453125" lon="4.26538397558033466339111328125">
        <ele>168.600006103515625</ele>
        <time>2024-01-27T09:19:36.000Z</time>
        <extensions>
          <ns3:TrackPointExtension>
            <ns3:hr>148</ns3:hr>
            <ns3:cad>88</ns3:cad>
          </ns3:TrackPointExtension>
        </extensions>
      </trkpt>
      <trkpt lat="43.8396187126636505126953125" lon="4.2653981409966945648193359375">
        <ele>168.1999969482421875</ele>
        <time>2024-01-27T09:19:37.000Z</time>
        <extensions>
          <ns3:TrackPointExtension>
            <ns3:hr>148</ns3:hr>
            <ns3:cad>88</ns3:cad>
          </ns3:TrackPointExtension>
        </extensions>
      </trkpt>
      <trkpt lat="43.839642517268657684326171875" lon="4.26542236469686031341552734375">
        <ele>168.1999969482421875</ele>
        <time>2024-01-27T09:19:38.000Z</time>
        <extensions>
          <ns3:TrackPointExtension>
            <ns3:hr>148</ns3:hr>
            <ns3:cad>86</ns3:cad>
          </ns3:TrackPointExtension>
        </extensions>
      </trkpt>
      <trkpt lat="43.839661963284015655517578125" lon="4.26543963141739368438720703125">
        <ele>168</ele>
        <time>2024-01-27T09:19:39.000Z</time>
        <extensions>
          <ns3:TrackPointExtension>
            <ns3:hr>149</ns3:hr>
            <ns3:cad>86</ns3:cad>
          </ns3:TrackPointExtension>
        </extensions>
      </trkpt>
      <trkpt lat="43.83968182839453220367431640625" lon="4.265463687479496002197265625">
        <ele>167.600006103515625</ele>
        <time>2024-01-27T09:19:40.000Z</time>
        <extensions>
          <ns3:TrackPointExtension>
            <ns3:hr>149</ns3:hr>
            <ns3:cad>87</ns3:cad>
          </ns3:TrackPointExtension>
        </extensions>
      </trkpt>
      <trkpt lat="43.83969188667833805084228515625" lon="4.2654950357973575592041015625">
        <ele>167.399993896484375</ele>
        <time>2024-01-27T09:19:41.000Z</time>
        <extensions>
          <ns3:TrackPointExtension>
            <ns3:hr>149</ns3:hr>
            <ns3:cad>87</ns3:cad>
          </ns3:TrackPointExtension>
        </extensions>
      </trkpt>
      <trkpt lat="43.839693479239940643310546875" lon="4.26553233526647090911865234375">
        <ele>167</ele>
        <time>2024-01-27T09:19:42.000Z</time>
        <extensions>
          <ns3:TrackPointExtension>
            <ns3:hr>149</ns3:hr>
            <ns3:cad>86</ns3:cad>
          </ns3:TrackPointExtension>
        </extensions>
      </trkpt>
      <trkpt lat="43.8396916352212429046630859375" lon="4.265565611422061920166015625">
        <ele>166.600006103515625</ele>
        <time>2024-01-27T09:19:43.000Z</time>
        <extensions>
          <ns3:TrackPointExtension>
            <ns3:hr>149</ns3:hr>
            <ns3:cad>86</ns3:cad>
          </ns3:TrackPointExtension>
        </extensions>
      </trkpt>
      <trkpt lat="43.83969180285930633544921875" lon="4.2655956186354160308837890625">
        <ele>166.1999969482421875</ele>
        <time>2024-01-27T09:19:44.000Z</time>
        <extensions>
          <ns3:TrackPointExtension>
            <ns3:hr>149</ns3:hr>
            <ns3:cad>87</ns3:cad>
          </ns3:TrackPointExtension>
        </extensions>
      </trkpt>
      <trkpt lat="43.83969448506832122802734375" lon="4.26562906242907047271728515625">
        <ele>165.8000030517578125</ele>
        <time>2024-01-27T09:19:45.000Z</time>
        <extensions>
          <ns3:TrackPointExtension>
            <ns3:hr>149</ns3:hr>
            <ns3:cad>87</ns3:cad>
          </ns3:TrackPointExtension>
        </extensions>
      </trkpt>
      <trkpt lat="43.83969725109636783599853515625" lon="4.26565571688115596771240234375">
        <ele>165.399993896484375</ele>
        <time>2024-01-27T09:19:46.000Z</time>
        <extensions>
          <ns3:TrackPointExtension>
            <ns3:hr>149</ns3:hr>
            <ns3:cad>88</ns3:cad>
          </ns3:TrackPointExtension>
        </extensions>
      </trkpt>
      <trkpt lat="43.83969875983893871307373046875" lon="4.2656777612864971160888671875">
        <ele>165.1999969482421875</ele>
        <time>2024-01-27T09:19:47.000Z</time>
        <extensions>
          <ns3:TrackPointExtension>
            <ns3:hr>149</ns3:hr>
            <ns3:cad>88</ns3:cad>
          </ns3:TrackPointExtension>
        </extensions>
      </trkpt>
      <trkpt lat="43.83970244787633419036865234375" lon="4.26570198498666286468505859375">
        <ele>164.8000030517578125</ele>
        <time>2024-01-27T09:19:48.000Z</time>
        <extensions>
          <ns3:TrackPointExtension>
            <ns3:hr>149</ns3:hr>
            <ns3:cad>87</ns3:cad>
          </ns3:TrackPointExtension>
        </extensions>
      </trkpt>
      <trkpt lat="43.839705884456634521484375" lon="4.26572662778198719024658203125">
        <ele>164.8000030517578125</ele>
        <time>2024-01-27T09:19:49.000Z</time>
        <extensions>
          <ns3:TrackPointExtension>
            <ns3:hr>149</ns3:hr>
            <ns3:cad>87</ns3:cad>
          </ns3:TrackPointExtension>
        </extensions>
      </trkpt>
      <trkpt lat="43.83970663882791996002197265625" lon="4.26574339158833026885986328125">
        <ele>164.600006103515625</ele>
        <time>2024-01-27T09:19:50.000Z</time>
        <extensions>
          <ns3:TrackPointExtension>
            <ns3:hr>149</ns3:hr>
            <ns3:cad>87</ns3:cad>
          </ns3:TrackPointExtension>
        </extensions>
      </trkpt>
      <trkpt lat="43.83970345370471477508544921875" lon="4.26576551981270313262939453125">
        <ele>164</ele>
        <time>2024-01-27T09:19:51.000Z</time>
        <extensions>
          <ns3:TrackPointExtension>
            <ns3:hr>148</ns3:hr>
            <ns3:cad>87</ns3:cad>
          </ns3:TrackPointExtension>
        </extensions>
      </trkpt>
      <trkpt lat="43.83969758637249469757080078125" lon="4.265787899494171142578125">
        <ele>163.600006103515625</ele>
        <time>2024-01-27T09:19:52.000Z</time>
        <extensions>
          <ns3:TrackPointExtension>
            <ns3:hr>148</ns3:hr>
            <ns3:cad>87</ns3:cad>
          </ns3:TrackPointExtension>
        </extensions>
      </trkpt>
      <trkpt lat="43.83968484587967395782470703125" lon="4.2658105306327342987060546875">
        <ele>163.399993896484375</ele>
        <time>2024-01-27T09:19:53.000Z</time>
        <extensions>
          <ns3:TrackPointExtension>
            <ns3:hr>148</ns3:hr>
            <ns3:cad>87</ns3:cad>
          </ns3:TrackPointExtension>
        </extensions>
      </trkpt>
      <trkpt lat="43.83967260830104351043701171875" lon="4.26583240740001201629638671875">
        <ele>163.1999969482421875</ele>
        <time>2024-01-27T09:19:54.000Z</time>
        <extensions>
          <ns3:TrackPointExtension>
            <ns3:hr>148</ns3:hr>
            <ns3:cad>87</ns3:cad>
          </ns3:TrackPointExtension>
        </extensions>
      </trkpt>
      <trkpt lat="43.83966003544628620147705078125" lon="4.2658604867756366729736328125">
        <ele>162.8000030517578125</ele>
        <time>2024-01-27T09:19:55.000Z</time>
        <extensions>
          <ns3:TrackPointExtension>
            <ns3:hr>148</ns3:hr>
            <ns3:cad>85</ns3:cad>
          </ns3:TrackPointExtension>
        </extensions>
      </trkpt>
      <trkpt lat="43.83965115062892436981201171875" lon="4.26588370464742183685302734375">
        <ele>162.600006103515625</ele>
        <time>2024-01-27T09:19:56.000Z</time>
        <extensions>
          <ns3:TrackPointExtension>
            <ns3:hr>148</ns3:hr>
            <ns3:cad>85</ns3:cad>
          </ns3:TrackPointExtension>
        </extensions>
      </trkpt>
      <trkpt lat="43.8396457023918628692626953125" lon="4.2659097723662853240966796875">
        <ele>162.600006103515625</ele>
        <time>2024-01-27T09:19:57.000Z</time>
        <extensions>
          <ns3:TrackPointExtension>
            <ns3:hr>149</ns3:hr>
            <ns3:cad>85</ns3:cad>
          </ns3:TrackPointExtension>
        </extensions>
      </trkpt>
      <trkpt lat="43.83963773958384990692138671875" lon="4.26593617536127567291259765625">
        <ele>162.399993896484375</ele>
        <time>2024-01-27T09:19:58.000Z</time>
        <extensions>
          <ns3:TrackPointExtension>
            <ns3:hr>149</ns3:hr>
            <ns3:cad>85</ns3:cad>
          </ns3:TrackPointExtension>
        </extensions>
      </trkpt>
      <trkpt lat="43.83962684310972690582275390625" lon="4.26596567966043949127197265625">
        <ele>162.399993896484375</ele>
        <time>2024-01-27T09:19:59.000Z</time>
        <extensions>
          <ns3:TrackPointExtension>
            <ns3:hr>149</ns3:hr>
            <ns3:cad>86</ns3:cad>
          </ns3:TrackPointExtension>
        </extensions>
      </trkpt>
      <trkpt lat="43.8396168686449527740478515625" lon="4.26598713733255863189697265625">
        <ele>162</ele>
        <time>2024-01-27T09:20:00.000Z</time>
        <extensions>
          <ns3:TrackPointExtension>
            <ns3:hr>149</ns3:hr>
            <ns3:cad>86</ns3:cad>
          </ns3:TrackPointExtension>
        </extensions>
      </trkpt>
      <trkpt lat="43.83960454724729061126708984375" lon="4.26601144485175609588623046875">
        <ele>161.8000030517578125</ele>
        <time>2024-01-27T09:20:01.000Z</time>
        <extensions>
          <ns3:TrackPointExtension>
            <ns3:hr>149</ns3:hr>
            <ns3:cad>86</ns3:cad>
          </ns3:TrackPointExtension>
        </extensions>
      </trkpt>
      <trkpt lat="43.83959264494478702545166015625" lon="4.2660388536751270294189453125">
        <ele>161.8000030517578125</ele>
        <time>2024-01-27T09:20:02.000Z</time>
        <extensions>
          <ns3:TrackPointExtension>
            <ns3:hr>149</ns3:hr>
            <ns3:cad>86</ns3:cad>
          </ns3:TrackPointExtension>
        </extensions>
      </trkpt>
      <trkpt lat="43.83958510123193264007568359375" lon="4.26606894470751285552978515625">
        <ele>161.8000030517578125</ele>
        <time>2024-01-27T09:20:03.000Z</time>
        <extensions>
          <ns3:TrackPointExtension>
            <ns3:hr>149</ns3:hr>
            <ns3:cad>87</ns3:cad>
          </ns3:TrackPointExtension>
        </extensions>
      </trkpt>
      <trkpt lat="43.839579485356807708740234375" lon="4.26609811373054981231689453125">
        <ele>161.8000030517578125</ele>
        <time>2024-01-27T09:20:04.000Z</time>
        <extensions>
          <ns3:TrackPointExtension>
            <ns3:hr>149</ns3:hr>
            <ns3:cad>89</ns3:cad>
          </ns3:TrackPointExtension>
        </extensions>
      </trkpt>
      <trkpt lat="43.83957286365330219268798828125" lon="4.26613591611385345458984375">
        <ele>161.8000030517578125</ele>
        <time>2024-01-27T09:20:05.000Z</time>
        <extensions>
          <ns3:TrackPointExtension>
            <ns3:hr>149</ns3:hr>
            <ns3:cad>89</ns3:cad>
          </ns3:TrackPointExtension>
        </extensions>
      </trkpt>
      <trkpt lat="43.83957269601523876190185546875" lon="4.2661622352898120880126953125">
        <ele>162</ele>
        <time>2024-01-27T09:20:06.000Z</time>
        <extensions>
          <ns3:TrackPointExtension>
            <ns3:hr>150</ns3:hr>
            <ns3:cad>89</ns3:cad>
          </ns3:TrackPointExtension>
        </extensions>
      </trkpt>
      <trkpt lat="43.83957655169069766998291015625" lon="4.26619651727378368377685546875">
        <ele>162.1999969482421875</ele>
        <time>2024-01-27T09:20:07.000Z</time>
        <extensions>
          <ns3:TrackPointExtension>
            <ns3:hr>150</ns3:hr>
            <ns3:cad>89</ns3:cad>
          </ns3:TrackPointExtension>
        </extensions>
      </trkpt>
      <trkpt lat="43.83958493359386920928955078125" lon="4.2662222497165203094482421875">
        <ele>162.1999969482421875</ele>
        <time>2024-01-27T09:20:08.000Z</time>
        <extensions>
          <ns3:TrackPointExtension>
            <ns3:hr>150</ns3:hr>
            <ns3:cad>91</ns3:cad>
          </ns3:TrackPointExtension>
        </extensions>
      </trkpt>
      <trkpt lat="43.83959448896348476409912109375" lon="4.26624714396893978118896484375">
        <ele>162.1999969482421875</ele>
        <time>2024-01-27T09:20:09.000Z</time>
        <extensions>
          <ns3:TrackPointExtension>
            <ns3:hr>150</ns3:hr>
            <ns3:cad>92</ns3:cad>
          </ns3:TrackPointExtension>
        </extensions>
      </trkpt>
      <trkpt lat="43.839602954685688018798828125" lon="4.26626709289848804473876953125">
        <ele>162.1999969482421875</ele>
        <time>2024-01-27T09:20:10.000Z</time>
        <extensions>
          <ns3:TrackPointExtension>
            <ns3:hr>149</ns3:hr>
            <ns3:cad>92</ns3:cad>
          </ns3:TrackPointExtension>
        </extensions>
      </trkpt>
      <trkpt lat="43.83961628191173076629638671875" lon="4.26628880202770233154296875">
        <ele>162.1999969482421875</ele>
        <time>2024-01-27T09:20:11.000Z</time>
        <extensions>
          <ns3:TrackPointExtension>
            <ns3:hr>149</ns3:hr>
            <ns3:cad>90</ns3:cad>
          </ns3:TrackPointExtension>
        </extensions>
      </trkpt>
      <trkpt lat="43.83962935768067836761474609375" lon="4.266304560005664825439453125">
        <ele>162.1999969482421875</ele>
        <time>2024-01-27T09:20:12.000Z</time>
        <extensions>
          <ns3:TrackPointExtension>
            <ns3:hr>148</ns3:hr>
            <ns3:cad>90</ns3:cad>
          </ns3:TrackPointExtension>
        </extensions>
      </trkpt>
      <trkpt lat="43.8396520726382732391357421875" lon="4.26631671376526355743408203125">
        <ele>162</ele>
        <time>2024-01-27T09:20:13.000Z</time>
        <extensions>
          <ns3:TrackPointExtension>
            <ns3:hr>147</ns3:hr>
            <ns3:cad>89</ns3:cad>
          </ns3:TrackPointExtension>
        </extensions>
      </trkpt>
      <trkpt lat="43.83966992609202861785888671875" lon="4.26632367074489593505859375">
        <ele>161.8000030517578125</ele>
        <time>2024-01-27T09:20:14.000Z</time>
        <extensions>
          <ns3:TrackPointExtension>
            <ns3:hr>147</ns3:hr>
            <ns3:cad>89</ns3:cad>
          </ns3:TrackPointExtension>
        </extensions>
      </trkpt>
      <trkpt lat="43.839689455926418304443359375" lon="4.26633305847644805908203125">
        <ele>161.8000030517578125</ele>
        <time>2024-01-27T09:20:15.000Z</time>
        <extensions>
          <ns3:TrackPointExtension>
            <ns3:hr>147</ns3:hr>
            <ns3:cad>89</ns3:cad>
          </ns3:TrackPointExtension>
        </extensions>
      </trkpt>
      <trkpt lat="43.83970160968601703643798828125" lon="4.26634537987411022186279296875">
        <ele>161.600006103515625</ele>
        <time>2024-01-27T09:20:16.000Z</time>
        <extensions>
          <ns3:TrackPointExtension>
            <ns3:hr>146</ns3:hr>
            <ns3:cad>89</ns3:cad>
          </ns3:TrackPointExtension>
        </extensions>
      </trkpt>
      <trkpt lat="43.83972357027232646942138671875" lon="4.2663711123168468475341796875">
        <ele>161.399993896484375</ele>
        <time>2024-01-27T09:20:17.000Z</time>
        <extensions>
          <ns3:TrackPointExtension>
            <ns3:hr>146</ns3:hr>
            <ns3:cad>89</ns3:cad>
          </ns3:TrackPointExtension>
        </extensions>
      </trkpt>
      <trkpt lat="43.8397328741848468780517578125" lon="4.26639902405440807342529296875">
        <ele>161</ele>
        <time>2024-01-27T09:20:18.000Z</time>
        <extensions>
          <ns3:TrackPointExtension>
            <ns3:hr>145</ns3:hr>
            <ns3:cad>89</ns3:cad>
          </ns3:TrackPointExtension>
        </extensions>
      </trkpt>
      <trkpt lat="43.83974133990705013275146484375" lon="4.2664338089525699615478515625">
        <ele>160.600006103515625</ele>
        <time>2024-01-27T09:20:19.000Z</time>
        <extensions>
          <ns3:TrackPointExtension>
            <ns3:hr>145</ns3:hr>
            <ns3:cad>89</ns3:cad>
          </ns3:TrackPointExtension>
        </extensions>
      </trkpt>
      <trkpt lat="43.8397446088492870330810546875" lon="4.26646373234689235687255859375">
        <ele>160.600006103515625</ele>
        <time>2024-01-27T09:20:20.000Z</time>
        <extensions>
          <ns3:TrackPointExtension>
            <ns3:hr>145</ns3:hr>
            <ns3:cad>89</ns3:cad>
          </ns3:TrackPointExtension>
        </extensions>
      </trkpt>
      <trkpt lat="43.83975156582891941070556640625" lon="4.26650111563503742218017578125">
        <ele>160.399993896484375</ele>
        <time>2024-01-27T09:20:21.000Z</time>
        <extensions>
          <ns3:TrackPointExtension>
            <ns3:hr>145</ns3:hr>
            <ns3:cad>89</ns3:cad>
          </ns3:TrackPointExtension>
        </extensions>
      </trkpt>
      <trkpt lat="43.8397586904466152191162109375" lon="4.266535229980945587158203125">
        <ele>160.399993896484375</ele>
        <time>2024-01-27T09:20:22.000Z</time>
        <extensions>
          <ns3:TrackPointExtension>
            <ns3:hr>145</ns3:hr>
            <ns3:cad>89</ns3:cad>
          </ns3:TrackPointExtension>
        </extensions>
      </trkpt>
      <trkpt lat="43.83976782672107219696044921875" lon="4.2665672488510608673095703125">
        <ele>160.1999969482421875</ele>
        <time>2024-01-27T09:20:23.000Z</time>
        <extensions>
          <ns3:TrackPointExtension>
            <ns3:hr>145</ns3:hr>
            <ns3:cad>89</ns3:cad>
          </ns3:TrackPointExtension>
        </extensions>
      </trkpt>
      <trkpt lat="43.839771933853626251220703125" lon="4.26659834571182727813720703125">
        <ele>160.1999969482421875</ele>
        <time>2024-01-27T09:20:24.000Z</time>
        <extensions>
          <ns3:TrackPointExtension>
            <ns3:hr>144</ns3:hr>
            <ns3:cad>89</ns3:cad>
          </ns3:TrackPointExtension>
        </extensions>
      </trkpt>
      <trkpt lat="43.83977168239653110504150390625" lon="4.266641177237033843994140625">
        <ele>160.1999969482421875</ele>
        <time>2024-01-27T09:20:25.000Z</time>
        <extensions>
          <ns3:TrackPointExtension>
            <ns3:hr>144</ns3:hr>
            <ns3:cad>89</ns3:cad>
          </ns3:TrackPointExtension>
        </extensions>
      </trkpt>
      <trkpt lat="43.8397687487304210662841796875" lon="4.266675375401973724365234375">
        <ele>160.399993896484375</ele>
        <time>2024-01-27T09:20:26.000Z</time>
        <extensions>
          <ns3:TrackPointExtension>
            <ns3:hr>144</ns3:hr>
            <ns3:cad>89</ns3:cad>
          </ns3:TrackPointExtension>
        </extensions>
      </trkpt>
      <trkpt lat="43.8397700898349285125732421875" lon="4.26671166904270648956298828125">
        <ele>160.399993896484375</ele>
        <time>2024-01-27T09:20:27.000Z</time>
        <extensions>
          <ns3:TrackPointExtension>
            <ns3:hr>144</ns3:hr>
            <ns3:cad>89</ns3:cad>
          </ns3:TrackPointExtension>
        </extensions>
      </trkpt>
      <trkpt lat="43.83976690471172332763671875" lon="4.2667536623775959014892578125">
        <ele>160.399993896484375</ele>
        <time>2024-01-27T09:20:28.000Z</time>
        <extensions>
          <ns3:TrackPointExtension>
            <ns3:hr>144</ns3:hr>
            <ns3:cad>89</ns3:cad>
          </ns3:TrackPointExtension>
        </extensions>
      </trkpt>
      <trkpt lat="43.83976262994110584259033203125" lon="4.2667865194380283355712890625">
        <ele>160.399993896484375</ele>
        <time>2024-01-27T09:20:29.000Z</time>
        <extensions>
          <ns3:TrackPointExtension>
            <ns3:hr>144</ns3:hr>
            <ns3:cad>89</ns3:cad>
          </ns3:TrackPointExtension>
        </extensions>
      </trkpt>
      <trkpt lat="43.839753828942775726318359375" lon="4.2668197117745876312255859375">
        <ele>160.399993896484375</ele>
        <time>2024-01-27T09:20:30.000Z</time>
        <extensions>
          <ns3:TrackPointExtension>
            <ns3:hr>144</ns3:hr>
            <ns3:cad>89</ns3:cad>
          </ns3:TrackPointExtension>
        </extensions>
      </trkpt>
      <trkpt lat="43.83975240401923656463623046875" lon="4.2668461985886096954345703125">
        <ele>160.399993896484375</ele>
        <time>2024-01-27T09:20:31.000Z</time>
        <extensions>
          <ns3:TrackPointExtension>
            <ns3:hr>145</ns3:hr>
            <ns3:cad>89</ns3:cad>
          </ns3:TrackPointExtension>
        </extensions>
      </trkpt>
      <trkpt lat="43.83976019918918609619140625" lon="4.26687645725905895233154296875">
        <ele>160.399993896484375</ele>
        <time>2024-01-27T09:20:32.000Z</time>
        <extensions>
          <ns3:TrackPointExtension>
            <ns3:hr>145</ns3:hr>
            <ns3:cad>88</ns3:cad>
          </ns3:TrackPointExtension>
        </extensions>
      </trkpt>
      <trkpt lat="43.83976531215012073516845703125" lon="4.2668996751308441162109375">
        <ele>160.399993896484375</ele>
        <time>2024-01-27T09:20:33.000Z</time>
        <extensions>
          <ns3:TrackPointExtension>
            <ns3:hr>145</ns3:hr>
            <ns3:cad>88</ns3:cad>
          </ns3:TrackPointExtension>
        </extensions>
      </trkpt>
      <trkpt lat="43.83977067656815052032470703125" lon="4.2669367231428623199462890625">
        <ele>160.1999969482421875</ele>
        <time>2024-01-27T09:20:34.000Z</time>
        <extensions>
          <ns3:TrackPointExtension>
            <ns3:hr>145</ns3:hr>
            <ns3:cad>88</ns3:cad>
          </ns3:TrackPointExtension>
        </extensions>
      </trkpt>
      <trkpt lat="43.83977654390037059783935546875" lon="4.26696899347007274627685546875">
        <ele>160</ele>
        <time>2024-01-27T09:20:35.000Z</time>
        <extensions>
          <ns3:TrackPointExtension>
            <ns3:hr>146</ns3:hr>
            <ns3:cad>88</ns3:cad>
          </ns3:TrackPointExtension>
        </extensions>
      </trkpt>
      <trkpt lat="43.83978031575679779052734375" lon="4.26700687967240810394287109375">
        <ele>159.8000030517578125</ele>
        <time>2024-01-27T09:20:36.000Z</time>
        <extensions>
          <ns3:TrackPointExtension>
            <ns3:hr>146</ns3:hr>
            <ns3:cad>86</ns3:cad>
          </ns3:TrackPointExtension>
        </extensions>
      </trkpt>
      <trkpt lat="43.839784003794193267822265625" lon="4.267036132514476776123046875">
        <ele>159.8000030517578125</ele>
        <time>2024-01-27T09:20:37.000Z</time>
        <extensions>
          <ns3:TrackPointExtension>
            <ns3:hr>146</ns3:hr>
            <ns3:cad>86</ns3:cad>
          </ns3:TrackPointExtension>
        </extensions>
      </trkpt>
      <trkpt lat="43.8397922180593013763427734375" lon="4.26706857047975063323974609375">
        <ele>159.600006103515625</ele>
        <time>2024-01-27T09:20:38.000Z</time>
        <extensions>
          <ns3:TrackPointExtension>
            <ns3:hr>146</ns3:hr>
            <ns3:cad>86</ns3:cad>
          </ns3:TrackPointExtension>
        </extensions>
      </trkpt>
      <trkpt lat="43.83980236016213893890380859375" lon="4.267094470560550689697265625">
        <ele>159.600006103515625</ele>
        <time>2024-01-27T09:20:39.000Z</time>
        <extensions>
          <ns3:TrackPointExtension>
            <ns3:hr>146</ns3:hr>
            <ns3:cad>88</ns3:cad>
          </ns3:TrackPointExtension>
        </extensions>
      </trkpt>
      <trkpt lat="43.839813508093357086181640625" lon="4.2671221308410167694091796875">
        <ele>159.399993896484375</ele>
        <time>2024-01-27T09:20:40.000Z</time>
        <extensions>
          <ns3:TrackPointExtension>
            <ns3:hr>146</ns3:hr>
            <ns3:cad>88</ns3:cad>
          </ns3:TrackPointExtension>
        </extensions>
      </trkpt>
      <trkpt lat="43.839817531406879425048828125" lon="4.26715138368308544158935546875">
        <ele>159.399993896484375</ele>
        <time>2024-01-27T09:20:41.000Z</time>
        <extensions>
          <ns3:TrackPointExtension>
            <ns3:hr>146</ns3:hr>
            <ns3:cad>89</ns3:cad>
          </ns3:TrackPointExtension>
        </extensions>
      </trkpt>
      <trkpt lat="43.83982012979686260223388671875" lon="4.26718675531446933746337890625">
        <ele>159.399993896484375</ele>
        <time>2024-01-27T09:20:42.000Z</time>
        <extensions>
          <ns3:TrackPointExtension>
            <ns3:hr>146</ns3:hr>
            <ns3:cad>89</ns3:cad>
          </ns3:TrackPointExtension>
        </extensions>
      </trkpt>
      <trkpt lat="43.83982381783425807952880859375" lon="4.26721408031880855560302734375">
        <ele>158.399993896484375</ele>
        <time>2024-01-27T09:20:43.000Z</time>
        <extensions>
          <ns3:TrackPointExtension>
            <ns3:hr>146</ns3:hr>
            <ns3:cad>89</ns3:cad>
          </ns3:TrackPointExtension>
        </extensions>
      </trkpt>
      <trkpt lat="43.8398230634629726409912109375" lon="4.2672411538660526275634765625">
        <ele>158</ele>
        <time>2024-01-27T09:20:44.000Z</time>
        <extensions>
          <ns3:TrackPointExtension>
            <ns3:hr>146</ns3:hr>
            <ns3:cad>89</ns3:cad>
          </ns3:TrackPointExtension>
        </extensions>
      </trkpt>
      <trkpt lat="43.83981593884527683258056640625" lon="4.26726378500461578369140625">
        <ele>157.8000030517578125</ele>
        <time>2024-01-27T09:20:45.000Z</time>
        <extensions>
          <ns3:TrackPointExtension>
            <ns3:hr>147</ns3:hr>
            <ns3:cad>89</ns3:cad>
          </ns3:TrackPointExtension>
        </extensions>
      </trkpt>
      <trkpt lat="43.83981007151305675506591796875" lon="4.26728767342865467071533203125">
        <ele>157.600006103515625</ele>
        <time>2024-01-27T09:20:46.000Z</time>
        <extensions>
          <ns3:TrackPointExtension>
            <ns3:hr>147</ns3:hr>
            <ns3:cad>89</ns3:cad>
          </ns3:TrackPointExtension>
        </extensions>
      </trkpt>
      <trkpt lat="43.83980722166597843170166015625" lon="4.267322458326816558837890625">
        <ele>157.600006103515625</ele>
        <time>2024-01-27T09:20:47.000Z</time>
        <extensions>
          <ns3:TrackPointExtension>
            <ns3:hr>147</ns3:hr>
            <ns3:cad>88</ns3:cad>
          </ns3:TrackPointExtension>
        </extensions>
      </trkpt>
      <trkpt lat="43.83981359191238880157470703125" lon="4.26735405810177326202392578125">
        <ele>157.600006103515625</ele>
        <time>2024-01-27T09:20:48.000Z</time>
        <extensions>
          <ns3:TrackPointExtension>
            <ns3:hr>147</ns3:hr>
            <ns3:cad>87</ns3:cad>
          </ns3:TrackPointExtension>
        </extensions>
      </trkpt>
      <trkpt lat="43.83982331492006778717041015625" lon="4.267386831343173980712890625">
        <ele>157.399993896484375</ele>
        <time>2024-01-27T09:20:49.000Z</time>
        <extensions>
          <ns3:TrackPointExtension>
            <ns3:hr>147</ns3:hr>
            <ns3:cad>87</ns3:cad>
          </ns3:TrackPointExtension>
        </extensions>
      </trkpt>
      <trkpt lat="43.83983588777482509613037109375" lon="4.267408959567546844482421875">
        <ele>157.399993896484375</ele>
        <time>2024-01-27T09:20:50.000Z</time>
        <extensions>
          <ns3:TrackPointExtension>
            <ns3:hr>147</ns3:hr>
            <ns3:cad>87</ns3:cad>
          </ns3:TrackPointExtension>
        </extensions>
      </trkpt>
      <trkpt lat="43.839851729571819305419921875" lon="4.26742337644100189208984375">
        <ele>157.1999969482421875</ele>
        <time>2024-01-27T09:20:51.000Z</time>
        <extensions>
          <ns3:TrackPointExtension>
            <ns3:hr>147</ns3:hr>
            <ns3:cad>87</ns3:cad>
          </ns3:TrackPointExtension>
        </extensions>
      </trkpt>
      <trkpt lat="43.839866816997528076171875" lon="4.26743251271545886993408203125">
        <ele>157</ele>
        <time>2024-01-27T09:20:52.000Z</time>
        <extensions>
          <ns3:TrackPointExtension>
            <ns3:hr>146</ns3:hr>
            <ns3:cad>87</ns3:cad>
          </ns3:TrackPointExtension>
        </extensions>
      </trkpt>
      <trkpt lat="43.83987997658550739288330078125" lon="4.2674387991428375244140625">
        <ele>156.8000030517578125</ele>
        <time>2024-01-27T09:20:53.000Z</time>
        <extensions>
          <ns3:TrackPointExtension>
            <ns3:hr>146</ns3:hr>
            <ns3:cad>87</ns3:cad>
          </ns3:TrackPointExtension>
        </extensions>
      </trkpt>
      <trkpt lat="43.83989523164927959442138671875" lon="4.2674533836543560028076171875">
        <ele>156.8000030517578125</ele>
        <time>2024-01-27T09:20:54.000Z</time>
        <extensions>
          <ns3:TrackPointExtension>
            <ns3:hr>146</ns3:hr>
            <ns3:cad>88</ns3:cad>
          </ns3:TrackPointExtension>
        </extensions>
      </trkpt>
      <trkpt lat="43.8399109058082103729248046875" lon="4.26747165620326995849609375">
        <ele>156.399993896484375</ele>
        <time>2024-01-27T09:20:55.000Z</time>
        <extensions>
          <ns3:TrackPointExtension>
            <ns3:hr>144</ns3:hr>
            <ns3:cad>90</ns3:cad>
          </ns3:TrackPointExtension>
        </extensions>
      </trkpt>
      <trkpt lat="43.8399233110249042510986328125" lon="4.2674949578940868377685546875">
        <ele>156</ele>
        <time>2024-01-27T09:20:56.000Z</time>
        <extensions>
          <ns3:TrackPointExtension>
            <ns3:hr>144</ns3:hr>
            <ns3:cad>90</ns3:cad>
          </ns3:TrackPointExtension>
        </extensions>
      </trkpt>
      <trkpt lat="43.83993496187031269073486328125" lon="4.26752102561295032501220703125">
        <ele>155.399993896484375</ele>
        <time>2024-01-27T09:20:57.000Z</time>
        <extensions>
          <ns3:TrackPointExtension>
            <ns3:hr>143</ns3:hr>
            <ns3:cad>90</ns3:cad>
          </ns3:TrackPointExtension>
        </extensions>
      </trkpt>
      <trkpt lat="43.83994284085929393768310546875" lon="4.267547763884067535400390625">
        <ele>155</ele>
        <time>2024-01-27T09:20:58.000Z</time>
        <extensions>
          <ns3:TrackPointExtension>
            <ns3:hr>143</ns3:hr>
            <ns3:cad>89</ns3:cad>
          </ns3:TrackPointExtension>
        </extensions>
      </trkpt>
      <trkpt lat="43.8399531506001949310302734375" lon="4.26757282577455043792724609375">
        <ele>154.1999969482421875</ele>
        <time>2024-01-27T09:20:59.000Z</time>
        <extensions>
          <ns3:TrackPointExtension>
            <ns3:hr>142</ns3:hr>
            <ns3:cad>89</ns3:cad>
          </ns3:TrackPointExtension>
        </extensions>
      </trkpt>
      <trkpt lat="43.83996270596981048583984375" lon="4.26759906113147735595703125">
        <ele>153.600006103515625</ele>
        <time>2024-01-27T09:21:00.000Z</time>
        <extensions>
          <ns3:TrackPointExtension>
            <ns3:hr>142</ns3:hr>
            <ns3:cad>89</ns3:cad>
          </ns3:TrackPointExtension>
        </extensions>
      </trkpt>
      <trkpt lat="43.839968740940093994140625" lon="4.26761808805167675018310546875">
        <ele>153.399993896484375</ele>
        <time>2024-01-27T09:21:01.000Z</time>
        <extensions>
          <ns3:TrackPointExtension>
            <ns3:hr>141</ns3:hr>
            <ns3:cad>89</ns3:cad>
          </ns3:TrackPointExtension>
        </extensions>
      </trkpt>
      <trkpt lat="43.8399727642536163330078125" lon="4.267648346722126007080078125">
        <ele>153.399993896484375</ele>
        <time>2024-01-27T09:21:02.000Z</time>
        <extensions>
          <ns3:TrackPointExtension>
            <ns3:hr>141</ns3:hr>
            <ns3:cad>89</ns3:cad>
          </ns3:TrackPointExtension>
        </extensions>
      </trkpt>
      <trkpt lat="43.83997452445328235626220703125" lon="4.2676770128309726715087890625">
        <ele>153</ele>
        <time>2024-01-27T09:21:03.000Z</time>
        <extensions>
          <ns3:TrackPointExtension>
            <ns3:hr>141</ns3:hr>
            <ns3:cad>89</ns3:cad>
          </ns3:TrackPointExtension>
        </extensions>
      </trkpt>
      <trkpt lat="43.839975111186504364013671875" lon="4.26770827732980251312255859375">
        <ele>152.8000030517578125</ele>
        <time>2024-01-27T09:21:04.000Z</time>
        <extensions>
          <ns3:TrackPointExtension>
            <ns3:hr>141</ns3:hr>
            <ns3:cad>89</ns3:cad>
          </ns3:TrackPointExtension>
        </extensions>
      </trkpt>
      <trkpt lat="43.839976452291011810302734375" lon="4.267736189067363739013671875">
        <ele>152.600006103515625</ele>
        <time>2024-01-27T09:21:05.000Z</time>
        <extensions>
          <ns3:TrackPointExtension>
            <ns3:hr>141</ns3:hr>
            <ns3:cad>89</ns3:cad>
          </ns3:TrackPointExtension>
        </extensions>
      </trkpt>
      <trkpt lat="43.83997418917715549468994140625" lon="4.267772398889064788818359375">
        <ele>152.1999969482421875</ele>
        <time>2024-01-27T09:21:06.000Z</time>
        <extensions>
          <ns3:TrackPointExtension>
            <ns3:hr>141</ns3:hr>
            <ns3:cad>84</ns3:cad>
          </ns3:TrackPointExtension>
        </extensions>
      </trkpt>
      <trkpt lat="43.83997268043458461761474609375" lon="4.2677982151508331298828125">
        <ele>152.1999969482421875</ele>
        <time>2024-01-27T09:21:07.000Z</time>
        <extensions>
          <ns3:TrackPointExtension>
            <ns3:hr>141</ns3:hr>
            <ns3:cad>84</ns3:cad>
          </ns3:TrackPointExtension>
        </extensions>
      </trkpt>
      <trkpt lat="43.8399682380259037017822265625" lon="4.26782880909740924835205078125">
        <ele>152</ele>
        <time>2024-01-27T09:21:08.000Z</time>
        <extensions>
          <ns3:TrackPointExtension>
            <ns3:hr>141</ns3:hr>
            <ns3:cad>84</ns3:cad>
          </ns3:TrackPointExtension>
        </extensions>
      </trkpt>
      <trkpt lat="43.839964382350444793701171875" lon="4.2678537033498287200927734375">
        <ele>151.8000030517578125</ele>
        <time>2024-01-27T09:21:09.000Z</time>
        <extensions>
          <ns3:TrackPointExtension>
            <ns3:hr>141</ns3:hr>
            <ns3:cad>93</ns3:cad>
          </ns3:TrackPointExtension>
        </extensions>
      </trkpt>
      <trkpt lat="43.83995960466563701629638671875" lon="4.26787910051643848419189453125">
        <ele>151.600006103515625</ele>
        <time>2024-01-27T09:21:10.000Z</time>
        <extensions>
          <ns3:TrackPointExtension>
            <ns3:hr>141</ns3:hr>
            <ns3:cad>93</ns3:cad>
          </ns3:TrackPointExtension>
        </extensions>
      </trkpt>
      <trkpt lat="43.83996144868433475494384765625" lon="4.26789854653179645538330078125">
        <ele>151.600006103515625</ele>
        <time>2024-01-27T09:21:11.000Z</time>
        <extensions>
          <ns3:TrackPointExtension>
            <ns3:hr>141</ns3:hr>
            <ns3:cad>93</ns3:cad>
          </ns3:TrackPointExtension>
        </extensions>
      </trkpt>
      <trkpt lat="43.83996999822556972503662109375" lon="4.26792369224131107330322265625">
        <ele>151.1999969482421875</ele>
        <time>2024-01-27T09:21:12.000Z</time>
        <extensions>
          <ns3:TrackPointExtension>
            <ns3:hr>141</ns3:hr>
            <ns3:cad>93</ns3:cad>
          </ns3:TrackPointExtension>
        </extensions>
      </trkpt>
      <trkpt lat="43.83997988887131214141845703125" lon="4.26794230006635189056396484375">
        <ele>151</ele>
        <time>2024-01-27T09:21:13.000Z</time>
        <extensions>
          <ns3:TrackPointExtension>
            <ns3:hr>142</ns3:hr>
            <ns3:cad>93</ns3:cad>
          </ns3:TrackPointExtension>
        </extensions>
      </trkpt>
      <trkpt lat="43.83999489247798919677734375" lon="4.267959482967853546142578125">
        <ele>150.8000030517578125</ele>
        <time>2024-01-27T09:21:14.000Z</time>
        <extensions>
          <ns3:TrackPointExtension>
            <ns3:hr>144</ns3:hr>
            <ns3:cad>93</ns3:cad>
          </ns3:TrackPointExtension>
        </extensions>
      </trkpt>
      <trkpt lat="43.84001056663691997528076171875" lon="4.267976246774196624755859375">
        <ele>150.8000030517578125</ele>
        <time>2024-01-27T09:21:15.000Z</time>
        <extensions>
          <ns3:TrackPointExtension>
            <ns3:hr>147</ns3:hr>
            <ns3:cad>93</ns3:cad>
          </ns3:TrackPointExtension>
        </extensions>
      </trkpt>
      <trkpt lat="43.84002766571938991546630859375" lon="4.2679837904870510101318359375">
        <ele>150.600006103515625</ele>
        <time>2024-01-27T09:21:16.000Z</time>
        <extensions>
          <ns3:TrackPointExtension>
            <ns3:hr>148</ns3:hr>
            <ns3:cad>93</ns3:cad>
          </ns3:TrackPointExtension>
        </extensions>
      </trkpt>
      <trkpt lat="43.84004593826830387115478515625" lon="4.26799326203763484954833984375">
        <ele>150.1999969482421875</ele>
        <time>2024-01-27T09:21:17.000Z</time>
        <extensions>
          <ns3:TrackPointExtension>
            <ns3:hr>148</ns3:hr>
            <ns3:cad>92</ns3:cad>
          </ns3:TrackPointExtension>
        </extensions>
      </trkpt>
      <trkpt lat="43.84006102569401264190673828125" lon="4.2680039070546627044677734375">
        <ele>149.8000030517578125</ele>
        <time>2024-01-27T09:21:18.000Z</time>
        <extensions>
          <ns3:TrackPointExtension>
            <ns3:hr>149</ns3:hr>
            <ns3:cad>90</ns3:cad>
          </ns3:TrackPointExtension>
        </extensions>
      </trkpt>
      <trkpt lat="43.84007527492940425872802734375" lon="4.26802276633679866790771484375">
        <ele>149.600006103515625</ele>
        <time>2024-01-27T09:21:19.000Z</time>
        <extensions>
          <ns3:TrackPointExtension>
            <ns3:hr>149</ns3:hr>
            <ns3:cad>90</ns3:cad>
          </ns3:TrackPointExtension>
        </extensions>
      </trkpt>
      <trkpt lat="43.84008298628032207489013671875" lon="4.2680401168763637542724609375">
        <ele>149.1999969482421875</ele>
        <time>2024-01-27T09:21:20.000Z</time>
        <extensions>
          <ns3:TrackPointExtension>
            <ns3:hr>150</ns3:hr>
            <ns3:cad>92</ns3:cad>
          </ns3:TrackPointExtension>
        </extensions>
      </trkpt>
      <trkpt lat="43.840096481144428253173828125" lon="4.26805897615849971771240234375">
        <ele>148.600006103515625</ele>
        <time>2024-01-27T09:21:21.000Z</time>
        <extensions>
          <ns3:TrackPointExtension>
            <ns3:hr>151</ns3:hr>
            <ns3:cad>93</ns3:cad>
          </ns3:TrackPointExtension>
        </extensions>
      </trkpt>
      <trkpt lat="43.84010276757180690765380859375" lon="4.2680843733251094818115234375">
        <ele>148.399993896484375</ele>
        <time>2024-01-27T09:21:22.000Z</time>
        <extensions>
          <ns3:TrackPointExtension>
            <ns3:hr>151</ns3:hr>
            <ns3:cad>93</ns3:cad>
          </ns3:TrackPointExtension>
        </extensions>
      </trkpt>
      <trkpt lat="43.8401068747043609619140625" lon="4.268111698329448699951171875">
        <ele>148.1999969482421875</ele>
        <time>2024-01-27T09:21:23.000Z</time>
        <extensions>
          <ns3:TrackPointExtension>
            <ns3:hr>151</ns3:hr>
            <ns3:cad>93</ns3:cad>
          </ns3:TrackPointExtension>
        </extensions>
      </trkpt>
      <trkpt lat="43.840097486972808837890625" lon="4.26814631558954715728759765625">
        <ele>148</ele>
        <time>2024-01-27T09:21:24.000Z</time>
        <extensions>
          <ns3:TrackPointExtension>
            <ns3:hr>151</ns3:hr>
            <ns3:cad>91</ns3:cad>
          </ns3:TrackPointExtension>
        </extensions>
      </trkpt>
      <trkpt lat="43.8400882668793201446533203125" lon="4.2681715451180934906005859375">
        <ele>147.8000030517578125</ele>
        <time>2024-01-27T09:21:25.000Z</time>
        <extensions>
          <ns3:TrackPointExtension>
            <ns3:hr>151</ns3:hr>
            <ns3:cad>90</ns3:cad>
          </ns3:TrackPointExtension>
        </extensions>
      </trkpt>
      <trkpt lat="43.840067647397518157958984375" lon="4.268197529017925262451171875">
        <ele>147.399993896484375</ele>
        <time>2024-01-27T09:21:26.000Z</time>
        <extensions>
          <ns3:TrackPointExtension>
            <ns3:hr>151</ns3:hr>
            <ns3:cad>88</ns3:cad>
          </ns3:TrackPointExtension>
        </extensions>
      </trkpt>
      <trkpt lat="43.84005255997180938720703125" lon="4.2682198248803615570068359375">
        <ele>147.1999969482421875</ele>
        <time>2024-01-27T09:21:27.000Z</time>
        <extensions>
          <ns3:TrackPointExtension>
            <ns3:hr>151</ns3:hr>
            <ns3:cad>87</ns3:cad>
          </ns3:TrackPointExtension>
        </extensions>
      </trkpt>
      <trkpt lat="43.84003554470837116241455078125" lon="4.26825108937919139862060546875">
        <ele>147</ele>
        <time>2024-01-27T09:21:28.000Z</time>
        <extensions>
          <ns3:TrackPointExtension>
            <ns3:hr>151</ns3:hr>
            <ns3:cad>87</ns3:cad>
          </ns3:TrackPointExtension>
        </extensions>
      </trkpt>
      <trkpt lat="43.8400259055197238922119140625" lon="4.2682771570980548858642578125">
        <ele>147</ele>
        <time>2024-01-27T09:21:29.000Z</time>
        <extensions>
          <ns3:TrackPointExtension>
            <ns3:hr>150</ns3:hr>
            <ns3:cad>88</ns3:cad>
          </ns3:TrackPointExtension>
        </extensions>
      </trkpt>
      <trkpt lat="43.84001609869301319122314453125" lon="4.2683126963675022125244140625">
        <ele>146.8000030517578125</ele>
        <time>2024-01-27T09:21:30.000Z</time>
        <extensions>
          <ns3:TrackPointExtension>
            <ns3:hr>149</ns3:hr>
            <ns3:cad>88</ns3:cad>
          </ns3:TrackPointExtension>
        </extensions>
      </trkpt>
      <trkpt lat="43.84000889025628566741943359375" lon="4.268339686095714569091796875">
        <ele>146.8000030517578125</ele>
        <time>2024-01-27T09:21:31.000Z</time>
        <extensions>
          <ns3:TrackPointExtension>
            <ns3:hr>147</ns3:hr>
            <ns3:cad>88</ns3:cad>
          </ns3:TrackPointExtension>
        </extensions>
      </trkpt>
      <trkpt lat="43.840000927448272705078125" lon="4.2683717049658298492431640625">
        <ele>146.600006103515625</ele>
        <time>2024-01-27T09:21:32.000Z</time>
        <extensions>
          <ns3:TrackPointExtension>
            <ns3:hr>146</ns3:hr>
            <ns3:cad>88</ns3:cad>
          </ns3:TrackPointExtension>
        </extensions>
      </trkpt>
      <trkpt lat="43.83999397046864032745361328125" lon="4.268398694694042205810546875">
        <ele>146.399993896484375</ele>
        <time>2024-01-27T09:21:33.000Z</time>
        <extensions>
          <ns3:TrackPointExtension>
            <ns3:hr>145</ns3:hr>
            <ns3:cad>89</ns3:cad>
          </ns3:TrackPointExtension>
        </extensions>
      </trkpt>
      <trkpt lat="43.83999221026897430419921875" lon="4.26842509768903255462646484375">
        <ele>146.1999969482421875</ele>
        <time>2024-01-27T09:21:34.000Z</time>
        <extensions>
          <ns3:TrackPointExtension>
            <ns3:hr>145</ns3:hr>
            <ns3:cad>88</ns3:cad>
          </ns3:TrackPointExtension>
        </extensions>
      </trkpt>
      <trkpt lat="43.83999715559184551239013671875" lon="4.2684451304376125335693359375">
        <ele>145.8000030517578125</ele>
        <time>2024-01-27T09:21:35.000Z</time>
        <extensions>
          <ns3:TrackPointExtension>
            <ns3:hr>145</ns3:hr>
            <ns3:cad>88</ns3:cad>
          </ns3:TrackPointExtension>
        </extensions>
      </trkpt>
      <trkpt lat="43.84001777507364749908447265625" lon="4.26844236440956592559814453125">
        <ele>145.600006103515625</ele>
        <time>2024-01-27T09:21:36.000Z</time>
        <extensions>
          <ns3:TrackPointExtension>
            <ns3:hr>145</ns3:hr>
            <ns3:cad>88</ns3:cad>
          </ns3:TrackPointExtension>
        </extensions>
      </trkpt>
      <trkpt lat="43.8400376401841640472412109375" lon="4.26843146793544292449951171875">
        <ele>145</ele>
        <time>2024-01-27T09:21:37.000Z</time>
        <extensions>
          <ns3:TrackPointExtension>
            <ns3:hr>145</ns3:hr>
            <ns3:cad>88</ns3:cad>
          </ns3:TrackPointExtension>
        </extensions>
      </trkpt>
      <trkpt lat="43.840062953531742095947265625" lon="4.26841671578586101531982421875">
        <ele>145</ele>
        <time>2024-01-27T09:21:38.000Z</time>
        <extensions>
          <ns3:TrackPointExtension>
            <ns3:hr>145</ns3:hr>
            <ns3:cad>88</ns3:cad>
          </ns3:TrackPointExtension>
        </extensions>
      </trkpt>
      <trkpt lat="43.84008751250803470611572265625" lon="4.26840414293110370635986328125">
        <ele>144.8000030517578125</ele>
        <time>2024-01-27T09:21:39.000Z</time>
        <extensions>
          <ns3:TrackPointExtension>
            <ns3:hr>145</ns3:hr>
            <ns3:cad>88</ns3:cad>
          </ns3:TrackPointExtension>
        </extensions>
      </trkpt>
      <trkpt lat="43.84011031128466129302978515625" lon="4.26838888786733150482177734375">
        <ele>144.600006103515625</ele>
        <time>2024-01-27T09:21:40.000Z</time>
        <extensions>
          <ns3:TrackPointExtension>
            <ns3:hr>145</ns3:hr>
            <ns3:cad>88</ns3:cad>
          </ns3:TrackPointExtension>
        </extensions>
      </trkpt>
      <trkpt lat="43.84013160131871700286865234375" lon="4.2683794163167476654052734375">
        <ele>144.600006103515625</ele>
        <time>2024-01-27T09:21:41.000Z</time>
        <extensions>
          <ns3:TrackPointExtension>
            <ns3:hr>145</ns3:hr>
            <ns3:cad>88</ns3:cad>
          </ns3:TrackPointExtension>
        </extensions>
      </trkpt>
      <trkpt lat="43.84015490300953388214111328125" lon="4.26837212406098842620849609375">
        <ele>144.399993896484375</ele>
        <time>2024-01-27T09:21:42.000Z</time>
        <extensions>
          <ns3:TrackPointExtension>
            <ns3:hr>145</ns3:hr>
            <ns3:cad>89</ns3:cad>
          </ns3:TrackPointExtension>
        </extensions>
      </trkpt>
      <trkpt lat="43.84017786942422389984130859375" lon="4.26836340688169002532958984375">
        <ele>144.1999969482421875</ele>
        <time>2024-01-27T09:21:43.000Z</time>
        <extensions>
          <ns3:TrackPointExtension>
            <ns3:hr>145</ns3:hr>
            <ns3:cad>89</ns3:cad>
          </ns3:TrackPointExtension>
        </extensions>
      </trkpt>
      <trkpt lat="43.84019999764859676361083984375" lon="4.2683522589504718780517578125">
        <ele>144</ele>
        <time>2024-01-27T09:21:44.000Z</time>
        <extensions>
          <ns3:TrackPointExtension>
            <ns3:hr>145</ns3:hr>
            <ns3:cad>89</ns3:cad>
          </ns3:TrackPointExtension>
        </extensions>
      </trkpt>
      <trkpt lat="43.84022447280585765838623046875" lon="4.268343038856983184814453125">
        <ele>143.8000030517578125</ele>
        <time>2024-01-27T09:21:45.000Z</time>
        <extensions>
          <ns3:TrackPointExtension>
            <ns3:hr>145</ns3:hr>
            <ns3:cad>89</ns3:cad>
          </ns3:TrackPointExtension>
        </extensions>
      </trkpt>
      <trkpt lat="43.840245343744754791259765625" lon="4.26833239383995532989501953125">
        <ele>143.399993896484375</ele>
        <time>2024-01-27T09:21:46.000Z</time>
        <extensions>
          <ns3:TrackPointExtension>
            <ns3:hr>145</ns3:hr>
            <ns3:cad>88</ns3:cad>
          </ns3:TrackPointExtension>
        </extensions>
      </trkpt>
      <trkpt lat="43.8402676396071910858154296875" lon="4.2683254368603229522705078125">
        <ele>143.1999969482421875</ele>
        <time>2024-01-27T09:21:47.000Z</time>
        <extensions>
          <ns3:TrackPointExtension>
            <ns3:hr>145</ns3:hr>
            <ns3:cad>88</ns3:cad>
          </ns3:TrackPointExtension>
        </extensions>
      </trkpt>
      <trkpt lat="43.84028214029967784881591796875" lon="4.26832686178386211395263671875">
        <ele>142.8000030517578125</ele>
        <time>2024-01-27T09:21:48.000Z</time>
        <extensions>
          <ns3:TrackPointExtension>
            <ns3:hr>145</ns3:hr>
            <ns3:cad>88</ns3:cad>
          </ns3:TrackPointExtension>
        </extensions>
      </trkpt>
      <trkpt lat="43.84030192159116268157958984375" lon="4.2683267779648303985595703125">
        <ele>142.8000030517578125</ele>
        <time>2024-01-27T09:21:49.000Z</time>
        <extensions>
          <ns3:TrackPointExtension>
            <ns3:hr>145</ns3:hr>
            <ns3:cad>88</ns3:cad>
          </ns3:TrackPointExtension>
        </extensions>
      </trkpt>
      <trkpt lat="43.84032203815877437591552734375" lon="4.26832191646099090576171875">
        <ele>142.399993896484375</ele>
        <time>2024-01-27T09:21:50.000Z</time>
        <extensions>
          <ns3:TrackPointExtension>
            <ns3:hr>145</ns3:hr>
            <ns3:cad>88</ns3:cad>
          </ns3:TrackPointExtension>
        </extensions>
      </trkpt>
      <trkpt lat="43.84034047834575176239013671875" lon="4.2683187313377857208251953125">
        <ele>142.1999969482421875</ele>
        <time>2024-01-27T09:21:51.000Z</time>
        <extensions>
          <ns3:TrackPointExtension>
            <ns3:hr>145</ns3:hr>
            <ns3:cad>88</ns3:cad>
          </ns3:TrackPointExtension>
        </extensions>
      </trkpt>
      <trkpt lat="43.8403611816465854644775390625" lon="4.2683150433003902435302734375">
        <ele>141.8000030517578125</ele>
        <time>2024-01-27T09:21:52.000Z</time>
        <extensions>
          <ns3:TrackPointExtension>
            <ns3:hr>145</ns3:hr>
            <ns3:cad>88</ns3:cad>
          </ns3:TrackPointExtension>
        </extensions>
      </trkpt>
      <trkpt lat="43.8403816334903240203857421875" lon="4.26831563003361225128173828125">
        <ele>141.1999969482421875</ele>
        <time>2024-01-27T09:21:53.000Z</time>
        <extensions>
          <ns3:TrackPointExtension>
            <ns3:hr>145</ns3:hr>
            <ns3:cad>89</ns3:cad>
          </ns3:TrackPointExtension>
        </extensions>
      </trkpt>
      <trkpt lat="43.84040267206728458404541015625" lon="4.26831278018653392791748046875">
        <ele>140.8000030517578125</ele>
        <time>2024-01-27T09:21:54.000Z</time>
        <extensions>
          <ns3:TrackPointExtension>
            <ns3:hr>145</ns3:hr>
            <ns3:cad>90</ns3:cad>
          </ns3:TrackPointExtension>
        </extensions>
      </trkpt>
      <trkpt lat="43.84042245335876941680908203125" lon="4.26831244491040706634521484375">
        <ele>140.600006103515625</ele>
        <time>2024-01-27T09:21:55.000Z</time>
        <extensions>
          <ns3:TrackPointExtension>
            <ns3:hr>145</ns3:hr>
            <ns3:cad>90</ns3:cad>
          </ns3:TrackPointExtension>
        </extensions>
      </trkpt>
      <trkpt lat="43.840443827211856842041015625" lon="4.268317557871341705322265625">
        <ele>140.1999969482421875</ele>
        <time>2024-01-27T09:21:56.000Z</time>
        <extensions>
          <ns3:TrackPointExtension>
            <ns3:hr>144</ns3:hr>
            <ns3:cad>92</ns3:cad>
          </ns3:TrackPointExtension>
        </extensions>
      </trkpt>
      <trkpt lat="43.84046620689332485198974609375" lon="4.268335998058319091796875">
        <ele>140</ele>
        <time>2024-01-27T09:21:57.000Z</time>
        <extensions>
          <ns3:TrackPointExtension>
            <ns3:hr>144</ns3:hr>
            <ns3:cad>92</ns3:cad>
          </ns3:TrackPointExtension>
        </extensions>
      </trkpt>
      <trkpt lat="43.84048749692738056182861328125" lon="4.2683549411594867706298828125">
        <ele>139.600006103515625</ele>
        <time>2024-01-27T09:21:58.000Z</time>
        <extensions>
          <ns3:TrackPointExtension>
            <ns3:hr>145</ns3:hr>
            <ns3:cad>90</ns3:cad>
          </ns3:TrackPointExtension>
        </extensions>
      </trkpt>
      <trkpt lat="43.8405026681721210479736328125" lon="4.2683995328843593597412109375">
        <ele>139.600006103515625</ele>
        <time>2024-01-27T09:21:59.000Z</time>
        <extensions>
          <ns3:TrackPointExtension>
            <ns3:hr>145</ns3:hr>
            <ns3:cad>89</ns3:cad>
          </ns3:TrackPointExtension>
        </extensions>
      </trkpt>
      <trkpt lat="43.84051046334207057952880859375" lon="4.2684414424002170562744140625">
        <ele>139.1999969482421875</ele>
        <time>2024-01-27T09:22:00.000Z</time>
        <extensions>
          <ns3:TrackPointExtension>
            <ns3:hr>145</ns3:hr>
            <ns3:cad>88</ns3:cad>
          </ns3:TrackPointExtension>
        </extensions>
      </trkpt>
      <trkpt lat="43.8405066914856433868408203125" lon="4.2684883810579776763916015625">
        <ele>139</ele>
        <time>2024-01-27T09:22:01.000Z</time>
        <extensions>
          <ns3:TrackPointExtension>
            <ns3:hr>144</ns3:hr>
            <ns3:cad>88</ns3:cad>
          </ns3:TrackPointExtension>
        </extensions>
      </trkpt>
      <trkpt lat="43.840496800839900970458984375" lon="4.2685229144990444183349609375">
        <ele>138.8000030517578125</ele>
        <time>2024-01-27T09:22:02.000Z</time>
        <extensions>
          <ns3:TrackPointExtension>
            <ns3:hr>144</ns3:hr>
            <ns3:cad>88</ns3:cad>
          </ns3:TrackPointExtension>
        </extensions>
      </trkpt>
      <trkpt lat="43.84048045612871646881103515625" lon="4.26855619065463542938232421875">
        <ele>138.399993896484375</ele>
        <time>2024-01-27T09:22:03.000Z</time>
        <extensions>
          <ns3:TrackPointExtension>
            <ns3:hr>144</ns3:hr>
            <ns3:cad>88</ns3:cad>
          </ns3:TrackPointExtension>
        </extensions>
      </trkpt>
      <trkpt lat="43.8404627703130245208740234375" lon="4.26859038881957530975341796875">
        <ele>138.1999969482421875</ele>
        <time>2024-01-27T09:22:04.000Z</time>
        <extensions>
          <ns3:TrackPointExtension>
            <ns3:hr>144</ns3:hr>
            <ns3:cad>88</ns3:cad>
          </ns3:TrackPointExtension>
        </extensions>
      </trkpt>
      <trkpt lat="43.8404463417828083038330078125" lon="4.2686231620609760284423828125">
        <ele>138</ele>
        <time>2024-01-27T09:22:05.000Z</time>
        <extensions>
          <ns3:TrackPointExtension>
            <ns3:hr>144</ns3:hr>
            <ns3:cad>88</ns3:cad>
          </ns3:TrackPointExtension>
        </extensions>
      </trkpt>
      <trkpt lat="43.840426392853260040283203125" lon="4.268664903938770294189453125">
        <ele>137.8000030517578125</ele>
        <time>2024-01-27T09:22:06.000Z</time>
        <extensions>
          <ns3:TrackPointExtension>
            <ns3:hr>144</ns3:hr>
            <ns3:cad>88</ns3:cad>
          </ns3:TrackPointExtension>
        </extensions>
      </trkpt>
      <trkpt lat="43.84041172452270984649658203125" lon="4.2686969228088855743408203125">
        <ele>137.600006103515625</ele>
        <time>2024-01-27T09:22:07.000Z</time>
        <extensions>
          <ns3:TrackPointExtension>
            <ns3:hr>144</ns3:hr>
            <ns3:cad>87</ns3:cad>
          </ns3:TrackPointExtension>
        </extensions>
      </trkpt>
      <trkpt lat="43.84039244614541530609130859375" lon="4.2687327973544597625732421875">
        <ele>137.600006103515625</ele>
        <time>2024-01-27T09:22:08.000Z</time>
        <extensions>
          <ns3:TrackPointExtension>
            <ns3:hr>144</ns3:hr>
            <ns3:cad>87</ns3:cad>
          </ns3:TrackPointExtension>
        </extensions>
      </trkpt>
      <trkpt lat="43.84037501178681850433349609375" lon="4.26876154728233814239501953125">
        <ele>137.399993896484375</ele>
        <time>2024-01-27T09:22:09.000Z</time>
        <extensions>
          <ns3:TrackPointExtension>
            <ns3:hr>144</ns3:hr>
            <ns3:cad>86</ns3:cad>
          </ns3:TrackPointExtension>
        </extensions>
      </trkpt>
      <trkpt lat="43.8403538055717945098876953125" lon="4.26879557780921459197998046875">
        <ele>137.1999969482421875</ele>
        <time>2024-01-27T09:22:10.000Z</time>
        <extensions>
          <ns3:TrackPointExtension>
            <ns3:hr>144</ns3:hr>
            <ns3:cad>86</ns3:cad>
          </ns3:TrackPointExtension>
        </extensions>
      </trkpt>
      <trkpt lat="43.84034014306962490081787109375" lon="4.26882156170904636383056640625">
        <ele>137.1999969482421875</ele>
        <time>2024-01-27T09:22:11.000Z</time>
        <extensions>
          <ns3:TrackPointExtension>
            <ns3:hr>144</ns3:hr>
            <ns3:cad>86</ns3:cad>
          </ns3:TrackPointExtension>
        </extensions>
      </trkpt>
      <trkpt lat="43.84032270871102809906005859375" lon="4.268854670226573944091796875">
        <ele>137.1999969482421875</ele>
        <time>2024-01-27T09:22:12.000Z</time>
        <extensions>
          <ns3:TrackPointExtension>
            <ns3:hr>144</ns3:hr>
            <ns3:cad>87</ns3:cad>
          </ns3:TrackPointExtension>
        </extensions>
      </trkpt>
      <trkpt lat="43.840309046208858489990234375" lon="4.2688816599547863006591796875">
        <ele>137</ele>
        <time>2024-01-27T09:22:13.000Z</time>
        <extensions>
          <ns3:TrackPointExtension>
            <ns3:hr>144</ns3:hr>
            <ns3:cad>88</ns3:cad>
          </ns3:TrackPointExtension>
        </extensions>
      </trkpt>
      <trkpt lat="43.840293623507022857666015625" lon="4.26891275681555271148681640625">
        <ele>136.8000030517578125</ele>
        <time>2024-01-27T09:22:14.000Z</time>
        <extensions>
          <ns3:TrackPointExtension>
            <ns3:hr>144</ns3:hr>
            <ns3:cad>88</ns3:cad>
          </ns3:TrackPointExtension>
        </extensions>
      </trkpt>
      <trkpt lat="43.8402833975851535797119140625" lon="4.26893957890570163726806640625">
        <ele>136.600006103515625</ele>
        <time>2024-01-27T09:22:15.000Z</time>
        <extensions>
          <ns3:TrackPointExtension>
            <ns3:hr>144</ns3:hr>
            <ns3:cad>88</ns3:cad>
          </ns3:TrackPointExtension>
        </extensions>
      </trkpt>
      <trkpt lat="43.8402676396071910858154296875" lon="4.26897310651838779449462890625">
        <ele>136.399993896484375</ele>
        <time>2024-01-27T09:22:16.000Z</time>
        <extensions>
          <ns3:TrackPointExtension>
            <ns3:hr>144</ns3:hr>
            <ns3:cad>89</ns3:cad>
          </ns3:TrackPointExtension>
        </extensions>
      </trkpt>
      <trkpt lat="43.84025213308632373809814453125" lon="4.26900093443691730499267578125">
        <ele>136.399993896484375</ele>
        <time>2024-01-27T09:22:17.000Z</time>
        <extensions>
          <ns3:TrackPointExtension>
            <ns3:hr>143</ns3:hr>
            <ns3:cad>89</ns3:cad>
          </ns3:TrackPointExtension>
        </extensions>
      </trkpt>
      <trkpt lat="43.84023486636579036712646484375" lon="4.26903404295444488525390625">
        <ele>136.1999969482421875</ele>
        <time>2024-01-27T09:22:18.000Z</time>
        <extensions>
          <ns3:TrackPointExtension>
            <ns3:hr>143</ns3:hr>
            <ns3:cad>89</ns3:cad>
          </ns3:TrackPointExtension>
        </extensions>
      </trkpt>
      <trkpt lat="43.84022019803524017333984375" lon="4.269063882529735565185546875">
        <ele>136</ele>
        <time>2024-01-27T09:22:19.000Z</time>
        <extensions>
          <ns3:TrackPointExtension>
            <ns3:hr>143</ns3:hr>
            <ns3:cad>90</ns3:cad>
          </ns3:TrackPointExtension>
        </extensions>
      </trkpt>
      <trkpt lat="43.840203098952770233154296875" lon="4.26910000853240489959716796875">
        <ele>136</ele>
        <time>2024-01-27T09:22:20.000Z</time>
        <extensions>
          <ns3:TrackPointExtension>
            <ns3:hr>143</ns3:hr>
            <ns3:cad>90</ns3:cad>
          </ns3:TrackPointExtension>
        </extensions>
      </trkpt>
      <trkpt lat="43.84019211865961551666259765625" lon="4.26912616007030010223388671875">
        <ele>136</ele>
        <time>2024-01-27T09:22:21.000Z</time>
        <extensions>
          <ns3:TrackPointExtension>
            <ns3:hr>143</ns3:hr>
            <ns3:cad>89</ns3:cad>
          </ns3:TrackPointExtension>
        </extensions>
      </trkpt>
      <trkpt lat="43.84017904289066791534423828125" lon="4.2691589333117008209228515625">
        <ele>135.8000030517578125</ele>
        <time>2024-01-27T09:22:22.000Z</time>
        <extensions>
          <ns3:TrackPointExtension>
            <ns3:hr>143</ns3:hr>
            <ns3:cad>88</ns3:cad>
          </ns3:TrackPointExtension>
        </extensions>
      </trkpt>
      <trkpt lat="43.84016747586429119110107421875" lon="4.2691857554018497467041015625">
        <ele>135.8000030517578125</ele>
        <time>2024-01-27T09:22:23.000Z</time>
        <extensions>
          <ns3:TrackPointExtension>
            <ns3:hr>143</ns3:hr>
            <ns3:cad>88</ns3:cad>
          </ns3:TrackPointExtension>
        </extensions>
      </trkpt>
      <trkpt lat="43.840150125324726104736328125" lon="4.269217438995838165283203125">
        <ele>135.600006103515625</ele>
        <time>2024-01-27T09:22:24.000Z</time>
        <extensions>
          <ns3:TrackPointExtension>
            <ns3:hr>143</ns3:hr>
            <ns3:cad>88</ns3:cad>
          </ns3:TrackPointExtension>
        </extensions>
      </trkpt>
      <trkpt lat="43.84013478644192218780517578125" lon="4.2692414112389087677001953125">
        <ele>135.600006103515625</ele>
        <time>2024-01-27T09:22:25.000Z</time>
        <extensions>
          <ns3:TrackPointExtension>
            <ns3:hr>143</ns3:hr>
            <ns3:cad>88</ns3:cad>
          </ns3:TrackPointExtension>
        </extensions>
      </trkpt>
      <trkpt lat="43.8401160947978496551513671875" lon="4.269277788698673248291015625">
        <ele>135.600006103515625</ele>
        <time>2024-01-27T09:22:26.000Z</time>
        <extensions>
          <ns3:TrackPointExtension>
            <ns3:hr>143</ns3:hr>
            <ns3:cad>89</ns3:cad>
          </ns3:TrackPointExtension>
        </extensions>
      </trkpt>
      <trkpt lat="43.84010226465761661529541015625" lon="4.2693014256656169891357421875">
        <ele>135.399993896484375</ele>
        <time>2024-01-27T09:22:27.000Z</time>
        <extensions>
          <ns3:TrackPointExtension>
            <ns3:hr>143</ns3:hr>
            <ns3:cad>89</ns3:cad>
          </ns3:TrackPointExtension>
        </extensions>
      </trkpt>
      <trkpt lat="43.840084075927734375" lon="4.269328750669956207275390625">
        <ele>135.1999969482421875</ele>
        <time>2024-01-27T09:22:28.000Z</time>
        <extensions>
          <ns3:TrackPointExtension>
            <ns3:hr>143</ns3:hr>
            <ns3:cad>89</ns3:cad>
          </ns3:TrackPointExtension>
        </extensions>
      </trkpt>
      <trkpt lat="43.84006404317915439605712890625" lon="4.26935196854174137115478515625">
        <ele>135</ele>
        <time>2024-01-27T09:22:29.000Z</time>
        <extensions>
          <ns3:TrackPointExtension>
            <ns3:hr>146</ns3:hr>
            <ns3:cad>89</ns3:cad>
          </ns3:TrackPointExtension>
        </extensions>
      </trkpt>
      <trkpt lat="43.840041495859622955322265625" lon="4.26937812007963657379150390625">
        <ele>135</ele>
        <time>2024-01-27T09:22:30.000Z</time>
        <extensions>
          <ns3:TrackPointExtension>
            <ns3:hr>150</ns3:hr>
            <ns3:cad>88</ns3:cad>
          </ns3:TrackPointExtension>
        </extensions>
      </trkpt>
      <trkpt lat="43.8400225527584552764892578125" lon="4.2694010026752948760986328125">
        <ele>134.8000030517578125</ele>
        <time>2024-01-27T09:22:31.000Z</time>
        <extensions>
          <ns3:TrackPointExtension>
            <ns3:hr>155</ns3:hr>
            <ns3:cad>88</ns3:cad>
          </ns3:TrackPointExtension>
        </extensions>
      </trkpt>
      <trkpt lat="43.840005956590175628662109375" lon="4.26942371763288974761962890625">
        <ele>134.600006103515625</ele>
        <time>2024-01-27T09:22:32.000Z</time>
        <extensions>
          <ns3:TrackPointExtension>
            <ns3:hr>155</ns3:hr>
            <ns3:cad>88</ns3:cad>
          </ns3:TrackPointExtension>
        </extensions>
      </trkpt>
      <trkpt lat="43.83999128825962543487548828125" lon="4.26943863742053508758544921875">
        <ele>134.399993896484375</ele>
        <time>2024-01-27T09:22:33.000Z</time>
        <extensions>
          <ns3:TrackPointExtension>
            <ns3:hr>156</ns3:hr>
            <ns3:cad>88</ns3:cad>
          </ns3:TrackPointExtension>
        </extensions>
      </trkpt>
      <trkpt lat="43.8399769552052021026611328125" lon="4.2694596759974956512451171875">
        <ele>134.1999969482421875</ele>
        <time>2024-01-27T09:22:34.000Z</time>
        <extensions>
          <ns3:TrackPointExtension>
            <ns3:hr>156</ns3:hr>
            <ns3:cad>88</ns3:cad>
          </ns3:TrackPointExtension>
        </extensions>
      </trkpt>
      <trkpt lat="43.8399700820446014404296875" lon="4.26949135959148406982421875">
        <ele>134</ele>
        <time>2024-01-27T09:22:35.000Z</time>
        <extensions>
          <ns3:TrackPointExtension>
            <ns3:hr>156</ns3:hr>
            <ns3:cad>88</ns3:cad>
          </ns3:TrackPointExtension>
        </extensions>
      </trkpt>
      <trkpt lat="43.83997502736747264862060546875" lon="4.2695119790732860565185546875">
        <ele>134</ele>
        <time>2024-01-27T09:22:36.000Z</time>
        <extensions>
          <ns3:TrackPointExtension>
            <ns3:hr>156</ns3:hr>
            <ns3:cad>89</ns3:cad>
          </ns3:TrackPointExtension>
        </extensions>
      </trkpt>
      <trkpt lat="43.8399834930896759033203125" lon="4.2695475183427333831787109375">
        <ele>134</ele>
        <time>2024-01-27T09:22:37.000Z</time>
        <extensions>
          <ns3:TrackPointExtension>
            <ns3:hr>156</ns3:hr>
            <ns3:cad>90</ns3:cad>
          </ns3:TrackPointExtension>
        </extensions>
      </trkpt>
      <trkpt lat="43.83999547921121120452880859375" lon="4.2695780284702777862548828125">
        <ele>133.8000030517578125</ele>
        <time>2024-01-27T09:22:38.000Z</time>
        <extensions>
          <ns3:TrackPointExtension>
            <ns3:hr>156</ns3:hr>
            <ns3:cad>90</ns3:cad>
          </ns3:TrackPointExtension>
        </extensions>
      </trkpt>
      <trkpt lat="43.840011321008205413818359375" lon="4.26961046643555164337158203125">
        <ele>133.8000030517578125</ele>
        <time>2024-01-27T09:22:39.000Z</time>
        <extensions>
          <ns3:TrackPointExtension>
            <ns3:hr>156</ns3:hr>
            <ns3:cad>90</ns3:cad>
          </ns3:TrackPointExtension>
        </extensions>
      </trkpt>
      <trkpt lat="43.840029425919055938720703125" lon="4.26963091827929019927978515625">
        <ele>133.8000030517578125</ele>
        <time>2024-01-27T09:22:40.000Z</time>
        <extensions>
          <ns3:TrackPointExtension>
            <ns3:hr>156</ns3:hr>
            <ns3:cad>90</ns3:cad>
          </ns3:TrackPointExtension>
        </extensions>
      </trkpt>
      <trkpt lat="43.84004962630569934844970703125" lon="4.26964852027595043182373046875">
        <ele>133.8000030517578125</ele>
        <time>2024-01-27T09:22:41.000Z</time>
        <extensions>
          <ns3:TrackPointExtension>
            <ns3:hr>156</ns3:hr>
            <ns3:cad>90</ns3:cad>
          </ns3:TrackPointExtension>
        </extensions>
      </trkpt>
      <trkpt lat="43.84006404317915439605712890625" lon="4.2696548067033290863037109375">
        <ele>133.8000030517578125</ele>
        <time>2024-01-27T09:22:42.000Z</time>
        <extensions>
          <ns3:TrackPointExtension>
            <ns3:hr>156</ns3:hr>
            <ns3:cad>90</ns3:cad>
          </ns3:TrackPointExtension>
        </extensions>
      </trkpt>
      <trkpt lat="43.84008097462356090545654296875" lon="4.26966478116810321807861328125">
        <ele>134</ele>
        <time>2024-01-27T09:22:43.000Z</time>
        <extensions>
          <ns3:TrackPointExtension>
            <ns3:hr>156</ns3:hr>
            <ns3:cad>90</ns3:cad>
          </ns3:TrackPointExtension>
        </extensions>
      </trkpt>
      <trkpt lat="43.8400963135063648223876953125" lon="4.26967970095574855804443359375">
        <ele>134.600006103515625</ele>
        <time>2024-01-27T09:22:44.000Z</time>
        <extensions>
          <ns3:TrackPointExtension>
            <ns3:hr>156</ns3:hr>
            <ns3:cad>90</ns3:cad>
          </ns3:TrackPointExtension>
        </extensions>
      </trkpt>
      <trkpt lat="43.8401130773127079010009765625" lon="4.26969512365758419036865234375">
        <ele>135.1999969482421875</ele>
        <time>2024-01-27T09:22:45.000Z</time>
        <extensions>
          <ns3:TrackPointExtension>
            <ns3:hr>156</ns3:hr>
            <ns3:cad>90</ns3:cad>
          </ns3:TrackPointExtension>
        </extensions>
      </trkpt>
      <trkpt lat="43.840129338204860687255859375" lon="4.26971641369163990020751953125">
        <ele>135.399993896484375</ele>
        <time>2024-01-27T09:22:46.000Z</time>
        <extensions>
          <ns3:TrackPointExtension>
            <ns3:hr>156</ns3:hr>
            <ns3:cad>87</ns3:cad>
          </ns3:TrackPointExtension>
        </extensions>
      </trkpt>
      <trkpt lat="43.8401445932686328887939453125" lon="4.26973636262118816375732421875">
        <ele>135.8000030517578125</ele>
        <time>2024-01-27T09:22:47.000Z</time>
        <extensions>
          <ns3:TrackPointExtension>
            <ns3:hr>156</ns3:hr>
            <ns3:cad>87</ns3:cad>
          </ns3:TrackPointExtension>
        </extensions>
      </trkpt>
      <trkpt lat="43.84015624411404132843017578125" lon="4.2697600834071636199951171875">
        <ele>136.1999969482421875</ele>
        <time>2024-01-27T09:22:48.000Z</time>
        <extensions>
          <ns3:TrackPointExtension>
            <ns3:hr>156</ns3:hr>
            <ns3:cad>85</ns3:cad>
          </ns3:TrackPointExtension>
        </extensions>
      </trkpt>
      <trkpt lat="43.840169571340084075927734375" lon="4.26978363655507564544677734375">
        <ele>136.600006103515625</ele>
        <time>2024-01-27T09:22:49.000Z</time>
        <extensions>
          <ns3:TrackPointExtension>
            <ns3:hr>156</ns3:hr>
            <ns3:cad>85</ns3:cad>
          </ns3:TrackPointExtension>
        </extensions>
      </trkpt>
      <trkpt lat="43.84017921052873134613037109375" lon="4.2698120512068271636962890625">
        <ele>136.8000030517578125</ele>
        <time>2024-01-27T09:22:50.000Z</time>
        <extensions>
          <ns3:TrackPointExtension>
            <ns3:hr>156</ns3:hr>
            <ns3:cad>86</ns3:cad>
          </ns3:TrackPointExtension>
        </extensions>
      </trkpt>
      <trkpt lat="43.840188346803188323974609375" lon="4.26984247751533985137939453125">
        <ele>137.1999969482421875</ele>
        <time>2024-01-27T09:22:51.000Z</time>
        <extensions>
          <ns3:TrackPointExtension>
            <ns3:hr>156</ns3:hr>
            <ns3:cad>88</ns3:cad>
          </ns3:TrackPointExtension>
        </extensions>
      </trkpt>
      <trkpt lat="43.84019329212605953216552734375" lon="4.26987625658512115478515625">
        <ele>137.399993896484375</ele>
        <time>2024-01-27T09:22:52.000Z</time>
        <extensions>
          <ns3:TrackPointExtension>
            <ns3:hr>156</ns3:hr>
            <ns3:cad>89</ns3:cad>
          </ns3:TrackPointExtension>
        </extensions>
      </trkpt>
      <trkpt lat="43.84019731543958187103271484375" lon="4.26991104148328304290771484375">
        <ele>138</ele>
        <time>2024-01-27T09:22:53.000Z</time>
        <extensions>
          <ns3:TrackPointExtension>
            <ns3:hr>156</ns3:hr>
            <ns3:cad>89</ns3:cad>
          </ns3:TrackPointExtension>
        </extensions>
      </trkpt>
      <trkpt lat="43.84019580669701099395751953125" lon="4.26994691602885723114013671875">
        <ele>138</ele>
        <time>2024-01-27T09:22:54.000Z</time>
        <extensions>
          <ns3:TrackPointExtension>
            <ns3:hr>157</ns3:hr>
            <ns3:cad>90</ns3:cad>
          </ns3:TrackPointExtension>
        </extensions>
      </trkpt>
      <trkpt lat="43.8401918672025203704833984375" lon="4.26997776143252849578857421875">
        <ele>138.1999969482421875</ele>
        <time>2024-01-27T09:22:55.000Z</time>
        <extensions>
          <ns3:TrackPointExtension>
            <ns3:hr>157</ns3:hr>
            <ns3:cad>90</ns3:cad>
          </ns3:TrackPointExtension>
        </extensions>
      </trkpt>
      <trkpt lat="43.84018641896545886993408203125" lon="4.27001061849296092987060546875">
        <ele>138.399993896484375</ele>
        <time>2024-01-27T09:22:56.000Z</time>
        <extensions>
          <ns3:TrackPointExtension>
            <ns3:hr>157</ns3:hr>
            <ns3:cad>89</ns3:cad>
          </ns3:TrackPointExtension>
        </extensions>
      </trkpt>
      <trkpt lat="43.84018004871904850006103515625" lon="4.2700443975627422332763671875">
        <ele>138.399993896484375</ele>
        <time>2024-01-27T09:22:57.000Z</time>
        <extensions>
          <ns3:TrackPointExtension>
            <ns3:hr>157</ns3:hr>
            <ns3:cad>89</ns3:cad>
          </ns3:TrackPointExtension>
        </extensions>
      </trkpt>
      <trkpt lat="43.84016923606395721435546875" lon="4.27007499150931835174560546875">
        <ele>138.399993896484375</ele>
        <time>2024-01-27T09:22:58.000Z</time>
        <extensions>
          <ns3:TrackPointExtension>
            <ns3:hr>157</ns3:hr>
            <ns3:cad>89</ns3:cad>
          </ns3:TrackPointExtension>
        </extensions>
      </trkpt>
      <trkpt lat="43.84015792049467563629150390625" lon="4.2701087705790996551513671875">
        <ele>138.399993896484375</ele>
        <time>2024-01-27T09:22:59.000Z</time>
        <extensions>
          <ns3:TrackPointExtension>
            <ns3:hr>157</ns3:hr>
            <ns3:cad>89</ns3:cad>
          </ns3:TrackPointExtension>
        </extensions>
      </trkpt>
      <trkpt lat="43.8401415757834911346435546875" lon="4.27014179527759552001953125">
        <ele>138.399993896484375</ele>
        <time>2024-01-27T09:23:00.000Z</time>
        <extensions>
          <ns3:TrackPointExtension>
            <ns3:hr>158</ns3:hr>
            <ns3:cad>90</ns3:cad>
          </ns3:TrackPointExtension>
        </extensions>
      </trkpt>
      <trkpt lat="43.84012690745294094085693359375" lon="4.27017842419445514678955078125">
        <ele>138.399993896484375</ele>
        <time>2024-01-27T09:23:01.000Z</time>
        <extensions>
          <ns3:TrackPointExtension>
            <ns3:hr>158</ns3:hr>
            <ns3:cad>91</ns3:cad>
          </ns3:TrackPointExtension>
        </extensions>
      </trkpt>
      <trkpt lat="43.840115256607532501220703125" lon="4.27020750939846038818359375">
        <ele>138.399993896484375</ele>
        <time>2024-01-27T09:23:02.000Z</time>
        <extensions>
          <ns3:TrackPointExtension>
            <ns3:hr>158</ns3:hr>
            <ns3:cad>92</ns3:cad>
          </ns3:TrackPointExtension>
        </extensions>
      </trkpt>
      <trkpt lat="43.84010461159050464630126953125" lon="4.2702368460595607757568359375">
        <ele>138.399993896484375</ele>
        <time>2024-01-27T09:23:03.000Z</time>
        <extensions>
          <ns3:TrackPointExtension>
            <ns3:hr>158</ns3:hr>
            <ns3:cad>92</ns3:cad>
          </ns3:TrackPointExtension>
        </extensions>
      </trkpt>
      <trkpt lat="43.84009740315377712249755859375" lon="4.27026358433067798614501953125">
        <ele>138.399993896484375</ele>
        <time>2024-01-27T09:23:04.000Z</time>
        <extensions>
          <ns3:TrackPointExtension>
            <ns3:hr>159</ns3:hr>
            <ns3:cad>92</ns3:cad>
          </ns3:TrackPointExtension>
        </extensions>
      </trkpt>
      <trkpt lat="43.8400909490883350372314453125" lon="4.27029979415237903594970703125">
        <ele>138.399993896484375</ele>
        <time>2024-01-27T09:23:05.000Z</time>
        <extensions>
          <ns3:TrackPointExtension>
            <ns3:hr>159</ns3:hr>
            <ns3:cad>92</ns3:cad>
          </ns3:TrackPointExtension>
        </extensions>
      </trkpt>
      <trkpt lat="43.84008499793708324432373046875" lon="4.27032879553735256195068359375">
        <ele>138.399993896484375</ele>
        <time>2024-01-27T09:23:06.000Z</time>
        <extensions>
          <ns3:TrackPointExtension>
            <ns3:hr>159</ns3:hr>
            <ns3:cad>92</ns3:cad>
          </ns3:TrackPointExtension>
        </extensions>
      </trkpt>
      <trkpt lat="43.84007594548165798187255859375" lon="4.27036441862583160400390625">
        <ele>138.399993896484375</ele>
        <time>2024-01-27T09:23:07.000Z</time>
        <extensions>
          <ns3:TrackPointExtension>
            <ns3:hr>160</ns3:hr>
            <ns3:cad>92</ns3:cad>
          </ns3:TrackPointExtension>
        </extensions>
      </trkpt>
      <trkpt lat="43.8400681503117084503173828125" lon="4.27038847468793392181396484375">
        <ele>138.399993896484375</ele>
        <time>2024-01-27T09:23:08.000Z</time>
        <extensions>
          <ns3:TrackPointExtension>
            <ns3:hr>160</ns3:hr>
            <ns3:cad>92</ns3:cad>
          </ns3:TrackPointExtension>
        </extensions>
      </trkpt>
      <trkpt lat="43.84005281142890453338623046875" lon="4.27041932009160518646240234375">
        <ele>138.1999969482421875</ele>
        <time>2024-01-27T09:23:09.000Z</time>
        <extensions>
          <ns3:TrackPointExtension>
            <ns3:hr>161</ns3:hr>
            <ns3:cad>91</ns3:cad>
          </ns3:TrackPointExtension>
        </extensions>
      </trkpt>
      <trkpt lat="43.8400403223931789398193359375" lon="4.2704406939446926116943359375">
        <ele>138.1999969482421875</ele>
        <time>2024-01-27T09:23:10.000Z</time>
        <extensions>
          <ns3:TrackPointExtension>
            <ns3:hr>162</ns3:hr>
            <ns3:cad>91</ns3:cad>
          </ns3:TrackPointExtension>
        </extensions>
      </trkpt>
      <trkpt lat="43.84001123718917369842529296875" lon="4.270449243485927581787109375">
        <ele>138.1999969482421875</ele>
        <time>2024-01-27T09:23:11.000Z</time>
        <extensions>
          <ns3:TrackPointExtension>
            <ns3:hr>163</ns3:hr>
            <ns3:cad>90</ns3:cad>
          </ns3:TrackPointExtension>
        </extensions>
      </trkpt>
      <trkpt lat="43.8399915397167205810546875" lon="4.2704611457884311676025390625">
        <ele>138.1999969482421875</ele>
        <time>2024-01-27T09:23:12.000Z</time>
        <extensions>
          <ns3:TrackPointExtension>
            <ns3:hr>164</ns3:hr>
            <ns3:cad>90</ns3:cad>
          </ns3:TrackPointExtension>
        </extensions>
      </trkpt>
      <trkpt lat="43.8399679027497768402099609375" lon="4.27047028206288814544677734375">
        <ele>138</ele>
        <time>2024-01-27T09:23:13.000Z</time>
        <extensions>
          <ns3:TrackPointExtension>
            <ns3:hr>164</ns3:hr>
            <ns3:cad>90</ns3:cad>
          </ns3:TrackPointExtension>
        </extensions>
      </trkpt>
      <trkpt lat="43.8399404101073741912841796875" lon="4.270473383367061614990234375">
        <ele>137.8000030517578125</ele>
        <time>2024-01-27T09:23:14.000Z</time>
        <extensions>
          <ns3:TrackPointExtension>
            <ns3:hr>165</ns3:hr>
            <ns3:cad>90</ns3:cad>
          </ns3:TrackPointExtension>
        </extensions>
      </trkpt>
      <trkpt lat="43.83991853334009647369384765625" lon="4.270476400852203369140625">
        <ele>137.399993896484375</ele>
        <time>2024-01-27T09:23:15.000Z</time>
        <extensions>
          <ns3:TrackPointExtension>
            <ns3:hr>165</ns3:hr>
            <ns3:cad>89</ns3:cad>
          </ns3:TrackPointExtension>
        </extensions>
      </trkpt>
      <trkpt lat="43.83989808149635791778564453125" lon="4.27047547884285449981689453125">
        <ele>137.1999969482421875</ele>
        <time>2024-01-27T09:23:16.000Z</time>
        <extensions>
          <ns3:TrackPointExtension>
            <ns3:hr>165</ns3:hr>
            <ns3:cad>88</ns3:cad>
          </ns3:TrackPointExtension>
        </extensions>
      </trkpt>
      <trkpt lat="43.83987712673842906951904296875" lon="4.27047464065253734588623046875">
        <ele>136.8000030517578125</ele>
        <time>2024-01-27T09:23:17.000Z</time>
        <extensions>
          <ns3:TrackPointExtension>
            <ns3:hr>165</ns3:hr>
            <ns3:cad>88</ns3:cad>
          </ns3:TrackPointExtension>
        </extensions>
      </trkpt>
      <trkpt lat="43.8398562557995319366455078125" lon="4.2704715393483638763427734375">
        <ele>136.600006103515625</ele>
        <time>2024-01-27T09:23:18.000Z</time>
        <extensions>
          <ns3:TrackPointExtension>
            <ns3:hr>165</ns3:hr>
            <ns3:cad>88</ns3:cad>
          </ns3:TrackPointExtension>
        </extensions>
      </trkpt>
      <trkpt lat="43.83982968516647815704345703125" lon="4.27047229371964931488037109375">
        <ele>136</ele>
        <time>2024-01-27T09:23:19.000Z</time>
        <extensions>
          <ns3:TrackPointExtension>
            <ns3:hr>165</ns3:hr>
            <ns3:cad>88</ns3:cad>
          </ns3:TrackPointExtension>
        </extensions>
      </trkpt>
      <trkpt lat="43.8398032821714878082275390625" lon="4.2704735510051250457763671875">
        <ele>135.600006103515625</ele>
        <time>2024-01-27T09:23:20.000Z</time>
        <extensions>
          <ns3:TrackPointExtension>
            <ns3:hr>165</ns3:hr>
            <ns3:cad>88</ns3:cad>
          </ns3:TrackPointExtension>
        </extensions>
      </trkpt>
      <trkpt lat="43.83977537043392658233642578125" lon="4.27047749049961566925048828125">
        <ele>135.399993896484375</ele>
        <time>2024-01-27T09:23:21.000Z</time>
        <extensions>
          <ns3:TrackPointExtension>
            <ns3:hr>165</ns3:hr>
            <ns3:cad>90</ns3:cad>
          </ns3:TrackPointExtension>
        </extensions>
      </trkpt>
      <trkpt lat="43.839749135076999664306640625" lon="4.27048503421247005462646484375">
        <ele>135</ele>
        <time>2024-01-27T09:23:22.000Z</time>
        <extensions>
          <ns3:TrackPointExtension>
            <ns3:hr>165</ns3:hr>
            <ns3:cad>90</ns3:cad>
          </ns3:TrackPointExtension>
        </extensions>
      </trkpt>
      <trkpt lat="43.83972591720521450042724609375" lon="4.27050163038074970245361328125">
        <ele>134.600006103515625</ele>
        <time>2024-01-27T09:23:23.000Z</time>
        <extensions>
          <ns3:TrackPointExtension>
            <ns3:hr>165</ns3:hr>
            <ns3:cad>92</ns3:cad>
          </ns3:TrackPointExtension>
        </extensions>
      </trkpt>
      <trkpt lat="43.8397023640573024749755859375" lon="4.2705164663493633270263671875">
        <ele>134.1999969482421875</ele>
        <time>2024-01-27T09:23:24.000Z</time>
        <extensions>
          <ns3:TrackPointExtension>
            <ns3:hr>164</ns3:hr>
            <ns3:cad>92</ns3:cad>
          </ns3:TrackPointExtension>
        </extensions>
      </trkpt>
      <trkpt lat="43.83967973291873931884765625" lon="4.2705352418124675750732421875">
        <ele>134</ele>
        <time>2024-01-27T09:23:25.000Z</time>
        <extensions>
          <ns3:TrackPointExtension>
            <ns3:hr>164</ns3:hr>
            <ns3:cad>89</ns3:cad>
          </ns3:TrackPointExtension>
        </extensions>
      </trkpt>
      <trkpt lat="43.83965601213276386260986328125" lon="4.27055125124752521514892578125">
        <ele>133.399993896484375</ele>
        <time>2024-01-27T09:23:26.000Z</time>
        <extensions>
          <ns3:TrackPointExtension>
            <ns3:hr>164</ns3:hr>
            <ns3:cad>88</ns3:cad>
          </ns3:TrackPointExtension>
        </extensions>
      </trkpt>
      <trkpt lat="43.8396346382796764373779296875" lon="4.27056952379643917083740234375">
        <ele>132.8000030517578125</ele>
        <time>2024-01-27T09:23:27.000Z</time>
        <extensions>
          <ns3:TrackPointExtension>
            <ns3:hr>164</ns3:hr>
            <ns3:cad>88</ns3:cad>
          </ns3:TrackPointExtension>
        </extensions>
      </trkpt>
      <trkpt lat="43.83961024694144725799560546875" lon="4.27058410830795764923095703125">
        <ele>132.600006103515625</ele>
        <time>2024-01-27T09:23:28.000Z</time>
        <extensions>
          <ns3:TrackPointExtension>
            <ns3:hr>164</ns3:hr>
            <ns3:cad>88</ns3:cad>
          </ns3:TrackPointExtension>
        </extensions>
      </trkpt>
      <trkpt lat="43.839587531983852386474609375" lon="4.27059684880077838897705078125">
        <ele>132.399993896484375</ele>
        <time>2024-01-27T09:23:29.000Z</time>
        <extensions>
          <ns3:TrackPointExtension>
            <ns3:hr>164</ns3:hr>
            <ns3:cad>88</ns3:cad>
          </ns3:TrackPointExtension>
        </extensions>
      </trkpt>
      <trkpt lat="43.83956305682659149169921875" lon="4.2706073261797428131103515625">
        <ele>132</ele>
        <time>2024-01-27T09:23:30.000Z</time>
        <extensions>
          <ns3:TrackPointExtension>
            <ns3:hr>164</ns3:hr>
            <ns3:cad>88</ns3:cad>
          </ns3:TrackPointExtension>
        </extensions>
      </trkpt>
      <trkpt lat="43.8395410962402820587158203125" lon="4.27062400616705417633056640625">
        <ele>132</ele>
        <time>2024-01-27T09:23:31.000Z</time>
        <extensions>
          <ns3:TrackPointExtension>
            <ns3:hr>163</ns3:hr>
            <ns3:cad>89</ns3:cad>
          </ns3:TrackPointExtension>
        </extensions>
      </trkpt>
      <trkpt lat="43.83952391333878040313720703125" lon="4.27064931951463222503662109375">
        <ele>132</ele>
        <time>2024-01-27T09:23:32.000Z</time>
        <extensions>
          <ns3:TrackPointExtension>
            <ns3:hr>163</ns3:hr>
            <ns3:cad>89</ns3:cad>
          </ns3:TrackPointExtension>
        </extensions>
      </trkpt>
      <trkpt lat="43.83951653726398944854736328125" lon="4.270685613155364990234375">
        <ele>131.8000030517578125</ele>
        <time>2024-01-27T09:23:33.000Z</time>
        <extensions>
          <ns3:TrackPointExtension>
            <ns3:hr>163</ns3:hr>
            <ns3:cad>89</ns3:cad>
          </ns3:TrackPointExtension>
        </extensions>
      </trkpt>
      <trkpt lat="43.83950983174145221710205078125" lon="4.27072710357606410980224609375">
        <ele>131.8000030517578125</ele>
        <time>2024-01-27T09:23:34.000Z</time>
        <extensions>
          <ns3:TrackPointExtension>
            <ns3:hr>163</ns3:hr>
            <ns3:cad>92</ns3:cad>
          </ns3:TrackPointExtension>
        </extensions>
      </trkpt>
      <trkpt lat="43.83950597606599330902099609375" lon="4.2707749642431735992431640625">
        <ele>131.8000030517578125</ele>
        <time>2024-01-27T09:23:35.000Z</time>
        <extensions>
          <ns3:TrackPointExtension>
            <ns3:hr>163</ns3:hr>
            <ns3:cad>92</ns3:cad>
          </ns3:TrackPointExtension>
        </extensions>
      </trkpt>
      <trkpt lat="43.8394978456199169158935546875" lon="4.27081771194934844970703125">
        <ele>131.600006103515625</ele>
        <time>2024-01-27T09:23:36.000Z</time>
        <extensions>
          <ns3:TrackPointExtension>
            <ns3:hr>163</ns3:hr>
            <ns3:cad>91</ns3:cad>
          </ns3:TrackPointExtension>
        </extensions>
      </trkpt>
      <trkpt lat="43.8394872844219207763671875" lon="4.27085350267589092254638671875">
        <ele>131.600006103515625</ele>
        <time>2024-01-27T09:23:37.000Z</time>
        <extensions>
          <ns3:TrackPointExtension>
            <ns3:hr>163</ns3:hr>
            <ns3:cad>90</ns3:cad>
          </ns3:TrackPointExtension>
        </extensions>
      </trkpt>
      <trkpt lat="43.83947060443460941314697265625" lon="4.2708827555179595947265625">
        <ele>131.600006103515625</ele>
        <time>2024-01-27T09:23:38.000Z</time>
        <extensions>
          <ns3:TrackPointExtension>
            <ns3:hr>163</ns3:hr>
            <ns3:cad>89</ns3:cad>
          </ns3:TrackPointExtension>
        </extensions>
      </trkpt>
      <trkpt lat="43.839456103742122650146484375" lon="4.270911924540996551513671875">
        <ele>131.600006103515625</ele>
        <time>2024-01-27T09:23:39.000Z</time>
        <extensions>
          <ns3:TrackPointExtension>
            <ns3:hr>162</ns3:hr>
            <ns3:cad>89</ns3:cad>
          </ns3:TrackPointExtension>
        </extensions>
      </trkpt>
      <trkpt lat="43.83943841792643070220947265625" lon="4.270948804914951324462890625">
        <ele>131.399993896484375</ele>
        <time>2024-01-27T09:23:40.000Z</time>
        <extensions>
          <ns3:TrackPointExtension>
            <ns3:hr>162</ns3:hr>
            <ns3:cad>88</ns3:cad>
          </ns3:TrackPointExtension>
        </extensions>
      </trkpt>
      <trkpt lat="43.83942601270973682403564453125" lon="4.27097805775701999664306640625">
        <ele>131.1999969482421875</ele>
        <time>2024-01-27T09:23:41.000Z</time>
        <extensions>
          <ns3:TrackPointExtension>
            <ns3:hr>162</ns3:hr>
            <ns3:cad>88</ns3:cad>
          </ns3:TrackPointExtension>
        </extensions>
      </trkpt>
      <trkpt lat="43.83940472267568111419677734375" lon="4.2710156925022602081298828125">
        <ele>131.1999969482421875</ele>
        <time>2024-01-27T09:23:42.000Z</time>
        <extensions>
          <ns3:TrackPointExtension>
            <ns3:hr>162</ns3:hr>
            <ns3:cad>88</ns3:cad>
          </ns3:TrackPointExtension>
        </extensions>
      </trkpt>
      <trkpt lat="43.83938896469771862030029296875" lon="4.2710463702678680419921875">
        <ele>131.1999969482421875</ele>
        <time>2024-01-27T09:23:43.000Z</time>
        <extensions>
          <ns3:TrackPointExtension>
            <ns3:hr>161</ns3:hr>
            <ns3:cad>88</ns3:cad>
          </ns3:TrackPointExtension>
        </extensions>
      </trkpt>
      <trkpt lat="43.8393701054155826568603515625" lon="4.27108056843280792236328125">
        <ele>131</ele>
        <time>2024-01-27T09:23:44.000Z</time>
        <extensions>
          <ns3:TrackPointExtension>
            <ns3:hr>161</ns3:hr>
            <ns3:cad>88</ns3:cad>
          </ns3:TrackPointExtension>
        </extensions>
      </trkpt>
      <trkpt lat="43.8393536768853664398193359375" lon="4.271113090217113494873046875">
        <ele>131</ele>
        <time>2024-01-27T09:23:45.000Z</time>
        <extensions>
          <ns3:TrackPointExtension>
            <ns3:hr>161</ns3:hr>
            <ns3:cad>88</ns3:cad>
          </ns3:TrackPointExtension>
        </extensions>
      </trkpt>
      <trkpt lat="43.83933699689805507659912109375" lon="4.271151982247829437255859375">
        <ele>130.8000030517578125</ele>
        <time>2024-01-27T09:23:46.000Z</time>
        <extensions>
          <ns3:TrackPointExtension>
            <ns3:hr>161</ns3:hr>
            <ns3:cad>88</ns3:cad>
          </ns3:TrackPointExtension>
        </extensions>
      </trkpt>
      <trkpt lat="43.839317299425601959228515625" lon="4.2711813189089298248291015625">
        <ele>130.8000030517578125</ele>
        <time>2024-01-27T09:23:47.000Z</time>
        <extensions>
          <ns3:TrackPointExtension>
            <ns3:hr>161</ns3:hr>
            <ns3:cad>88</ns3:cad>
          </ns3:TrackPointExtension>
        </extensions>
      </trkpt>
      <trkpt lat="43.83929827250540256500244140625" lon="4.2712111584842205047607421875">
        <ele>130.8000030517578125</ele>
        <time>2024-01-27T09:23:48.000Z</time>
        <extensions>
          <ns3:TrackPointExtension>
            <ns3:hr>161</ns3:hr>
            <ns3:cad>87</ns3:cad>
          </ns3:TrackPointExtension>
        </extensions>
      </trkpt>
      <trkpt lat="43.83927715010941028594970703125" lon="4.27123856730759143829345703125">
        <ele>130.600006103515625</ele>
        <time>2024-01-27T09:23:49.000Z</time>
        <extensions>
          <ns3:TrackPointExtension>
            <ns3:hr>161</ns3:hr>
            <ns3:cad>87</ns3:cad>
          </ns3:TrackPointExtension>
        </extensions>
      </trkpt>
      <trkpt lat="43.8392584584653377532958984375" lon="4.2712631262838840484619140625">
        <ele>130.600006103515625</ele>
        <time>2024-01-27T09:23:50.000Z</time>
        <extensions>
          <ns3:TrackPointExtension>
            <ns3:hr>161</ns3:hr>
            <ns3:cad>88</ns3:cad>
          </ns3:TrackPointExtension>
        </extensions>
      </trkpt>
      <trkpt lat="43.83923758752644062042236328125" lon="4.27128919400274753570556640625">
        <ele>130.600006103515625</ele>
        <time>2024-01-27T09:23:51.000Z</time>
        <extensions>
          <ns3:TrackPointExtension>
            <ns3:hr>161</ns3:hr>
            <ns3:cad>88</ns3:cad>
          </ns3:TrackPointExtension>
        </extensions>
      </trkpt>
      <trkpt lat="43.8392155431210994720458984375" lon="4.2713120765984058380126953125">
        <ele>130.600006103515625</ele>
        <time>2024-01-27T09:23:52.000Z</time>
        <extensions>
          <ns3:TrackPointExtension>
            <ns3:hr>161</ns3:hr>
            <ns3:cad>88</ns3:cad>
          </ns3:TrackPointExtension>
        </extensions>
      </trkpt>
      <trkpt lat="43.83919148705899715423583984375" lon="4.2713345400989055633544921875">
        <ele>130.399993896484375</ele>
        <time>2024-01-27T09:23:53.000Z</time>
        <extensions>
          <ns3:TrackPointExtension>
            <ns3:hr>160</ns3:hr>
            <ns3:cad>88</ns3:cad>
          </ns3:TrackPointExtension>
        </extensions>
      </trkpt>
      <trkpt lat="43.83916399441659450531005859375" lon="4.27136178128421306610107421875">
        <ele>130.399993896484375</ele>
        <time>2024-01-27T09:23:54.000Z</time>
        <extensions>
          <ns3:TrackPointExtension>
            <ns3:hr>160</ns3:hr>
            <ns3:cad>88</ns3:cad>
          </ns3:TrackPointExtension>
        </extensions>
      </trkpt>
      <trkpt lat="43.8391385972499847412109375" lon="4.2713816463947296142578125">
        <ele>130.399993896484375</ele>
        <time>2024-01-27T09:23:55.000Z</time>
        <extensions>
          <ns3:TrackPointExtension>
            <ns3:hr>160</ns3:hr>
            <ns3:cad>88</ns3:cad>
          </ns3:TrackPointExtension>
        </extensions>
      </trkpt>
      <trkpt lat="43.8391122780740261077880859375" lon="4.271405450999736785888671875">
        <ele>130.399993896484375</ele>
        <time>2024-01-27T09:23:56.000Z</time>
        <extensions>
          <ns3:TrackPointExtension>
            <ns3:hr>160</ns3:hr>
            <ns3:cad>89</ns3:cad>
          </ns3:TrackPointExtension>
        </extensions>
      </trkpt>
      <trkpt lat="43.83909241296350955963134765625" lon="4.2714227177202701568603515625">
        <ele>130.399993896484375</ele>
        <time>2024-01-27T09:23:57.000Z</time>
        <extensions>
          <ns3:TrackPointExtension>
            <ns3:hr>160</ns3:hr>
            <ns3:cad>89</ns3:cad>
          </ns3:TrackPointExtension>
        </extensions>
      </trkpt>
      <trkpt lat="43.83906559087336063385009765625" lon="4.27143998444080352783203125">
        <ele>130.399993896484375</ele>
        <time>2024-01-27T09:23:58.000Z</time>
        <extensions>
          <ns3:TrackPointExtension>
            <ns3:hr>161</ns3:hr>
            <ns3:cad>89</ns3:cad>
          </ns3:TrackPointExtension>
        </extensions>
      </trkpt>
      <trkpt lat="43.83904379792511463165283203125" lon="4.27145834080874919891357421875">
        <ele>130.399993896484375</ele>
        <time>2024-01-27T09:23:59.000Z</time>
        <extensions>
          <ns3:TrackPointExtension>
            <ns3:hr>161</ns3:hr>
            <ns3:cad>92</ns3:cad>
          </ns3:TrackPointExtension>
        </extensions>
      </trkpt>
      <trkpt lat="43.839016892015933990478515625" lon="4.27148750983178615570068359375">
        <ele>130.399993896484375</ele>
        <time>2024-01-27T09:24:00.000Z</time>
        <extensions>
          <ns3:TrackPointExtension>
            <ns3:hr>161</ns3:hr>
            <ns3:cad>92</ns3:cad>
          </ns3:TrackPointExtension>
        </extensions>
      </trkpt>
      <trkpt lat="43.8390013016760349273681640625" lon="4.2715103924274444580078125">
        <ele>130.1999969482421875</ele>
        <time>2024-01-27T09:24:01.000Z</time>
        <extensions>
          <ns3:TrackPointExtension>
            <ns3:hr>161</ns3:hr>
            <ns3:cad>92</ns3:cad>
          </ns3:TrackPointExtension>
        </extensions>
      </trkpt>
      <trkpt lat="43.83897506631910800933837890625" lon="4.2715333588421344757080078125">
        <ele>130.1999969482421875</ele>
        <time>2024-01-27T09:24:02.000Z</time>
        <extensions>
          <ns3:TrackPointExtension>
            <ns3:hr>161</ns3:hr>
            <ns3:cad>93</ns3:cad>
          </ns3:TrackPointExtension>
        </extensions>
      </trkpt>
      <trkpt lat="43.83895528502762317657470703125" lon="4.2715494520962238311767578125">
        <ele>130.1999969482421875</ele>
        <time>2024-01-27T09:24:03.000Z</time>
        <extensions>
          <ns3:TrackPointExtension>
            <ns3:hr>161</ns3:hr>
            <ns3:cad>93</ns3:cad>
          </ns3:TrackPointExtension>
        </extensions>
      </trkpt>
      <trkpt lat="43.8389261998236179351806640625" lon="4.27156898193061351776123046875">
        <ele>130.1999969482421875</ele>
        <time>2024-01-27T09:24:04.000Z</time>
        <extensions>
          <ns3:TrackPointExtension>
            <ns3:hr>161</ns3:hr>
            <ns3:cad>92</ns3:cad>
          </ns3:TrackPointExtension>
        </extensions>
      </trkpt>
      <trkpt lat="43.83890331722795963287353515625" lon="4.27158272825181484222412109375">
        <ele>130</ele>
        <time>2024-01-27T09:24:05.000Z</time>
        <extensions>
          <ns3:TrackPointExtension>
            <ns3:hr>161</ns3:hr>
            <ns3:cad>92</ns3:cad>
          </ns3:TrackPointExtension>
        </extensions>
      </trkpt>
      <trkpt lat="43.8388745673000812530517578125" lon="4.2715916968882083892822265625">
        <ele>130</ele>
        <time>2024-01-27T09:24:06.000Z</time>
        <extensions>
          <ns3:TrackPointExtension>
            <ns3:hr>161</ns3:hr>
            <ns3:cad>90</ns3:cad>
          </ns3:TrackPointExtension>
        </extensions>
      </trkpt>
      <trkpt lat="43.83884958922863006591796875" lon="4.27160091698169708251953125">
        <ele>130</ele>
        <time>2024-01-27T09:24:07.000Z</time>
        <extensions>
          <ns3:TrackPointExtension>
            <ns3:hr>161</ns3:hr>
            <ns3:cad>89</ns3:cad>
          </ns3:TrackPointExtension>
        </extensions>
      </trkpt>
      <trkpt lat="43.8388168998062610626220703125" lon="4.27160971798002719879150390625">
        <ele>130</ele>
        <time>2024-01-27T09:24:08.000Z</time>
        <extensions>
          <ns3:TrackPointExtension>
            <ns3:hr>161</ns3:hr>
            <ns3:cad>89</ns3:cad>
          </ns3:TrackPointExtension>
        </extensions>
      </trkpt>
      <trkpt lat="43.83878647349774837493896484375" lon="4.2716217041015625">
        <ele>129.8000030517578125</ele>
        <time>2024-01-27T09:24:09.000Z</time>
        <extensions>
          <ns3:TrackPointExtension>
            <ns3:hr>161</ns3:hr>
            <ns3:cad>89</ns3:cad>
          </ns3:TrackPointExtension>
        </extensions>
      </trkpt>
      <trkpt lat="43.83875143714249134063720703125" lon="4.27162698470056056976318359375">
        <ele>129.8000030517578125</ele>
        <time>2024-01-27T09:24:10.000Z</time>
        <extensions>
          <ns3:TrackPointExtension>
            <ns3:hr>161</ns3:hr>
            <ns3:cad>90</ns3:cad>
          </ns3:TrackPointExtension>
        </extensions>
      </trkpt>
      <trkpt lat="43.83872377686202526092529296875" lon="4.27163586951792240142822265625">
        <ele>129.8000030517578125</ele>
        <time>2024-01-27T09:24:11.000Z</time>
        <extensions>
          <ns3:TrackPointExtension>
            <ns3:hr>161</ns3:hr>
            <ns3:cad>90</ns3:cad>
          </ns3:TrackPointExtension>
        </extensions>
      </trkpt>
      <trkpt lat="43.8386928476393222808837890625" lon="4.27163804881274700164794921875">
        <ele>129.8000030517578125</ele>
        <time>2024-01-27T09:24:12.000Z</time>
        <extensions>
          <ns3:TrackPointExtension>
            <ns3:hr>161</ns3:hr>
            <ns3:cad>91</ns3:cad>
          </ns3:TrackPointExtension>
        </extensions>
      </trkpt>
      <trkpt lat="43.8386670313775539398193359375" lon="4.271646849811077117919921875">
        <ele>129.8000030517578125</ele>
        <time>2024-01-27T09:24:13.000Z</time>
        <extensions>
          <ns3:TrackPointExtension>
            <ns3:hr>161</ns3:hr>
            <ns3:cad>92</ns3:cad>
          </ns3:TrackPointExtension>
        </extensions>
      </trkpt>
      <trkpt lat="43.83863777853548526763916015625" lon="4.27164659835398197174072265625">
        <ele>129.8000030517578125</ele>
        <time>2024-01-27T09:24:14.000Z</time>
        <extensions>
          <ns3:TrackPointExtension>
            <ns3:hr>161</ns3:hr>
            <ns3:cad>92</ns3:cad>
          </ns3:TrackPointExtension>
        </extensions>
      </trkpt>
      <trkpt lat="43.83861464448273181915283203125" lon="4.27164743654429912567138671875">
        <ele>129.8000030517578125</ele>
        <time>2024-01-27T09:24:15.000Z</time>
        <extensions>
          <ns3:TrackPointExtension>
            <ns3:hr>161</ns3:hr>
            <ns3:cad>93</ns3:cad>
          </ns3:TrackPointExtension>
        </extensions>
      </trkpt>
      <trkpt lat="43.8385879062116146087646484375" lon="4.27164743654429912567138671875">
        <ele>129.8000030517578125</ele>
        <time>2024-01-27T09:24:16.000Z</time>
        <extensions>
          <ns3:TrackPointExtension>
            <ns3:hr>161</ns3:hr>
            <ns3:cad>93</ns3:cad>
          </ns3:TrackPointExtension>
        </extensions>
      </trkpt>
      <trkpt lat="43.83856125175952911376953125" lon="4.27164726890623569488525390625">
        <ele>129.8000030517578125</ele>
        <time>2024-01-27T09:24:17.000Z</time>
        <extensions>
          <ns3:TrackPointExtension>
            <ns3:hr>161</ns3:hr>
            <ns3:cad>93</ns3:cad>
          </ns3:TrackPointExtension>
        </extensions>
      </trkpt>
      <trkpt lat="43.838534094393253326416015625" lon="4.27163938991725444793701171875">
        <ele>129.8000030517578125</ele>
        <time>2024-01-27T09:24:18.000Z</time>
        <extensions>
          <ns3:TrackPointExtension>
            <ns3:hr>161</ns3:hr>
            <ns3:cad>93</ns3:cad>
          </ns3:TrackPointExtension>
        </extensions>
      </trkpt>
      <trkpt lat="43.8385060988366603851318359375" lon="4.27163771353662014007568359375">
        <ele>129.8000030517578125</ele>
        <time>2024-01-27T09:24:19.000Z</time>
        <extensions>
          <ns3:TrackPointExtension>
            <ns3:hr>161</ns3:hr>
            <ns3:cad>93</ns3:cad>
          </ns3:TrackPointExtension>
        </extensions>
      </trkpt>
      <trkpt lat="43.838482797145843505859375" lon="4.27163603715598583221435546875">
        <ele>130</ele>
        <time>2024-01-27T09:24:20.000Z</time>
        <extensions>
          <ns3:TrackPointExtension>
            <ns3:hr>161</ns3:hr>
            <ns3:cad>92</ns3:cad>
          </ns3:TrackPointExtension>
        </extensions>
      </trkpt>
      <trkpt lat="43.8384546339511871337890625" lon="4.2716285772621631622314453125">
        <ele>130</ele>
        <time>2024-01-27T09:24:21.000Z</time>
        <extensions>
          <ns3:TrackPointExtension>
            <ns3:hr>161</ns3:hr>
            <ns3:cad>92</ns3:cad>
          </ns3:TrackPointExtension>
        </extensions>
      </trkpt>
      <trkpt lat="43.83843225426971912384033203125" lon="4.27162765525281429290771484375">
        <ele>130</ele>
        <time>2024-01-27T09:24:22.000Z</time>
        <extensions>
          <ns3:TrackPointExtension>
            <ns3:hr>161</ns3:hr>
            <ns3:cad>92</ns3:cad>
          </ns3:TrackPointExtension>
        </extensions>
      </trkpt>
      <trkpt lat="43.8384031690657138824462890625" lon="4.27161960862576961517333984375">
        <ele>130</ele>
        <time>2024-01-27T09:24:23.000Z</time>
        <extensions>
          <ns3:TrackPointExtension>
            <ns3:hr>161</ns3:hr>
            <ns3:cad>92</ns3:cad>
          </ns3:TrackPointExtension>
        </extensions>
      </trkpt>
      <trkpt lat="43.83837911300361156463623046875" lon="4.27161927334964275360107421875">
        <ele>130.1999969482421875</ele>
        <time>2024-01-27T09:24:24.000Z</time>
        <extensions>
          <ns3:TrackPointExtension>
            <ns3:hr>161</ns3:hr>
            <ns3:cad>92</ns3:cad>
          </ns3:TrackPointExtension>
        </extensions>
      </trkpt>
      <trkpt lat="43.83835229091346263885498046875" lon="4.27161633968353271484375">
        <ele>130.1999969482421875</ele>
        <time>2024-01-27T09:24:25.000Z</time>
        <extensions>
          <ns3:TrackPointExtension>
            <ns3:hr>162</ns3:hr>
            <ns3:cad>92</ns3:cad>
          </ns3:TrackPointExtension>
        </extensions>
      </trkpt>
      <trkpt lat="43.83832664228975772857666015625" lon="4.27161793224513530731201171875">
        <ele>130.1999969482421875</ele>
        <time>2024-01-27T09:24:26.000Z</time>
        <extensions>
          <ns3:TrackPointExtension>
            <ns3:hr>162</ns3:hr>
            <ns3:cad>92</ns3:cad>
          </ns3:TrackPointExtension>
        </extensions>
      </trkpt>
      <trkpt lat="43.83829914964735507965087890625" lon="4.27161642350256443023681640625">
        <ele>130.1999969482421875</ele>
        <time>2024-01-27T09:24:27.000Z</time>
        <extensions>
          <ns3:TrackPointExtension>
            <ns3:hr>162</ns3:hr>
            <ns3:cad>92</ns3:cad>
          </ns3:TrackPointExtension>
        </extensions>
      </trkpt>
      <trkpt lat="43.8382724113762378692626953125" lon="4.27162296138703823089599609375">
        <ele>130.1999969482421875</ele>
        <time>2024-01-27T09:24:28.000Z</time>
        <extensions>
          <ns3:TrackPointExtension>
            <ns3:hr>162</ns3:hr>
            <ns3:cad>92</ns3:cad>
          </ns3:TrackPointExtension>
        </extensions>
      </trkpt>
      <trkpt lat="43.838245756924152374267578125" lon="4.27162312902510166168212890625">
        <ele>130.399993896484375</ele>
        <time>2024-01-27T09:24:29.000Z</time>
        <extensions>
          <ns3:TrackPointExtension>
            <ns3:hr>162</ns3:hr>
            <ns3:cad>94</ns3:cad>
          </ns3:TrackPointExtension>
        </extensions>
      </trkpt>
      <trkpt lat="43.83821667172014713287353515625" lon="4.27162514068186283111572265625">
        <ele>130.399993896484375</ele>
        <time>2024-01-27T09:24:30.000Z</time>
        <extensions>
          <ns3:TrackPointExtension>
            <ns3:hr>162</ns3:hr>
            <ns3:cad>94</ns3:cad>
          </ns3:TrackPointExtension>
        </extensions>
      </trkpt>
      <trkpt lat="43.83818565867841243743896484375" lon="4.271623380482196807861328125">
        <ele>130.1999969482421875</ele>
        <time>2024-01-27T09:24:31.000Z</time>
        <extensions>
          <ns3:TrackPointExtension>
            <ns3:hr>162</ns3:hr>
            <ns3:cad>94</ns3:cad>
          </ns3:TrackPointExtension>
        </extensions>
      </trkpt>
      <trkpt lat="43.838153220713138580322265625" lon="4.2716248892247676849365234375">
        <ele>130.1999969482421875</ele>
        <time>2024-01-27T09:24:32.000Z</time>
        <extensions>
          <ns3:TrackPointExtension>
            <ns3:hr>162</ns3:hr>
            <ns3:cad>93</ns3:cad>
          </ns3:TrackPointExtension>
        </extensions>
      </trkpt>
      <trkpt lat="43.83812178857624530792236328125" lon="4.27162882871925830841064453125">
        <ele>130.1999969482421875</ele>
        <time>2024-01-27T09:24:33.000Z</time>
        <extensions>
          <ns3:TrackPointExtension>
            <ns3:hr>162</ns3:hr>
            <ns3:cad>92</ns3:cad>
          </ns3:TrackPointExtension>
        </extensions>
      </trkpt>
      <trkpt lat="43.8380880095064640045166015625" lon="4.2716346122324466705322265625">
        <ele>130</ele>
        <time>2024-01-27T09:24:34.000Z</time>
        <extensions>
          <ns3:TrackPointExtension>
            <ns3:hr>162</ns3:hr>
            <ns3:cad>92</ns3:cad>
          </ns3:TrackPointExtension>
        </extensions>
      </trkpt>
      <trkpt lat="43.8380628637969493865966796875" lon="4.27164383232593536376953125">
        <ele>130</ele>
        <time>2024-01-27T09:24:35.000Z</time>
        <extensions>
          <ns3:TrackPointExtension>
            <ns3:hr>162</ns3:hr>
            <ns3:cad>92</ns3:cad>
          </ns3:TrackPointExtension>
        </extensions>
      </trkpt>
      <trkpt lat="43.83803059346973896026611328125" lon="4.27164760418236255645751953125">
        <ele>129.600006103515625</ele>
        <time>2024-01-27T09:24:36.000Z</time>
        <extensions>
          <ns3:TrackPointExtension>
            <ns3:hr>162</ns3:hr>
            <ns3:cad>93</ns3:cad>
          </ns3:TrackPointExtension>
        </extensions>
      </trkpt>
      <trkpt lat="43.8380082137882709503173828125" lon="4.27165816538035869598388671875">
        <ele>129.399993896484375</ele>
        <time>2024-01-27T09:24:37.000Z</time>
        <extensions>
          <ns3:TrackPointExtension>
            <ns3:hr>162</ns3:hr>
            <ns3:cad>93</ns3:cad>
          </ns3:TrackPointExtension>
        </extensions>
      </trkpt>
      <trkpt lat="43.8379766978323459625244140625" lon="4.2716627754271030426025390625">
        <ele>129.1999969482421875</ele>
        <time>2024-01-27T09:24:38.000Z</time>
        <extensions>
          <ns3:TrackPointExtension>
            <ns3:hr>162</ns3:hr>
            <ns3:cad>93</ns3:cad>
          </ns3:TrackPointExtension>
        </extensions>
      </trkpt>
      <trkpt lat="43.8379502110183238983154296875" lon="4.2716728337109088897705078125">
        <ele>129</ele>
        <time>2024-01-27T09:24:39.000Z</time>
        <extensions>
          <ns3:TrackPointExtension>
            <ns3:hr>162</ns3:hr>
            <ns3:cad>94</ns3:cad>
          </ns3:TrackPointExtension>
        </extensions>
      </trkpt>
      <trkpt lat="43.8379163481295108795166015625" lon="4.27167895250022411346435546875">
        <ele>128.8000030517578125</ele>
        <time>2024-01-27T09:24:40.000Z</time>
        <extensions>
          <ns3:TrackPointExtension>
            <ns3:hr>162</ns3:hr>
            <ns3:cad>94</ns3:cad>
          </ns3:TrackPointExtension>
        </extensions>
      </trkpt>
      <trkpt lat="43.8378868438303470611572265625" lon="4.27169521339237689971923828125">
        <ele>128.8000030517578125</ele>
        <time>2024-01-27T09:24:41.000Z</time>
        <extensions>
          <ns3:TrackPointExtension>
            <ns3:hr>162</ns3:hr>
            <ns3:cad>94</ns3:cad>
          </ns3:TrackPointExtension>
        </extensions>
      </trkpt>
      <trkpt lat="43.83785993792116641998291015625" lon="4.27170493640005588531494140625">
        <ele>128.600006103515625</ele>
        <time>2024-01-27T09:24:42.000Z</time>
        <extensions>
          <ns3:TrackPointExtension>
            <ns3:hr>161</ns3:hr>
            <ns3:cad>94</ns3:cad>
          </ns3:TrackPointExtension>
        </extensions>
      </trkpt>
      <trkpt lat="43.8378308527171611785888671875" lon="4.271720610558986663818359375">
        <ele>128.399993896484375</ele>
        <time>2024-01-27T09:24:43.000Z</time>
        <extensions>
          <ns3:TrackPointExtension>
            <ns3:hr>160</ns3:hr>
            <ns3:cad>94</ns3:cad>
          </ns3:TrackPointExtension>
        </extensions>
      </trkpt>
      <trkpt lat="43.83780126459896564483642578125" lon="4.271728657186031341552734375">
        <ele>128.399993896484375</ele>
        <time>2024-01-27T09:24:44.000Z</time>
        <extensions>
          <ns3:TrackPointExtension>
            <ns3:hr>160</ns3:hr>
            <ns3:cad>93</ns3:cad>
          </ns3:TrackPointExtension>
        </extensions>
      </trkpt>
      <trkpt lat="43.8377725146710872650146484375" lon="4.27174332551658153533935546875">
        <ele>128.399993896484375</ele>
        <time>2024-01-27T09:24:45.000Z</time>
        <extensions>
          <ns3:TrackPointExtension>
            <ns3:hr>160</ns3:hr>
            <ns3:cad>92</ns3:cad>
          </ns3:TrackPointExtension>
        </extensions>
      </trkpt>
      <trkpt lat="43.83774594403803348541259765625" lon="4.27175623364746570587158203125">
        <ele>128.399993896484375</ele>
        <time>2024-01-27T09:24:46.000Z</time>
        <extensions>
          <ns3:TrackPointExtension>
            <ns3:hr>160</ns3:hr>
            <ns3:cad>92</ns3:cad>
          </ns3:TrackPointExtension>
        </extensions>
      </trkpt>
      <trkpt lat="43.83771208114922046661376953125" lon="4.271766878664493560791015625">
        <ele>128.1999969482421875</ele>
        <time>2024-01-27T09:24:47.000Z</time>
        <extensions>
          <ns3:TrackPointExtension>
            <ns3:hr>158</ns3:hr>
            <ns3:cad>92</ns3:cad>
          </ns3:TrackPointExtension>
        </extensions>
      </trkpt>
      <trkpt lat="43.83768592961132526397705078125" lon="4.27178037352859973907470703125">
        <ele>128.1999969482421875</ele>
        <time>2024-01-27T09:24:48.000Z</time>
        <extensions>
          <ns3:TrackPointExtension>
            <ns3:hr>156</ns3:hr>
            <ns3:cad>92</ns3:cad>
          </ns3:TrackPointExtension>
        </extensions>
      </trkpt>
      <trkpt lat="43.8376518152654170989990234375" lon="4.2717988975346088409423828125">
        <ele>128.1999969482421875</ele>
        <time>2024-01-27T09:24:49.000Z</time>
        <extensions>
          <ns3:TrackPointExtension>
            <ns3:hr>156</ns3:hr>
            <ns3:cad>93</ns3:cad>
          </ns3:TrackPointExtension>
        </extensions>
      </trkpt>
      <trkpt lat="43.83762591518461704254150390625" lon="4.27181540988385677337646484375">
        <ele>128.1999969482421875</ele>
        <time>2024-01-27T09:24:50.000Z</time>
        <extensions>
          <ns3:TrackPointExtension>
            <ns3:hr>156</ns3:hr>
            <ns3:cad>93</ns3:cad>
          </ns3:TrackPointExtension>
        </extensions>
      </trkpt>
      <trkpt lat="43.8375991769134998321533203125" lon="4.27183032967150211334228515625">
        <ele>128</ele>
        <time>2024-01-27T09:24:51.000Z</time>
        <extensions>
          <ns3:TrackPointExtension>
            <ns3:hr>156</ns3:hr>
            <ns3:cad>93</ns3:cad>
          </ns3:TrackPointExtension>
        </extensions>
      </trkpt>
      <trkpt lat="43.83757822215557098388671875" lon="4.27184474654495716094970703125">
        <ele>128</ele>
        <time>2024-01-27T09:24:52.000Z</time>
        <extensions>
          <ns3:TrackPointExtension>
            <ns3:hr>156</ns3:hr>
            <ns3:cad>93</ns3:cad>
          </ns3:TrackPointExtension>
        </extensions>
      </trkpt>
      <trkpt lat="43.83754980750381946563720703125" lon="4.2718612588942050933837890625">
        <ele>128</ele>
        <time>2024-01-27T09:24:53.000Z</time>
        <extensions>
          <ns3:TrackPointExtension>
            <ns3:hr>156</ns3:hr>
            <ns3:cad>91</ns3:cad>
          </ns3:TrackPointExtension>
        </extensions>
      </trkpt>
      <trkpt lat="43.837525583803653717041015625" lon="4.2718810401856899261474609375">
        <ele>128</ele>
        <time>2024-01-27T09:24:54.000Z</time>
        <extensions>
          <ns3:TrackPointExtension>
            <ns3:hr>156</ns3:hr>
            <ns3:cad>91</ns3:cad>
          </ns3:TrackPointExtension>
        </extensions>
      </trkpt>
      <trkpt lat="43.8375009410083293914794921875" lon="4.27189755253493785858154296875">
        <ele>128</ele>
        <time>2024-01-27T09:24:55.000Z</time>
        <extensions>
          <ns3:TrackPointExtension>
            <ns3:hr>156</ns3:hr>
            <ns3:cad>92</ns3:cad>
          </ns3:TrackPointExtension>
        </extensions>
      </trkpt>
      <trkpt lat="43.83747252635657787322998046875" lon="4.2719199322164058685302734375">
        <ele>128.1999969482421875</ele>
        <time>2024-01-27T09:24:56.000Z</time>
        <extensions>
          <ns3:TrackPointExtension>
            <ns3:hr>157</ns3:hr>
            <ns3:cad>92</ns3:cad>
          </ns3:TrackPointExtension>
        </extensions>
      </trkpt>
      <trkpt lat="43.83745073340833187103271484375" lon="4.2719400487840175628662109375">
        <ele>128.1999969482421875</ele>
        <time>2024-01-27T09:24:57.000Z</time>
        <extensions>
          <ns3:TrackPointExtension>
            <ns3:hr>157</ns3:hr>
            <ns3:cad>93</ns3:cad>
          </ns3:TrackPointExtension>
        </extensions>
      </trkpt>
      <trkpt lat="43.837425000965595245361328125" lon="4.2719598300755023956298828125">
        <ele>128.1999969482421875</ele>
        <time>2024-01-27T09:24:58.000Z</time>
        <extensions>
          <ns3:TrackPointExtension>
            <ns3:hr>157</ns3:hr>
            <ns3:cad>93</ns3:cad>
          </ns3:TrackPointExtension>
        </extensions>
      </trkpt>
      <trkpt lat="43.8374053873121738433837890625" lon="4.271983467042446136474609375">
        <ele>128.1999969482421875</ele>
        <time>2024-01-27T09:24:59.000Z</time>
        <extensions>
          <ns3:TrackPointExtension>
            <ns3:hr>157</ns3:hr>
            <ns3:cad>93</ns3:cad>
          </ns3:TrackPointExtension>
        </extensions>
      </trkpt>
      <trkpt lat="43.83738049305975437164306640625" lon="4.2720064334571361541748046875">
        <ele>128.1999969482421875</ele>
        <time>2024-01-27T09:25:00.000Z</time>
        <extensions>
          <ns3:TrackPointExtension>
            <ns3:hr>157</ns3:hr>
            <ns3:cad>93</ns3:cad>
          </ns3:TrackPointExtension>
        </extensions>
      </trkpt>
      <trkpt lat="43.83736096322536468505859375" lon="4.27202797494828701019287109375">
        <ele>128.1999969482421875</ele>
        <time>2024-01-27T09:25:01.000Z</time>
        <extensions>
          <ns3:TrackPointExtension>
            <ns3:hr>157</ns3:hr>
            <ns3:cad>93</ns3:cad>
          </ns3:TrackPointExtension>
        </extensions>
      </trkpt>
      <trkpt lat="43.83733741007745265960693359375" lon="4.272050522267818450927734375">
        <ele>128.1999969482421875</ele>
        <time>2024-01-27T09:25:02.000Z</time>
        <extensions>
          <ns3:TrackPointExtension>
            <ns3:hr>157</ns3:hr>
            <ns3:cad>93</ns3:cad>
          </ns3:TrackPointExtension>
        </extensions>
      </trkpt>
      <trkpt lat="43.83732081390917301177978515625" lon="4.27207441069185733795166015625">
        <ele>128.1999969482421875</ele>
        <time>2024-01-27T09:25:03.000Z</time>
        <extensions>
          <ns3:TrackPointExtension>
            <ns3:hr>157</ns3:hr>
            <ns3:cad>92</ns3:cad>
          </ns3:TrackPointExtension>
        </extensions>
      </trkpt>
      <trkpt lat="43.837297596037387847900390625" lon="4.2720956169068813323974609375">
        <ele>128.1999969482421875</ele>
        <time>2024-01-27T09:25:04.000Z</time>
        <extensions>
          <ns3:TrackPointExtension>
            <ns3:hr>157</ns3:hr>
            <ns3:cad>92</ns3:cad>
          </ns3:TrackPointExtension>
        </extensions>
      </trkpt>
      <trkpt lat="43.837278150022029876708984375" lon="4.27212386392056941986083984375">
        <ele>128.1999969482421875</ele>
        <time>2024-01-27T09:25:05.000Z</time>
        <extensions>
          <ns3:TrackPointExtension>
            <ns3:hr>157</ns3:hr>
            <ns3:cad>92</ns3:cad>
          </ns3:TrackPointExtension>
        </extensions>
      </trkpt>
      <trkpt lat="43.837256692349910736083984375" lon="4.2721487581729888916015625">
        <ele>128.1999969482421875</ele>
        <time>2024-01-27T09:25:06.000Z</time>
        <extensions>
          <ns3:TrackPointExtension>
            <ns3:hr>158</ns3:hr>
            <ns3:cad>92</ns3:cad>
          </ns3:TrackPointExtension>
        </extensions>
      </trkpt>
      <trkpt lat="43.837239257991313934326171875" lon="4.27217599935829639434814453125">
        <ele>128.1999969482421875</ele>
        <time>2024-01-27T09:25:07.000Z</time>
        <extensions>
          <ns3:TrackPointExtension>
            <ns3:hr>158</ns3:hr>
            <ns3:cad>92</ns3:cad>
          </ns3:TrackPointExtension>
        </extensions>
      </trkpt>
      <trkpt lat="43.83722023107111454010009765625" lon="4.27219879813492298126220703125">
        <ele>128.1999969482421875</ele>
        <time>2024-01-27T09:25:08.000Z</time>
        <extensions>
          <ns3:TrackPointExtension>
            <ns3:hr>158</ns3:hr>
            <ns3:cad>93</ns3:cad>
          </ns3:TrackPointExtension>
        </extensions>
      </trkpt>
      <trkpt lat="43.8371993601322174072265625" lon="4.2722240276634693145751953125">
        <ele>128.1999969482421875</ele>
        <time>2024-01-27T09:25:09.000Z</time>
        <extensions>
          <ns3:TrackPointExtension>
            <ns3:hr>158</ns3:hr>
            <ns3:cad>93</ns3:cad>
          </ns3:TrackPointExtension>
        </extensions>
      </trkpt>
      <trkpt lat="43.837179243564605712890625" lon="4.27224489860236644744873046875">
        <ele>128.399993896484375</ele>
        <time>2024-01-27T09:25:10.000Z</time>
        <extensions>
          <ns3:TrackPointExtension>
            <ns3:hr>158</ns3:hr>
            <ns3:cad>93</ns3:cad>
          </ns3:TrackPointExtension>
        </extensions>
      </trkpt>
      <trkpt lat="43.837153427302837371826171875" lon="4.27226610481739044189453125">
        <ele>128.399993896484375</ele>
        <time>2024-01-27T09:25:11.000Z</time>
        <extensions>
          <ns3:TrackPointExtension>
            <ns3:hr>158</ns3:hr>
            <ns3:cad>92</ns3:cad>
          </ns3:TrackPointExtension>
        </extensions>
      </trkpt>
      <trkpt lat="43.83713054470717906951904296875" lon="4.27228513173758983612060546875">
        <ele>128.600006103515625</ele>
        <time>2024-01-27T09:25:12.000Z</time>
        <extensions>
          <ns3:TrackPointExtension>
            <ns3:hr>158</ns3:hr>
            <ns3:cad>92</ns3:cad>
          </ns3:TrackPointExtension>
        </extensions>
      </trkpt>
      <trkpt lat="43.83710682392120361328125" lon="4.27230709232389926910400390625">
        <ele>128.600006103515625</ele>
        <time>2024-01-27T09:25:13.000Z</time>
        <extensions>
          <ns3:TrackPointExtension>
            <ns3:hr>158</ns3:hr>
            <ns3:cad>92</ns3:cad>
          </ns3:TrackPointExtension>
        </extensions>
      </trkpt>
      <trkpt lat="43.837081678211688995361328125" lon="4.27233274094760417938232421875">
        <ele>128.399993896484375</ele>
        <time>2024-01-27T09:25:14.000Z</time>
        <extensions>
          <ns3:TrackPointExtension>
            <ns3:hr>158</ns3:hr>
            <ns3:cad>92</ns3:cad>
          </ns3:TrackPointExtension>
        </extensions>
      </trkpt>
      <trkpt lat="43.83705410175025463104248046875" lon="4.2723552882671356201171875">
        <ele>128.399993896484375</ele>
        <time>2024-01-27T09:25:15.000Z</time>
        <extensions>
          <ns3:TrackPointExtension>
            <ns3:hr>159</ns3:hr>
            <ns3:cad>92</ns3:cad>
          </ns3:TrackPointExtension>
        </extensions>
      </trkpt>
      <trkpt lat="43.837028704583644866943359375" lon="4.2723785899579524993896484375">
        <ele>128.399993896484375</ele>
        <time>2024-01-27T09:25:16.000Z</time>
        <extensions>
          <ns3:TrackPointExtension>
            <ns3:hr>159</ns3:hr>
            <ns3:cad>93</ns3:cad>
          </ns3:TrackPointExtension>
        </extensions>
      </trkpt>
      <trkpt lat="43.83700213395059108734130859375" lon="4.27240214310586452484130859375">
        <ele>128.399993896484375</ele>
        <time>2024-01-27T09:25:17.000Z</time>
        <extensions>
          <ns3:TrackPointExtension>
            <ns3:hr>159</ns3:hr>
            <ns3:cad>93</ns3:cad>
          </ns3:TrackPointExtension>
        </extensions>
      </trkpt>
      <trkpt lat="43.83697933517396450042724609375" lon="4.27242578007280826568603515625">
        <ele>128.399993896484375</ele>
        <time>2024-01-27T09:25:18.000Z</time>
        <extensions>
          <ns3:TrackPointExtension>
            <ns3:hr>159</ns3:hr>
            <ns3:cad>93</ns3:cad>
          </ns3:TrackPointExtension>
        </extensions>
      </trkpt>
      <trkpt lat="43.8369534350931644439697265625" lon="4.27244472317397594451904296875">
        <ele>128.1999969482421875</ele>
        <time>2024-01-27T09:25:19.000Z</time>
        <extensions>
          <ns3:TrackPointExtension>
            <ns3:hr>159</ns3:hr>
            <ns3:cad>93</ns3:cad>
          </ns3:TrackPointExtension>
        </extensions>
      </trkpt>
      <trkpt lat="43.8369296304881572723388671875" lon="4.27246936596930027008056640625">
        <ele>128.1999969482421875</ele>
        <time>2024-01-27T09:25:20.000Z</time>
        <extensions>
          <ns3:TrackPointExtension>
            <ns3:hr>159</ns3:hr>
            <ns3:cad>88</ns3:cad>
          </ns3:TrackPointExtension>
        </extensions>
      </trkpt>
      <trkpt lat="43.83690473623573780059814453125" lon="4.27248680032789707183837890625">
        <ele>128</ele>
        <time>2024-01-27T09:25:21.000Z</time>
        <extensions>
          <ns3:TrackPointExtension>
            <ns3:hr>159</ns3:hr>
            <ns3:cad>88</ns3:cad>
          </ns3:TrackPointExtension>
        </extensions>
      </trkpt>
      <trkpt lat="43.836883194744586944580078125" lon="4.27250658161938190460205078125">
        <ele>128</ele>
        <time>2024-01-27T09:25:22.000Z</time>
        <extensions>
          <ns3:TrackPointExtension>
            <ns3:hr>159</ns3:hr>
            <ns3:cad>89</ns3:cad>
          </ns3:TrackPointExtension>
        </extensions>
      </trkpt>
      <trkpt lat="43.83685897104442119598388671875" lon="4.2725264467298984527587890625">
        <ele>128</ele>
        <time>2024-01-27T09:25:23.000Z</time>
        <extensions>
          <ns3:TrackPointExtension>
            <ns3:hr>159</ns3:hr>
            <ns3:cad>89</ns3:cad>
          </ns3:TrackPointExtension>
        </extensions>
      </trkpt>
      <trkpt lat="43.83683298714458942413330078125" lon="4.27254765294492244720458984375">
        <ele>128</ele>
        <time>2024-01-27T09:25:24.000Z</time>
        <extensions>
          <ns3:TrackPointExtension>
            <ns3:hr>159</ns3:hr>
            <ns3:cad>90</ns3:cad>
          </ns3:TrackPointExtension>
        </extensions>
      </trkpt>
      <trkpt lat="43.83680440485477447509765625" lon="4.272562824189662933349609375">
        <ele>128</ele>
        <time>2024-01-27T09:25:25.000Z</time>
        <extensions>
          <ns3:TrackPointExtension>
            <ns3:hr>159</ns3:hr>
            <ns3:cad>91</ns3:cad>
          </ns3:TrackPointExtension>
        </extensions>
      </trkpt>
      <trkpt lat="43.8367774151265621185302734375" lon="4.27257992327213287353515625">
        <ele>127.8000030517578125</ele>
        <time>2024-01-27T09:25:26.000Z</time>
        <extensions>
          <ns3:TrackPointExtension>
            <ns3:hr>159</ns3:hr>
            <ns3:cad>92</ns3:cad>
          </ns3:TrackPointExtension>
        </extensions>
      </trkpt>
      <trkpt lat="43.8367502577602863311767578125" lon="4.2725955136120319366455078125">
        <ele>127.8000030517578125</ele>
        <time>2024-01-27T09:25:27.000Z</time>
        <extensions>
          <ns3:TrackPointExtension>
            <ns3:hr>159</ns3:hr>
            <ns3:cad>92</ns3:cad>
          </ns3:TrackPointExtension>
        </extensions>
      </trkpt>
      <trkpt lat="43.8367264531552791595458984375" lon="4.27261152304708957672119140625">
        <ele>127.59999847412109375</ele>
        <time>2024-01-27T09:25:28.000Z</time>
        <extensions>
          <ns3:TrackPointExtension>
            <ns3:hr>159</ns3:hr>
            <ns3:cad>90</ns3:cad>
          </ns3:TrackPointExtension>
        </extensions>
      </trkpt>
      <trkpt lat="43.83669787086546421051025390625" lon="4.27262610755860805511474609375">
        <ele>127.59999847412109375</ele>
        <time>2024-01-27T09:25:29.000Z</time>
        <extensions>
          <ns3:TrackPointExtension>
            <ns3:hr>159</ns3:hr>
            <ns3:cad>90</ns3:cad>
          </ns3:TrackPointExtension>
        </extensions>
      </trkpt>
      <trkpt lat="43.83667373098433017730712890625" lon="4.272640608251094818115234375">
        <ele>127.40000152587890625</ele>
        <time>2024-01-27T09:25:30.000Z</time>
        <extensions>
          <ns3:TrackPointExtension>
            <ns3:hr>159</ns3:hr>
            <ns3:cad>89</ns3:cad>
          </ns3:TrackPointExtension>
        </extensions>
      </trkpt>
      <trkpt lat="43.8366468250751495361328125" lon="4.27265577949583530426025390625">
        <ele>127.40000152587890625</ele>
        <time>2024-01-27T09:25:31.000Z</time>
        <extensions>
          <ns3:TrackPointExtension>
            <ns3:hr>158</ns3:hr>
            <ns3:cad>89</ns3:cad>
          </ns3:TrackPointExtension>
        </extensions>
      </trkpt>
      <trkpt lat="43.836623020470142364501953125" lon="4.27266843616962432861328125">
        <ele>127.40000152587890625</ele>
        <time>2024-01-27T09:25:32.000Z</time>
        <extensions>
          <ns3:TrackPointExtension>
            <ns3:hr>158</ns3:hr>
            <ns3:cad>89</ns3:cad>
          </ns3:TrackPointExtension>
        </extensions>
      </trkpt>
      <trkpt lat="43.83659762330353260040283203125" lon="4.272681176662445068359375">
        <ele>127.40000152587890625</ele>
        <time>2024-01-27T09:25:33.000Z</time>
        <extensions>
          <ns3:TrackPointExtension>
            <ns3:hr>158</ns3:hr>
            <ns3:cad>88</ns3:cad>
          </ns3:TrackPointExtension>
        </extensions>
      </trkpt>
      <trkpt lat="43.83657348342239856719970703125" lon="4.27269383333623409271240234375">
        <ele>127.1999969482421875</ele>
        <time>2024-01-27T09:25:34.000Z</time>
        <extensions>
          <ns3:TrackPointExtension>
            <ns3:hr>158</ns3:hr>
            <ns3:cad>88</ns3:cad>
          </ns3:TrackPointExtension>
        </extensions>
      </trkpt>
      <trkpt lat="43.836547248065471649169921875" lon="4.27270607091486454010009765625">
        <ele>127.1999969482421875</ele>
        <time>2024-01-27T09:25:35.000Z</time>
        <extensions>
          <ns3:TrackPointExtension>
            <ns3:hr>159</ns3:hr>
            <ns3:cad>88</ns3:cad>
          </ns3:TrackPointExtension>
        </extensions>
      </trkpt>
      <trkpt lat="43.83652453310787677764892578125" lon="4.27271864376962184906005859375">
        <ele>127.1999969482421875</ele>
        <time>2024-01-27T09:25:36.000Z</time>
        <extensions>
          <ns3:TrackPointExtension>
            <ns3:hr>159</ns3:hr>
            <ns3:cad>89</ns3:cad>
          </ns3:TrackPointExtension>
        </extensions>
      </trkpt>
      <trkpt lat="43.83649569936096668243408203125" lon="4.2727289535105228424072265625">
        <ele>127.1999969482421875</ele>
        <time>2024-01-27T09:25:37.000Z</time>
        <extensions>
          <ns3:TrackPointExtension>
            <ns3:hr>160</ns3:hr>
            <ns3:cad>90</ns3:cad>
          </ns3:TrackPointExtension>
        </extensions>
      </trkpt>
      <trkpt lat="43.83647273294627666473388671875" lon="4.27274060435593128204345703125">
        <ele>127.1999969482421875</ele>
        <time>2024-01-27T09:25:38.000Z</time>
        <extensions>
          <ns3:TrackPointExtension>
            <ns3:hr>161</ns3:hr>
            <ns3:cad>90</ns3:cad>
          </ns3:TrackPointExtension>
        </extensions>
      </trkpt>
      <trkpt lat="43.83644632995128631591796875" lon="4.2727480642497539520263671875">
        <ele>127.1999969482421875</ele>
        <time>2024-01-27T09:25:39.000Z</time>
        <extensions>
          <ns3:TrackPointExtension>
            <ns3:hr>162</ns3:hr>
            <ns3:cad>91</ns3:cad>
          </ns3:TrackPointExtension>
        </extensions>
      </trkpt>
      <trkpt lat="43.83641758002340793609619140625" lon="4.272755943238735198974609375">
        <ele>127.1999969482421875</ele>
        <time>2024-01-27T09:25:40.000Z</time>
        <extensions>
          <ns3:TrackPointExtension>
            <ns3:hr>162</ns3:hr>
            <ns3:cad>92</ns3:cad>
          </ns3:TrackPointExtension>
        </extensions>
      </trkpt>
      <trkpt lat="43.83639134466648101806640625" lon="4.27276575006544589996337890625">
        <ele>127.1999969482421875</ele>
        <time>2024-01-27T09:25:41.000Z</time>
        <extensions>
          <ns3:TrackPointExtension>
            <ns3:hr>162</ns3:hr>
            <ns3:cad>92</ns3:cad>
          </ns3:TrackPointExtension>
        </extensions>
      </trkpt>
      <trkpt lat="43.836360834538936614990234375" lon="4.2727732099592685699462890625">
        <ele>127.1999969482421875</ele>
        <time>2024-01-27T09:25:42.000Z</time>
        <extensions>
          <ns3:TrackPointExtension>
            <ns3:hr>163</ns3:hr>
            <ns3:cad>93</ns3:cad>
          </ns3:TrackPointExtension>
        </extensions>
      </trkpt>
      <trkpt lat="43.83633459918200969696044921875" lon="4.27277966402471065521240234375">
        <ele>127.1999969482421875</ele>
        <time>2024-01-27T09:25:43.000Z</time>
        <extensions>
          <ns3:TrackPointExtension>
            <ns3:hr>163</ns3:hr>
            <ns3:cad>93</ns3:cad>
          </ns3:TrackPointExtension>
        </extensions>
      </trkpt>
      <trkpt lat="43.836310543119907379150390625" lon="4.27278888411819934844970703125">
        <ele>127.1999969482421875</ele>
        <time>2024-01-27T09:25:44.000Z</time>
        <extensions>
          <ns3:TrackPointExtension>
            <ns3:hr>163</ns3:hr>
            <ns3:cad>93</ns3:cad>
          </ns3:TrackPointExtension>
        </extensions>
      </trkpt>
      <trkpt lat="43.836287073791027069091796875" lon="4.27280128933489322662353515625">
        <ele>127</ele>
        <time>2024-01-27T09:25:45.000Z</time>
        <extensions>
          <ns3:TrackPointExtension>
            <ns3:hr>163</ns3:hr>
            <ns3:cad>93</ns3:cad>
          </ns3:TrackPointExtension>
        </extensions>
      </trkpt>
      <trkpt lat="43.8362632691860198974609375" lon="4.27281796932220458984375">
        <ele>127</ele>
        <time>2024-01-27T09:25:46.000Z</time>
        <extensions>
          <ns3:TrackPointExtension>
            <ns3:hr>163</ns3:hr>
            <ns3:cad>92</ns3:cad>
          </ns3:TrackPointExtension>
        </extensions>
      </trkpt>
      <trkpt lat="43.83624306879937648773193359375" lon="4.27282894961535930633544921875">
        <ele>127</ele>
        <time>2024-01-27T09:25:47.000Z</time>
        <extensions>
          <ns3:TrackPointExtension>
            <ns3:hr>163</ns3:hr>
            <ns3:cad>92</ns3:cad>
          </ns3:TrackPointExtension>
        </extensions>
      </trkpt>
      <trkpt lat="43.83621624670922756195068359375" lon="4.272842444479465484619140625">
        <ele>127</ele>
        <time>2024-01-27T09:25:48.000Z</time>
        <extensions>
          <ns3:TrackPointExtension>
            <ns3:hr>164</ns3:hr>
            <ns3:cad>91</ns3:cad>
          </ns3:TrackPointExtension>
        </extensions>
      </trkpt>
      <trkpt lat="43.8361950404942035675048828125" lon="4.2728566937148571014404296875">
        <ele>126.8000030517578125</ele>
        <time>2024-01-27T09:25:49.000Z</time>
        <extensions>
          <ns3:TrackPointExtension>
            <ns3:hr>164</ns3:hr>
            <ns3:cad>90</ns3:cad>
          </ns3:TrackPointExtension>
        </extensions>
      </trkpt>
      <trkpt lat="43.83616746403276920318603515625" lon="4.27286784164607524871826171875">
        <ele>126.8000030517578125</ele>
        <time>2024-01-27T09:25:50.000Z</time>
        <extensions>
          <ns3:TrackPointExtension>
            <ns3:hr>164</ns3:hr>
            <ns3:cad>90</ns3:cad>
          </ns3:TrackPointExtension>
        </extensions>
      </trkpt>
      <trkpt lat="43.8361474312841892242431640625" lon="4.27288175560534000396728515625">
        <ele>126.8000030517578125</ele>
        <time>2024-01-27T09:25:51.000Z</time>
        <extensions>
          <ns3:TrackPointExtension>
            <ns3:hr>164</ns3:hr>
            <ns3:cad>90</ns3:cad>
          </ns3:TrackPointExtension>
        </extensions>
      </trkpt>
      <trkpt lat="43.83611775934696197509765625" lon="4.2728915624320507049560546875">
        <ele>126.59999847412109375</ele>
        <time>2024-01-27T09:25:52.000Z</time>
        <extensions>
          <ns3:TrackPointExtension>
            <ns3:hr>164</ns3:hr>
            <ns3:cad>90</ns3:cad>
          </ns3:TrackPointExtension>
        </extensions>
      </trkpt>
      <trkpt lat="43.83609437383711338043212890625" lon="4.2729026265442371368408203125">
        <ele>126.40000152587890625</ele>
        <time>2024-01-27T09:25:53.000Z</time>
        <extensions>
          <ns3:TrackPointExtension>
            <ns3:hr>163</ns3:hr>
            <ns3:cad>90</ns3:cad>
          </ns3:TrackPointExtension>
        </extensions>
      </trkpt>
      <trkpt lat="43.836068809032440185546875" lon="4.27291427738964557647705078125">
        <ele>126.1999969482421875</ele>
        <time>2024-01-27T09:25:54.000Z</time>
        <extensions>
          <ns3:TrackPointExtension>
            <ns3:hr>163</ns3:hr>
            <ns3:cad>90</ns3:cad>
          </ns3:TrackPointExtension>
        </extensions>
      </trkpt>
      <trkpt lat="43.83604533970355987548828125" lon="4.27293053828179836273193359375">
        <ele>126</ele>
        <time>2024-01-27T09:25:55.000Z</time>
        <extensions>
          <ns3:TrackPointExtension>
            <ns3:hr>163</ns3:hr>
            <ns3:cad>89</ns3:cad>
          </ns3:TrackPointExtension>
        </extensions>
      </trkpt>
      <trkpt lat="43.8360218703746795654296875" lon="4.27294948138296604156494140625">
        <ele>125.8000030517578125</ele>
        <time>2024-01-27T09:25:56.000Z</time>
        <extensions>
          <ns3:TrackPointExtension>
            <ns3:hr>163</ns3:hr>
            <ns3:cad>89</ns3:cad>
          </ns3:TrackPointExtension>
        </extensions>
      </trkpt>
      <trkpt lat="43.8360056094825267791748046875" lon="4.27296616137027740478515625">
        <ele>125.59999847412109375</ele>
        <time>2024-01-27T09:25:57.000Z</time>
        <extensions>
          <ns3:TrackPointExtension>
            <ns3:hr>163</ns3:hr>
            <ns3:cad>89</ns3:cad>
          </ns3:TrackPointExtension>
        </extensions>
      </trkpt>
      <trkpt lat="43.835983984172344207763671875" lon="4.27298988215625286102294921875">
        <ele>125.59999847412109375</ele>
        <time>2024-01-27T09:25:58.000Z</time>
        <extensions>
          <ns3:TrackPointExtension>
            <ns3:hr>163</ns3:hr>
            <ns3:cad>89</ns3:cad>
          </ns3:TrackPointExtension>
        </extensions>
      </trkpt>
      <trkpt lat="43.83596948347985744476318359375" lon="4.273008070886135101318359375">
        <ele>125.1999969482421875</ele>
        <time>2024-01-27T09:25:59.000Z</time>
        <extensions>
          <ns3:TrackPointExtension>
            <ns3:hr>163</ns3:hr>
            <ns3:cad>89</ns3:cad>
          </ns3:TrackPointExtension>
        </extensions>
      </trkpt>
      <trkpt lat="43.835947774350643157958984375" lon="4.27303581498563289642333984375">
        <ele>125</ele>
        <time>2024-01-27T09:26:00.000Z</time>
        <extensions>
          <ns3:TrackPointExtension>
            <ns3:hr>163</ns3:hr>
            <ns3:cad>89</ns3:cad>
          </ns3:TrackPointExtension>
        </extensions>
      </trkpt>
      <trkpt lat="43.83593461476266384124755859375" lon="4.273058362305164337158203125">
        <ele>124.8000030517578125</ele>
        <time>2024-01-27T09:26:01.000Z</time>
        <extensions>
          <ns3:TrackPointExtension>
            <ns3:hr>163</ns3:hr>
            <ns3:cad>89</ns3:cad>
          </ns3:TrackPointExtension>
        </extensions>
      </trkpt>
      <trkpt lat="43.83591986261308193206787109375" lon="4.2730875313282012939453125">
        <ele>124.59999847412109375</ele>
        <time>2024-01-27T09:26:02.000Z</time>
        <extensions>
          <ns3:TrackPointExtension>
            <ns3:hr>163</ns3:hr>
            <ns3:cad>89</ns3:cad>
          </ns3:TrackPointExtension>
        </extensions>
      </trkpt>
      <trkpt lat="43.83590376935899257659912109375" lon="4.27310974337160587310791015625">
        <ele>124.1999969482421875</ele>
        <time>2024-01-27T09:26:03.000Z</time>
        <extensions>
          <ns3:TrackPointExtension>
            <ns3:hr>163</ns3:hr>
            <ns3:cad>90</ns3:cad>
          </ns3:TrackPointExtension>
        </extensions>
      </trkpt>
      <trkpt lat="43.835879378020763397216796875" lon="4.273136816918849945068359375">
        <ele>124</ele>
        <time>2024-01-27T09:26:04.000Z</time>
        <extensions>
          <ns3:TrackPointExtension>
            <ns3:hr>163</ns3:hr>
            <ns3:cad>89</ns3:cad>
          </ns3:TrackPointExtension>
        </extensions>
      </trkpt>
      <trkpt lat="43.83585833944380283355712890625" lon="4.27315802313387393951416015625">
        <ele>123.59999847412109375</ele>
        <time>2024-01-27T09:26:05.000Z</time>
        <extensions>
          <ns3:TrackPointExtension>
            <ns3:hr>162</ns3:hr>
            <ns3:cad>90</ns3:cad>
          </ns3:TrackPointExtension>
        </extensions>
      </trkpt>
      <trkpt lat="43.83583344519138336181640625" lon="4.27318115718662738800048828125">
        <ele>123.40000152587890625</ele>
        <time>2024-01-27T09:26:06.000Z</time>
        <extensions>
          <ns3:TrackPointExtension>
            <ns3:hr>162</ns3:hr>
            <ns3:cad>90</ns3:cad>
          </ns3:TrackPointExtension>
        </extensions>
      </trkpt>
      <trkpt lat="43.8358071260154247283935546875" lon="4.2732006870210170745849609375">
        <ele>123</ele>
        <time>2024-01-27T09:26:07.000Z</time>
        <extensions>
          <ns3:TrackPointExtension>
            <ns3:hr>162</ns3:hr>
            <ns3:cad>90</ns3:cad>
          </ns3:TrackPointExtension>
        </extensions>
      </trkpt>
      <trkpt lat="43.835778795182704925537109375" lon="4.273222982883453369140625">
        <ele>122.8000030517578125</ele>
        <time>2024-01-27T09:26:08.000Z</time>
        <extensions>
          <ns3:TrackPointExtension>
            <ns3:hr>162</ns3:hr>
            <ns3:cad>90</ns3:cad>
          </ns3:TrackPointExtension>
        </extensions>
      </trkpt>
      <trkpt lat="43.835751302540302276611328125" lon="4.27324268035590648651123046875">
        <ele>122.40000152587890625</ele>
        <time>2024-01-27T09:26:09.000Z</time>
        <extensions>
          <ns3:TrackPointExtension>
            <ns3:hr>162</ns3:hr>
            <ns3:cad>90</ns3:cad>
          </ns3:TrackPointExtension>
        </extensions>
      </trkpt>
      <trkpt lat="43.835722468793392181396484375" lon="4.2732694186270236968994140625">
        <ele>122</ele>
        <time>2024-01-27T09:26:10.000Z</time>
        <extensions>
          <ns3:TrackPointExtension>
            <ns3:hr>162</ns3:hr>
            <ns3:cad>88</ns3:cad>
          </ns3:TrackPointExtension>
        </extensions>
      </trkpt>
      <trkpt lat="43.83569992147386074066162109375" lon="4.2732912115752696990966796875">
        <ele>121.8000030517578125</ele>
        <time>2024-01-27T09:26:11.000Z</time>
        <extensions>
          <ns3:TrackPointExtension>
            <ns3:hr>162</ns3:hr>
            <ns3:cad>88</ns3:cad>
          </ns3:TrackPointExtension>
        </extensions>
      </trkpt>
      <trkpt lat="43.83567661978304386138916015625" lon="4.273320548236370086669921875">
        <ele>121.59999847412109375</ele>
        <time>2024-01-27T09:26:12.000Z</time>
        <extensions>
          <ns3:TrackPointExtension>
            <ns3:hr>162</ns3:hr>
            <ns3:cad>88</ns3:cad>
          </ns3:TrackPointExtension>
        </extensions>
      </trkpt>
      <trkpt lat="43.83565247990190982818603515625" lon="4.2733401618897914886474609375">
        <ele>121.1999969482421875</ele>
        <time>2024-01-27T09:26:13.000Z</time>
        <extensions>
          <ns3:TrackPointExtension>
            <ns3:hr>162</ns3:hr>
            <ns3:cad>88</ns3:cad>
          </ns3:TrackPointExtension>
        </extensions>
      </trkpt>
      <trkpt lat="43.83562481962144374847412109375" lon="4.27335449494421482086181640625">
        <ele>121.1999969482421875</ele>
        <time>2024-01-27T09:26:14.000Z</time>
        <extensions>
          <ns3:TrackPointExtension>
            <ns3:hr>162</ns3:hr>
            <ns3:cad>87</ns3:cad>
          </ns3:TrackPointExtension>
        </extensions>
      </trkpt>
      <trkpt lat="43.83559900335967540740966796875" lon="4.2733637988567352294921875">
        <ele>121</ele>
        <time>2024-01-27T09:26:15.000Z</time>
        <extensions>
          <ns3:TrackPointExtension>
            <ns3:hr>162</ns3:hr>
            <ns3:cad>87</ns3:cad>
          </ns3:TrackPointExtension>
        </extensions>
      </trkpt>
      <trkpt lat="43.83557050488889217376708984375" lon="4.2733637988567352294921875">
        <ele>121</ele>
        <time>2024-01-27T09:26:16.000Z</time>
        <extensions>
          <ns3:TrackPointExtension>
            <ns3:hr>162</ns3:hr>
            <ns3:cad>87</ns3:cad>
          </ns3:TrackPointExtension>
        </extensions>
      </trkpt>
      <trkpt lat="43.83554653264582157135009765625" lon="4.27337042056024074554443359375">
        <ele>121</ele>
        <time>2024-01-27T09:26:17.000Z</time>
        <extensions>
          <ns3:TrackPointExtension>
            <ns3:hr>162</ns3:hr>
            <ns3:cad>90</ns3:cad>
          </ns3:TrackPointExtension>
        </extensions>
      </trkpt>
      <trkpt lat="43.83551669307053089141845703125" lon="4.27337293513119220733642578125">
        <ele>121</ele>
        <time>2024-01-27T09:26:18.000Z</time>
        <extensions>
          <ns3:TrackPointExtension>
            <ns3:hr>162</ns3:hr>
            <ns3:cad>90</ns3:cad>
          </ns3:TrackPointExtension>
        </extensions>
      </trkpt>
      <trkpt lat="43.83549414575099945068359375" lon="4.27338316105306148529052734375">
        <ele>121.1999969482421875</ele>
        <time>2024-01-27T09:26:19.000Z</time>
        <extensions>
          <ns3:TrackPointExtension>
            <ns3:hr>161</ns3:hr>
            <ns3:cad>90</ns3:cad>
          </ns3:TrackPointExtension>
        </extensions>
      </trkpt>
      <trkpt lat="43.8354668207466602325439453125" lon="4.27338534034788608551025390625">
        <ele>121.1999969482421875</ele>
        <time>2024-01-27T09:26:20.000Z</time>
        <extensions>
          <ns3:TrackPointExtension>
            <ns3:hr>161</ns3:hr>
            <ns3:cad>91</ns3:cad>
          </ns3:TrackPointExtension>
        </extensions>
      </trkpt>
      <trkpt lat="43.8354426808655261993408203125" lon="4.2733944766223430633544921875">
        <ele>121.40000152587890625</ele>
        <time>2024-01-27T09:26:21.000Z</time>
        <extensions>
          <ns3:TrackPointExtension>
            <ns3:hr>161</ns3:hr>
            <ns3:cad>92</ns3:cad>
          </ns3:TrackPointExtension>
        </extensions>
      </trkpt>
      <trkpt lat="43.835411332547664642333984375" lon="4.27339741028845310211181640625">
        <ele>121.59999847412109375</ele>
        <time>2024-01-27T09:26:22.000Z</time>
        <extensions>
          <ns3:TrackPointExtension>
            <ns3:hr>161</ns3:hr>
            <ns3:cad>93</ns3:cad>
          </ns3:TrackPointExtension>
        </extensions>
      </trkpt>
      <trkpt lat="43.835387863218784332275390625" lon="4.27340294234454631805419921875">
        <ele>121.59999847412109375</ele>
        <time>2024-01-27T09:26:23.000Z</time>
        <extensions>
          <ns3:TrackPointExtension>
            <ns3:hr>161</ns3:hr>
            <ns3:cad>93</ns3:cad>
          </ns3:TrackPointExtension>
        </extensions>
      </trkpt>
      <trkpt lat="43.83535961620509624481201171875" lon="4.27340813912451267242431640625">
        <ele>121.59999847412109375</ele>
        <time>2024-01-27T09:26:24.000Z</time>
        <extensions>
          <ns3:TrackPointExtension>
            <ns3:hr>161</ns3:hr>
            <ns3:cad>93</ns3:cad>
          </ns3:TrackPointExtension>
        </extensions>
      </trkpt>
      <trkpt lat="43.83533346466720104217529296875" lon="4.27341551519930362701416015625">
        <ele>121.8000030517578125</ele>
        <time>2024-01-27T09:26:25.000Z</time>
        <extensions>
          <ns3:TrackPointExtension>
            <ns3:hr>161</ns3:hr>
            <ns3:cad>92</ns3:cad>
          </ns3:TrackPointExtension>
        </extensions>
      </trkpt>
      <trkpt lat="43.835306726396083831787109375" lon="4.27342054434120655059814453125">
        <ele>121.8000030517578125</ele>
        <time>2024-01-27T09:26:26.000Z</time>
        <extensions>
          <ns3:TrackPointExtension>
            <ns3:hr>161</ns3:hr>
            <ns3:cad>92</ns3:cad>
          </ns3:TrackPointExtension>
        </extensions>
      </trkpt>
      <trkpt lat="43.83528334088623523712158203125" lon="4.27342406474053859710693359375">
        <ele>121.8000030517578125</ele>
        <time>2024-01-27T09:26:27.000Z</time>
        <extensions>
          <ns3:TrackPointExtension>
            <ns3:hr>161</ns3:hr>
            <ns3:cad>92</ns3:cad>
          </ns3:TrackPointExtension>
        </extensions>
      </trkpt>
      <trkpt lat="43.83525400422513484954833984375" lon="4.273425154387950897216796875">
        <ele>122</ele>
        <time>2024-01-27T09:26:28.000Z</time>
        <extensions>
          <ns3:TrackPointExtension>
            <ns3:hr>161</ns3:hr>
            <ns3:cad>92</ns3:cad>
          </ns3:TrackPointExtension>
        </extensions>
      </trkpt>
      <trkpt lat="43.83522592484951019287109375" lon="4.2734313569962978363037109375">
        <ele>122</ele>
        <time>2024-01-27T09:26:29.000Z</time>
        <extensions>
          <ns3:TrackPointExtension>
            <ns3:hr>161</ns3:hr>
            <ns3:cad>92</ns3:cad>
          </ns3:TrackPointExtension>
        </extensions>
      </trkpt>
      <trkpt lat="43.835200108587741851806640625" lon="4.27343378774821758270263671875">
        <ele>122</ele>
        <time>2024-01-27T09:26:30.000Z</time>
        <extensions>
          <ns3:TrackPointExtension>
            <ns3:hr>161</ns3:hr>
            <ns3:cad>92</ns3:cad>
          </ns3:TrackPointExtension>
        </extensions>
      </trkpt>
      <trkpt lat="43.83517018519341945648193359375" lon="4.2734377272427082061767578125">
        <ele>122.1999969482421875</ele>
        <time>2024-01-27T09:26:31.000Z</time>
        <extensions>
          <ns3:TrackPointExtension>
            <ns3:hr>161</ns3:hr>
            <ns3:cad>92</ns3:cad>
          </ns3:TrackPointExtension>
        </extensions>
      </trkpt>
      <trkpt lat="43.83514386601746082305908203125" lon="4.27344300784170627593994140625">
        <ele>122.1999969482421875</ele>
        <time>2024-01-27T09:26:32.000Z</time>
        <extensions>
          <ns3:TrackPointExtension>
            <ns3:hr>161</ns3:hr>
            <ns3:cad>92</ns3:cad>
          </ns3:TrackPointExtension>
        </extensions>
      </trkpt>
      <trkpt lat="43.83511519990861415863037109375" lon="4.27344627678394317626953125">
        <ele>122.40000152587890625</ele>
        <time>2024-01-27T09:26:33.000Z</time>
        <extensions>
          <ns3:TrackPointExtension>
            <ns3:hr>160</ns3:hr>
            <ns3:cad>92</ns3:cad>
          </ns3:TrackPointExtension>
        </extensions>
      </trkpt>
      <trkpt lat="43.835089467465877532958984375" lon="4.2734538204967975616455078125">
        <ele>122.40000152587890625</ele>
        <time>2024-01-27T09:26:34.000Z</time>
        <extensions>
          <ns3:TrackPointExtension>
            <ns3:hr>159</ns3:hr>
            <ns3:cad>92</ns3:cad>
          </ns3:TrackPointExtension>
        </extensions>
      </trkpt>
      <trkpt lat="43.8350601308047771453857421875" lon="4.2734591849148273468017578125">
        <ele>122.40000152587890625</ele>
        <time>2024-01-27T09:26:35.000Z</time>
        <extensions>
          <ns3:TrackPointExtension>
            <ns3:hr>159</ns3:hr>
            <ns3:cad>92</ns3:cad>
          </ns3:TrackPointExtension>
        </extensions>
      </trkpt>
      <trkpt lat="43.8350380025804042816162109375" lon="4.27346681244671344757080078125">
        <ele>122.40000152587890625</ele>
        <time>2024-01-27T09:26:36.000Z</time>
        <extensions>
          <ns3:TrackPointExtension>
            <ns3:hr>158</ns3:hr>
            <ns3:cad>93</ns3:cad>
          </ns3:TrackPointExtension>
        </extensions>
      </trkpt>
      <trkpt lat="43.83501294068992137908935546875" lon="4.27347217686474323272705078125">
        <ele>122.40000152587890625</ele>
        <time>2024-01-27T09:26:37.000Z</time>
        <extensions>
          <ns3:TrackPointExtension>
            <ns3:hr>158</ns3:hr>
            <ns3:cad>93</ns3:cad>
          </ns3:TrackPointExtension>
        </extensions>
      </trkpt>
      <trkpt lat="43.8349880464375019073486328125" lon="4.2734809778630733489990234375">
        <ele>122.40000152587890625</ele>
        <time>2024-01-27T09:26:38.000Z</time>
        <extensions>
          <ns3:TrackPointExtension>
            <ns3:hr>158</ns3:hr>
            <ns3:cad>93</ns3:cad>
          </ns3:TrackPointExtension>
        </extensions>
      </trkpt>
      <trkpt lat="43.83495996706187725067138671875" lon="4.27348743192851543426513671875">
        <ele>122.40000152587890625</ele>
        <time>2024-01-27T09:26:39.000Z</time>
        <extensions>
          <ns3:TrackPointExtension>
            <ns3:hr>158</ns3:hr>
            <ns3:cad>93</ns3:cad>
          </ns3:TrackPointExtension>
        </extensions>
      </trkpt>
      <trkpt lat="43.8349344022572040557861328125" lon="4.27349765785038471221923828125">
        <ele>122.40000152587890625</ele>
        <time>2024-01-27T09:26:40.000Z</time>
        <extensions>
          <ns3:TrackPointExtension>
            <ns3:hr>158</ns3:hr>
            <ns3:cad>93</ns3:cad>
          </ns3:TrackPointExtension>
        </extensions>
      </trkpt>
      <trkpt lat="43.8349060714244842529296875" lon="4.273503609001636505126953125">
        <ele>122.40000152587890625</ele>
        <time>2024-01-27T09:26:41.000Z</time>
        <extensions>
          <ns3:TrackPointExtension>
            <ns3:hr>157</ns3:hr>
            <ns3:cad>93</ns3:cad>
          </ns3:TrackPointExtension>
        </extensions>
      </trkpt>
      <trkpt lat="43.83487899787724018096923828125" lon="4.273510985076427459716796875">
        <ele>122.40000152587890625</ele>
        <time>2024-01-27T09:26:42.000Z</time>
        <extensions>
          <ns3:TrackPointExtension>
            <ns3:hr>158</ns3:hr>
            <ns3:cad>93</ns3:cad>
          </ns3:TrackPointExtension>
        </extensions>
      </trkpt>
      <trkpt lat="43.83484614081680774688720703125" lon="4.27351777441799640655517578125">
        <ele>122.1999969482421875</ele>
        <time>2024-01-27T09:26:43.000Z</time>
        <extensions>
          <ns3:TrackPointExtension>
            <ns3:hr>158</ns3:hr>
            <ns3:cad>93</ns3:cad>
          </ns3:TrackPointExtension>
        </extensions>
      </trkpt>
      <trkpt lat="43.83481730706989765167236328125" lon="4.2735332809388637542724609375">
        <ele>122.1999969482421875</ele>
        <time>2024-01-27T09:26:44.000Z</time>
        <extensions>
          <ns3:TrackPointExtension>
            <ns3:hr>158</ns3:hr>
            <ns3:cad>93</ns3:cad>
          </ns3:TrackPointExtension>
        </extensions>
      </trkpt>
      <trkpt lat="43.83479006588459014892578125" lon="4.27354157902300357818603515625">
        <ele>122</ele>
        <time>2024-01-27T09:26:45.000Z</time>
        <extensions>
          <ns3:TrackPointExtension>
            <ns3:hr>158</ns3:hr>
            <ns3:cad>92</ns3:cad>
          </ns3:TrackPointExtension>
        </extensions>
      </trkpt>
      <trkpt lat="43.83476584218442440032958984375" lon="4.2735542356967926025390625">
        <ele>122</ele>
        <time>2024-01-27T09:26:46.000Z</time>
        <extensions>
          <ns3:TrackPointExtension>
            <ns3:hr>158</ns3:hr>
            <ns3:cad>90</ns3:cad>
          </ns3:TrackPointExtension>
        </extensions>
      </trkpt>
      <trkpt lat="43.8347352482378482818603515625" lon="4.27356286905705928802490234375">
        <ele>121.8000030517578125</ele>
        <time>2024-01-27T09:26:47.000Z</time>
        <extensions>
          <ns3:TrackPointExtension>
            <ns3:hr>158</ns3:hr>
            <ns3:cad>90</ns3:cad>
          </ns3:TrackPointExtension>
        </extensions>
      </trkpt>
      <trkpt lat="43.8347090966999530792236328125" lon="4.2735745199024677276611328125">
        <ele>121.8000030517578125</ele>
        <time>2024-01-27T09:26:48.000Z</time>
        <extensions>
          <ns3:TrackPointExtension>
            <ns3:hr>158</ns3:hr>
            <ns3:cad>89</ns3:cad>
          </ns3:TrackPointExtension>
        </extensions>
      </trkpt>
      <trkpt lat="43.8346802629530429840087890625" lon="4.27358566783368587493896484375">
        <ele>121.59999847412109375</ele>
        <time>2024-01-27T09:26:49.000Z</time>
        <extensions>
          <ns3:TrackPointExtension>
            <ns3:hr>158</ns3:hr>
            <ns3:cad>89</ns3:cad>
          </ns3:TrackPointExtension>
        </extensions>
      </trkpt>
      <trkpt lat="43.83465729653835296630859375" lon="4.27359371446073055267333984375">
        <ele>121.40000152587890625</ele>
        <time>2024-01-27T09:26:50.000Z</time>
        <extensions>
          <ns3:TrackPointExtension>
            <ns3:hr>158</ns3:hr>
            <ns3:cad>89</ns3:cad>
          </ns3:TrackPointExtension>
        </extensions>
      </trkpt>
      <trkpt lat="43.83463240228593349456787109375" lon="4.2736026830971240997314453125">
        <ele>121.1999969482421875</ele>
        <time>2024-01-27T09:26:51.000Z</time>
        <extensions>
          <ns3:TrackPointExtension>
            <ns3:hr>158</ns3:hr>
            <ns3:cad>88</ns3:cad>
          </ns3:TrackPointExtension>
        </extensions>
      </trkpt>
      <trkpt lat="43.83461178280413150787353515625" lon="4.2736144177615642547607421875">
        <ele>121</ele>
        <time>2024-01-27T09:26:52.000Z</time>
        <extensions>
          <ns3:TrackPointExtension>
            <ns3:hr>158</ns3:hr>
            <ns3:cad>88</ns3:cad>
          </ns3:TrackPointExtension>
        </extensions>
      </trkpt>
      <trkpt lat="43.8345820270478725433349609375" lon="4.273625649511814117431640625">
        <ele>121</ele>
        <time>2024-01-27T09:26:53.000Z</time>
        <extensions>
          <ns3:TrackPointExtension>
            <ns3:hr>158</ns3:hr>
            <ns3:cad>88</ns3:cad>
          </ns3:TrackPointExtension>
        </extensions>
      </trkpt>
      <trkpt lat="43.8345605693757534027099609375" lon="4.27363914437592029571533203125">
        <ele>120.59999847412109375</ele>
        <time>2024-01-27T09:26:54.000Z</time>
        <extensions>
          <ns3:TrackPointExtension>
            <ns3:hr>158</ns3:hr>
            <ns3:cad>87</ns3:cad>
          </ns3:TrackPointExtension>
        </extensions>
      </trkpt>
      <trkpt lat="43.83453148417174816131591796875" lon="4.27365138195455074310302734375">
        <ele>120.59999847412109375</ele>
        <time>2024-01-27T09:26:55.000Z</time>
        <extensions>
          <ns3:TrackPointExtension>
            <ns3:hr>158</ns3:hr>
            <ns3:cad>87</ns3:cad>
          </ns3:TrackPointExtension>
        </extensions>
      </trkpt>
      <trkpt lat="43.83450885303318500518798828125" lon="4.27366680465638637542724609375">
        <ele>120.40000152587890625</ele>
        <time>2024-01-27T09:26:56.000Z</time>
        <extensions>
          <ns3:TrackPointExtension>
            <ns3:hr>159</ns3:hr>
            <ns3:cad>87</ns3:cad>
          </ns3:TrackPointExtension>
        </extensions>
      </trkpt>
      <trkpt lat="43.8344814442098140716552734375" lon="4.2736865021288394927978515625">
        <ele>120.40000152587890625</ele>
        <time>2024-01-27T09:26:57.000Z</time>
        <extensions>
          <ns3:TrackPointExtension>
            <ns3:hr>159</ns3:hr>
            <ns3:cad>88</ns3:cad>
          </ns3:TrackPointExtension>
        </extensions>
      </trkpt>
      <trkpt lat="43.834455795586109161376953125" lon="4.2737032659351825714111328125">
        <ele>120.1999969482421875</ele>
        <time>2024-01-27T09:26:58.000Z</time>
        <extensions>
          <ns3:TrackPointExtension>
            <ns3:hr>161</ns3:hr>
            <ns3:cad>88</ns3:cad>
          </ns3:TrackPointExtension>
        </extensions>
      </trkpt>
      <trkpt lat="43.8344278000295162200927734375" lon="4.27372128702700138092041015625">
        <ele>119.8000030517578125</ele>
        <time>2024-01-27T09:26:59.000Z</time>
        <extensions>
          <ns3:TrackPointExtension>
            <ns3:hr>164</ns3:hr>
            <ns3:cad>90</ns3:cad>
          </ns3:TrackPointExtension>
        </extensions>
      </trkpt>
      <trkpt lat="43.834404163062572479248046875" lon="4.273738302290439605712890625">
        <ele>119.59999847412109375</ele>
        <time>2024-01-27T09:27:00.000Z</time>
        <extensions>
          <ns3:TrackPointExtension>
            <ns3:hr>164</ns3:hr>
            <ns3:cad>90</ns3:cad>
          </ns3:TrackPointExtension>
        </extensions>
      </trkpt>
      <trkpt lat="43.8343811966478824615478515625" lon="4.27375607192516326904296875">
        <ele>119.40000152587890625</ele>
        <time>2024-01-27T09:27:01.000Z</time>
        <extensions>
          <ns3:TrackPointExtension>
            <ns3:hr>164</ns3:hr>
            <ns3:cad>89</ns3:cad>
          </ns3:TrackPointExtension>
        </extensions>
      </trkpt>
      <trkpt lat="43.83435764349997043609619140625" lon="4.27377912215888500213623046875">
        <ele>119.1999969482421875</ele>
        <time>2024-01-27T09:27:02.000Z</time>
        <extensions>
          <ns3:TrackPointExtension>
            <ns3:hr>164</ns3:hr>
            <ns3:cad>89</ns3:cad>
          </ns3:TrackPointExtension>
        </extensions>
      </trkpt>
      <trkpt lat="43.83433409035205841064453125" lon="4.27380032837390899658203125">
        <ele>119</ele>
        <time>2024-01-27T09:27:03.000Z</time>
        <extensions>
          <ns3:TrackPointExtension>
            <ns3:hr>165</ns3:hr>
            <ns3:cad>88</ns3:cad>
          </ns3:TrackPointExtension>
        </extensions>
      </trkpt>
      <trkpt lat="43.83431204594671726226806640625" lon="4.27382220514118671417236328125">
        <ele>118.8000030517578125</ele>
        <time>2024-01-27T09:27:04.000Z</time>
        <extensions>
          <ns3:TrackPointExtension>
            <ns3:hr>165</ns3:hr>
            <ns3:cad>88</ns3:cad>
          </ns3:TrackPointExtension>
        </extensions>
      </trkpt>
      <trkpt lat="43.83429176174104213714599609375" lon="4.27385707385838031768798828125">
        <ele>118.59999847412109375</ele>
        <time>2024-01-27T09:27:05.000Z</time>
        <extensions>
          <ns3:TrackPointExtension>
            <ns3:hr>165</ns3:hr>
            <ns3:cad>88</ns3:cad>
          </ns3:TrackPointExtension>
        </extensions>
      </trkpt>
      <trkpt lat="43.8342752493917942047119140625" lon="4.2738856561481952667236328125">
        <ele>118.1999969482421875</ele>
        <time>2024-01-27T09:27:06.000Z</time>
        <extensions>
          <ns3:TrackPointExtension>
            <ns3:hr>165</ns3:hr>
            <ns3:cad>88</ns3:cad>
          </ns3:TrackPointExtension>
        </extensions>
      </trkpt>
      <trkpt lat="43.834264688193798065185546875" lon="4.27392262034118175506591796875">
        <ele>118</ele>
        <time>2024-01-27T09:27:07.000Z</time>
        <extensions>
          <ns3:TrackPointExtension>
            <ns3:hr>165</ns3:hr>
            <ns3:cad>88</ns3:cad>
          </ns3:TrackPointExtension>
        </extensions>
      </trkpt>
      <trkpt lat="43.834253959357738494873046875" lon="4.2739512026309967041015625">
        <ele>117.8000030517578125</ele>
        <time>2024-01-27T09:27:08.000Z</time>
        <extensions>
          <ns3:TrackPointExtension>
            <ns3:hr>165</ns3:hr>
            <ns3:cad>89</ns3:cad>
          </ns3:TrackPointExtension>
        </extensions>
      </trkpt>
      <trkpt lat="43.8342440687119960784912109375" lon="4.27398062311112880706787109375">
        <ele>117.40000152587890625</ele>
        <time>2024-01-27T09:27:09.000Z</time>
        <extensions>
          <ns3:TrackPointExtension>
            <ns3:hr>165</ns3:hr>
            <ns3:cad>89</ns3:cad>
          </ns3:TrackPointExtension>
        </extensions>
      </trkpt>
      <trkpt lat="43.8342330045998096466064453125" lon="4.27400417625904083251953125">
        <ele>117.40000152587890625</ele>
        <time>2024-01-27T09:27:10.000Z</time>
        <extensions>
          <ns3:TrackPointExtension>
            <ns3:hr>165</ns3:hr>
            <ns3:cad>90</ns3:cad>
          </ns3:TrackPointExtension>
        </extensions>
      </trkpt>
      <trkpt lat="43.83421582169830799102783203125" lon="4.2740351893007755279541015625">
        <ele>117.40000152587890625</ele>
        <time>2024-01-27T09:27:11.000Z</time>
        <extensions>
          <ns3:TrackPointExtension>
            <ns3:hr>165</ns3:hr>
            <ns3:cad>91</ns3:cad>
          </ns3:TrackPointExtension>
        </extensions>
      </trkpt>
      <trkpt lat="43.8342045061290264129638671875" lon="4.2740584909915924072265625">
        <ele>117.40000152587890625</ele>
        <time>2024-01-27T09:27:12.000Z</time>
        <extensions>
          <ns3:TrackPointExtension>
            <ns3:hr>165</ns3:hr>
            <ns3:cad>92</ns3:cad>
          </ns3:TrackPointExtension>
        </extensions>
      </trkpt>
      <trkpt lat="43.83418095298111438751220703125" lon="4.2740807868540287017822265625">
        <ele>117.59999847412109375</ele>
        <time>2024-01-27T09:27:13.000Z</time>
        <extensions>
          <ns3:TrackPointExtension>
            <ns3:hr>165</ns3:hr>
            <ns3:cad>92</ns3:cad>
          </ns3:TrackPointExtension>
        </extensions>
      </trkpt>
      <trkpt lat="43.83416083641350269317626953125" lon="4.2740985564887523651123046875">
        <ele>117.59999847412109375</ele>
        <time>2024-01-27T09:27:14.000Z</time>
        <extensions>
          <ns3:TrackPointExtension>
            <ns3:hr>165</ns3:hr>
            <ns3:cad>92</ns3:cad>
          </ns3:TrackPointExtension>
        </extensions>
      </trkpt>
      <trkpt lat="43.834132589399814605712890625" lon="4.27411423064768314361572265625">
        <ele>117.59999847412109375</ele>
        <time>2024-01-27T09:27:15.000Z</time>
        <extensions>
          <ns3:TrackPointExtension>
            <ns3:hr>165</ns3:hr>
            <ns3:cad>92</ns3:cad>
          </ns3:TrackPointExtension>
        </extensions>
      </trkpt>
      <trkpt lat="43.83410970680415630340576171875" lon="4.2741334252059459686279296875">
        <ele>117.59999847412109375</ele>
        <time>2024-01-27T09:27:16.000Z</time>
        <extensions>
          <ns3:TrackPointExtension>
            <ns3:hr>165</ns3:hr>
            <ns3:cad>92</ns3:cad>
          </ns3:TrackPointExtension>
        </extensions>
      </trkpt>
      <trkpt lat="43.8340804539620876312255859375" lon="4.2741552181541919708251953125">
        <ele>117.59999847412109375</ele>
        <time>2024-01-27T09:27:17.000Z</time>
        <extensions>
          <ns3:TrackPointExtension>
            <ns3:hr>165</ns3:hr>
            <ns3:cad>91</ns3:cad>
          </ns3:TrackPointExtension>
        </extensions>
      </trkpt>
      <trkpt lat="43.83405656553804874420166015625" lon="4.2741796933114528656005859375">
        <ele>117.59999847412109375</ele>
        <time>2024-01-27T09:27:18.000Z</time>
        <extensions>
          <ns3:TrackPointExtension>
            <ns3:hr>165</ns3:hr>
            <ns3:cad>91</ns3:cad>
          </ns3:TrackPointExtension>
        </extensions>
      </trkpt>
      <trkpt lat="43.83402521722018718719482421875" lon="4.27420609630644321441650390625">
        <ele>117.40000152587890625</ele>
        <time>2024-01-27T09:27:19.000Z</time>
        <extensions>
          <ns3:TrackPointExtension>
            <ns3:hr>165</ns3:hr>
            <ns3:cad>91</ns3:cad>
          </ns3:TrackPointExtension>
        </extensions>
      </trkpt>
      <trkpt lat="43.8340016640722751617431640625" lon="4.27423375658690929412841796875">
        <ele>117.40000152587890625</ele>
        <time>2024-01-27T09:27:20.000Z</time>
        <extensions>
          <ns3:TrackPointExtension>
            <ns3:hr>165</ns3:hr>
            <ns3:cad>91</ns3:cad>
          </ns3:TrackPointExtension>
        </extensions>
      </trkpt>
      <trkpt lat="43.83398347534239292144775390625" lon="4.2742574773728847503662109375">
        <ele>117.40000152587890625</ele>
        <time>2024-01-27T09:27:21.000Z</time>
        <extensions>
          <ns3:TrackPointExtension>
            <ns3:hr>165</ns3:hr>
            <ns3:cad>92</ns3:cad>
          </ns3:TrackPointExtension>
        </extensions>
      </trkpt>
      <trkpt lat="43.83396486751735210418701171875" lon="4.27428354509174823760986328125">
        <ele>117.1999969482421875</ele>
        <time>2024-01-27T09:27:22.000Z</time>
        <extensions>
          <ns3:TrackPointExtension>
            <ns3:hr>165</ns3:hr>
            <ns3:cad>92</ns3:cad>
          </ns3:TrackPointExtension>
        </extensions>
      </trkpt>
      <trkpt lat="43.83394910953938961029052734375" lon="4.27430927753448486328125">
        <ele>117.1999969482421875</ele>
        <time>2024-01-27T09:27:23.000Z</time>
        <extensions>
          <ns3:TrackPointExtension>
            <ns3:hr>165</ns3:hr>
            <ns3:cad>92</ns3:cad>
          </ns3:TrackPointExtension>
        </extensions>
      </trkpt>
      <trkpt lat="43.83393435738980770111083984375" lon="4.27434188313782215118408203125">
        <ele>117.1999969482421875</ele>
        <time>2024-01-27T09:27:24.000Z</time>
        <extensions>
          <ns3:TrackPointExtension>
            <ns3:hr>165</ns3:hr>
            <ns3:cad>91</ns3:cad>
          </ns3:TrackPointExtension>
        </extensions>
      </trkpt>
      <trkpt lat="43.8339198566973209381103515625" lon="4.27437163889408111572265625">
        <ele>117</ele>
        <time>2024-01-27T09:27:25.000Z</time>
        <extensions>
          <ns3:TrackPointExtension>
            <ns3:hr>165</ns3:hr>
            <ns3:cad>91</ns3:cad>
          </ns3:TrackPointExtension>
        </extensions>
      </trkpt>
      <trkpt lat="43.8339047692716121673583984375" lon="4.274405501782894134521484375">
        <ele>117</ele>
        <time>2024-01-27T09:27:26.000Z</time>
        <extensions>
          <ns3:TrackPointExtension>
            <ns3:hr>165</ns3:hr>
            <ns3:cad>93</ns3:cad>
          </ns3:TrackPointExtension>
        </extensions>
      </trkpt>
      <trkpt lat="43.8338906876742839813232421875" lon="4.27443861030042171478271484375">
        <ele>117</ele>
        <time>2024-01-27T09:27:27.000Z</time>
        <extensions>
          <ns3:TrackPointExtension>
            <ns3:hr>165</ns3:hr>
            <ns3:cad>93</ns3:cad>
          </ns3:TrackPointExtension>
        </extensions>
      </trkpt>
      <trkpt lat="43.83387677371501922607421875" lon="4.2744744010269641876220703125">
        <ele>116.8000030517578125</ele>
        <time>2024-01-27T09:27:28.000Z</time>
        <extensions>
          <ns3:TrackPointExtension>
            <ns3:hr>165</ns3:hr>
            <ns3:cad>93</ns3:cad>
          </ns3:TrackPointExtension>
        </extensions>
      </trkpt>
      <trkpt lat="43.8338655419647693634033203125" lon="4.27450700663030147552490234375">
        <ele>116.8000030517578125</ele>
        <time>2024-01-27T09:27:29.000Z</time>
        <extensions>
          <ns3:TrackPointExtension>
            <ns3:hr>165</ns3:hr>
            <ns3:cad>92</ns3:cad>
          </ns3:TrackPointExtension>
        </extensions>
      </trkpt>
      <trkpt lat="43.83385087363421916961669921875" lon="4.27454187534749507904052734375">
        <ele>116.8000030517578125</ele>
        <time>2024-01-27T09:27:30.000Z</time>
        <extensions>
          <ns3:TrackPointExtension>
            <ns3:hr>165</ns3:hr>
            <ns3:cad>92</ns3:cad>
          </ns3:TrackPointExtension>
        </extensions>
      </trkpt>
      <trkpt lat="43.83383729495108127593994140625" lon="4.27457523532211780548095703125">
        <ele>116.59999847412109375</ele>
        <time>2024-01-27T09:27:31.000Z</time>
        <extensions>
          <ns3:TrackPointExtension>
            <ns3:hr>164</ns3:hr>
            <ns3:cad>90</ns3:cad>
          </ns3:TrackPointExtension>
        </extensions>
      </trkpt>
      <trkpt lat="43.8338229618966579437255859375" lon="4.2746125347912311553955078125">
        <ele>116.59999847412109375</ele>
        <time>2024-01-27T09:27:32.000Z</time>
        <extensions>
          <ns3:TrackPointExtension>
            <ns3:hr>164</ns3:hr>
            <ns3:cad>90</ns3:cad>
          </ns3:TrackPointExtension>
        </extensions>
      </trkpt>
      <trkpt lat="43.83381064049899578094482421875" lon="4.27464430220425128936767578125">
        <ele>116.40000152587890625</ele>
        <time>2024-01-27T09:27:33.000Z</time>
        <extensions>
          <ns3:TrackPointExtension>
            <ns3:hr>164</ns3:hr>
            <ns3:cad>90</ns3:cad>
          </ns3:TrackPointExtension>
        </extensions>
      </trkpt>
      <trkpt lat="43.83379672653973102569580078125" lon="4.27468277513980865478515625">
        <ele>116.40000152587890625</ele>
        <time>2024-01-27T09:27:34.000Z</time>
        <extensions>
          <ns3:TrackPointExtension>
            <ns3:hr>164</ns3:hr>
            <ns3:cad>90</ns3:cad>
          </ns3:TrackPointExtension>
        </extensions>
      </trkpt>
      <trkpt lat="43.833786584436893463134765625" lon="4.274715967476367950439453125">
        <ele>116.40000152587890625</ele>
        <time>2024-01-27T09:27:35.000Z</time>
        <extensions>
          <ns3:TrackPointExtension>
            <ns3:hr>164</ns3:hr>
            <ns3:cad>90</ns3:cad>
          </ns3:TrackPointExtension>
        </extensions>
      </trkpt>
      <trkpt lat="43.83377526886761188507080078125" lon="4.274752847850322723388671875">
        <ele>116.40000152587890625</ele>
        <time>2024-01-27T09:27:36.000Z</time>
        <extensions>
          <ns3:TrackPointExtension>
            <ns3:hr>164</ns3:hr>
            <ns3:cad>91</ns3:cad>
          </ns3:TrackPointExtension>
        </extensions>
      </trkpt>
      <trkpt lat="43.83377015590667724609375" lon="4.27477933466434478759765625">
        <ele>116.40000152587890625</ele>
        <time>2024-01-27T09:27:37.000Z</time>
        <extensions>
          <ns3:TrackPointExtension>
            <ns3:hr>164</ns3:hr>
            <ns3:cad>91</ns3:cad>
          </ns3:TrackPointExtension>
        </extensions>
      </trkpt>
      <trkpt lat="43.8337592594325542449951171875" lon="4.274811856448650360107421875">
        <ele>116.1999969482421875</ele>
        <time>2024-01-27T09:27:38.000Z</time>
        <extensions>
          <ns3:TrackPointExtension>
            <ns3:hr>164</ns3:hr>
            <ns3:cad>91</ns3:cad>
          </ns3:TrackPointExtension>
        </extensions>
      </trkpt>
      <trkpt lat="43.83375548757612705230712890625" lon="4.27484345622360706329345703125">
        <ele>116.1999969482421875</ele>
        <time>2024-01-27T09:27:39.000Z</time>
        <extensions>
          <ns3:TrackPointExtension>
            <ns3:hr>164</ns3:hr>
            <ns3:cad>91</ns3:cad>
          </ns3:TrackPointExtension>
        </extensions>
      </trkpt>
      <trkpt lat="43.83374609984457492828369140625" lon="4.2748777382075786590576171875">
        <ele>116.1999969482421875</ele>
        <time>2024-01-27T09:27:40.000Z</time>
        <extensions>
          <ns3:TrackPointExtension>
            <ns3:hr>164</ns3:hr>
            <ns3:cad>91</ns3:cad>
          </ns3:TrackPointExtension>
        </extensions>
      </trkpt>
      <trkpt lat="43.833738304674625396728515625" lon="4.2749099247157573699951171875">
        <ele>116.1999969482421875</ele>
        <time>2024-01-27T09:27:41.000Z</time>
        <extensions>
          <ns3:TrackPointExtension>
            <ns3:hr>164</ns3:hr>
            <ns3:cad>93</ns3:cad>
          </ns3:TrackPointExtension>
        </extensions>
      </trkpt>
      <trkpt lat="43.83372522890567779541015625" lon="4.2749397642910480499267578125">
        <ele>116.1999969482421875</ele>
        <time>2024-01-27T09:27:42.000Z</time>
        <extensions>
          <ns3:TrackPointExtension>
            <ns3:hr>164</ns3:hr>
            <ns3:cad>93</ns3:cad>
          </ns3:TrackPointExtension>
        </extensions>
      </trkpt>
      <trkpt lat="43.83371123112738132476806640625" lon="4.274972118437290191650390625">
        <ele>116.1999969482421875</ele>
        <time>2024-01-27T09:27:43.000Z</time>
        <extensions>
          <ns3:TrackPointExtension>
            <ns3:hr>164</ns3:hr>
            <ns3:cad>93</ns3:cad>
          </ns3:TrackPointExtension>
        </extensions>
      </trkpt>
      <trkpt lat="43.8336985744535923004150390625" lon="4.275000952184200286865234375">
        <ele>116</ele>
        <time>2024-01-27T09:27:44.000Z</time>
        <extensions>
          <ns3:TrackPointExtension>
            <ns3:hr>164</ns3:hr>
            <ns3:cad>92</ns3:cad>
          </ns3:TrackPointExtension>
        </extensions>
      </trkpt>
      <trkpt lat="43.8336789608001708984375" lon="4.275031797587871551513671875">
        <ele>116.1999969482421875</ele>
        <time>2024-01-27T09:27:45.000Z</time>
        <extensions>
          <ns3:TrackPointExtension>
            <ns3:hr>164</ns3:hr>
            <ns3:cad>92</ns3:cad>
          </ns3:TrackPointExtension>
        </extensions>
      </trkpt>
      <trkpt lat="43.83366429246962070465087890625" lon="4.27505618892610073089599609375">
        <ele>116.1999969482421875</ele>
        <time>2024-01-27T09:27:46.000Z</time>
        <extensions>
          <ns3:TrackPointExtension>
            <ns3:hr>164</ns3:hr>
            <ns3:cad>93</ns3:cad>
          </ns3:TrackPointExtension>
        </extensions>
      </trkpt>
      <trkpt lat="43.83363981731235980987548828125" lon="4.27508468739688396453857421875">
        <ele>116.1999969482421875</ele>
        <time>2024-01-27T09:27:47.000Z</time>
        <extensions>
          <ns3:TrackPointExtension>
            <ns3:hr>164</ns3:hr>
            <ns3:cad>93</ns3:cad>
          </ns3:TrackPointExtension>
        </extensions>
      </trkpt>
      <trkpt lat="43.83361970074474811553955078125" lon="4.27510916255414485931396484375">
        <ele>116.1999969482421875</ele>
        <time>2024-01-27T09:27:48.000Z</time>
        <extensions>
          <ns3:TrackPointExtension>
            <ns3:hr>164</ns3:hr>
            <ns3:cad>92</ns3:cad>
          </ns3:TrackPointExtension>
        </extensions>
      </trkpt>
      <trkpt lat="43.83359589613974094390869140625" lon="4.2751338891685009002685546875">
        <ele>116.40000152587890625</ele>
        <time>2024-01-27T09:27:49.000Z</time>
        <extensions>
          <ns3:TrackPointExtension>
            <ns3:hr>164</ns3:hr>
            <ns3:cad>92</ns3:cad>
          </ns3:TrackPointExtension>
        </extensions>
      </trkpt>
      <trkpt lat="43.833578042685985565185546875" lon="4.27515123970806598663330078125">
        <ele>116.40000152587890625</ele>
        <time>2024-01-27T09:27:50.000Z</time>
        <extensions>
          <ns3:TrackPointExtension>
            <ns3:hr>164</ns3:hr>
            <ns3:cad>92</ns3:cad>
          </ns3:TrackPointExtension>
        </extensions>
      </trkpt>
      <trkpt lat="43.83355666883289813995361328125" lon="4.27517219446599483489990234375">
        <ele>116.59999847412109375</ele>
        <time>2024-01-27T09:27:51.000Z</time>
        <extensions>
          <ns3:TrackPointExtension>
            <ns3:hr>164</ns3:hr>
            <ns3:cad>94</ns3:cad>
          </ns3:TrackPointExtension>
        </extensions>
      </trkpt>
      <trkpt lat="43.8335352949798107147216796875" lon="4.2751952446997165679931640625">
        <ele>116.8000030517578125</ele>
        <time>2024-01-27T09:27:52.000Z</time>
        <extensions>
          <ns3:TrackPointExtension>
            <ns3:hr>164</ns3:hr>
            <ns3:cad>95</ns3:cad>
          </ns3:TrackPointExtension>
        </extensions>
      </trkpt>
      <trkpt lat="43.833516351878643035888671875" lon="4.2752180434763431549072265625">
        <ele>117</ele>
        <time>2024-01-27T09:27:53.000Z</time>
        <extensions>
          <ns3:TrackPointExtension>
            <ns3:hr>164</ns3:hr>
            <ns3:cad>95</ns3:cad>
          </ns3:TrackPointExtension>
        </extensions>
      </trkpt>
      <trkpt lat="43.8334970735013484954833984375" lon="4.27524830214679241180419921875">
        <ele>117</ele>
        <time>2024-01-27T09:27:54.000Z</time>
        <extensions>
          <ns3:TrackPointExtension>
            <ns3:hr>164</ns3:hr>
            <ns3:cad>94</ns3:cad>
          </ns3:TrackPointExtension>
        </extensions>
      </trkpt>
      <trkpt lat="43.8334809802472591400146484375" lon="4.275271184742450714111328125">
        <ele>117.1999969482421875</ele>
        <time>2024-01-27T09:27:55.000Z</time>
        <extensions>
          <ns3:TrackPointExtension>
            <ns3:hr>164</ns3:hr>
            <ns3:cad>94</ns3:cad>
          </ns3:TrackPointExtension>
        </extensions>
      </trkpt>
      <trkpt lat="43.8334601931273937225341796875" lon="4.275294654071331024169921875">
        <ele>117.1999969482421875</ele>
        <time>2024-01-27T09:27:56.000Z</time>
        <extensions>
          <ns3:TrackPointExtension>
            <ns3:hr>164</ns3:hr>
            <ns3:cad>92</ns3:cad>
          </ns3:TrackPointExtension>
        </extensions>
      </trkpt>
      <trkpt lat="43.83344351314008235931396484375" lon="4.27531267516314983367919921875">
        <ele>117.40000152587890625</ele>
        <time>2024-01-27T09:27:57.000Z</time>
        <extensions>
          <ns3:TrackPointExtension>
            <ns3:hr>165</ns3:hr>
            <ns3:cad>92</ns3:cad>
          </ns3:TrackPointExtension>
        </extensions>
      </trkpt>
      <trkpt lat="43.8334228098392486572265625" lon="4.2753343842923641204833984375">
        <ele>117.59999847412109375</ele>
        <time>2024-01-27T09:27:58.000Z</time>
        <extensions>
          <ns3:TrackPointExtension>
            <ns3:hr>165</ns3:hr>
            <ns3:cad>92</ns3:cad>
          </ns3:TrackPointExtension>
        </extensions>
      </trkpt>
      <trkpt lat="43.833420462906360626220703125" lon="4.2753593623638153076171875">
        <ele>117.59999847412109375</ele>
        <time>2024-01-27T09:27:59.000Z</time>
        <extensions>
          <ns3:TrackPointExtension>
            <ns3:hr>166</ns3:hr>
            <ns3:cad>92</ns3:cad>
          </ns3:TrackPointExtension>
        </extensions>
      </trkpt>
      <trkpt lat="43.833413422107696533203125" lon="4.27538878284394741058349609375">
        <ele>117.8000030517578125</ele>
        <time>2024-01-27T09:28:00.000Z</time>
        <extensions>
          <ns3:TrackPointExtension>
            <ns3:hr>166</ns3:hr>
            <ns3:cad>92</ns3:cad>
          </ns3:TrackPointExtension>
        </extensions>
      </trkpt>
      <trkpt lat="43.83341032080352306365966796875" lon="4.275416024029254913330078125">
        <ele>118</ele>
        <time>2024-01-27T09:28:01.000Z</time>
        <extensions>
          <ns3:TrackPointExtension>
            <ns3:hr>166</ns3:hr>
            <ns3:cad>92</ns3:cad>
          </ns3:TrackPointExtension>
        </extensions>
      </trkpt>
      <trkpt lat="43.83340361528098583221435546875" lon="4.2754436843097209930419921875">
        <ele>118.1999969482421875</ele>
        <time>2024-01-27T09:28:02.000Z</time>
        <extensions>
          <ns3:TrackPointExtension>
            <ns3:hr>166</ns3:hr>
            <ns3:cad>93</ns3:cad>
          </ns3:TrackPointExtension>
        </extensions>
      </trkpt>
      <trkpt lat="43.8333951495587825775146484375" lon="4.2754733562469482421875">
        <ele>118.40000152587890625</ele>
        <time>2024-01-27T09:28:03.000Z</time>
        <extensions>
          <ns3:TrackPointExtension>
            <ns3:hr>166</ns3:hr>
            <ns3:cad>93</ns3:cad>
          </ns3:TrackPointExtension>
        </extensions>
      </trkpt>
      <trkpt lat="43.833380900323390960693359375" lon="4.275503866374492645263671875">
        <ele>118.59999847412109375</ele>
        <time>2024-01-27T09:28:04.000Z</time>
        <extensions>
          <ns3:TrackPointExtension>
            <ns3:hr>166</ns3:hr>
            <ns3:cad>92</ns3:cad>
          </ns3:TrackPointExtension>
        </extensions>
      </trkpt>
      <trkpt lat="43.8333666510879993438720703125" lon="4.2755335383117198944091796875">
        <ele>119</ele>
        <time>2024-01-27T09:28:05.000Z</time>
        <extensions>
          <ns3:TrackPointExtension>
            <ns3:hr>166</ns3:hr>
            <ns3:cad>92</ns3:cad>
          </ns3:TrackPointExtension>
        </extensions>
      </trkpt>
      <trkpt lat="43.83334703743457794189453125" lon="4.2755610309541225433349609375">
        <ele>119</ele>
        <time>2024-01-27T09:28:06.000Z</time>
        <extensions>
          <ns3:TrackPointExtension>
            <ns3:hr>166</ns3:hr>
            <ns3:cad>90</ns3:cad>
          </ns3:TrackPointExtension>
        </extensions>
      </trkpt>
      <trkpt lat="43.83332666940987110137939453125" lon="4.27559095434844493865966796875">
        <ele>119</ele>
        <time>2024-01-27T09:28:07.000Z</time>
        <extensions>
          <ns3:TrackPointExtension>
            <ns3:hr>166</ns3:hr>
            <ns3:cad>90</ns3:cad>
          </ns3:TrackPointExtension>
        </extensions>
      </trkpt>
      <trkpt lat="43.83330470882356166839599609375" lon="4.27561777643859386444091796875">
        <ele>119</ele>
        <time>2024-01-27T09:28:08.000Z</time>
        <extensions>
          <ns3:TrackPointExtension>
            <ns3:hr>166</ns3:hr>
            <ns3:cad>89</ns3:cad>
          </ns3:TrackPointExtension>
        </extensions>
      </trkpt>
      <trkpt lat="43.83328727446496486663818359375" lon="4.27564141340553760528564453125">
        <ele>119</ele>
        <time>2024-01-27T09:28:09.000Z</time>
        <extensions>
          <ns3:TrackPointExtension>
            <ns3:hr>166</ns3:hr>
            <ns3:cad>89</ns3:cad>
          </ns3:TrackPointExtension>
        </extensions>
      </trkpt>
      <trkpt lat="43.833261542022228240966796875" lon="4.27566857077181339263916015625">
        <ele>118.8000030517578125</ele>
        <time>2024-01-27T09:28:10.000Z</time>
        <extensions>
          <ns3:TrackPointExtension>
            <ns3:hr>166</ns3:hr>
            <ns3:cad>88</ns3:cad>
          </ns3:TrackPointExtension>
        </extensions>
      </trkpt>
      <trkpt lat="43.833240754902362823486328125" lon="4.2756944708526134490966796875">
        <ele>118.8000030517578125</ele>
        <time>2024-01-27T09:28:11.000Z</time>
        <extensions>
          <ns3:TrackPointExtension>
            <ns3:hr>166</ns3:hr>
            <ns3:cad>88</ns3:cad>
          </ns3:TrackPointExtension>
        </extensions>
      </trkpt>
      <trkpt lat="43.83321418426930904388427734375" lon="4.27571919746696949005126953125">
        <ele>118.40000152587890625</ele>
        <time>2024-01-27T09:28:12.000Z</time>
        <extensions>
          <ns3:TrackPointExtension>
            <ns3:hr>166</ns3:hr>
            <ns3:cad>88</ns3:cad>
          </ns3:TrackPointExtension>
        </extensions>
      </trkpt>
      <trkpt lat="43.8331959955394268035888671875" lon="4.2757430858910083770751953125">
        <ele>118.40000152587890625</ele>
        <time>2024-01-27T09:28:13.000Z</time>
        <extensions>
          <ns3:TrackPointExtension>
            <ns3:hr>166</ns3:hr>
            <ns3:cad>88</ns3:cad>
          </ns3:TrackPointExtension>
        </extensions>
      </trkpt>
      <trkpt lat="43.8331651501357555389404296875" lon="4.27575859241187572479248046875">
        <ele>118.1999969482421875</ele>
        <time>2024-01-27T09:28:14.000Z</time>
        <extensions>
          <ns3:TrackPointExtension>
            <ns3:hr>166</ns3:hr>
            <ns3:cad>88</ns3:cad>
          </ns3:TrackPointExtension>
        </extensions>
      </trkpt>
      <trkpt lat="43.8331420160830020904541015625" lon="4.27577334456145763397216796875">
        <ele>118</ele>
        <time>2024-01-27T09:28:15.000Z</time>
        <extensions>
          <ns3:TrackPointExtension>
            <ns3:hr>166</ns3:hr>
            <ns3:cad>89</ns3:cad>
          </ns3:TrackPointExtension>
        </extensions>
      </trkpt>
      <trkpt lat="43.83311561308801174163818359375" lon="4.275788180530071258544921875">
        <ele>118</ele>
        <time>2024-01-27T09:28:16.000Z</time>
        <extensions>
          <ns3:TrackPointExtension>
            <ns3:hr>166</ns3:hr>
            <ns3:cad>89</ns3:cad>
          </ns3:TrackPointExtension>
        </extensions>
      </trkpt>
      <trkpt lat="43.83309063501656055450439453125" lon="4.2758017592132091522216796875">
        <ele>117.8000030517578125</ele>
        <time>2024-01-27T09:28:17.000Z</time>
        <extensions>
          <ns3:TrackPointExtension>
            <ns3:hr>166</ns3:hr>
            <ns3:cad>89</ns3:cad>
          </ns3:TrackPointExtension>
        </extensions>
      </trkpt>
      <trkpt lat="43.8330660760402679443359375" lon="4.27581609226763248443603515625">
        <ele>117.59999847412109375</ele>
        <time>2024-01-27T09:28:18.000Z</time>
        <extensions>
          <ns3:TrackPointExtension>
            <ns3:hr>166</ns3:hr>
            <ns3:cad>88</ns3:cad>
          </ns3:TrackPointExtension>
        </extensions>
      </trkpt>
      <trkpt lat="43.8330407626926898956298828125" lon="4.27582413889467716217041015625">
        <ele>117.40000152587890625</ele>
        <time>2024-01-27T09:28:19.000Z</time>
        <extensions>
          <ns3:TrackPointExtension>
            <ns3:hr>165</ns3:hr>
            <ns3:cad>88</ns3:cad>
          </ns3:TrackPointExtension>
        </extensions>
      </trkpt>
      <trkpt lat="43.83301570080220699310302734375" lon="4.27583654411137104034423828125">
        <ele>117</ele>
        <time>2024-01-27T09:28:20.000Z</time>
        <extensions>
          <ns3:TrackPointExtension>
            <ns3:hr>165</ns3:hr>
            <ns3:cad>88</ns3:cad>
          </ns3:TrackPointExtension>
        </extensions>
      </trkpt>
      <trkpt lat="43.8329904712736606597900390625" lon="4.27584844641387462615966796875">
        <ele>116.8000030517578125</ele>
        <time>2024-01-27T09:28:21.000Z</time>
        <extensions>
          <ns3:TrackPointExtension>
            <ns3:hr>164</ns3:hr>
            <ns3:cad>88</ns3:cad>
          </ns3:TrackPointExtension>
        </extensions>
      </trkpt>
      <trkpt lat="43.8329641520977020263671875" lon="4.27585984580218791961669921875">
        <ele>116.59999847412109375</ele>
        <time>2024-01-27T09:28:22.000Z</time>
        <extensions>
          <ns3:TrackPointExtension>
            <ns3:hr>164</ns3:hr>
            <ns3:cad>88</ns3:cad>
          </ns3:TrackPointExtension>
        </extensions>
      </trkpt>
      <trkpt lat="43.83293657563626766204833984375" lon="4.2758691497147083282470703125">
        <ele>116.1999969482421875</ele>
        <time>2024-01-27T09:28:23.000Z</time>
        <extensions>
          <ns3:TrackPointExtension>
            <ns3:hr>164</ns3:hr>
            <ns3:cad>88</ns3:cad>
          </ns3:TrackPointExtension>
        </extensions>
      </trkpt>
      <trkpt lat="43.83291117846965789794921875" lon="4.27588163875043392181396484375">
        <ele>116</ele>
        <time>2024-01-27T09:28:24.000Z</time>
        <extensions>
          <ns3:TrackPointExtension>
            <ns3:hr>164</ns3:hr>
            <ns3:cad>88</ns3:cad>
          </ns3:TrackPointExtension>
        </extensions>
      </trkpt>
      <trkpt lat="43.832886703312397003173828125" lon="4.27588951773941516876220703125">
        <ele>115.8000030517578125</ele>
        <time>2024-01-27T09:28:25.000Z</time>
        <extensions>
          <ns3:TrackPointExtension>
            <ns3:hr>164</ns3:hr>
            <ns3:cad>88</ns3:cad>
          </ns3:TrackPointExtension>
        </extensions>
      </trkpt>
      <trkpt lat="43.83286030031740665435791015625" lon="4.2758999951183795928955078125">
        <ele>115.8000030517578125</ele>
        <time>2024-01-27T09:28:26.000Z</time>
        <extensions>
          <ns3:TrackPointExtension>
            <ns3:hr>164</ns3:hr>
            <ns3:cad>88</ns3:cad>
          </ns3:TrackPointExtension>
        </extensions>
      </trkpt>
      <trkpt lat="43.8328325562179088592529296875" lon="4.275910221040248870849609375">
        <ele>115.59999847412109375</ele>
        <time>2024-01-27T09:28:27.000Z</time>
        <extensions>
          <ns3:TrackPointExtension>
            <ns3:hr>164</ns3:hr>
            <ns3:cad>88</ns3:cad>
          </ns3:TrackPointExtension>
        </extensions>
      </trkpt>
      <trkpt lat="43.8328104279935359954833984375" lon="4.2759214527904987335205078125">
        <ele>115.40000152587890625</ele>
        <time>2024-01-27T09:28:28.000Z</time>
        <extensions>
          <ns3:TrackPointExtension>
            <ns3:hr>164</ns3:hr>
            <ns3:cad>88</ns3:cad>
          </ns3:TrackPointExtension>
        </extensions>
      </trkpt>
      <trkpt lat="43.8327822647988796234130859375" lon="4.27592019550502300262451171875">
        <ele>115</ele>
        <time>2024-01-27T09:28:29.000Z</time>
        <extensions>
          <ns3:TrackPointExtension>
            <ns3:hr>163</ns3:hr>
            <ns3:cad>88</ns3:cad>
          </ns3:TrackPointExtension>
        </extensions>
      </trkpt>
      <trkpt lat="43.8327591307461261749267578125" lon="4.27592991851270198822021484375">
        <ele>115</ele>
        <time>2024-01-27T09:28:30.000Z</time>
        <extensions>
          <ns3:TrackPointExtension>
            <ns3:hr>163</ns3:hr>
            <ns3:cad>88</ns3:cad>
          </ns3:TrackPointExtension>
        </extensions>
      </trkpt>
      <trkpt lat="43.83273289538919925689697265625" lon="4.27593779750168323516845703125">
        <ele>114.8000030517578125</ele>
        <time>2024-01-27T09:28:31.000Z</time>
        <extensions>
          <ns3:TrackPointExtension>
            <ns3:hr>163</ns3:hr>
            <ns3:cad>88</ns3:cad>
          </ns3:TrackPointExtension>
        </extensions>
      </trkpt>
      <trkpt lat="43.83270867168903350830078125" lon="4.275945089757442474365234375">
        <ele>114.40000152587890625</ele>
        <time>2024-01-27T09:28:32.000Z</time>
        <extensions>
          <ns3:TrackPointExtension>
            <ns3:hr>163</ns3:hr>
            <ns3:cad>88</ns3:cad>
          </ns3:TrackPointExtension>
        </extensions>
      </trkpt>
      <trkpt lat="43.83267992176115512847900390625" lon="4.275948442518711090087890625">
        <ele>114.1999969482421875</ele>
        <time>2024-01-27T09:28:33.000Z</time>
        <extensions>
          <ns3:TrackPointExtension>
            <ns3:hr>163</ns3:hr>
            <ns3:cad>89</ns3:cad>
          </ns3:TrackPointExtension>
        </extensions>
      </trkpt>
      <trkpt lat="43.83265276439487934112548828125" lon="4.2759586684405803680419921875">
        <ele>114.1999969482421875</ele>
        <time>2024-01-27T09:28:34.000Z</time>
        <extensions>
          <ns3:TrackPointExtension>
            <ns3:hr>162</ns3:hr>
            <ns3:cad>89</ns3:cad>
          </ns3:TrackPointExtension>
        </extensions>
      </trkpt>
      <trkpt lat="43.83262610994279384613037109375" lon="4.2759683914482593536376953125">
        <ele>114</ele>
        <time>2024-01-27T09:28:35.000Z</time>
        <extensions>
          <ns3:TrackPointExtension>
            <ns3:hr>162</ns3:hr>
            <ns3:cad>89</ns3:cad>
          </ns3:TrackPointExtension>
        </extensions>
      </trkpt>
      <trkpt lat="43.8325971923768520355224609375" lon="4.27598389796912670135498046875">
        <ele>113.8000030517578125</ele>
        <time>2024-01-27T09:28:36.000Z</time>
        <extensions>
          <ns3:TrackPointExtension>
            <ns3:hr>162</ns3:hr>
            <ns3:cad>90</ns3:cad>
          </ns3:TrackPointExtension>
        </extensions>
      </trkpt>
      <trkpt lat="43.8325713761150836944580078125" lon="4.2759938724339008331298828125">
        <ele>113.59999847412109375</ele>
        <time>2024-01-27T09:28:37.000Z</time>
        <extensions>
          <ns3:TrackPointExtension>
            <ns3:hr>161</ns3:hr>
            <ns3:cad>91</ns3:cad>
          </ns3:TrackPointExtension>
        </extensions>
      </trkpt>
      <trkpt lat="43.8325455598533153533935546875" lon="4.27600619383156299591064453125">
        <ele>113.40000152587890625</ele>
        <time>2024-01-27T09:28:38.000Z</time>
        <extensions>
          <ns3:TrackPointExtension>
            <ns3:hr>161</ns3:hr>
            <ns3:cad>92</ns3:cad>
          </ns3:TrackPointExtension>
        </extensions>
      </trkpt>
      <trkpt lat="43.83252091705799102783203125" lon="4.2760099656879901885986328125">
        <ele>113.40000152587890625</ele>
        <time>2024-01-27T09:28:39.000Z</time>
        <extensions>
          <ns3:TrackPointExtension>
            <ns3:hr>161</ns3:hr>
            <ns3:cad>93</ns3:cad>
          </ns3:TrackPointExtension>
        </extensions>
      </trkpt>
      <trkpt lat="43.83249367587268352508544921875" lon="4.27601583302021026611328125">
        <ele>113.40000152587890625</ele>
        <time>2024-01-27T09:28:40.000Z</time>
        <extensions>
          <ns3:TrackPointExtension>
            <ns3:hr>161</ns3:hr>
            <ns3:cad>93</ns3:cad>
          </ns3:TrackPointExtension>
        </extensions>
      </trkpt>
      <trkpt lat="43.8324694521725177764892578125" lon="4.27602362819015979766845703125">
        <ele>113.1999969482421875</ele>
        <time>2024-01-27T09:28:41.000Z</time>
        <extensions>
          <ns3:TrackPointExtension>
            <ns3:hr>161</ns3:hr>
            <ns3:cad>93</ns3:cad>
          </ns3:TrackPointExtension>
        </extensions>
      </trkpt>
      <trkpt lat="43.83244070224463939666748046875" lon="4.2760327644646167755126953125">
        <ele>113.1999969482421875</ele>
        <time>2024-01-27T09:28:42.000Z</time>
        <extensions>
          <ns3:TrackPointExtension>
            <ns3:hr>160</ns3:hr>
            <ns3:cad>93</ns3:cad>
          </ns3:TrackPointExtension>
        </extensions>
      </trkpt>
      <trkpt lat="43.83241756819188594818115234375" lon="4.27603955380618572235107421875">
        <ele>113.1999969482421875</ele>
        <time>2024-01-27T09:28:43.000Z</time>
        <extensions>
          <ns3:TrackPointExtension>
            <ns3:hr>160</ns3:hr>
            <ns3:cad>93</ns3:cad>
          </ns3:TrackPointExtension>
        </extensions>
      </trkpt>
      <trkpt lat="43.83239082992076873779296875" lon="4.2760431580245494842529296875">
        <ele>113</ele>
        <time>2024-01-27T09:28:44.000Z</time>
        <extensions>
          <ns3:TrackPointExtension>
            <ns3:hr>160</ns3:hr>
            <ns3:cad>93</ns3:cad>
          </ns3:TrackPointExtension>
        </extensions>
      </trkpt>
      <trkpt lat="43.83236828260123729705810546875" lon="4.27604760043323040008544921875">
        <ele>113</ele>
        <time>2024-01-27T09:28:45.000Z</time>
        <extensions>
          <ns3:TrackPointExtension>
            <ns3:hr>160</ns3:hr>
            <ns3:cad>92</ns3:cad>
          </ns3:TrackPointExtension>
        </extensions>
      </trkpt>
      <trkpt lat="43.8323433883488178253173828125" lon="4.2760505340993404388427734375">
        <ele>112.8000030517578125</ele>
        <time>2024-01-27T09:28:46.000Z</time>
        <extensions>
          <ns3:TrackPointExtension>
            <ns3:hr>160</ns3:hr>
            <ns3:cad>92</ns3:cad>
          </ns3:TrackPointExtension>
        </extensions>
      </trkpt>
      <trkpt lat="43.8323158957064151763916015625" lon="4.2760538868606090545654296875">
        <ele>112.8000030517578125</ele>
        <time>2024-01-27T09:28:47.000Z</time>
        <extensions>
          <ns3:TrackPointExtension>
            <ns3:hr>160</ns3:hr>
            <ns3:cad>92</ns3:cad>
          </ns3:TrackPointExtension>
        </extensions>
      </trkpt>
      <trkpt lat="43.83228831924498081207275390625" lon="4.27605397067964076995849609375">
        <ele>112.59999847412109375</ele>
        <time>2024-01-27T09:28:48.000Z</time>
        <extensions>
          <ns3:TrackPointExtension>
            <ns3:hr>159</ns3:hr>
            <ns3:cad>93</ns3:cad>
          </ns3:TrackPointExtension>
        </extensions>
      </trkpt>
      <trkpt lat="43.8322585634887218475341796875" lon="4.27604659460484981536865234375">
        <ele>112.59999847412109375</ele>
        <time>2024-01-27T09:28:49.000Z</time>
        <extensions>
          <ns3:TrackPointExtension>
            <ns3:hr>159</ns3:hr>
            <ns3:cad>93</ns3:cad>
          </ns3:TrackPointExtension>
        </extensions>
      </trkpt>
      <trkpt lat="43.83223593235015869140625" lon="4.27604022435843944549560546875">
        <ele>112.40000152587890625</ele>
        <time>2024-01-27T09:28:50.000Z</time>
        <extensions>
          <ns3:TrackPointExtension>
            <ns3:hr>159</ns3:hr>
            <ns3:cad>93</ns3:cad>
          </ns3:TrackPointExtension>
        </extensions>
      </trkpt>
      <trkpt lat="43.8322062604129314422607421875" lon="4.2760438285768032073974609375">
        <ele>112.1999969482421875</ele>
        <time>2024-01-27T09:28:51.000Z</time>
        <extensions>
          <ns3:TrackPointExtension>
            <ns3:hr>159</ns3:hr>
            <ns3:cad>93</ns3:cad>
          </ns3:TrackPointExtension>
        </extensions>
      </trkpt>
      <trkpt lat="43.8321807794272899627685546875" lon="4.27604491822421550750732421875">
        <ele>112.1999969482421875</ele>
        <time>2024-01-27T09:28:52.000Z</time>
        <extensions>
          <ns3:TrackPointExtension>
            <ns3:hr>158</ns3:hr>
            <ns3:cad>93</ns3:cad>
          </ns3:TrackPointExtension>
        </extensions>
      </trkpt>
      <trkpt lat="43.8321514427661895751953125" lon="4.276044666767120361328125">
        <ele>112</ele>
        <time>2024-01-27T09:28:53.000Z</time>
        <extensions>
          <ns3:TrackPointExtension>
            <ns3:hr>158</ns3:hr>
            <ns3:cad>92</ns3:cad>
          </ns3:TrackPointExtension>
        </extensions>
      </trkpt>
      <trkpt lat="43.8321257941424846649169921875" lon="4.27603955380618572235107421875">
        <ele>112</ele>
        <time>2024-01-27T09:28:54.000Z</time>
        <extensions>
          <ns3:TrackPointExtension>
            <ns3:hr>158</ns3:hr>
            <ns3:cad>92</ns3:cad>
          </ns3:TrackPointExtension>
        </extensions>
      </trkpt>
      <trkpt lat="43.83209503255784511566162109375" lon="4.27603636868298053741455078125">
        <ele>112</ele>
        <time>2024-01-27T09:28:55.000Z</time>
        <extensions>
          <ns3:TrackPointExtension>
            <ns3:hr>158</ns3:hr>
            <ns3:cad>93</ns3:cad>
          </ns3:TrackPointExtension>
        </extensions>
      </trkpt>
      <trkpt lat="43.8320704735815525054931640625" lon="4.27603234536945819854736328125">
        <ele>111.8000030517578125</ele>
        <time>2024-01-27T09:28:56.000Z</time>
        <extensions>
          <ns3:TrackPointExtension>
            <ns3:hr>158</ns3:hr>
            <ns3:cad>93</ns3:cad>
          </ns3:TrackPointExtension>
        </extensions>
      </trkpt>
      <trkpt lat="43.83204122073948383331298828125" lon="4.276024214923381805419921875">
        <ele>111.8000030517578125</ele>
        <time>2024-01-27T09:28:57.000Z</time>
        <extensions>
          <ns3:TrackPointExtension>
            <ns3:hr>159</ns3:hr>
            <ns3:cad>93</ns3:cad>
          </ns3:TrackPointExtension>
        </extensions>
      </trkpt>
      <trkpt lat="43.83201641030609607696533203125" lon="4.276022203266620635986328125">
        <ele>111.59999847412109375</ele>
        <time>2024-01-27T09:28:58.000Z</time>
        <extensions>
          <ns3:TrackPointExtension>
            <ns3:hr>159</ns3:hr>
            <ns3:cad>93</ns3:cad>
          </ns3:TrackPointExtension>
        </extensions>
      </trkpt>
      <trkpt lat="43.8319856487214565277099609375" lon="4.27601742558181285858154296875">
        <ele>111.59999847412109375</ele>
        <time>2024-01-27T09:28:59.000Z</time>
        <extensions>
          <ns3:TrackPointExtension>
            <ns3:hr>159</ns3:hr>
            <ns3:cad>93</ns3:cad>
          </ns3:TrackPointExtension>
        </extensions>
      </trkpt>
      <trkpt lat="43.83196301758289337158203125" lon="4.2760153301060199737548828125">
        <ele>111.40000152587890625</ele>
        <time>2024-01-27T09:29:00.000Z</time>
        <extensions>
          <ns3:TrackPointExtension>
            <ns3:hr>159</ns3:hr>
            <ns3:cad>93</ns3:cad>
          </ns3:TrackPointExtension>
        </extensions>
      </trkpt>
      <trkpt lat="43.831934519112110137939453125" lon="4.27600912749767303466796875">
        <ele>111.40000152587890625</ele>
        <time>2024-01-27T09:29:01.000Z</time>
        <extensions>
          <ns3:TrackPointExtension>
            <ns3:hr>159</ns3:hr>
            <ns3:cad>93</ns3:cad>
          </ns3:TrackPointExtension>
        </extensions>
      </trkpt>
      <trkpt lat="43.83190761320292949676513671875" lon="4.27600250579416751861572265625">
        <ele>111.1999969482421875</ele>
        <time>2024-01-27T09:29:02.000Z</time>
        <extensions>
          <ns3:TrackPointExtension>
            <ns3:hr>159</ns3:hr>
            <ns3:cad>93</ns3:cad>
          </ns3:TrackPointExtension>
        </extensions>
      </trkpt>
      <trkpt lat="43.83188280276954174041748046875" lon="4.27599194459617137908935546875">
        <ele>111.1999969482421875</ele>
        <time>2024-01-27T09:29:03.000Z</time>
        <extensions>
          <ns3:TrackPointExtension>
            <ns3:hr>159</ns3:hr>
            <ns3:cad>92</ns3:cad>
          </ns3:TrackPointExtension>
        </extensions>
      </trkpt>
      <trkpt lat="43.83185413666069507598876953125" lon="4.27598993293941020965576171875">
        <ele>111</ele>
        <time>2024-01-27T09:29:04.000Z</time>
        <extensions>
          <ns3:TrackPointExtension>
            <ns3:hr>159</ns3:hr>
            <ns3:cad>91</ns3:cad>
          </ns3:TrackPointExtension>
        </extensions>
      </trkpt>
      <trkpt lat="43.83182764984667301177978515625" lon="4.2759834788739681243896484375">
        <ele>111</ele>
        <time>2024-01-27T09:29:05.000Z</time>
        <extensions>
          <ns3:TrackPointExtension>
            <ns3:hr>159</ns3:hr>
            <ns3:cad>91</ns3:cad>
          </ns3:TrackPointExtension>
        </extensions>
      </trkpt>
      <trkpt lat="43.83180099539458751678466796875" lon="4.2759787850081920623779296875">
        <ele>111</ele>
        <time>2024-01-27T09:29:06.000Z</time>
        <extensions>
          <ns3:TrackPointExtension>
            <ns3:hr>159</ns3:hr>
            <ns3:cad>92</ns3:cad>
          </ns3:TrackPointExtension>
        </extensions>
      </trkpt>
      <trkpt lat="43.83177702315151691436767578125" lon="4.2759704031050205230712890625">
        <ele>110.8000030517578125</ele>
        <time>2024-01-27T09:29:07.000Z</time>
        <extensions>
          <ns3:TrackPointExtension>
            <ns3:hr>159</ns3:hr>
            <ns3:cad>93</ns3:cad>
          </ns3:TrackPointExtension>
        </extensions>
      </trkpt>
      <trkpt lat="43.83175170980393886566162109375" lon="4.2759601771831512451171875">
        <ele>110.8000030517578125</ele>
        <time>2024-01-27T09:29:08.000Z</time>
        <extensions>
          <ns3:TrackPointExtension>
            <ns3:hr>159</ns3:hr>
            <ns3:cad>93</ns3:cad>
          </ns3:TrackPointExtension>
        </extensions>
      </trkpt>
      <trkpt lat="43.8317263126373291015625" lon="4.27595506422221660614013671875">
        <ele>110.8000030517578125</ele>
        <time>2024-01-27T09:29:09.000Z</time>
        <extensions>
          <ns3:TrackPointExtension>
            <ns3:hr>159</ns3:hr>
            <ns3:cad>92</ns3:cad>
          </ns3:TrackPointExtension>
        </extensions>
      </trkpt>
      <trkpt lat="43.831698484718799591064453125" lon="4.275947101414203643798828125">
        <ele>110.59999847412109375</ele>
        <time>2024-01-27T09:29:10.000Z</time>
        <extensions>
          <ns3:TrackPointExtension>
            <ns3:hr>159</ns3:hr>
            <ns3:cad>92</ns3:cad>
          </ns3:TrackPointExtension>
        </extensions>
      </trkpt>
      <trkpt lat="43.8316765241324901580810546875" lon="4.27594902925193309783935546875">
        <ele>110.59999847412109375</ele>
        <time>2024-01-27T09:29:11.000Z</time>
        <extensions>
          <ns3:TrackPointExtension>
            <ns3:hr>159</ns3:hr>
            <ns3:cad>92</ns3:cad>
          </ns3:TrackPointExtension>
        </extensions>
      </trkpt>
      <trkpt lat="43.831648863852024078369140625" lon="4.27595506422221660614013671875">
        <ele>110.59999847412109375</ele>
        <time>2024-01-27T09:29:12.000Z</time>
        <extensions>
          <ns3:TrackPointExtension>
            <ns3:hr>159</ns3:hr>
            <ns3:cad>90</ns3:cad>
          </ns3:TrackPointExtension>
        </extensions>
      </trkpt>
      <trkpt lat="43.83163134567439556121826171875" lon="4.27595824934542179107666015625">
        <ele>110.59999847412109375</ele>
        <time>2024-01-27T09:29:13.000Z</time>
        <extensions>
          <ns3:TrackPointExtension>
            <ns3:hr>159</ns3:hr>
            <ns3:cad>90</ns3:cad>
          </ns3:TrackPointExtension>
        </extensions>
      </trkpt>
      <trkpt lat="43.83163251914083957672119140625" lon="4.2759838141500949859619140625">
        <ele>110.59999847412109375</ele>
        <time>2024-01-27T09:29:14.000Z</time>
        <extensions>
          <ns3:TrackPointExtension>
            <ns3:hr>159</ns3:hr>
            <ns3:cad>92</ns3:cad>
          </ns3:TrackPointExtension>
        </extensions>
      </trkpt>
      <trkpt lat="43.83162983693182468414306640625" lon="4.27600753493607044219970703125">
        <ele>110.59999847412109375</ele>
        <time>2024-01-27T09:29:15.000Z</time>
        <extensions>
          <ns3:TrackPointExtension>
            <ns3:hr>159</ns3:hr>
            <ns3:cad>92</ns3:cad>
          </ns3:TrackPointExtension>
        </extensions>
      </trkpt>
      <trkpt lat="43.83163805119693279266357421875" lon="4.2760344408452510833740234375">
        <ele>110.59999847412109375</ele>
        <time>2024-01-27T09:29:16.000Z</time>
        <extensions>
          <ns3:TrackPointExtension>
            <ns3:hr>159</ns3:hr>
            <ns3:cad>90</ns3:cad>
          </ns3:TrackPointExtension>
        </extensions>
      </trkpt>
      <trkpt lat="43.8316419906914234161376953125" lon="4.276060424745082855224609375">
        <ele>110.59999847412109375</ele>
        <time>2024-01-27T09:29:17.000Z</time>
        <extensions>
          <ns3:TrackPointExtension>
            <ns3:hr>159</ns3:hr>
            <ns3:cad>90</ns3:cad>
          </ns3:TrackPointExtension>
        </extensions>
      </trkpt>
      <trkpt lat="43.83164324797689914703369140625" lon="4.276097975671291351318359375">
        <ele>110.59999847412109375</ele>
        <time>2024-01-27T09:29:18.000Z</time>
        <extensions>
          <ns3:TrackPointExtension>
            <ns3:hr>159</ns3:hr>
            <ns3:cad>89</ns3:cad>
          </ns3:TrackPointExtension>
        </extensions>
      </trkpt>
      <trkpt lat="43.83164861239492893218994140625" lon="4.27613393403589725494384765625">
        <ele>110.59999847412109375</ele>
        <time>2024-01-27T09:29:19.000Z</time>
        <extensions>
          <ns3:TrackPointExtension>
            <ns3:hr>159</ns3:hr>
            <ns3:cad>88</ns3:cad>
          </ns3:TrackPointExtension>
        </extensions>
      </trkpt>
      <trkpt lat="43.8316631130874156951904296875" lon="4.2761698924005031585693359375">
        <ele>110.59999847412109375</ele>
        <time>2024-01-27T09:29:20.000Z</time>
        <extensions>
          <ns3:TrackPointExtension>
            <ns3:hr>159</ns3:hr>
            <ns3:cad>88</ns3:cad>
          </ns3:TrackPointExtension>
        </extensions>
      </trkpt>
      <trkpt lat="43.83167107589542865753173828125" lon="4.2761962115764617919921875">
        <ele>110.59999847412109375</ele>
        <time>2024-01-27T09:29:21.000Z</time>
        <extensions>
          <ns3:TrackPointExtension>
            <ns3:hr>159</ns3:hr>
            <ns3:cad>89</ns3:cad>
          </ns3:TrackPointExtension>
        </extensions>
      </trkpt>
      <trkpt lat="43.83168272674083709716796875" lon="4.2762248776853084564208984375">
        <ele>110.59999847412109375</ele>
        <time>2024-01-27T09:29:22.000Z</time>
        <extensions>
          <ns3:TrackPointExtension>
            <ns3:hr>159</ns3:hr>
            <ns3:cad>90</ns3:cad>
          </ns3:TrackPointExtension>
        </extensions>
      </trkpt>
      <trkpt lat="43.8316949643194675445556640625" lon="4.27624876610934734344482421875">
        <ele>110.8000030517578125</ele>
        <time>2024-01-27T09:29:23.000Z</time>
        <extensions>
          <ns3:TrackPointExtension>
            <ns3:hr>159</ns3:hr>
            <ns3:cad>92</ns3:cad>
          </ns3:TrackPointExtension>
        </extensions>
      </trkpt>
      <trkpt lat="43.83170376531779766082763671875" lon="4.27628162316977977752685546875">
        <ele>111</ele>
        <time>2024-01-27T09:29:24.000Z</time>
        <extensions>
          <ns3:TrackPointExtension>
            <ns3:hr>159</ns3:hr>
            <ns3:cad>92</ns3:cad>
          </ns3:TrackPointExtension>
        </extensions>
      </trkpt>
      <trkpt lat="43.83171013556420803070068359375" lon="4.276309870183467864990234375">
        <ele>111.1999969482421875</ele>
        <time>2024-01-27T09:29:25.000Z</time>
        <extensions>
          <ns3:TrackPointExtension>
            <ns3:hr>160</ns3:hr>
            <ns3:cad>92</ns3:cad>
          </ns3:TrackPointExtension>
        </extensions>
      </trkpt>
      <trkpt lat="43.83171097375452518463134765625" lon="4.27634364925324916839599609375">
        <ele>111.40000152587890625</ele>
        <time>2024-01-27T09:29:26.000Z</time>
        <extensions>
          <ns3:TrackPointExtension>
            <ns3:hr>160</ns3:hr>
            <ns3:cad>92</ns3:cad>
          </ns3:TrackPointExtension>
        </extensions>
      </trkpt>
      <trkpt lat="43.83171248249709606170654296875" lon="4.2763747461140155792236328125">
        <ele>111.59999847412109375</ele>
        <time>2024-01-27T09:29:27.000Z</time>
        <extensions>
          <ns3:TrackPointExtension>
            <ns3:hr>160</ns3:hr>
            <ns3:cad>92</ns3:cad>
          </ns3:TrackPointExtension>
        </extensions>
      </trkpt>
      <trkpt lat="43.83170845918357372283935546875" lon="4.27640818990767002105712890625">
        <ele>111.59999847412109375</ele>
        <time>2024-01-27T09:29:28.000Z</time>
        <extensions>
          <ns3:TrackPointExtension>
            <ns3:hr>160</ns3:hr>
            <ns3:cad>92</ns3:cad>
          </ns3:TrackPointExtension>
        </extensions>
      </trkpt>
      <trkpt lat="43.831705190241336822509765625" lon="4.2764330841600894927978515625">
        <ele>111.8000030517578125</ele>
        <time>2024-01-27T09:29:29.000Z</time>
        <extensions>
          <ns3:TrackPointExtension>
            <ns3:hr>160</ns3:hr>
            <ns3:cad>93</ns3:cad>
          </ns3:TrackPointExtension>
        </extensions>
      </trkpt>
      <trkpt lat="43.83169571869075298309326171875" lon="4.27645831368863582611083984375">
        <ele>111.8000030517578125</ele>
        <time>2024-01-27T09:29:30.000Z</time>
        <extensions>
          <ns3:TrackPointExtension>
            <ns3:hr>160</ns3:hr>
            <ns3:cad>93</ns3:cad>
          </ns3:TrackPointExtension>
        </extensions>
      </trkpt>
      <trkpt lat="43.83168809115886688232421875" lon="4.2764832079410552978515625">
        <ele>112</ele>
        <time>2024-01-27T09:29:31.000Z</time>
        <extensions>
          <ns3:TrackPointExtension>
            <ns3:hr>160</ns3:hr>
            <ns3:cad>92</ns3:cad>
          </ns3:TrackPointExtension>
        </extensions>
      </trkpt>
      <trkpt lat="43.83167979307472705841064453125" lon="4.27651514299213886260986328125">
        <ele>112.1999969482421875</ele>
        <time>2024-01-27T09:29:32.000Z</time>
        <extensions>
          <ns3:TrackPointExtension>
            <ns3:hr>160</ns3:hr>
            <ns3:cad>91</ns3:cad>
          </ns3:TrackPointExtension>
        </extensions>
      </trkpt>
      <trkpt lat="43.831677697598934173583984375" lon="4.276538193225860595703125">
        <ele>112.1999969482421875</ele>
        <time>2024-01-27T09:29:33.000Z</time>
        <extensions>
          <ns3:TrackPointExtension>
            <ns3:hr>160</ns3:hr>
            <ns3:cad>90</ns3:cad>
          </ns3:TrackPointExtension>
        </extensions>
      </trkpt>
      <trkpt lat="43.83167962543666362762451171875" lon="4.27655722014605998992919921875">
        <ele>112.59999847412109375</ele>
        <time>2024-01-27T09:29:34.000Z</time>
        <extensions>
          <ns3:TrackPointExtension>
            <ns3:hr>159</ns3:hr>
            <ns3:cad>89</ns3:cad>
          </ns3:TrackPointExtension>
        </extensions>
      </trkpt>
      <trkpt lat="43.8316835649311542510986328125" lon="4.2765645124018192291259765625">
        <ele>112.8000030517578125</ele>
        <time>2024-01-27T09:29:35.000Z</time>
        <extensions>
          <ns3:TrackPointExtension>
            <ns3:hr>159</ns3:hr>
            <ns3:cad>89</ns3:cad>
          </ns3:TrackPointExtension>
        </extensions>
      </trkpt>
      <trkpt lat="43.83168767206370830535888671875" lon="4.276574067771434783935546875">
        <ele>113.1999969482421875</ele>
        <time>2024-01-27T09:29:36.000Z</time>
        <extensions>
          <ns3:TrackPointExtension>
            <ns3:hr>158</ns3:hr>
            <ns3:cad>88</ns3:cad>
          </ns3:TrackPointExtension>
        </extensions>
      </trkpt>
      <trkpt lat="43.8316899351775646209716796875" lon="4.27659912966191768646240234375">
        <ele>113.40000152587890625</ele>
        <time>2024-01-27T09:29:37.000Z</time>
        <extensions>
          <ns3:TrackPointExtension>
            <ns3:hr>157</ns3:hr>
            <ns3:cad>88</ns3:cad>
          </ns3:TrackPointExtension>
        </extensions>
      </trkpt>
      <trkpt lat="43.83169136010110378265380859375" lon="4.27661874331533908843994140625">
        <ele>114</ele>
        <time>2024-01-27T09:29:38.000Z</time>
        <extensions>
          <ns3:TrackPointExtension>
            <ns3:hr>157</ns3:hr>
            <ns3:cad>88</ns3:cad>
          </ns3:TrackPointExtension>
        </extensions>
      </trkpt>
      <trkpt lat="43.83170954883098602294921875" lon="4.27662008441984653472900390625">
        <ele>114.40000152587890625</ele>
        <time>2024-01-27T09:29:39.000Z</time>
        <extensions>
          <ns3:TrackPointExtension>
            <ns3:hr>157</ns3:hr>
            <ns3:cad>83</ns3:cad>
          </ns3:TrackPointExtension>
        </extensions>
      </trkpt>
      <trkpt lat="43.83172539062798023223876953125" lon="4.27663751877844333648681640625">
        <ele>114.8000030517578125</ele>
        <time>2024-01-27T09:29:40.000Z</time>
        <extensions>
          <ns3:TrackPointExtension>
            <ns3:hr>157</ns3:hr>
            <ns3:cad>83</ns3:cad>
          </ns3:TrackPointExtension>
        </extensions>
      </trkpt>
      <trkpt lat="43.831745423376560211181640625" lon="4.2766426317393779754638671875">
        <ele>115.1999969482421875</ele>
        <time>2024-01-27T09:29:41.000Z</time>
        <extensions>
          <ns3:TrackPointExtension>
            <ns3:hr>157</ns3:hr>
            <ns3:cad>83</ns3:cad>
          </ns3:TrackPointExtension>
        </extensions>
      </trkpt>
      <trkpt lat="43.83176629431545734405517578125" lon="4.27664841525256633758544921875">
        <ele>115.59999847412109375</ele>
        <time>2024-01-27T09:29:42.000Z</time>
        <extensions>
          <ns3:TrackPointExtension>
            <ns3:hr>157</ns3:hr>
            <ns3:cad>83</ns3:cad>
          </ns3:TrackPointExtension>
        </extensions>
      </trkpt>
      <trkpt lat="43.8317868299782276153564453125" lon="4.27665092982351779937744140625">
        <ele>116</ele>
        <time>2024-01-27T09:29:43.000Z</time>
        <extensions>
          <ns3:TrackPointExtension>
            <ns3:hr>157</ns3:hr>
            <ns3:cad>83</ns3:cad>
          </ns3:TrackPointExtension>
        </extensions>
      </trkpt>
      <trkpt lat="43.83180166594684123992919921875" lon="4.27665562368929386138916015625">
        <ele>116</ele>
        <time>2024-01-27T09:29:44.000Z</time>
        <extensions>
          <ns3:TrackPointExtension>
            <ns3:hr>157</ns3:hr>
            <ns3:cad>83</ns3:cad>
          </ns3:TrackPointExtension>
        </extensions>
      </trkpt>
      <trkpt lat="43.83181625045835971832275390625" lon="4.27666584961116313934326171875">
        <ele>116.1999969482421875</ele>
        <time>2024-01-27T09:29:45.000Z</time>
        <extensions>
          <ns3:TrackPointExtension>
            <ns3:hr>157</ns3:hr>
            <ns3:cad>83</ns3:cad>
          </ns3:TrackPointExtension>
        </extensions>
      </trkpt>
      <trkpt lat="43.83182429708540439605712890625" lon="4.2766835354268550872802734375">
        <ele>116.40000152587890625</ele>
        <time>2024-01-27T09:29:46.000Z</time>
        <extensions>
          <ns3:TrackPointExtension>
            <ns3:hr>156</ns3:hr>
            <ns3:cad>88</ns3:cad>
          </ns3:TrackPointExtension>
        </extensions>
      </trkpt>
      <trkpt lat="43.83184659294784069061279296875" lon="4.27669309079647064208984375">
        <ele>116.59999847412109375</ele>
        <time>2024-01-27T09:29:47.000Z</time>
        <extensions>
          <ns3:TrackPointExtension>
            <ns3:hr>156</ns3:hr>
            <ns3:cad>91</ns3:cad>
          </ns3:TrackPointExtension>
        </extensions>
      </trkpt>
      <trkpt lat="43.8318656198680400848388671875" lon="4.27670105360448360443115234375">
        <ele>116.8000030517578125</ele>
        <time>2024-01-27T09:29:48.000Z</time>
        <extensions>
          <ns3:TrackPointExtension>
            <ns3:hr>157</ns3:hr>
            <ns3:cad>92</ns3:cad>
          </ns3:TrackPointExtension>
        </extensions>
      </trkpt>
      <trkpt lat="43.83188984356820583343505859375" lon="4.27670725621283054351806640625">
        <ele>117.1999969482421875</ele>
        <time>2024-01-27T09:29:49.000Z</time>
        <extensions>
          <ns3:TrackPointExtension>
            <ns3:hr>157</ns3:hr>
            <ns3:cad>92</ns3:cad>
          </ns3:TrackPointExtension>
        </extensions>
      </trkpt>
      <trkpt lat="43.83191113360226154327392578125" lon="4.2767123691737651824951171875">
        <ele>117.59999847412109375</ele>
        <time>2024-01-27T09:29:50.000Z</time>
        <extensions>
          <ns3:TrackPointExtension>
            <ns3:hr>157</ns3:hr>
            <ns3:cad>92</ns3:cad>
          </ns3:TrackPointExtension>
        </extensions>
      </trkpt>
      <trkpt lat="43.83194415830075740814208984375" lon="4.27670172415673732757568359375">
        <ele>118</ele>
        <time>2024-01-27T09:29:51.000Z</time>
        <extensions>
          <ns3:TrackPointExtension>
            <ns3:hr>157</ns3:hr>
            <ns3:cad>91</ns3:cad>
          </ns3:TrackPointExtension>
        </extensions>
      </trkpt>
      <trkpt lat="43.831968717277050018310546875" lon="4.276699461042881011962890625">
        <ele>118</ele>
        <time>2024-01-27T09:29:52.000Z</time>
        <extensions>
          <ns3:TrackPointExtension>
            <ns3:hr>157</ns3:hr>
            <ns3:cad>91</ns3:cad>
          </ns3:TrackPointExtension>
        </extensions>
      </trkpt>
      <trkpt lat="43.8319947011768817901611328125" lon="4.27670122124254703521728515625">
        <ele>118.1999969482421875</ele>
        <time>2024-01-27T09:29:53.000Z</time>
        <extensions>
          <ns3:TrackPointExtension>
            <ns3:hr>157</ns3:hr>
            <ns3:cad>91</ns3:cad>
          </ns3:TrackPointExtension>
        </extensions>
      </trkpt>
      <trkpt lat="43.83201205171644687652587890625" lon="4.27669904194772243499755859375">
        <ele>118.40000152587890625</ele>
        <time>2024-01-27T09:29:54.000Z</time>
        <extensions>
          <ns3:TrackPointExtension>
            <ns3:hr>158</ns3:hr>
            <ns3:cad>92</ns3:cad>
          </ns3:TrackPointExtension>
        </extensions>
      </trkpt>
      <trkpt lat="43.8320245407521724700927734375" lon="4.27672536112368106842041015625">
        <ele>118.40000152587890625</ele>
        <time>2024-01-27T09:29:55.000Z</time>
        <extensions>
          <ns3:TrackPointExtension>
            <ns3:hr>158</ns3:hr>
            <ns3:cad>92</ns3:cad>
          </ns3:TrackPointExtension>
        </extensions>
      </trkpt>
      <trkpt lat="43.83204021491110324859619140625" lon="4.276739023625850677490234375">
        <ele>118.8000030517578125</ele>
        <time>2024-01-27T09:29:56.000Z</time>
        <extensions>
          <ns3:TrackPointExtension>
            <ns3:hr>158</ns3:hr>
            <ns3:cad>92</ns3:cad>
          </ns3:TrackPointExtension>
        </extensions>
      </trkpt>
      <trkpt lat="43.83204616606235504150390625" lon="4.276758134365081787109375">
        <ele>119</ele>
        <time>2024-01-27T09:29:57.000Z</time>
        <extensions>
          <ns3:TrackPointExtension>
            <ns3:hr>158</ns3:hr>
            <ns3:cad>92</ns3:cad>
          </ns3:TrackPointExtension>
        </extensions>
      </trkpt>
      <trkpt lat="43.8320506922900676727294921875" lon="4.27677850238978862762451171875">
        <ele>119.1999969482421875</ele>
        <time>2024-01-27T09:29:58.000Z</time>
        <extensions>
          <ns3:TrackPointExtension>
            <ns3:hr>158</ns3:hr>
            <ns3:cad>91</ns3:cad>
          </ns3:TrackPointExtension>
        </extensions>
      </trkpt>
      <trkpt lat="43.8320553861558437347412109375" lon="4.27679744549095630645751953125">
        <ele>119.59999847412109375</ele>
        <time>2024-01-27T09:29:59.000Z</time>
        <extensions>
          <ns3:TrackPointExtension>
            <ns3:hr>158</ns3:hr>
            <ns3:cad>90</ns3:cad>
          </ns3:TrackPointExtension>
        </extensions>
      </trkpt>
      <trkpt lat="43.83205412887036800384521484375" lon="4.2768216691911220550537109375">
        <ele>120.1999969482421875</ele>
        <time>2024-01-27T09:30:00.000Z</time>
        <extensions>
          <ns3:TrackPointExtension>
            <ns3:hr>158</ns3:hr>
            <ns3:cad>90</ns3:cad>
          </ns3:TrackPointExtension>
        </extensions>
      </trkpt>
      <trkpt lat="43.83204272948205471038818359375" lon="4.27682477049529552459716796875">
        <ele>120.8000030517578125</ele>
        <time>2024-01-27T09:30:01.000Z</time>
        <extensions>
          <ns3:TrackPointExtension>
            <ns3:hr>158</ns3:hr>
            <ns3:cad>90</ns3:cad>
          </ns3:TrackPointExtension>
        </extensions>
      </trkpt>
      <trkpt lat="43.83203149773180484771728515625" lon="4.27684052847325801849365234375">
        <ele>121.1999969482421875</ele>
        <time>2024-01-27T09:30:02.000Z</time>
        <extensions>
          <ns3:TrackPointExtension>
            <ns3:hr>158</ns3:hr>
            <ns3:cad>86</ns3:cad>
          </ns3:TrackPointExtension>
        </extensions>
      </trkpt>
      <trkpt lat="43.83201875723898410797119140625" lon="4.27685712464153766632080078125">
        <ele>121.8000030517578125</ele>
        <time>2024-01-27T09:30:03.000Z</time>
        <extensions>
          <ns3:TrackPointExtension>
            <ns3:hr>159</ns3:hr>
            <ns3:cad>86</ns3:cad>
          </ns3:TrackPointExtension>
        </extensions>
      </trkpt>
      <trkpt lat="43.8320012390613555908203125" lon="4.27687221206724643707275390625">
        <ele>121.8000030517578125</ele>
        <time>2024-01-27T09:30:04.000Z</time>
        <extensions>
          <ns3:TrackPointExtension>
            <ns3:hr>159</ns3:hr>
            <ns3:cad>86</ns3:cad>
          </ns3:TrackPointExtension>
        </extensions>
      </trkpt>
      <trkpt lat="43.831982798874378204345703125" lon="4.2768786661326885223388671875">
        <ele>122.1999969482421875</ele>
        <time>2024-01-27T09:30:05.000Z</time>
        <extensions>
          <ns3:TrackPointExtension>
            <ns3:hr>159</ns3:hr>
            <ns3:cad>86</ns3:cad>
          </ns3:TrackPointExtension>
        </extensions>
      </trkpt>
      <trkpt lat="43.83195421658456325531005859375" lon="4.276895262300968170166015625">
        <ele>122.40000152587890625</ele>
        <time>2024-01-27T09:30:06.000Z</time>
        <extensions>
          <ns3:TrackPointExtension>
            <ns3:hr>159</ns3:hr>
            <ns3:cad>86</ns3:cad>
          </ns3:TrackPointExtension>
        </extensions>
      </trkpt>
      <trkpt lat="43.83192739449441432952880859375" lon="4.27690590731799602508544921875">
        <ele>122.8000030517578125</ele>
        <time>2024-01-27T09:30:07.000Z</time>
        <extensions>
          <ns3:TrackPointExtension>
            <ns3:hr>159</ns3:hr>
            <ns3:cad>87</ns3:cad>
          </ns3:TrackPointExtension>
        </extensions>
      </trkpt>
      <trkpt lat="43.83190224878489971160888671875" lon="4.27692166529595851898193359375">
        <ele>122.8000030517578125</ele>
        <time>2024-01-27T09:30:08.000Z</time>
        <extensions>
          <ns3:TrackPointExtension>
            <ns3:hr>159</ns3:hr>
            <ns3:cad>87</ns3:cad>
          </ns3:TrackPointExtension>
        </extensions>
      </trkpt>
      <trkpt lat="43.8318833895027637481689453125" lon="4.27693624980747699737548828125">
        <ele>123</ele>
        <time>2024-01-27T09:30:09.000Z</time>
        <extensions>
          <ns3:TrackPointExtension>
            <ns3:hr>159</ns3:hr>
            <ns3:cad>89</ns3:cad>
          </ns3:TrackPointExtension>
        </extensions>
      </trkpt>
      <trkpt lat="43.8318644464015960693359375" lon="4.27695720456540584564208984375">
        <ele>123</ele>
        <time>2024-01-27T09:30:10.000Z</time>
        <extensions>
          <ns3:TrackPointExtension>
            <ns3:hr>159</ns3:hr>
            <ns3:cad>89</ns3:cad>
          </ns3:TrackPointExtension>
        </extensions>
      </trkpt>
      <trkpt lat="43.83185095153748989105224609375" lon="4.27697899751365184783935546875">
        <ele>123</ele>
        <time>2024-01-27T09:30:11.000Z</time>
        <extensions>
          <ns3:TrackPointExtension>
            <ns3:hr>159</ns3:hr>
            <ns3:cad>89</ns3:cad>
          </ns3:TrackPointExtension>
        </extensions>
      </trkpt>
      <trkpt lat="43.83184458129107952117919921875" lon="4.27699509076774120330810546875">
        <ele>123.1999969482421875</ele>
        <time>2024-01-27T09:30:12.000Z</time>
        <extensions>
          <ns3:TrackPointExtension>
            <ns3:hr>159</ns3:hr>
            <ns3:cad>89</ns3:cad>
          </ns3:TrackPointExtension>
        </extensions>
      </trkpt>
      <trkpt lat="43.831839300692081451416015625" lon="4.27701001055538654327392578125">
        <ele>123.40000152587890625</ele>
        <time>2024-01-27T09:30:13.000Z</time>
        <extensions>
          <ns3:TrackPointExtension>
            <ns3:hr>159</ns3:hr>
            <ns3:cad>89</ns3:cad>
          </ns3:TrackPointExtension>
        </extensions>
      </trkpt>
      <trkpt lat="43.8318314217031002044677734375" lon="4.277027361094951629638671875">
        <ele>123.8000030517578125</ele>
        <time>2024-01-27T09:30:14.000Z</time>
        <extensions>
          <ns3:TrackPointExtension>
            <ns3:hr>160</ns3:hr>
            <ns3:cad>89</ns3:cad>
          </ns3:TrackPointExtension>
        </extensions>
      </trkpt>
      <trkpt lat="43.83182697929441928863525390625" lon="4.2770437896251678466796875">
        <ele>124.1999969482421875</ele>
        <time>2024-01-27T09:30:15.000Z</time>
        <extensions>
          <ns3:TrackPointExtension>
            <ns3:hr>160</ns3:hr>
            <ns3:cad>89</ns3:cad>
          </ns3:TrackPointExtension>
        </extensions>
      </trkpt>
      <trkpt lat="43.8318213634192943572998046875" lon="4.2770573683083057403564453125">
        <ele>124.59999847412109375</ele>
        <time>2024-01-27T09:30:16.000Z</time>
        <extensions>
          <ns3:TrackPointExtension>
            <ns3:hr>160</ns3:hr>
            <ns3:cad>89</ns3:cad>
          </ns3:TrackPointExtension>
        </extensions>
      </trkpt>
      <trkpt lat="43.83181775920093059539794921875" lon="4.27707052789628505706787109375">
        <ele>124.8000030517578125</ele>
        <time>2024-01-27T09:30:17.000Z</time>
        <extensions>
          <ns3:TrackPointExtension>
            <ns3:hr>160</ns3:hr>
            <ns3:cad>0</ns3:cad>
          </ns3:TrackPointExtension>
        </extensions>
      </trkpt>
      <trkpt lat="43.83181490935385227203369140625" lon="4.27707924507558345794677734375">
        <ele>125</ele>
        <time>2024-01-27T09:30:18.000Z</time>
        <extensions>
          <ns3:TrackPointExtension>
            <ns3:hr>160</ns3:hr>
            <ns3:cad>0</ns3:cad>
          </ns3:TrackPointExtension>
        </extensions>
      </trkpt>
      <trkpt lat="43.8318108022212982177734375" lon="4.27709399722516536712646484375">
        <ele>125.40000152587890625</ele>
        <time>2024-01-27T09:30:19.000Z</time>
        <extensions>
          <ns3:TrackPointExtension>
            <ns3:hr>160</ns3:hr>
            <ns3:cad>0</ns3:cad>
          </ns3:TrackPointExtension>
        </extensions>
      </trkpt>
      <trkpt lat="43.8318072818219661712646484375" lon="4.27710975520312786102294921875">
        <ele>125.59999847412109375</ele>
        <time>2024-01-27T09:30:20.000Z</time>
        <extensions>
          <ns3:TrackPointExtension>
            <ns3:hr>160</ns3:hr>
            <ns3:cad>0</ns3:cad>
          </ns3:TrackPointExtension>
        </extensions>
      </trkpt>
      <trkpt lat="43.83180610835552215576171875" lon="4.2771237529814243316650390625">
        <ele>126</ele>
        <time>2024-01-27T09:30:21.000Z</time>
        <extensions>
          <ns3:TrackPointExtension>
            <ns3:hr>160</ns3:hr>
            <ns3:cad>0</ns3:cad>
          </ns3:TrackPointExtension>
        </extensions>
      </trkpt>
      <trkpt lat="43.8318032585084438323974609375" lon="4.27713993005454540252685546875">
        <ele>126.40000152587890625</ele>
        <time>2024-01-27T09:30:22.000Z</time>
        <extensions>
          <ns3:TrackPointExtension>
            <ns3:hr>160</ns3:hr>
            <ns3:cad>0</ns3:cad>
          </ns3:TrackPointExtension>
        </extensions>
      </trkpt>
      <trkpt lat="43.8318054378032684326171875" lon="4.27715484984219074249267578125">
        <ele>126.8000030517578125</ele>
        <time>2024-01-27T09:30:23.000Z</time>
        <extensions>
          <ns3:TrackPointExtension>
            <ns3:hr>160</ns3:hr>
            <ns3:cad>0</ns3:cad>
          </ns3:TrackPointExtension>
        </extensions>
      </trkpt>
      <trkpt lat="43.8318052701652050018310546875" lon="4.27717211656272411346435546875">
        <ele>127.1999969482421875</ele>
        <time>2024-01-27T09:30:24.000Z</time>
        <extensions>
          <ns3:TrackPointExtension>
            <ns3:hr>160</ns3:hr>
            <ns3:cad>0</ns3:cad>
          </ns3:TrackPointExtension>
        </extensions>
      </trkpt>
      <trkpt lat="43.83180200122296810150146484375" lon="4.27720145322382450103759765625">
        <ele>127.40000152587890625</ele>
        <time>2024-01-27T09:30:25.000Z</time>
        <extensions>
          <ns3:TrackPointExtension>
            <ns3:hr>160</ns3:hr>
            <ns3:cad>0</ns3:cad>
          </ns3:TrackPointExtension>
        </extensions>
      </trkpt>
      <trkpt lat="43.83180149830877780914306640625" lon="4.277212433516979217529296875">
        <ele>127.8000030517578125</ele>
        <time>2024-01-27T09:30:26.000Z</time>
        <extensions>
          <ns3:TrackPointExtension>
            <ns3:hr>160</ns3:hr>
            <ns3:cad>0</ns3:cad>
          </ns3:TrackPointExtension>
        </extensions>
      </trkpt>
      <trkpt lat="43.83180141448974609375" lon="4.27722810767590999603271484375">
        <ele>128</ele>
        <time>2024-01-27T09:30:27.000Z</time>
        <extensions>
          <ns3:TrackPointExtension>
            <ns3:hr>160</ns3:hr>
            <ns3:cad>0</ns3:cad>
          </ns3:TrackPointExtension>
        </extensions>
      </trkpt>
      <trkpt lat="43.83180141448974609375" lon="4.277243949472904205322265625">
        <ele>128.399993896484375</ele>
        <time>2024-01-27T09:30:28.000Z</time>
        <extensions>
          <ns3:TrackPointExtension>
            <ns3:hr>160</ns3:hr>
            <ns3:cad>57</ns3:cad>
          </ns3:TrackPointExtension>
        </extensions>
      </trkpt>
      <trkpt lat="43.83180418051779270172119140625" lon="4.27725099027156829833984375">
        <ele>128.600006103515625</ele>
        <time>2024-01-27T09:30:29.000Z</time>
        <extensions>
          <ns3:TrackPointExtension>
            <ns3:hr>160</ns3:hr>
            <ns3:cad>58</ns3:cad>
          </ns3:TrackPointExtension>
        </extensions>
      </trkpt>
      <trkpt lat="43.831805102527141571044921875" lon="4.277264736592769622802734375">
        <ele>129</ele>
        <time>2024-01-27T09:30:30.000Z</time>
        <extensions>
          <ns3:TrackPointExtension>
            <ns3:hr>161</ns3:hr>
            <ns3:cad>58</ns3:cad>
          </ns3:TrackPointExtension>
        </extensions>
      </trkpt>
      <trkpt lat="43.83180904202163219451904296875" lon="4.27727789618074893951416015625">
        <ele>129.1999969482421875</ele>
        <time>2024-01-27T09:30:31.000Z</time>
        <extensions>
          <ns3:TrackPointExtension>
            <ns3:hr>161</ns3:hr>
            <ns3:cad>58</ns3:cad>
          </ns3:TrackPointExtension>
        </extensions>
      </trkpt>
      <trkpt lat="43.83181524462997913360595703125" lon="4.27729365415871143341064453125">
        <ele>129.600006103515625</ele>
        <time>2024-01-27T09:30:32.000Z</time>
        <extensions>
          <ns3:TrackPointExtension>
            <ns3:hr>162</ns3:hr>
            <ns3:cad>0</ns3:cad>
          </ns3:TrackPointExtension>
        </extensions>
      </trkpt>
      <trkpt lat="43.83182094432413578033447265625" lon="4.27730002440512180328369140625">
        <ele>130</ele>
        <time>2024-01-27T09:30:33.000Z</time>
        <extensions>
          <ns3:TrackPointExtension>
            <ns3:hr>162</ns3:hr>
            <ns3:cad>0</ns3:cad>
          </ns3:TrackPointExtension>
        </extensions>
      </trkpt>
      <trkpt lat="43.83182630874216556549072265625" lon="4.27730404771864414215087890625">
        <ele>130.399993896484375</ele>
        <time>2024-01-27T09:30:34.000Z</time>
        <extensions>
          <ns3:TrackPointExtension>
            <ns3:hr>162</ns3:hr>
            <ns3:cad>0</ns3:cad>
          </ns3:TrackPointExtension>
        </extensions>
      </trkpt>
      <trkpt lat="43.8318334333598613739013671875" lon="4.277307651937007904052734375">
        <ele>130.600006103515625</ele>
        <time>2024-01-27T09:30:35.000Z</time>
        <extensions>
          <ns3:TrackPointExtension>
            <ns3:hr>162</ns3:hr>
            <ns3:cad>55</ns3:cad>
          </ns3:TrackPointExtension>
        </extensions>
      </trkpt>
      <trkpt lat="43.83184156380593776702880859375" lon="4.2773108370602130889892578125">
        <ele>130.8000030517578125</ele>
        <time>2024-01-27T09:30:36.000Z</time>
        <extensions>
          <ns3:TrackPointExtension>
            <ns3:hr>162</ns3:hr>
            <ns3:cad>55</ns3:cad>
          </ns3:TrackPointExtension>
        </extensions>
      </trkpt>
      <trkpt lat="43.8318505324423313140869140625" lon="4.27730941213667392730712890625">
        <ele>131</ele>
        <time>2024-01-27T09:30:37.000Z</time>
        <extensions>
          <ns3:TrackPointExtension>
            <ns3:hr>162</ns3:hr>
            <ns3:cad>55</ns3:cad>
          </ns3:TrackPointExtension>
        </extensions>
      </trkpt>
      <trkpt lat="43.83186486549675464630126953125" lon="4.2773061431944370269775390625">
        <ele>131.1999969482421875</ele>
        <time>2024-01-27T09:30:38.000Z</time>
        <extensions>
          <ns3:TrackPointExtension>
            <ns3:hr>162</ns3:hr>
            <ns3:cad>55</ns3:cad>
          </ns3:TrackPointExtension>
        </extensions>
      </trkpt>
      <trkpt lat="43.8318778574466705322265625" lon="4.2772997729480266571044921875">
        <ele>131.600006103515625</ele>
        <time>2024-01-27T09:30:39.000Z</time>
        <extensions>
          <ns3:TrackPointExtension>
            <ns3:hr>162</ns3:hr>
            <ns3:cad>55</ns3:cad>
          </ns3:TrackPointExtension>
        </extensions>
      </trkpt>
      <trkpt lat="43.83188514970242977142333984375" lon="4.27729382179677486419677734375">
        <ele>131.8000030517578125</ele>
        <time>2024-01-27T09:30:40.000Z</time>
        <extensions>
          <ns3:TrackPointExtension>
            <ns3:hr>162</ns3:hr>
            <ns3:cad>55</ns3:cad>
          </ns3:TrackPointExtension>
        </extensions>
      </trkpt>
      <trkpt lat="43.831901662051677703857421875" lon="4.27727781236171722412109375">
        <ele>132</ele>
        <time>2024-01-27T09:30:41.000Z</time>
        <extensions>
          <ns3:TrackPointExtension>
            <ns3:hr>162</ns3:hr>
            <ns3:cad>55</ns3:cad>
          </ns3:TrackPointExtension>
        </extensions>
      </trkpt>
      <trkpt lat="43.83191314525902271270751953125" lon="4.27727890200912952423095703125">
        <ele>132.1999969482421875</ele>
        <time>2024-01-27T09:30:42.000Z</time>
        <extensions>
          <ns3:TrackPointExtension>
            <ns3:hr>161</ns3:hr>
            <ns3:cad>55</ns3:cad>
          </ns3:TrackPointExtension>
        </extensions>
      </trkpt>
      <trkpt lat="43.8319252990186214447021484375" lon="4.2772789858281612396240234375">
        <ele>132.1999969482421875</ele>
        <time>2024-01-27T09:30:43.000Z</time>
        <extensions>
          <ns3:TrackPointExtension>
            <ns3:hr>161</ns3:hr>
            <ns3:cad>60</ns3:cad>
          </ns3:TrackPointExtension>
        </extensions>
      </trkpt>
      <trkpt lat="43.83193485438823699951171875" lon="4.2772776447236537933349609375">
        <ele>132.399993896484375</ele>
        <time>2024-01-27T09:30:44.000Z</time>
        <extensions>
          <ns3:TrackPointExtension>
            <ns3:hr>160</ns3:hr>
            <ns3:cad>60</ns3:cad>
          </ns3:TrackPointExtension>
        </extensions>
      </trkpt>
      <trkpt lat="43.8319413922727108001708984375" lon="4.2772809974849224090576171875">
        <ele>132.399993896484375</ele>
        <time>2024-01-27T09:30:45.000Z</time>
        <extensions>
          <ns3:TrackPointExtension>
            <ns3:hr>160</ns3:hr>
            <ns3:cad>60</ns3:cad>
          </ns3:TrackPointExtension>
        </extensions>
      </trkpt>
      <trkpt lat="43.83194616995751857757568359375" lon="4.2772826738655567169189453125">
        <ele>132.600006103515625</ele>
        <time>2024-01-27T09:30:46.000Z</time>
        <extensions>
          <ns3:TrackPointExtension>
            <ns3:hr>161</ns3:hr>
            <ns3:cad>63</ns3:cad>
          </ns3:TrackPointExtension>
        </extensions>
      </trkpt>
      <trkpt lat="43.83195388130843639373779296875" lon="4.277282170951366424560546875">
        <ele>132.8000030517578125</ele>
        <time>2024-01-27T09:30:47.000Z</time>
        <extensions>
          <ns3:TrackPointExtension>
            <ns3:hr>161</ns3:hr>
            <ns3:cad>63</ns3:cad>
          </ns3:TrackPointExtension>
        </extensions>
      </trkpt>
      <trkpt lat="43.831967376172542572021484375" lon="4.27728091366589069366455078125">
        <ele>132.8000030517578125</ele>
        <time>2024-01-27T09:30:48.000Z</time>
        <extensions>
          <ns3:TrackPointExtension>
            <ns3:hr>161</ns3:hr>
            <ns3:cad>63</ns3:cad>
          </ns3:TrackPointExtension>
        </extensions>
      </trkpt>
      <trkpt lat="43.83198774419724941253662109375" lon="4.27727806381881237030029296875">
        <ele>133</ele>
        <time>2024-01-27T09:30:49.000Z</time>
        <extensions>
          <ns3:TrackPointExtension>
            <ns3:hr>161</ns3:hr>
            <ns3:cad>59</ns3:cad>
          </ns3:TrackPointExtension>
        </extensions>
      </trkpt>
      <trkpt lat="43.832012303173542022705078125" lon="4.27727068774402141571044921875">
        <ele>133</ele>
        <time>2024-01-27T09:30:50.000Z</time>
        <extensions>
          <ns3:TrackPointExtension>
            <ns3:hr>161</ns3:hr>
            <ns3:cad>59</ns3:cad>
          </ns3:TrackPointExtension>
        </extensions>
      </trkpt>
      <trkpt lat="43.83203887380659580230712890625" lon="4.277261383831501007080078125">
        <ele>133.1999969482421875</ele>
        <time>2024-01-27T09:30:51.000Z</time>
        <extensions>
          <ns3:TrackPointExtension>
            <ns3:hr>161</ns3:hr>
            <ns3:cad>59</ns3:cad>
          </ns3:TrackPointExtension>
        </extensions>
      </trkpt>
      <trkpt lat="43.83205312304198741912841796875" lon="4.2772543430328369140625">
        <ele>133.1999969482421875</ele>
        <time>2024-01-27T09:30:52.000Z</time>
        <extensions>
          <ns3:TrackPointExtension>
            <ns3:hr>160</ns3:hr>
            <ns3:cad>59</ns3:cad>
          </ns3:TrackPointExtension>
        </extensions>
      </trkpt>
      <trkpt lat="43.8320714794099330902099609375" lon="4.27724587731063365936279296875">
        <ele>133.1999969482421875</ele>
        <time>2024-01-27T09:30:53.000Z</time>
        <extensions>
          <ns3:TrackPointExtension>
            <ns3:hr>160</ns3:hr>
            <ns3:cad>88</ns3:cad>
          </ns3:TrackPointExtension>
        </extensions>
      </trkpt>
      <trkpt lat="43.83208933286368846893310546875" lon="4.277236573398113250732421875">
        <ele>133.1999969482421875</ele>
        <time>2024-01-27T09:30:54.000Z</time>
        <extensions>
          <ns3:TrackPointExtension>
            <ns3:hr>160</ns3:hr>
            <ns3:cad>88</ns3:cad>
          </ns3:TrackPointExtension>
        </extensions>
      </trkpt>
      <trkpt lat="43.83210442028939723968505859375" lon="4.2772256769239902496337890625">
        <ele>133.399993896484375</ele>
        <time>2024-01-27T09:30:55.000Z</time>
        <extensions>
          <ns3:TrackPointExtension>
            <ns3:hr>159</ns3:hr>
            <ns3:cad>88</ns3:cad>
          </ns3:TrackPointExtension>
        </extensions>
      </trkpt>
      <trkpt lat="43.83212286047637462615966796875" lon="4.27721888758242130279541015625">
        <ele>133.1999969482421875</ele>
        <time>2024-01-27T09:30:56.000Z</time>
        <extensions>
          <ns3:TrackPointExtension>
            <ns3:hr>159</ns3:hr>
            <ns3:cad>89</ns3:cad>
          </ns3:TrackPointExtension>
        </extensions>
      </trkpt>
      <trkpt lat="43.83214138448238372802734375" lon="4.2772079072892665863037109375">
        <ele>133.1999969482421875</ele>
        <time>2024-01-27T09:30:57.000Z</time>
        <extensions>
          <ns3:TrackPointExtension>
            <ns3:hr>159</ns3:hr>
            <ns3:cad>89</ns3:cad>
          </ns3:TrackPointExtension>
        </extensions>
      </trkpt>
      <trkpt lat="43.8321589864790439605712890625" lon="4.2771961726248264312744140625">
        <ele>133.1999969482421875</ele>
        <time>2024-01-27T09:30:58.000Z</time>
        <extensions>
          <ns3:TrackPointExtension>
            <ns3:hr>159</ns3:hr>
            <ns3:cad>89</ns3:cad>
          </ns3:TrackPointExtension>
        </extensions>
      </trkpt>
      <trkpt lat="43.83217717520892620086669921875" lon="4.27718016318976879119873046875">
        <ele>133.1999969482421875</ele>
        <time>2024-01-27T09:30:59.000Z</time>
        <extensions>
          <ns3:TrackPointExtension>
            <ns3:hr>160</ns3:hr>
            <ns3:cad>88</ns3:cad>
          </ns3:TrackPointExtension>
        </extensions>
      </trkpt>
      <trkpt lat="43.83219880051910877227783203125" lon="4.27716691978275775909423828125">
        <ele>133.1999969482421875</ele>
        <time>2024-01-27T09:31:00.000Z</time>
        <extensions>
          <ns3:TrackPointExtension>
            <ns3:hr>159</ns3:hr>
            <ns3:cad>87</ns3:cad>
          </ns3:TrackPointExtension>
        </extensions>
      </trkpt>
      <trkpt lat="43.83222143165767192840576171875" lon="4.27715451456606388092041015625">
        <ele>133</ele>
        <time>2024-01-27T09:31:01.000Z</time>
        <extensions>
          <ns3:TrackPointExtension>
            <ns3:hr>159</ns3:hr>
            <ns3:cad>87</ns3:cad>
          </ns3:TrackPointExtension>
        </extensions>
      </trkpt>
      <trkpt lat="43.83224330842494964599609375" lon="4.27714931778609752655029296875">
        <ele>133</ele>
        <time>2024-01-27T09:31:02.000Z</time>
        <extensions>
          <ns3:TrackPointExtension>
            <ns3:hr>159</ns3:hr>
            <ns3:cad>88</ns3:cad>
          </ns3:TrackPointExtension>
        </extensions>
      </trkpt>
      <trkpt lat="43.83226417936384677886962890625" lon="4.27714546211063861846923828125">
        <ele>133</ele>
        <time>2024-01-27T09:31:03.000Z</time>
        <extensions>
          <ns3:TrackPointExtension>
            <ns3:hr>159</ns3:hr>
            <ns3:cad>89</ns3:cad>
          </ns3:TrackPointExtension>
        </extensions>
      </trkpt>
      <trkpt lat="43.83229251019656658172607421875" lon="4.27715568803250789642333984375">
        <ele>132.8000030517578125</ele>
        <time>2024-01-27T09:31:04.000Z</time>
        <extensions>
          <ns3:TrackPointExtension>
            <ns3:hr>158</ns3:hr>
            <ns3:cad>89</ns3:cad>
          </ns3:TrackPointExtension>
        </extensions>
      </trkpt>
      <trkpt lat="43.83231480605900287628173828125" lon="4.2771656624972820281982421875">
        <ele>132.8000030517578125</ele>
        <time>2024-01-27T09:31:05.000Z</time>
        <extensions>
          <ns3:TrackPointExtension>
            <ns3:hr>158</ns3:hr>
            <ns3:cad>90</ns3:cad>
          </ns3:TrackPointExtension>
        </extensions>
      </trkpt>
      <trkpt lat="43.8323346711695194244384765625" lon="4.27717513404786586761474609375">
        <ele>132.8000030517578125</ele>
        <time>2024-01-27T09:31:06.000Z</time>
        <extensions>
          <ns3:TrackPointExtension>
            <ns3:hr>158</ns3:hr>
            <ns3:cad>90</ns3:cad>
          </ns3:TrackPointExtension>
        </extensions>
      </trkpt>
      <trkpt lat="43.8323541171848773956298828125" lon="4.27719525061547756195068359375">
        <ele>132.8000030517578125</ele>
        <time>2024-01-27T09:31:07.000Z</time>
        <extensions>
          <ns3:TrackPointExtension>
            <ns3:hr>158</ns3:hr>
            <ns3:cad>91</ns3:cad>
          </ns3:TrackPointExtension>
        </extensions>
      </trkpt>
      <trkpt lat="43.8323695398867130279541015625" lon="4.27721654064953327178955078125">
        <ele>133</ele>
        <time>2024-01-27T09:31:08.000Z</time>
        <extensions>
          <ns3:TrackPointExtension>
            <ns3:hr>158</ns3:hr>
            <ns3:cad>92</ns3:cad>
          </ns3:TrackPointExtension>
        </extensions>
      </trkpt>
      <trkpt lat="43.8323869742453098297119140625" lon="4.27723246626555919647216796875">
        <ele>133.1999969482421875</ele>
        <time>2024-01-27T09:31:09.000Z</time>
        <extensions>
          <ns3:TrackPointExtension>
            <ns3:hr>158</ns3:hr>
            <ns3:cad>92</ns3:cad>
          </ns3:TrackPointExtension>
        </extensions>
      </trkpt>
      <trkpt lat="43.832403905689716339111328125" lon="4.27723263390362262725830078125">
        <ele>133.600006103515625</ele>
        <time>2024-01-27T09:31:10.000Z</time>
        <extensions>
          <ns3:TrackPointExtension>
            <ns3:hr>158</ns3:hr>
            <ns3:cad>92</ns3:cad>
          </ns3:TrackPointExtension>
        </extensions>
      </trkpt>
      <trkpt lat="43.83242393843829631805419921875" lon="4.2772320471704006195068359375">
        <ele>134</ele>
        <time>2024-01-27T09:31:11.000Z</time>
        <extensions>
          <ns3:TrackPointExtension>
            <ns3:hr>158</ns3:hr>
            <ns3:cad>91</ns3:cad>
          </ns3:TrackPointExtension>
        </extensions>
      </trkpt>
      <trkpt lat="43.832438774406909942626953125" lon="4.27723162807524204254150390625">
        <ele>134.399993896484375</ele>
        <time>2024-01-27T09:31:12.000Z</time>
        <extensions>
          <ns3:TrackPointExtension>
            <ns3:hr>158</ns3:hr>
            <ns3:cad>90</ns3:cad>
          </ns3:TrackPointExtension>
        </extensions>
      </trkpt>
      <trkpt lat="43.8324603997170925140380859375" lon="4.277232550084590911865234375">
        <ele>134.8000030517578125</ele>
        <time>2024-01-27T09:31:13.000Z</time>
        <extensions>
          <ns3:TrackPointExtension>
            <ns3:hr>157</ns3:hr>
            <ns3:cad>89</ns3:cad>
          </ns3:TrackPointExtension>
        </extensions>
      </trkpt>
      <trkpt lat="43.8324758224189281463623046875" lon="4.27723900415003299713134765625">
        <ele>135</ele>
        <time>2024-01-27T09:31:14.000Z</time>
        <extensions>
          <ns3:TrackPointExtension>
            <ns3:hr>157</ns3:hr>
            <ns3:cad>89</ns3:cad>
          </ns3:TrackPointExtension>
        </extensions>
      </trkpt>
      <trkpt lat="43.83248914964497089385986328125" lon="4.27725090645253658294677734375">
        <ele>135.399993896484375</ele>
        <time>2024-01-27T09:31:15.000Z</time>
        <extensions>
          <ns3:TrackPointExtension>
            <ns3:hr>157</ns3:hr>
            <ns3:cad>89</ns3:cad>
          </ns3:TrackPointExtension>
        </extensions>
      </trkpt>
      <trkpt lat="43.83249619044363498687744140625" lon="4.2772689275443553924560546875">
        <ele>135.600006103515625</ele>
        <time>2024-01-27T09:31:16.000Z</time>
        <extensions>
          <ns3:TrackPointExtension>
            <ns3:hr>157</ns3:hr>
            <ns3:cad>89</ns3:cad>
          </ns3:TrackPointExtension>
        </extensions>
      </trkpt>
      <trkpt lat="43.8325056619942188262939453125" lon="4.27728208713233470916748046875">
        <ele>136</ele>
        <time>2024-01-27T09:31:17.000Z</time>
        <extensions>
          <ns3:TrackPointExtension>
            <ns3:hr>157</ns3:hr>
            <ns3:cad>90</ns3:cad>
          </ns3:TrackPointExtension>
        </extensions>
      </trkpt>
      <trkpt lat="43.8325180672109127044677734375" lon="4.27729030139744281768798828125">
        <ele>136.399993896484375</ele>
        <time>2024-01-27T09:31:18.000Z</time>
        <extensions>
          <ns3:TrackPointExtension>
            <ns3:hr>157</ns3:hr>
            <ns3:cad>90</ns3:cad>
          </ns3:TrackPointExtension>
        </extensions>
      </trkpt>
      <trkpt lat="43.83252820931375026702880859375" lon="4.2773031257092952728271484375">
        <ele>136.8000030517578125</ele>
        <time>2024-01-27T09:31:19.000Z</time>
        <extensions>
          <ns3:TrackPointExtension>
            <ns3:hr>158</ns3:hr>
            <ns3:cad>90</ns3:cad>
          </ns3:TrackPointExtension>
        </extensions>
      </trkpt>
      <trkpt lat="43.83254103362560272216796875" lon="4.27732097916305065155029296875">
        <ele>137.1999969482421875</ele>
        <time>2024-01-27T09:31:20.000Z</time>
        <extensions>
          <ns3:TrackPointExtension>
            <ns3:hr>158</ns3:hr>
            <ns3:cad>90</ns3:cad>
          </ns3:TrackPointExtension>
        </extensions>
      </trkpt>
      <trkpt lat="43.83255570195615291595458984375" lon="4.27733388729393482208251953125">
        <ele>137.8000030517578125</ele>
        <time>2024-01-27T09:31:21.000Z</time>
        <extensions>
          <ns3:TrackPointExtension>
            <ns3:hr>158</ns3:hr>
            <ns3:cad>80</ns3:cad>
          </ns3:TrackPointExtension>
        </extensions>
      </trkpt>
      <trkpt lat="43.83256517350673675537109375" lon="4.2773457057774066925048828125">
        <ele>138.1999969482421875</ele>
        <time>2024-01-27T09:31:22.000Z</time>
        <extensions>
          <ns3:TrackPointExtension>
            <ns3:hr>159</ns3:hr>
            <ns3:cad>78</ns3:cad>
          </ns3:TrackPointExtension>
        </extensions>
      </trkpt>
      <trkpt lat="43.8325646705925464630126953125" lon="4.27736523561179637908935546875">
        <ele>139</ele>
        <time>2024-01-27T09:31:23.000Z</time>
        <extensions>
          <ns3:TrackPointExtension>
            <ns3:hr>159</ns3:hr>
            <ns3:cad>76</ns3:cad>
          </ns3:TrackPointExtension>
        </extensions>
      </trkpt>
      <trkpt lat="43.83256291039288043975830078125" lon="4.27737764082849025726318359375">
        <ele>139.399993896484375</ele>
        <time>2024-01-27T09:31:24.000Z</time>
        <extensions>
          <ns3:TrackPointExtension>
            <ns3:hr>160</ns3:hr>
            <ns3:cad>76</ns3:cad>
          </ns3:TrackPointExtension>
        </extensions>
      </trkpt>
      <trkpt lat="43.83256408385932445526123046875" lon="4.277388788759708404541015625">
        <ele>139.8000030517578125</ele>
        <time>2024-01-27T09:31:25.000Z</time>
        <extensions>
          <ns3:TrackPointExtension>
            <ns3:hr>160</ns3:hr>
            <ns3:cad>76</ns3:cad>
          </ns3:TrackPointExtension>
        </extensions>
      </trkpt>
      <trkpt lat="43.83256626315414905548095703125" lon="4.27740144543349742889404296875">
        <ele>140</ele>
        <time>2024-01-27T09:31:26.000Z</time>
        <extensions>
          <ns3:TrackPointExtension>
            <ns3:hr>160</ns3:hr>
            <ns3:cad>81</ns3:cad>
          </ns3:TrackPointExtension>
        </extensions>
      </trkpt>
      <trkpt lat="43.832569532096385955810546875" lon="4.27742089144885540008544921875">
        <ele>140.1999969482421875</ele>
        <time>2024-01-27T09:31:27.000Z</time>
        <extensions>
          <ns3:TrackPointExtension>
            <ns3:hr>160</ns3:hr>
            <ns3:cad>81</ns3:cad>
          </ns3:TrackPointExtension>
        </extensions>
      </trkpt>
      <trkpt lat="43.83256852626800537109375" lon="4.2774379067122936248779296875">
        <ele>140.600006103515625</ele>
        <time>2024-01-27T09:31:28.000Z</time>
        <extensions>
          <ns3:TrackPointExtension>
            <ns3:hr>161</ns3:hr>
            <ns3:cad>81</ns3:cad>
          </ns3:TrackPointExtension>
        </extensions>
      </trkpt>
      <trkpt lat="43.83256391622126102447509765625" lon="4.27744788117706775665283203125">
        <ele>140.8000030517578125</ele>
        <time>2024-01-27T09:31:29.000Z</time>
        <extensions>
          <ns3:TrackPointExtension>
            <ns3:hr>160</ns3:hr>
            <ns3:cad>81</ns3:cad>
          </ns3:TrackPointExtension>
        </extensions>
      </trkpt>
      <trkpt lat="43.83256073109805583953857421875" lon="4.27745676599442958831787109375">
        <ele>141</ele>
        <time>2024-01-27T09:31:30.000Z</time>
        <extensions>
          <ns3:TrackPointExtension>
            <ns3:hr>160</ns3:hr>
            <ns3:cad>81</ns3:cad>
          </ns3:TrackPointExtension>
        </extensions>
      </trkpt>
      <trkpt lat="43.83255469612777233123779296875" lon="4.2774684168398380279541015625">
        <ele>141.399993896484375</ele>
        <time>2024-01-27T09:31:31.000Z</time>
        <extensions>
          <ns3:TrackPointExtension>
            <ns3:hr>160</ns3:hr>
            <ns3:cad>81</ns3:cad>
          </ns3:TrackPointExtension>
        </extensions>
      </trkpt>
      <trkpt lat="43.83255067281424999237060546875" lon="4.27748040296137332916259765625">
        <ele>141.8000030517578125</ele>
        <time>2024-01-27T09:31:32.000Z</time>
        <extensions>
          <ns3:TrackPointExtension>
            <ns3:hr>160</ns3:hr>
            <ns3:cad>0</ns3:cad>
          </ns3:TrackPointExtension>
        </extensions>
      </trkpt>
      <trkpt lat="43.83254773914813995361328125" lon="4.27749507129192352294921875">
        <ele>142.1999969482421875</ele>
        <time>2024-01-27T09:31:33.000Z</time>
        <extensions>
          <ns3:TrackPointExtension>
            <ns3:hr>160</ns3:hr>
            <ns3:cad>0</ns3:cad>
          </ns3:TrackPointExtension>
        </extensions>
      </trkpt>
      <trkpt lat="43.83254346437752246856689453125" lon="4.2775056324899196624755859375">
        <ele>142.399993896484375</ele>
        <time>2024-01-27T09:31:34.000Z</time>
        <extensions>
          <ns3:TrackPointExtension>
            <ns3:hr>160</ns3:hr>
            <ns3:cad>0</ns3:cad>
          </ns3:TrackPointExtension>
        </extensions>
      </trkpt>
      <trkpt lat="43.83254732005298137664794921875" lon="4.27752013318240642547607421875">
        <ele>142.600006103515625</ele>
        <time>2024-01-27T09:31:35.000Z</time>
        <extensions>
          <ns3:TrackPointExtension>
            <ns3:hr>161</ns3:hr>
            <ns3:cad>0</ns3:cad>
          </ns3:TrackPointExtension>
        </extensions>
      </trkpt>
      <trkpt lat="43.83255084045231342315673828125" lon="4.2775311134755611419677734375">
        <ele>142.8000030517578125</ele>
        <time>2024-01-27T09:31:36.000Z</time>
        <extensions>
          <ns3:TrackPointExtension>
            <ns3:hr>161</ns3:hr>
            <ns3:cad>0</ns3:cad>
          </ns3:TrackPointExtension>
        </extensions>
      </trkpt>
      <trkpt lat="43.8325586356222629547119140625" lon="4.27753924392163753509521484375">
        <ele>143.1999969482421875</ele>
        <time>2024-01-27T09:31:37.000Z</time>
        <extensions>
          <ns3:TrackPointExtension>
            <ns3:hr>161</ns3:hr>
            <ns3:cad>0</ns3:cad>
          </ns3:TrackPointExtension>
        </extensions>
      </trkpt>
      <trkpt lat="43.8325670175254344940185546875" lon="4.2775448597967624664306640625">
        <ele>143.600006103515625</ele>
        <time>2024-01-27T09:31:38.000Z</time>
        <extensions>
          <ns3:TrackPointExtension>
            <ns3:hr>161</ns3:hr>
            <ns3:cad>0</ns3:cad>
          </ns3:TrackPointExtension>
        </extensions>
      </trkpt>
      <trkpt lat="43.83257724344730377197265625" lon="4.277551062405109405517578125">
        <ele>143.8000030517578125</ele>
        <time>2024-01-27T09:31:39.000Z</time>
        <extensions>
          <ns3:TrackPointExtension>
            <ns3:hr>162</ns3:hr>
            <ns3:cad>0</ns3:cad>
          </ns3:TrackPointExtension>
        </extensions>
      </trkpt>
      <trkpt lat="43.83258654735982418060302734375" lon="4.27756103686988353729248046875">
        <ele>144</ele>
        <time>2024-01-27T09:31:40.000Z</time>
        <extensions>
          <ns3:TrackPointExtension>
            <ns3:hr>162</ns3:hr>
            <ns3:cad>0</ns3:cad>
          </ns3:TrackPointExtension>
        </extensions>
      </trkpt>
      <trkpt lat="43.83259677328169345855712890625" lon="4.2775695025920867919921875">
        <ele>144.399993896484375</ele>
        <time>2024-01-27T09:31:41.000Z</time>
        <extensions>
          <ns3:TrackPointExtension>
            <ns3:hr>163</ns3:hr>
            <ns3:cad>0</ns3:cad>
          </ns3:TrackPointExtension>
        </extensions>
      </trkpt>
      <trkpt lat="43.83260783739387989044189453125" lon="4.2775770463049411773681640625">
        <ele>144.600006103515625</ele>
        <time>2024-01-27T09:31:42.000Z</time>
        <extensions>
          <ns3:TrackPointExtension>
            <ns3:hr>164</ns3:hr>
            <ns3:cad>0</ns3:cad>
          </ns3:TrackPointExtension>
        </extensions>
      </trkpt>
      <trkpt lat="43.83261873386800289154052734375" lon="4.27758551202714443206787109375">
        <ele>144.8000030517578125</ele>
        <time>2024-01-27T09:31:43.000Z</time>
        <extensions>
          <ns3:TrackPointExtension>
            <ns3:hr>164</ns3:hr>
            <ns3:cad>0</ns3:cad>
          </ns3:TrackPointExtension>
        </extensions>
      </trkpt>
      <trkpt lat="43.83262820541858673095703125" lon="4.2775928042829036712646484375">
        <ele>145.1999969482421875</ele>
        <time>2024-01-27T09:31:44.000Z</time>
        <extensions>
          <ns3:TrackPointExtension>
            <ns3:hr>165</ns3:hr>
            <ns3:cad>0</ns3:cad>
          </ns3:TrackPointExtension>
        </extensions>
      </trkpt>
      <trkpt lat="43.832636587321758270263671875" lon="4.2775976657867431640625">
        <ele>145.399993896484375</ele>
        <time>2024-01-27T09:31:45.000Z</time>
        <extensions>
          <ns3:TrackPointExtension>
            <ns3:hr>166</ns3:hr>
            <ns3:cad>0</ns3:cad>
          </ns3:TrackPointExtension>
        </extensions>
      </trkpt>
      <trkpt lat="43.83264706470072269439697265625" lon="4.277605377137660980224609375">
        <ele>145.600006103515625</ele>
        <time>2024-01-27T09:31:46.000Z</time>
        <extensions>
          <ns3:TrackPointExtension>
            <ns3:hr>168</ns3:hr>
            <ns3:cad>0</ns3:cad>
          </ns3:TrackPointExtension>
        </extensions>
      </trkpt>
      <trkpt lat="43.8326548598706722259521484375" lon="4.27761484868824481964111328125">
        <ele>145.8000030517578125</ele>
        <time>2024-01-27T09:31:47.000Z</time>
        <extensions>
          <ns3:TrackPointExtension>
            <ns3:hr>169</ns3:hr>
            <ns3:cad>0</ns3:cad>
          </ns3:TrackPointExtension>
        </extensions>
      </trkpt>
      <trkpt lat="43.83266181685030460357666015625" lon="4.27762054838240146636962890625">
        <ele>146.1999969482421875</ele>
        <time>2024-01-27T09:31:48.000Z</time>
        <extensions>
          <ns3:TrackPointExtension>
            <ns3:hr>170</ns3:hr>
            <ns3:cad>0</ns3:cad>
          </ns3:TrackPointExtension>
        </extensions>
      </trkpt>
      <trkpt lat="43.832667768001556396484375" lon="4.27762247622013092041015625">
        <ele>146.399993896484375</ele>
        <time>2024-01-27T09:31:49.000Z</time>
        <extensions>
          <ns3:TrackPointExtension>
            <ns3:hr>170</ns3:hr>
            <ns3:cad>0</ns3:cad>
          </ns3:TrackPointExtension>
        </extensions>
      </trkpt>
      <trkpt lat="43.83267916738986968994140625" lon="4.277628175914287567138671875">
        <ele>146.8000030517578125</ele>
        <time>2024-01-27T09:31:50.000Z</time>
        <extensions>
          <ns3:TrackPointExtension>
            <ns3:hr>170</ns3:hr>
            <ns3:cad>0</ns3:cad>
          </ns3:TrackPointExtension>
        </extensions>
      </trkpt>
      <trkpt lat="43.8326863758265972137451171875" lon="4.2776353843510150909423828125">
        <ele>147</ele>
        <time>2024-01-27T09:31:51.000Z</time>
        <extensions>
          <ns3:TrackPointExtension>
            <ns3:hr>170</ns3:hr>
            <ns3:cad>0</ns3:cad>
          </ns3:TrackPointExtension>
        </extensions>
      </trkpt>
      <trkpt lat="43.83269836194813251495361328125" lon="4.27764435298740863800048828125">
        <ele>147.1999969482421875</ele>
        <time>2024-01-27T09:31:52.000Z</time>
        <extensions>
          <ns3:TrackPointExtension>
            <ns3:hr>169</ns3:hr>
            <ns3:cad>0</ns3:cad>
          </ns3:TrackPointExtension>
        </extensions>
      </trkpt>
      <trkpt lat="43.832709006965160369873046875" lon="4.277652315795421600341796875">
        <ele>147.399993896484375</ele>
        <time>2024-01-27T09:31:53.000Z</time>
        <extensions>
          <ns3:TrackPointExtension>
            <ns3:hr>169</ns3:hr>
            <ns3:cad>0</ns3:cad>
          </ns3:TrackPointExtension>
        </extensions>
      </trkpt>
      <trkpt lat="43.83271998725831508636474609375" lon="4.2776588536798954010009765625">
        <ele>147.8000030517578125</ele>
        <time>2024-01-27T09:31:54.000Z</time>
        <extensions>
          <ns3:TrackPointExtension>
            <ns3:hr>168</ns3:hr>
            <ns3:cad>0</ns3:cad>
          </ns3:TrackPointExtension>
        </extensions>
      </trkpt>
      <trkpt lat="43.8327316381037235260009765625" lon="4.2776632122695446014404296875">
        <ele>147.8000030517578125</ele>
        <time>2024-01-27T09:31:55.000Z</time>
        <extensions>
          <ns3:TrackPointExtension>
            <ns3:hr>168</ns3:hr>
            <ns3:cad>0</ns3:cad>
          </ns3:TrackPointExtension>
        </extensions>
      </trkpt>
      <trkpt lat="43.83274513296782970428466796875" lon="4.27766614593565464019775390625">
        <ele>148</ele>
        <time>2024-01-27T09:31:56.000Z</time>
        <extensions>
          <ns3:TrackPointExtension>
            <ns3:hr>168</ns3:hr>
            <ns3:cad>0</ns3:cad>
          </ns3:TrackPointExtension>
        </extensions>
      </trkpt>
      <trkpt lat="43.8327564485371112823486328125" lon="4.277667067945003509521484375">
        <ele>148.1999969482421875</ele>
        <time>2024-01-27T09:31:57.000Z</time>
        <extensions>
          <ns3:TrackPointExtension>
            <ns3:hr>168</ns3:hr>
            <ns3:cad>0</ns3:cad>
          </ns3:TrackPointExtension>
        </extensions>
      </trkpt>
      <trkpt lat="43.83276541717350482940673828125" lon="4.27768550813198089599609375">
        <ele>148.600006103515625</ele>
        <time>2024-01-27T09:31:58.000Z</time>
        <extensions>
          <ns3:TrackPointExtension>
            <ns3:hr>168</ns3:hr>
            <ns3:cad>0</ns3:cad>
          </ns3:TrackPointExtension>
        </extensions>
      </trkpt>
      <trkpt lat="43.8327762298285961151123046875" lon="4.2776917107403278350830078125">
        <ele>148.8000030517578125</ele>
        <time>2024-01-27T09:31:59.000Z</time>
        <extensions>
          <ns3:TrackPointExtension>
            <ns3:hr>168</ns3:hr>
            <ns3:cad>60</ns3:cad>
          </ns3:TrackPointExtension>
        </extensions>
      </trkpt>
      <trkpt lat="43.83279047906398773193359375" lon="4.2776990868151187896728515625">
        <ele>149</ele>
        <time>2024-01-27T09:32:00.000Z</time>
        <extensions>
          <ns3:TrackPointExtension>
            <ns3:hr>168</ns3:hr>
            <ns3:cad>60</ns3:cad>
          </ns3:TrackPointExtension>
        </extensions>
      </trkpt>
      <trkpt lat="43.83280565030872821807861328125" lon="4.27770067937672138214111328125">
        <ele>149.1999969482421875</ele>
        <time>2024-01-27T09:32:01.000Z</time>
        <extensions>
          <ns3:TrackPointExtension>
            <ns3:hr>167</ns3:hr>
            <ns3:cad>60</ns3:cad>
          </ns3:TrackPointExtension>
        </extensions>
      </trkpt>
      <trkpt lat="43.8328271917998790740966796875" lon="4.2776953987777233123779296875">
        <ele>149.1999969482421875</ele>
        <time>2024-01-27T09:32:02.000Z</time>
        <extensions>
          <ns3:TrackPointExtension>
            <ns3:hr>167</ns3:hr>
            <ns3:cad>60</ns3:cad>
          </ns3:TrackPointExtension>
        </extensions>
      </trkpt>
      <trkpt lat="43.832846470177173614501953125" lon="4.27768995054066181182861328125">
        <ele>149.600006103515625</ele>
        <time>2024-01-27T09:32:03.000Z</time>
        <extensions>
          <ns3:TrackPointExtension>
            <ns3:hr>167</ns3:hr>
            <ns3:cad>60</ns3:cad>
          </ns3:TrackPointExtension>
        </extensions>
      </trkpt>
      <trkpt lat="43.8328634016215801239013671875" lon="4.27768073044717311859130859375">
        <ele>149.600006103515625</ele>
        <time>2024-01-27T09:32:04.000Z</time>
        <extensions>
          <ns3:TrackPointExtension>
            <ns3:hr>167</ns3:hr>
            <ns3:cad>60</ns3:cad>
          </ns3:TrackPointExtension>
        </extensions>
      </trkpt>
      <trkpt lat="43.8328805007040500640869140625" lon="4.27767335437238216400146484375">
        <ele>149.600006103515625</ele>
        <time>2024-01-27T09:32:05.000Z</time>
        <extensions>
          <ns3:TrackPointExtension>
            <ns3:hr>167</ns3:hr>
            <ns3:cad>60</ns3:cad>
          </ns3:TrackPointExtension>
        </extensions>
      </trkpt>
      <trkpt lat="43.83290489204227924346923828125" lon="4.27766480483114719390869140625">
        <ele>149.600006103515625</ele>
        <time>2024-01-27T09:32:06.000Z</time>
        <extensions>
          <ns3:TrackPointExtension>
            <ns3:hr>167</ns3:hr>
            <ns3:cad>88</ns3:cad>
          </ns3:TrackPointExtension>
        </extensions>
      </trkpt>
      <trkpt lat="43.83292249403893947601318359375" lon="4.277657009661197662353515625">
        <ele>149.600006103515625</ele>
        <time>2024-01-27T09:32:07.000Z</time>
        <extensions>
          <ns3:TrackPointExtension>
            <ns3:hr>167</ns3:hr>
            <ns3:cad>88</ns3:cad>
          </ns3:TrackPointExtension>
        </extensions>
      </trkpt>
      <trkpt lat="43.8329475559294223785400390625" lon="4.2776430957019329071044921875">
        <ele>149.600006103515625</ele>
        <time>2024-01-27T09:32:08.000Z</time>
        <extensions>
          <ns3:TrackPointExtension>
            <ns3:hr>166</ns3:hr>
            <ns3:cad>88</ns3:cad>
          </ns3:TrackPointExtension>
        </extensions>
      </trkpt>
      <trkpt lat="43.832967840135097503662109375" lon="4.27763194777071475982666015625">
        <ele>149.399993896484375</ele>
        <time>2024-01-27T09:32:09.000Z</time>
        <extensions>
          <ns3:TrackPointExtension>
            <ns3:hr>166</ns3:hr>
            <ns3:cad>88</ns3:cad>
          </ns3:TrackPointExtension>
        </extensions>
      </trkpt>
      <trkpt lat="43.8329923152923583984375" lon="4.2776192910969257354736328125">
        <ele>149.399993896484375</ele>
        <time>2024-01-27T09:32:10.000Z</time>
        <extensions>
          <ns3:TrackPointExtension>
            <ns3:hr>166</ns3:hr>
            <ns3:cad>88</ns3:cad>
          </ns3:TrackPointExtension>
        </extensions>
      </trkpt>
      <trkpt lat="43.833010755479335784912109375" lon="4.2776097357273101806640625">
        <ele>149</ele>
        <time>2024-01-27T09:32:11.000Z</time>
        <extensions>
          <ns3:TrackPointExtension>
            <ns3:hr>166</ns3:hr>
            <ns3:cad>89</ns3:cad>
          </ns3:TrackPointExtension>
        </extensions>
      </trkpt>
      <trkpt lat="43.83303682319819927215576171875" lon="4.2775924690067768096923828125">
        <ele>148.8000030517578125</ele>
        <time>2024-01-27T09:32:12.000Z</time>
        <extensions>
          <ns3:TrackPointExtension>
            <ns3:hr>166</ns3:hr>
            <ns3:cad>89</ns3:cad>
          </ns3:TrackPointExtension>
        </extensions>
      </trkpt>
      <trkpt lat="43.8330592028796672821044921875" lon="4.27757930941879749298095703125">
        <ele>148.399993896484375</ele>
        <time>2024-01-27T09:32:13.000Z</time>
        <extensions>
          <ns3:TrackPointExtension>
            <ns3:hr>166</ns3:hr>
            <ns3:cad>89</ns3:cad>
          </ns3:TrackPointExtension>
        </extensions>
      </trkpt>
      <trkpt lat="43.8330840133130550384521484375" lon="4.2775663174688816070556640625">
        <ele>148.399993896484375</ele>
        <time>2024-01-27T09:32:14.000Z</time>
        <extensions>
          <ns3:TrackPointExtension>
            <ns3:hr>165</ns3:hr>
            <ns3:cad>90</ns3:cad>
          </ns3:TrackPointExtension>
        </extensions>
      </trkpt>
      <trkpt lat="43.83310521952807903289794921875" lon="4.27755332551896572113037109375">
        <ele>148.1999969482421875</ele>
        <time>2024-01-27T09:32:15.000Z</time>
        <extensions>
          <ns3:TrackPointExtension>
            <ns3:hr>165</ns3:hr>
            <ns3:cad>90</ns3:cad>
          </ns3:TrackPointExtension>
        </extensions>
      </trkpt>
      <trkpt lat="43.8331319577991962432861328125" lon="4.277547039091587066650390625">
        <ele>148</ele>
        <time>2024-01-27T09:32:16.000Z</time>
        <extensions>
          <ns3:TrackPointExtension>
            <ns3:hr>165</ns3:hr>
            <ns3:cad>90</ns3:cad>
          </ns3:TrackPointExtension>
        </extensions>
      </trkpt>
      <trkpt lat="43.83315601386129856109619140625" lon="4.27754200994968414306640625">
        <ele>147.600006103515625</ele>
        <time>2024-01-27T09:32:17.000Z</time>
        <extensions>
          <ns3:TrackPointExtension>
            <ns3:hr>164</ns3:hr>
            <ns3:cad>93</ns3:cad>
          </ns3:TrackPointExtension>
        </extensions>
      </trkpt>
      <trkpt lat="43.83318115957081317901611328125" lon="4.27754192613065242767333984375">
        <ele>147.600006103515625</ele>
        <time>2024-01-27T09:32:18.000Z</time>
        <extensions>
          <ns3:TrackPointExtension>
            <ns3:hr>164</ns3:hr>
            <ns3:cad>93</ns3:cad>
          </ns3:TrackPointExtension>
        </extensions>
      </trkpt>
      <trkpt lat="43.833209574222564697265625" lon="4.2775384895503520965576171875">
        <ele>147.399993896484375</ele>
        <time>2024-01-27T09:32:19.000Z</time>
        <extensions>
          <ns3:TrackPointExtension>
            <ns3:hr>164</ns3:hr>
            <ns3:cad>92</ns3:cad>
          </ns3:TrackPointExtension>
        </extensions>
      </trkpt>
      <trkpt lat="43.83323371410369873046875" lon="4.27753865718841552734375">
        <ele>147.399993896484375</ele>
        <time>2024-01-27T09:32:20.000Z</time>
        <extensions>
          <ns3:TrackPointExtension>
            <ns3:hr>163</ns3:hr>
            <ns3:cad>91</ns3:cad>
          </ns3:TrackPointExtension>
        </extensions>
      </trkpt>
      <trkpt lat="43.83326120674610137939453125" lon="4.27753421477973461151123046875">
        <ele>147.399993896484375</ele>
        <time>2024-01-27T09:32:21.000Z</time>
        <extensions>
          <ns3:TrackPointExtension>
            <ns3:hr>163</ns3:hr>
            <ns3:cad>91</ns3:cad>
          </ns3:TrackPointExtension>
        </extensions>
      </trkpt>
      <trkpt lat="43.833282999694347381591796875" lon="4.277529604732990264892578125">
        <ele>147.1999969482421875</ele>
        <time>2024-01-27T09:32:22.000Z</time>
        <extensions>
          <ns3:TrackPointExtension>
            <ns3:hr>162</ns3:hr>
            <ns3:cad>92</ns3:cad>
          </ns3:TrackPointExtension>
        </extensions>
      </trkpt>
      <trkpt lat="43.83330957032740116119384765625" lon="4.27752197720110416412353515625">
        <ele>147.1999969482421875</ele>
        <time>2024-01-27T09:32:23.000Z</time>
        <extensions>
          <ns3:TrackPointExtension>
            <ns3:hr>162</ns3:hr>
            <ns3:cad>93</ns3:cad>
          </ns3:TrackPointExtension>
        </extensions>
      </trkpt>
      <trkpt lat="43.833332955837249755859375" lon="4.27751476876437664031982421875">
        <ele>147</ele>
        <time>2024-01-27T09:32:24.000Z</time>
        <extensions>
          <ns3:TrackPointExtension>
            <ns3:hr>161</ns3:hr>
            <ns3:cad>93</ns3:cad>
          </ns3:TrackPointExtension>
        </extensions>
      </trkpt>
      <trkpt lat="43.83336069993674755096435546875" lon="4.27750739268958568572998046875">
        <ele>147</ele>
        <time>2024-01-27T09:32:25.000Z</time>
        <extensions>
          <ns3:TrackPointExtension>
            <ns3:hr>160</ns3:hr>
            <ns3:cad>93</ns3:cad>
          </ns3:TrackPointExtension>
        </extensions>
      </trkpt>
      <trkpt lat="43.83338634856045246124267578125" lon="4.2774985916912555694580078125">
        <ele>146.8000030517578125</ele>
        <time>2024-01-27T09:32:26.000Z</time>
        <extensions>
          <ns3:TrackPointExtension>
            <ns3:hr>159</ns3:hr>
            <ns3:cad>93</ns3:cad>
          </ns3:TrackPointExtension>
        </extensions>
      </trkpt>
      <trkpt lat="43.8334139250218868255615234375" lon="4.277488030493259429931640625">
        <ele>146.600006103515625</ele>
        <time>2024-01-27T09:32:27.000Z</time>
        <extensions>
          <ns3:TrackPointExtension>
            <ns3:hr>158</ns3:hr>
            <ns3:cad>93</ns3:cad>
          </ns3:TrackPointExtension>
        </extensions>
      </trkpt>
      <trkpt lat="43.833440579473972320556640625" lon="4.27747453562915325164794921875">
        <ele>146.399993896484375</ele>
        <time>2024-01-27T09:32:28.000Z</time>
        <extensions>
          <ns3:TrackPointExtension>
            <ns3:hr>158</ns3:hr>
            <ns3:cad>93</ns3:cad>
          </ns3:TrackPointExtension>
        </extensions>
      </trkpt>
      <trkpt lat="43.83346480317413806915283203125" lon="4.27746850065886974334716796875">
        <ele>146.1999969482421875</ele>
        <time>2024-01-27T09:32:29.000Z</time>
        <extensions>
          <ns3:TrackPointExtension>
            <ns3:hr>157</ns3:hr>
            <ns3:cad>93</ns3:cad>
          </ns3:TrackPointExtension>
        </extensions>
      </trkpt>
      <trkpt lat="43.833488523960113525390625" lon="4.2774603702127933502197265625">
        <ele>146.1999969482421875</ele>
        <time>2024-01-27T09:32:30.000Z</time>
        <extensions>
          <ns3:TrackPointExtension>
            <ns3:hr>157</ns3:hr>
            <ns3:cad>93</ns3:cad>
          </ns3:TrackPointExtension>
        </extensions>
      </trkpt>
      <trkpt lat="43.83351542986929416656494140625" lon="4.277455508708953857421875">
        <ele>146.1999969482421875</ele>
        <time>2024-01-27T09:32:31.000Z</time>
        <extensions>
          <ns3:TrackPointExtension>
            <ns3:hr>157</ns3:hr>
            <ns3:cad>93</ns3:cad>
          </ns3:TrackPointExtension>
        </extensions>
      </trkpt>
      <trkpt lat="43.833545856177806854248046875" lon="4.27744687534868717193603515625">
        <ele>146.1999969482421875</ele>
        <time>2024-01-27T09:32:32.000Z</time>
        <extensions>
          <ns3:TrackPointExtension>
            <ns3:hr>158</ns3:hr>
            <ns3:cad>93</ns3:cad>
          </ns3:TrackPointExtension>
        </extensions>
      </trkpt>
      <trkpt lat="43.8335703313350677490234375" lon="4.27743899635970592498779296875">
        <ele>146.1999969482421875</ele>
        <time>2024-01-27T09:32:33.000Z</time>
        <extensions>
          <ns3:TrackPointExtension>
            <ns3:hr>158</ns3:hr>
            <ns3:cad>93</ns3:cad>
          </ns3:TrackPointExtension>
        </extensions>
      </trkpt>
      <trkpt lat="43.833601176738739013671875" lon="4.277428686618804931640625">
        <ele>146.1999969482421875</ele>
        <time>2024-01-27T09:32:34.000Z</time>
        <extensions>
          <ns3:TrackPointExtension>
            <ns3:hr>159</ns3:hr>
            <ns3:cad>92</ns3:cad>
          </ns3:TrackPointExtension>
        </extensions>
      </trkpt>
      <trkpt lat="43.833622969686985015869140625" lon="4.27742089144885540008544921875">
        <ele>146.1999969482421875</ele>
        <time>2024-01-27T09:32:35.000Z</time>
        <extensions>
          <ns3:TrackPointExtension>
            <ns3:hr>159</ns3:hr>
            <ns3:cad>92</ns3:cad>
          </ns3:TrackPointExtension>
        </extensions>
      </trkpt>
      <trkpt lat="43.83364903740584850311279296875" lon="4.27740898914635181427001953125">
        <ele>146</ele>
        <time>2024-01-27T09:32:36.000Z</time>
        <extensions>
          <ns3:TrackPointExtension>
            <ns3:hr>159</ns3:hr>
            <ns3:cad>92</ns3:cad>
          </ns3:TrackPointExtension>
        </extensions>
      </trkpt>
      <trkpt lat="43.83367015980184078216552734375" lon="4.277396835386753082275390625">
        <ele>146</ele>
        <time>2024-01-27T09:32:37.000Z</time>
        <extensions>
          <ns3:TrackPointExtension>
            <ns3:hr>159</ns3:hr>
            <ns3:cad>94</ns3:cad>
          </ns3:TrackPointExtension>
        </extensions>
      </trkpt>
      <trkpt lat="43.8336935453116893768310546875" lon="4.27738518454134464263916015625">
        <ele>146</ele>
        <time>2024-01-27T09:32:38.000Z</time>
        <extensions>
          <ns3:TrackPointExtension>
            <ns3:hr>159</ns3:hr>
            <ns3:cad>94</ns3:cad>
          </ns3:TrackPointExtension>
        </extensions>
      </trkpt>
      <trkpt lat="43.83371424861252307891845703125" lon="4.277368672192096710205078125">
        <ele>146</ele>
        <time>2024-01-27T09:32:39.000Z</time>
        <extensions>
          <ns3:TrackPointExtension>
            <ns3:hr>159</ns3:hr>
            <ns3:cad>94</ns3:cad>
          </ns3:TrackPointExtension>
        </extensions>
      </trkpt>
      <trkpt lat="43.83373604156076908111572265625" lon="4.277351908385753631591796875">
        <ele>146</ele>
        <time>2024-01-27T09:32:40.000Z</time>
        <extensions>
          <ns3:TrackPointExtension>
            <ns3:hr>158</ns3:hr>
            <ns3:cad>92</ns3:cad>
          </ns3:TrackPointExtension>
        </extensions>
      </trkpt>
      <trkpt lat="43.8337582536041736602783203125" lon="4.27733371965587139129638671875">
        <ele>146</ele>
        <time>2024-01-27T09:32:41.000Z</time>
        <extensions>
          <ns3:TrackPointExtension>
            <ns3:hr>158</ns3:hr>
            <ns3:cad>92</ns3:cad>
          </ns3:TrackPointExtension>
        </extensions>
      </trkpt>
      <trkpt lat="43.8337803818285465240478515625" lon="4.27731879986822605133056640625">
        <ele>146</ele>
        <time>2024-01-27T09:32:42.000Z</time>
        <extensions>
          <ns3:TrackPointExtension>
            <ns3:hr>159</ns3:hr>
            <ns3:cad>92</ns3:cad>
          </ns3:TrackPointExtension>
        </extensions>
      </trkpt>
      <trkpt lat="43.8338058628141880035400390625" lon="4.2773014493286609649658203125">
        <ele>146</ele>
        <time>2024-01-27T09:32:43.000Z</time>
        <extensions>
          <ns3:TrackPointExtension>
            <ns3:hr>158</ns3:hr>
            <ns3:cad>92</ns3:cad>
          </ns3:TrackPointExtension>
        </extensions>
      </trkpt>
      <trkpt lat="43.83382656611502170562744140625" lon="4.27729113958775997161865234375">
        <ele>146</ele>
        <time>2024-01-27T09:32:44.000Z</time>
        <extensions>
          <ns3:TrackPointExtension>
            <ns3:hr>158</ns3:hr>
            <ns3:cad>92</ns3:cad>
          </ns3:TrackPointExtension>
        </extensions>
      </trkpt>
      <trkpt lat="43.83385137654840946197509765625" lon="4.27727923728525638580322265625">
        <ele>146.1999969482421875</ele>
        <time>2024-01-27T09:32:45.000Z</time>
        <extensions>
          <ns3:TrackPointExtension>
            <ns3:hr>158</ns3:hr>
            <ns3:cad>94</ns3:cad>
          </ns3:TrackPointExtension>
        </extensions>
      </trkpt>
      <trkpt lat="43.83386998437345027923583984375" lon="4.2772690951824188232421875">
        <ele>146.1999969482421875</ele>
        <time>2024-01-27T09:32:46.000Z</time>
        <extensions>
          <ns3:TrackPointExtension>
            <ns3:hr>158</ns3:hr>
            <ns3:cad>94</ns3:cad>
          </ns3:TrackPointExtension>
        </extensions>
      </trkpt>
      <trkpt lat="43.8338937051594257354736328125" lon="4.27725660614669322967529296875">
        <ele>146.1999969482421875</ele>
        <time>2024-01-27T09:32:47.000Z</time>
        <extensions>
          <ns3:TrackPointExtension>
            <ns3:hr>158</ns3:hr>
            <ns3:cad>94</ns3:cad>
          </ns3:TrackPointExtension>
        </extensions>
      </trkpt>
      <trkpt lat="43.83391574956476688385009765625" lon="4.27724403329193592071533203125">
        <ele>146.1999969482421875</ele>
        <time>2024-01-27T09:32:48.000Z</time>
        <extensions>
          <ns3:TrackPointExtension>
            <ns3:hr>158</ns3:hr>
            <ns3:cad>94</ns3:cad>
          </ns3:TrackPointExtension>
        </extensions>
      </trkpt>
      <trkpt lat="43.8339416496455669403076171875" lon="4.27723196335136890411376953125">
        <ele>146.399993896484375</ele>
        <time>2024-01-27T09:32:49.000Z</time>
        <extensions>
          <ns3:TrackPointExtension>
            <ns3:hr>158</ns3:hr>
            <ns3:cad>92</ns3:cad>
          </ns3:TrackPointExtension>
        </extensions>
      </trkpt>
      <trkpt lat="43.83396520279347896575927734375" lon="4.27721804939210414886474609375">
        <ele>146.399993896484375</ele>
        <time>2024-01-27T09:32:50.000Z</time>
        <extensions>
          <ns3:TrackPointExtension>
            <ns3:hr>158</ns3:hr>
            <ns3:cad>92</ns3:cad>
          </ns3:TrackPointExtension>
        </extensions>
      </trkpt>
      <trkpt lat="43.8339865766465663909912109375" lon="4.277206398546695709228515625">
        <ele>146.399993896484375</ele>
        <time>2024-01-27T09:32:51.000Z</time>
        <extensions>
          <ns3:TrackPointExtension>
            <ns3:hr>158</ns3:hr>
            <ns3:cad>92</ns3:cad>
          </ns3:TrackPointExtension>
        </extensions>
      </trkpt>
      <trkpt lat="43.83401012979447841644287109375" lon="4.2771918140351772308349609375">
        <ele>146.600006103515625</ele>
        <time>2024-01-27T09:32:52.000Z</time>
        <extensions>
          <ns3:TrackPointExtension>
            <ns3:hr>159</ns3:hr>
            <ns3:cad>92</ns3:cad>
          </ns3:TrackPointExtension>
        </extensions>
      </trkpt>
      <trkpt lat="43.83402957580983638763427734375" lon="4.2771752178668975830078125">
        <ele>146.600006103515625</ele>
        <time>2024-01-27T09:32:53.000Z</time>
        <extensions>
          <ns3:TrackPointExtension>
            <ns3:hr>159</ns3:hr>
            <ns3:cad>94</ns3:cad>
          </ns3:TrackPointExtension>
        </extensions>
      </trkpt>
      <trkpt lat="43.834057487547397613525390625" lon="4.277155101299285888671875">
        <ele>146.600006103515625</ele>
        <time>2024-01-27T09:32:54.000Z</time>
        <extensions>
          <ns3:TrackPointExtension>
            <ns3:hr>159</ns3:hr>
            <ns3:cad>94</ns3:cad>
          </ns3:TrackPointExtension>
        </extensions>
      </trkpt>
      <trkpt lat="43.8340784423053264617919921875" lon="4.277140013873577117919921875">
        <ele>146.600006103515625</ele>
        <time>2024-01-27T09:32:55.000Z</time>
        <extensions>
          <ns3:TrackPointExtension>
            <ns3:hr>159</ns3:hr>
            <ns3:cad>94</ns3:cad>
          </ns3:TrackPointExtension>
        </extensions>
      </trkpt>
      <trkpt lat="43.8341035880148410797119140625" lon="4.27712668664753437042236328125">
        <ele>146.600006103515625</ele>
        <time>2024-01-27T09:32:56.000Z</time>
        <extensions>
          <ns3:TrackPointExtension>
            <ns3:hr>159</ns3:hr>
            <ns3:cad>94</ns3:cad>
          </ns3:TrackPointExtension>
        </extensions>
      </trkpt>
      <trkpt lat="43.83412219583988189697265625" lon="4.27711143158376216888427734375">
        <ele>146.600006103515625</ele>
        <time>2024-01-27T09:32:57.000Z</time>
        <extensions>
          <ns3:TrackPointExtension>
            <ns3:hr>159</ns3:hr>
            <ns3:cad>94</ns3:cad>
          </ns3:TrackPointExtension>
        </extensions>
      </trkpt>
      <trkpt lat="43.83414709009230136871337890625" lon="4.2770989425480365753173828125">
        <ele>146.600006103515625</ele>
        <time>2024-01-27T09:32:58.000Z</time>
        <extensions>
          <ns3:TrackPointExtension>
            <ns3:hr>159</ns3:hr>
            <ns3:cad>94</ns3:cad>
          </ns3:TrackPointExtension>
        </extensions>
      </trkpt>
      <trkpt lat="43.83416586555540561676025390625" lon="4.2770828492939472198486328125">
        <ele>146.8000030517578125</ele>
        <time>2024-01-27T09:32:59.000Z</time>
        <extensions>
          <ns3:TrackPointExtension>
            <ns3:hr>159</ns3:hr>
            <ns3:cad>94</ns3:cad>
          </ns3:TrackPointExtension>
        </extensions>
      </trkpt>
      <trkpt lat="43.83418782614171504974365234375" lon="4.27707421593368053436279296875">
        <ele>146.8000030517578125</ele>
        <time>2024-01-27T09:33:00.000Z</time>
        <extensions>
          <ns3:TrackPointExtension>
            <ns3:hr>159</ns3:hr>
            <ns3:cad>94</ns3:cad>
          </ns3:TrackPointExtension>
        </extensions>
      </trkpt>
      <trkpt lat="43.834213055670261383056640625" lon="4.27705946378409862518310546875">
        <ele>146.8000030517578125</ele>
        <time>2024-01-27T09:33:01.000Z</time>
        <extensions>
          <ns3:TrackPointExtension>
            <ns3:hr>159</ns3:hr>
            <ns3:cad>91</ns3:cad>
          </ns3:TrackPointExtension>
        </extensions>
      </trkpt>
      <trkpt lat="43.83423375897109508514404296875" lon="4.27704638801515102386474609375">
        <ele>146.8000030517578125</ele>
        <time>2024-01-27T09:33:02.000Z</time>
        <extensions>
          <ns3:TrackPointExtension>
            <ns3:hr>159</ns3:hr>
            <ns3:cad>91</ns3:cad>
          </ns3:TrackPointExtension>
        </extensions>
      </trkpt>
      <trkpt lat="43.834257982671260833740234375" lon="4.27702878601849079132080078125">
        <ele>146.8000030517578125</ele>
        <time>2024-01-27T09:33:03.000Z</time>
        <extensions>
          <ns3:TrackPointExtension>
            <ns3:hr>159</ns3:hr>
            <ns3:cad>92</ns3:cad>
          </ns3:TrackPointExtension>
        </extensions>
      </trkpt>
      <trkpt lat="43.83427734486758708953857421875" lon="4.27701084874570369720458984375">
        <ele>146.8000030517578125</ele>
        <time>2024-01-27T09:33:04.000Z</time>
        <extensions>
          <ns3:TrackPointExtension>
            <ns3:hr>159</ns3:hr>
            <ns3:cad>92</ns3:cad>
          </ns3:TrackPointExtension>
        </extensions>
      </trkpt>
      <trkpt lat="43.83430282585322856903076171875" lon="4.276994504034519195556640625">
        <ele>146.8000030517578125</ele>
        <time>2024-01-27T09:33:05.000Z</time>
        <extensions>
          <ns3:TrackPointExtension>
            <ns3:hr>159</ns3:hr>
            <ns3:cad>93</ns3:cad>
          </ns3:TrackPointExtension>
        </extensions>
      </trkpt>
      <trkpt lat="43.83432428352534770965576171875" lon="4.27698469720780849456787109375">
        <ele>147</ele>
        <time>2024-01-27T09:33:06.000Z</time>
        <extensions>
          <ns3:TrackPointExtension>
            <ns3:hr>159</ns3:hr>
            <ns3:cad>93</ns3:cad>
          </ns3:TrackPointExtension>
        </extensions>
      </trkpt>
      <trkpt lat="43.83434792049229145050048828125" lon="4.27697732113301753997802734375">
        <ele>147</ele>
        <time>2024-01-27T09:33:07.000Z</time>
        <extensions>
          <ns3:TrackPointExtension>
            <ns3:hr>159</ns3:hr>
            <ns3:cad>93</ns3:cad>
          </ns3:TrackPointExtension>
        </extensions>
      </trkpt>
      <trkpt lat="43.83437088690698146820068359375" lon="4.276972375810146331787109375">
        <ele>147</ele>
        <time>2024-01-27T09:33:08.000Z</time>
        <extensions>
          <ns3:TrackPointExtension>
            <ns3:hr>159</ns3:hr>
            <ns3:cad>93</ns3:cad>
          </ns3:TrackPointExtension>
        </extensions>
      </trkpt>
      <trkpt lat="43.83439653553068637847900390625" lon="4.27697916515171527862548828125">
        <ele>147</ele>
        <time>2024-01-27T09:33:09.000Z</time>
        <extensions>
          <ns3:TrackPointExtension>
            <ns3:hr>159</ns3:hr>
            <ns3:cad>93</ns3:cad>
          </ns3:TrackPointExtension>
        </extensions>
      </trkpt>
      <trkpt lat="43.83442285470664501190185546875" lon="4.2769792489707469940185546875">
        <ele>147</ele>
        <time>2024-01-27T09:33:10.000Z</time>
        <extensions>
          <ns3:TrackPointExtension>
            <ns3:hr>159</ns3:hr>
            <ns3:cad>93</ns3:cad>
          </ns3:TrackPointExtension>
        </extensions>
      </trkpt>
      <trkpt lat="43.83444850333034992218017578125" lon="4.2769826017320156097412109375">
        <ele>147.1999969482421875</ele>
        <time>2024-01-27T09:33:11.000Z</time>
        <extensions>
          <ns3:TrackPointExtension>
            <ns3:hr>159</ns3:hr>
            <ns3:cad>94</ns3:cad>
          </ns3:TrackPointExtension>
        </extensions>
      </trkpt>
      <trkpt lat="43.83447515778243541717529296875" lon="4.276984445750713348388671875">
        <ele>147.399993896484375</ele>
        <time>2024-01-27T09:33:12.000Z</time>
        <extensions>
          <ns3:TrackPointExtension>
            <ns3:hr>159</ns3:hr>
            <ns3:cad>94</ns3:cad>
          </ns3:TrackPointExtension>
        </extensions>
      </trkpt>
      <trkpt lat="43.834497034549713134765625" lon="4.27698184736073017120361328125">
        <ele>147.399993896484375</ele>
        <time>2024-01-27T09:33:13.000Z</time>
        <extensions>
          <ns3:TrackPointExtension>
            <ns3:hr>159</ns3:hr>
            <ns3:cad>92</ns3:cad>
          </ns3:TrackPointExtension>
        </extensions>
      </trkpt>
      <trkpt lat="43.8345260359346866607666015625" lon="4.27697480656206607818603515625">
        <ele>147.600006103515625</ele>
        <time>2024-01-27T09:33:14.000Z</time>
        <extensions>
          <ns3:TrackPointExtension>
            <ns3:hr>158</ns3:hr>
            <ns3:cad>92</ns3:cad>
          </ns3:TrackPointExtension>
        </extensions>
      </trkpt>
      <trkpt lat="43.8345495052635669708251953125" lon="4.276964664459228515625">
        <ele>147.8000030517578125</ele>
        <time>2024-01-27T09:33:15.000Z</time>
        <extensions>
          <ns3:TrackPointExtension>
            <ns3:hr>158</ns3:hr>
            <ns3:cad>92</ns3:cad>
          </ns3:TrackPointExtension>
        </extensions>
      </trkpt>
      <trkpt lat="43.83457481861114501953125" lon="4.27695452235639095306396484375">
        <ele>147.8000030517578125</ele>
        <time>2024-01-27T09:33:16.000Z</time>
        <extensions>
          <ns3:TrackPointExtension>
            <ns3:hr>158</ns3:hr>
            <ns3:cad>94</ns3:cad>
          </ns3:TrackPointExtension>
        </extensions>
      </trkpt>
      <trkpt lat="43.8345934264361858367919921875" lon="4.276943542063236236572265625">
        <ele>148</ele>
        <time>2024-01-27T09:33:17.000Z</time>
        <extensions>
          <ns3:TrackPointExtension>
            <ns3:hr>158</ns3:hr>
            <ns3:cad>94</ns3:cad>
          </ns3:TrackPointExtension>
        </extensions>
      </trkpt>
      <trkpt lat="43.8346162252128124237060546875" lon="4.27693105302751064300537109375">
        <ele>148</ele>
        <time>2024-01-27T09:33:18.000Z</time>
        <extensions>
          <ns3:TrackPointExtension>
            <ns3:hr>158</ns3:hr>
            <ns3:cad>92</ns3:cad>
          </ns3:TrackPointExtension>
        </extensions>
      </trkpt>
      <trkpt lat="43.83463852107524871826171875" lon="4.276915378868579864501953125">
        <ele>148.1999969482421875</ele>
        <time>2024-01-27T09:33:19.000Z</time>
        <extensions>
          <ns3:TrackPointExtension>
            <ns3:hr>158</ns3:hr>
            <ns3:cad>92</ns3:cad>
          </ns3:TrackPointExtension>
        </extensions>
      </trkpt>
      <trkpt lat="43.83465838618576526641845703125" lon="4.2768989503383636474609375">
        <ele>148.399993896484375</ele>
        <time>2024-01-27T09:33:20.000Z</time>
        <extensions>
          <ns3:TrackPointExtension>
            <ns3:hr>158</ns3:hr>
            <ns3:cad>92</ns3:cad>
          </ns3:TrackPointExtension>
        </extensions>
      </trkpt>
      <trkpt lat="43.83468068204820156097412109375" lon="4.276877157390117645263671875">
        <ele>148.399993896484375</ele>
        <time>2024-01-27T09:33:21.000Z</time>
        <extensions>
          <ns3:TrackPointExtension>
            <ns3:hr>158</ns3:hr>
            <ns3:cad>94</ns3:cad>
          </ns3:TrackPointExtension>
        </extensions>
      </trkpt>
      <trkpt lat="43.8346946798264980316162109375" lon="4.27686265669763088226318359375">
        <ele>148.600006103515625</ele>
        <time>2024-01-27T09:33:22.000Z</time>
        <extensions>
          <ns3:TrackPointExtension>
            <ns3:hr>158</ns3:hr>
            <ns3:cad>94</ns3:cad>
          </ns3:TrackPointExtension>
        </extensions>
      </trkpt>
      <trkpt lat="43.8347141258418560028076171875" lon="4.27683885209262371063232421875">
        <ele>148.600006103515625</ele>
        <time>2024-01-27T09:33:23.000Z</time>
        <extensions>
          <ns3:TrackPointExtension>
            <ns3:hr>158</ns3:hr>
            <ns3:cad>94</ns3:cad>
          </ns3:TrackPointExtension>
        </extensions>
      </trkpt>
      <trkpt lat="43.83472745306789875030517578125" lon="4.2768189869821071624755859375">
        <ele>148.600006103515625</ele>
        <time>2024-01-27T09:33:24.000Z</time>
        <extensions>
          <ns3:TrackPointExtension>
            <ns3:hr>158</ns3:hr>
            <ns3:cad>92</ns3:cad>
          </ns3:TrackPointExtension>
        </extensions>
      </trkpt>
      <trkpt lat="43.8347453065216541290283203125" lon="4.276797361671924591064453125">
        <ele>148.600006103515625</ele>
        <time>2024-01-27T09:33:25.000Z</time>
        <extensions>
          <ns3:TrackPointExtension>
            <ns3:hr>158</ns3:hr>
            <ns3:cad>92</ns3:cad>
          </ns3:TrackPointExtension>
        </extensions>
      </trkpt>
      <trkpt lat="43.83475880138576030731201171875" lon="4.27677531726658344268798828125">
        <ele>148.8000030517578125</ele>
        <time>2024-01-27T09:33:26.000Z</time>
        <extensions>
          <ns3:TrackPointExtension>
            <ns3:hr>159</ns3:hr>
            <ns3:cad>94</ns3:cad>
          </ns3:TrackPointExtension>
        </extensions>
      </trkpt>
      <trkpt lat="43.83477623574435710906982421875" lon="4.27674933336675167083740234375">
        <ele>148.8000030517578125</ele>
        <time>2024-01-27T09:33:27.000Z</time>
        <extensions>
          <ns3:TrackPointExtension>
            <ns3:hr>159</ns3:hr>
            <ns3:cad>94</ns3:cad>
          </ns3:TrackPointExtension>
        </extensions>
      </trkpt>
      <trkpt lat="43.83479283191263675689697265625" lon="4.27672418765723705291748046875">
        <ele>148.8000030517578125</ele>
        <time>2024-01-27T09:33:28.000Z</time>
        <extensions>
          <ns3:TrackPointExtension>
            <ns3:hr>158</ns3:hr>
            <ns3:cad>94</ns3:cad>
          </ns3:TrackPointExtension>
        </extensions>
      </trkpt>
      <trkpt lat="43.83481009863317012786865234375" lon="4.2766956053674221038818359375">
        <ele>148.8000030517578125</ele>
        <time>2024-01-27T09:33:29.000Z</time>
        <extensions>
          <ns3:TrackPointExtension>
            <ns3:hr>158</ns3:hr>
            <ns3:cad>94</ns3:cad>
          </ns3:TrackPointExtension>
        </extensions>
      </trkpt>
      <trkpt lat="43.83482803590595722198486328125" lon="4.27666618488729000091552734375">
        <ele>148.8000030517578125</ele>
        <time>2024-01-27T09:33:30.000Z</time>
        <extensions>
          <ns3:TrackPointExtension>
            <ns3:hr>158</ns3:hr>
            <ns3:cad>94</ns3:cad>
          </ns3:TrackPointExtension>
        </extensions>
      </trkpt>
      <trkpt lat="43.83484496735036373138427734375" lon="4.2766414582729339599609375">
        <ele>148.8000030517578125</ele>
        <time>2024-01-27T09:33:31.000Z</time>
        <extensions>
          <ns3:TrackPointExtension>
            <ns3:hr>158</ns3:hr>
            <ns3:cad>94</ns3:cad>
          </ns3:TrackPointExtension>
        </extensions>
      </trkpt>
      <trkpt lat="43.83486877195537090301513671875" lon="4.27661438472568988800048828125">
        <ele>149</ele>
        <time>2024-01-27T09:33:32.000Z</time>
        <extensions>
          <ns3:TrackPointExtension>
            <ns3:hr>158</ns3:hr>
            <ns3:cad>92</ns3:cad>
          </ns3:TrackPointExtension>
        </extensions>
      </trkpt>
      <trkpt lat="43.8348864577710628509521484375" lon="4.276596195995807647705078125">
        <ele>149</ele>
        <time>2024-01-27T09:33:33.000Z</time>
        <extensions>
          <ns3:TrackPointExtension>
            <ns3:hr>158</ns3:hr>
            <ns3:cad>91</ns3:cad>
          </ns3:TrackPointExtension>
        </extensions>
      </trkpt>
      <trkpt lat="43.83491076529026031494140625" lon="4.2765702120959758758544921875">
        <ele>149</ele>
        <time>2024-01-27T09:33:34.000Z</time>
        <extensions>
          <ns3:TrackPointExtension>
            <ns3:hr>158</ns3:hr>
            <ns3:cad>91</ns3:cad>
          </ns3:TrackPointExtension>
        </extensions>
      </trkpt>
      <trkpt lat="43.83493096567690372467041015625" lon="4.27654833532869815826416015625">
        <ele>149</ele>
        <time>2024-01-27T09:33:35.000Z</time>
        <extensions>
          <ns3:TrackPointExtension>
            <ns3:hr>158</ns3:hr>
            <ns3:cad>92</ns3:cad>
          </ns3:TrackPointExtension>
        </extensions>
      </trkpt>
      <trkpt lat="43.83495510555803775787353515625" lon="4.2765222676098346710205078125">
        <ele>149</ele>
        <time>2024-01-27T09:33:36.000Z</time>
        <extensions>
          <ns3:TrackPointExtension>
            <ns3:hr>158</ns3:hr>
            <ns3:cad>92</ns3:cad>
          </ns3:TrackPointExtension>
        </extensions>
      </trkpt>
      <trkpt lat="43.83497421629726886749267578125" lon="4.27649687044322490692138671875">
        <ele>149.1999969482421875</ele>
        <time>2024-01-27T09:33:37.000Z</time>
        <extensions>
          <ns3:TrackPointExtension>
            <ns3:hr>158</ns3:hr>
            <ns3:cad>94</ns3:cad>
          </ns3:TrackPointExtension>
        </extensions>
      </trkpt>
      <trkpt lat="43.83499735035002231597900390625" lon="4.27647222764790058135986328125">
        <ele>149.1999969482421875</ele>
        <time>2024-01-27T09:33:38.000Z</time>
        <extensions>
          <ns3:TrackPointExtension>
            <ns3:hr>158</ns3:hr>
            <ns3:cad>94</ns3:cad>
          </ns3:TrackPointExtension>
        </extensions>
      </trkpt>
      <trkpt lat="43.83501763455569744110107421875" lon="4.2764454893767833709716796875">
        <ele>149.1999969482421875</ele>
        <time>2024-01-27T09:33:39.000Z</time>
        <extensions>
          <ns3:TrackPointExtension>
            <ns3:hr>159</ns3:hr>
            <ns3:cad>93</ns3:cad>
          </ns3:TrackPointExtension>
        </extensions>
      </trkpt>
      <trkpt lat="43.83504462428390979766845703125" lon="4.2764297313988208770751953125">
        <ele>149.399993896484375</ele>
        <time>2024-01-27T09:33:40.000Z</time>
        <extensions>
          <ns3:TrackPointExtension>
            <ns3:hr>159</ns3:hr>
            <ns3:cad>92</ns3:cad>
          </ns3:TrackPointExtension>
        </extensions>
      </trkpt>
      <trkpt lat="43.8350670039653778076171875" lon="4.27641414105892181396484375">
        <ele>149.399993896484375</ele>
        <time>2024-01-27T09:33:41.000Z</time>
        <extensions>
          <ns3:TrackPointExtension>
            <ns3:hr>159</ns3:hr>
            <ns3:cad>92</ns3:cad>
          </ns3:TrackPointExtension>
        </extensions>
      </trkpt>
      <trkpt lat="43.8350896351039409637451171875" lon="4.2763992212712764739990234375">
        <ele>149.399993896484375</ele>
        <time>2024-01-27T09:33:42.000Z</time>
        <extensions>
          <ns3:TrackPointExtension>
            <ns3:hr>159</ns3:hr>
            <ns3:cad>94</ns3:cad>
          </ns3:TrackPointExtension>
        </extensions>
      </trkpt>
      <trkpt lat="43.83511754684150218963623046875" lon="4.2763834632933139801025390625">
        <ele>149.399993896484375</ele>
        <time>2024-01-27T09:33:43.000Z</time>
        <extensions>
          <ns3:TrackPointExtension>
            <ns3:hr>159</ns3:hr>
            <ns3:cad>94</ns3:cad>
          </ns3:TrackPointExtension>
        </extensions>
      </trkpt>
      <trkpt lat="43.83514101617038249969482421875" lon="4.2763745784759521484375">
        <ele>149.399993896484375</ele>
        <time>2024-01-27T09:33:44.000Z</time>
        <extensions>
          <ns3:TrackPointExtension>
            <ns3:hr>160</ns3:hr>
            <ns3:cad>94</ns3:cad>
          </ns3:TrackPointExtension>
        </extensions>
      </trkpt>
      <trkpt lat="43.8351689279079437255859375" lon="4.2763626761734485626220703125">
        <ele>149.1999969482421875</ele>
        <time>2024-01-27T09:33:45.000Z</time>
        <extensions>
          <ns3:TrackPointExtension>
            <ns3:hr>160</ns3:hr>
            <ns3:cad>93</ns3:cad>
          </ns3:TrackPointExtension>
        </extensions>
      </trkpt>
      <trkpt lat="43.83519365452229976654052734375" lon="4.2763502709567546844482421875">
        <ele>149.1999969482421875</ele>
        <time>2024-01-27T09:33:46.000Z</time>
        <extensions>
          <ns3:TrackPointExtension>
            <ns3:hr>160</ns3:hr>
            <ns3:cad>93</ns3:cad>
          </ns3:TrackPointExtension>
        </extensions>
      </trkpt>
      <trkpt lat="43.83522299118340015411376953125" lon="4.27633635699748992919921875">
        <ele>149</ele>
        <time>2024-01-27T09:33:47.000Z</time>
        <extensions>
          <ns3:TrackPointExtension>
            <ns3:hr>160</ns3:hr>
            <ns3:cad>93</ns3:cad>
          </ns3:TrackPointExtension>
        </extensions>
      </trkpt>
      <trkpt lat="43.83524646051228046417236328125" lon="4.27632152102887630462646484375">
        <ele>149</ele>
        <time>2024-01-27T09:33:48.000Z</time>
        <extensions>
          <ns3:TrackPointExtension>
            <ns3:hr>160</ns3:hr>
            <ns3:cad>93</ns3:cad>
          </ns3:TrackPointExtension>
        </extensions>
      </trkpt>
      <trkpt lat="43.835273198783397674560546875" lon="4.2763066850602626800537109375">
        <ele>148.8000030517578125</ele>
        <time>2024-01-27T09:33:49.000Z</time>
        <extensions>
          <ns3:TrackPointExtension>
            <ns3:hr>160</ns3:hr>
            <ns3:cad>93</ns3:cad>
          </ns3:TrackPointExtension>
        </extensions>
      </trkpt>
      <trkpt lat="43.83529457263648509979248046875" lon="4.27628916688263416290283203125">
        <ele>148.600006103515625</ele>
        <time>2024-01-27T09:33:50.000Z</time>
        <extensions>
          <ns3:TrackPointExtension>
            <ns3:hr>160</ns3:hr>
            <ns3:cad>93</ns3:cad>
          </ns3:TrackPointExtension>
        </extensions>
      </trkpt>
      <trkpt lat="43.83531888015568256378173828125" lon="4.27627156488597393035888671875">
        <ele>148.399993896484375</ele>
        <time>2024-01-27T09:33:51.000Z</time>
        <extensions>
          <ns3:TrackPointExtension>
            <ns3:hr>161</ns3:hr>
            <ns3:cad>93</ns3:cad>
          </ns3:TrackPointExtension>
        </extensions>
      </trkpt>
      <trkpt lat="43.83533581160008907318115234375" lon="4.27625345997512340545654296875">
        <ele>148.399993896484375</ele>
        <time>2024-01-27T09:33:52.000Z</time>
        <extensions>
          <ns3:TrackPointExtension>
            <ns3:hr>161</ns3:hr>
            <ns3:cad>93</ns3:cad>
          </ns3:TrackPointExtension>
        </extensions>
      </trkpt>
      <trkpt lat="43.83536179549992084503173828125" lon="4.276232756674289703369140625">
        <ele>148.1999969482421875</ele>
        <time>2024-01-27T09:33:53.000Z</time>
        <extensions>
          <ns3:TrackPointExtension>
            <ns3:hr>161</ns3:hr>
            <ns3:cad>93</ns3:cad>
          </ns3:TrackPointExtension>
        </extensions>
      </trkpt>
      <trkpt lat="43.8353806547820568084716796875" lon="4.27621155045926570892333984375">
        <ele>148.1999969482421875</ele>
        <time>2024-01-27T09:33:54.000Z</time>
        <extensions>
          <ns3:TrackPointExtension>
            <ns3:hr>161</ns3:hr>
            <ns3:cad>92</ns3:cad>
          </ns3:TrackPointExtension>
        </extensions>
      </trkpt>
      <trkpt lat="43.83540253154933452606201171875" lon="4.276193194091320037841796875">
        <ele>148</ele>
        <time>2024-01-27T09:33:55.000Z</time>
        <extensions>
          <ns3:TrackPointExtension>
            <ns3:hr>161</ns3:hr>
            <ns3:cad>92</ns3:cad>
          </ns3:TrackPointExtension>
        </extensions>
      </trkpt>
      <trkpt lat="43.8354232348501682281494140625" lon="4.27617366425693035125732421875">
        <ele>148</ele>
        <time>2024-01-27T09:33:56.000Z</time>
        <extensions>
          <ns3:TrackPointExtension>
            <ns3:hr>161</ns3:hr>
            <ns3:cad>91</ns3:cad>
          </ns3:TrackPointExtension>
        </extensions>
      </trkpt>
      <trkpt lat="43.83544997312128543853759765625" lon="4.27615220658481121063232421875">
        <ele>148</ele>
        <time>2024-01-27T09:33:57.000Z</time>
        <extensions>
          <ns3:TrackPointExtension>
            <ns3:hr>161</ns3:hr>
            <ns3:cad>90</ns3:cad>
          </ns3:TrackPointExtension>
        </extensions>
      </trkpt>
      <trkpt lat="43.8354745320975780487060546875" lon="4.27612789906561374664306640625">
        <ele>148</ele>
        <time>2024-01-27T09:33:58.000Z</time>
        <extensions>
          <ns3:TrackPointExtension>
            <ns3:hr>161</ns3:hr>
            <ns3:cad>90</ns3:cad>
          </ns3:TrackPointExtension>
        </extensions>
      </trkpt>
      <trkpt lat="43.83550395257771015167236328125" lon="4.276107363402843475341796875">
        <ele>147.8000030517578125</ele>
        <time>2024-01-27T09:33:59.000Z</time>
        <extensions>
          <ns3:TrackPointExtension>
            <ns3:hr>161</ns3:hr>
            <ns3:cad>90</ns3:cad>
          </ns3:TrackPointExtension>
        </extensions>
      </trkpt>
      <trkpt lat="43.83552675135433673858642578125" lon="4.27608565427362918853759765625">
        <ele>147.8000030517578125</ele>
        <time>2024-01-27T09:34:00.000Z</time>
        <extensions>
          <ns3:TrackPointExtension>
            <ns3:hr>161</ns3:hr>
            <ns3:cad>90</ns3:cad>
          </ns3:TrackPointExtension>
        </extensions>
      </trkpt>
      <trkpt lat="43.8355533219873905181884765625" lon="4.2760662920773029327392578125">
        <ele>147.600006103515625</ele>
        <time>2024-01-27T09:34:01.000Z</time>
        <extensions>
          <ns3:TrackPointExtension>
            <ns3:hr>161</ns3:hr>
            <ns3:cad>90</ns3:cad>
          </ns3:TrackPointExtension>
        </extensions>
      </trkpt>
      <trkpt lat="43.83557586930692195892333984375" lon="4.27604575641453266143798828125">
        <ele>147.399993896484375</ele>
        <time>2024-01-27T09:34:02.000Z</time>
        <extensions>
          <ns3:TrackPointExtension>
            <ns3:hr>161</ns3:hr>
            <ns3:cad>90</ns3:cad>
          </ns3:TrackPointExtension>
        </extensions>
      </trkpt>
      <trkpt lat="43.83559917099773883819580078125" lon="4.2760263942182064056396484375">
        <ele>147.399993896484375</ele>
        <time>2024-01-27T09:34:03.000Z</time>
        <extensions>
          <ns3:TrackPointExtension>
            <ns3:hr>161</ns3:hr>
            <ns3:cad>91</ns3:cad>
          </ns3:TrackPointExtension>
        </extensions>
      </trkpt>
      <trkpt lat="43.83562180213630199432373046875" lon="4.276007115840911865234375">
        <ele>147.1999969482421875</ele>
        <time>2024-01-27T09:34:04.000Z</time>
        <extensions>
          <ns3:TrackPointExtension>
            <ns3:hr>162</ns3:hr>
            <ns3:cad>92</ns3:cad>
          </ns3:TrackPointExtension>
        </extensions>
      </trkpt>
      <trkpt lat="43.83564309217035770416259765625" lon="4.2759942077100276947021484375">
        <ele>147</ele>
        <time>2024-01-27T09:34:05.000Z</time>
        <extensions>
          <ns3:TrackPointExtension>
            <ns3:hr>162</ns3:hr>
            <ns3:cad>93</ns3:cad>
          </ns3:TrackPointExtension>
        </extensions>
      </trkpt>
      <trkpt lat="43.8356666453182697296142578125" lon="4.275978617370128631591796875">
        <ele>147</ele>
        <time>2024-01-27T09:34:06.000Z</time>
        <extensions>
          <ns3:TrackPointExtension>
            <ns3:hr>162</ns3:hr>
            <ns3:cad>93</ns3:cad>
          </ns3:TrackPointExtension>
        </extensions>
      </trkpt>
      <trkpt lat="43.83568860590457916259765625" lon="4.27596193738281726837158203125">
        <ele>146.8000030517578125</ele>
        <time>2024-01-27T09:34:07.000Z</time>
        <extensions>
          <ns3:TrackPointExtension>
            <ns3:hr>162</ns3:hr>
            <ns3:cad>93</ns3:cad>
          </ns3:TrackPointExtension>
        </extensions>
      </trkpt>
      <trkpt lat="43.83571266196668148040771484375" lon="4.275938384234905242919921875">
        <ele>146.8000030517578125</ele>
        <time>2024-01-27T09:34:08.000Z</time>
        <extensions>
          <ns3:TrackPointExtension>
            <ns3:hr>162</ns3:hr>
            <ns3:cad>93</ns3:cad>
          </ns3:TrackPointExtension>
        </extensions>
      </trkpt>
      <trkpt lat="43.835731856524944305419921875" lon="4.27591659128665924072265625">
        <ele>146.8000030517578125</ele>
        <time>2024-01-27T09:34:09.000Z</time>
        <extensions>
          <ns3:TrackPointExtension>
            <ns3:hr>162</ns3:hr>
            <ns3:cad>93</ns3:cad>
          </ns3:TrackPointExtension>
        </extensions>
      </trkpt>
      <trkpt lat="43.83575490675866603851318359375" lon="4.27588700316846370697021484375">
        <ele>146.600006103515625</ele>
        <time>2024-01-27T09:34:10.000Z</time>
        <extensions>
          <ns3:TrackPointExtension>
            <ns3:hr>162</ns3:hr>
            <ns3:cad>93</ns3:cad>
          </ns3:TrackPointExtension>
        </extensions>
      </trkpt>
      <trkpt lat="43.8357705809175968170166015625" lon="4.27585749886929988861083984375">
        <ele>146.600006103515625</ele>
        <time>2024-01-27T09:34:11.000Z</time>
        <extensions>
          <ns3:TrackPointExtension>
            <ns3:hr>162</ns3:hr>
            <ns3:cad>92</ns3:cad>
          </ns3:TrackPointExtension>
        </extensions>
      </trkpt>
      <trkpt lat="43.835787512362003326416015625" lon="4.2758274078369140625">
        <ele>146.600006103515625</ele>
        <time>2024-01-27T09:34:12.000Z</time>
        <extensions>
          <ns3:TrackPointExtension>
            <ns3:hr>162</ns3:hr>
            <ns3:cad>92</ns3:cad>
          </ns3:TrackPointExtension>
        </extensions>
      </trkpt>
      <trkpt lat="43.83579866029322147369384765625" lon="4.2757992446422576904296875">
        <ele>146.600006103515625</ele>
        <time>2024-01-27T09:34:13.000Z</time>
        <extensions>
          <ns3:TrackPointExtension>
            <ns3:hr>162</ns3:hr>
            <ns3:cad>94</ns3:cad>
          </ns3:TrackPointExtension>
        </extensions>
      </trkpt>
      <trkpt lat="43.8358094729483127593994140625" lon="4.275766052305698394775390625">
        <ele>146.399993896484375</ele>
        <time>2024-01-27T09:34:14.000Z</time>
        <extensions>
          <ns3:TrackPointExtension>
            <ns3:hr>162</ns3:hr>
            <ns3:cad>94</ns3:cad>
          </ns3:TrackPointExtension>
        </extensions>
      </trkpt>
      <trkpt lat="43.83581408299505710601806640625" lon="4.27573093213140964508056640625">
        <ele>146.399993896484375</ele>
        <time>2024-01-27T09:34:15.000Z</time>
        <extensions>
          <ns3:TrackPointExtension>
            <ns3:hr>162</ns3:hr>
            <ns3:cad>94</ns3:cad>
          </ns3:TrackPointExtension>
        </extensions>
      </trkpt>
      <trkpt lat="43.8358208723366260528564453125" lon="4.27569773979485034942626953125">
        <ele>146.399993896484375</ele>
        <time>2024-01-27T09:34:16.000Z</time>
        <extensions>
          <ns3:TrackPointExtension>
            <ns3:hr>161</ns3:hr>
            <ns3:cad>93</ns3:cad>
          </ns3:TrackPointExtension>
        </extensions>
      </trkpt>
      <trkpt lat="43.8358248956501483917236328125" lon="4.27565784193575382232666015625">
        <ele>146.1999969482421875</ele>
        <time>2024-01-27T09:34:17.000Z</time>
        <extensions>
          <ns3:TrackPointExtension>
            <ns3:hr>161</ns3:hr>
            <ns3:cad>93</ns3:cad>
          </ns3:TrackPointExtension>
        </extensions>
      </trkpt>
      <trkpt lat="43.8358336128294467926025390625" lon="4.2756223864853382110595703125">
        <ele>146.1999969482421875</ele>
        <time>2024-01-27T09:34:18.000Z</time>
        <extensions>
          <ns3:TrackPointExtension>
            <ns3:hr>161</ns3:hr>
            <ns3:cad>93</ns3:cad>
          </ns3:TrackPointExtension>
        </extensions>
      </trkpt>
      <trkpt lat="43.835843503475189208984375" lon="4.275585003197193145751953125">
        <ele>146.1999969482421875</ele>
        <time>2024-01-27T09:34:19.000Z</time>
        <extensions>
          <ns3:TrackPointExtension>
            <ns3:hr>161</ns3:hr>
            <ns3:cad>93</ns3:cad>
          </ns3:TrackPointExtension>
        </extensions>
      </trkpt>
      <trkpt lat="43.83585699833929538726806640625" lon="4.27555440925061702728271484375">
        <ele>146.1999969482421875</ele>
        <time>2024-01-27T09:34:20.000Z</time>
        <extensions>
          <ns3:TrackPointExtension>
            <ns3:hr>161</ns3:hr>
            <ns3:cad>93</ns3:cad>
          </ns3:TrackPointExtension>
        </extensions>
      </trkpt>
      <trkpt lat="43.83587409742176532745361328125" lon="4.27551954053342342376708984375">
        <ele>146.1999969482421875</ele>
        <time>2024-01-27T09:34:21.000Z</time>
        <extensions>
          <ns3:TrackPointExtension>
            <ns3:hr>161</ns3:hr>
            <ns3:cad>93</ns3:cad>
          </ns3:TrackPointExtension>
        </extensions>
      </trkpt>
      <trkpt lat="43.8358899392187595367431640625" lon="4.2754948139190673828125">
        <ele>146.1999969482421875</ele>
        <time>2024-01-27T09:34:22.000Z</time>
        <extensions>
          <ns3:TrackPointExtension>
            <ns3:hr>161</ns3:hr>
            <ns3:cad>93</ns3:cad>
          </ns3:TrackPointExtension>
        </extensions>
      </trkpt>
      <trkpt lat="43.83591391146183013916015625" lon="4.2754617892205715179443359375">
        <ele>146.1999969482421875</ele>
        <time>2024-01-27T09:34:23.000Z</time>
        <extensions>
          <ns3:TrackPointExtension>
            <ns3:hr>160</ns3:hr>
            <ns3:cad>93</ns3:cad>
          </ns3:TrackPointExtension>
        </extensions>
      </trkpt>
      <trkpt lat="43.835930339992046356201171875" lon="4.27543806843459606170654296875">
        <ele>146.1999969482421875</ele>
        <time>2024-01-27T09:34:24.000Z</time>
        <extensions>
          <ns3:TrackPointExtension>
            <ns3:hr>160</ns3:hr>
            <ns3:cad>92</ns3:cad>
          </ns3:TrackPointExtension>
        </extensions>
      </trkpt>
      <trkpt lat="43.8359536416828632354736328125" lon="4.27541627548635005950927734375">
        <ele>146.1999969482421875</ele>
        <time>2024-01-27T09:34:25.000Z</time>
        <extensions>
          <ns3:TrackPointExtension>
            <ns3:hr>160</ns3:hr>
            <ns3:cad>92</ns3:cad>
          </ns3:TrackPointExtension>
        </extensions>
      </trkpt>
      <trkpt lat="43.835972584784030914306640625" lon="4.27539515309035778045654296875">
        <ele>146.1999969482421875</ele>
        <time>2024-01-27T09:34:26.000Z</time>
        <extensions>
          <ns3:TrackPointExtension>
            <ns3:hr>160</ns3:hr>
            <ns3:cad>92</ns3:cad>
          </ns3:TrackPointExtension>
        </extensions>
      </trkpt>
      <trkpt lat="43.83599563501775264739990234375" lon="4.27537436597049236297607421875">
        <ele>146.1999969482421875</ele>
        <time>2024-01-27T09:34:27.000Z</time>
        <extensions>
          <ns3:TrackPointExtension>
            <ns3:hr>160</ns3:hr>
            <ns3:cad>94</ns3:cad>
          </ns3:TrackPointExtension>
        </extensions>
      </trkpt>
      <trkpt lat="43.83601742796599864959716796875" lon="4.2753524892032146453857421875">
        <ele>146.1999969482421875</ele>
        <time>2024-01-27T09:34:28.000Z</time>
        <extensions>
          <ns3:TrackPointExtension>
            <ns3:hr>160</ns3:hr>
            <ns3:cad>94</ns3:cad>
          </ns3:TrackPointExtension>
        </extensions>
      </trkpt>
      <trkpt lat="43.836041986942291259765625" lon="4.27534419111907482147216796875">
        <ele>146.1999969482421875</ele>
        <time>2024-01-27T09:34:29.000Z</time>
        <extensions>
          <ns3:TrackPointExtension>
            <ns3:hr>161</ns3:hr>
            <ns3:cad>94</ns3:cad>
          </ns3:TrackPointExtension>
        </extensions>
      </trkpt>
      <trkpt lat="43.836065791547298431396484375" lon="4.2753280140459537506103515625">
        <ele>146.1999969482421875</ele>
        <time>2024-01-27T09:34:30.000Z</time>
        <extensions>
          <ns3:TrackPointExtension>
            <ns3:hr>161</ns3:hr>
            <ns3:cad>92</ns3:cad>
          </ns3:TrackPointExtension>
        </extensions>
      </trkpt>
      <trkpt lat="43.83608733303844928741455078125" lon="4.27531284280121326446533203125">
        <ele>146.1999969482421875</ele>
        <time>2024-01-27T09:34:31.000Z</time>
        <extensions>
          <ns3:TrackPointExtension>
            <ns3:hr>161</ns3:hr>
            <ns3:cad>91</ns3:cad>
          </ns3:TrackPointExtension>
        </extensions>
      </trkpt>
      <trkpt lat="43.8361125625669956207275390625" lon="4.2753005214035511016845703125">
        <ele>146.399993896484375</ele>
        <time>2024-01-27T09:34:32.000Z</time>
        <extensions>
          <ns3:TrackPointExtension>
            <ns3:hr>161</ns3:hr>
            <ns3:cad>91</ns3:cad>
          </ns3:TrackPointExtension>
        </extensions>
      </trkpt>
      <trkpt lat="43.83613385260105133056640625" lon="4.27528618834912776947021484375">
        <ele>146.399993896484375</ele>
        <time>2024-01-27T09:34:33.000Z</time>
        <extensions>
          <ns3:TrackPointExtension>
            <ns3:hr>161</ns3:hr>
            <ns3:cad>92</ns3:cad>
          </ns3:TrackPointExtension>
        </extensions>
      </trkpt>
      <trkpt lat="43.83616075851023197174072265625" lon="4.275271184742450714111328125">
        <ele>146.600006103515625</ele>
        <time>2024-01-27T09:34:34.000Z</time>
        <extensions>
          <ns3:TrackPointExtension>
            <ns3:hr>161</ns3:hr>
            <ns3:cad>92</ns3:cad>
          </ns3:TrackPointExtension>
        </extensions>
      </trkpt>
      <trkpt lat="43.83618389256298542022705078125" lon="4.27525701932609081268310546875">
        <ele>146.600006103515625</ele>
        <time>2024-01-27T09:34:35.000Z</time>
        <extensions>
          <ns3:TrackPointExtension>
            <ns3:hr>161</ns3:hr>
            <ns3:cad>94</ns3:cad>
          </ns3:TrackPointExtension>
        </extensions>
      </trkpt>
      <trkpt lat="43.83621104992926120758056640625" lon="4.275245703756809234619140625">
        <ele>146.8000030517578125</ele>
        <time>2024-01-27T09:34:36.000Z</time>
        <extensions>
          <ns3:TrackPointExtension>
            <ns3:hr>161</ns3:hr>
            <ns3:cad>94</ns3:cad>
          </ns3:TrackPointExtension>
        </extensions>
      </trkpt>
      <trkpt lat="43.83623653091490268707275390625" lon="4.275234304368495941162109375">
        <ele>146.8000030517578125</ele>
        <time>2024-01-27T09:34:37.000Z</time>
        <extensions>
          <ns3:TrackPointExtension>
            <ns3:hr>161</ns3:hr>
            <ns3:cad>94</ns3:cad>
          </ns3:TrackPointExtension>
        </extensions>
      </trkpt>
      <trkpt lat="43.83625983260571956634521484375" lon="4.2752257548272609710693359375">
        <ele>146.8000030517578125</ele>
        <time>2024-01-27T09:34:38.000Z</time>
        <extensions>
          <ns3:TrackPointExtension>
            <ns3:hr>161</ns3:hr>
            <ns3:cad>94</ns3:cad>
          </ns3:TrackPointExtension>
        </extensions>
      </trkpt>
      <trkpt lat="43.83628363721072673797607421875" lon="4.275220222771167755126953125">
        <ele>146.8000030517578125</ele>
        <time>2024-01-27T09:34:39.000Z</time>
        <extensions>
          <ns3:TrackPointExtension>
            <ns3:hr>162</ns3:hr>
            <ns3:cad>92</ns3:cad>
          </ns3:TrackPointExtension>
        </extensions>
      </trkpt>
      <trkpt lat="43.836307860910892486572265625" lon="4.27522122859954833984375">
        <ele>146.8000030517578125</ele>
        <time>2024-01-27T09:34:40.000Z</time>
        <extensions>
          <ns3:TrackPointExtension>
            <ns3:hr>162</ns3:hr>
            <ns3:cad>92</ns3:cad>
          </ns3:TrackPointExtension>
        </extensions>
      </trkpt>
      <trkpt lat="43.836332000792026519775390625" lon="4.27522365935146808624267578125">
        <ele>147</ele>
        <time>2024-01-27T09:34:41.000Z</time>
        <extensions>
          <ns3:TrackPointExtension>
            <ns3:hr>162</ns3:hr>
            <ns3:cad>94</ns3:cad>
          </ns3:TrackPointExtension>
        </extensions>
      </trkpt>
      <trkpt lat="43.836354799568653106689453125" lon="4.2752247489988803863525390625">
        <ele>147</ele>
        <time>2024-01-27T09:34:42.000Z</time>
        <extensions>
          <ns3:TrackPointExtension>
            <ns3:hr>162</ns3:hr>
            <ns3:cad>94</ns3:cad>
          </ns3:TrackPointExtension>
        </extensions>
      </trkpt>
      <trkpt lat="43.83638061583042144775390625" lon="4.2752237431704998016357421875">
        <ele>147</ele>
        <time>2024-01-27T09:34:43.000Z</time>
        <extensions>
          <ns3:TrackPointExtension>
            <ns3:hr>162</ns3:hr>
            <ns3:cad>94</ns3:cad>
          </ns3:TrackPointExtension>
        </extensions>
      </trkpt>
      <trkpt lat="43.83640207350254058837890625" lon="4.275224246084690093994140625">
        <ele>147</ele>
        <time>2024-01-27T09:34:44.000Z</time>
        <extensions>
          <ns3:TrackPointExtension>
            <ns3:hr>162</ns3:hr>
            <ns3:cad>92</ns3:cad>
          </ns3:TrackPointExtension>
        </extensions>
      </trkpt>
      <trkpt lat="43.83643015287816524505615234375" lon="4.27522533573210239410400390625">
        <ele>147.1999969482421875</ele>
        <time>2024-01-27T09:34:45.000Z</time>
        <extensions>
          <ns3:TrackPointExtension>
            <ns3:hr>162</ns3:hr>
            <ns3:cad>92</ns3:cad>
          </ns3:TrackPointExtension>
        </extensions>
      </trkpt>
      <trkpt lat="43.83645328693091869354248046875" lon="4.27521787583827972412109375">
        <ele>147.1999969482421875</ele>
        <time>2024-01-27T09:34:46.000Z</time>
        <extensions>
          <ns3:TrackPointExtension>
            <ns3:hr>162</ns3:hr>
            <ns3:cad>92</ns3:cad>
          </ns3:TrackPointExtension>
        </extensions>
      </trkpt>
      <trkpt lat="43.83647860027849674224853515625" lon="4.27520907483994960784912109375">
        <ele>147.1999969482421875</ele>
        <time>2024-01-27T09:34:47.000Z</time>
        <extensions>
          <ns3:TrackPointExtension>
            <ns3:hr>161</ns3:hr>
            <ns3:cad>92</ns3:cad>
          </ns3:TrackPointExtension>
        </extensions>
      </trkpt>
      <trkpt lat="43.83650274015963077545166015625" lon="4.27519734017550945281982421875">
        <ele>147.1999969482421875</ele>
        <time>2024-01-27T09:34:48.000Z</time>
        <extensions>
          <ns3:TrackPointExtension>
            <ns3:hr>161</ns3:hr>
            <ns3:cad>92</ns3:cad>
          </ns3:TrackPointExtension>
        </extensions>
      </trkpt>
      <trkpt lat="43.83652369491755962371826171875" lon="4.27518837153911590576171875">
        <ele>147.1999969482421875</ele>
        <time>2024-01-27T09:34:49.000Z</time>
        <extensions>
          <ns3:TrackPointExtension>
            <ns3:hr>161</ns3:hr>
            <ns3:cad>92</ns3:cad>
          </ns3:TrackPointExtension>
        </extensions>
      </trkpt>
      <trkpt lat="43.83654314093291759490966796875" lon="4.27517898380756378173828125">
        <ele>147.399993896484375</ele>
        <time>2024-01-27T09:34:50.000Z</time>
        <extensions>
          <ns3:TrackPointExtension>
            <ns3:hr>161</ns3:hr>
            <ns3:cad>94</ns3:cad>
          </ns3:TrackPointExtension>
        </extensions>
      </trkpt>
      <trkpt lat="43.83656510151922702789306640625" lon="4.27516959607601165771484375">
        <ele>147.399993896484375</ele>
        <time>2024-01-27T09:34:51.000Z</time>
        <extensions>
          <ns3:TrackPointExtension>
            <ns3:hr>161</ns3:hr>
            <ns3:cad>94</ns3:cad>
          </ns3:TrackPointExtension>
        </extensions>
      </trkpt>
      <trkpt lat="43.8365904986858367919921875" lon="4.27515945397317409515380859375">
        <ele>147.399993896484375</ele>
        <time>2024-01-27T09:34:52.000Z</time>
        <extensions>
          <ns3:TrackPointExtension>
            <ns3:hr>161</ns3:hr>
            <ns3:cad>92</ns3:cad>
          </ns3:TrackPointExtension>
        </extensions>
      </trkpt>
      <trkpt lat="43.8366127945482730865478515625" lon="4.2751528322696685791015625">
        <ele>147.399993896484375</ele>
        <time>2024-01-27T09:34:53.000Z</time>
        <extensions>
          <ns3:TrackPointExtension>
            <ns3:hr>161</ns3:hr>
            <ns3:cad>92</ns3:cad>
          </ns3:TrackPointExtension>
        </extensions>
      </trkpt>
      <trkpt lat="43.83664187975227832794189453125" lon="4.27514000795781612396240234375">
        <ele>147.399993896484375</ele>
        <time>2024-01-27T09:34:54.000Z</time>
        <extensions>
          <ns3:TrackPointExtension>
            <ns3:hr>161</ns3:hr>
            <ns3:cad>92</ns3:cad>
          </ns3:TrackPointExtension>
        </extensions>
      </trkpt>
      <trkpt lat="43.8366629183292388916015625" lon="4.27512709982693195343017578125">
        <ele>147.399993896484375</ele>
        <time>2024-01-27T09:34:55.000Z</time>
        <extensions>
          <ns3:TrackPointExtension>
            <ns3:hr>161</ns3:hr>
            <ns3:cad>92</ns3:cad>
          </ns3:TrackPointExtension>
        </extensions>
      </trkpt>
      <trkpt lat="43.8366865552961826324462890625" lon="4.27511502988636493682861328125">
        <ele>147.399993896484375</ele>
        <time>2024-01-27T09:34:56.000Z</time>
        <extensions>
          <ns3:TrackPointExtension>
            <ns3:hr>161</ns3:hr>
            <ns3:cad>92</ns3:cad>
          </ns3:TrackPointExtension>
        </extensions>
      </trkpt>
      <trkpt lat="43.83670893497765064239501953125" lon="4.27509927190840244293212890625">
        <ele>147.399993896484375</ele>
        <time>2024-01-27T09:34:57.000Z</time>
        <extensions>
          <ns3:TrackPointExtension>
            <ns3:hr>161</ns3:hr>
            <ns3:cad>92</ns3:cad>
          </ns3:TrackPointExtension>
        </extensions>
      </trkpt>
      <trkpt lat="43.83673039264976978302001953125" lon="4.27508644759654998779296875">
        <ele>147.600006103515625</ele>
        <time>2024-01-27T09:34:58.000Z</time>
        <extensions>
          <ns3:TrackPointExtension>
            <ns3:hr>161</ns3:hr>
            <ns3:cad>94</ns3:cad>
          </ns3:TrackPointExtension>
        </extensions>
      </trkpt>
      <trkpt lat="43.83675084449350833892822265625" lon="4.27507362328469753265380859375">
        <ele>147.600006103515625</ele>
        <time>2024-01-27T09:34:59.000Z</time>
        <extensions>
          <ns3:TrackPointExtension>
            <ns3:hr>162</ns3:hr>
            <ns3:cad>94</ns3:cad>
          </ns3:TrackPointExtension>
        </extensions>
      </trkpt>
      <trkpt lat="43.83677213452756404876708984375" lon="4.27506373263895511627197265625">
        <ele>147.600006103515625</ele>
        <time>2024-01-27T09:35:00.000Z</time>
        <extensions>
          <ns3:TrackPointExtension>
            <ns3:hr>162</ns3:hr>
            <ns3:cad>94</ns3:cad>
          </ns3:TrackPointExtension>
        </extensions>
      </trkpt>
      <trkpt lat="43.836799375712871551513671875" lon="4.27505585364997386932373046875">
        <ele>147.600006103515625</ele>
        <time>2024-01-27T09:35:01.000Z</time>
        <extensions>
          <ns3:TrackPointExtension>
            <ns3:hr>162</ns3:hr>
            <ns3:cad>94</ns3:cad>
          </ns3:TrackPointExtension>
        </extensions>
      </trkpt>
      <trkpt lat="43.83682452142238616943359375" lon="4.27504948340356349945068359375">
        <ele>147.8000030517578125</ele>
        <time>2024-01-27T09:35:02.000Z</time>
        <extensions>
          <ns3:TrackPointExtension>
            <ns3:hr>162</ns3:hr>
            <ns3:cad>92</ns3:cad>
          </ns3:TrackPointExtension>
        </extensions>
      </trkpt>
      <trkpt lat="43.83685042150318622589111328125" lon="4.275037832558155059814453125">
        <ele>147.8000030517578125</ele>
        <time>2024-01-27T09:35:03.000Z</time>
        <extensions>
          <ns3:TrackPointExtension>
            <ns3:hr>162</ns3:hr>
            <ns3:cad>91</ns3:cad>
          </ns3:TrackPointExtension>
        </extensions>
      </trkpt>
      <trkpt lat="43.83687187917530536651611328125" lon="4.27502182312309741973876953125">
        <ele>147.8000030517578125</ele>
        <time>2024-01-27T09:35:04.000Z</time>
        <extensions>
          <ns3:TrackPointExtension>
            <ns3:hr>163</ns3:hr>
            <ns3:cad>91</ns3:cad>
          </ns3:TrackPointExtension>
        </extensions>
      </trkpt>
      <trkpt lat="43.83689451031386852264404296875" lon="4.27501042373478412628173828125">
        <ele>147.8000030517578125</ele>
        <time>2024-01-27T09:35:05.000Z</time>
        <extensions>
          <ns3:TrackPointExtension>
            <ns3:hr>163</ns3:hr>
            <ns3:cad>91</ns3:cad>
          </ns3:TrackPointExtension>
        </extensions>
      </trkpt>
      <trkpt lat="43.83691295050084590911865234375" lon="4.2750058136880397796630859375">
        <ele>147.8000030517578125</ele>
        <time>2024-01-27T09:35:06.000Z</time>
        <extensions>
          <ns3:TrackPointExtension>
            <ns3:hr>163</ns3:hr>
            <ns3:cad>92</ns3:cad>
          </ns3:TrackPointExtension>
        </extensions>
      </trkpt>
      <trkpt lat="43.83693759329617023468017578125" lon="4.2750138603150844573974609375">
        <ele>148</ele>
        <time>2024-01-27T09:35:07.000Z</time>
        <extensions>
          <ns3:TrackPointExtension>
            <ns3:hr>163</ns3:hr>
            <ns3:cad>94</ns3:cad>
          </ns3:TrackPointExtension>
        </extensions>
      </trkpt>
      <trkpt lat="43.83696357719600200653076171875" lon="4.275024421513080596923828125">
        <ele>148</ele>
        <time>2024-01-27T09:35:08.000Z</time>
        <extensions>
          <ns3:TrackPointExtension>
            <ns3:hr>163</ns3:hr>
            <ns3:cad>94</ns3:cad>
          </ns3:TrackPointExtension>
        </extensions>
      </trkpt>
      <trkpt lat="43.83698972873389720916748046875" lon="4.27503883838653564453125">
        <ele>148</ele>
        <time>2024-01-27T09:35:09.000Z</time>
        <extensions>
          <ns3:TrackPointExtension>
            <ns3:hr>163</ns3:hr>
            <ns3:cad>94</ns3:cad>
          </ns3:TrackPointExtension>
        </extensions>
      </trkpt>
      <trkpt lat="43.83701219223439693450927734375" lon="4.2750487290322780609130859375">
        <ele>148</ele>
        <time>2024-01-27T09:35:10.000Z</time>
        <extensions>
          <ns3:TrackPointExtension>
            <ns3:hr>164</ns3:hr>
            <ns3:cad>94</ns3:cad>
          </ns3:TrackPointExtension>
        </extensions>
      </trkpt>
      <trkpt lat="43.83703666739165782928466796875" lon="4.2750614695250988006591796875">
        <ele>148</ele>
        <time>2024-01-27T09:35:11.000Z</time>
        <extensions>
          <ns3:TrackPointExtension>
            <ns3:hr>164</ns3:hr>
            <ns3:cad>93</ns3:cad>
          </ns3:TrackPointExtension>
        </extensions>
      </trkpt>
      <trkpt lat="43.837057538330554962158203125" lon="4.27507010288536548614501953125">
        <ele>148</ele>
        <time>2024-01-27T09:35:12.000Z</time>
        <extensions>
          <ns3:TrackPointExtension>
            <ns3:hr>164</ns3:hr>
            <ns3:cad>93</ns3:cad>
          </ns3:TrackPointExtension>
        </extensions>
      </trkpt>
      <trkpt lat="43.83708243258297443389892578125" lon="4.2750772275030612945556640625">
        <ele>148</ele>
        <time>2024-01-27T09:35:13.000Z</time>
        <extensions>
          <ns3:TrackPointExtension>
            <ns3:hr>164</ns3:hr>
            <ns3:cad>92</ns3:cad>
          </ns3:TrackPointExtension>
        </extensions>
      </trkpt>
      <trkpt lat="43.83710958994925022125244140625" lon="4.27508083172142505645751953125">
        <ele>148</ele>
        <time>2024-01-27T09:35:14.000Z</time>
        <extensions>
          <ns3:TrackPointExtension>
            <ns3:hr>164</ns3:hr>
            <ns3:cad>92</ns3:cad>
          </ns3:TrackPointExtension>
        </extensions>
      </trkpt>
      <trkpt lat="43.837136328220367431640625" lon="4.2750872857868671417236328125">
        <ele>148</ele>
        <time>2024-01-27T09:35:15.000Z</time>
        <extensions>
          <ns3:TrackPointExtension>
            <ns3:hr>164</ns3:hr>
            <ns3:cad>90</ns3:cad>
          </ns3:TrackPointExtension>
        </extensions>
      </trkpt>
      <trkpt lat="43.837160132825374603271484375" lon="4.27508602850139141082763671875">
        <ele>148</ele>
        <time>2024-01-27T09:35:16.000Z</time>
        <extensions>
          <ns3:TrackPointExtension>
            <ns3:hr>164</ns3:hr>
            <ns3:cad>90</ns3:cad>
          </ns3:TrackPointExtension>
        </extensions>
      </trkpt>
      <trkpt lat="43.83718620054423809051513671875" lon="4.2750913091003894805908203125">
        <ele>148</ele>
        <time>2024-01-27T09:35:17.000Z</time>
        <extensions>
          <ns3:TrackPointExtension>
            <ns3:hr>164</ns3:hr>
            <ns3:cad>92</ns3:cad>
          </ns3:TrackPointExtension>
        </extensions>
      </trkpt>
      <trkpt lat="43.83721168152987957000732421875" lon="4.27508820779621601104736328125">
        <ele>148</ele>
        <time>2024-01-27T09:35:18.000Z</time>
        <extensions>
          <ns3:TrackPointExtension>
            <ns3:hr>164</ns3:hr>
            <ns3:cad>92</ns3:cad>
          </ns3:TrackPointExtension>
        </extensions>
      </trkpt>
      <trkpt lat="43.83723556995391845703125" lon="4.275086112320423126220703125">
        <ele>148.1999969482421875</ele>
        <time>2024-01-27T09:35:19.000Z</time>
        <extensions>
          <ns3:TrackPointExtension>
            <ns3:hr>162</ns3:hr>
            <ns3:cad>94</ns3:cad>
          </ns3:TrackPointExtension>
        </extensions>
      </trkpt>
      <trkpt lat="43.83726012893021106719970703125" lon="4.27508242428302764892578125">
        <ele>148.1999969482421875</ele>
        <time>2024-01-27T09:35:20.000Z</time>
        <extensions>
          <ns3:TrackPointExtension>
            <ns3:hr>162</ns3:hr>
            <ns3:cad>94</ns3:cad>
          </ns3:TrackPointExtension>
        </extensions>
      </trkpt>
      <trkpt lat="43.83727789856493473052978515625" lon="4.275077395141124725341796875">
        <ele>148.1999969482421875</ele>
        <time>2024-01-27T09:35:21.000Z</time>
        <extensions>
          <ns3:TrackPointExtension>
            <ns3:hr>161</ns3:hr>
            <ns3:cad>94</ns3:cad>
          </ns3:TrackPointExtension>
        </extensions>
      </trkpt>
      <trkpt lat="43.8373001106083393096923828125" lon="4.27507563494145870208740234375">
        <ele>148.1999969482421875</ele>
        <time>2024-01-27T09:35:22.000Z</time>
        <extensions>
          <ns3:TrackPointExtension>
            <ns3:hr>160</ns3:hr>
            <ns3:cad>93</ns3:cad>
          </ns3:TrackPointExtension>
        </extensions>
      </trkpt>
      <trkpt lat="43.83732265792787075042724609375" lon="4.27507362328469753265380859375">
        <ele>148.399993896484375</ele>
        <time>2024-01-27T09:35:23.000Z</time>
        <extensions>
          <ns3:TrackPointExtension>
            <ns3:hr>160</ns3:hr>
            <ns3:cad>92</ns3:cad>
          </ns3:TrackPointExtension>
        </extensions>
      </trkpt>
      <trkpt lat="43.8373441994190216064453125" lon="4.275075383484363555908203125">
        <ele>148.399993896484375</ele>
        <time>2024-01-27T09:35:24.000Z</time>
        <extensions>
          <ns3:TrackPointExtension>
            <ns3:hr>160</ns3:hr>
            <ns3:cad>92</ns3:cad>
          </ns3:TrackPointExtension>
        </extensions>
      </trkpt>
      <trkpt lat="43.83736674673855304718017578125" lon="4.275082089006900787353515625">
        <ele>148.600006103515625</ele>
        <time>2024-01-27T09:35:25.000Z</time>
        <extensions>
          <ns3:TrackPointExtension>
            <ns3:hr>160</ns3:hr>
            <ns3:cad>92</ns3:cad>
          </ns3:TrackPointExtension>
        </extensions>
      </trkpt>
      <trkpt lat="43.83739105425775051116943359375" lon="4.2750872857868671417236328125">
        <ele>148.8000030517578125</ele>
        <time>2024-01-27T09:35:26.000Z</time>
        <extensions>
          <ns3:TrackPointExtension>
            <ns3:hr>161</ns3:hr>
            <ns3:cad>94</ns3:cad>
          </ns3:TrackPointExtension>
        </extensions>
      </trkpt>
      <trkpt lat="43.837420977652072906494140625" lon="4.27509357221424579620361328125">
        <ele>148.8000030517578125</ele>
        <time>2024-01-27T09:35:27.000Z</time>
        <extensions>
          <ns3:TrackPointExtension>
            <ns3:hr>161</ns3:hr>
            <ns3:cad>94</ns3:cad>
          </ns3:TrackPointExtension>
        </extensions>
      </trkpt>
      <trkpt lat="43.83744671009480953216552734375" lon="4.2750976793467998504638671875">
        <ele>148.8000030517578125</ele>
        <time>2024-01-27T09:35:28.000Z</time>
        <extensions>
          <ns3:TrackPointExtension>
            <ns3:hr>161</ns3:hr>
            <ns3:cad>94</ns3:cad>
          </ns3:TrackPointExtension>
        </extensions>
      </trkpt>
      <trkpt lat="43.8374727778136730194091796875" lon="4.2751067318022251129150390625">
        <ele>148.8000030517578125</ele>
        <time>2024-01-27T09:35:29.000Z</time>
        <extensions>
          <ns3:TrackPointExtension>
            <ns3:hr>161</ns3:hr>
            <ns3:cad>94</ns3:cad>
          </ns3:TrackPointExtension>
        </extensions>
      </trkpt>
      <trkpt lat="43.83749331347644329071044921875" lon="4.27511997520923614501953125">
        <ele>148.8000030517578125</ele>
        <time>2024-01-27T09:35:30.000Z</time>
        <extensions>
          <ns3:TrackPointExtension>
            <ns3:hr>162</ns3:hr>
            <ns3:cad>94</ns3:cad>
          </ns3:TrackPointExtension>
        </extensions>
      </trkpt>
      <trkpt lat="43.83751519024372100830078125" lon="4.27513204514980316162109375">
        <ele>148.8000030517578125</ele>
        <time>2024-01-27T09:35:31.000Z</time>
        <extensions>
          <ns3:TrackPointExtension>
            <ns3:hr>162</ns3:hr>
            <ns3:cad>94</ns3:cad>
          </ns3:TrackPointExtension>
        </extensions>
      </trkpt>
      <trkpt lat="43.83753388188779354095458984375" lon="4.27514134906232357025146484375">
        <ele>148.8000030517578125</ele>
        <time>2024-01-27T09:35:32.000Z</time>
        <extensions>
          <ns3:TrackPointExtension>
            <ns3:hr>162</ns3:hr>
            <ns3:cad>92</ns3:cad>
          </ns3:TrackPointExtension>
        </extensions>
      </trkpt>
      <trkpt lat="43.837555088102817535400390625" lon="4.27515241317451000213623046875">
        <ele>148.8000030517578125</ele>
        <time>2024-01-27T09:35:33.000Z</time>
        <extensions>
          <ns3:TrackPointExtension>
            <ns3:hr>162</ns3:hr>
            <ns3:cad>92</ns3:cad>
          </ns3:TrackPointExtension>
        </extensions>
      </trkpt>
      <trkpt lat="43.8375773839652538299560546875" lon="4.27516314201056957244873046875">
        <ele>148.8000030517578125</ele>
        <time>2024-01-27T09:35:34.000Z</time>
        <extensions>
          <ns3:TrackPointExtension>
            <ns3:hr>162</ns3:hr>
            <ns3:cad>94</ns3:cad>
          </ns3:TrackPointExtension>
        </extensions>
      </trkpt>
      <trkpt lat="43.837602697312831878662109375" lon="4.27517705596983432769775390625">
        <ele>148.8000030517578125</ele>
        <time>2024-01-27T09:35:35.000Z</time>
        <extensions>
          <ns3:TrackPointExtension>
            <ns3:hr>163</ns3:hr>
            <ns3:cad>94</ns3:cad>
          </ns3:TrackPointExtension>
        </extensions>
      </trkpt>
      <trkpt lat="43.8376276753842830657958984375" lon="4.27518971264362335205078125">
        <ele>148.8000030517578125</ele>
        <time>2024-01-27T09:35:36.000Z</time>
        <extensions>
          <ns3:TrackPointExtension>
            <ns3:hr>163</ns3:hr>
            <ns3:cad>94</ns3:cad>
          </ns3:TrackPointExtension>
        </extensions>
      </trkpt>
      <trkpt lat="43.8376499712467193603515625" lon="4.2751992680132389068603515625">
        <ele>148.8000030517578125</ele>
        <time>2024-01-27T09:35:37.000Z</time>
        <extensions>
          <ns3:TrackPointExtension>
            <ns3:hr>163</ns3:hr>
            <ns3:cad>93</ns3:cad>
          </ns3:TrackPointExtension>
        </extensions>
      </trkpt>
      <trkpt lat="43.83767201565206050872802734375" lon="4.27520572207868099212646484375">
        <ele>148.8000030517578125</ele>
        <time>2024-01-27T09:35:38.000Z</time>
        <extensions>
          <ns3:TrackPointExtension>
            <ns3:hr>164</ns3:hr>
            <ns3:cad>93</ns3:cad>
          </ns3:TrackPointExtension>
        </extensions>
      </trkpt>
      <trkpt lat="43.8376970775425434112548828125" lon="4.275208152830600738525390625">
        <ele>149</ele>
        <time>2024-01-27T09:35:39.000Z</time>
        <extensions>
          <ns3:TrackPointExtension>
            <ns3:hr>164</ns3:hr>
            <ns3:cad>93</ns3:cad>
          </ns3:TrackPointExtension>
        </extensions>
      </trkpt>
      <trkpt lat="43.8377269171178340911865234375" lon="4.275213181972503662109375">
        <ele>149</ele>
        <time>2024-01-27T09:35:40.000Z</time>
        <extensions>
          <ns3:TrackPointExtension>
            <ns3:hr>164</ns3:hr>
            <ns3:cad>91</ns3:cad>
          </ns3:TrackPointExtension>
        </extensions>
      </trkpt>
      <trkpt lat="43.83775348775088787078857421875" lon="4.2752113379538059234619140625">
        <ele>149</ele>
        <time>2024-01-27T09:35:41.000Z</time>
        <extensions>
          <ns3:TrackPointExtension>
            <ns3:hr>164</ns3:hr>
            <ns3:cad>91</ns3:cad>
          </ns3:TrackPointExtension>
        </extensions>
      </trkpt>
      <trkpt lat="43.8377849198877811431884765625" lon="4.275212846696376800537109375">
        <ele>149.1999969482421875</ele>
        <time>2024-01-27T09:35:42.000Z</time>
        <extensions>
          <ns3:TrackPointExtension>
            <ns3:hr>164</ns3:hr>
            <ns3:cad>92</ns3:cad>
          </ns3:TrackPointExtension>
        </extensions>
      </trkpt>
      <trkpt lat="43.83781157433986663818359375" lon="4.27521142177283763885498046875">
        <ele>149.399993896484375</ele>
        <time>2024-01-27T09:35:43.000Z</time>
        <extensions>
          <ns3:TrackPointExtension>
            <ns3:hr>164</ns3:hr>
            <ns3:cad>92</ns3:cad>
          </ns3:TrackPointExtension>
        </extensions>
      </trkpt>
      <trkpt lat="43.83783680386841297149658203125" lon="4.27521259523928165435791015625">
        <ele>149.600006103515625</ele>
        <time>2024-01-27T09:35:44.000Z</time>
        <extensions>
          <ns3:TrackPointExtension>
            <ns3:hr>164</ns3:hr>
            <ns3:cad>94</ns3:cad>
          </ns3:TrackPointExtension>
        </extensions>
      </trkpt>
      <trkpt lat="43.83786396123468875885009765625" lon="4.27521041594445705413818359375">
        <ele>149.600006103515625</ele>
        <time>2024-01-27T09:35:45.000Z</time>
        <extensions>
          <ns3:TrackPointExtension>
            <ns3:hr>164</ns3:hr>
            <ns3:cad>94</ns3:cad>
          </ns3:TrackPointExtension>
        </extensions>
      </trkpt>
      <trkpt lat="43.83788676001131534576416015625" lon="4.2752079851925373077392578125">
        <ele>149.600006103515625</ele>
        <time>2024-01-27T09:35:46.000Z</time>
        <extensions>
          <ns3:TrackPointExtension>
            <ns3:hr>164</ns3:hr>
            <ns3:cad>94</ns3:cad>
          </ns3:TrackPointExtension>
        </extensions>
      </trkpt>
      <trkpt lat="43.83791190572082996368408203125" lon="4.275207482278347015380859375">
        <ele>149.600006103515625</ele>
        <time>2024-01-27T09:35:47.000Z</time>
        <extensions>
          <ns3:TrackPointExtension>
            <ns3:hr>164</ns3:hr>
            <ns3:cad>94</ns3:cad>
          </ns3:TrackPointExtension>
        </extensions>
      </trkpt>
      <trkpt lat="43.8379357941448688507080078125" lon="4.275207482278347015380859375">
        <ele>149.8000030517578125</ele>
        <time>2024-01-27T09:35:48.000Z</time>
        <extensions>
          <ns3:TrackPointExtension>
            <ns3:hr>164</ns3:hr>
            <ns3:cad>94</ns3:cad>
          </ns3:TrackPointExtension>
        </extensions>
      </trkpt>
      <trkpt lat="43.83796135894954204559326171875" lon="4.2752093262970447540283203125">
        <ele>149.8000030517578125</ele>
        <time>2024-01-27T09:35:49.000Z</time>
        <extensions>
          <ns3:TrackPointExtension>
            <ns3:hr>164</ns3:hr>
            <ns3:cad>94</ns3:cad>
          </ns3:TrackPointExtension>
        </extensions>
      </trkpt>
      <trkpt lat="43.837984912097454071044921875" lon="4.2752167023718357086181640625">
        <ele>149.8000030517578125</ele>
        <time>2024-01-27T09:35:50.000Z</time>
        <extensions>
          <ns3:TrackPointExtension>
            <ns3:hr>164</ns3:hr>
            <ns3:cad>94</ns3:cad>
          </ns3:TrackPointExtension>
        </extensions>
      </trkpt>
      <trkpt lat="43.838010393083095550537109375" lon="4.2752274312078952789306640625">
        <ele>149.8000030517578125</ele>
        <time>2024-01-27T09:35:51.000Z</time>
        <extensions>
          <ns3:TrackPointExtension>
            <ns3:hr>165</ns3:hr>
            <ns3:cad>94</ns3:cad>
          </ns3:TrackPointExtension>
        </extensions>
      </trkpt>
      <trkpt lat="43.8380340300500392913818359375" lon="4.2752338014543056488037109375">
        <ele>149.8000030517578125</ele>
        <time>2024-01-27T09:35:52.000Z</time>
        <extensions>
          <ns3:TrackPointExtension>
            <ns3:hr>164</ns3:hr>
            <ns3:cad>93</ns3:cad>
          </ns3:TrackPointExtension>
        </extensions>
      </trkpt>
      <trkpt lat="43.83806361816823482513427734375" lon="4.2752448655664920806884765625">
        <ele>149.8000030517578125</ele>
        <time>2024-01-27T09:35:53.000Z</time>
        <extensions>
          <ns3:TrackPointExtension>
            <ns3:hr>164</ns3:hr>
            <ns3:cad>93</ns3:cad>
          </ns3:TrackPointExtension>
        </extensions>
      </trkpt>
      <trkpt lat="43.83809077553451061248779296875" lon="4.27525115199387073516845703125">
        <ele>150</ele>
        <time>2024-01-27T09:35:54.000Z</time>
        <extensions>
          <ns3:TrackPointExtension>
            <ns3:hr>164</ns3:hr>
            <ns3:cad>93</ns3:cad>
          </ns3:TrackPointExtension>
        </extensions>
      </trkpt>
      <trkpt lat="43.8381181843578815460205078125" lon="4.27526322193443775177001953125">
        <ele>150</ele>
        <time>2024-01-27T09:35:55.000Z</time>
        <extensions>
          <ns3:TrackPointExtension>
            <ns3:hr>164</ns3:hr>
            <ns3:cad>91</ns3:cad>
          </ns3:TrackPointExtension>
        </extensions>
      </trkpt>
      <trkpt lat="43.838143162429332733154296875" lon="4.2752700112760066986083984375">
        <ele>150</ele>
        <time>2024-01-27T09:35:56.000Z</time>
        <extensions>
          <ns3:TrackPointExtension>
            <ns3:hr>164</ns3:hr>
            <ns3:cad>91</ns3:cad>
          </ns3:TrackPointExtension>
        </extensions>
      </trkpt>
      <trkpt lat="43.83817040361464023590087890625" lon="4.27528065629303455352783203125">
        <ele>150</ele>
        <time>2024-01-27T09:35:57.000Z</time>
        <extensions>
          <ns3:TrackPointExtension>
            <ns3:hr>164</ns3:hr>
            <ns3:cad>93</ns3:cad>
          </ns3:TrackPointExtension>
        </extensions>
      </trkpt>
      <trkpt lat="43.83819823153316974639892578125" lon="4.2752854339778423309326171875">
        <ele>150.1999969482421875</ele>
        <time>2024-01-27T09:35:58.000Z</time>
        <extensions>
          <ns3:TrackPointExtension>
            <ns3:hr>164</ns3:hr>
            <ns3:cad>93</ns3:cad>
          </ns3:TrackPointExtension>
        </extensions>
      </trkpt>
      <trkpt lat="43.83822287432849407196044921875" lon="4.2752891220152378082275390625">
        <ele>150.1999969482421875</ele>
        <time>2024-01-27T09:35:59.000Z</time>
        <extensions>
          <ns3:TrackPointExtension>
            <ns3:hr>163</ns3:hr>
            <ns3:cad>92</ns3:cad>
          </ns3:TrackPointExtension>
        </extensions>
      </trkpt>
      <trkpt lat="43.83824768476188182830810546875" lon="4.27528987638652324676513671875">
        <ele>150.1999969482421875</ele>
        <time>2024-01-27T09:36:00.000Z</time>
        <extensions>
          <ns3:TrackPointExtension>
            <ns3:hr>163</ns3:hr>
            <ns3:cad>91</ns3:cad>
          </ns3:TrackPointExtension>
        </extensions>
      </trkpt>
      <trkpt lat="43.8382722437381744384765625" lon="4.27528920583426952362060546875">
        <ele>150.399993896484375</ele>
        <time>2024-01-27T09:36:01.000Z</time>
        <extensions>
          <ns3:TrackPointExtension>
            <ns3:hr>164</ns3:hr>
            <ns3:cad>91</ns3:cad>
          </ns3:TrackPointExtension>
        </extensions>
      </trkpt>
      <trkpt lat="43.83830183185636997222900390625" lon="4.27529004402458667755126953125">
        <ele>150.399993896484375</ele>
        <time>2024-01-27T09:36:02.000Z</time>
        <extensions>
          <ns3:TrackPointExtension>
            <ns3:hr>164</ns3:hr>
            <ns3:cad>92</ns3:cad>
          </ns3:TrackPointExtension>
        </extensions>
      </trkpt>
      <trkpt lat="43.83832731284201145172119140625" lon="4.27529104985296726226806640625">
        <ele>150.399993896484375</ele>
        <time>2024-01-27T09:36:03.000Z</time>
        <extensions>
          <ns3:TrackPointExtension>
            <ns3:hr>164</ns3:hr>
            <ns3:cad>92</ns3:cad>
          </ns3:TrackPointExtension>
        </extensions>
      </trkpt>
      <trkpt lat="43.83835514076054096221923828125" lon="4.275298677384853363037109375">
        <ele>150.399993896484375</ele>
        <time>2024-01-27T09:36:04.000Z</time>
        <extensions>
          <ns3:TrackPointExtension>
            <ns3:hr>165</ns3:hr>
            <ns3:cad>92</ns3:cad>
          </ns3:TrackPointExtension>
        </extensions>
      </trkpt>
      <trkpt lat="43.8383803702890872955322265625" lon="4.2753003537654876708984375">
        <ele>150.399993896484375</ele>
        <time>2024-01-27T09:36:05.000Z</time>
        <extensions>
          <ns3:TrackPointExtension>
            <ns3:hr>165</ns3:hr>
            <ns3:cad>92</ns3:cad>
          </ns3:TrackPointExtension>
        </extensions>
      </trkpt>
      <trkpt lat="43.83841012604534626007080078125" lon="4.27531133405864238739013671875">
        <ele>150.399993896484375</ele>
        <time>2024-01-27T09:36:06.000Z</time>
        <extensions>
          <ns3:TrackPointExtension>
            <ns3:hr>166</ns3:hr>
            <ns3:cad>92</ns3:cad>
          </ns3:TrackPointExtension>
        </extensions>
      </trkpt>
      <trkpt lat="43.83843828924000263214111328125" lon="4.2753156088292598724365234375">
        <ele>150.399993896484375</ele>
        <time>2024-01-27T09:36:07.000Z</time>
        <extensions>
          <ns3:TrackPointExtension>
            <ns3:hr>166</ns3:hr>
            <ns3:cad>94</ns3:cad>
          </ns3:TrackPointExtension>
        </extensions>
      </trkpt>
      <trkpt lat="43.8384655304253101348876953125" lon="4.27532508037984371185302734375">
        <ele>150.399993896484375</ele>
        <time>2024-01-27T09:36:08.000Z</time>
        <extensions>
          <ns3:TrackPointExtension>
            <ns3:hr>166</ns3:hr>
            <ns3:cad>94</ns3:cad>
          </ns3:TrackPointExtension>
        </extensions>
      </trkpt>
      <trkpt lat="43.83849243633449077606201171875" lon="4.27532927133142948150634765625">
        <ele>150.399993896484375</ele>
        <time>2024-01-27T09:36:09.000Z</time>
        <extensions>
          <ns3:TrackPointExtension>
            <ns3:hr>166</ns3:hr>
            <ns3:cad>94</ns3:cad>
          </ns3:TrackPointExtension>
        </extensions>
      </trkpt>
      <trkpt lat="43.83852277882397174835205078125" lon="4.2753387428820133209228515625">
        <ele>150.399993896484375</ele>
        <time>2024-01-27T09:36:10.000Z</time>
        <extensions>
          <ns3:TrackPointExtension>
            <ns3:hr>166</ns3:hr>
            <ns3:cad>94</ns3:cad>
          </ns3:TrackPointExtension>
        </extensions>
      </trkpt>
      <trkpt lat="43.83855144493281841278076171875" lon="4.27534402348101139068603515625">
        <ele>150.600006103515625</ele>
        <time>2024-01-27T09:36:11.000Z</time>
        <extensions>
          <ns3:TrackPointExtension>
            <ns3:hr>166</ns3:hr>
            <ns3:cad>94</ns3:cad>
          </ns3:TrackPointExtension>
        </extensions>
      </trkpt>
      <trkpt lat="43.8385778479278087615966796875" lon="4.27534922026097774505615234375">
        <ele>150.600006103515625</ele>
        <time>2024-01-27T09:36:12.000Z</time>
        <extensions>
          <ns3:TrackPointExtension>
            <ns3:hr>166</ns3:hr>
            <ns3:cad>94</ns3:cad>
          </ns3:TrackPointExtension>
        </extensions>
      </trkpt>
      <trkpt lat="43.83860659785568714141845703125" lon="4.2753571830689907073974609375">
        <ele>150.8000030517578125</ele>
        <time>2024-01-27T09:36:13.000Z</time>
        <extensions>
          <ns3:TrackPointExtension>
            <ns3:hr>166</ns3:hr>
            <ns3:cad>94</ns3:cad>
          </ns3:TrackPointExtension>
        </extensions>
      </trkpt>
      <trkpt lat="43.83862855844199657440185546875" lon="4.2753561772406101226806640625">
        <ele>150.8000030517578125</ele>
        <time>2024-01-27T09:36:14.000Z</time>
        <extensions>
          <ns3:TrackPointExtension>
            <ns3:hr>166</ns3:hr>
            <ns3:cad>94</ns3:cad>
          </ns3:TrackPointExtension>
        </extensions>
      </trkpt>
      <trkpt lat="43.83865588344633579254150390625" lon="4.27535961382091045379638671875">
        <ele>150.8000030517578125</ele>
        <time>2024-01-27T09:36:15.000Z</time>
        <extensions>
          <ns3:TrackPointExtension>
            <ns3:hr>166</ns3:hr>
            <ns3:cad>92</ns3:cad>
          </ns3:TrackPointExtension>
        </extensions>
      </trkpt>
      <trkpt lat="43.83867792785167694091796875" lon="4.27536061964929103851318359375">
        <ele>151</ele>
        <time>2024-01-27T09:36:16.000Z</time>
        <extensions>
          <ns3:TrackPointExtension>
            <ns3:hr>166</ns3:hr>
            <ns3:cad>91</ns3:cad>
          </ns3:TrackPointExtension>
        </extensions>
      </trkpt>
      <trkpt lat="43.83870332501828670501708984375" lon="4.27536766044795513153076171875">
        <ele>151</ele>
        <time>2024-01-27T09:36:17.000Z</time>
        <extensions>
          <ns3:TrackPointExtension>
            <ns3:hr>166</ns3:hr>
            <ns3:cad>91</ns3:cad>
          </ns3:TrackPointExtension>
        </extensions>
      </trkpt>
      <trkpt lat="43.838724531233310699462890625" lon="4.2753675766289234161376953125">
        <ele>151.1999969482421875</ele>
        <time>2024-01-27T09:36:18.000Z</time>
        <extensions>
          <ns3:TrackPointExtension>
            <ns3:hr>166</ns3:hr>
            <ns3:cad>92</ns3:cad>
          </ns3:TrackPointExtension>
        </extensions>
      </trkpt>
      <trkpt lat="43.83874900639057159423828125" lon="4.27537436597049236297607421875">
        <ele>151.1999969482421875</ele>
        <time>2024-01-27T09:36:19.000Z</time>
        <extensions>
          <ns3:TrackPointExtension>
            <ns3:hr>166</ns3:hr>
            <ns3:cad>92</ns3:cad>
          </ns3:TrackPointExtension>
        </extensions>
      </trkpt>
      <trkpt lat="43.83877004496753215789794921875" lon="4.27537570707499980926513671875">
        <ele>151.1999969482421875</ele>
        <time>2024-01-27T09:36:20.000Z</time>
        <extensions>
          <ns3:TrackPointExtension>
            <ns3:hr>166</ns3:hr>
            <ns3:cad>94</ns3:cad>
          </ns3:TrackPointExtension>
        </extensions>
      </trkpt>
      <trkpt lat="43.838791586458683013916015625" lon="4.27537922747433185577392578125">
        <ele>151.399993896484375</ele>
        <time>2024-01-27T09:36:21.000Z</time>
        <extensions>
          <ns3:TrackPointExtension>
            <ns3:hr>166</ns3:hr>
            <ns3:cad>94</ns3:cad>
          </ns3:TrackPointExtension>
        </extensions>
      </trkpt>
      <trkpt lat="43.8388167321681976318359375" lon="4.2753836698830127716064453125">
        <ele>151.399993896484375</ele>
        <time>2024-01-27T09:36:22.000Z</time>
        <extensions>
          <ns3:TrackPointExtension>
            <ns3:hr>166</ns3:hr>
            <ns3:cad>94</ns3:cad>
          </ns3:TrackPointExtension>
        </extensions>
      </trkpt>
      <trkpt lat="43.8388408720493316650390625" lon="4.2753897048532962799072265625">
        <ele>151.399993896484375</ele>
        <time>2024-01-27T09:36:23.000Z</time>
        <extensions>
          <ns3:TrackPointExtension>
            <ns3:hr>166</ns3:hr>
            <ns3:cad>92</ns3:cad>
          </ns3:TrackPointExtension>
        </extensions>
      </trkpt>
      <trkpt lat="43.838868699967861175537109375" lon="4.2753942310810089111328125">
        <ele>151.399993896484375</ele>
        <time>2024-01-27T09:36:24.000Z</time>
        <extensions>
          <ns3:TrackPointExtension>
            <ns3:hr>167</ns3:hr>
            <ns3:cad>92</ns3:cad>
          </ns3:TrackPointExtension>
        </extensions>
      </trkpt>
      <trkpt lat="43.83888982236385345458984375" lon="4.275395572185516357421875">
        <ele>151.399993896484375</ele>
        <time>2024-01-27T09:36:25.000Z</time>
        <extensions>
          <ns3:TrackPointExtension>
            <ns3:hr>167</ns3:hr>
            <ns3:cad>92</ns3:cad>
          </ns3:TrackPointExtension>
        </extensions>
      </trkpt>
      <trkpt lat="43.83892108686268329620361328125" lon="4.27539850585162639617919921875">
        <ele>151.399993896484375</ele>
        <time>2024-01-27T09:36:26.000Z</time>
        <extensions>
          <ns3:TrackPointExtension>
            <ns3:hr>167</ns3:hr>
            <ns3:cad>94</ns3:cad>
          </ns3:TrackPointExtension>
        </extensions>
      </trkpt>
      <trkpt lat="43.8389426283538341522216796875" lon="4.27539783529937267303466796875">
        <ele>151.399993896484375</ele>
        <time>2024-01-27T09:36:27.000Z</time>
        <extensions>
          <ns3:TrackPointExtension>
            <ns3:hr>167</ns3:hr>
            <ns3:cad>94</ns3:cad>
          </ns3:TrackPointExtension>
        </extensions>
      </trkpt>
      <trkpt lat="43.83896886371076107025146484375" lon="4.2754037864506244659423828125">
        <ele>151.399993896484375</ele>
        <time>2024-01-27T09:36:28.000Z</time>
        <extensions>
          <ns3:TrackPointExtension>
            <ns3:hr>167</ns3:hr>
            <ns3:cad>94</ns3:cad>
          </ns3:TrackPointExtension>
        </extensions>
      </trkpt>
      <trkpt lat="43.8389937579631805419921875" lon="4.27540370263159275054931640625">
        <ele>151.399993896484375</ele>
        <time>2024-01-27T09:36:29.000Z</time>
        <extensions>
          <ns3:TrackPointExtension>
            <ns3:hr>167</ns3:hr>
            <ns3:cad>94</ns3:cad>
          </ns3:TrackPointExtension>
        </extensions>
      </trkpt>
      <trkpt lat="43.8390167243778705596923828125" lon="4.275406301021575927734375">
        <ele>151.399993896484375</ele>
        <time>2024-01-27T09:36:30.000Z</time>
        <extensions>
          <ns3:TrackPointExtension>
            <ns3:hr>167</ns3:hr>
            <ns3:cad>94</ns3:cad>
          </ns3:TrackPointExtension>
        </extensions>
      </trkpt>
      <trkpt lat="43.839043714106082916259765625" lon="4.27540604956448078155517578125">
        <ele>151.399993896484375</ele>
        <time>2024-01-27T09:36:31.000Z</time>
        <extensions>
          <ns3:TrackPointExtension>
            <ns3:hr>167</ns3:hr>
            <ns3:cad>94</ns3:cad>
          </ns3:TrackPointExtension>
        </extensions>
      </trkpt>
      <trkpt lat="43.83907028473913669586181640625" lon="4.275406636297702789306640625">
        <ele>151.399993896484375</ele>
        <time>2024-01-27T09:36:32.000Z</time>
        <extensions>
          <ns3:TrackPointExtension>
            <ns3:hr>167</ns3:hr>
            <ns3:cad>93</ns3:cad>
          </ns3:TrackPointExtension>
        </extensions>
      </trkpt>
      <trkpt lat="43.83909978903830051422119140625" lon="4.2754034511744976043701171875">
        <ele>151.399993896484375</ele>
        <time>2024-01-27T09:36:33.000Z</time>
        <extensions>
          <ns3:TrackPointExtension>
            <ns3:hr>167</ns3:hr>
            <ns3:cad>92</ns3:cad>
          </ns3:TrackPointExtension>
        </extensions>
      </trkpt>
      <trkpt lat="43.83912384510040283203125" lon="4.2754024453461170196533203125">
        <ele>151.399993896484375</ele>
        <time>2024-01-27T09:36:34.000Z</time>
        <extensions>
          <ns3:TrackPointExtension>
            <ns3:hr>167</ns3:hr>
            <ns3:cad>92</ns3:cad>
          </ns3:TrackPointExtension>
        </extensions>
      </trkpt>
      <trkpt lat="43.83914957754313945770263671875" lon="4.27540236152708530426025390625">
        <ele>151.399993896484375</ele>
        <time>2024-01-27T09:36:35.000Z</time>
        <extensions>
          <ns3:TrackPointExtension>
            <ns3:hr>167</ns3:hr>
            <ns3:cad>92</ns3:cad>
          </ns3:TrackPointExtension>
        </extensions>
      </trkpt>
      <trkpt lat="43.83917120285332202911376953125" lon="4.2754051275551319122314453125">
        <ele>151.399993896484375</ele>
        <time>2024-01-27T09:36:36.000Z</time>
        <extensions>
          <ns3:TrackPointExtension>
            <ns3:hr>167</ns3:hr>
            <ns3:cad>92</ns3:cad>
          </ns3:TrackPointExtension>
        </extensions>
      </trkpt>
      <trkpt lat="43.83919634856283664703369140625" lon="4.2754101566970348358154296875">
        <ele>151.399993896484375</ele>
        <time>2024-01-27T09:36:37.000Z</time>
        <extensions>
          <ns3:TrackPointExtension>
            <ns3:hr>167</ns3:hr>
            <ns3:cad>92</ns3:cad>
          </ns3:TrackPointExtension>
        </extensions>
      </trkpt>
      <trkpt lat="43.83922015316784381866455078125" lon="4.27541241981089115142822265625">
        <ele>151.399993896484375</ele>
        <time>2024-01-27T09:36:38.000Z</time>
        <extensions>
          <ns3:TrackPointExtension>
            <ns3:hr>167</ns3:hr>
            <ns3:cad>92</ns3:cad>
          </ns3:TrackPointExtension>
        </extensions>
      </trkpt>
      <trkpt lat="43.83925099857151508331298828125" lon="4.2754185386002063751220703125">
        <ele>151.399993896484375</ele>
        <time>2024-01-27T09:36:39.000Z</time>
        <extensions>
          <ns3:TrackPointExtension>
            <ns3:hr>167</ns3:hr>
            <ns3:cad>92</ns3:cad>
          </ns3:TrackPointExtension>
        </extensions>
      </trkpt>
      <trkpt lat="43.83927564136683940887451171875" lon="4.2754195444285869598388671875">
        <ele>151.399993896484375</ele>
        <time>2024-01-27T09:36:40.000Z</time>
        <extensions>
          <ns3:TrackPointExtension>
            <ns3:hr>167</ns3:hr>
            <ns3:cad>92</ns3:cad>
          </ns3:TrackPointExtension>
        </extensions>
      </trkpt>
      <trkpt lat="43.8393022119998931884765625" lon="4.27542247809469699859619140625">
        <ele>151.399993896484375</ele>
        <time>2024-01-27T09:36:41.000Z</time>
        <extensions>
          <ns3:TrackPointExtension>
            <ns3:hr>166</ns3:hr>
            <ns3:cad>91</ns3:cad>
          </ns3:TrackPointExtension>
        </extensions>
      </trkpt>
      <trkpt lat="43.839324675500392913818359375" lon="4.27542247809469699859619140625">
        <ele>151.399993896484375</ele>
        <time>2024-01-27T09:36:42.000Z</time>
        <extensions>
          <ns3:TrackPointExtension>
            <ns3:hr>166</ns3:hr>
            <ns3:cad>91</ns3:cad>
          </ns3:TrackPointExtension>
        </extensions>
      </trkpt>
      <trkpt lat="43.8393463008105754852294921875" lon="4.27542348392307758331298828125">
        <ele>151.399993896484375</ele>
        <time>2024-01-27T09:36:43.000Z</time>
        <extensions>
          <ns3:TrackPointExtension>
            <ns3:hr>166</ns3:hr>
            <ns3:cad>91</ns3:cad>
          </ns3:TrackPointExtension>
        </extensions>
      </trkpt>
      <trkpt lat="43.8393690995872020721435546875" lon="4.2754242382943630218505859375">
        <ele>151.600006103515625</ele>
        <time>2024-01-27T09:36:44.000Z</time>
        <extensions>
          <ns3:TrackPointExtension>
            <ns3:hr>166</ns3:hr>
            <ns3:cad>92</ns3:cad>
          </ns3:TrackPointExtension>
        </extensions>
      </trkpt>
      <trkpt lat="43.83938997052609920501708984375" lon="4.27542616613209247589111328125">
        <ele>151.600006103515625</ele>
        <time>2024-01-27T09:36:45.000Z</time>
        <extensions>
          <ns3:TrackPointExtension>
            <ns3:hr>166</ns3:hr>
            <ns3:cad>93</ns3:cad>
          </ns3:TrackPointExtension>
        </extensions>
      </trkpt>
      <trkpt lat="43.83941511623561382293701171875" lon="4.27542817778885364532470703125">
        <ele>151.399993896484375</ele>
        <time>2024-01-27T09:36:46.000Z</time>
        <extensions>
          <ns3:TrackPointExtension>
            <ns3:hr>166</ns3:hr>
            <ns3:cad>93</ns3:cad>
          </ns3:TrackPointExtension>
        </extensions>
      </trkpt>
      <trkpt lat="43.8394374959170818328857421875" lon="4.2754332907497882843017578125">
        <ele>151.399993896484375</ele>
        <time>2024-01-27T09:36:47.000Z</time>
        <extensions>
          <ns3:TrackPointExtension>
            <ns3:hr>166</ns3:hr>
            <ns3:cad>93</ns3:cad>
          </ns3:TrackPointExtension>
        </extensions>
      </trkpt>
      <trkpt lat="43.83946205489337444305419921875" lon="4.2754386551678180694580078125">
        <ele>151.399993896484375</ele>
        <time>2024-01-27T09:36:48.000Z</time>
        <extensions>
          <ns3:TrackPointExtension>
            <ns3:hr>165</ns3:hr>
            <ns3:cad>93</ns3:cad>
          </ns3:TrackPointExtension>
        </extensions>
      </trkpt>
      <trkpt lat="43.8394847698509693145751953125" lon="4.275440834462642669677734375">
        <ele>151.399993896484375</ele>
        <time>2024-01-27T09:36:49.000Z</time>
        <extensions>
          <ns3:TrackPointExtension>
            <ns3:hr>165</ns3:hr>
            <ns3:cad>93</ns3:cad>
          </ns3:TrackPointExtension>
        </extensions>
      </trkpt>
      <trkpt lat="43.83951083756983280181884765625" lon="4.275445528328418731689453125">
        <ele>151.600006103515625</ele>
        <time>2024-01-27T09:36:50.000Z</time>
        <extensions>
          <ns3:TrackPointExtension>
            <ns3:hr>164</ns3:hr>
            <ns3:cad>94</ns3:cad>
          </ns3:TrackPointExtension>
        </extensions>
      </trkpt>
      <trkpt lat="43.83953497745096683502197265625" lon="4.2754473723471164703369140625">
        <ele>151.600006103515625</ele>
        <time>2024-01-27T09:36:51.000Z</time>
        <extensions>
          <ns3:TrackPointExtension>
            <ns3:hr>164</ns3:hr>
            <ns3:cad>94</ns3:cad>
          </ns3:TrackPointExtension>
        </extensions>
      </trkpt>
      <trkpt lat="43.83956297300755977630615234375" lon="4.2754513956606388092041015625">
        <ele>151.600006103515625</ele>
        <time>2024-01-27T09:36:52.000Z</time>
        <extensions>
          <ns3:TrackPointExtension>
            <ns3:hr>164</ns3:hr>
            <ns3:cad>94</ns3:cad>
          </ns3:TrackPointExtension>
        </extensions>
      </trkpt>
      <trkpt lat="43.83958744816482067108154296875" lon="4.275452904403209686279296875">
        <ele>151.600006103515625</ele>
        <time>2024-01-27T09:36:53.000Z</time>
        <extensions>
          <ns3:TrackPointExtension>
            <ns3:hr>164</ns3:hr>
            <ns3:cad>93</ns3:cad>
          </ns3:TrackPointExtension>
        </extensions>
      </trkpt>
      <trkpt lat="43.83961133658885955810546875" lon="4.27545935846865177154541015625">
        <ele>151.8000030517578125</ele>
        <time>2024-01-27T09:36:54.000Z</time>
        <extensions>
          <ns3:TrackPointExtension>
            <ns3:hr>164</ns3:hr>
            <ns3:cad>93</ns3:cad>
          </ns3:TrackPointExtension>
        </extensions>
      </trkpt>
      <trkpt lat="43.83963723666965961456298828125" lon="4.275462962687015533447265625">
        <ele>151.8000030517578125</ele>
        <time>2024-01-27T09:36:55.000Z</time>
        <extensions>
          <ns3:TrackPointExtension>
            <ns3:hr>164</ns3:hr>
            <ns3:cad>93</ns3:cad>
          </ns3:TrackPointExtension>
        </extensions>
      </trkpt>
      <trkpt lat="43.839663974940776824951171875" lon="4.27546908147633075714111328125">
        <ele>152</ele>
        <time>2024-01-27T09:36:56.000Z</time>
        <extensions>
          <ns3:TrackPointExtension>
            <ns3:hr>164</ns3:hr>
            <ns3:cad>93</ns3:cad>
          </ns3:TrackPointExtension>
        </extensions>
      </trkpt>
      <trkpt lat="43.839693479239940643310546875" lon="4.27547528408467769622802734375">
        <ele>152</ele>
        <time>2024-01-27T09:36:57.000Z</time>
        <extensions>
          <ns3:TrackPointExtension>
            <ns3:hr>164</ns3:hr>
            <ns3:cad>93</ns3:cad>
          </ns3:TrackPointExtension>
        </extensions>
      </trkpt>
      <trkpt lat="43.83972189389169216156005859375" lon="4.27548282779753208160400390625">
        <ele>152</ele>
        <time>2024-01-27T09:36:58.000Z</time>
        <extensions>
          <ns3:TrackPointExtension>
            <ns3:hr>164</ns3:hr>
            <ns3:cad>93</ns3:cad>
          </ns3:TrackPointExtension>
        </extensions>
      </trkpt>
      <trkpt lat="43.83974988944828510284423828125" lon="4.27548986859619617462158203125">
        <ele>152</ele>
        <time>2024-01-27T09:36:59.000Z</time>
        <extensions>
          <ns3:TrackPointExtension>
            <ns3:hr>164</ns3:hr>
            <ns3:cad>93</ns3:cad>
          </ns3:TrackPointExtension>
        </extensions>
      </trkpt>
      <trkpt lat="43.839775621891021728515625" lon="4.27549657411873340606689453125">
        <ele>152</ele>
        <time>2024-01-27T09:37:00.000Z</time>
        <extensions>
          <ns3:TrackPointExtension>
            <ns3:hr>164</ns3:hr>
            <ns3:cad>93</ns3:cad>
          </ns3:TrackPointExtension>
        </extensions>
      </trkpt>
      <trkpt lat="43.8397999294102191925048828125" lon="4.2755020223557949066162109375">
        <ele>152</ele>
        <time>2024-01-27T09:37:01.000Z</time>
        <extensions>
          <ns3:TrackPointExtension>
            <ns3:hr>164</ns3:hr>
            <ns3:cad>93</ns3:cad>
          </ns3:TrackPointExtension>
        </extensions>
      </trkpt>
      <trkpt lat="43.83981996215879917144775390625" lon="4.27550663240253925323486328125">
        <ele>152.1999969482421875</ele>
        <time>2024-01-27T09:37:02.000Z</time>
        <extensions>
          <ns3:TrackPointExtension>
            <ns3:hr>164</ns3:hr>
            <ns3:cad>93</ns3:cad>
          </ns3:TrackPointExtension>
        </extensions>
      </trkpt>
      <trkpt lat="43.8398448564112186431884765625" lon="4.2755100689828395843505859375">
        <ele>152.1999969482421875</ele>
        <time>2024-01-27T09:37:03.000Z</time>
        <extensions>
          <ns3:TrackPointExtension>
            <ns3:hr>164</ns3:hr>
            <ns3:cad>93</ns3:cad>
          </ns3:TrackPointExtension>
        </extensions>
      </trkpt>
      <trkpt lat="43.83986790664494037628173828125" lon="4.275511913001537322998046875">
        <ele>152.1999969482421875</ele>
        <time>2024-01-27T09:37:04.000Z</time>
        <extensions>
          <ns3:TrackPointExtension>
            <ns3:hr>164</ns3:hr>
            <ns3:cad>92</ns3:cad>
          </ns3:TrackPointExtension>
        </extensions>
      </trkpt>
      <trkpt lat="43.83989640511572360992431640625" lon="4.27551635541021823883056640625">
        <ele>152.399993896484375</ele>
        <time>2024-01-27T09:37:05.000Z</time>
        <extensions>
          <ns3:TrackPointExtension>
            <ns3:hr>164</ns3:hr>
            <ns3:cad>92</ns3:cad>
          </ns3:TrackPointExtension>
        </extensions>
      </trkpt>
      <trkpt lat="43.839922808110713958740234375" lon="4.27552171982824802398681640625">
        <ele>152.399993896484375</ele>
        <time>2024-01-27T09:37:06.000Z</time>
        <extensions>
          <ns3:TrackPointExtension>
            <ns3:hr>164</ns3:hr>
            <ns3:cad>93</ns3:cad>
          </ns3:TrackPointExtension>
        </extensions>
      </trkpt>
      <trkpt lat="43.83994988165795803070068359375" lon="4.27552876062691211700439453125">
        <ele>152.600006103515625</ele>
        <time>2024-01-27T09:37:07.000Z</time>
        <extensions>
          <ns3:TrackPointExtension>
            <ns3:hr>164</ns3:hr>
            <ns3:cad>93</ns3:cad>
          </ns3:TrackPointExtension>
        </extensions>
      </trkpt>
      <trkpt lat="43.8399727642536163330078125" lon="4.275529682636260986328125">
        <ele>152.8000030517578125</ele>
        <time>2024-01-27T09:37:08.000Z</time>
        <extensions>
          <ns3:TrackPointExtension>
            <ns3:hr>164</ns3:hr>
            <ns3:cad>93</ns3:cad>
          </ns3:TrackPointExtension>
        </extensions>
      </trkpt>
      <trkpt lat="43.83999598212540149688720703125" lon="4.2755382321774959564208984375">
        <ele>152.8000030517578125</ele>
        <time>2024-01-27T09:37:09.000Z</time>
        <extensions>
          <ns3:TrackPointExtension>
            <ns3:hr>164</ns3:hr>
            <ns3:cad>93</ns3:cad>
          </ns3:TrackPointExtension>
        </extensions>
      </trkpt>
      <trkpt lat="43.840017355978488922119140625" lon="4.27553932182490825653076171875">
        <ele>153</ele>
        <time>2024-01-27T09:37:10.000Z</time>
        <extensions>
          <ns3:TrackPointExtension>
            <ns3:hr>164</ns3:hr>
            <ns3:cad>92</ns3:cad>
          </ns3:TrackPointExtension>
        </extensions>
      </trkpt>
      <trkpt lat="43.84004359133541584014892578125" lon="4.27554217167198657989501953125">
        <ele>153</ele>
        <time>2024-01-27T09:37:11.000Z</time>
        <extensions>
          <ns3:TrackPointExtension>
            <ns3:hr>164</ns3:hr>
            <ns3:cad>92</ns3:cad>
          </ns3:TrackPointExtension>
        </extensions>
      </trkpt>
      <trkpt lat="43.8400639593601226806640625" lon="4.27554376423358917236328125">
        <ele>153.1999969482421875</ele>
        <time>2024-01-27T09:37:12.000Z</time>
        <extensions>
          <ns3:TrackPointExtension>
            <ns3:hr>165</ns3:hr>
            <ns3:cad>94</ns3:cad>
          </ns3:TrackPointExtension>
        </extensions>
      </trkpt>
      <trkpt lat="43.84008583612740039825439453125" lon="4.27554803900420665740966796875">
        <ele>153.399993896484375</ele>
        <time>2024-01-27T09:37:13.000Z</time>
        <extensions>
          <ns3:TrackPointExtension>
            <ns3:hr>165</ns3:hr>
            <ns3:cad>94</ns3:cad>
          </ns3:TrackPointExtension>
        </extensions>
      </trkpt>
      <trkpt lat="43.84010947309434413909912109375" lon="4.27555139176547527313232421875">
        <ele>153.399993896484375</ele>
        <time>2024-01-27T09:37:14.000Z</time>
        <extensions>
          <ns3:TrackPointExtension>
            <ns3:hr>165</ns3:hr>
            <ns3:cad>94</ns3:cad>
          </ns3:TrackPointExtension>
        </extensions>
      </trkpt>
      <trkpt lat="43.840130679309368133544921875" lon="4.27556027658283710479736328125">
        <ele>153.600006103515625</ele>
        <time>2024-01-27T09:37:15.000Z</time>
        <extensions>
          <ns3:TrackPointExtension>
            <ns3:hr>165</ns3:hr>
            <ns3:cad>94</ns3:cad>
          </ns3:TrackPointExtension>
        </extensions>
      </trkpt>
      <trkpt lat="43.84015272371470928192138671875" lon="4.275568909943103790283203125">
        <ele>153.600006103515625</ele>
        <time>2024-01-27T09:37:16.000Z</time>
        <extensions>
          <ns3:TrackPointExtension>
            <ns3:hr>165</ns3:hr>
            <ns3:cad>94</ns3:cad>
          </ns3:TrackPointExtension>
        </extensions>
      </trkpt>
      <trkpt lat="43.8401757739484310150146484375" lon="4.2755761183798313140869140625">
        <ele>153.8000030517578125</ele>
        <time>2024-01-27T09:37:17.000Z</time>
        <extensions>
          <ns3:TrackPointExtension>
            <ns3:hr>165</ns3:hr>
            <ns3:cad>94</ns3:cad>
          </ns3:TrackPointExtension>
        </extensions>
      </trkpt>
      <trkpt lat="43.840202428400516510009765625" lon="4.27558441646397113800048828125">
        <ele>154</ele>
        <time>2024-01-27T09:37:18.000Z</time>
        <extensions>
          <ns3:TrackPointExtension>
            <ns3:hr>165</ns3:hr>
            <ns3:cad>94</ns3:cad>
          </ns3:TrackPointExtension>
        </extensions>
      </trkpt>
      <trkpt lat="43.840223886072635650634765625" lon="4.27558508701622486114501953125">
        <ele>154.1999969482421875</ele>
        <time>2024-01-27T09:37:19.000Z</time>
        <extensions>
          <ns3:TrackPointExtension>
            <ns3:hr>165</ns3:hr>
            <ns3:cad>92</ns3:cad>
          </ns3:TrackPointExtension>
        </extensions>
      </trkpt>
      <trkpt lat="43.84025045670568943023681640625" lon="4.27558843977749347686767578125">
        <ele>154.399993896484375</ele>
        <time>2024-01-27T09:37:20.000Z</time>
        <extensions>
          <ns3:TrackPointExtension>
            <ns3:hr>165</ns3:hr>
            <ns3:cad>91</ns3:cad>
          </ns3:TrackPointExtension>
        </extensions>
      </trkpt>
      <trkpt lat="43.84027711115777492523193359375" lon="4.275587014853954315185546875">
        <ele>154.600006103515625</ele>
        <time>2024-01-27T09:37:21.000Z</time>
        <extensions>
          <ns3:TrackPointExtension>
            <ns3:hr>165</ns3:hr>
            <ns3:cad>91</ns3:cad>
          </ns3:TrackPointExtension>
        </extensions>
      </trkpt>
      <trkpt lat="43.84030108340084552764892578125" lon="4.27558743394911289215087890625">
        <ele>154.8000030517578125</ele>
        <time>2024-01-27T09:37:22.000Z</time>
        <extensions>
          <ns3:TrackPointExtension>
            <ns3:hr>166</ns3:hr>
            <ns3:cad>92</ns3:cad>
          </ns3:TrackPointExtension>
        </extensions>
      </trkpt>
      <trkpt lat="43.84032270871102809906005859375" lon="4.27558810450136661529541015625">
        <ele>154.8000030517578125</ele>
        <time>2024-01-27T09:37:23.000Z</time>
        <extensions>
          <ns3:TrackPointExtension>
            <ns3:hr>166</ns3:hr>
            <ns3:cad>92</ns3:cad>
          </ns3:TrackPointExtension>
        </extensions>
      </trkpt>
      <trkpt lat="43.84034399874508380889892578125" lon="4.27559145726263523101806640625">
        <ele>155</ele>
        <time>2024-01-27T09:37:24.000Z</time>
        <extensions>
          <ns3:TrackPointExtension>
            <ns3:hr>166</ns3:hr>
            <ns3:cad>93</ns3:cad>
          </ns3:TrackPointExtension>
        </extensions>
      </trkpt>
      <trkpt lat="43.8403641991317272186279296875" lon="4.27559665404260158538818359375">
        <ele>155</ele>
        <time>2024-01-27T09:37:25.000Z</time>
        <extensions>
          <ns3:TrackPointExtension>
            <ns3:hr>166</ns3:hr>
            <ns3:cad>93</ns3:cad>
          </ns3:TrackPointExtension>
        </extensions>
      </trkpt>
      <trkpt lat="43.84038238786160945892333984375" lon="4.2755982466042041778564453125">
        <ele>155.1999969482421875</ele>
        <time>2024-01-27T09:37:26.000Z</time>
        <extensions>
          <ns3:TrackPointExtension>
            <ns3:hr>166</ns3:hr>
            <ns3:cad>93</ns3:cad>
          </ns3:TrackPointExtension>
        </extensions>
      </trkpt>
      <trkpt lat="43.84040351025760173797607421875" lon="4.2756034433841705322265625">
        <ele>155.399993896484375</ele>
        <time>2024-01-27T09:37:27.000Z</time>
        <extensions>
          <ns3:TrackPointExtension>
            <ns3:hr>166</ns3:hr>
            <ns3:cad>93</ns3:cad>
          </ns3:TrackPointExtension>
        </extensions>
      </trkpt>
      <trkpt lat="43.84042714722454547882080078125" lon="4.27560503594577312469482421875">
        <ele>155.399993896484375</ele>
        <time>2024-01-27T09:37:28.000Z</time>
        <extensions>
          <ns3:TrackPointExtension>
            <ns3:hr>166</ns3:hr>
            <ns3:cad>93</ns3:cad>
          </ns3:TrackPointExtension>
        </extensions>
      </trkpt>
      <trkpt lat="43.84045614860951900482177734375" lon="4.275611825287342071533203125">
        <ele>155.600006103515625</ele>
        <time>2024-01-27T09:37:29.000Z</time>
        <extensions>
          <ns3:TrackPointExtension>
            <ns3:hr>166</ns3:hr>
            <ns3:cad>93</ns3:cad>
          </ns3:TrackPointExtension>
        </extensions>
      </trkpt>
      <trkpt lat="43.84048162959516048431396484375" lon="4.27561484277248382568359375">
        <ele>155.8000030517578125</ele>
        <time>2024-01-27T09:37:30.000Z</time>
        <extensions>
          <ns3:TrackPointExtension>
            <ns3:hr>166</ns3:hr>
            <ns3:cad>93</ns3:cad>
          </ns3:TrackPointExtension>
        </extensions>
      </trkpt>
      <trkpt lat="43.8405063562095165252685546875" lon="4.27562599070370197296142578125">
        <ele>156</ele>
        <time>2024-01-27T09:37:31.000Z</time>
        <extensions>
          <ns3:TrackPointExtension>
            <ns3:hr>166</ns3:hr>
            <ns3:cad>93</ns3:cad>
          </ns3:TrackPointExtension>
        </extensions>
      </trkpt>
      <trkpt lat="43.840528316795825958251953125" lon="4.27563370205461978912353515625">
        <ele>156.1999969482421875</ele>
        <time>2024-01-27T09:37:32.000Z</time>
        <extensions>
          <ns3:TrackPointExtension>
            <ns3:hr>166</ns3:hr>
            <ns3:cad>92</ns3:cad>
          </ns3:TrackPointExtension>
        </extensions>
      </trkpt>
      <trkpt lat="43.840549774467945098876953125" lon="4.2756431736052036285400390625">
        <ele>156.1999969482421875</ele>
        <time>2024-01-27T09:37:33.000Z</time>
        <extensions>
          <ns3:TrackPointExtension>
            <ns3:hr>165</ns3:hr>
            <ns3:cad>92</ns3:cad>
          </ns3:TrackPointExtension>
        </extensions>
      </trkpt>
      <trkpt lat="43.84056947194039821624755859375" lon="4.27564845420420169830322265625">
        <ele>156.399993896484375</ele>
        <time>2024-01-27T09:37:34.000Z</time>
        <extensions>
          <ns3:TrackPointExtension>
            <ns3:hr>166</ns3:hr>
            <ns3:cad>92</ns3:cad>
          </ns3:TrackPointExtension>
        </extensions>
      </trkpt>
      <trkpt lat="43.840590007603168487548828125" lon="4.275652728974819183349609375">
        <ele>156.600006103515625</ele>
        <time>2024-01-27T09:37:35.000Z</time>
        <extensions>
          <ns3:TrackPointExtension>
            <ns3:hr>166</ns3:hr>
            <ns3:cad>92</ns3:cad>
          </ns3:TrackPointExtension>
        </extensions>
      </trkpt>
      <trkpt lat="43.84061506949365139007568359375" lon="4.2756589315831661224365234375">
        <ele>156.600006103515625</ele>
        <time>2024-01-27T09:37:36.000Z</time>
        <extensions>
          <ns3:TrackPointExtension>
            <ns3:hr>166</ns3:hr>
            <ns3:cad>93</ns3:cad>
          </ns3:TrackPointExtension>
        </extensions>
      </trkpt>
      <trkpt lat="43.84063803590834140777587890625" lon="4.27566303871572017669677734375">
        <ele>156.600006103515625</ele>
        <time>2024-01-27T09:37:37.000Z</time>
        <extensions>
          <ns3:TrackPointExtension>
            <ns3:hr>165</ns3:hr>
            <ns3:cad>93</ns3:cad>
          </ns3:TrackPointExtension>
        </extensions>
      </trkpt>
      <trkpt lat="43.84066301397979259490966796875" lon="4.27566672675311565399169921875">
        <ele>156.600006103515625</ele>
        <time>2024-01-27T09:37:38.000Z</time>
        <extensions>
          <ns3:TrackPointExtension>
            <ns3:hr>166</ns3:hr>
            <ns3:cad>93</ns3:cad>
          </ns3:TrackPointExtension>
        </extensions>
      </trkpt>
      <trkpt lat="43.84068396873772144317626953125" lon="4.275669157505035400390625">
        <ele>156.8000030517578125</ele>
        <time>2024-01-27T09:37:39.000Z</time>
        <extensions>
          <ns3:TrackPointExtension>
            <ns3:hr>166</ns3:hr>
            <ns3:cad>93</ns3:cad>
          </ns3:TrackPointExtension>
        </extensions>
      </trkpt>
      <trkpt lat="43.84070710279047489166259765625" lon="4.2756767012178897857666015625">
        <ele>156.8000030517578125</ele>
        <time>2024-01-27T09:37:40.000Z</time>
        <extensions>
          <ns3:TrackPointExtension>
            <ns3:hr>165</ns3:hr>
            <ns3:cad>93</ns3:cad>
          </ns3:TrackPointExtension>
        </extensions>
      </trkpt>
      <trkpt lat="43.8407293148338794708251953125" lon="4.27568047307431697845458984375">
        <ele>157</ele>
        <time>2024-01-27T09:37:41.000Z</time>
        <extensions>
          <ns3:TrackPointExtension>
            <ns3:hr>165</ns3:hr>
            <ns3:cad>93</ns3:cad>
          </ns3:TrackPointExtension>
        </extensions>
      </trkpt>
      <trkpt lat="43.84075286798179149627685546875" lon="4.27569069899618625640869140625">
        <ele>157</ele>
        <time>2024-01-27T09:37:42.000Z</time>
        <extensions>
          <ns3:TrackPointExtension>
            <ns3:hr>165</ns3:hr>
            <ns3:cad>91</ns3:cad>
          </ns3:TrackPointExtension>
        </extensions>
      </trkpt>
      <trkpt lat="43.84077684022486209869384765625" lon="4.27569572813808917999267578125">
        <ele>157.1999969482421875</ele>
        <time>2024-01-27T09:37:43.000Z</time>
        <extensions>
          <ns3:TrackPointExtension>
            <ns3:hr>165</ns3:hr>
            <ns3:cad>91</ns3:cad>
          </ns3:TrackPointExtension>
        </extensions>
      </trkpt>
      <trkpt lat="43.84080165065824985504150390625" lon="4.27570595405995845794677734375">
        <ele>157.1999969482421875</ele>
        <time>2024-01-27T09:37:44.000Z</time>
        <extensions>
          <ns3:TrackPointExtension>
            <ns3:hr>164</ns3:hr>
            <ns3:cad>91</ns3:cad>
          </ns3:TrackPointExtension>
        </extensions>
      </trkpt>
      <trkpt lat="43.840824030339717864990234375" lon="4.27570997737348079681396484375">
        <ele>157.1999969482421875</ele>
        <time>2024-01-27T09:37:45.000Z</time>
        <extensions>
          <ns3:TrackPointExtension>
            <ns3:hr>163</ns3:hr>
            <ns3:cad>92</ns3:cad>
          </ns3:TrackPointExtension>
        </extensions>
      </trkpt>
      <trkpt lat="43.84084917604923248291015625" lon="4.2757186107337474822998046875">
        <ele>157.399993896484375</ele>
        <time>2024-01-27T09:37:46.000Z</time>
        <extensions>
          <ns3:TrackPointExtension>
            <ns3:hr>163</ns3:hr>
            <ns3:cad>93</ns3:cad>
          </ns3:TrackPointExtension>
        </extensions>
      </trkpt>
      <trkpt lat="43.84087356738746166229248046875" lon="4.275721795856952667236328125">
        <ele>157.600006103515625</ele>
        <time>2024-01-27T09:37:47.000Z</time>
        <extensions>
          <ns3:TrackPointExtension>
            <ns3:hr>162</ns3:hr>
            <ns3:cad>93</ns3:cad>
          </ns3:TrackPointExtension>
        </extensions>
      </trkpt>
      <trkpt lat="43.8408989645540714263916015625" lon="4.2757296748459339141845703125">
        <ele>157.600006103515625</ele>
        <time>2024-01-27T09:37:48.000Z</time>
        <extensions>
          <ns3:TrackPointExtension>
            <ns3:hr>162</ns3:hr>
            <ns3:cad>93</ns3:cad>
          </ns3:TrackPointExtension>
        </extensions>
      </trkpt>
      <trkpt lat="43.8409257866442203521728515625" lon="4.2757397331297397613525390625">
        <ele>157.8000030517578125</ele>
        <time>2024-01-27T09:37:49.000Z</time>
        <extensions>
          <ns3:TrackPointExtension>
            <ns3:hr>162</ns3:hr>
            <ns3:cad>93</ns3:cad>
          </ns3:TrackPointExtension>
        </extensions>
      </trkpt>
      <trkpt lat="43.840949423611164093017578125" lon="4.2757507972419261932373046875">
        <ele>157.8000030517578125</ele>
        <time>2024-01-27T09:37:50.000Z</time>
        <extensions>
          <ns3:TrackPointExtension>
            <ns3:hr>161</ns3:hr>
            <ns3:cad>93</ns3:cad>
          </ns3:TrackPointExtension>
        </extensions>
      </trkpt>
      <trkpt lat="43.8409780897200107574462890625" lon="4.27576328627765178680419921875">
        <ele>157.8000030517578125</ele>
        <time>2024-01-27T09:37:51.000Z</time>
        <extensions>
          <ns3:TrackPointExtension>
            <ns3:hr>161</ns3:hr>
            <ns3:cad>93</ns3:cad>
          </ns3:TrackPointExtension>
        </extensions>
      </trkpt>
      <trkpt lat="43.8409998826682567596435546875" lon="4.27577233873307704925537109375">
        <ele>157.8000030517578125</ele>
        <time>2024-01-27T09:37:52.000Z</time>
        <extensions>
          <ns3:TrackPointExtension>
            <ns3:hr>161</ns3:hr>
            <ns3:cad>93</ns3:cad>
          </ns3:TrackPointExtension>
        </extensions>
      </trkpt>
      <trkpt lat="43.84102527983486652374267578125" lon="4.27578357048332691192626953125">
        <ele>158</ele>
        <time>2024-01-27T09:37:53.000Z</time>
        <extensions>
          <ns3:TrackPointExtension>
            <ns3:hr>161</ns3:hr>
            <ns3:cad>93</ns3:cad>
          </ns3:TrackPointExtension>
        </extensions>
      </trkpt>
      <trkpt lat="43.8410451449453830718994140625" lon="4.27579178474843502044677734375">
        <ele>158</ele>
        <time>2024-01-27T09:37:54.000Z</time>
        <extensions>
          <ns3:TrackPointExtension>
            <ns3:hr>161</ns3:hr>
            <ns3:cad>93</ns3:cad>
          </ns3:TrackPointExtension>
        </extensions>
      </trkpt>
      <trkpt lat="43.84106903336942195892333984375" lon="4.275800921022891998291015625">
        <ele>158</ele>
        <time>2024-01-27T09:37:55.000Z</time>
        <extensions>
          <ns3:TrackPointExtension>
            <ns3:hr>161</ns3:hr>
            <ns3:cad>93</ns3:cad>
          </ns3:TrackPointExtension>
        </extensions>
      </trkpt>
      <trkpt lat="43.8410907424986362457275390625" lon="4.27580301649868488311767578125">
        <ele>158.1999969482421875</ele>
        <time>2024-01-27T09:37:56.000Z</time>
        <extensions>
          <ns3:TrackPointExtension>
            <ns3:hr>161</ns3:hr>
            <ns3:cad>92</ns3:cad>
          </ns3:TrackPointExtension>
        </extensions>
      </trkpt>
      <trkpt lat="43.84111580438911914825439453125" lon="4.275804944336414337158203125">
        <ele>158.1999969482421875</ele>
        <time>2024-01-27T09:37:57.000Z</time>
        <extensions>
          <ns3:TrackPointExtension>
            <ns3:hr>161</ns3:hr>
            <ns3:cad>92</ns3:cad>
          </ns3:TrackPointExtension>
        </extensions>
      </trkpt>
      <trkpt lat="43.841139860451221466064453125" lon="4.27580251358449459075927734375">
        <ele>158.1999969482421875</ele>
        <time>2024-01-27T09:37:58.000Z</time>
        <extensions>
          <ns3:TrackPointExtension>
            <ns3:hr>160</ns3:hr>
            <ns3:cad>92</ns3:cad>
          </ns3:TrackPointExtension>
        </extensions>
      </trkpt>
      <trkpt lat="43.8411658443510532379150390625" lon="4.2758046090602874755859375">
        <ele>158.399993896484375</ele>
        <time>2024-01-27T09:37:59.000Z</time>
        <extensions>
          <ns3:TrackPointExtension>
            <ns3:hr>160</ns3:hr>
            <ns3:cad>92</ns3:cad>
          </ns3:TrackPointExtension>
        </extensions>
      </trkpt>
      <trkpt lat="43.84118772111833095550537109375" lon="4.27580385468900203704833984375">
        <ele>158.399993896484375</ele>
        <time>2024-01-27T09:38:00.000Z</time>
        <extensions>
          <ns3:TrackPointExtension>
            <ns3:hr>160</ns3:hr>
            <ns3:cad>93</ns3:cad>
          </ns3:TrackPointExtension>
        </extensions>
      </trkpt>
      <trkpt lat="43.8412144593894481658935546875" lon="4.2758094705641269683837890625">
        <ele>158.399993896484375</ele>
        <time>2024-01-27T09:38:01.000Z</time>
        <extensions>
          <ns3:TrackPointExtension>
            <ns3:hr>160</ns3:hr>
            <ns3:cad>93</ns3:cad>
          </ns3:TrackPointExtension>
        </extensions>
      </trkpt>
      <trkpt lat="43.8412382639944553375244140625" lon="4.2758118174970149993896484375">
        <ele>158.600006103515625</ele>
        <time>2024-01-27T09:38:02.000Z</time>
        <extensions>
          <ns3:TrackPointExtension>
            <ns3:hr>160</ns3:hr>
            <ns3:cad>93</ns3:cad>
          </ns3:TrackPointExtension>
        </extensions>
      </trkpt>
      <trkpt lat="43.8412654213607311248779296875" lon="4.2758185230195522308349609375">
        <ele>158.600006103515625</ele>
        <time>2024-01-27T09:38:03.000Z</time>
        <extensions>
          <ns3:TrackPointExtension>
            <ns3:hr>160</ns3:hr>
            <ns3:cad>93</ns3:cad>
          </ns3:TrackPointExtension>
        </extensions>
      </trkpt>
      <trkpt lat="43.84129014797508716583251953125" lon="4.27582003176212310791015625">
        <ele>158.8000030517578125</ele>
        <time>2024-01-27T09:38:04.000Z</time>
        <extensions>
          <ns3:TrackPointExtension>
            <ns3:hr>159</ns3:hr>
            <ns3:cad>93</ns3:cad>
          </ns3:TrackPointExtension>
        </extensions>
      </trkpt>
      <trkpt lat="43.841316215693950653076171875" lon="4.27582212723791599273681640625">
        <ele>158.8000030517578125</ele>
        <time>2024-01-27T09:38:05.000Z</time>
        <extensions>
          <ns3:TrackPointExtension>
            <ns3:hr>159</ns3:hr>
            <ns3:cad>92</ns3:cad>
          </ns3:TrackPointExtension>
        </extensions>
      </trkpt>
      <trkpt lat="43.8413432054221630096435546875" lon="4.2758195288479328155517578125">
        <ele>158.8000030517578125</ele>
        <time>2024-01-27T09:38:06.000Z</time>
        <extensions>
          <ns3:TrackPointExtension>
            <ns3:hr>159</ns3:hr>
            <ns3:cad>92</ns3:cad>
          </ns3:TrackPointExtension>
        </extensions>
      </trkpt>
      <trkpt lat="43.84136692620813846588134765625" lon="4.2758166790008544921875">
        <ele>159</ele>
        <time>2024-01-27T09:38:07.000Z</time>
        <extensions>
          <ns3:TrackPointExtension>
            <ns3:hr>159</ns3:hr>
            <ns3:cad>92</ns3:cad>
          </ns3:TrackPointExtension>
        </extensions>
      </trkpt>
      <trkpt lat="43.8413931615650653839111328125" lon="4.2758126556873321533203125">
        <ele>159</ele>
        <time>2024-01-27T09:38:08.000Z</time>
        <extensions>
          <ns3:TrackPointExtension>
            <ns3:hr>159</ns3:hr>
            <ns3:cad>93</ns3:cad>
          </ns3:TrackPointExtension>
        </extensions>
      </trkpt>
      <trkpt lat="43.841414116322994232177734375" lon="4.27580871619284152984619140625">
        <ele>159</ele>
        <time>2024-01-27T09:38:09.000Z</time>
        <extensions>
          <ns3:TrackPointExtension>
            <ns3:hr>159</ns3:hr>
            <ns3:cad>93</ns3:cad>
          </ns3:TrackPointExtension>
        </extensions>
      </trkpt>
      <trkpt lat="43.84143515489995479583740234375" lon="4.275808297097682952880859375">
        <ele>159</ele>
        <time>2024-01-27T09:38:10.000Z</time>
        <extensions>
          <ns3:TrackPointExtension>
            <ns3:hr>159</ns3:hr>
            <ns3:cad>93</ns3:cad>
          </ns3:TrackPointExtension>
        </extensions>
      </trkpt>
      <trkpt lat="43.8414525054395198822021484375" lon="4.2758071236312389373779296875">
        <ele>159</ele>
        <time>2024-01-27T09:38:11.000Z</time>
        <extensions>
          <ns3:TrackPointExtension>
            <ns3:hr>159</ns3:hr>
            <ns3:cad>93</ns3:cad>
          </ns3:TrackPointExtension>
        </extensions>
      </trkpt>
      <trkpt lat="43.8414746336638927459716796875" lon="4.27580620162189006805419921875">
        <ele>159</ele>
        <time>2024-01-27T09:38:12.000Z</time>
        <extensions>
          <ns3:TrackPointExtension>
            <ns3:hr>159</ns3:hr>
            <ns3:cad>93</ns3:cad>
          </ns3:TrackPointExtension>
        </extensions>
      </trkpt>
      <trkpt lat="43.8414957560598850250244140625" lon="4.27580100484192371368408203125">
        <ele>159.1999969482421875</ele>
        <time>2024-01-27T09:38:13.000Z</time>
        <extensions>
          <ns3:TrackPointExtension>
            <ns3:hr>159</ns3:hr>
            <ns3:cad>93</ns3:cad>
          </ns3:TrackPointExtension>
        </extensions>
      </trkpt>
      <trkpt lat="43.84152031503617763519287109375" lon="4.27579647861421108245849609375">
        <ele>159.1999969482421875</ele>
        <time>2024-01-27T09:38:14.000Z</time>
        <extensions>
          <ns3:TrackPointExtension>
            <ns3:hr>159</ns3:hr>
            <ns3:cad>92</ns3:cad>
          </ns3:TrackPointExtension>
        </extensions>
      </trkpt>
      <trkpt lat="43.8415431976318359375" lon="4.27578960545361042022705078125">
        <ele>159.1999969482421875</ele>
        <time>2024-01-27T09:38:15.000Z</time>
        <extensions>
          <ns3:TrackPointExtension>
            <ns3:hr>159</ns3:hr>
            <ns3:cad>92</ns3:cad>
          </ns3:TrackPointExtension>
        </extensions>
      </trkpt>
      <trkpt lat="43.84156608022749423980712890625" lon="4.2757893539965152740478515625">
        <ele>159.1999969482421875</ele>
        <time>2024-01-27T09:38:16.000Z</time>
        <extensions>
          <ns3:TrackPointExtension>
            <ns3:hr>159</ns3:hr>
            <ns3:cad>91</ns3:cad>
          </ns3:TrackPointExtension>
        </extensions>
      </trkpt>
      <trkpt lat="43.84158737026154994964599609375" lon="4.2757886834442615509033203125">
        <ele>159.399993896484375</ele>
        <time>2024-01-27T09:38:17.000Z</time>
        <extensions>
          <ns3:TrackPointExtension>
            <ns3:hr>159</ns3:hr>
            <ns3:cad>91</ns3:cad>
          </ns3:TrackPointExtension>
        </extensions>
      </trkpt>
      <trkpt lat="43.84161234833300113677978515625" lon="4.2757886834442615509033203125">
        <ele>159.399993896484375</ele>
        <time>2024-01-27T09:38:18.000Z</time>
        <extensions>
          <ns3:TrackPointExtension>
            <ns3:hr>159</ns3:hr>
            <ns3:cad>94</ns3:cad>
          </ns3:TrackPointExtension>
        </extensions>
      </trkpt>
      <trkpt lat="43.841635398566722869873046875" lon="4.27578709088265895843505859375">
        <ele>159.399993896484375</ele>
        <time>2024-01-27T09:38:19.000Z</time>
        <extensions>
          <ns3:TrackPointExtension>
            <ns3:hr>159</ns3:hr>
            <ns3:cad>94</ns3:cad>
          </ns3:TrackPointExtension>
        </extensions>
      </trkpt>
      <trkpt lat="43.84165526367723941802978515625" lon="4.2757913656532764434814453125">
        <ele>159.600006103515625</ele>
        <time>2024-01-27T09:38:20.000Z</time>
        <extensions>
          <ns3:TrackPointExtension>
            <ns3:hr>158</ns3:hr>
            <ns3:cad>92</ns3:cad>
          </ns3:TrackPointExtension>
        </extensions>
      </trkpt>
      <trkpt lat="43.8416741229593753814697265625" lon="4.27579530514776706695556640625">
        <ele>159.600006103515625</ele>
        <time>2024-01-27T09:38:21.000Z</time>
        <extensions>
          <ns3:TrackPointExtension>
            <ns3:hr>158</ns3:hr>
            <ns3:cad>92</ns3:cad>
          </ns3:TrackPointExtension>
        </extensions>
      </trkpt>
      <trkpt lat="43.84169298224151134490966796875" lon="4.27579714916646480560302734375">
        <ele>159.8000030517578125</ele>
        <time>2024-01-27T09:38:22.000Z</time>
        <extensions>
          <ns3:TrackPointExtension>
            <ns3:hr>158</ns3:hr>
            <ns3:cad>94</ns3:cad>
          </ns3:TrackPointExtension>
        </extensions>
      </trkpt>
      <trkpt lat="43.84171745739877223968505859375" lon="4.27579999901354312896728515625">
        <ele>159.8000030517578125</ele>
        <time>2024-01-27T09:38:23.000Z</time>
        <extensions>
          <ns3:TrackPointExtension>
            <ns3:hr>158</ns3:hr>
            <ns3:cad>94</ns3:cad>
          </ns3:TrackPointExtension>
        </extensions>
      </trkpt>
      <trkpt lat="43.8417398370802402496337890625" lon="4.2758024297654628753662109375">
        <ele>159.8000030517578125</ele>
        <time>2024-01-27T09:38:24.000Z</time>
        <extensions>
          <ns3:TrackPointExtension>
            <ns3:hr>158</ns3:hr>
            <ns3:cad>94</ns3:cad>
          </ns3:TrackPointExtension>
        </extensions>
      </trkpt>
      <trkpt lat="43.841766826808452606201171875" lon="4.27580771036446094512939453125">
        <ele>160</ele>
        <time>2024-01-27T09:38:25.000Z</time>
        <extensions>
          <ns3:TrackPointExtension>
            <ns3:hr>158</ns3:hr>
            <ns3:cad>91</ns3:cad>
          </ns3:TrackPointExtension>
        </extensions>
      </trkpt>
      <trkpt lat="43.84179021231830120086669921875" lon="4.2758057825267314910888671875">
        <ele>160</ele>
        <time>2024-01-27T09:38:26.000Z</time>
        <extensions>
          <ns3:TrackPointExtension>
            <ns3:hr>158</ns3:hr>
            <ns3:cad>91</ns3:cad>
          </ns3:TrackPointExtension>
        </extensions>
      </trkpt>
      <trkpt lat="43.8418179564177989959716796875" lon="4.27580553106963634490966796875">
        <ele>160</ele>
        <time>2024-01-27T09:38:27.000Z</time>
        <extensions>
          <ns3:TrackPointExtension>
            <ns3:hr>159</ns3:hr>
            <ns3:cad>92</ns3:cad>
          </ns3:TrackPointExtension>
        </extensions>
      </trkpt>
      <trkpt lat="43.8418422639369964599609375" lon="4.2758024297654628753662109375">
        <ele>160.1999969482421875</ele>
        <time>2024-01-27T09:38:28.000Z</time>
        <extensions>
          <ns3:TrackPointExtension>
            <ns3:hr>159</ns3:hr>
            <ns3:cad>92</ns3:cad>
          </ns3:TrackPointExtension>
        </extensions>
      </trkpt>
      <trkpt lat="43.84186682291328907012939453125" lon="4.27580586634576320648193359375">
        <ele>160.1999969482421875</ele>
        <time>2024-01-27T09:38:29.000Z</time>
        <extensions>
          <ns3:TrackPointExtension>
            <ns3:hr>159</ns3:hr>
            <ns3:cad>94</ns3:cad>
          </ns3:TrackPointExtension>
        </extensions>
      </trkpt>
      <trkpt lat="43.84189079515635967254638671875" lon="4.2758067883551120758056640625">
        <ele>160.399993896484375</ele>
        <time>2024-01-27T09:38:30.000Z</time>
        <extensions>
          <ns3:TrackPointExtension>
            <ns3:hr>159</ns3:hr>
            <ns3:cad>92</ns3:cad>
          </ns3:TrackPointExtension>
        </extensions>
      </trkpt>
      <trkpt lat="43.84191342629492282867431640625" lon="4.275812320411205291748046875">
        <ele>160.399993896484375</ele>
        <time>2024-01-27T09:38:31.000Z</time>
        <extensions>
          <ns3:TrackPointExtension>
            <ns3:hr>159</ns3:hr>
            <ns3:cad>92</ns3:cad>
          </ns3:TrackPointExtension>
        </extensions>
      </trkpt>
      <trkpt lat="43.8419373147189617156982421875" lon="4.27581600844860076904296875">
        <ele>160.600006103515625</ele>
        <time>2024-01-27T09:38:32.000Z</time>
        <extensions>
          <ns3:TrackPointExtension>
            <ns3:hr>159</ns3:hr>
            <ns3:cad>92</ns3:cad>
          </ns3:TrackPointExtension>
        </extensions>
      </trkpt>
      <trkpt lat="43.84196002967655658721923828125" lon="4.27582162432372570037841796875">
        <ele>160.600006103515625</ele>
        <time>2024-01-27T09:38:33.000Z</time>
        <extensions>
          <ns3:TrackPointExtension>
            <ns3:hr>159</ns3:hr>
            <ns3:cad>92</ns3:cad>
          </ns3:TrackPointExtension>
        </extensions>
      </trkpt>
      <trkpt lat="43.841984085738658905029296875" lon="4.27582564763724803924560546875">
        <ele>160.8000030517578125</ele>
        <time>2024-01-27T09:38:34.000Z</time>
        <extensions>
          <ns3:TrackPointExtension>
            <ns3:hr>159</ns3:hr>
            <ns3:cad>92</ns3:cad>
          </ns3:TrackPointExtension>
        </extensions>
      </trkpt>
      <trkpt lat="43.8420063816010951995849609375" lon="4.27582765929400920867919921875">
        <ele>160.8000030517578125</ele>
        <time>2024-01-27T09:38:35.000Z</time>
        <extensions>
          <ns3:TrackPointExtension>
            <ns3:hr>159</ns3:hr>
            <ns3:cad>94</ns3:cad>
          </ns3:TrackPointExtension>
        </extensions>
      </trkpt>
      <trkpt lat="43.84202959947288036346435546875" lon="4.27582866512238979339599609375">
        <ele>161</ele>
        <time>2024-01-27T09:38:36.000Z</time>
        <extensions>
          <ns3:TrackPointExtension>
            <ns3:hr>159</ns3:hr>
            <ns3:cad>94</ns3:cad>
          </ns3:TrackPointExtension>
        </extensions>
      </trkpt>
      <trkpt lat="43.84205172769725322723388671875" lon="4.2758282460272312164306640625">
        <ele>161</ele>
        <time>2024-01-27T09:38:37.000Z</time>
        <extensions>
          <ns3:TrackPointExtension>
            <ns3:hr>159</ns3:hr>
            <ns3:cad>94</ns3:cad>
          </ns3:TrackPointExtension>
        </extensions>
      </trkpt>
      <trkpt lat="43.842076957225799560546875" lon="4.27583235315978527069091796875">
        <ele>161.1999969482421875</ele>
        <time>2024-01-27T09:38:38.000Z</time>
        <extensions>
          <ns3:TrackPointExtension>
            <ns3:hr>159</ns3:hr>
            <ns3:cad>93</ns3:cad>
          </ns3:TrackPointExtension>
        </extensions>
      </trkpt>
      <trkpt lat="43.84210268966853618621826171875" lon="4.27583453245460987091064453125">
        <ele>161.1999969482421875</ele>
        <time>2024-01-27T09:38:39.000Z</time>
        <extensions>
          <ns3:TrackPointExtension>
            <ns3:hr>159</ns3:hr>
            <ns3:cad>93</ns3:cad>
          </ns3:TrackPointExtension>
        </extensions>
      </trkpt>
      <trkpt lat="43.842129595577716827392578125" lon="4.27583855576813220977783203125">
        <ele>161.399993896484375</ele>
        <time>2024-01-27T09:38:40.000Z</time>
        <extensions>
          <ns3:TrackPointExtension>
            <ns3:hr>158</ns3:hr>
            <ns3:cad>93</ns3:cad>
          </ns3:TrackPointExtension>
        </extensions>
      </trkpt>
      <trkpt lat="43.842155076563358306884765625" lon="4.27584056742489337921142578125">
        <ele>161.600006103515625</ele>
        <time>2024-01-27T09:38:41.000Z</time>
        <extensions>
          <ns3:TrackPointExtension>
            <ns3:hr>158</ns3:hr>
            <ns3:cad>92</ns3:cad>
          </ns3:TrackPointExtension>
        </extensions>
      </trkpt>
      <trkpt lat="43.8421800546348094940185546875" lon="4.27584542892873287200927734375">
        <ele>161.600006103515625</ele>
        <time>2024-01-27T09:38:42.000Z</time>
        <extensions>
          <ns3:TrackPointExtension>
            <ns3:hr>157</ns3:hr>
            <ns3:cad>92</ns3:cad>
          </ns3:TrackPointExtension>
        </extensions>
      </trkpt>
      <trkpt lat="43.84220100939273834228515625" lon="4.27584744058549404144287109375">
        <ele>161.8000030517578125</ele>
        <time>2024-01-27T09:38:43.000Z</time>
        <extensions>
          <ns3:TrackPointExtension>
            <ns3:hr>155</ns3:hr>
            <ns3:cad>94</ns3:cad>
          </ns3:TrackPointExtension>
        </extensions>
      </trkpt>
      <trkpt lat="43.8422189466655254364013671875" lon="4.27584660239517688751220703125">
        <ele>162</ele>
        <time>2024-01-27T09:38:44.000Z</time>
        <extensions>
          <ns3:TrackPointExtension>
            <ns3:hr>155</ns3:hr>
            <ns3:cad>94</ns3:cad>
          </ns3:TrackPointExtension>
        </extensions>
      </trkpt>
      <trkpt lat="43.8422387279570102691650390625" lon="4.27584693767130374908447265625">
        <ele>162</ele>
        <time>2024-01-27T09:38:45.000Z</time>
        <extensions>
          <ns3:TrackPointExtension>
            <ns3:hr>154</ns3:hr>
            <ns3:cad>94</ns3:cad>
          </ns3:TrackPointExtension>
        </extensions>
      </trkpt>
      <trkpt lat="43.84225666522979736328125" lon="4.275849200785160064697265625">
        <ele>162</ele>
        <time>2024-01-27T09:38:46.000Z</time>
        <extensions>
          <ns3:TrackPointExtension>
            <ns3:hr>154</ns3:hr>
            <ns3:cad>93</ns3:cad>
          </ns3:TrackPointExtension>
        </extensions>
      </trkpt>
      <trkpt lat="43.842274434864521026611328125" lon="4.27585900761187076568603515625">
        <ele>162.399993896484375</ele>
        <time>2024-01-27T09:38:47.000Z</time>
        <extensions>
          <ns3:TrackPointExtension>
            <ns3:hr>154</ns3:hr>
            <ns3:cad>93</ns3:cad>
          </ns3:TrackPointExtension>
        </extensions>
      </trkpt>
      <trkpt lat="43.842293880879878997802734375" lon="4.27586755715310573577880859375">
        <ele>162.600006103515625</ele>
        <time>2024-01-27T09:38:48.000Z</time>
        <extensions>
          <ns3:TrackPointExtension>
            <ns3:hr>154</ns3:hr>
            <ns3:cad>93</ns3:cad>
          </ns3:TrackPointExtension>
        </extensions>
      </trkpt>
      <trkpt lat="43.84231508709490299224853515625" lon="4.27588180638849735260009765625">
        <ele>162.600006103515625</ele>
        <time>2024-01-27T09:38:49.000Z</time>
        <extensions>
          <ns3:TrackPointExtension>
            <ns3:hr>153</ns3:hr>
            <ns3:cad>92</ns3:cad>
          </ns3:TrackPointExtension>
        </extensions>
      </trkpt>
      <trkpt lat="43.8423302583396434783935546875" lon="4.27589857019484043121337890625">
        <ele>162.8000030517578125</ele>
        <time>2024-01-27T09:38:50.000Z</time>
        <extensions>
          <ns3:TrackPointExtension>
            <ns3:hr>153</ns3:hr>
            <ns3:cad>92</ns3:cad>
          </ns3:TrackPointExtension>
        </extensions>
      </trkpt>
      <trkpt lat="43.842342160642147064208984375" lon="4.27592555992305278778076171875">
        <ele>163</ele>
        <time>2024-01-27T09:38:51.000Z</time>
        <extensions>
          <ns3:TrackPointExtension>
            <ns3:hr>153</ns3:hr>
            <ns3:cad>92</ns3:cad>
          </ns3:TrackPointExtension>
        </extensions>
      </trkpt>
      <trkpt lat="43.84234894998371601104736328125" lon="4.27595322020351886749267578125">
        <ele>163</ele>
        <time>2024-01-27T09:38:52.000Z</time>
        <extensions>
          <ns3:TrackPointExtension>
            <ns3:hr>153</ns3:hr>
            <ns3:cad>90</ns3:cad>
          </ns3:TrackPointExtension>
        </extensions>
      </trkpt>
      <trkpt lat="43.8423577509820461273193359375" lon="4.2759878374636173248291015625">
        <ele>163.1999969482421875</ele>
        <time>2024-01-27T09:38:53.000Z</time>
        <extensions>
          <ns3:TrackPointExtension>
            <ns3:hr>154</ns3:hr>
            <ns3:cad>90</ns3:cad>
          </ns3:TrackPointExtension>
        </extensions>
      </trkpt>
      <trkpt lat="43.84236319921910762786865234375" lon="4.27601541392505168914794921875">
        <ele>163.399993896484375</ele>
        <time>2024-01-27T09:38:54.000Z</time>
        <extensions>
          <ns3:TrackPointExtension>
            <ns3:hr>154</ns3:hr>
            <ns3:cad>90</ns3:cad>
          </ns3:TrackPointExtension>
        </extensions>
      </trkpt>
      <trkpt lat="43.842368982732295989990234375" lon="4.2760485224425792694091796875">
        <ele>163.8000030517578125</ele>
        <time>2024-01-27T09:38:55.000Z</time>
        <extensions>
          <ns3:TrackPointExtension>
            <ns3:hr>154</ns3:hr>
            <ns3:cad>89</ns3:cad>
          </ns3:TrackPointExtension>
        </extensions>
      </trkpt>
      <trkpt lat="43.8423748500645160675048828125" lon="4.2760763503611087799072265625">
        <ele>164</ele>
        <time>2024-01-27T09:38:56.000Z</time>
        <extensions>
          <ns3:TrackPointExtension>
            <ns3:hr>155</ns3:hr>
            <ns3:cad>89</ns3:cad>
          </ns3:TrackPointExtension>
        </extensions>
      </trkpt>
      <trkpt lat="43.84238482452929019927978515625" lon="4.2761050164699554443359375">
        <ele>164</ele>
        <time>2024-01-27T09:38:57.000Z</time>
        <extensions>
          <ns3:TrackPointExtension>
            <ns3:hr>155</ns3:hr>
            <ns3:cad>89</ns3:cad>
          </ns3:TrackPointExtension>
        </extensions>
      </trkpt>
      <trkpt lat="43.84239320643246173858642578125" lon="4.27612957544624805450439453125">
        <ele>164.399993896484375</ele>
        <time>2024-01-27T09:38:58.000Z</time>
        <extensions>
          <ns3:TrackPointExtension>
            <ns3:hr>156</ns3:hr>
            <ns3:cad>89</ns3:cad>
          </ns3:TrackPointExtension>
        </extensions>
      </trkpt>
      <trkpt lat="43.8424003310501575469970703125" lon="4.27615472115576267242431640625">
        <ele>164.600006103515625</ele>
        <time>2024-01-27T09:38:59.000Z</time>
        <extensions>
          <ns3:TrackPointExtension>
            <ns3:hr>156</ns3:hr>
            <ns3:cad>91</ns3:cad>
          </ns3:TrackPointExtension>
        </extensions>
      </trkpt>
      <trkpt lat="43.84240888059139251708984375" lon="4.27617550827562808990478515625">
        <ele>164.8000030517578125</ele>
        <time>2024-01-27T09:39:00.000Z</time>
        <extensions>
          <ns3:TrackPointExtension>
            <ns3:hr>157</ns3:hr>
            <ns3:cad>92</ns3:cad>
          </ns3:TrackPointExtension>
        </extensions>
      </trkpt>
      <trkpt lat="43.84241231717169284820556640625" lon="4.2761977203190326690673828125">
        <ele>165.399993896484375</ele>
        <time>2024-01-27T09:39:01.000Z</time>
        <extensions>
          <ns3:TrackPointExtension>
            <ns3:hr>157</ns3:hr>
            <ns3:cad>92</ns3:cad>
          </ns3:TrackPointExtension>
        </extensions>
      </trkpt>
      <trkpt lat="43.84241600520908832550048828125" lon="4.27622328512370586395263671875">
        <ele>165.600006103515625</ele>
        <time>2024-01-27T09:39:02.000Z</time>
        <extensions>
          <ns3:TrackPointExtension>
            <ns3:hr>158</ns3:hr>
            <ns3:cad>90</ns3:cad>
          </ns3:TrackPointExtension>
        </extensions>
      </trkpt>
      <trkpt lat="43.84241935797035694122314453125" lon="4.2762563936412334442138671875">
        <ele>165.8000030517578125</ele>
        <time>2024-01-27T09:39:03.000Z</time>
        <extensions>
          <ns3:TrackPointExtension>
            <ns3:hr>158</ns3:hr>
            <ns3:cad>90</ns3:cad>
          </ns3:TrackPointExtension>
        </extensions>
      </trkpt>
      <trkpt lat="43.842423968017101287841796875" lon="4.2762818746268749237060546875">
        <ele>166.1999969482421875</ele>
        <time>2024-01-27T09:39:04.000Z</time>
        <extensions>
          <ns3:TrackPointExtension>
            <ns3:hr>158</ns3:hr>
            <ns3:cad>90</ns3:cad>
          </ns3:TrackPointExtension>
        </extensions>
      </trkpt>
      <trkpt lat="43.8424248062074184417724609375" lon="4.27631230093538761138916015625">
        <ele>166.1999969482421875</ele>
        <time>2024-01-27T09:39:05.000Z</time>
        <extensions>
          <ns3:TrackPointExtension>
            <ns3:hr>159</ns3:hr>
            <ns3:cad>90</ns3:cad>
          </ns3:TrackPointExtension>
        </extensions>
      </trkpt>
      <trkpt lat="43.84242958389222621917724609375" lon="4.276339374482631683349609375">
        <ele>166.399993896484375</ele>
        <time>2024-01-27T09:39:06.000Z</time>
        <extensions>
          <ns3:TrackPointExtension>
            <ns3:hr>159</ns3:hr>
            <ns3:cad>92</ns3:cad>
          </ns3:TrackPointExtension>
        </extensions>
      </trkpt>
      <trkpt lat="43.84243746288120746612548828125" lon="4.27637063898146152496337890625">
        <ele>166.600006103515625</ele>
        <time>2024-01-27T09:39:07.000Z</time>
        <extensions>
          <ns3:TrackPointExtension>
            <ns3:hr>159</ns3:hr>
            <ns3:cad>92</ns3:cad>
          </ns3:TrackPointExtension>
        </extensions>
      </trkpt>
      <trkpt lat="43.842447102069854736328125" lon="4.27640131674706935882568359375">
        <ele>166.8000030517578125</ele>
        <time>2024-01-27T09:39:08.000Z</time>
        <extensions>
          <ns3:TrackPointExtension>
            <ns3:hr>160</ns3:hr>
            <ns3:cad>91</ns3:cad>
          </ns3:TrackPointExtension>
        </extensions>
      </trkpt>
      <trkpt lat="43.842454142868518829345703125" lon="4.27642880938947200775146484375">
        <ele>166.8000030517578125</ele>
        <time>2024-01-27T09:39:09.000Z</time>
        <extensions>
          <ns3:TrackPointExtension>
            <ns3:hr>160</ns3:hr>
            <ns3:cad>91</ns3:cad>
          </ns3:TrackPointExtension>
        </extensions>
      </trkpt>
      <trkpt lat="43.84246126748621463775634765625" lon="4.276452697813510894775390625">
        <ele>167.1999969482421875</ele>
        <time>2024-01-27T09:39:10.000Z</time>
        <extensions>
          <ns3:TrackPointExtension>
            <ns3:hr>160</ns3:hr>
            <ns3:cad>93</ns3:cad>
          </ns3:TrackPointExtension>
        </extensions>
      </trkpt>
      <trkpt lat="43.84246646426618099212646484375" lon="4.27648446522653102874755859375">
        <ele>167.399993896484375</ele>
        <time>2024-01-27T09:39:11.000Z</time>
        <extensions>
          <ns3:TrackPointExtension>
            <ns3:hr>160</ns3:hr>
            <ns3:cad>93</ns3:cad>
          </ns3:TrackPointExtension>
        </extensions>
      </trkpt>
      <trkpt lat="43.84247249923646450042724609375" lon="4.27651614882051944732666015625">
        <ele>167.600006103515625</ele>
        <time>2024-01-27T09:39:12.000Z</time>
        <extensions>
          <ns3:TrackPointExtension>
            <ns3:hr>160</ns3:hr>
            <ns3:cad>92</ns3:cad>
          </ns3:TrackPointExtension>
        </extensions>
      </trkpt>
      <trkpt lat="43.8424777798354625701904296875" lon="4.2765450663864612579345703125">
        <ele>167.8000030517578125</ele>
        <time>2024-01-27T09:39:13.000Z</time>
        <extensions>
          <ns3:TrackPointExtension>
            <ns3:hr>160</ns3:hr>
            <ns3:cad>92</ns3:cad>
          </ns3:TrackPointExtension>
        </extensions>
      </trkpt>
      <trkpt lat="43.84248800575733184814453125" lon="4.27657306194305419921875">
        <ele>168</ele>
        <time>2024-01-27T09:39:14.000Z</time>
        <extensions>
          <ns3:TrackPointExtension>
            <ns3:hr>161</ns3:hr>
            <ns3:cad>92</ns3:cad>
          </ns3:TrackPointExtension>
        </extensions>
      </trkpt>
      <trkpt lat="43.8425002433359622955322265625" lon="4.27659443579614162445068359375">
        <ele>168.1999969482421875</ele>
        <time>2024-01-27T09:39:15.000Z</time>
        <extensions>
          <ns3:TrackPointExtension>
            <ns3:hr>161</ns3:hr>
            <ns3:cad>92</ns3:cad>
          </ns3:TrackPointExtension>
        </extensions>
      </trkpt>
      <trkpt lat="43.84251390583813190460205078125" lon="4.27661798894405364990234375">
        <ele>168.399993896484375</ele>
        <time>2024-01-27T09:39:16.000Z</time>
        <extensions>
          <ns3:TrackPointExtension>
            <ns3:hr>161</ns3:hr>
            <ns3:cad>92</ns3:cad>
          </ns3:TrackPointExtension>
        </extensions>
      </trkpt>
      <trkpt lat="43.8425274007022380828857421875" lon="4.2766339145600795745849609375">
        <ele>168.399993896484375</ele>
        <time>2024-01-27T09:39:17.000Z</time>
        <extensions>
          <ns3:TrackPointExtension>
            <ns3:hr>161</ns3:hr>
            <ns3:cad>93</ns3:cad>
          </ns3:TrackPointExtension>
        </extensions>
      </trkpt>
      <trkpt lat="43.84254290722310543060302734375" lon="4.2766429670155048370361328125">
        <ele>168.600006103515625</ele>
        <time>2024-01-27T09:39:18.000Z</time>
        <extensions>
          <ns3:TrackPointExtension>
            <ns3:hr>161</ns3:hr>
            <ns3:cad>93</ns3:cad>
          </ns3:TrackPointExtension>
        </extensions>
      </trkpt>
      <trkpt lat="43.84255631826817989349365234375" lon="4.27665595896542072296142578125">
        <ele>168.600006103515625</ele>
        <time>2024-01-27T09:39:19.000Z</time>
        <extensions>
          <ns3:TrackPointExtension>
            <ns3:hr>161</ns3:hr>
            <ns3:cad>93</ns3:cad>
          </ns3:TrackPointExtension>
        </extensions>
      </trkpt>
      <trkpt lat="43.8425750099122524261474609375" lon="4.27668529562652111053466796875">
        <ele>169</ele>
        <time>2024-01-27T09:39:20.000Z</time>
        <extensions>
          <ns3:TrackPointExtension>
            <ns3:hr>161</ns3:hr>
            <ns3:cad>93</ns3:cad>
          </ns3:TrackPointExtension>
        </extensions>
      </trkpt>
      <trkpt lat="43.84258456528186798095703125" lon="4.2767063342034816741943359375">
        <ele>169.1999969482421875</ele>
        <time>2024-01-27T09:39:21.000Z</time>
        <extensions>
          <ns3:TrackPointExtension>
            <ns3:hr>162</ns3:hr>
            <ns3:cad>93</ns3:cad>
          </ns3:TrackPointExtension>
        </extensions>
      </trkpt>
      <trkpt lat="43.84259395301342010498046875" lon="4.27673307247459888458251953125">
        <ele>169.399993896484375</ele>
        <time>2024-01-27T09:39:22.000Z</time>
        <extensions>
          <ns3:TrackPointExtension>
            <ns3:hr>162</ns3:hr>
            <ns3:cad>93</ns3:cad>
          </ns3:TrackPointExtension>
        </extensions>
      </trkpt>
      <trkpt lat="43.84260392747819423675537109375" lon="4.2767572961747646331787109375">
        <ele>169.600006103515625</ele>
        <time>2024-01-27T09:39:23.000Z</time>
        <extensions>
          <ns3:TrackPointExtension>
            <ns3:hr>162</ns3:hr>
            <ns3:cad>93</ns3:cad>
          </ns3:TrackPointExtension>
        </extensions>
      </trkpt>
      <trkpt lat="43.84261666797101497650146484375" lon="4.27678068168461322784423828125">
        <ele>169.600006103515625</ele>
        <time>2024-01-27T09:39:24.000Z</time>
        <extensions>
          <ns3:TrackPointExtension>
            <ns3:hr>163</ns3:hr>
            <ns3:cad>91</ns3:cad>
          </ns3:TrackPointExtension>
        </extensions>
      </trkpt>
      <trkpt lat="43.84263259358704090118408203125" lon="4.2768012173473834991455078125">
        <ele>170</ele>
        <time>2024-01-27T09:39:25.000Z</time>
        <extensions>
          <ns3:TrackPointExtension>
            <ns3:hr>163</ns3:hr>
            <ns3:cad>91</ns3:cad>
          </ns3:TrackPointExtension>
        </extensions>
      </trkpt>
      <trkpt lat="43.84264893829822540283203125" lon="4.276822507381439208984375">
        <ele>170</ele>
        <time>2024-01-27T09:39:26.000Z</time>
        <extensions>
          <ns3:TrackPointExtension>
            <ns3:hr>163</ns3:hr>
            <ns3:cad>91</ns3:cad>
          </ns3:TrackPointExtension>
        </extensions>
      </trkpt>
      <trkpt lat="43.8426683843135833740234375" lon="4.27684304304420948028564453125">
        <ele>170.1999969482421875</ele>
        <time>2024-01-27T09:39:27.000Z</time>
        <extensions>
          <ns3:TrackPointExtension>
            <ns3:hr>164</ns3:hr>
            <ns3:cad>92</ns3:cad>
          </ns3:TrackPointExtension>
        </extensions>
      </trkpt>
      <trkpt lat="43.8426839746534824371337890625" lon="4.2768592201173305511474609375">
        <ele>170.399993896484375</ele>
        <time>2024-01-27T09:39:28.000Z</time>
        <extensions>
          <ns3:TrackPointExtension>
            <ns3:hr>164</ns3:hr>
            <ns3:cad>92</ns3:cad>
          </ns3:TrackPointExtension>
        </extensions>
      </trkpt>
      <trkpt lat="43.8426970504224300384521484375" lon="4.27687925286591053009033203125">
        <ele>170.600006103515625</ele>
        <time>2024-01-27T09:39:29.000Z</time>
        <extensions>
          <ns3:TrackPointExtension>
            <ns3:hr>164</ns3:hr>
            <ns3:cad>94</ns3:cad>
          </ns3:TrackPointExtension>
        </extensions>
      </trkpt>
      <trkpt lat="43.84270736016333103179931640625" lon="4.27689450792968273162841796875">
        <ele>170.8000030517578125</ele>
        <time>2024-01-27T09:39:30.000Z</time>
        <extensions>
          <ns3:TrackPointExtension>
            <ns3:hr>164</ns3:hr>
            <ns3:cad>94</ns3:cad>
          </ns3:TrackPointExtension>
        </extensions>
      </trkpt>
      <trkpt lat="43.8427185080945491790771484375" lon="4.27690942771732807159423828125">
        <ele>170.8000030517578125</ele>
        <time>2024-01-27T09:39:31.000Z</time>
        <extensions>
          <ns3:TrackPointExtension>
            <ns3:hr>164</ns3:hr>
            <ns3:cad>93</ns3:cad>
          </ns3:TrackPointExtension>
        </extensions>
      </trkpt>
      <trkpt lat="43.8427319191396236419677734375" lon="4.27692417986690998077392578125">
        <ele>171</ele>
        <time>2024-01-27T09:39:32.000Z</time>
        <extensions>
          <ns3:TrackPointExtension>
            <ns3:hr>164</ns3:hr>
            <ns3:cad>93</ns3:cad>
          </ns3:TrackPointExtension>
        </extensions>
      </trkpt>
      <trkpt lat="43.842742480337619781494140625" lon="4.27694697864353656768798828125">
        <ele>171.1999969482421875</ele>
        <time>2024-01-27T09:39:33.000Z</time>
        <extensions>
          <ns3:TrackPointExtension>
            <ns3:hr>164</ns3:hr>
            <ns3:cad>93</ns3:cad>
          </ns3:TrackPointExtension>
        </extensions>
      </trkpt>
      <trkpt lat="43.8427488505840301513671875" lon="4.27697313018143177032470703125">
        <ele>171.399993896484375</ele>
        <time>2024-01-27T09:39:34.000Z</time>
        <extensions>
          <ns3:TrackPointExtension>
            <ns3:hr>164</ns3:hr>
            <ns3:cad>92</ns3:cad>
          </ns3:TrackPointExtension>
        </extensions>
      </trkpt>
      <trkpt lat="43.842755220830440521240234375" lon="4.27700565196573734283447265625">
        <ele>171.600006103515625</ele>
        <time>2024-01-27T09:39:35.000Z</time>
        <extensions>
          <ns3:TrackPointExtension>
            <ns3:hr>164</ns3:hr>
            <ns3:cad>92</ns3:cad>
          </ns3:TrackPointExtension>
        </extensions>
      </trkpt>
      <trkpt lat="43.84276888333261013031005859375" lon="4.27703280933201313018798828125">
        <ele>171.8000030517578125</ele>
        <time>2024-01-27T09:39:36.000Z</time>
        <extensions>
          <ns3:TrackPointExtension>
            <ns3:hr>164</ns3:hr>
            <ns3:cad>92</ns3:cad>
          </ns3:TrackPointExtension>
        </extensions>
      </trkpt>
      <trkpt lat="43.842786066234111785888671875" lon="4.2770623974502086639404296875">
        <ele>171.8000030517578125</ele>
        <time>2024-01-27T09:39:37.000Z</time>
        <extensions>
          <ns3:TrackPointExtension>
            <ns3:hr>164</ns3:hr>
            <ns3:cad>93</ns3:cad>
          </ns3:TrackPointExtension>
        </extensions>
      </trkpt>
      <trkpt lat="43.8428051769733428955078125" lon="4.2770862020552158355712890625">
        <ele>172</ele>
        <time>2024-01-27T09:39:38.000Z</time>
        <extensions>
          <ns3:TrackPointExtension>
            <ns3:hr>164</ns3:hr>
            <ns3:cad>93</ns3:cad>
          </ns3:TrackPointExtension>
        </extensions>
      </trkpt>
      <trkpt lat="43.84282185696065425872802734375" lon="4.27711361087858676910400390625">
        <ele>172.1999969482421875</ele>
        <time>2024-01-27T09:39:39.000Z</time>
        <extensions>
          <ns3:TrackPointExtension>
            <ns3:hr>164</ns3:hr>
            <ns3:cad>93</ns3:cad>
          </ns3:TrackPointExtension>
        </extensions>
      </trkpt>
      <trkpt lat="43.842840380966663360595703125" lon="4.27714236080646514892578125">
        <ele>172.1999969482421875</ele>
        <time>2024-01-27T09:39:40.000Z</time>
        <extensions>
          <ns3:TrackPointExtension>
            <ns3:hr>164</ns3:hr>
            <ns3:cad>93</ns3:cad>
          </ns3:TrackPointExtension>
        </extensions>
      </trkpt>
      <trkpt lat="43.84285278618335723876953125" lon="4.27716742269694805145263671875">
        <ele>172.399993896484375</ele>
        <time>2024-01-27T09:39:41.000Z</time>
        <extensions>
          <ns3:TrackPointExtension>
            <ns3:hr>164</ns3:hr>
            <ns3:cad>92</ns3:cad>
          </ns3:TrackPointExtension>
        </extensions>
      </trkpt>
      <trkpt lat="43.84286711923778057098388671875" lon="4.27719575352966785430908203125">
        <ele>172.600006103515625</ele>
        <time>2024-01-27T09:39:42.000Z</time>
        <extensions>
          <ns3:TrackPointExtension>
            <ns3:hr>164</ns3:hr>
            <ns3:cad>92</ns3:cad>
          </ns3:TrackPointExtension>
        </extensions>
      </trkpt>
      <trkpt lat="43.84288053028285503387451171875" lon="4.27722425200045108795166015625">
        <ele>172.600006103515625</ele>
        <time>2024-01-27T09:39:43.000Z</time>
        <extensions>
          <ns3:TrackPointExtension>
            <ns3:hr>164</ns3:hr>
            <ns3:cad>93</ns3:cad>
          </ns3:TrackPointExtension>
        </extensions>
      </trkpt>
      <trkpt lat="43.8428941927850246429443359375" lon="4.2772467993199825286865234375">
        <ele>172.8000030517578125</ele>
        <time>2024-01-27T09:39:44.000Z</time>
        <extensions>
          <ns3:TrackPointExtension>
            <ns3:hr>164</ns3:hr>
            <ns3:cad>93</ns3:cad>
          </ns3:TrackPointExtension>
        </extensions>
      </trkpt>
      <trkpt lat="43.8429069332778453826904296875" lon="4.277267418801784515380859375">
        <ele>172.8000030517578125</ele>
        <time>2024-01-27T09:39:45.000Z</time>
        <extensions>
          <ns3:TrackPointExtension>
            <ns3:hr>164</ns3:hr>
            <ns3:cad>93</ns3:cad>
          </ns3:TrackPointExtension>
        </extensions>
      </trkpt>
      <trkpt lat="43.8429216854274272918701171875" lon="4.2772954143583774566650390625">
        <ele>173</ele>
        <time>2024-01-27T09:39:46.000Z</time>
        <extensions>
          <ns3:TrackPointExtension>
            <ns3:hr>165</ns3:hr>
            <ns3:cad>93</ns3:cad>
          </ns3:TrackPointExtension>
        </extensions>
      </trkpt>
      <trkpt lat="43.84293484501540660858154296875" lon="4.27731494419276714324951171875">
        <ele>173.1999969482421875</ele>
        <time>2024-01-27T09:39:47.000Z</time>
        <extensions>
          <ns3:TrackPointExtension>
            <ns3:hr>165</ns3:hr>
            <ns3:cad>93</ns3:cad>
          </ns3:TrackPointExtension>
        </extensions>
      </trkpt>
      <trkpt lat="43.84295328520238399505615234375" lon="4.27733623422682285308837890625">
        <ele>173.1999969482421875</ele>
        <time>2024-01-27T09:39:48.000Z</time>
        <extensions>
          <ns3:TrackPointExtension>
            <ns3:hr>165</ns3:hr>
            <ns3:cad>93</ns3:cad>
          </ns3:TrackPointExtension>
        </extensions>
      </trkpt>
      <trkpt lat="43.8429676182568073272705078125" lon="4.27734813652932643890380859375">
        <ele>173.399993896484375</ele>
        <time>2024-01-27T09:39:49.000Z</time>
        <extensions>
          <ns3:TrackPointExtension>
            <ns3:hr>165</ns3:hr>
            <ns3:cad>93</ns3:cad>
          </ns3:TrackPointExtension>
        </extensions>
      </trkpt>
      <trkpt lat="43.842985890805721282958984375" lon="4.27736875601112842559814453125">
        <ele>173.399993896484375</ele>
        <time>2024-01-27T09:39:50.000Z</time>
        <extensions>
          <ns3:TrackPointExtension>
            <ns3:hr>165</ns3:hr>
            <ns3:cad>93</ns3:cad>
          </ns3:TrackPointExtension>
        </extensions>
      </trkpt>
      <trkpt lat="43.8430018164217472076416015625" lon="4.27738518454134464263916015625">
        <ele>173.600006103515625</ele>
        <time>2024-01-27T09:39:51.000Z</time>
        <extensions>
          <ns3:TrackPointExtension>
            <ns3:hr>164</ns3:hr>
            <ns3:cad>93</ns3:cad>
          </ns3:TrackPointExtension>
        </extensions>
      </trkpt>
      <trkpt lat="43.84301782585680484771728515625" lon="4.27740379236638545989990234375">
        <ele>173.8000030517578125</ele>
        <time>2024-01-27T09:39:52.000Z</time>
        <extensions>
          <ns3:TrackPointExtension>
            <ns3:hr>164</ns3:hr>
            <ns3:cad>93</ns3:cad>
          </ns3:TrackPointExtension>
        </extensions>
      </trkpt>
      <trkpt lat="43.84303425438702106475830078125" lon="4.27741887979209423065185546875">
        <ele>174</ele>
        <time>2024-01-27T09:39:53.000Z</time>
        <extensions>
          <ns3:TrackPointExtension>
            <ns3:hr>164</ns3:hr>
            <ns3:cad>93</ns3:cad>
          </ns3:TrackPointExtension>
        </extensions>
      </trkpt>
      <trkpt lat="43.8430504314601421356201171875" lon="4.2774338833987712860107421875">
        <ele>174.1999969482421875</ele>
        <time>2024-01-27T09:39:54.000Z</time>
        <extensions>
          <ns3:TrackPointExtension>
            <ns3:hr>164</ns3:hr>
            <ns3:cad>93</ns3:cad>
          </ns3:TrackPointExtension>
        </extensions>
      </trkpt>
      <trkpt lat="43.84306333959102630615234375" lon="4.2774503119289875030517578125">
        <ele>174.399993896484375</ele>
        <time>2024-01-27T09:39:55.000Z</time>
        <extensions>
          <ns3:TrackPointExtension>
            <ns3:hr>164</ns3:hr>
            <ns3:cad>93</ns3:cad>
          </ns3:TrackPointExtension>
        </extensions>
      </trkpt>
      <trkpt lat="43.84307566098868846893310546875" lon="4.27747235633432865142822265625">
        <ele>174.600006103515625</ele>
        <time>2024-01-27T09:39:56.000Z</time>
        <extensions>
          <ns3:TrackPointExtension>
            <ns3:hr>164</ns3:hr>
            <ns3:cad>92</ns3:cad>
          </ns3:TrackPointExtension>
        </extensions>
      </trkpt>
      <trkpt lat="43.8430836237967014312744140625" lon="4.27749641239643096923828125">
        <ele>174.600006103515625</ele>
        <time>2024-01-27T09:39:57.000Z</time>
        <extensions>
          <ns3:TrackPointExtension>
            <ns3:hr>164</ns3:hr>
            <ns3:cad>92</ns3:cad>
          </ns3:TrackPointExtension>
        </extensions>
      </trkpt>
      <trkpt lat="43.84308957494795322418212890625" lon="4.27751929499208927154541015625">
        <ele>174.8000030517578125</ele>
        <time>2024-01-27T09:39:58.000Z</time>
        <extensions>
          <ns3:TrackPointExtension>
            <ns3:hr>164</ns3:hr>
            <ns3:cad>91</ns3:cad>
          </ns3:TrackPointExtension>
        </extensions>
      </trkpt>
      <trkpt lat="43.84309343062341213226318359375" lon="4.2775572650134563446044921875">
        <ele>175</ele>
        <time>2024-01-27T09:39:59.000Z</time>
        <extensions>
          <ns3:TrackPointExtension>
            <ns3:hr>164</ns3:hr>
            <ns3:cad>92</ns3:cad>
          </ns3:TrackPointExtension>
        </extensions>
      </trkpt>
      <trkpt lat="43.843099884688854217529296875" lon="4.27759054116904735565185546875">
        <ele>175</ele>
        <time>2024-01-27T09:40:00.000Z</time>
        <extensions>
          <ns3:TrackPointExtension>
            <ns3:hr>164</ns3:hr>
            <ns3:cad>92</ns3:cad>
          </ns3:TrackPointExtension>
        </extensions>
      </trkpt>
      <trkpt lat="43.843106925487518310546875" lon="4.27762172184884548187255859375">
        <ele>175.1999969482421875</ele>
        <time>2024-01-27T09:40:01.000Z</time>
        <extensions>
          <ns3:TrackPointExtension>
            <ns3:hr>164</ns3:hr>
            <ns3:cad>92</ns3:cad>
          </ns3:TrackPointExtension>
        </extensions>
      </trkpt>
      <trkpt lat="43.84311857633292675018310546875" lon="4.277650304138660430908203125">
        <ele>175.1999969482421875</ele>
        <time>2024-01-27T09:40:02.000Z</time>
        <extensions>
          <ns3:TrackPointExtension>
            <ns3:hr>164</ns3:hr>
            <ns3:cad>93</ns3:cad>
          </ns3:TrackPointExtension>
        </extensions>
      </trkpt>
      <trkpt lat="43.843130730092525482177734375" lon="4.27767586894333362579345703125">
        <ele>175.399993896484375</ele>
        <time>2024-01-27T09:40:03.000Z</time>
        <extensions>
          <ns3:TrackPointExtension>
            <ns3:hr>164</ns3:hr>
            <ns3:cad>93</ns3:cad>
          </ns3:TrackPointExtension>
        </extensions>
      </trkpt>
      <trkpt lat="43.843142129480838775634765625" lon="4.277695901691913604736328125">
        <ele>175.399993896484375</ele>
        <time>2024-01-27T09:40:04.000Z</time>
        <extensions>
          <ns3:TrackPointExtension>
            <ns3:hr>164</ns3:hr>
            <ns3:cad>93</ns3:cad>
          </ns3:TrackPointExtension>
        </extensions>
      </trkpt>
      <trkpt lat="43.8431557081639766693115234375" lon="4.27771861664950847625732421875">
        <ele>175.399993896484375</ele>
        <time>2024-01-27T09:40:05.000Z</time>
        <extensions>
          <ns3:TrackPointExtension>
            <ns3:hr>164</ns3:hr>
            <ns3:cad>92</ns3:cad>
          </ns3:TrackPointExtension>
        </extensions>
      </trkpt>
      <trkpt lat="43.84317188523709774017333984375" lon="4.27773806266486644744873046875">
        <ele>175.600006103515625</ele>
        <time>2024-01-27T09:40:06.000Z</time>
        <extensions>
          <ns3:TrackPointExtension>
            <ns3:hr>164</ns3:hr>
            <ns3:cad>92</ns3:cad>
          </ns3:TrackPointExtension>
        </extensions>
      </trkpt>
      <trkpt lat="43.84318714030086994171142578125" lon="4.27775784395635128021240234375">
        <ele>175.600006103515625</ele>
        <time>2024-01-27T09:40:07.000Z</time>
        <extensions>
          <ns3:TrackPointExtension>
            <ns3:hr>164</ns3:hr>
            <ns3:cad>93</ns3:cad>
          </ns3:TrackPointExtension>
        </extensions>
      </trkpt>
      <trkpt lat="43.843203485012054443359375" lon="4.27777879871428012847900390625">
        <ele>175.8000030517578125</ele>
        <time>2024-01-27T09:40:08.000Z</time>
        <extensions>
          <ns3:TrackPointExtension>
            <ns3:hr>164</ns3:hr>
            <ns3:cad>94</ns3:cad>
          </ns3:TrackPointExtension>
        </extensions>
      </trkpt>
      <trkpt lat="43.8432180695235729217529296875" lon="4.27779623307287693023681640625">
        <ele>175.8000030517578125</ele>
        <time>2024-01-27T09:40:09.000Z</time>
        <extensions>
          <ns3:TrackPointExtension>
            <ns3:hr>164</ns3:hr>
            <ns3:cad>94</ns3:cad>
          </ns3:TrackPointExtension>
        </extensions>
      </trkpt>
      <trkpt lat="43.84323324076831340789794921875" lon="4.27781417034566402435302734375">
        <ele>176</ele>
        <time>2024-01-27T09:40:10.000Z</time>
        <extensions>
          <ns3:TrackPointExtension>
            <ns3:hr>164</ns3:hr>
            <ns3:cad>94</ns3:cad>
          </ns3:TrackPointExtension>
        </extensions>
      </trkpt>
      <trkpt lat="43.84324665181338787078857421875" lon="4.27782892249524593353271484375">
        <ele>176</ele>
        <time>2024-01-27T09:40:11.000Z</time>
        <extensions>
          <ns3:TrackPointExtension>
            <ns3:hr>164</ns3:hr>
            <ns3:cad>93</ns3:cad>
          </ns3:TrackPointExtension>
        </extensions>
      </trkpt>
      <trkpt lat="43.84326140396296977996826171875" lon="4.27784937433898448944091796875">
        <ele>176.1999969482421875</ele>
        <time>2024-01-27T09:40:12.000Z</time>
        <extensions>
          <ns3:TrackPointExtension>
            <ns3:hr>164</ns3:hr>
            <ns3:cad>93</ns3:cad>
          </ns3:TrackPointExtension>
        </extensions>
      </trkpt>
      <trkpt lat="43.84327213279902935028076171875" lon="4.27786882035434246063232421875">
        <ele>176.600006103515625</ele>
        <time>2024-01-27T09:40:13.000Z</time>
        <extensions>
          <ns3:TrackPointExtension>
            <ns3:hr>164</ns3:hr>
            <ns3:cad>93</ns3:cad>
          </ns3:TrackPointExtension>
        </extensions>
      </trkpt>
      <trkpt lat="43.84328889660537242889404296875" lon="4.27789480425417423248291015625">
        <ele>176.8000030517578125</ele>
        <time>2024-01-27T09:40:14.000Z</time>
        <extensions>
          <ns3:TrackPointExtension>
            <ns3:hr>164</ns3:hr>
            <ns3:cad>92</ns3:cad>
          </ns3:TrackPointExtension>
        </extensions>
      </trkpt>
      <trkpt lat="43.84330348111689090728759765625" lon="4.277915842831134796142578125">
        <ele>177</ele>
        <time>2024-01-27T09:40:15.000Z</time>
        <extensions>
          <ns3:TrackPointExtension>
            <ns3:hr>164</ns3:hr>
            <ns3:cad>91</ns3:cad>
          </ns3:TrackPointExtension>
        </extensions>
      </trkpt>
      <trkpt lat="43.8433179818093776702880859375" lon="4.27793570794165134429931640625">
        <ele>177.1999969482421875</ele>
        <time>2024-01-27T09:40:16.000Z</time>
        <extensions>
          <ns3:TrackPointExtension>
            <ns3:hr>164</ns3:hr>
            <ns3:cad>90</ns3:cad>
          </ns3:TrackPointExtension>
        </extensions>
      </trkpt>
      <trkpt lat="43.84333164431154727935791015625" lon="4.27795247174799442291259765625">
        <ele>177.1999969482421875</ele>
        <time>2024-01-27T09:40:17.000Z</time>
        <extensions>
          <ns3:TrackPointExtension>
            <ns3:hr>164</ns3:hr>
            <ns3:cad>90</ns3:cad>
          </ns3:TrackPointExtension>
        </extensions>
      </trkpt>
      <trkpt lat="43.84334824047982692718505859375" lon="4.27797409705817699432373046875">
        <ele>177.399993896484375</ele>
        <time>2024-01-27T09:40:18.000Z</time>
        <extensions>
          <ns3:TrackPointExtension>
            <ns3:hr>164</ns3:hr>
            <ns3:cad>90</ns3:cad>
          </ns3:TrackPointExtension>
        </extensions>
      </trkpt>
      <trkpt lat="43.84337355382740497589111328125" lon="4.27797309122979640960693359375">
        <ele>177.399993896484375</ele>
        <time>2024-01-27T09:40:19.000Z</time>
        <extensions>
          <ns3:TrackPointExtension>
            <ns3:hr>164</ns3:hr>
            <ns3:cad>91</ns3:cad>
          </ns3:TrackPointExtension>
        </extensions>
      </trkpt>
      <trkpt lat="43.8433981128036975860595703125" lon="4.27798147313296794891357421875">
        <ele>177.399993896484375</ele>
        <time>2024-01-27T09:40:20.000Z</time>
        <extensions>
          <ns3:TrackPointExtension>
            <ns3:hr>164</ns3:hr>
            <ns3:cad>92</ns3:cad>
          </ns3:TrackPointExtension>
        </extensions>
      </trkpt>
      <trkpt lat="43.84341630153357982635498046875" lon="4.27798717282712459564208984375">
        <ele>177.600006103515625</ele>
        <time>2024-01-27T09:40:21.000Z</time>
        <extensions>
          <ns3:TrackPointExtension>
            <ns3:hr>164</ns3:hr>
            <ns3:cad>92</ns3:cad>
          </ns3:TrackPointExtension>
        </extensions>
      </trkpt>
      <trkpt lat="43.84342812001705169677734375" lon="4.2780092172324657440185546875">
        <ele>177.8000030517578125</ele>
        <time>2024-01-27T09:40:22.000Z</time>
        <extensions>
          <ns3:TrackPointExtension>
            <ns3:hr>164</ns3:hr>
            <ns3:cad>92</ns3:cad>
          </ns3:TrackPointExtension>
        </extensions>
      </trkpt>
      <trkpt lat="43.84344379417598247528076171875" lon="4.2780286632478237152099609375">
        <ele>177.8000030517578125</ele>
        <time>2024-01-27T09:40:23.000Z</time>
        <extensions>
          <ns3:TrackPointExtension>
            <ns3:hr>164</ns3:hr>
            <ns3:cad>92</ns3:cad>
          </ns3:TrackPointExtension>
        </extensions>
      </trkpt>
      <trkpt lat="43.84346458129584789276123046875" lon="4.2780549824237823486328125">
        <ele>177.8000030517578125</ele>
        <time>2024-01-27T09:40:24.000Z</time>
        <extensions>
          <ns3:TrackPointExtension>
            <ns3:hr>164</ns3:hr>
            <ns3:cad>92</ns3:cad>
          </ns3:TrackPointExtension>
        </extensions>
      </trkpt>
      <trkpt lat="43.84348385967314243316650390625" lon="4.2780709080398082733154296875">
        <ele>178</ele>
        <time>2024-01-27T09:40:25.000Z</time>
        <extensions>
          <ns3:TrackPointExtension>
            <ns3:hr>164</ns3:hr>
            <ns3:cad>90</ns3:cad>
          </ns3:TrackPointExtension>
        </extensions>
      </trkpt>
      <trkpt lat="43.84350732900202274322509765625" lon="4.27808649837970733642578125">
        <ele>178</ele>
        <time>2024-01-27T09:40:26.000Z</time>
        <extensions>
          <ns3:TrackPointExtension>
            <ns3:hr>164</ns3:hr>
            <ns3:cad>90</ns3:cad>
          </ns3:TrackPointExtension>
        </extensions>
      </trkpt>
      <trkpt lat="43.84352442808449268341064453125" lon="4.2780890129506587982177734375">
        <ele>178</ele>
        <time>2024-01-27T09:40:27.000Z</time>
        <extensions>
          <ns3:TrackPointExtension>
            <ns3:hr>164</ns3:hr>
            <ns3:cad>92</ns3:cad>
          </ns3:TrackPointExtension>
        </extensions>
      </trkpt>
      <trkpt lat="43.84354320354759693145751953125" lon="4.278092868626117706298828125">
        <ele>178.1999969482421875</ele>
        <time>2024-01-27T09:40:28.000Z</time>
        <extensions>
          <ns3:TrackPointExtension>
            <ns3:hr>164</ns3:hr>
            <ns3:cad>92</ns3:cad>
          </ns3:TrackPointExtension>
        </extensions>
      </trkpt>
      <trkpt lat="43.84356223046779632568359375" lon="4.27809990942478179931640625">
        <ele>178.399993896484375</ele>
        <time>2024-01-27T09:40:29.000Z</time>
        <extensions>
          <ns3:TrackPointExtension>
            <ns3:hr>164</ns3:hr>
            <ns3:cad>92</ns3:cad>
          </ns3:TrackPointExtension>
        </extensions>
      </trkpt>
      <trkpt lat="43.84357924573123455047607421875" lon="4.2781201936304569244384765625">
        <ele>178.600006103515625</ele>
        <time>2024-01-27T09:40:30.000Z</time>
        <extensions>
          <ns3:TrackPointExtension>
            <ns3:hr>165</ns3:hr>
            <ns3:cad>91</ns3:cad>
          </ns3:TrackPointExtension>
        </extensions>
      </trkpt>
      <trkpt lat="43.843596763908863067626953125" lon="4.27813746035099029541015625">
        <ele>178.8000030517578125</ele>
        <time>2024-01-27T09:40:31.000Z</time>
        <extensions>
          <ns3:TrackPointExtension>
            <ns3:hr>165</ns3:hr>
            <ns3:cad>91</ns3:cad>
          </ns3:TrackPointExtension>
        </extensions>
      </trkpt>
      <trkpt lat="43.84361009113490581512451171875" lon="4.2781597562134265899658203125">
        <ele>179</ele>
        <time>2024-01-27T09:40:32.000Z</time>
        <extensions>
          <ns3:TrackPointExtension>
            <ns3:hr>165</ns3:hr>
            <ns3:cad>91</ns3:cad>
          </ns3:TrackPointExtension>
        </extensions>
      </trkpt>
      <trkpt lat="43.84362400509417057037353515625" lon="4.27817501127719879150390625">
        <ele>179</ele>
        <time>2024-01-27T09:40:33.000Z</time>
        <extensions>
          <ns3:TrackPointExtension>
            <ns3:hr>165</ns3:hr>
            <ns3:cad>91</ns3:cad>
          </ns3:TrackPointExtension>
        </extensions>
      </trkpt>
      <trkpt lat="43.84364068508148193359375" lon="4.27819185890257358551025390625">
        <ele>179</ele>
        <time>2024-01-27T09:40:34.000Z</time>
        <extensions>
          <ns3:TrackPointExtension>
            <ns3:hr>165</ns3:hr>
            <ns3:cad>91</ns3:cad>
          </ns3:TrackPointExtension>
        </extensions>
      </trkpt>
      <trkpt lat="43.84366055019199848175048828125" lon="4.27820208482444286346435546875">
        <ele>179</ele>
        <time>2024-01-27T09:40:35.000Z</time>
        <extensions>
          <ns3:TrackPointExtension>
            <ns3:hr>165</ns3:hr>
            <ns3:cad>92</ns3:cad>
          </ns3:TrackPointExtension>
        </extensions>
      </trkpt>
      <trkpt lat="43.84367882274091243743896484375" lon="4.2782083712518215179443359375">
        <ele>179.1999969482421875</ele>
        <time>2024-01-27T09:40:36.000Z</time>
        <extensions>
          <ns3:TrackPointExtension>
            <ns3:hr>165</ns3:hr>
            <ns3:cad>92</ns3:cad>
          </ns3:TrackPointExtension>
        </extensions>
      </trkpt>
      <trkpt lat="43.84370564483106136322021484375" lon="4.278209209442138671875">
        <ele>179.399993896484375</ele>
        <time>2024-01-27T09:40:37.000Z</time>
        <extensions>
          <ns3:TrackPointExtension>
            <ns3:hr>165</ns3:hr>
            <ns3:cad>92</ns3:cad>
          </ns3:TrackPointExtension>
        </extensions>
      </trkpt>
      <trkpt lat="43.8437213189899921417236328125" lon="4.278215579688549041748046875">
        <ele>179.600006103515625</ele>
        <time>2024-01-27T09:40:38.000Z</time>
        <extensions>
          <ns3:TrackPointExtension>
            <ns3:hr>165</ns3:hr>
            <ns3:cad>91</ns3:cad>
          </ns3:TrackPointExtension>
        </extensions>
      </trkpt>
      <trkpt lat="43.843741603195667266845703125" lon="4.2782378755509853363037109375">
        <ele>179.600006103515625</ele>
        <time>2024-01-27T09:40:39.000Z</time>
        <extensions>
          <ns3:TrackPointExtension>
            <ns3:hr>165</ns3:hr>
            <ns3:cad>91</ns3:cad>
          </ns3:TrackPointExtension>
        </extensions>
      </trkpt>
      <trkpt lat="43.84375895373523235321044921875" lon="4.27825405262410640716552734375">
        <ele>179.600006103515625</ele>
        <time>2024-01-27T09:40:40.000Z</time>
        <extensions>
          <ns3:TrackPointExtension>
            <ns3:hr>165</ns3:hr>
            <ns3:cad>92</ns3:cad>
          </ns3:TrackPointExtension>
        </extensions>
      </trkpt>
      <trkpt lat="43.84377957321703433990478515625" lon="4.27827299572527408599853515625">
        <ele>179.8000030517578125</ele>
        <time>2024-01-27T09:40:41.000Z</time>
        <extensions>
          <ns3:TrackPointExtension>
            <ns3:hr>166</ns3:hr>
            <ns3:cad>92</ns3:cad>
          </ns3:TrackPointExtension>
        </extensions>
      </trkpt>
      <trkpt lat="43.84379415772855281829833984375" lon="4.2782905139029026031494140625">
        <ele>179.8000030517578125</ele>
        <time>2024-01-27T09:40:42.000Z</time>
        <extensions>
          <ns3:TrackPointExtension>
            <ns3:hr>166</ns3:hr>
            <ns3:cad>92</ns3:cad>
          </ns3:TrackPointExtension>
        </extensions>
      </trkpt>
      <trkpt lat="43.84381343610584735870361328125" lon="4.27831582725048065185546875">
        <ele>180.1999969482421875</ele>
        <time>2024-01-27T09:40:43.000Z</time>
        <extensions>
          <ns3:TrackPointExtension>
            <ns3:hr>166</ns3:hr>
            <ns3:cad>92</ns3:cad>
          </ns3:TrackPointExtension>
        </extensions>
      </trkpt>
      <trkpt lat="43.843834139406681060791015625" lon="4.27834021858870983123779296875">
        <ele>180.1999969482421875</ele>
        <time>2024-01-27T09:40:44.000Z</time>
        <extensions>
          <ns3:TrackPointExtension>
            <ns3:hr>166</ns3:hr>
            <ns3:cad>92</ns3:cad>
          </ns3:TrackPointExtension>
        </extensions>
      </trkpt>
      <trkpt lat="43.843854255974292755126953125" lon="4.27837106399238109588623046875">
        <ele>180.399993896484375</ele>
        <time>2024-01-27T09:40:45.000Z</time>
        <extensions>
          <ns3:TrackPointExtension>
            <ns3:hr>166</ns3:hr>
            <ns3:cad>92</ns3:cad>
          </ns3:TrackPointExtension>
        </extensions>
      </trkpt>
      <trkpt lat="43.84387529455125331878662109375" lon="4.2783894203603267669677734375">
        <ele>180.399993896484375</ele>
        <time>2024-01-27T09:40:46.000Z</time>
        <extensions>
          <ns3:TrackPointExtension>
            <ns3:hr>166</ns3:hr>
            <ns3:cad>92</ns3:cad>
          </ns3:TrackPointExtension>
        </extensions>
      </trkpt>
      <trkpt lat="43.8438956625759601593017578125" lon="4.27839721553027629852294921875">
        <ele>180.399993896484375</ele>
        <time>2024-01-27T09:40:47.000Z</time>
        <extensions>
          <ns3:TrackPointExtension>
            <ns3:hr>166</ns3:hr>
            <ns3:cad>92</ns3:cad>
          </ns3:TrackPointExtension>
        </extensions>
      </trkpt>
      <trkpt lat="43.843910582363605499267578125" lon="4.278390593826770782470703125">
        <ele>180.399993896484375</ele>
        <time>2024-01-27T09:40:48.000Z</time>
        <extensions>
          <ns3:TrackPointExtension>
            <ns3:hr>165</ns3:hr>
            <ns3:cad>92</ns3:cad>
          </ns3:TrackPointExtension>
        </extensions>
      </trkpt>
      <trkpt lat="43.8439301960170269012451171875" lon="4.2783783562481403350830078125">
        <ele>180.600006103515625</ele>
        <time>2024-01-27T09:40:49.000Z</time>
        <extensions>
          <ns3:TrackPointExtension>
            <ns3:hr>165</ns3:hr>
            <ns3:cad>92</ns3:cad>
          </ns3:TrackPointExtension>
        </extensions>
      </trkpt>
      <trkpt lat="43.8439479656517505645751953125" lon="4.27835899405181407928466796875">
        <ele>180.8000030517578125</ele>
        <time>2024-01-27T09:40:50.000Z</time>
        <extensions>
          <ns3:TrackPointExtension>
            <ns3:hr>165</ns3:hr>
            <ns3:cad>92</ns3:cad>
          </ns3:TrackPointExtension>
        </extensions>
      </trkpt>
      <trkpt lat="43.84396933950483798980712890625" lon="4.27833686582744121551513671875">
        <ele>181</ele>
        <time>2024-01-27T09:40:51.000Z</time>
        <extensions>
          <ns3:TrackPointExtension>
            <ns3:hr>165</ns3:hr>
            <ns3:cad>93</ns3:cad>
          </ns3:TrackPointExtension>
        </extensions>
      </trkpt>
      <trkpt lat="43.843986690044403076171875" lon="4.27831188775599002838134765625">
        <ele>181</ele>
        <time>2024-01-27T09:40:52.000Z</time>
        <extensions>
          <ns3:TrackPointExtension>
            <ns3:hr>165</ns3:hr>
            <ns3:cad>93</ns3:cad>
          </ns3:TrackPointExtension>
        </extensions>
      </trkpt>
      <trkpt lat="43.8440056331455707550048828125" lon="4.278289340436458587646484375">
        <ele>181</ele>
        <time>2024-01-27T09:40:53.000Z</time>
        <extensions>
          <ns3:TrackPointExtension>
            <ns3:hr>166</ns3:hr>
            <ns3:cad>92</ns3:cad>
          </ns3:TrackPointExtension>
        </extensions>
      </trkpt>
      <trkpt lat="43.84402667172253131866455078125" lon="4.2782633565366268157958984375">
        <ele>181</ele>
        <time>2024-01-27T09:40:54.000Z</time>
        <extensions>
          <ns3:TrackPointExtension>
            <ns3:hr>166</ns3:hr>
            <ns3:cad>92</ns3:cad>
          </ns3:TrackPointExtension>
        </extensions>
      </trkpt>
      <trkpt lat="43.8440458662807941436767578125" lon="4.2782442457973957061767578125">
        <ele>181</ele>
        <time>2024-01-27T09:40:55.000Z</time>
        <extensions>
          <ns3:TrackPointExtension>
            <ns3:hr>166</ns3:hr>
            <ns3:cad>92</ns3:cad>
          </ns3:TrackPointExtension>
        </extensions>
      </trkpt>
      <trkpt lat="43.844068832695484161376953125" lon="4.27822035737335681915283203125">
        <ele>181</ele>
        <time>2024-01-27T09:40:56.000Z</time>
        <extensions>
          <ns3:TrackPointExtension>
            <ns3:hr>166</ns3:hr>
            <ns3:cad>93</ns3:cad>
          </ns3:TrackPointExtension>
        </extensions>
      </trkpt>
      <trkpt lat="43.84408785961568355560302734375" lon="4.27820317447185516357421875">
        <ele>181</ele>
        <time>2024-01-27T09:40:57.000Z</time>
        <extensions>
          <ns3:TrackPointExtension>
            <ns3:hr>165</ns3:hr>
            <ns3:cad>93</ns3:cad>
          </ns3:TrackPointExtension>
        </extensions>
      </trkpt>
      <trkpt lat="43.84411518462002277374267578125" lon="4.27817408926784992218017578125">
        <ele>181</ele>
        <time>2024-01-27T09:40:58.000Z</time>
        <extensions>
          <ns3:TrackPointExtension>
            <ns3:hr>165</ns3:hr>
            <ns3:cad>93</ns3:cad>
          </ns3:TrackPointExtension>
        </extensions>
      </trkpt>
      <trkpt lat="43.84413756430149078369140625" lon="4.278151877224445343017578125">
        <ele>181.1999969482421875</ele>
        <time>2024-01-27T09:40:59.000Z</time>
        <extensions>
          <ns3:TrackPointExtension>
            <ns3:hr>165</ns3:hr>
            <ns3:cad>93</ns3:cad>
          </ns3:TrackPointExtension>
        </extensions>
      </trkpt>
      <trkpt lat="43.84416346438229084014892578125" lon="4.27812966518104076385498046875">
        <ele>181.1999969482421875</ele>
        <time>2024-01-27T09:41:00.000Z</time>
        <extensions>
          <ns3:TrackPointExtension>
            <ns3:hr>165</ns3:hr>
            <ns3:cad>93</ns3:cad>
          </ns3:TrackPointExtension>
        </extensions>
      </trkpt>
      <trkpt lat="43.8441823236644268035888671875" lon="4.27811273373663425445556640625">
        <ele>181.1999969482421875</ele>
        <time>2024-01-27T09:41:01.000Z</time>
        <extensions>
          <ns3:TrackPointExtension>
            <ns3:hr>165</ns3:hr>
            <ns3:cad>93</ns3:cad>
          </ns3:TrackPointExtension>
        </extensions>
      </trkpt>
      <trkpt lat="43.8442044518887996673583984375" lon="4.27809454500675201416015625">
        <ele>181.1999969482421875</ele>
        <time>2024-01-27T09:41:02.000Z</time>
        <extensions>
          <ns3:TrackPointExtension>
            <ns3:hr>165</ns3:hr>
            <ns3:cad>93</ns3:cad>
          </ns3:TrackPointExtension>
        </extensions>
      </trkpt>
      <trkpt lat="43.8442232273519039154052734375" lon="4.27807652391493320465087890625">
        <ele>181.1999969482421875</ele>
        <time>2024-01-27T09:41:03.000Z</time>
        <extensions>
          <ns3:TrackPointExtension>
            <ns3:hr>166</ns3:hr>
            <ns3:cad>93</ns3:cad>
          </ns3:TrackPointExtension>
        </extensions>
      </trkpt>
      <trkpt lat="43.84424644522368907928466796875" lon="4.2780581675469875335693359375">
        <ele>181.1999969482421875</ele>
        <time>2024-01-27T09:41:04.000Z</time>
        <extensions>
          <ns3:TrackPointExtension>
            <ns3:hr>165</ns3:hr>
            <ns3:cad>92</ns3:cad>
          </ns3:TrackPointExtension>
        </extensions>
      </trkpt>
      <trkpt lat="43.8442671485245227813720703125" lon="4.27804148755967617034912109375">
        <ele>181.1999969482421875</ele>
        <time>2024-01-27T09:41:05.000Z</time>
        <extensions>
          <ns3:TrackPointExtension>
            <ns3:hr>165</ns3:hr>
            <ns3:cad>92</ns3:cad>
          </ns3:TrackPointExtension>
        </extensions>
      </trkpt>
      <trkpt lat="43.84429103694856166839599609375" lon="4.2780226282775402069091796875">
        <ele>181.1999969482421875</ele>
        <time>2024-01-27T09:41:06.000Z</time>
        <extensions>
          <ns3:TrackPointExtension>
            <ns3:hr>165</ns3:hr>
            <ns3:cad>92</ns3:cad>
          </ns3:TrackPointExtension>
        </extensions>
      </trkpt>
      <trkpt lat="43.84431660175323486328125" lon="4.27799806930124759674072265625">
        <ele>181.1999969482421875</ele>
        <time>2024-01-27T09:41:07.000Z</time>
        <extensions>
          <ns3:TrackPointExtension>
            <ns3:hr>165</ns3:hr>
            <ns3:cad>93</ns3:cad>
          </ns3:TrackPointExtension>
        </extensions>
      </trkpt>
      <trkpt lat="43.8443358801305294036865234375" lon="4.27797946147620677947998046875">
        <ele>181</ele>
        <time>2024-01-27T09:41:08.000Z</time>
        <extensions>
          <ns3:TrackPointExtension>
            <ns3:hr>165</ns3:hr>
            <ns3:cad>93</ns3:cad>
          </ns3:TrackPointExtension>
        </extensions>
      </trkpt>
      <trkpt lat="43.844359181821346282958984375" lon="4.27795867435634136199951171875">
        <ele>181</ele>
        <time>2024-01-27T09:41:09.000Z</time>
        <extensions>
          <ns3:TrackPointExtension>
            <ns3:hr>165</ns3:hr>
            <ns3:cad>93</ns3:cad>
          </ns3:TrackPointExtension>
        </extensions>
      </trkpt>
      <trkpt lat="43.84437720291316509246826171875" lon="4.2779431678354740142822265625">
        <ele>181</ele>
        <time>2024-01-27T09:41:10.000Z</time>
        <extensions>
          <ns3:TrackPointExtension>
            <ns3:hr>164</ns3:hr>
            <ns3:cad>93</ns3:cad>
          </ns3:TrackPointExtension>
        </extensions>
      </trkpt>
      <trkpt lat="43.8443985767662525177001953125" lon="4.27792514674365520477294921875">
        <ele>181</ele>
        <time>2024-01-27T09:41:11.000Z</time>
        <extensions>
          <ns3:TrackPointExtension>
            <ns3:hr>164</ns3:hr>
            <ns3:cad>93</ns3:cad>
          </ns3:TrackPointExtension>
        </extensions>
      </trkpt>
      <trkpt lat="43.84442062117159366607666015625" lon="4.27790503017604351043701171875">
        <ele>181</ele>
        <time>2024-01-27T09:41:12.000Z</time>
        <extensions>
          <ns3:TrackPointExtension>
            <ns3:hr>164</ns3:hr>
            <ns3:cad>93</ns3:cad>
          </ns3:TrackPointExtension>
        </extensions>
      </trkpt>
      <trkpt lat="43.844443000853061676025390625" lon="4.27788826636970043182373046875">
        <ele>181</ele>
        <time>2024-01-27T09:41:13.000Z</time>
        <extensions>
          <ns3:TrackPointExtension>
            <ns3:hr>164</ns3:hr>
            <ns3:cad>92</ns3:cad>
          </ns3:TrackPointExtension>
        </extensions>
      </trkpt>
      <trkpt lat="43.8444600999355316162109375" lon="4.2778699100017547607421875">
        <ele>180.8000030517578125</ele>
        <time>2024-01-27T09:41:14.000Z</time>
        <extensions>
          <ns3:TrackPointExtension>
            <ns3:hr>164</ns3:hr>
            <ns3:cad>92</ns3:cad>
          </ns3:TrackPointExtension>
        </extensions>
      </trkpt>
      <trkpt lat="43.8444820605218410491943359375" lon="4.2778516374528408050537109375">
        <ele>180.8000030517578125</ele>
        <time>2024-01-27T09:41:15.000Z</time>
        <extensions>
          <ns3:TrackPointExtension>
            <ns3:hr>164</ns3:hr>
            <ns3:cad>92</ns3:cad>
          </ns3:TrackPointExtension>
        </extensions>
      </trkpt>
      <trkpt lat="43.8445025123655796051025390625" lon="4.27783093415200710296630859375">
        <ele>180.8000030517578125</ele>
        <time>2024-01-27T09:41:16.000Z</time>
        <extensions>
          <ns3:TrackPointExtension>
            <ns3:hr>164</ns3:hr>
            <ns3:cad>92</ns3:cad>
          </ns3:TrackPointExtension>
        </extensions>
      </trkpt>
      <trkpt lat="43.84451785124838352203369140625" lon="4.27781827747821807861328125">
        <ele>180.8000030517578125</ele>
        <time>2024-01-27T09:41:17.000Z</time>
        <extensions>
          <ns3:TrackPointExtension>
            <ns3:hr>164</ns3:hr>
            <ns3:cad>92</ns3:cad>
          </ns3:TrackPointExtension>
        </extensions>
      </trkpt>
      <trkpt lat="43.84454517625272274017333984375" lon="4.2777949757874011993408203125">
        <ele>180.8000030517578125</ele>
        <time>2024-01-27T09:41:18.000Z</time>
        <extensions>
          <ns3:TrackPointExtension>
            <ns3:hr>164</ns3:hr>
            <ns3:cad>92</ns3:cad>
          </ns3:TrackPointExtension>
        </extensions>
      </trkpt>
      <trkpt lat="43.844567053020000457763671875" lon="4.27778148092329502105712890625">
        <ele>181</ele>
        <time>2024-01-27T09:41:19.000Z</time>
        <extensions>
          <ns3:TrackPointExtension>
            <ns3:hr>164</ns3:hr>
            <ns3:cad>92</ns3:cad>
          </ns3:TrackPointExtension>
        </extensions>
      </trkpt>
      <trkpt lat="43.844593204557895660400390625" lon="4.27776387892663478851318359375">
        <ele>181</ele>
        <time>2024-01-27T09:41:20.000Z</time>
        <extensions>
          <ns3:TrackPointExtension>
            <ns3:hr>164</ns3:hr>
            <ns3:cad>92</ns3:cad>
          </ns3:TrackPointExtension>
        </extensions>
      </trkpt>
      <trkpt lat="43.84461491368710994720458984375" lon="4.27775247953832149505615234375">
        <ele>181</ele>
        <time>2024-01-27T09:41:21.000Z</time>
        <extensions>
          <ns3:TrackPointExtension>
            <ns3:hr>166</ns3:hr>
            <ns3:cad>92</ns3:cad>
          </ns3:TrackPointExtension>
        </extensions>
      </trkpt>
      <trkpt lat="43.84464089758694171905517578125" lon="4.27773605100810527801513671875">
        <ele>181.399993896484375</ele>
        <time>2024-01-27T09:41:22.000Z</time>
        <extensions>
          <ns3:TrackPointExtension>
            <ns3:hr>166</ns3:hr>
            <ns3:cad>92</ns3:cad>
          </ns3:TrackPointExtension>
        </extensions>
      </trkpt>
      <trkpt lat="43.844658918678760528564453125" lon="4.277720712125301361083984375">
        <ele>181.399993896484375</ele>
        <time>2024-01-27T09:41:23.000Z</time>
        <extensions>
          <ns3:TrackPointExtension>
            <ns3:hr>167</ns3:hr>
            <ns3:cad>92</ns3:cad>
          </ns3:TrackPointExtension>
        </extensions>
      </trkpt>
      <trkpt lat="43.84467928670346736907958984375" lon="4.27770168520510196685791015625">
        <ele>181.399993896484375</ele>
        <time>2024-01-27T09:41:24.000Z</time>
        <extensions>
          <ns3:TrackPointExtension>
            <ns3:hr>167</ns3:hr>
            <ns3:cad>92</ns3:cad>
          </ns3:TrackPointExtension>
        </extensions>
      </trkpt>
      <trkpt lat="43.8446979783475399017333984375" lon="4.2776813171803951263427734375">
        <ele>181.399993896484375</ele>
        <time>2024-01-27T09:41:25.000Z</time>
        <extensions>
          <ns3:TrackPointExtension>
            <ns3:hr>167</ns3:hr>
            <ns3:cad>92</ns3:cad>
          </ns3:TrackPointExtension>
        </extensions>
      </trkpt>
      <trkpt lat="43.84471750818192958831787109375" lon="4.27765977568924427032470703125">
        <ele>181.399993896484375</ele>
        <time>2024-01-27T09:41:26.000Z</time>
        <extensions>
          <ns3:TrackPointExtension>
            <ns3:hr>167</ns3:hr>
            <ns3:cad>92</ns3:cad>
          </ns3:TrackPointExtension>
        </extensions>
      </trkpt>
      <trkpt lat="43.84473745711147785186767578125" lon="4.27763613872230052947998046875">
        <ele>181.600006103515625</ele>
        <time>2024-01-27T09:41:27.000Z</time>
        <extensions>
          <ns3:TrackPointExtension>
            <ns3:hr>167</ns3:hr>
            <ns3:cad>91</ns3:cad>
          </ns3:TrackPointExtension>
        </extensions>
      </trkpt>
      <trkpt lat="43.84476109407842159271240234375" lon="4.277613423764705657958984375">
        <ele>181.600006103515625</ele>
        <time>2024-01-27T09:41:28.000Z</time>
        <extensions>
          <ns3:TrackPointExtension>
            <ns3:hr>167</ns3:hr>
            <ns3:cad>91</ns3:cad>
          </ns3:TrackPointExtension>
        </extensions>
      </trkpt>
      <trkpt lat="43.8447874970734119415283203125" lon="4.27759288810193538665771484375">
        <ele>181.600006103515625</ele>
        <time>2024-01-27T09:41:29.000Z</time>
        <extensions>
          <ns3:TrackPointExtension>
            <ns3:hr>167</ns3:hr>
            <ns3:cad>92</ns3:cad>
          </ns3:TrackPointExtension>
        </extensions>
      </trkpt>
      <trkpt lat="43.8448123075067996978759765625" lon="4.2775757052004337310791015625">
        <ele>181.600006103515625</ele>
        <time>2024-01-27T09:41:30.000Z</time>
        <extensions>
          <ns3:TrackPointExtension>
            <ns3:hr>167</ns3:hr>
            <ns3:cad>92</ns3:cad>
          </ns3:TrackPointExtension>
        </extensions>
      </trkpt>
      <trkpt lat="43.8448367826640605926513671875" lon="4.2775565944612026214599609375">
        <ele>181.8000030517578125</ele>
        <time>2024-01-27T09:41:31.000Z</time>
        <extensions>
          <ns3:TrackPointExtension>
            <ns3:hr>167</ns3:hr>
            <ns3:cad>93</ns3:cad>
          </ns3:TrackPointExtension>
        </extensions>
      </trkpt>
      <trkpt lat="43.844856061041355133056640625" lon="4.27754192613065242767333984375">
        <ele>181.8000030517578125</ele>
        <time>2024-01-27T09:41:32.000Z</time>
        <extensions>
          <ns3:TrackPointExtension>
            <ns3:hr>167</ns3:hr>
            <ns3:cad>94</ns3:cad>
          </ns3:TrackPointExtension>
        </extensions>
      </trkpt>
      <trkpt lat="43.844880871474742889404296875" lon="4.27752030082046985626220703125">
        <ele>181.8000030517578125</ele>
        <time>2024-01-27T09:41:33.000Z</time>
        <extensions>
          <ns3:TrackPointExtension>
            <ns3:hr>167</ns3:hr>
            <ns3:cad>94</ns3:cad>
          </ns3:TrackPointExtension>
        </extensions>
      </trkpt>
      <trkpt lat="43.84489872492849826812744140625" lon="4.27750043570995330810546875">
        <ele>181.8000030517578125</ele>
        <time>2024-01-27T09:41:34.000Z</time>
        <extensions>
          <ns3:TrackPointExtension>
            <ns3:hr>167</ns3:hr>
            <ns3:cad>94</ns3:cad>
          </ns3:TrackPointExtension>
        </extensions>
      </trkpt>
      <trkpt lat="43.8449209369719028472900390625" lon="4.2774710990488529205322265625">
        <ele>181.8000030517578125</ele>
        <time>2024-01-27T09:41:35.000Z</time>
        <extensions>
          <ns3:TrackPointExtension>
            <ns3:hr>167</ns3:hr>
            <ns3:cad>94</ns3:cad>
          </ns3:TrackPointExtension>
        </extensions>
      </trkpt>
      <trkpt lat="43.84493845514953136444091796875" lon="4.27744871936738491058349609375">
        <ele>181.8000030517578125</ele>
        <time>2024-01-27T09:41:36.000Z</time>
        <extensions>
          <ns3:TrackPointExtension>
            <ns3:hr>167</ns3:hr>
            <ns3:cad>92</ns3:cad>
          </ns3:TrackPointExtension>
        </extensions>
      </trkpt>
      <trkpt lat="43.8449574820697307586669921875" lon="4.27742575295269489288330078125">
        <ele>181.8000030517578125</ele>
        <time>2024-01-27T09:41:37.000Z</time>
        <extensions>
          <ns3:TrackPointExtension>
            <ns3:hr>167</ns3:hr>
            <ns3:cad>92</ns3:cad>
          </ns3:TrackPointExtension>
        </extensions>
      </trkpt>
      <trkpt lat="43.84497382678091526031494140625" lon="4.2774013616144657135009765625">
        <ele>181.8000030517578125</ele>
        <time>2024-01-27T09:41:38.000Z</time>
        <extensions>
          <ns3:TrackPointExtension>
            <ns3:hr>167</ns3:hr>
            <ns3:cad>94</ns3:cad>
          </ns3:TrackPointExtension>
        </extensions>
      </trkpt>
      <trkpt lat="43.8449933566153049468994140625" lon="4.2773778922855854034423828125">
        <ele>181.8000030517578125</ele>
        <time>2024-01-27T09:41:39.000Z</time>
        <extensions>
          <ns3:TrackPointExtension>
            <ns3:hr>166</ns3:hr>
            <ns3:cad>94</ns3:cad>
          </ns3:TrackPointExtension>
        </extensions>
      </trkpt>
      <trkpt lat="43.8450154848396778106689453125" lon="4.2773576080799102783203125">
        <ele>181.8000030517578125</ele>
        <time>2024-01-27T09:41:40.000Z</time>
        <extensions>
          <ns3:TrackPointExtension>
            <ns3:hr>166</ns3:hr>
            <ns3:cad>92</ns3:cad>
          </ns3:TrackPointExtension>
        </extensions>
      </trkpt>
      <trkpt lat="43.84503568522632122039794921875" lon="4.27734218537807464599609375">
        <ele>181.8000030517578125</ele>
        <time>2024-01-27T09:41:41.000Z</time>
        <extensions>
          <ns3:TrackPointExtension>
            <ns3:hr>166</ns3:hr>
            <ns3:cad>92</ns3:cad>
          </ns3:TrackPointExtension>
        </extensions>
      </trkpt>
      <trkpt lat="43.84505982510745525360107421875" lon="4.277321398258209228515625">
        <ele>181.8000030517578125</ele>
        <time>2024-01-27T09:41:42.000Z</time>
        <extensions>
          <ns3:TrackPointExtension>
            <ns3:hr>165</ns3:hr>
            <ns3:cad>92</ns3:cad>
          </ns3:TrackPointExtension>
        </extensions>
      </trkpt>
      <trkpt lat="43.84507943876087665557861328125" lon="4.2773039638996124267578125">
        <ele>182</ele>
        <time>2024-01-27T09:41:43.000Z</time>
        <extensions>
          <ns3:TrackPointExtension>
            <ns3:hr>165</ns3:hr>
            <ns3:cad>92</ns3:cad>
          </ns3:TrackPointExtension>
        </extensions>
      </trkpt>
      <trkpt lat="43.84510307572782039642333984375" lon="4.27728141658008098602294921875">
        <ele>182</ele>
        <time>2024-01-27T09:41:44.000Z</time>
        <extensions>
          <ns3:TrackPointExtension>
            <ns3:hr>165</ns3:hr>
            <ns3:cad>92</ns3:cad>
          </ns3:TrackPointExtension>
        </extensions>
      </trkpt>
      <trkpt lat="43.845120258629322052001953125" lon="4.27725878544151782989501953125">
        <ele>182</ele>
        <time>2024-01-27T09:41:45.000Z</time>
        <extensions>
          <ns3:TrackPointExtension>
            <ns3:hr>165</ns3:hr>
            <ns3:cad>94</ns3:cad>
          </ns3:TrackPointExtension>
        </extensions>
      </trkpt>
      <trkpt lat="43.84514045901596546173095703125" lon="4.2772369086742401123046875">
        <ele>182</ele>
        <time>2024-01-27T09:41:46.000Z</time>
        <extensions>
          <ns3:TrackPointExtension>
            <ns3:hr>165</ns3:hr>
            <ns3:cad>94</ns3:cad>
          </ns3:TrackPointExtension>
        </extensions>
      </trkpt>
      <trkpt lat="43.84516216814517974853515625" lon="4.2772092483937740325927734375">
        <ele>182.1999969482421875</ele>
        <time>2024-01-27T09:41:47.000Z</time>
        <extensions>
          <ns3:TrackPointExtension>
            <ns3:hr>164</ns3:hr>
            <ns3:cad>94</ns3:cad>
          </ns3:TrackPointExtension>
        </extensions>
      </trkpt>
      <trkpt lat="43.845182619988918304443359375" lon="4.2771864496171474456787109375">
        <ele>182.1999969482421875</ele>
        <time>2024-01-27T09:41:48.000Z</time>
        <extensions>
          <ns3:TrackPointExtension>
            <ns3:hr>165</ns3:hr>
            <ns3:cad>94</ns3:cad>
          </ns3:TrackPointExtension>
        </extensions>
      </trkpt>
      <trkpt lat="43.84520164690911769866943359375" lon="4.27715954370796680450439453125">
        <ele>182.1999969482421875</ele>
        <time>2024-01-27T09:41:49.000Z</time>
        <extensions>
          <ns3:TrackPointExtension>
            <ns3:hr>164</ns3:hr>
            <ns3:cad>92</ns3:cad>
          </ns3:TrackPointExtension>
        </extensions>
      </trkpt>
      <trkpt lat="43.8452245295047760009765625" lon="4.277135320007801055908203125">
        <ele>182.1999969482421875</ele>
        <time>2024-01-27T09:41:50.000Z</time>
        <extensions>
          <ns3:TrackPointExtension>
            <ns3:hr>164</ns3:hr>
            <ns3:cad>92</ns3:cad>
          </ns3:TrackPointExtension>
        </extensions>
      </trkpt>
      <trkpt lat="43.8452474959194660186767578125" lon="4.27710950374603271484375">
        <ele>182.1999969482421875</ele>
        <time>2024-01-27T09:41:51.000Z</time>
        <extensions>
          <ns3:TrackPointExtension>
            <ns3:hr>164</ns3:hr>
            <ns3:cad>94</ns3:cad>
          </ns3:TrackPointExtension>
        </extensions>
      </trkpt>
      <trkpt lat="43.8452716358006000518798828125" lon="4.27709005773067474365234375">
        <ele>182.1999969482421875</ele>
        <time>2024-01-27T09:41:52.000Z</time>
        <extensions>
          <ns3:TrackPointExtension>
            <ns3:hr>164</ns3:hr>
            <ns3:cad>94</ns3:cad>
          </ns3:TrackPointExtension>
        </extensions>
      </trkpt>
      <trkpt lat="43.8452942669391632080078125" lon="4.2770717851817607879638671875">
        <ele>182.1999969482421875</ele>
        <time>2024-01-27T09:41:53.000Z</time>
        <extensions>
          <ns3:TrackPointExtension>
            <ns3:hr>164</ns3:hr>
            <ns3:cad>94</ns3:cad>
          </ns3:TrackPointExtension>
        </extensions>
      </trkpt>
      <trkpt lat="43.84531295858323574066162109375" lon="4.27705359645187854766845703125">
        <ele>182.399993896484375</ele>
        <time>2024-01-27T09:41:54.000Z</time>
        <extensions>
          <ns3:TrackPointExtension>
            <ns3:hr>164</ns3:hr>
            <ns3:cad>93</ns3:cad>
          </ns3:TrackPointExtension>
        </extensions>
      </trkpt>
      <trkpt lat="43.84533525444567203521728515625" lon="4.277034066617488861083984375">
        <ele>182.399993896484375</ele>
        <time>2024-01-27T09:41:55.000Z</time>
        <extensions>
          <ns3:TrackPointExtension>
            <ns3:hr>164</ns3:hr>
            <ns3:cad>93</ns3:cad>
          </ns3:TrackPointExtension>
        </extensions>
      </trkpt>
      <trkpt lat="43.84535134769976139068603515625" lon="4.27701788954436779022216796875">
        <ele>182.399993896484375</ele>
        <time>2024-01-27T09:41:56.000Z</time>
        <extensions>
          <ns3:TrackPointExtension>
            <ns3:hr>164</ns3:hr>
            <ns3:cad>93</ns3:cad>
          </ns3:TrackPointExtension>
        </extensions>
      </trkpt>
      <trkpt lat="43.84537045843899250030517578125" lon="4.27699886262416839599609375">
        <ele>182.399993896484375</ele>
        <time>2024-01-27T09:41:57.000Z</time>
        <extensions>
          <ns3:TrackPointExtension>
            <ns3:hr>164</ns3:hr>
            <ns3:cad>92</ns3:cad>
          </ns3:TrackPointExtension>
        </extensions>
      </trkpt>
      <trkpt lat="43.845386467874050140380859375" lon="4.2769794166088104248046875">
        <ele>182.399993896484375</ele>
        <time>2024-01-27T09:41:58.000Z</time>
        <extensions>
          <ns3:TrackPointExtension>
            <ns3:hr>164</ns3:hr>
            <ns3:cad>91</ns3:cad>
          </ns3:TrackPointExtension>
        </extensions>
      </trkpt>
      <trkpt lat="43.84540717117488384246826171875" lon="4.2769606411457061767578125">
        <ele>182.399993896484375</ele>
        <time>2024-01-27T09:41:59.000Z</time>
        <extensions>
          <ns3:TrackPointExtension>
            <ns3:hr>165</ns3:hr>
            <ns3:cad>91</ns3:cad>
          </ns3:TrackPointExtension>
        </extensions>
      </trkpt>
      <trkpt lat="43.845426701009273529052734375" lon="4.276939518749713897705078125">
        <ele>182.399993896484375</ele>
        <time>2024-01-27T09:42:00.000Z</time>
        <extensions>
          <ns3:TrackPointExtension>
            <ns3:hr>165</ns3:hr>
            <ns3:cad>92</ns3:cad>
          </ns3:TrackPointExtension>
        </extensions>
      </trkpt>
      <trkpt lat="43.84544874541461467742919921875" lon="4.2769209109246730804443359375">
        <ele>182.600006103515625</ele>
        <time>2024-01-27T09:42:01.000Z</time>
        <extensions>
          <ns3:TrackPointExtension>
            <ns3:hr>165</ns3:hr>
            <ns3:cad>94</ns3:cad>
          </ns3:TrackPointExtension>
        </extensions>
      </trkpt>
      <trkpt lat="43.84547087363898754119873046875" lon="4.27690423093736171722412109375">
        <ele>182.600006103515625</ele>
        <time>2024-01-27T09:42:02.000Z</time>
        <extensions>
          <ns3:TrackPointExtension>
            <ns3:hr>165</ns3:hr>
            <ns3:cad>94</ns3:cad>
          </ns3:TrackPointExtension>
        </extensions>
      </trkpt>
      <trkpt lat="43.84549149312078952789306640625" lon="4.2768914066255092620849609375">
        <ele>182.8000030517578125</ele>
        <time>2024-01-27T09:42:03.000Z</time>
        <extensions>
          <ns3:TrackPointExtension>
            <ns3:hr>165</ns3:hr>
            <ns3:cad>92</ns3:cad>
          </ns3:TrackPointExtension>
        </extensions>
      </trkpt>
      <trkpt lat="43.8455133698880672454833984375" lon="4.2768779955804347991943359375">
        <ele>182.8000030517578125</ele>
        <time>2024-01-27T09:42:04.000Z</time>
        <extensions>
          <ns3:TrackPointExtension>
            <ns3:hr>165</ns3:hr>
            <ns3:cad>92</ns3:cad>
          </ns3:TrackPointExtension>
        </extensions>
      </trkpt>
      <trkpt lat="43.845531977713108062744140625" lon="4.27686550654470920562744140625">
        <ele>182.8000030517578125</ele>
        <time>2024-01-27T09:42:05.000Z</time>
        <extensions>
          <ns3:TrackPointExtension>
            <ns3:hr>165</ns3:hr>
            <ns3:cad>94</ns3:cad>
          </ns3:TrackPointExtension>
        </extensions>
      </trkpt>
      <trkpt lat="43.84555536322295665740966796875" lon="4.27685108967125415802001953125">
        <ele>183</ele>
        <time>2024-01-27T09:42:06.000Z</time>
        <extensions>
          <ns3:TrackPointExtension>
            <ns3:hr>165</ns3:hr>
            <ns3:cad>94</ns3:cad>
          </ns3:TrackPointExtension>
        </extensions>
      </trkpt>
      <trkpt lat="43.84557128883898258209228515625" lon="4.2768394388258457183837890625">
        <ele>183</ele>
        <time>2024-01-27T09:42:07.000Z</time>
        <extensions>
          <ns3:TrackPointExtension>
            <ns3:hr>165</ns3:hr>
            <ns3:cad>93</ns3:cad>
          </ns3:TrackPointExtension>
        </extensions>
      </trkpt>
      <trkpt lat="43.845592997968196868896484375" lon="4.2768186517059803009033203125">
        <ele>183</ele>
        <time>2024-01-27T09:42:08.000Z</time>
        <extensions>
          <ns3:TrackPointExtension>
            <ns3:hr>165</ns3:hr>
            <ns3:cad>93</ns3:cad>
          </ns3:TrackPointExtension>
        </extensions>
      </trkpt>
      <trkpt lat="43.8456089235842227935791015625" lon="4.27679459564387798309326171875">
        <ele>183</ele>
        <time>2024-01-27T09:42:09.000Z</time>
        <extensions>
          <ns3:TrackPointExtension>
            <ns3:hr>165</ns3:hr>
            <ns3:cad>93</ns3:cad>
          </ns3:TrackPointExtension>
        </extensions>
      </trkpt>
      <trkpt lat="43.8456216640770435333251953125" lon="4.2767650075256824493408203125">
        <ele>183</ele>
        <time>2024-01-27T09:42:10.000Z</time>
        <extensions>
          <ns3:TrackPointExtension>
            <ns3:hr>165</ns3:hr>
            <ns3:cad>93</ns3:cad>
          </ns3:TrackPointExtension>
        </extensions>
      </trkpt>
      <trkpt lat="43.845622837543487548828125" lon="4.27674145437777042388916015625">
        <ele>183</ele>
        <time>2024-01-27T09:42:11.000Z</time>
        <extensions>
          <ns3:TrackPointExtension>
            <ns3:hr>165</ns3:hr>
            <ns3:cad>93</ns3:cad>
          </ns3:TrackPointExtension>
        </extensions>
      </trkpt>
      <trkpt lat="43.84560917504131793975830078125" lon="4.2767113633453845977783203125">
        <ele>183</ele>
        <time>2024-01-27T09:42:12.000Z</time>
        <extensions>
          <ns3:TrackPointExtension>
            <ns3:hr>165</ns3:hr>
            <ns3:cad>93</ns3:cad>
          </ns3:TrackPointExtension>
        </extensions>
      </trkpt>
      <trkpt lat="43.8455935008823871612548828125" lon="4.27669267170131206512451171875">
        <ele>183.1999969482421875</ele>
        <time>2024-01-27T09:42:13.000Z</time>
        <extensions>
          <ns3:TrackPointExtension>
            <ns3:hr>165</ns3:hr>
            <ns3:cad>92</ns3:cad>
          </ns3:TrackPointExtension>
        </extensions>
      </trkpt>
      <trkpt lat="43.84557656943798065185546875" lon="4.27666802890598773956298828125">
        <ele>183.1999969482421875</ele>
        <time>2024-01-27T09:42:14.000Z</time>
        <extensions>
          <ns3:TrackPointExtension>
            <ns3:hr>165</ns3:hr>
            <ns3:cad>92</ns3:cad>
          </ns3:TrackPointExtension>
        </extensions>
      </trkpt>
      <trkpt lat="43.845564164221286773681640625" lon="4.276647828519344329833984375">
        <ele>183.1999969482421875</ele>
        <time>2024-01-27T09:42:15.000Z</time>
        <extensions>
          <ns3:TrackPointExtension>
            <ns3:hr>165</ns3:hr>
            <ns3:cad>92</ns3:cad>
          </ns3:TrackPointExtension>
        </extensions>
      </trkpt>
      <trkpt lat="43.845559470355510711669921875" lon="4.27662335336208343505859375">
        <ele>183.1999969482421875</ele>
        <time>2024-01-27T09:42:16.000Z</time>
        <extensions>
          <ns3:TrackPointExtension>
            <ns3:hr>165</ns3:hr>
            <ns3:cad>92</ns3:cad>
          </ns3:TrackPointExtension>
        </extensions>
      </trkpt>
      <trkpt lat="43.845553100109100341796875" lon="4.2765990458428859710693359375">
        <ele>183.1999969482421875</ele>
        <time>2024-01-27T09:42:17.000Z</time>
        <extensions>
          <ns3:TrackPointExtension>
            <ns3:hr>165</ns3:hr>
            <ns3:cad>91</ns3:cad>
          </ns3:TrackPointExtension>
        </extensions>
      </trkpt>
      <trkpt lat="43.84554480202496051788330078125" lon="4.27656409330666065216064453125">
        <ele>183.1999969482421875</ele>
        <time>2024-01-27T09:42:18.000Z</time>
        <extensions>
          <ns3:TrackPointExtension>
            <ns3:hr>165</ns3:hr>
            <ns3:cad>90</ns3:cad>
          </ns3:TrackPointExtension>
        </extensions>
      </trkpt>
      <trkpt lat="43.845536001026630401611328125" lon="4.27653660066425800323486328125">
        <ele>183.1999969482421875</ele>
        <time>2024-01-27T09:42:19.000Z</time>
        <extensions>
          <ns3:TrackPointExtension>
            <ns3:hr>165</ns3:hr>
            <ns3:cad>89</ns3:cad>
          </ns3:TrackPointExtension>
        </extensions>
      </trkpt>
      <trkpt lat="43.84552351199090480804443359375" lon="4.27650307305157184600830078125">
        <ele>183.1999969482421875</ele>
        <time>2024-01-27T09:42:20.000Z</time>
        <extensions>
          <ns3:TrackPointExtension>
            <ns3:hr>165</ns3:hr>
            <ns3:cad>89</ns3:cad>
          </ns3:TrackPointExtension>
        </extensions>
      </trkpt>
      <trkpt lat="43.8455130346119403839111328125" lon="4.276478849351406097412109375">
        <ele>183.1999969482421875</ele>
        <time>2024-01-27T09:42:21.000Z</time>
        <extensions>
          <ns3:TrackPointExtension>
            <ns3:hr>165</ns3:hr>
            <ns3:cad>88</ns3:cad>
          </ns3:TrackPointExtension>
        </extensions>
      </trkpt>
      <trkpt lat="43.8454942591488361358642578125" lon="4.276462756097316741943359375">
        <ele>183.1999969482421875</ele>
        <time>2024-01-27T09:42:22.000Z</time>
        <extensions>
          <ns3:TrackPointExtension>
            <ns3:hr>165</ns3:hr>
            <ns3:cad>88</ns3:cad>
          </ns3:TrackPointExtension>
        </extensions>
      </trkpt>
      <trkpt lat="43.845474980771541595458984375" lon="4.2764498479664325714111328125">
        <ele>183.1999969482421875</ele>
        <time>2024-01-27T09:42:23.000Z</time>
        <extensions>
          <ns3:TrackPointExtension>
            <ns3:hr>165</ns3:hr>
            <ns3:cad>89</ns3:cad>
          </ns3:TrackPointExtension>
        </extensions>
      </trkpt>
      <trkpt lat="43.84545343928039073944091796875" lon="4.27643291652202606201171875">
        <ele>183</ele>
        <time>2024-01-27T09:42:24.000Z</time>
        <extensions>
          <ns3:TrackPointExtension>
            <ns3:hr>165</ns3:hr>
            <ns3:cad>89</ns3:cad>
          </ns3:TrackPointExtension>
        </extensions>
      </trkpt>
      <trkpt lat="43.8454364240169525146484375" lon="4.2764233611524105072021484375">
        <ele>183</ele>
        <time>2024-01-27T09:42:25.000Z</time>
        <extensions>
          <ns3:TrackPointExtension>
            <ns3:hr>165</ns3:hr>
            <ns3:cad>89</ns3:cad>
          </ns3:TrackPointExtension>
        </extensions>
      </trkpt>
      <trkpt lat="43.84541454724967479705810546875" lon="4.27640416659414768218994140625">
        <ele>183</ele>
        <time>2024-01-27T09:42:26.000Z</time>
        <extensions>
          <ns3:TrackPointExtension>
            <ns3:hr>164</ns3:hr>
            <ns3:cad>88</ns3:cad>
          </ns3:TrackPointExtension>
        </extensions>
      </trkpt>
      <trkpt lat="43.84539376012980937957763671875" lon="4.27638321183621883392333984375">
        <ele>182.8000030517578125</ele>
        <time>2024-01-27T09:42:27.000Z</time>
        <extensions>
          <ns3:TrackPointExtension>
            <ns3:hr>164</ns3:hr>
            <ns3:cad>88</ns3:cad>
          </ns3:TrackPointExtension>
        </extensions>
      </trkpt>
      <trkpt lat="43.84537045843899250030517578125" lon="4.27635437808930873870849609375">
        <ele>182.600006103515625</ele>
        <time>2024-01-27T09:42:28.000Z</time>
        <extensions>
          <ns3:TrackPointExtension>
            <ns3:hr>164</ns3:hr>
            <ns3:cad>88</ns3:cad>
          </ns3:TrackPointExtension>
        </extensions>
      </trkpt>
      <trkpt lat="43.84535486809909343719482421875" lon="4.27633157931268215179443359375">
        <ele>182.600006103515625</ele>
        <time>2024-01-27T09:42:29.000Z</time>
        <extensions>
          <ns3:TrackPointExtension>
            <ns3:hr>164</ns3:hr>
            <ns3:cad>88</ns3:cad>
          </ns3:TrackPointExtension>
        </extensions>
      </trkpt>
      <trkpt lat="43.8453323207795619964599609375" lon="4.276305846869945526123046875">
        <ele>182.600006103515625</ele>
        <time>2024-01-27T09:42:30.000Z</time>
        <extensions>
          <ns3:TrackPointExtension>
            <ns3:hr>164</ns3:hr>
            <ns3:cad>88</ns3:cad>
          </ns3:TrackPointExtension>
        </extensions>
      </trkpt>
      <trkpt lat="43.84531279094517230987548828125" lon="4.2762892507016658782958984375">
        <ele>182.399993896484375</ele>
        <time>2024-01-27T09:42:31.000Z</time>
        <extensions>
          <ns3:TrackPointExtension>
            <ns3:hr>164</ns3:hr>
            <ns3:cad>89</ns3:cad>
          </ns3:TrackPointExtension>
        </extensions>
      </trkpt>
      <trkpt lat="43.84528848342597484588623046875" lon="4.2762667872011661529541015625">
        <ele>182.399993896484375</ele>
        <time>2024-01-27T09:42:32.000Z</time>
        <extensions>
          <ns3:TrackPointExtension>
            <ns3:hr>164</ns3:hr>
            <ns3:cad>89</ns3:cad>
          </ns3:TrackPointExtension>
        </extensions>
      </trkpt>
      <trkpt lat="43.845270462334156036376953125" lon="4.2762463353574275970458984375">
        <ele>182.1999969482421875</ele>
        <time>2024-01-27T09:42:33.000Z</time>
        <extensions>
          <ns3:TrackPointExtension>
            <ns3:hr>164</ns3:hr>
            <ns3:cad>89</ns3:cad>
          </ns3:TrackPointExtension>
        </extensions>
      </trkpt>
      <trkpt lat="43.84525160305202007293701171875" lon="4.27622730843722820281982421875">
        <ele>182.1999969482421875</ele>
        <time>2024-01-27T09:42:34.000Z</time>
        <extensions>
          <ns3:TrackPointExtension>
            <ns3:hr>164</ns3:hr>
            <ns3:cad>90</ns3:cad>
          </ns3:TrackPointExtension>
        </extensions>
      </trkpt>
      <trkpt lat="43.8452414609491825103759765625" lon="4.27619763650000095367431640625">
        <ele>182</ele>
        <time>2024-01-27T09:42:35.000Z</time>
        <extensions>
          <ns3:TrackPointExtension>
            <ns3:hr>164</ns3:hr>
            <ns3:cad>90</ns3:cad>
          </ns3:TrackPointExtension>
        </extensions>
      </trkpt>
      <trkpt lat="43.84523835964500904083251953125" lon="4.27617064677178859710693359375">
        <ele>181.8000030517578125</ele>
        <time>2024-01-27T09:42:36.000Z</time>
        <extensions>
          <ns3:TrackPointExtension>
            <ns3:hr>164</ns3:hr>
            <ns3:cad>89</ns3:cad>
          </ns3:TrackPointExtension>
        </extensions>
      </trkpt>
      <trkpt lat="43.84524037130177021026611328125" lon="4.2761400528252124786376953125">
        <ele>181.8000030517578125</ele>
        <time>2024-01-27T09:42:37.000Z</time>
        <extensions>
          <ns3:TrackPointExtension>
            <ns3:hr>163</ns3:hr>
            <ns3:cad>88</ns3:cad>
          </ns3:TrackPointExtension>
        </extensions>
      </trkpt>
      <trkpt lat="43.8452364318072795867919921875" lon="4.2761092074215412139892578125">
        <ele>181.8000030517578125</ele>
        <time>2024-01-27T09:42:38.000Z</time>
        <extensions>
          <ns3:TrackPointExtension>
            <ns3:hr>163</ns3:hr>
            <ns3:cad>88</ns3:cad>
          </ns3:TrackPointExtension>
        </extensions>
      </trkpt>
      <trkpt lat="43.84523014537990093231201171875" lon="4.2760766856372356414794921875">
        <ele>181.8000030517578125</ele>
        <time>2024-01-27T09:42:39.000Z</time>
        <extensions>
          <ns3:TrackPointExtension>
            <ns3:hr>163</ns3:hr>
            <ns3:cad>88</ns3:cad>
          </ns3:TrackPointExtension>
        </extensions>
      </trkpt>
      <trkpt lat="43.84522008709609508514404296875" lon="4.27604508586227893829345703125">
        <ele>181.8000030517578125</ele>
        <time>2024-01-27T09:42:40.000Z</time>
        <extensions>
          <ns3:TrackPointExtension>
            <ns3:hr>163</ns3:hr>
            <ns3:cad>88</ns3:cad>
          </ns3:TrackPointExtension>
        </extensions>
      </trkpt>
      <trkpt lat="43.84521287865936756134033203125" lon="4.27601323463022708892822265625">
        <ele>181.8000030517578125</ele>
        <time>2024-01-27T09:42:41.000Z</time>
        <extensions>
          <ns3:TrackPointExtension>
            <ns3:hr>163</ns3:hr>
            <ns3:cad>89</ns3:cad>
          </ns3:TrackPointExtension>
        </extensions>
      </trkpt>
      <trkpt lat="43.845208771526813507080078125" lon="4.275985322892665863037109375">
        <ele>181.8000030517578125</ele>
        <time>2024-01-27T09:42:42.000Z</time>
        <extensions>
          <ns3:TrackPointExtension>
            <ns3:hr>162</ns3:hr>
            <ns3:cad>89</ns3:cad>
          </ns3:TrackPointExtension>
        </extensions>
      </trkpt>
      <trkpt lat="43.84520516730844974517822265625" lon="4.275953471660614013671875">
        <ele>181.600006103515625</ele>
        <time>2024-01-27T09:42:43.000Z</time>
        <extensions>
          <ns3:TrackPointExtension>
            <ns3:hr>162</ns3:hr>
            <ns3:cad>89</ns3:cad>
          </ns3:TrackPointExtension>
        </extensions>
      </trkpt>
      <trkpt lat="43.845202066004276275634765625" lon="4.27592706866562366485595703125">
        <ele>181.600006103515625</ele>
        <time>2024-01-27T09:42:44.000Z</time>
        <extensions>
          <ns3:TrackPointExtension>
            <ns3:hr>162</ns3:hr>
            <ns3:cad>87</ns3:cad>
          </ns3:TrackPointExtension>
        </extensions>
      </trkpt>
      <trkpt lat="43.84519846178591251373291015625" lon="4.27588985301554203033447265625">
        <ele>181.600006103515625</ele>
        <time>2024-01-27T09:42:45.000Z</time>
        <extensions>
          <ns3:TrackPointExtension>
            <ns3:hr>161</ns3:hr>
            <ns3:cad>87</ns3:cad>
          </ns3:TrackPointExtension>
        </extensions>
      </trkpt>
      <trkpt lat="43.84519427083432674407958984375" lon="4.2758577503263950347900390625">
        <ele>181.600006103515625</ele>
        <time>2024-01-27T09:42:46.000Z</time>
        <extensions>
          <ns3:TrackPointExtension>
            <ns3:hr>161</ns3:hr>
            <ns3:cad>87</ns3:cad>
          </ns3:TrackPointExtension>
        </extensions>
      </trkpt>
      <trkpt lat="43.8451878167688846588134765625" lon="4.27582849748432636260986328125">
        <ele>181.399993896484375</ele>
        <time>2024-01-27T09:42:47.000Z</time>
        <extensions>
          <ns3:TrackPointExtension>
            <ns3:hr>161</ns3:hr>
            <ns3:cad>86</ns3:cad>
          </ns3:TrackPointExtension>
        </extensions>
      </trkpt>
      <trkpt lat="43.84518153034150600433349609375" lon="4.275794215500354766845703125">
        <ele>181.399993896484375</ele>
        <time>2024-01-27T09:42:48.000Z</time>
        <extensions>
          <ns3:TrackPointExtension>
            <ns3:hr>161</ns3:hr>
            <ns3:cad>86</ns3:cad>
          </ns3:TrackPointExtension>
        </extensions>
      </trkpt>
      <trkpt lat="43.8451750762760639190673828125" lon="4.2757665552198886871337890625">
        <ele>181.399993896484375</ele>
        <time>2024-01-27T09:42:49.000Z</time>
        <extensions>
          <ns3:TrackPointExtension>
            <ns3:hr>161</ns3:hr>
            <ns3:cad>86</ns3:cad>
          </ns3:TrackPointExtension>
        </extensions>
      </trkpt>
      <trkpt lat="43.8451616652309894561767578125" lon="4.27573512308299541473388671875">
        <ele>181.399993896484375</ele>
        <time>2024-01-27T09:42:50.000Z</time>
        <extensions>
          <ns3:TrackPointExtension>
            <ns3:hr>161</ns3:hr>
            <ns3:cad>86</ns3:cad>
          </ns3:TrackPointExtension>
        </extensions>
      </trkpt>
      <trkpt lat="43.84514850564301013946533203125" lon="4.2757078818976879119873046875">
        <ele>181.399993896484375</ele>
        <time>2024-01-27T09:42:51.000Z</time>
        <extensions>
          <ns3:TrackPointExtension>
            <ns3:hr>161</ns3:hr>
            <ns3:cad>86</ns3:cad>
          </ns3:TrackPointExtension>
        </extensions>
      </trkpt>
      <trkpt lat="43.84513643570244312286376953125" lon="4.27568198181688785552978515625">
        <ele>181.399993896484375</ele>
        <time>2024-01-27T09:42:52.000Z</time>
        <extensions>
          <ns3:TrackPointExtension>
            <ns3:hr>161</ns3:hr>
            <ns3:cad>86</ns3:cad>
          </ns3:TrackPointExtension>
        </extensions>
      </trkpt>
      <trkpt lat="43.84513132274150848388671875" lon="4.27565767429769039154052734375">
        <ele>181.1999969482421875</ele>
        <time>2024-01-27T09:42:53.000Z</time>
        <extensions>
          <ns3:TrackPointExtension>
            <ns3:hr>161</ns3:hr>
            <ns3:cad>86</ns3:cad>
          </ns3:TrackPointExtension>
        </extensions>
      </trkpt>
      <trkpt lat="43.84513107128441333770751953125" lon="4.27562649361789226531982421875">
        <ele>181.1999969482421875</ele>
        <time>2024-01-27T09:42:54.000Z</time>
        <extensions>
          <ns3:TrackPointExtension>
            <ns3:hr>161</ns3:hr>
            <ns3:cad>87</ns3:cad>
          </ns3:TrackPointExtension>
        </extensions>
      </trkpt>
      <trkpt lat="43.8451281376183032989501953125" lon="4.27559564821422100067138671875">
        <ele>181.1999969482421875</ele>
        <time>2024-01-27T09:42:55.000Z</time>
        <extensions>
          <ns3:TrackPointExtension>
            <ns3:hr>161</ns3:hr>
            <ns3:cad>87</ns3:cad>
          </ns3:TrackPointExtension>
        </extensions>
      </trkpt>
      <trkpt lat="43.8451247848570346832275390625" lon="4.27556388080120086669921875">
        <ele>181.1999969482421875</ele>
        <time>2024-01-27T09:42:56.000Z</time>
        <extensions>
          <ns3:TrackPointExtension>
            <ns3:hr>161</ns3:hr>
            <ns3:cad>88</ns3:cad>
          </ns3:TrackPointExtension>
        </extensions>
      </trkpt>
      <trkpt lat="43.8451200909912586212158203125" lon="4.275538064539432525634765625">
        <ele>181.1999969482421875</ele>
        <time>2024-01-27T09:42:57.000Z</time>
        <extensions>
          <ns3:TrackPointExtension>
            <ns3:hr>161</ns3:hr>
            <ns3:cad>88</ns3:cad>
          </ns3:TrackPointExtension>
        </extensions>
      </trkpt>
      <trkpt lat="43.84511732496321201324462890625" lon="4.27551015280187129974365234375">
        <ele>181.1999969482421875</ele>
        <time>2024-01-27T09:42:58.000Z</time>
        <extensions>
          <ns3:TrackPointExtension>
            <ns3:hr>161</ns3:hr>
            <ns3:cad>89</ns3:cad>
          </ns3:TrackPointExtension>
        </extensions>
      </trkpt>
      <trkpt lat="43.8451133854687213897705078125" lon="4.275489784777164459228515625">
        <ele>181.1999969482421875</ele>
        <time>2024-01-27T09:42:59.000Z</time>
        <extensions>
          <ns3:TrackPointExtension>
            <ns3:hr>161</ns3:hr>
            <ns3:cad>89</ns3:cad>
          </ns3:TrackPointExtension>
        </extensions>
      </trkpt>
      <trkpt lat="43.84510290808975696563720703125" lon="4.27546120248734951019287109375">
        <ele>181.1999969482421875</ele>
        <time>2024-01-27T09:43:00.000Z</time>
        <extensions>
          <ns3:TrackPointExtension>
            <ns3:hr>161</ns3:hr>
            <ns3:cad>89</ns3:cad>
          </ns3:TrackPointExtension>
        </extensions>
      </trkpt>
      <trkpt lat="43.8450969569385051727294921875" lon="4.2754336260259151458740234375">
        <ele>181.1999969482421875</ele>
        <time>2024-01-27T09:43:01.000Z</time>
        <extensions>
          <ns3:TrackPointExtension>
            <ns3:hr>161</ns3:hr>
            <ns3:cad>88</ns3:cad>
          </ns3:TrackPointExtension>
        </extensions>
      </trkpt>
      <trkpt lat="43.84509779512882232666015625" lon="4.2754022777080535888671875">
        <ele>181</ele>
        <time>2024-01-27T09:43:02.000Z</time>
        <extensions>
          <ns3:TrackPointExtension>
            <ns3:hr>161</ns3:hr>
            <ns3:cad>88</ns3:cad>
          </ns3:TrackPointExtension>
        </extensions>
      </trkpt>
      <trkpt lat="43.845102153718471527099609375" lon="4.27538475953042507171630859375">
        <ele>181</ele>
        <time>2024-01-27T09:43:03.000Z</time>
        <extensions>
          <ns3:TrackPointExtension>
            <ns3:hr>161</ns3:hr>
            <ns3:cad>88</ns3:cad>
          </ns3:TrackPointExtension>
        </extensions>
      </trkpt>
      <trkpt lat="43.84510357864201068878173828125" lon="4.2753605358302593231201171875">
        <ele>181</ele>
        <time>2024-01-27T09:43:04.000Z</time>
        <extensions>
          <ns3:TrackPointExtension>
            <ns3:hr>161</ns3:hr>
            <ns3:cad>88</ns3:cad>
          </ns3:TrackPointExtension>
        </extensions>
      </trkpt>
      <trkpt lat="43.84510357864201068878173828125" lon="4.27532625384628772735595703125">
        <ele>181</ele>
        <time>2024-01-27T09:43:05.000Z</time>
        <extensions>
          <ns3:TrackPointExtension>
            <ns3:hr>161</ns3:hr>
            <ns3:cad>89</ns3:cad>
          </ns3:TrackPointExtension>
        </extensions>
      </trkpt>
      <trkpt lat="43.84510181844234466552734375" lon="4.2752864398062229156494140625">
        <ele>181</ele>
        <time>2024-01-27T09:43:06.000Z</time>
        <extensions>
          <ns3:TrackPointExtension>
            <ns3:hr>161</ns3:hr>
            <ns3:cad>89</ns3:cad>
          </ns3:TrackPointExtension>
        </extensions>
      </trkpt>
      <trkpt lat="43.84510642848908901214599609375" lon="4.27526556886732578277587890625">
        <ele>181</ele>
        <time>2024-01-27T09:43:07.000Z</time>
        <extensions>
          <ns3:TrackPointExtension>
            <ns3:hr>161</ns3:hr>
            <ns3:cad>89</ns3:cad>
          </ns3:TrackPointExtension>
        </extensions>
      </trkpt>
      <trkpt lat="43.8451113738119602203369140625" lon="4.27523975260555744171142578125">
        <ele>181</ele>
        <time>2024-01-27T09:43:08.000Z</time>
        <extensions>
          <ns3:TrackPointExtension>
            <ns3:hr>161</ns3:hr>
            <ns3:cad>89</ns3:cad>
          </ns3:TrackPointExtension>
        </extensions>
      </trkpt>
      <trkpt lat="43.8451160676777362823486328125" lon="4.2752153612673282623291015625">
        <ele>181</ele>
        <time>2024-01-27T09:43:09.000Z</time>
        <extensions>
          <ns3:TrackPointExtension>
            <ns3:hr>161</ns3:hr>
            <ns3:cad>88</ns3:cad>
          </ns3:TrackPointExtension>
        </extensions>
      </trkpt>
      <trkpt lat="43.8451252877712249755859375" lon="4.27518577314913272857666015625">
        <ele>181</ele>
        <time>2024-01-27T09:43:10.000Z</time>
        <extensions>
          <ns3:TrackPointExtension>
            <ns3:hr>161</ns3:hr>
            <ns3:cad>87</ns3:cad>
          </ns3:TrackPointExtension>
        </extensions>
      </trkpt>
      <trkpt lat="43.84513341821730136871337890625" lon="4.2751608788967132568359375">
        <ele>181</ele>
        <time>2024-01-27T09:43:11.000Z</time>
        <extensions>
          <ns3:TrackPointExtension>
            <ns3:hr>161</ns3:hr>
            <ns3:cad>87</ns3:cad>
          </ns3:TrackPointExtension>
        </extensions>
      </trkpt>
      <trkpt lat="43.8451375253498554229736328125" lon="4.27513062022626399993896484375">
        <ele>181</ele>
        <time>2024-01-27T09:43:12.000Z</time>
        <extensions>
          <ns3:TrackPointExtension>
            <ns3:hr>161</ns3:hr>
            <ns3:cad>87</ns3:cad>
          </ns3:TrackPointExtension>
        </extensions>
      </trkpt>
      <trkpt lat="43.84514448232948780059814453125" lon="4.27510044537484645843505859375">
        <ele>181</ele>
        <time>2024-01-27T09:43:13.000Z</time>
        <extensions>
          <ns3:TrackPointExtension>
            <ns3:hr>161</ns3:hr>
            <ns3:cad>89</ns3:cad>
          </ns3:TrackPointExtension>
        </extensions>
      </trkpt>
      <trkpt lat="43.8451509363949298858642578125" lon="4.27507110871374607086181640625">
        <ele>181</ele>
        <time>2024-01-27T09:43:14.000Z</time>
        <extensions>
          <ns3:TrackPointExtension>
            <ns3:hr>162</ns3:hr>
            <ns3:cad>89</ns3:cad>
          </ns3:TrackPointExtension>
        </extensions>
      </trkpt>
      <trkpt lat="43.84515814483165740966796875" lon="4.2750433646142482757568359375">
        <ele>181</ele>
        <time>2024-01-27T09:43:15.000Z</time>
        <extensions>
          <ns3:TrackPointExtension>
            <ns3:hr>162</ns3:hr>
            <ns3:cad>90</ns3:cad>
          </ns3:TrackPointExtension>
        </extensions>
      </trkpt>
      <trkpt lat="43.845158480107784271240234375" lon="4.275013022124767303466796875">
        <ele>181</ele>
        <time>2024-01-27T09:43:16.000Z</time>
        <extensions>
          <ns3:TrackPointExtension>
            <ns3:hr>162</ns3:hr>
            <ns3:cad>90</ns3:cad>
          </ns3:TrackPointExtension>
        </extensions>
      </trkpt>
      <trkpt lat="43.84515370242297649383544921875" lon="4.27498058415949344635009765625">
        <ele>181</ele>
        <time>2024-01-27T09:43:17.000Z</time>
        <extensions>
          <ns3:TrackPointExtension>
            <ns3:hr>162</ns3:hr>
            <ns3:cad>89</ns3:cad>
          </ns3:TrackPointExtension>
        </extensions>
      </trkpt>
      <trkpt lat="43.84514498524367809295654296875" lon="4.274957366287708282470703125">
        <ele>181</ele>
        <time>2024-01-27T09:43:18.000Z</time>
        <extensions>
          <ns3:TrackPointExtension>
            <ns3:hr>162</ns3:hr>
            <ns3:cad>88</ns3:cad>
          </ns3:TrackPointExtension>
        </extensions>
      </trkpt>
      <trkpt lat="43.84513107128441333770751953125" lon="4.27493900991976261138916015625">
        <ele>181</ele>
        <time>2024-01-27T09:43:19.000Z</time>
        <extensions>
          <ns3:TrackPointExtension>
            <ns3:hr>162</ns3:hr>
            <ns3:cad>88</ns3:cad>
          </ns3:TrackPointExtension>
        </extensions>
      </trkpt>
      <trkpt lat="43.845114223659038543701171875" lon="4.27491520531475543975830078125">
        <ele>180.8000030517578125</ele>
        <time>2024-01-27T09:43:20.000Z</time>
        <extensions>
          <ns3:TrackPointExtension>
            <ns3:hr>162</ns3:hr>
            <ns3:cad>88</ns3:cad>
          </ns3:TrackPointExtension>
        </extensions>
      </trkpt>
      <trkpt lat="43.84509913623332977294921875" lon="4.27488251589238643646240234375">
        <ele>180.8000030517578125</ele>
        <time>2024-01-27T09:43:21.000Z</time>
        <extensions>
          <ns3:TrackPointExtension>
            <ns3:hr>162</ns3:hr>
            <ns3:cad>88</ns3:cad>
          </ns3:TrackPointExtension>
        </extensions>
      </trkpt>
      <trkpt lat="43.84508597664535045623779296875" lon="4.27485820837318897247314453125">
        <ele>180.8000030517578125</ele>
        <time>2024-01-27T09:43:22.000Z</time>
        <extensions>
          <ns3:TrackPointExtension>
            <ns3:hr>162</ns3:hr>
            <ns3:cad>88</ns3:cad>
          </ns3:TrackPointExtension>
        </extensions>
      </trkpt>
      <trkpt lat="43.845070302486419677734375" lon="4.27482266910374164581298828125">
        <ele>180.8000030517578125</ele>
        <time>2024-01-27T09:43:23.000Z</time>
        <extensions>
          <ns3:TrackPointExtension>
            <ns3:hr>162</ns3:hr>
            <ns3:cad>88</ns3:cad>
          </ns3:TrackPointExtension>
        </extensions>
      </trkpt>
      <trkpt lat="43.84505689144134521484375" lon="4.27479081787168979644775390625">
        <ele>180.600006103515625</ele>
        <time>2024-01-27T09:43:24.000Z</time>
        <extensions>
          <ns3:TrackPointExtension>
            <ns3:hr>162</ns3:hr>
            <ns3:cad>88</ns3:cad>
          </ns3:TrackPointExtension>
        </extensions>
      </trkpt>
      <trkpt lat="43.8450433127582073211669921875" lon="4.27475259639322757720947265625">
        <ele>180.600006103515625</ele>
        <time>2024-01-27T09:43:25.000Z</time>
        <extensions>
          <ns3:TrackPointExtension>
            <ns3:hr>162</ns3:hr>
            <ns3:cad>88</ns3:cad>
          </ns3:TrackPointExtension>
        </extensions>
      </trkpt>
      <trkpt lat="43.8450379483401775360107421875" lon="4.2747241817414760589599609375">
        <ele>180.600006103515625</ele>
        <time>2024-01-27T09:43:26.000Z</time>
        <extensions>
          <ns3:TrackPointExtension>
            <ns3:hr>162</ns3:hr>
            <ns3:cad>89</ns3:cad>
          </ns3:TrackPointExtension>
        </extensions>
      </trkpt>
      <trkpt lat="43.8450490124523639678955078125" lon="4.27469660528004169464111328125">
        <ele>180.600006103515625</ele>
        <time>2024-01-27T09:43:27.000Z</time>
        <extensions>
          <ns3:TrackPointExtension>
            <ns3:hr>162</ns3:hr>
            <ns3:cad>89</ns3:cad>
          </ns3:TrackPointExtension>
        </extensions>
      </trkpt>
      <trkpt lat="43.8450614176690578460693359375" lon="4.27467313595116138458251953125">
        <ele>180.600006103515625</ele>
        <time>2024-01-27T09:43:28.000Z</time>
        <extensions>
          <ns3:TrackPointExtension>
            <ns3:hr>162</ns3:hr>
            <ns3:cad>89</ns3:cad>
          </ns3:TrackPointExtension>
        </extensions>
      </trkpt>
      <trkpt lat="43.84508145041763782501220703125" lon="4.2746539413928985595703125">
        <ele>180.399993896484375</ele>
        <time>2024-01-27T09:43:29.000Z</time>
        <extensions>
          <ns3:TrackPointExtension>
            <ns3:hr>161</ns3:hr>
            <ns3:cad>89</ns3:cad>
          </ns3:TrackPointExtension>
        </extensions>
      </trkpt>
      <trkpt lat="43.84511564858257770538330078125" lon="4.27465368993580341339111328125">
        <ele>180.399993896484375</ele>
        <time>2024-01-27T09:43:30.000Z</time>
        <extensions>
          <ns3:TrackPointExtension>
            <ns3:hr>161</ns3:hr>
            <ns3:cad>90</ns3:cad>
          </ns3:TrackPointExtension>
        </extensions>
      </trkpt>
      <trkpt lat="43.845137022435665130615234375" lon="4.27465260028839111328125">
        <ele>180.399993896484375</ele>
        <time>2024-01-27T09:43:31.000Z</time>
        <extensions>
          <ns3:TrackPointExtension>
            <ns3:hr>161</ns3:hr>
            <ns3:cad>92</ns3:cad>
          </ns3:TrackPointExtension>
        </extensions>
      </trkpt>
      <trkpt lat="43.8451521098613739013671875" lon="4.2746527679264545440673828125">
        <ele>180.1999969482421875</ele>
        <time>2024-01-27T09:43:32.000Z</time>
        <extensions>
          <ns3:TrackPointExtension>
            <ns3:hr>161</ns3:hr>
            <ns3:cad>92</ns3:cad>
          </ns3:TrackPointExtension>
        </extensions>
      </trkpt>
      <trkpt lat="43.8451655209064483642578125" lon="4.27465938962996006011962890625">
        <ele>180</ele>
        <time>2024-01-27T09:43:33.000Z</time>
        <extensions>
          <ns3:TrackPointExtension>
            <ns3:hr>161</ns3:hr>
            <ns3:cad>92</ns3:cad>
          </ns3:TrackPointExtension>
        </extensions>
      </trkpt>
      <trkpt lat="43.8451780937612056732177734375" lon="4.27466542460024356842041015625">
        <ele>180</ele>
        <time>2024-01-27T09:43:34.000Z</time>
        <extensions>
          <ns3:TrackPointExtension>
            <ns3:hr>161</ns3:hr>
            <ns3:cad>92</ns3:cad>
          </ns3:TrackPointExtension>
        </extensions>
      </trkpt>
      <trkpt lat="43.84519033133983612060546875" lon="4.274670369923114776611328125">
        <ele>180</ele>
        <time>2024-01-27T09:43:35.000Z</time>
        <extensions>
          <ns3:TrackPointExtension>
            <ns3:hr>161</ns3:hr>
            <ns3:cad>92</ns3:cad>
          </ns3:TrackPointExtension>
        </extensions>
      </trkpt>
      <trkpt lat="43.84520374238491058349609375" lon="4.27467699162662029266357421875">
        <ele>180</ele>
        <time>2024-01-27T09:43:36.000Z</time>
        <extensions>
          <ns3:TrackPointExtension>
            <ns3:hr>161</ns3:hr>
            <ns3:cad>92</ns3:cad>
          </ns3:TrackPointExtension>
        </extensions>
      </trkpt>
      <trkpt lat="43.8452163152396678924560546875" lon="4.274680428206920623779296875">
        <ele>180</ele>
        <time>2024-01-27T09:43:37.000Z</time>
        <extensions>
          <ns3:TrackPointExtension>
            <ns3:hr>161</ns3:hr>
            <ns3:cad>92</ns3:cad>
          </ns3:TrackPointExtension>
        </extensions>
      </trkpt>
      <trkpt lat="43.84522763080894947052001953125" lon="4.27468352951109409332275390625">
        <ele>180.1999969482421875</ele>
        <time>2024-01-27T09:43:38.000Z</time>
        <extensions>
          <ns3:TrackPointExtension>
            <ns3:hr>161</ns3:hr>
            <ns3:cad>63</ns3:cad>
          </ns3:TrackPointExtension>
        </extensions>
      </trkpt>
      <trkpt lat="43.8452417962253093719482421875" lon="4.27468621172010898590087890625">
        <ele>180.1999969482421875</ele>
        <time>2024-01-27T09:43:39.000Z</time>
        <extensions>
          <ns3:TrackPointExtension>
            <ns3:hr>160</ns3:hr>
            <ns3:cad>62</ns3:cad>
          </ns3:TrackPointExtension>
        </extensions>
      </trkpt>
      <trkpt lat="43.84525730274617671966552734375" lon="4.2746916599571704864501953125">
        <ele>180.399993896484375</ele>
        <time>2024-01-27T09:43:40.000Z</time>
        <extensions>
          <ns3:TrackPointExtension>
            <ns3:hr>159</ns3:hr>
            <ns3:cad>59</ns3:cad>
          </ns3:TrackPointExtension>
        </extensions>
      </trkpt>
      <trkpt lat="43.845277838408946990966796875" lon="4.27470046095550060272216796875">
        <ele>180.600006103515625</ele>
        <time>2024-01-27T09:43:41.000Z</time>
        <extensions>
          <ns3:TrackPointExtension>
            <ns3:hr>158</ns3:hr>
            <ns3:cad>58</ns3:cad>
          </ns3:TrackPointExtension>
        </extensions>
      </trkpt>
      <trkpt lat="43.845299296081066131591796875" lon="4.27470666356384754180908203125">
        <ele>180.600006103515625</ele>
        <time>2024-01-27T09:43:42.000Z</time>
        <extensions>
          <ns3:TrackPointExtension>
            <ns3:hr>157</ns3:hr>
            <ns3:cad>58</ns3:cad>
          </ns3:TrackPointExtension>
        </extensions>
      </trkpt>
      <trkpt lat="43.84532100521028041839599609375" lon="4.2747137881815433502197265625">
        <ele>180.8000030517578125</ele>
        <time>2024-01-27T09:43:43.000Z</time>
        <extensions>
          <ns3:TrackPointExtension>
            <ns3:hr>156</ns3:hr>
            <ns3:cad>58</ns3:cad>
          </ns3:TrackPointExtension>
        </extensions>
      </trkpt>
      <trkpt lat="43.84534321725368499755859375" lon="4.274719990789890289306640625">
        <ele>181.1999969482421875</ele>
        <time>2024-01-27T09:43:44.000Z</time>
        <extensions>
          <ns3:TrackPointExtension>
            <ns3:hr>156</ns3:hr>
            <ns3:cad>58</ns3:cad>
          </ns3:TrackPointExtension>
        </extensions>
      </trkpt>
      <trkpt lat="43.8453640043735504150390625" lon="4.27473935298621654510498046875">
        <ele>181.1999969482421875</ele>
        <time>2024-01-27T09:43:45.000Z</time>
        <extensions>
          <ns3:TrackPointExtension>
            <ns3:hr>155</ns3:hr>
            <ns3:cad>90</ns3:cad>
          </ns3:TrackPointExtension>
        </extensions>
      </trkpt>
      <trkpt lat="43.84538613259792327880859375" lon="4.27475343458354473114013671875">
        <ele>181.1999969482421875</ele>
        <time>2024-01-27T09:43:46.000Z</time>
        <extensions>
          <ns3:TrackPointExtension>
            <ns3:hr>155</ns3:hr>
            <ns3:cad>90</ns3:cad>
          </ns3:TrackPointExtension>
        </extensions>
      </trkpt>
      <trkpt lat="43.84540599770843982696533203125" lon="4.2747674323618412017822265625">
        <ele>181.1999969482421875</ele>
        <time>2024-01-27T09:43:47.000Z</time>
        <extensions>
          <ns3:TrackPointExtension>
            <ns3:hr>155</ns3:hr>
            <ns3:cad>92</ns3:cad>
          </ns3:TrackPointExtension>
        </extensions>
      </trkpt>
      <trkpt lat="43.8454295508563518524169921875" lon="4.27478042431175708770751953125">
        <ele>181.399993896484375</ele>
        <time>2024-01-27T09:43:48.000Z</time>
        <extensions>
          <ns3:TrackPointExtension>
            <ns3:hr>156</ns3:hr>
            <ns3:cad>92</ns3:cad>
          </ns3:TrackPointExtension>
        </extensions>
      </trkpt>
      <trkpt lat="43.84544824250042438507080078125" lon="4.27478930912911891937255859375">
        <ele>181.600006103515625</ele>
        <time>2024-01-27T09:43:49.000Z</time>
        <extensions>
          <ns3:TrackPointExtension>
            <ns3:hr>156</ns3:hr>
            <ns3:cad>93</ns3:cad>
          </ns3:TrackPointExtension>
        </extensions>
      </trkpt>
      <trkpt lat="43.84547322057187557220458984375" lon="4.27480280399322509765625">
        <ele>181.600006103515625</ele>
        <time>2024-01-27T09:43:50.000Z</time>
        <extensions>
          <ns3:TrackPointExtension>
            <ns3:hr>156</ns3:hr>
            <ns3:cad>93</ns3:cad>
          </ns3:TrackPointExtension>
        </extensions>
      </trkpt>
      <trkpt lat="43.8454939238727092742919921875" lon="4.27481344901025295257568359375">
        <ele>181.8000030517578125</ele>
        <time>2024-01-27T09:43:51.000Z</time>
        <extensions>
          <ns3:TrackPointExtension>
            <ns3:hr>156</ns3:hr>
            <ns3:cad>92</ns3:cad>
          </ns3:TrackPointExtension>
        </extensions>
      </trkpt>
      <trkpt lat="43.84551479481160640716552734375" lon="4.2748284526169300079345703125">
        <ele>182</ele>
        <time>2024-01-27T09:43:52.000Z</time>
        <extensions>
          <ns3:TrackPointExtension>
            <ns3:hr>156</ns3:hr>
            <ns3:cad>92</ns3:cad>
          </ns3:TrackPointExtension>
        </extensions>
      </trkpt>
      <trkpt lat="43.84553541429340839385986328125" lon="4.27484077401459217071533203125">
        <ele>182</ele>
        <time>2024-01-27T09:43:53.000Z</time>
        <extensions>
          <ns3:TrackPointExtension>
            <ns3:hr>156</ns3:hr>
            <ns3:cad>94</ns3:cad>
          </ns3:TrackPointExtension>
        </extensions>
      </trkpt>
      <trkpt lat="43.8455532677471637725830078125" lon="4.274859465658664703369140625">
        <ele>182.1999969482421875</ele>
        <time>2024-01-27T09:43:54.000Z</time>
        <extensions>
          <ns3:TrackPointExtension>
            <ns3:hr>156</ns3:hr>
            <ns3:cad>94</ns3:cad>
          </ns3:TrackPointExtension>
        </extensions>
      </trkpt>
      <trkpt lat="43.8455727137625217437744140625" lon="4.27487321197986602783203125">
        <ele>182.399993896484375</ele>
        <time>2024-01-27T09:43:55.000Z</time>
        <extensions>
          <ns3:TrackPointExtension>
            <ns3:hr>156</ns3:hr>
            <ns3:cad>92</ns3:cad>
          </ns3:TrackPointExtension>
        </extensions>
      </trkpt>
      <trkpt lat="43.8455893099308013916015625" lon="4.27488737739622592926025390625">
        <ele>182.600006103515625</ele>
        <time>2024-01-27T09:43:56.000Z</time>
        <extensions>
          <ns3:TrackPointExtension>
            <ns3:hr>156</ns3:hr>
            <ns3:cad>92</ns3:cad>
          </ns3:TrackPointExtension>
        </extensions>
      </trkpt>
      <trkpt lat="43.845606409013271331787109375" lon="4.27489743568003177642822265625">
        <ele>182.8000030517578125</ele>
        <time>2024-01-27T09:43:57.000Z</time>
        <extensions>
          <ns3:TrackPointExtension>
            <ns3:hr>156</ns3:hr>
            <ns3:cad>92</ns3:cad>
          </ns3:TrackPointExtension>
        </extensions>
      </trkpt>
      <trkpt lat="43.84562359191477298736572265625" lon="4.2749072425067424774169921875">
        <ele>182.8000030517578125</ele>
        <time>2024-01-27T09:43:58.000Z</time>
        <extensions>
          <ns3:TrackPointExtension>
            <ns3:hr>156</ns3:hr>
            <ns3:cad>91</ns3:cad>
          </ns3:TrackPointExtension>
        </extensions>
      </trkpt>
      <trkpt lat="43.845645301043987274169921875" lon="4.274923503398895263671875">
        <ele>182.8000030517578125</ele>
        <time>2024-01-27T09:43:59.000Z</time>
        <extensions>
          <ns3:TrackPointExtension>
            <ns3:hr>156</ns3:hr>
            <ns3:cad>91</ns3:cad>
          </ns3:TrackPointExtension>
        </extensions>
      </trkpt>
      <trkpt lat="43.845666088163852691650390625" lon="4.27493515424430370330810546875">
        <ele>183</ele>
        <time>2024-01-27T09:44:00.000Z</time>
        <extensions>
          <ns3:TrackPointExtension>
            <ns3:hr>157</ns3:hr>
            <ns3:cad>93</ns3:cad>
          </ns3:TrackPointExtension>
        </extensions>
      </trkpt>
      <trkpt lat="43.84568880312144756317138671875" lon="4.2749514989554882049560546875">
        <ele>183</ele>
        <time>2024-01-27T09:44:01.000Z</time>
        <extensions>
          <ns3:TrackPointExtension>
            <ns3:hr>157</ns3:hr>
            <ns3:cad>93</ns3:cad>
          </ns3:TrackPointExtension>
        </extensions>
      </trkpt>
      <trkpt lat="43.84571327827870845794677734375" lon="4.27496046759188175201416015625">
        <ele>183</ele>
        <time>2024-01-27T09:44:02.000Z</time>
        <extensions>
          <ns3:TrackPointExtension>
            <ns3:hr>157</ns3:hr>
            <ns3:cad>93</ns3:cad>
          </ns3:TrackPointExtension>
        </extensions>
      </trkpt>
      <trkpt lat="43.8457390107214450836181640625" lon="4.2749706096947193145751953125">
        <ele>183.1999969482421875</ele>
        <time>2024-01-27T09:44:03.000Z</time>
        <extensions>
          <ns3:TrackPointExtension>
            <ns3:hr>156</ns3:hr>
            <ns3:cad>93</ns3:cad>
          </ns3:TrackPointExtension>
        </extensions>
      </trkpt>
      <trkpt lat="43.84576440788805484771728515625" lon="4.2749783210456371307373046875">
        <ele>183.1999969482421875</ele>
        <time>2024-01-27T09:44:04.000Z</time>
        <extensions>
          <ns3:TrackPointExtension>
            <ns3:hr>156</ns3:hr>
            <ns3:cad>93</ns3:cad>
          </ns3:TrackPointExtension>
        </extensions>
      </trkpt>
      <trkpt lat="43.84578519500792026519775390625" lon="4.27498661912977695465087890625">
        <ele>183.399993896484375</ele>
        <time>2024-01-27T09:44:05.000Z</time>
        <extensions>
          <ns3:TrackPointExtension>
            <ns3:hr>156</ns3:hr>
            <ns3:cad>93</ns3:cad>
          </ns3:TrackPointExtension>
        </extensions>
      </trkpt>
      <trkpt lat="43.8458064012229442596435546875" lon="4.27499315701425075531005859375">
        <ele>183.399993896484375</ele>
        <time>2024-01-27T09:44:06.000Z</time>
        <extensions>
          <ns3:TrackPointExtension>
            <ns3:hr>156</ns3:hr>
            <ns3:cad>93</ns3:cad>
          </ns3:TrackPointExtension>
        </extensions>
      </trkpt>
      <trkpt lat="43.84582609869539737701416015625" lon="4.27499793469905853271484375">
        <ele>183.600006103515625</ele>
        <time>2024-01-27T09:44:07.000Z</time>
        <extensions>
          <ns3:TrackPointExtension>
            <ns3:hr>156</ns3:hr>
            <ns3:cad>94</ns3:cad>
          </ns3:TrackPointExtension>
        </extensions>
      </trkpt>
      <trkpt lat="43.8458489812910556793212890625" lon="4.274999611079692840576171875">
        <ele>183.8000030517578125</ele>
        <time>2024-01-27T09:44:08.000Z</time>
        <extensions>
          <ns3:TrackPointExtension>
            <ns3:hr>156</ns3:hr>
            <ns3:cad>94</ns3:cad>
          </ns3:TrackPointExtension>
        </extensions>
      </trkpt>
      <trkpt lat="43.8458690978586673736572265625" lon="4.274996258318424224853515625">
        <ele>183.8000030517578125</ele>
        <time>2024-01-27T09:44:09.000Z</time>
        <extensions>
          <ns3:TrackPointExtension>
            <ns3:hr>156</ns3:hr>
            <ns3:cad>92</ns3:cad>
          </ns3:TrackPointExtension>
        </extensions>
      </trkpt>
      <trkpt lat="43.8458929024636745452880859375" lon="4.274994246661663055419921875">
        <ele>184</ele>
        <time>2024-01-27T09:44:10.000Z</time>
        <extensions>
          <ns3:TrackPointExtension>
            <ns3:hr>156</ns3:hr>
            <ns3:cad>92</ns3:cad>
          </ns3:TrackPointExtension>
        </extensions>
      </trkpt>
      <trkpt lat="43.84591511450707912445068359375" lon="4.27498863078653812408447265625">
        <ele>184</ele>
        <time>2024-01-27T09:44:11.000Z</time>
        <extensions>
          <ns3:TrackPointExtension>
            <ns3:hr>156</ns3:hr>
            <ns3:cad>92</ns3:cad>
          </ns3:TrackPointExtension>
        </extensions>
      </trkpt>
      <trkpt lat="43.8459408469498157501220703125" lon="4.27497907541692256927490234375">
        <ele>184</ele>
        <time>2024-01-27T09:44:12.000Z</time>
        <extensions>
          <ns3:TrackPointExtension>
            <ns3:hr>156</ns3:hr>
            <ns3:cad>92</ns3:cad>
          </ns3:TrackPointExtension>
        </extensions>
      </trkpt>
      <trkpt lat="43.8459612987935543060302734375" lon="4.2749675922095775604248046875">
        <ele>184.1999969482421875</ele>
        <time>2024-01-27T09:44:13.000Z</time>
        <extensions>
          <ns3:TrackPointExtension>
            <ns3:hr>156</ns3:hr>
            <ns3:cad>94</ns3:cad>
          </ns3:TrackPointExtension>
        </extensions>
      </trkpt>
      <trkpt lat="43.84598401375114917755126953125" lon="4.27495501935482025146484375">
        <ele>184.1999969482421875</ele>
        <time>2024-01-27T09:44:14.000Z</time>
        <extensions>
          <ns3:TrackPointExtension>
            <ns3:hr>156</ns3:hr>
            <ns3:cad>94</ns3:cad>
          </ns3:TrackPointExtension>
        </extensions>
      </trkpt>
      <trkpt lat="43.84600446559488773345947265625" lon="4.2749411053955554962158203125">
        <ele>184.1999969482421875</ele>
        <time>2024-01-27T09:44:15.000Z</time>
        <extensions>
          <ns3:TrackPointExtension>
            <ns3:hr>156</ns3:hr>
            <ns3:cad>94</ns3:cad>
          </ns3:TrackPointExtension>
        </extensions>
      </trkpt>
      <trkpt lat="43.8460253365337848663330078125" lon="4.27493087947368621826171875">
        <ele>184.1999969482421875</ele>
        <time>2024-01-27T09:44:16.000Z</time>
        <extensions>
          <ns3:TrackPointExtension>
            <ns3:hr>156</ns3:hr>
            <ns3:cad>92</ns3:cad>
          </ns3:TrackPointExtension>
        </extensions>
      </trkpt>
      <trkpt lat="43.8460451178252696990966796875" lon="4.27491906099021434783935546875">
        <ele>184.1999969482421875</ele>
        <time>2024-01-27T09:44:17.000Z</time>
        <extensions>
          <ns3:TrackPointExtension>
            <ns3:hr>156</ns3:hr>
            <ns3:cad>92</ns3:cad>
          </ns3:TrackPointExtension>
        </extensions>
      </trkpt>
      <trkpt lat="43.8460672460496425628662109375" lon="4.274907074868679046630859375">
        <ele>184.399993896484375</ele>
        <time>2024-01-27T09:44:18.000Z</time>
        <extensions>
          <ns3:TrackPointExtension>
            <ns3:hr>156</ns3:hr>
            <ns3:cad>93</ns3:cad>
          </ns3:TrackPointExtension>
        </extensions>
      </trkpt>
      <trkpt lat="43.84608794935047626495361328125" lon="4.27488972432911396026611328125">
        <ele>184.399993896484375</ele>
        <time>2024-01-27T09:44:19.000Z</time>
        <extensions>
          <ns3:TrackPointExtension>
            <ns3:hr>156</ns3:hr>
            <ns3:cad>93</ns3:cad>
          </ns3:TrackPointExtension>
        </extensions>
      </trkpt>
      <trkpt lat="43.84610764682292938232421875" lon="4.274878241121768951416015625">
        <ele>184.600006103515625</ele>
        <time>2024-01-27T09:44:20.000Z</time>
        <extensions>
          <ns3:TrackPointExtension>
            <ns3:hr>155</ns3:hr>
            <ns3:cad>93</ns3:cad>
          </ns3:TrackPointExtension>
        </extensions>
      </trkpt>
      <trkpt lat="43.84612734429538249969482421875" lon="4.27486055530607700347900390625">
        <ele>184.8000030517578125</ele>
        <time>2024-01-27T09:44:21.000Z</time>
        <extensions>
          <ns3:TrackPointExtension>
            <ns3:hr>155</ns3:hr>
            <ns3:cad>93</ns3:cad>
          </ns3:TrackPointExtension>
        </extensions>
      </trkpt>
      <trkpt lat="43.84614846669137477874755859375" lon="4.27484647370874881744384765625">
        <ele>184.8000030517578125</ele>
        <time>2024-01-27T09:44:22.000Z</time>
        <extensions>
          <ns3:TrackPointExtension>
            <ns3:hr>154</ns3:hr>
            <ns3:cad>92</ns3:cad>
          </ns3:TrackPointExtension>
        </extensions>
      </trkpt>
      <trkpt lat="43.8461725227534770965576171875" lon="4.27482937462627887725830078125">
        <ele>185</ele>
        <time>2024-01-27T09:44:23.000Z</time>
        <extensions>
          <ns3:TrackPointExtension>
            <ns3:hr>154</ns3:hr>
            <ns3:cad>90</ns3:cad>
          </ns3:TrackPointExtension>
        </extensions>
      </trkpt>
      <trkpt lat="43.8461939804255962371826171875" lon="4.27481847815215587615966796875">
        <ele>185</ele>
        <time>2024-01-27T09:44:24.000Z</time>
        <extensions>
          <ns3:TrackPointExtension>
            <ns3:hr>154</ns3:hr>
            <ns3:cad>90</ns3:cad>
          </ns3:TrackPointExtension>
        </extensions>
      </trkpt>
      <trkpt lat="43.84621468372642993927001953125" lon="4.274805821478366851806640625">
        <ele>185</ele>
        <time>2024-01-27T09:44:25.000Z</time>
        <extensions>
          <ns3:TrackPointExtension>
            <ns3:hr>154</ns3:hr>
            <ns3:cad>90</ns3:cad>
          </ns3:TrackPointExtension>
        </extensions>
      </trkpt>
      <trkpt lat="43.84623144753277301788330078125" lon="4.27477757446467876434326171875">
        <ele>185.1999969482421875</ele>
        <time>2024-01-27T09:44:26.000Z</time>
        <extensions>
          <ns3:TrackPointExtension>
            <ns3:hr>154</ns3:hr>
            <ns3:cad>90</ns3:cad>
          </ns3:TrackPointExtension>
        </extensions>
      </trkpt>
      <trkpt lat="43.84625391103327274322509765625" lon="4.27475360222160816192626953125">
        <ele>185.1999969482421875</ele>
        <time>2024-01-27T09:44:27.000Z</time>
        <extensions>
          <ns3:TrackPointExtension>
            <ns3:hr>154</ns3:hr>
            <ns3:cad>91</ns3:cad>
          </ns3:TrackPointExtension>
        </extensions>
      </trkpt>
      <trkpt lat="43.84626849554479122161865234375" lon="4.2747369222342967987060546875">
        <ele>185.1999969482421875</ele>
        <time>2024-01-27T09:44:28.000Z</time>
        <extensions>
          <ns3:TrackPointExtension>
            <ns3:hr>154</ns3:hr>
            <ns3:cad>91</ns3:cad>
          </ns3:TrackPointExtension>
        </extensions>
      </trkpt>
      <trkpt lat="43.8462895341217517852783203125" lon="4.274715967476367950439453125">
        <ele>185.1999969482421875</ele>
        <time>2024-01-27T09:44:29.000Z</time>
        <extensions>
          <ns3:TrackPointExtension>
            <ns3:hr>154</ns3:hr>
            <ns3:cad>91</ns3:cad>
          </ns3:TrackPointExtension>
        </extensions>
      </trkpt>
      <trkpt lat="43.8463026098906993865966796875" lon="4.27469543181359767913818359375">
        <ele>185.1999969482421875</ele>
        <time>2024-01-27T09:44:30.000Z</time>
        <extensions>
          <ns3:TrackPointExtension>
            <ns3:hr>154</ns3:hr>
            <ns3:cad>91</ns3:cad>
          </ns3:TrackPointExtension>
        </extensions>
      </trkpt>
      <trkpt lat="43.8463203795254230499267578125" lon="4.2746782489120960235595703125">
        <ele>185.399993896484375</ele>
        <time>2024-01-27T09:44:31.000Z</time>
        <extensions>
          <ns3:TrackPointExtension>
            <ns3:hr>155</ns3:hr>
            <ns3:cad>91</ns3:cad>
          </ns3:TrackPointExtension>
        </extensions>
      </trkpt>
      <trkpt lat="43.84633622132241725921630859375" lon="4.27466274239122867584228515625">
        <ele>185.399993896484375</ele>
        <time>2024-01-27T09:44:32.000Z</time>
        <extensions>
          <ns3:TrackPointExtension>
            <ns3:hr>154</ns3:hr>
            <ns3:cad>92</ns3:cad>
          </ns3:TrackPointExtension>
        </extensions>
      </trkpt>
      <trkpt lat="43.8463549129664897918701171875" lon="4.274641536176204681396484375">
        <ele>185.399993896484375</ele>
        <time>2024-01-27T09:44:33.000Z</time>
        <extensions>
          <ns3:TrackPointExtension>
            <ns3:hr>155</ns3:hr>
            <ns3:cad>94</ns3:cad>
          </ns3:TrackPointExtension>
        </extensions>
      </trkpt>
      <trkpt lat="43.84637318551540374755859375" lon="4.274619407951831817626953125">
        <ele>185.399993896484375</ele>
        <time>2024-01-27T09:44:34.000Z</time>
        <extensions>
          <ns3:TrackPointExtension>
            <ns3:hr>155</ns3:hr>
            <ns3:cad>94</ns3:cad>
          </ns3:TrackPointExtension>
        </extensions>
      </trkpt>
      <trkpt lat="43.8463881053030490875244140625" lon="4.27460239268839359283447265625">
        <ele>185.600006103515625</ele>
        <time>2024-01-27T09:44:35.000Z</time>
        <extensions>
          <ns3:TrackPointExtension>
            <ns3:hr>155</ns3:hr>
            <ns3:cad>92</ns3:cad>
          </ns3:TrackPointExtension>
        </extensions>
      </trkpt>
      <trkpt lat="43.84640310890972614288330078125" lon="4.27458328194916248321533203125">
        <ele>186</ele>
        <time>2024-01-27T09:44:36.000Z</time>
        <extensions>
          <ns3:TrackPointExtension>
            <ns3:hr>155</ns3:hr>
            <ns3:cad>91</ns3:cad>
          </ns3:TrackPointExtension>
        </extensions>
      </trkpt>
      <trkpt lat="43.84641945362091064453125" lon="4.27456668578088283538818359375">
        <ele>186</ele>
        <time>2024-01-27T09:44:37.000Z</time>
        <extensions>
          <ns3:TrackPointExtension>
            <ns3:hr>155</ns3:hr>
            <ns3:cad>91</ns3:cad>
          </ns3:TrackPointExtension>
        </extensions>
      </trkpt>
      <trkpt lat="43.84643948636949062347412109375" lon="4.2745451442897319793701171875">
        <ele>186.1999969482421875</ele>
        <time>2024-01-27T09:44:38.000Z</time>
        <extensions>
          <ns3:TrackPointExtension>
            <ns3:hr>155</ns3:hr>
            <ns3:cad>92</ns3:cad>
          </ns3:TrackPointExtension>
        </extensions>
      </trkpt>
      <trkpt lat="43.84645574726164340972900390625" lon="4.274524189531803131103515625">
        <ele>186.399993896484375</ele>
        <time>2024-01-27T09:44:39.000Z</time>
        <extensions>
          <ns3:TrackPointExtension>
            <ns3:hr>156</ns3:hr>
            <ns3:cad>92</ns3:cad>
          </ns3:TrackPointExtension>
        </extensions>
      </trkpt>
      <trkpt lat="43.84647703729569911956787109375" lon="4.274500720202922821044921875">
        <ele>186.399993896484375</ele>
        <time>2024-01-27T09:44:40.000Z</time>
        <extensions>
          <ns3:TrackPointExtension>
            <ns3:hr>156</ns3:hr>
            <ns3:cad>92</ns3:cad>
          </ns3:TrackPointExtension>
        </extensions>
      </trkpt>
      <trkpt lat="43.84649028070271015167236328125" lon="4.27447699941694736480712890625">
        <ele>186.8000030517578125</ele>
        <time>2024-01-27T09:44:41.000Z</time>
        <extensions>
          <ns3:TrackPointExtension>
            <ns3:hr>156</ns3:hr>
            <ns3:cad>92</ns3:cad>
          </ns3:TrackPointExtension>
        </extensions>
      </trkpt>
      <trkpt lat="43.8465067930519580841064453125" lon="4.2744526080787181854248046875">
        <ele>186.8000030517578125</ele>
        <time>2024-01-27T09:44:42.000Z</time>
        <extensions>
          <ns3:TrackPointExtension>
            <ns3:hr>156</ns3:hr>
            <ns3:cad>92</ns3:cad>
          </ns3:TrackPointExtension>
        </extensions>
      </trkpt>
      <trkpt lat="43.8465191982686519622802734375" lon="4.27442972548305988311767578125">
        <ele>187</ele>
        <time>2024-01-27T09:44:43.000Z</time>
        <extensions>
          <ns3:TrackPointExtension>
            <ns3:hr>156</ns3:hr>
            <ns3:cad>93</ns3:cad>
          </ns3:TrackPointExtension>
        </extensions>
      </trkpt>
      <trkpt lat="43.84653235785663127899169921875" lon="4.27440843544900417327880859375">
        <ele>187</ele>
        <time>2024-01-27T09:44:44.000Z</time>
        <extensions>
          <ns3:TrackPointExtension>
            <ns3:hr>156</ns3:hr>
            <ns3:cad>94</ns3:cad>
          </ns3:TrackPointExtension>
        </extensions>
      </trkpt>
      <trkpt lat="43.84654442779719829559326171875" lon="4.274394102394580841064453125">
        <ele>187</ele>
        <time>2024-01-27T09:44:45.000Z</time>
        <extensions>
          <ns3:TrackPointExtension>
            <ns3:hr>156</ns3:hr>
            <ns3:cad>94</ns3:cad>
          </ns3:TrackPointExtension>
        </extensions>
      </trkpt>
      <trkpt lat="43.84655012749135494232177734375" lon="4.27438898943364620208740234375">
        <ele>187</ele>
        <time>2024-01-27T09:44:46.000Z</time>
        <extensions>
          <ns3:TrackPointExtension>
            <ns3:hr>157</ns3:hr>
            <ns3:cad>92</ns3:cad>
          </ns3:TrackPointExtension>
        </extensions>
      </trkpt>
      <trkpt lat="43.84653906337916851043701171875" lon="4.274404831230640411376953125">
        <ele>187</ele>
        <time>2024-01-27T09:44:47.000Z</time>
        <extensions>
          <ns3:TrackPointExtension>
            <ns3:hr>157</ns3:hr>
            <ns3:cad>91</ns3:cad>
          </ns3:TrackPointExtension>
        </extensions>
      </trkpt>
      <trkpt lat="43.846530430018901824951171875" lon="4.27442125976085662841796875">
        <ele>187.1999969482421875</ele>
        <time>2024-01-27T09:44:48.000Z</time>
        <extensions>
          <ns3:TrackPointExtension>
            <ns3:hr>157</ns3:hr>
            <ns3:cad>91</ns3:cad>
          </ns3:TrackPointExtension>
        </extensions>
      </trkpt>
      <trkpt lat="43.8465225510299205780029296875" lon="4.27443408407270908355712890625">
        <ele>187.1999969482421875</ele>
        <time>2024-01-27T09:44:49.000Z</time>
        <extensions>
          <ns3:TrackPointExtension>
            <ns3:hr>157</ns3:hr>
            <ns3:cad>91</ns3:cad>
          </ns3:TrackPointExtension>
        </extensions>
      </trkpt>
      <trkpt lat="43.84652481414377689361572265625" lon="4.2744251154363155364990234375">
        <ele>187.1999969482421875</ele>
        <time>2024-01-27T09:44:50.000Z</time>
        <extensions>
          <ns3:TrackPointExtension>
            <ns3:hr>157</ns3:hr>
            <ns3:cad>67</ns3:cad>
          </ns3:TrackPointExtension>
        </extensions>
      </trkpt>
      <trkpt lat="43.846530430018901824951171875" lon="4.2744039930403232574462890625">
        <ele>187.1999969482421875</ele>
        <time>2024-01-27T09:44:51.000Z</time>
        <extensions>
          <ns3:TrackPointExtension>
            <ns3:hr>157</ns3:hr>
            <ns3:cad>67</ns3:cad>
          </ns3:TrackPointExtension>
        </extensions>
      </trkpt>
      <trkpt lat="43.84653948247432708740234375" lon="4.27437834441661834716796875">
        <ele>187.1999969482421875</ele>
        <time>2024-01-27T09:44:52.000Z</time>
        <extensions>
          <ns3:TrackPointExtension>
            <ns3:hr>157</ns3:hr>
            <ns3:cad>67</ns3:cad>
          </ns3:TrackPointExtension>
        </extensions>
      </trkpt>
      <trkpt lat="43.846553228795528411865234375" lon="4.27435562945902347564697265625">
        <ele>187.1999969482421875</ele>
        <time>2024-01-27T09:44:53.000Z</time>
        <extensions>
          <ns3:TrackPointExtension>
            <ns3:hr>157</ns3:hr>
            <ns3:cad>67</ns3:cad>
          </ns3:TrackPointExtension>
        </extensions>
      </trkpt>
      <trkpt lat="43.84657158516347408294677734375" lon="4.27432897500693798065185546875">
        <ele>187.1999969482421875</ele>
        <time>2024-01-27T09:44:54.000Z</time>
        <extensions>
          <ns3:TrackPointExtension>
            <ns3:hr>157</ns3:hr>
            <ns3:cad>0</ns3:cad>
          </ns3:TrackPointExtension>
        </extensions>
      </trkpt>
      <trkpt lat="43.84658868424594402313232421875" lon="4.274306930601596832275390625">
        <ele>187.1999969482421875</ele>
        <time>2024-01-27T09:44:55.000Z</time>
        <extensions>
          <ns3:TrackPointExtension>
            <ns3:hr>157</ns3:hr>
            <ns3:cad>0</ns3:cad>
          </ns3:TrackPointExtension>
        </extensions>
      </trkpt>
      <trkpt lat="43.8466058671474456787109375" lon="4.2742765881121158599853515625">
        <ele>187.399993896484375</ele>
        <time>2024-01-27T09:44:56.000Z</time>
        <extensions>
          <ns3:TrackPointExtension>
            <ns3:hr>156</ns3:hr>
            <ns3:cad>92</ns3:cad>
          </ns3:TrackPointExtension>
        </extensions>
      </trkpt>
      <trkpt lat="43.84661969728767871856689453125" lon="4.274259321391582489013671875">
        <ele>187.399993896484375</ele>
        <time>2024-01-27T09:44:57.000Z</time>
        <extensions>
          <ns3:TrackPointExtension>
            <ns3:hr>156</ns3:hr>
            <ns3:cad>92</ns3:cad>
          </ns3:TrackPointExtension>
        </extensions>
      </trkpt>
      <trkpt lat="43.84663579054176807403564453125" lon="4.27423610351979732513427734375">
        <ele>187.399993896484375</ele>
        <time>2024-01-27T09:44:58.000Z</time>
        <extensions>
          <ns3:TrackPointExtension>
            <ns3:hr>156</ns3:hr>
            <ns3:cad>92</ns3:cad>
          </ns3:TrackPointExtension>
        </extensions>
      </trkpt>
      <trkpt lat="43.84665238671004772186279296875" lon="4.2742138914763927459716796875">
        <ele>187.399993896484375</ele>
        <time>2024-01-27T09:44:59.000Z</time>
        <extensions>
          <ns3:TrackPointExtension>
            <ns3:hr>156</ns3:hr>
            <ns3:cad>92</ns3:cad>
          </ns3:TrackPointExtension>
        </extensions>
      </trkpt>
      <trkpt lat="43.84666915051639080047607421875" lon="4.274180866777896881103515625">
        <ele>187.399993896484375</ele>
        <time>2024-01-27T09:45:00.000Z</time>
        <extensions>
          <ns3:TrackPointExtension>
            <ns3:hr>156</ns3:hr>
            <ns3:cad>92</ns3:cad>
          </ns3:TrackPointExtension>
        </extensions>
      </trkpt>
      <trkpt lat="43.84668574668467044830322265625" lon="4.274156391620635986328125">
        <ele>187.399993896484375</ele>
        <time>2024-01-27T09:45:01.000Z</time>
        <extensions>
          <ns3:TrackPointExtension>
            <ns3:hr>156</ns3:hr>
            <ns3:cad>90</ns3:cad>
          </ns3:TrackPointExtension>
        </extensions>
      </trkpt>
      <trkpt lat="43.846702761948108673095703125" lon="4.27413116209208965301513671875">
        <ele>187.399993896484375</ele>
        <time>2024-01-27T09:45:02.000Z</time>
        <extensions>
          <ns3:TrackPointExtension>
            <ns3:hr>156</ns3:hr>
            <ns3:cad>89</ns3:cad>
          </ns3:TrackPointExtension>
        </extensions>
      </trkpt>
      <trkpt lat="43.84671977721154689788818359375" lon="4.27410786040127277374267578125">
        <ele>187.399993896484375</ele>
        <time>2024-01-27T09:45:03.000Z</time>
        <extensions>
          <ns3:TrackPointExtension>
            <ns3:hr>156</ns3:hr>
            <ns3:cad>89</ns3:cad>
          </ns3:TrackPointExtension>
        </extensions>
      </trkpt>
      <trkpt lat="43.8467364571988582611083984375" lon="4.27408221177756786346435546875">
        <ele>187.399993896484375</ele>
        <time>2024-01-27T09:45:04.000Z</time>
        <extensions>
          <ns3:TrackPointExtension>
            <ns3:hr>156</ns3:hr>
            <ns3:cad>89</ns3:cad>
          </ns3:TrackPointExtension>
        </extensions>
      </trkpt>
      <trkpt lat="43.8467535562813282012939453125" lon="4.27406092174351215362548828125">
        <ele>187.399993896484375</ele>
        <time>2024-01-27T09:45:05.000Z</time>
        <extensions>
          <ns3:TrackPointExtension>
            <ns3:hr>156</ns3:hr>
            <ns3:cad>89</ns3:cad>
          </ns3:TrackPointExtension>
        </extensions>
      </trkpt>
      <trkpt lat="43.8467723317444324493408203125" lon="4.2740345187485218048095703125">
        <ele>187.399993896484375</ele>
        <time>2024-01-27T09:45:06.000Z</time>
        <extensions>
          <ns3:TrackPointExtension>
            <ns3:hr>156</ns3:hr>
            <ns3:cad>89</ns3:cad>
          </ns3:TrackPointExtension>
        </extensions>
      </trkpt>
      <trkpt lat="43.846788592636585235595703125" lon="4.27401348017156124114990234375">
        <ele>187.399993896484375</ele>
        <time>2024-01-27T09:45:07.000Z</time>
        <extensions>
          <ns3:TrackPointExtension>
            <ns3:hr>156</ns3:hr>
            <ns3:cad>89</ns3:cad>
          </ns3:TrackPointExtension>
        </extensions>
      </trkpt>
      <trkpt lat="43.8468058593571186065673828125" lon="4.27398766390979290008544921875">
        <ele>187.399993896484375</ele>
        <time>2024-01-27T09:45:08.000Z</time>
        <extensions>
          <ns3:TrackPointExtension>
            <ns3:hr>156</ns3:hr>
            <ns3:cad>89</ns3:cad>
          </ns3:TrackPointExtension>
        </extensions>
      </trkpt>
      <trkpt lat="43.8468219526112079620361328125" lon="4.2739677987992763519287109375">
        <ele>187.399993896484375</ele>
        <time>2024-01-27T09:45:09.000Z</time>
        <extensions>
          <ns3:TrackPointExtension>
            <ns3:hr>156</ns3:hr>
            <ns3:cad>89</ns3:cad>
          </ns3:TrackPointExtension>
        </extensions>
      </trkpt>
      <trkpt lat="43.84683947078883647918701171875" lon="4.27394391037523746490478515625">
        <ele>187.399993896484375</ele>
        <time>2024-01-27T09:45:10.000Z</time>
        <extensions>
          <ns3:TrackPointExtension>
            <ns3:hr>156</ns3:hr>
            <ns3:cad>90</ns3:cad>
          </ns3:TrackPointExtension>
        </extensions>
      </trkpt>
      <trkpt lat="43.84685455821454524993896484375" lon="4.2739255540072917938232421875">
        <ele>187.399993896484375</ele>
        <time>2024-01-27T09:45:11.000Z</time>
        <extensions>
          <ns3:TrackPointExtension>
            <ns3:hr>156</ns3:hr>
            <ns3:cad>90</ns3:cad>
          </ns3:TrackPointExtension>
        </extensions>
      </trkpt>
      <trkpt lat="43.84687216021120548248291015625" lon="4.27389630116522312164306640625">
        <ele>187.399993896484375</ele>
        <time>2024-01-27T09:45:12.000Z</time>
        <extensions>
          <ns3:TrackPointExtension>
            <ns3:hr>156</ns3:hr>
            <ns3:cad>90</ns3:cad>
          </ns3:TrackPointExtension>
        </extensions>
      </trkpt>
      <trkpt lat="43.846886493265628814697265625" lon="4.2738715745508670806884765625">
        <ele>187.399993896484375</ele>
        <time>2024-01-27T09:45:13.000Z</time>
        <extensions>
          <ns3:TrackPointExtension>
            <ns3:hr>156</ns3:hr>
            <ns3:cad>90</ns3:cad>
          </ns3:TrackPointExtension>
        </extensions>
      </trkpt>
      <trkpt lat="43.8468990661203861236572265625" lon="4.27384768612682819366455078125">
        <ele>187.399993896484375</ele>
        <time>2024-01-27T09:45:14.000Z</time>
        <extensions>
          <ns3:TrackPointExtension>
            <ns3:hr>156</ns3:hr>
            <ns3:cad>90</ns3:cad>
          </ns3:TrackPointExtension>
        </extensions>
      </trkpt>
      <trkpt lat="43.846911974251270294189453125" lon="4.2738283239305019378662109375">
        <ele>187.399993896484375</ele>
        <time>2024-01-27T09:45:15.000Z</time>
        <extensions>
          <ns3:TrackPointExtension>
            <ns3:hr>156</ns3:hr>
            <ns3:cad>90</ns3:cad>
          </ns3:TrackPointExtension>
        </extensions>
      </trkpt>
      <trkpt lat="43.8469292409718036651611328125" lon="4.2738025076687335968017578125">
        <ele>187.399993896484375</ele>
        <time>2024-01-27T09:45:16.000Z</time>
        <extensions>
          <ns3:TrackPointExtension>
            <ns3:hr>156</ns3:hr>
            <ns3:cad>90</ns3:cad>
          </ns3:TrackPointExtension>
        </extensions>
      </trkpt>
      <trkpt lat="43.8469439931213855743408203125" lon="4.2737776972353458404541015625">
        <ele>187.399993896484375</ele>
        <time>2024-01-27T09:45:17.000Z</time>
        <extensions>
          <ns3:TrackPointExtension>
            <ns3:hr>156</ns3:hr>
            <ns3:cad>90</ns3:cad>
          </ns3:TrackPointExtension>
        </extensions>
      </trkpt>
      <trkpt lat="43.84696369059383869171142578125" lon="4.27374559454619884490966796875">
        <ele>187.399993896484375</ele>
        <time>2024-01-27T09:45:18.000Z</time>
        <extensions>
          <ns3:TrackPointExtension>
            <ns3:hr>157</ns3:hr>
            <ns3:cad>90</ns3:cad>
          </ns3:TrackPointExtension>
        </extensions>
      </trkpt>
      <trkpt lat="43.846979700028896331787109375" lon="4.27372313104569911956787109375">
        <ele>187.399993896484375</ele>
        <time>2024-01-27T09:45:19.000Z</time>
        <extensions>
          <ns3:TrackPointExtension>
            <ns3:hr>157</ns3:hr>
            <ns3:cad>90</ns3:cad>
          </ns3:TrackPointExtension>
        </extensions>
      </trkpt>
      <trkpt lat="43.84700140915811061859130859375" lon="4.2736963927745819091796875">
        <ele>187.1999969482421875</ele>
        <time>2024-01-27T09:45:20.000Z</time>
        <extensions>
          <ns3:TrackPointExtension>
            <ns3:hr>157</ns3:hr>
            <ns3:cad>90</ns3:cad>
          </ns3:TrackPointExtension>
        </extensions>
      </trkpt>
      <trkpt lat="43.8470187596976757049560546875" lon="4.27367686294019222259521484375">
        <ele>187.1999969482421875</ele>
        <time>2024-01-27T09:45:21.000Z</time>
        <extensions>
          <ns3:TrackPointExtension>
            <ns3:hr>158</ns3:hr>
            <ns3:cad>90</ns3:cad>
          </ns3:TrackPointExtension>
        </extensions>
      </trkpt>
      <trkpt lat="43.847036696970462799072265625" lon="4.27364601753652095794677734375">
        <ele>187.1999969482421875</ele>
        <time>2024-01-27T09:45:22.000Z</time>
        <extensions>
          <ns3:TrackPointExtension>
            <ns3:hr>158</ns3:hr>
            <ns3:cad>90</ns3:cad>
          </ns3:TrackPointExtension>
        </extensions>
      </trkpt>
      <trkpt lat="43.84705287404358386993408203125" lon="4.27362573333084583282470703125">
        <ele>187.1999969482421875</ele>
        <time>2024-01-27T09:45:23.000Z</time>
        <extensions>
          <ns3:TrackPointExtension>
            <ns3:hr>158</ns3:hr>
            <ns3:cad>90</ns3:cad>
          </ns3:TrackPointExtension>
        </extensions>
      </trkpt>
      <trkpt lat="43.8470724038779735565185546875" lon="4.2735971510410308837890625">
        <ele>187.1999969482421875</ele>
        <time>2024-01-27T09:45:24.000Z</time>
        <extensions>
          <ns3:TrackPointExtension>
            <ns3:hr>159</ns3:hr>
            <ns3:cad>89</ns3:cad>
          </ns3:TrackPointExtension>
        </extensions>
      </trkpt>
      <trkpt lat="43.84708933532238006591796875" lon="4.2735735140740871429443359375">
        <ele>187.1999969482421875</ele>
        <time>2024-01-27T09:45:25.000Z</time>
        <extensions>
          <ns3:TrackPointExtension>
            <ns3:hr>159</ns3:hr>
            <ns3:cad>89</ns3:cad>
          </ns3:TrackPointExtension>
        </extensions>
      </trkpt>
      <trkpt lat="43.8471119664609432220458984375" lon="4.27353956736624240875244140625">
        <ele>187</ele>
        <time>2024-01-27T09:45:26.000Z</time>
        <extensions>
          <ns3:TrackPointExtension>
            <ns3:hr>159</ns3:hr>
            <ns3:cad>89</ns3:cad>
          </ns3:TrackPointExtension>
        </extensions>
      </trkpt>
      <trkpt lat="43.84712831117212772369384765625" lon="4.2735198698937892913818359375">
        <ele>187</ele>
        <time>2024-01-27T09:45:27.000Z</time>
        <extensions>
          <ns3:TrackPointExtension>
            <ns3:hr>160</ns3:hr>
            <ns3:cad>89</ns3:cad>
          </ns3:TrackPointExtension>
        </extensions>
      </trkpt>
      <trkpt lat="43.84714826010167598724365234375" lon="4.27349028177559375762939453125">
        <ele>187</ele>
        <time>2024-01-27T09:45:28.000Z</time>
        <extensions>
          <ns3:TrackPointExtension>
            <ns3:hr>161</ns3:hr>
            <ns3:cad>89</ns3:cad>
          </ns3:TrackPointExtension>
        </extensions>
      </trkpt>
      <trkpt lat="43.847163431346416473388671875" lon="4.27347041666507720947265625">
        <ele>187</ele>
        <time>2024-01-27T09:45:29.000Z</time>
        <extensions>
          <ns3:TrackPointExtension>
            <ns3:hr>162</ns3:hr>
            <ns3:cad>90</ns3:cad>
          </ns3:TrackPointExtension>
        </extensions>
      </trkpt>
      <trkpt lat="43.84718581102788448333740234375" lon="4.273439235985279083251953125">
        <ele>187</ele>
        <time>2024-01-27T09:45:30.000Z</time>
        <extensions>
          <ns3:TrackPointExtension>
            <ns3:hr>162</ns3:hr>
            <ns3:cad>90</ns3:cad>
          </ns3:TrackPointExtension>
        </extensions>
      </trkpt>
      <trkpt lat="43.847199641168117523193359375" lon="4.27341903559863567352294921875">
        <ele>187</ele>
        <time>2024-01-27T09:45:31.000Z</time>
        <extensions>
          <ns3:TrackPointExtension>
            <ns3:hr>162</ns3:hr>
            <ns3:cad>91</ns3:cad>
          </ns3:TrackPointExtension>
        </extensions>
      </trkpt>
      <trkpt lat="43.84722034446895122528076171875" lon="4.27339271642267704010009765625">
        <ele>187</ele>
        <time>2024-01-27T09:45:32.000Z</time>
        <extensions>
          <ns3:TrackPointExtension>
            <ns3:hr>162</ns3:hr>
            <ns3:cad>92</ns3:cad>
          </ns3:TrackPointExtension>
        </extensions>
      </trkpt>
      <trkpt lat="43.84723417460918426513671875" lon="4.27337008528411388397216796875">
        <ele>187</ele>
        <time>2024-01-27T09:45:33.000Z</time>
        <extensions>
          <ns3:TrackPointExtension>
            <ns3:hr>162</ns3:hr>
            <ns3:cad>92</ns3:cad>
          </ns3:TrackPointExtension>
        </extensions>
      </trkpt>
      <trkpt lat="43.84725169278681278228759765625" lon="4.27334301173686981201171875">
        <ele>187</ele>
        <time>2024-01-27T09:45:34.000Z</time>
        <extensions>
          <ns3:TrackPointExtension>
            <ns3:hr>162</ns3:hr>
            <ns3:cad>92</ns3:cad>
          </ns3:TrackPointExtension>
        </extensions>
      </trkpt>
      <trkpt lat="43.84726543910801410675048828125" lon="4.273319542407989501953125">
        <ele>187</ele>
        <time>2024-01-27T09:45:35.000Z</time>
        <extensions>
          <ns3:TrackPointExtension>
            <ns3:hr>162</ns3:hr>
            <ns3:cad>92</ns3:cad>
          </ns3:TrackPointExtension>
        </extensions>
      </trkpt>
      <trkpt lat="43.84728589095175266265869140625" lon="4.273287020623683929443359375">
        <ele>187</ele>
        <time>2024-01-27T09:45:36.000Z</time>
        <extensions>
          <ns3:TrackPointExtension>
            <ns3:hr>162</ns3:hr>
            <ns3:cad>92</ns3:cad>
          </ns3:TrackPointExtension>
        </extensions>
      </trkpt>
      <trkpt lat="43.84729997254908084869384765625" lon="4.27326061762869358062744140625">
        <ele>186.8000030517578125</ele>
        <time>2024-01-27T09:45:37.000Z</time>
        <extensions>
          <ns3:TrackPointExtension>
            <ns3:hr>162</ns3:hr>
            <ns3:cad>92</ns3:cad>
          </ns3:TrackPointExtension>
        </extensions>
      </trkpt>
      <trkpt lat="43.8473124615848064422607421875" lon="4.27323496900498867034912109375">
        <ele>186.8000030517578125</ele>
        <time>2024-01-27T09:45:38.000Z</time>
        <extensions>
          <ns3:TrackPointExtension>
            <ns3:hr>162</ns3:hr>
            <ns3:cad>92</ns3:cad>
          </ns3:TrackPointExtension>
        </extensions>
      </trkpt>
      <trkpt lat="43.84732176549732685089111328125" lon="4.27320764400064945220947265625">
        <ele>186.8000030517578125</ele>
        <time>2024-01-27T09:45:39.000Z</time>
        <extensions>
          <ns3:TrackPointExtension>
            <ns3:hr>162</ns3:hr>
            <ns3:cad>92</ns3:cad>
          </ns3:TrackPointExtension>
        </extensions>
      </trkpt>
      <trkpt lat="43.84732193313539028167724609375" lon="4.2731705121695995330810546875">
        <ele>187</ele>
        <time>2024-01-27T09:45:40.000Z</time>
        <extensions>
          <ns3:TrackPointExtension>
            <ns3:hr>162</ns3:hr>
            <ns3:cad>91</ns3:cad>
          </ns3:TrackPointExtension>
        </extensions>
      </trkpt>
      <trkpt lat="43.8473205082118511199951171875" lon="4.2731302790343761444091796875">
        <ele>187</ele>
        <time>2024-01-27T09:45:41.000Z</time>
        <extensions>
          <ns3:TrackPointExtension>
            <ns3:hr>162</ns3:hr>
            <ns3:cad>91</ns3:cad>
          </ns3:TrackPointExtension>
        </extensions>
      </trkpt>
      <trkpt lat="43.84731070138514041900634765625" lon="4.2730840109288692474365234375">
        <ele>187</ele>
        <time>2024-01-27T09:45:42.000Z</time>
        <extensions>
          <ns3:TrackPointExtension>
            <ns3:hr>162</ns3:hr>
            <ns3:cad>91</ns3:cad>
          </ns3:TrackPointExtension>
        </extensions>
      </trkpt>
      <trkpt lat="43.84729192592203617095947265625" lon="4.2730481363832950592041015625">
        <ele>187</ele>
        <time>2024-01-27T09:45:43.000Z</time>
        <extensions>
          <ns3:TrackPointExtension>
            <ns3:hr>162</ns3:hr>
            <ns3:cad>91</ns3:cad>
          </ns3:TrackPointExtension>
        </extensions>
      </trkpt>
      <trkpt lat="43.84727180935442447662353515625" lon="4.27299759350717067718505859375">
        <ele>187</ele>
        <time>2024-01-27T09:45:44.000Z</time>
        <extensions>
          <ns3:TrackPointExtension>
            <ns3:hr>162</ns3:hr>
            <ns3:cad>91</ns3:cad>
          </ns3:TrackPointExtension>
        </extensions>
      </trkpt>
      <trkpt lat="43.84725789539515972137451171875" lon="4.27296616137027740478515625">
        <ele>187</ele>
        <time>2024-01-27T09:45:45.000Z</time>
        <extensions>
          <ns3:TrackPointExtension>
            <ns3:hr>162</ns3:hr>
            <ns3:cad>89</ns3:cad>
          </ns3:TrackPointExtension>
        </extensions>
      </trkpt>
      <trkpt lat="43.847242891788482666015625" lon="4.27291863597929477691650390625">
        <ele>187</ele>
        <time>2024-01-27T09:45:46.000Z</time>
        <extensions>
          <ns3:TrackPointExtension>
            <ns3:hr>162</ns3:hr>
            <ns3:cad>88</ns3:cad>
          </ns3:TrackPointExtension>
        </extensions>
      </trkpt>
      <trkpt lat="43.847228474915027618408203125" lon="4.27288628183305263519287109375">
        <ele>187</ele>
        <time>2024-01-27T09:45:47.000Z</time>
        <extensions>
          <ns3:TrackPointExtension>
            <ns3:hr>162</ns3:hr>
            <ns3:cad>88</ns3:cad>
          </ns3:TrackPointExtension>
        </extensions>
      </trkpt>
      <trkpt lat="43.84721539914608001708984375" lon="4.2728422768414020538330078125">
        <ele>186.8000030517578125</ele>
        <time>2024-01-27T09:45:48.000Z</time>
        <extensions>
          <ns3:TrackPointExtension>
            <ns3:hr>162</ns3:hr>
            <ns3:cad>88</ns3:cad>
          </ns3:TrackPointExtension>
        </extensions>
      </trkpt>
      <trkpt lat="43.84720391593873500823974609375" lon="4.2728094197809696197509765625">
        <ele>186.600006103515625</ele>
        <time>2024-01-27T09:45:49.000Z</time>
        <extensions>
          <ns3:TrackPointExtension>
            <ns3:hr>162</ns3:hr>
            <ns3:cad>88</ns3:cad>
          </ns3:TrackPointExtension>
        </extensions>
      </trkpt>
      <trkpt lat="43.84718983434140682220458984375" lon="4.27276759408414363861083984375">
        <ele>186.600006103515625</ele>
        <time>2024-01-27T09:45:50.000Z</time>
        <extensions>
          <ns3:TrackPointExtension>
            <ns3:hr>162</ns3:hr>
            <ns3:cad>88</ns3:cad>
          </ns3:TrackPointExtension>
        </extensions>
      </trkpt>
      <trkpt lat="43.84717491455376148223876953125" lon="4.27273876033723354339599609375">
        <ele>186.600006103515625</ele>
        <time>2024-01-27T09:45:51.000Z</time>
        <extensions>
          <ns3:TrackPointExtension>
            <ns3:hr>162</ns3:hr>
            <ns3:cad>89</ns3:cad>
          </ns3:TrackPointExtension>
        </extensions>
      </trkpt>
      <trkpt lat="43.84715974330902099609375" lon="4.27270657382905483245849609375">
        <ele>186.399993896484375</ele>
        <time>2024-01-27T09:45:52.000Z</time>
        <extensions>
          <ns3:TrackPointExtension>
            <ns3:hr>162</ns3:hr>
            <ns3:cad>90</ns3:cad>
          </ns3:TrackPointExtension>
        </extensions>
      </trkpt>
      <trkpt lat="43.8471434824168682098388671875" lon="4.2726800031960010528564453125">
        <ele>186.399993896484375</ele>
        <time>2024-01-27T09:45:53.000Z</time>
        <extensions>
          <ns3:TrackPointExtension>
            <ns3:hr>162</ns3:hr>
            <ns3:cad>91</ns3:cad>
          </ns3:TrackPointExtension>
        </extensions>
      </trkpt>
      <trkpt lat="43.84712780825793743133544921875" lon="4.2726458050310611724853515625">
        <ele>186.399993896484375</ele>
        <time>2024-01-27T09:45:54.000Z</time>
        <extensions>
          <ns3:TrackPointExtension>
            <ns3:hr>162</ns3:hr>
            <ns3:cad>92</ns3:cad>
          </ns3:TrackPointExtension>
        </extensions>
      </trkpt>
      <trkpt lat="43.84711238555610179901123046875" lon="4.27261688746511936187744140625">
        <ele>186.399993896484375</ele>
        <time>2024-01-27T09:45:55.000Z</time>
        <extensions>
          <ns3:TrackPointExtension>
            <ns3:hr>162</ns3:hr>
            <ns3:cad>92</ns3:cad>
          </ns3:TrackPointExtension>
        </extensions>
      </trkpt>
      <trkpt lat="43.84709394536912441253662109375" lon="4.27258193492889404296875">
        <ele>186.399993896484375</ele>
        <time>2024-01-27T09:45:56.000Z</time>
        <extensions>
          <ns3:TrackPointExtension>
            <ns3:hr>162</ns3:hr>
            <ns3:cad>91</ns3:cad>
          </ns3:TrackPointExtension>
        </extensions>
      </trkpt>
      <trkpt lat="43.84707617573440074920654296875" lon="4.2725489102303981781005859375">
        <ele>186.1999969482421875</ele>
        <time>2024-01-27T09:45:57.000Z</time>
        <extensions>
          <ns3:TrackPointExtension>
            <ns3:hr>162</ns3:hr>
            <ns3:cad>90</ns3:cad>
          </ns3:TrackPointExtension>
        </extensions>
      </trkpt>
      <trkpt lat="43.84706058539450168609619140625" lon="4.2725143767893314361572265625">
        <ele>186.399993896484375</ele>
        <time>2024-01-27T09:45:58.000Z</time>
        <extensions>
          <ns3:TrackPointExtension>
            <ns3:hr>162</ns3:hr>
            <ns3:cad>90</ns3:cad>
          </ns3:TrackPointExtension>
        </extensions>
      </trkpt>
      <trkpt lat="43.847044408321380615234375" lon="4.2724862135946750640869140625">
        <ele>186.399993896484375</ele>
        <time>2024-01-27T09:45:59.000Z</time>
        <extensions>
          <ns3:TrackPointExtension>
            <ns3:hr>163</ns3:hr>
            <ns3:cad>90</ns3:cad>
          </ns3:TrackPointExtension>
        </extensions>
      </trkpt>
      <trkpt lat="43.8470234535634517669677734375" lon="4.27245243452489376068115234375">
        <ele>186.1999969482421875</ele>
        <time>2024-01-27T09:46:00.000Z</time>
        <extensions>
          <ns3:TrackPointExtension>
            <ns3:hr>163</ns3:hr>
            <ns3:cad>89</ns3:cad>
          </ns3:TrackPointExtension>
        </extensions>
      </trkpt>
      <trkpt lat="43.84700560010969638824462890625" lon="4.2724275402724742889404296875">
        <ele>186.1999969482421875</ele>
        <time>2024-01-27T09:46:01.000Z</time>
        <extensions>
          <ns3:TrackPointExtension>
            <ns3:hr>164</ns3:hr>
            <ns3:cad>89</ns3:cad>
          </ns3:TrackPointExtension>
        </extensions>
      </trkpt>
      <trkpt lat="43.8469872437417507171630859375" lon="4.27239862270653247833251953125">
        <ele>186.1999969482421875</ele>
        <time>2024-01-27T09:46:02.000Z</time>
        <extensions>
          <ns3:TrackPointExtension>
            <ns3:hr>164</ns3:hr>
            <ns3:cad>89</ns3:cad>
          </ns3:TrackPointExtension>
        </extensions>
      </trkpt>
      <trkpt lat="43.84696939028799533843994140625" lon="4.2723735608160495758056640625">
        <ele>186.1999969482421875</ele>
        <time>2024-01-27T09:46:03.000Z</time>
        <extensions>
          <ns3:TrackPointExtension>
            <ns3:hr>164</ns3:hr>
            <ns3:cad>90</ns3:cad>
          </ns3:TrackPointExtension>
        </extensions>
      </trkpt>
      <trkpt lat="43.846952207386493682861328125" lon="4.2723460681736469268798828125">
        <ele>186.1999969482421875</ele>
        <time>2024-01-27T09:46:04.000Z</time>
        <extensions>
          <ns3:TrackPointExtension>
            <ns3:hr>164</ns3:hr>
            <ns3:cad>90</ns3:cad>
          </ns3:TrackPointExtension>
        </extensions>
      </trkpt>
      <trkpt lat="43.84693108499050140380859375" lon="4.27231497131288051605224609375">
        <ele>186.1999969482421875</ele>
        <time>2024-01-27T09:46:05.000Z</time>
        <extensions>
          <ns3:TrackPointExtension>
            <ns3:hr>164</ns3:hr>
            <ns3:cad>90</ns3:cad>
          </ns3:TrackPointExtension>
        </extensions>
      </trkpt>
      <trkpt lat="43.84691423736512660980224609375" lon="4.27228412590920925140380859375">
        <ele>186.1999969482421875</ele>
        <time>2024-01-27T09:46:06.000Z</time>
        <extensions>
          <ns3:TrackPointExtension>
            <ns3:hr>164</ns3:hr>
            <ns3:cad>90</ns3:cad>
          </ns3:TrackPointExtension>
        </extensions>
      </trkpt>
      <trkpt lat="43.846897222101688385009765625" lon="4.2722528614103794097900390625">
        <ele>186.1999969482421875</ele>
        <time>2024-01-27T09:46:07.000Z</time>
        <extensions>
          <ns3:TrackPointExtension>
            <ns3:hr>164</ns3:hr>
            <ns3:cad>92</ns3:cad>
          </ns3:TrackPointExtension>
        </extensions>
      </trkpt>
      <trkpt lat="43.8468839786946773529052734375" lon="4.27222193218767642974853515625">
        <ele>186.1999969482421875</ele>
        <time>2024-01-27T09:46:08.000Z</time>
        <extensions>
          <ns3:TrackPointExtension>
            <ns3:hr>164</ns3:hr>
            <ns3:cad>92</ns3:cad>
          </ns3:TrackPointExtension>
        </extensions>
      </trkpt>
      <trkpt lat="43.846866376698017120361328125" lon="4.2721894942224025726318359375">
        <ele>186.1999969482421875</ele>
        <time>2024-01-27T09:46:09.000Z</time>
        <extensions>
          <ns3:TrackPointExtension>
            <ns3:hr>164</ns3:hr>
            <ns3:cad>92</ns3:cad>
          </ns3:TrackPointExtension>
        </extensions>
      </trkpt>
      <trkpt lat="43.846850283443927764892578125" lon="4.27215923555195331573486328125">
        <ele>186.1999969482421875</ele>
        <time>2024-01-27T09:46:10.000Z</time>
        <extensions>
          <ns3:TrackPointExtension>
            <ns3:hr>164</ns3:hr>
            <ns3:cad>92</ns3:cad>
          </ns3:TrackPointExtension>
        </extensions>
      </trkpt>
      <trkpt lat="43.84682924486696720123291015625" lon="4.272128976881504058837890625">
        <ele>186.1999969482421875</ele>
        <time>2024-01-27T09:46:11.000Z</time>
        <extensions>
          <ns3:TrackPointExtension>
            <ns3:hr>164</ns3:hr>
            <ns3:cad>92</ns3:cad>
          </ns3:TrackPointExtension>
        </extensions>
      </trkpt>
      <trkpt lat="43.846811391413211822509765625" lon="4.27210458554327487945556640625">
        <ele>186.1999969482421875</ele>
        <time>2024-01-27T09:46:12.000Z</time>
        <extensions>
          <ns3:TrackPointExtension>
            <ns3:hr>164</ns3:hr>
            <ns3:cad>92</ns3:cad>
          </ns3:TrackPointExtension>
        </extensions>
      </trkpt>
      <trkpt lat="43.84678901173174381256103515625" lon="4.27208564244210720062255859375">
        <ele>186.1999969482421875</ele>
        <time>2024-01-27T09:46:13.000Z</time>
        <extensions>
          <ns3:TrackPointExtension>
            <ns3:hr>164</ns3:hr>
            <ns3:cad>92</ns3:cad>
          </ns3:TrackPointExtension>
        </extensions>
      </trkpt>
      <trkpt lat="43.8467656262218952178955078125" lon="4.2720714770257472991943359375">
        <ele>186.1999969482421875</ele>
        <time>2024-01-27T09:46:14.000Z</time>
        <extensions>
          <ns3:TrackPointExtension>
            <ns3:hr>164</ns3:hr>
            <ns3:cad>92</ns3:cad>
          </ns3:TrackPointExtension>
        </extensions>
      </trkpt>
      <trkpt lat="43.84674123488366603851318359375" lon="4.272057898342609405517578125">
        <ele>186.1999969482421875</ele>
        <time>2024-01-27T09:46:15.000Z</time>
        <extensions>
          <ns3:TrackPointExtension>
            <ns3:hr>164</ns3:hr>
            <ns3:cad>90</ns3:cad>
          </ns3:TrackPointExtension>
        </extensions>
      </trkpt>
      <trkpt lat="43.8467180170118808746337890625" lon="4.2720453254878520965576171875">
        <ele>186</ele>
        <time>2024-01-27T09:46:16.000Z</time>
        <extensions>
          <ns3:TrackPointExtension>
            <ns3:hr>164</ns3:hr>
            <ns3:cad>90</ns3:cad>
          </ns3:TrackPointExtension>
        </extensions>
      </trkpt>
      <trkpt lat="43.8466943800449371337890625" lon="4.27203166298568248748779296875">
        <ele>186</ele>
        <time>2024-01-27T09:46:17.000Z</time>
        <extensions>
          <ns3:TrackPointExtension>
            <ns3:hr>164</ns3:hr>
            <ns3:cad>90</ns3:cad>
          </ns3:TrackPointExtension>
        </extensions>
      </trkpt>
      <trkpt lat="43.84667384438216686248779296875" lon="4.27201531827449798583984375">
        <ele>185.8000030517578125</ele>
        <time>2024-01-27T09:46:18.000Z</time>
        <extensions>
          <ns3:TrackPointExtension>
            <ns3:hr>164</ns3:hr>
            <ns3:cad>90</ns3:cad>
          </ns3:TrackPointExtension>
        </extensions>
      </trkpt>
      <trkpt lat="43.846651799976825714111328125" lon="4.27199897356331348419189453125">
        <ele>185.8000030517578125</ele>
        <time>2024-01-27T09:46:19.000Z</time>
        <extensions>
          <ns3:TrackPointExtension>
            <ns3:hr>164</ns3:hr>
            <ns3:cad>89</ns3:cad>
          </ns3:TrackPointExtension>
        </extensions>
      </trkpt>
      <trkpt lat="43.8466308452188968658447265625" lon="4.271979443728923797607421875">
        <ele>185.8000030517578125</ele>
        <time>2024-01-27T09:46:20.000Z</time>
        <extensions>
          <ns3:TrackPointExtension>
            <ns3:hr>164</ns3:hr>
            <ns3:cad>88</ns3:cad>
          </ns3:TrackPointExtension>
        </extensions>
      </trkpt>
      <trkpt lat="43.84660813026130199432373046875" lon="4.2719531245529651641845703125">
        <ele>185.600006103515625</ele>
        <time>2024-01-27T09:46:21.000Z</time>
        <extensions>
          <ns3:TrackPointExtension>
            <ns3:hr>164</ns3:hr>
            <ns3:cad>88</ns3:cad>
          </ns3:TrackPointExtension>
        </extensions>
      </trkpt>
      <trkpt lat="43.84659002535045146942138671875" lon="4.27192538045346736907958984375">
        <ele>185.600006103515625</ele>
        <time>2024-01-27T09:46:22.000Z</time>
        <extensions>
          <ns3:TrackPointExtension>
            <ns3:hr>164</ns3:hr>
            <ns3:cad>89</ns3:cad>
          </ns3:TrackPointExtension>
        </extensions>
      </trkpt>
      <trkpt lat="43.846569992601871490478515625" lon="4.271888248622417449951171875">
        <ele>185.600006103515625</ele>
        <time>2024-01-27T09:46:23.000Z</time>
        <extensions>
          <ns3:TrackPointExtension>
            <ns3:hr>164</ns3:hr>
            <ns3:cad>89</ns3:cad>
          </ns3:TrackPointExtension>
        </extensions>
      </trkpt>
      <trkpt lat="43.846556581556797027587890625" lon="4.271852709352970123291015625">
        <ele>185.600006103515625</ele>
        <time>2024-01-27T09:46:24.000Z</time>
        <extensions>
          <ns3:TrackPointExtension>
            <ns3:hr>164</ns3:hr>
            <ns3:cad>90</ns3:cad>
          </ns3:TrackPointExtension>
        </extensions>
      </trkpt>
      <trkpt lat="43.8465414941310882568359375" lon="4.27181012928485870361328125">
        <ele>185.600006103515625</ele>
        <time>2024-01-27T09:46:25.000Z</time>
        <extensions>
          <ns3:TrackPointExtension>
            <ns3:hr>163</ns3:hr>
            <ns3:cad>90</ns3:cad>
          </ns3:TrackPointExtension>
        </extensions>
      </trkpt>
      <trkpt lat="43.84653118439018726348876953125" lon="4.2717724107205867767333984375">
        <ele>185.600006103515625</ele>
        <time>2024-01-27T09:46:26.000Z</time>
        <extensions>
          <ns3:TrackPointExtension>
            <ns3:hr>163</ns3:hr>
            <ns3:cad>90</ns3:cad>
          </ns3:TrackPointExtension>
        </extensions>
      </trkpt>
      <trkpt lat="43.84652095846831798553466796875" lon="4.27173502743244171142578125">
        <ele>185.600006103515625</ele>
        <time>2024-01-27T09:46:27.000Z</time>
        <extensions>
          <ns3:TrackPointExtension>
            <ns3:hr>163</ns3:hr>
            <ns3:cad>91</ns3:cad>
          </ns3:TrackPointExtension>
        </extensions>
      </trkpt>
      <trkpt lat="43.846515677869319915771484375" lon="4.2716939561069011688232421875">
        <ele>185.600006103515625</ele>
        <time>2024-01-27T09:46:28.000Z</time>
        <extensions>
          <ns3:TrackPointExtension>
            <ns3:hr>163</ns3:hr>
            <ns3:cad>92</ns3:cad>
          </ns3:TrackPointExtension>
        </extensions>
      </trkpt>
      <trkpt lat="43.84650570340454578399658203125" lon="4.2716550640761852264404296875">
        <ele>185.600006103515625</ele>
        <time>2024-01-27T09:46:29.000Z</time>
        <extensions>
          <ns3:TrackPointExtension>
            <ns3:hr>163</ns3:hr>
            <ns3:cad>92</ns3:cad>
          </ns3:TrackPointExtension>
        </extensions>
      </trkpt>
      <trkpt lat="43.8464967347681522369384765625" lon="4.27162497304379940032958984375">
        <ele>185.600006103515625</ele>
        <time>2024-01-27T09:46:30.000Z</time>
        <extensions>
          <ns3:TrackPointExtension>
            <ns3:hr>163</ns3:hr>
            <ns3:cad>92</ns3:cad>
          </ns3:TrackPointExtension>
        </extensions>
      </trkpt>
      <trkpt lat="43.846486173570156097412109375" lon="4.271583147346973419189453125">
        <ele>185.600006103515625</ele>
        <time>2024-01-27T09:46:31.000Z</time>
        <extensions>
          <ns3:TrackPointExtension>
            <ns3:hr>163</ns3:hr>
            <ns3:cad>92</ns3:cad>
          </ns3:TrackPointExtension>
        </extensions>
      </trkpt>
      <trkpt lat="43.846477456390857696533203125" lon="4.2715531401336193084716796875">
        <ele>185.600006103515625</ele>
        <time>2024-01-27T09:46:32.000Z</time>
        <extensions>
          <ns3:TrackPointExtension>
            <ns3:hr>163</ns3:hr>
            <ns3:cad>92</ns3:cad>
          </ns3:TrackPointExtension>
        </extensions>
      </trkpt>
      <trkpt lat="43.84647116996347904205322265625" lon="4.27151332609355449676513671875">
        <ele>185.8000030517578125</ele>
        <time>2024-01-27T09:46:33.000Z</time>
        <extensions>
          <ns3:TrackPointExtension>
            <ns3:hr>163</ns3:hr>
            <ns3:cad>92</ns3:cad>
          </ns3:TrackPointExtension>
        </extensions>
      </trkpt>
      <trkpt lat="43.846464715898036956787109375" lon="4.27147879265248775482177734375">
        <ele>185.8000030517578125</ele>
        <time>2024-01-27T09:46:34.000Z</time>
        <extensions>
          <ns3:TrackPointExtension>
            <ns3:hr>163</ns3:hr>
            <ns3:cad>92</ns3:cad>
          </ns3:TrackPointExtension>
        </extensions>
      </trkpt>
      <trkpt lat="43.8464561663568019866943359375" lon="4.27143537439405918121337890625">
        <ele>185.8000030517578125</ele>
        <time>2024-01-27T09:46:35.000Z</time>
        <extensions>
          <ns3:TrackPointExtension>
            <ns3:hr>163</ns3:hr>
            <ns3:cad>93</ns3:cad>
          </ns3:TrackPointExtension>
        </extensions>
      </trkpt>
      <trkpt lat="43.8464474491775035858154296875" lon="4.27140243351459503173828125">
        <ele>186</ele>
        <time>2024-01-27T09:46:36.000Z</time>
        <extensions>
          <ns3:TrackPointExtension>
            <ns3:hr>163</ns3:hr>
            <ns3:cad>93</ns3:cad>
          </ns3:TrackPointExtension>
        </extensions>
      </trkpt>
      <trkpt lat="43.8464390672743320465087890625" lon="4.27136681042611598968505859375">
        <ele>186</ele>
        <time>2024-01-27T09:46:37.000Z</time>
        <extensions>
          <ns3:TrackPointExtension>
            <ns3:hr>163</ns3:hr>
            <ns3:cad>93</ns3:cad>
          </ns3:TrackPointExtension>
        </extensions>
      </trkpt>
      <trkpt lat="43.84642892517149448394775390625" lon="4.2713320255279541015625">
        <ele>186</ele>
        <time>2024-01-27T09:46:38.000Z</time>
        <extensions>
          <ns3:TrackPointExtension>
            <ns3:hr>163</ns3:hr>
            <ns3:cad>93</ns3:cad>
          </ns3:TrackPointExtension>
        </extensions>
      </trkpt>
      <trkpt lat="43.84642121382057666778564453125" lon="4.2712973244488239288330078125">
        <ele>186</ele>
        <time>2024-01-27T09:46:39.000Z</time>
        <extensions>
          <ns3:TrackPointExtension>
            <ns3:hr>163</ns3:hr>
            <ns3:cad>93</ns3:cad>
          </ns3:TrackPointExtension>
        </extensions>
      </trkpt>
      <trkpt lat="43.84641400538384914398193359375" lon="4.271264635026454925537109375">
        <ele>186</ele>
        <time>2024-01-27T09:46:40.000Z</time>
        <extensions>
          <ns3:TrackPointExtension>
            <ns3:hr>163</ns3:hr>
            <ns3:cad>92</ns3:cad>
          </ns3:TrackPointExtension>
        </extensions>
      </trkpt>
      <trkpt lat="43.8464082218706607818603515625" lon="4.27123077213764190673828125">
        <ele>186</ele>
        <time>2024-01-27T09:46:41.000Z</time>
        <extensions>
          <ns3:TrackPointExtension>
            <ns3:hr>163</ns3:hr>
            <ns3:cad>92</ns3:cad>
          </ns3:TrackPointExtension>
        </extensions>
      </trkpt>
      <trkpt lat="43.8463995046913623809814453125" lon="4.2711937241256237030029296875">
        <ele>186</ele>
        <time>2024-01-27T09:46:42.000Z</time>
        <extensions>
          <ns3:TrackPointExtension>
            <ns3:hr>163</ns3:hr>
            <ns3:cad>91</ns3:cad>
          </ns3:TrackPointExtension>
        </extensions>
      </trkpt>
      <trkpt lat="43.846394307911396026611328125" lon="4.2711563408374786376953125">
        <ele>186.1999969482421875</ele>
        <time>2024-01-27T09:46:43.000Z</time>
        <extensions>
          <ns3:TrackPointExtension>
            <ns3:hr>163</ns3:hr>
            <ns3:cad>91</ns3:cad>
          </ns3:TrackPointExtension>
        </extensions>
      </trkpt>
      <trkpt lat="43.8463832437992095947265625" lon="4.27110227756202220916748046875">
        <ele>186.1999969482421875</ele>
        <time>2024-01-27T09:46:44.000Z</time>
        <extensions>
          <ns3:TrackPointExtension>
            <ns3:hr>164</ns3:hr>
            <ns3:cad>91</ns3:cad>
          </ns3:TrackPointExtension>
        </extensions>
      </trkpt>
      <trkpt lat="43.84637544862926006317138671875" lon="4.27106506191194057464599609375">
        <ele>186.1999969482421875</ele>
        <time>2024-01-27T09:46:45.000Z</time>
        <extensions>
          <ns3:TrackPointExtension>
            <ns3:hr>164</ns3:hr>
            <ns3:cad>91</ns3:cad>
          </ns3:TrackPointExtension>
        </extensions>
      </trkpt>
      <trkpt lat="43.846364803612232208251953125" lon="4.271021895110607147216796875">
        <ele>186.399993896484375</ele>
        <time>2024-01-27T09:46:46.000Z</time>
        <extensions>
          <ns3:TrackPointExtension>
            <ns3:hr>164</ns3:hr>
            <ns3:cad>93</ns3:cad>
          </ns3:TrackPointExtension>
        </extensions>
      </trkpt>
      <trkpt lat="43.8463575951755046844482421875" lon="4.270985014736652374267578125">
        <ele>186.399993896484375</ele>
        <time>2024-01-27T09:46:47.000Z</time>
        <extensions>
          <ns3:TrackPointExtension>
            <ns3:hr>163</ns3:hr>
            <ns3:cad>93</ns3:cad>
          </ns3:TrackPointExtension>
        </extensions>
      </trkpt>
      <trkpt lat="43.84634912945330142974853515625" lon="4.27094402723014354705810546875">
        <ele>186.399993896484375</ele>
        <time>2024-01-27T09:46:48.000Z</time>
        <extensions>
          <ns3:TrackPointExtension>
            <ns3:hr>163</ns3:hr>
            <ns3:cad>92</ns3:cad>
          </ns3:TrackPointExtension>
        </extensions>
      </trkpt>
      <trkpt lat="43.84634234011173248291015625" lon="4.27091267891228199005126953125">
        <ele>186.399993896484375</ele>
        <time>2024-01-27T09:46:49.000Z</time>
        <extensions>
          <ns3:TrackPointExtension>
            <ns3:hr>163</ns3:hr>
            <ns3:cad>92</ns3:cad>
          </ns3:TrackPointExtension>
        </extensions>
      </trkpt>
      <trkpt lat="43.84633555077016353607177734375" lon="4.2708685062825679779052734375">
        <ele>186.399993896484375</ele>
        <time>2024-01-27T09:46:50.000Z</time>
        <extensions>
          <ns3:TrackPointExtension>
            <ns3:hr>163</ns3:hr>
            <ns3:cad>92</ns3:cad>
          </ns3:TrackPointExtension>
        </extensions>
      </trkpt>
      <trkpt lat="43.8463269174098968505859375" lon="4.27083271555602550506591796875">
        <ele>186.399993896484375</ele>
        <time>2024-01-27T09:46:51.000Z</time>
        <extensions>
          <ns3:TrackPointExtension>
            <ns3:hr>163</ns3:hr>
            <ns3:cad>92</ns3:cad>
          </ns3:TrackPointExtension>
        </extensions>
      </trkpt>
      <trkpt lat="43.84631979279220104217529296875" lon="4.2707937397062778472900390625">
        <ele>186.1999969482421875</ele>
        <time>2024-01-27T09:46:52.000Z</time>
        <extensions>
          <ns3:TrackPointExtension>
            <ns3:hr>163</ns3:hr>
            <ns3:cad>91</ns3:cad>
          </ns3:TrackPointExtension>
        </extensions>
      </trkpt>
      <trkpt lat="43.846311159431934356689453125" lon="4.27076046355068683624267578125">
        <ele>186.1999969482421875</ele>
        <time>2024-01-27T09:46:53.000Z</time>
        <extensions>
          <ns3:TrackPointExtension>
            <ns3:hr>163</ns3:hr>
            <ns3:cad>91</ns3:cad>
          </ns3:TrackPointExtension>
        </extensions>
      </trkpt>
      <trkpt lat="43.84630068205296993255615234375" lon="4.27071251906454563140869140625">
        <ele>186.1999969482421875</ele>
        <time>2024-01-27T09:46:54.000Z</time>
        <extensions>
          <ns3:TrackPointExtension>
            <ns3:hr>162</ns3:hr>
            <ns3:cad>91</ns3:cad>
          </ns3:TrackPointExtension>
        </extensions>
      </trkpt>
      <trkpt lat="43.8462920486927032470703125" lon="4.27067957818508148193359375">
        <ele>186</ele>
        <time>2024-01-27T09:46:55.000Z</time>
        <extensions>
          <ns3:TrackPointExtension>
            <ns3:hr>162</ns3:hr>
            <ns3:cad>91</ns3:cad>
          </ns3:TrackPointExtension>
        </extensions>
      </trkpt>
      <trkpt lat="43.84628425352275371551513671875" lon="4.2706432007253170013427734375">
        <ele>186</ele>
        <time>2024-01-27T09:46:56.000Z</time>
        <extensions>
          <ns3:TrackPointExtension>
            <ns3:hr>162</ns3:hr>
            <ns3:cad>91</ns3:cad>
          </ns3:TrackPointExtension>
        </extensions>
      </trkpt>
      <trkpt lat="43.84627796709537506103515625" lon="4.27061386406421661376953125">
        <ele>186</ele>
        <time>2024-01-27T09:46:57.000Z</time>
        <extensions>
          <ns3:TrackPointExtension>
            <ns3:hr>162</ns3:hr>
            <ns3:cad>91</ns3:cad>
          </ns3:TrackPointExtension>
        </extensions>
      </trkpt>
      <trkpt lat="43.846272267401218414306640625" lon="4.27057321183383464813232421875">
        <ele>185.8000030517578125</ele>
        <time>2024-01-27T09:46:58.000Z</time>
        <extensions>
          <ns3:TrackPointExtension>
            <ns3:hr>161</ns3:hr>
            <ns3:cad>90</ns3:cad>
          </ns3:TrackPointExtension>
        </extensions>
      </trkpt>
      <trkpt lat="43.8462664000689983367919921875" lon="4.2705389298498630523681640625">
        <ele>185.8000030517578125</ele>
        <time>2024-01-27T09:46:59.000Z</time>
        <extensions>
          <ns3:TrackPointExtension>
            <ns3:hr>161</ns3:hr>
            <ns3:cad>90</ns3:cad>
          </ns3:TrackPointExtension>
        </extensions>
      </trkpt>
      <trkpt lat="43.8462625443935394287109375" lon="4.27050246857106685638427734375">
        <ele>185.8000030517578125</ele>
        <time>2024-01-27T09:47:00.000Z</time>
        <extensions>
          <ns3:TrackPointExtension>
            <ns3:hr>161</ns3:hr>
            <ns3:cad>90</ns3:cad>
          </ns3:TrackPointExtension>
        </extensions>
      </trkpt>
      <trkpt lat="43.84625726379454135894775390625" lon="4.2704688571393489837646484375">
        <ele>185.8000030517578125</ele>
        <time>2024-01-27T09:47:01.000Z</time>
        <extensions>
          <ns3:TrackPointExtension>
            <ns3:hr>161</ns3:hr>
            <ns3:cad>90</ns3:cad>
          </ns3:TrackPointExtension>
        </extensions>
      </trkpt>
      <trkpt lat="43.84625273756682872772216796875" lon="4.2704256065189838409423828125">
        <ele>185.600006103515625</ele>
        <time>2024-01-27T09:47:02.000Z</time>
        <extensions>
          <ns3:TrackPointExtension>
            <ns3:hr>161</ns3:hr>
            <ns3:cad>90</ns3:cad>
          </ns3:TrackPointExtension>
        </extensions>
      </trkpt>
      <trkpt lat="43.84624737314879894256591796875" lon="4.2703878879547119140625">
        <ele>185.600006103515625</ele>
        <time>2024-01-27T09:47:03.000Z</time>
        <extensions>
          <ns3:TrackPointExtension>
            <ns3:hr>161</ns3:hr>
            <ns3:cad>91</ns3:cad>
          </ns3:TrackPointExtension>
        </extensions>
      </trkpt>
      <trkpt lat="43.8462422601878643035888671875" lon="4.270349331200122833251953125">
        <ele>185.600006103515625</ele>
        <time>2024-01-27T09:47:04.000Z</time>
        <extensions>
          <ns3:TrackPointExtension>
            <ns3:hr>161</ns3:hr>
            <ns3:cad>92</ns3:cad>
          </ns3:TrackPointExtension>
        </extensions>
      </trkpt>
      <trkpt lat="43.84623664431273937225341796875" lon="4.270312450826168060302734375">
        <ele>185.399993896484375</ele>
        <time>2024-01-27T09:47:05.000Z</time>
        <extensions>
          <ns3:TrackPointExtension>
            <ns3:hr>161</ns3:hr>
            <ns3:cad>92</ns3:cad>
          </ns3:TrackPointExtension>
        </extensions>
      </trkpt>
      <trkpt lat="43.8462348841130733489990234375" lon="4.27027783356606960296630859375">
        <ele>185.399993896484375</ele>
        <time>2024-01-27T09:47:06.000Z</time>
        <extensions>
          <ns3:TrackPointExtension>
            <ns3:hr>161</ns3:hr>
            <ns3:cad>92</ns3:cad>
          </ns3:TrackPointExtension>
        </extensions>
      </trkpt>
      <trkpt lat="43.84622993879020214080810546875" lon="4.27023994736373424530029296875">
        <ele>185.1999969482421875</ele>
        <time>2024-01-27T09:47:07.000Z</time>
        <extensions>
          <ns3:TrackPointExtension>
            <ns3:hr>160</ns3:hr>
            <ns3:cad>92</ns3:cad>
          </ns3:TrackPointExtension>
        </extensions>
      </trkpt>
      <trkpt lat="43.84622566401958465576171875" lon="4.27020549774169921875">
        <ele>185</ele>
        <time>2024-01-27T09:47:08.000Z</time>
        <extensions>
          <ns3:TrackPointExtension>
            <ns3:hr>160</ns3:hr>
            <ns3:cad>92</ns3:cad>
          </ns3:TrackPointExtension>
        </extensions>
      </trkpt>
      <trkpt lat="43.84621937759220600128173828125" lon="4.27016568370163440704345703125">
        <ele>185</ele>
        <time>2024-01-27T09:47:09.000Z</time>
        <extensions>
          <ns3:TrackPointExtension>
            <ns3:hr>160</ns3:hr>
            <ns3:cad>92</ns3:cad>
          </ns3:TrackPointExtension>
        </extensions>
      </trkpt>
      <trkpt lat="43.8462147675454616546630859375" lon="4.27012947387993335723876953125">
        <ele>184.8000030517578125</ele>
        <time>2024-01-27T09:47:10.000Z</time>
        <extensions>
          <ns3:TrackPointExtension>
            <ns3:hr>159</ns3:hr>
            <ns3:cad>92</ns3:cad>
          </ns3:TrackPointExtension>
        </extensions>
      </trkpt>
      <trkpt lat="43.84620915167033672332763671875" lon="4.27008236758410930633544921875">
        <ele>184.8000030517578125</ele>
        <time>2024-01-27T09:47:11.000Z</time>
        <extensions>
          <ns3:TrackPointExtension>
            <ns3:hr>158</ns3:hr>
            <ns3:cad>93</ns3:cad>
          </ns3:TrackPointExtension>
        </extensions>
      </trkpt>
      <trkpt lat="43.84620797820389270782470703125" lon="4.27005152218043804168701171875">
        <ele>184.8000030517578125</ele>
        <time>2024-01-27T09:47:12.000Z</time>
        <extensions>
          <ns3:TrackPointExtension>
            <ns3:hr>158</ns3:hr>
            <ns3:cad>93</ns3:cad>
          </ns3:TrackPointExtension>
        </extensions>
      </trkpt>
      <trkpt lat="43.84621032513678073883056640625" lon="4.27001564763486385345458984375">
        <ele>184.600006103515625</ele>
        <time>2024-01-27T09:47:13.000Z</time>
        <extensions>
          <ns3:TrackPointExtension>
            <ns3:hr>158</ns3:hr>
            <ns3:cad>93</ns3:cad>
          </ns3:TrackPointExtension>
        </extensions>
      </trkpt>
      <trkpt lat="43.84621451608836650848388671875" lon="4.26998346112668514251708984375">
        <ele>184.600006103515625</ele>
        <time>2024-01-27T09:47:14.000Z</time>
        <extensions>
          <ns3:TrackPointExtension>
            <ns3:hr>158</ns3:hr>
            <ns3:cad>93</ns3:cad>
          </ns3:TrackPointExtension>
        </extensions>
      </trkpt>
      <trkpt lat="43.8462238200008869171142578125" lon="4.26995001733303070068359375">
        <ele>184.399993896484375</ele>
        <time>2024-01-27T09:47:15.000Z</time>
        <extensions>
          <ns3:TrackPointExtension>
            <ns3:hr>158</ns3:hr>
            <ns3:cad>93</ns3:cad>
          </ns3:TrackPointExtension>
        </extensions>
      </trkpt>
      <trkpt lat="43.84623144753277301788330078125" lon="4.2699163220822811126708984375">
        <ele>184.600006103515625</ele>
        <time>2024-01-27T09:47:16.000Z</time>
        <extensions>
          <ns3:TrackPointExtension>
            <ns3:hr>158</ns3:hr>
            <ns3:cad>93</ns3:cad>
          </ns3:TrackPointExtension>
        </extensions>
      </trkpt>
      <trkpt lat="43.8462412543594837188720703125" lon="4.26988069899380207061767578125">
        <ele>184.600006103515625</ele>
        <time>2024-01-27T09:47:17.000Z</time>
        <extensions>
          <ns3:TrackPointExtension>
            <ns3:hr>158</ns3:hr>
            <ns3:cad>93</ns3:cad>
          </ns3:TrackPointExtension>
        </extensions>
      </trkpt>
      <trkpt lat="43.84624980390071868896484375" lon="4.2698514461517333984375">
        <ele>184.600006103515625</ele>
        <time>2024-01-27T09:47:18.000Z</time>
        <extensions>
          <ns3:TrackPointExtension>
            <ns3:hr>158</ns3:hr>
            <ns3:cad>93</ns3:cad>
          </ns3:TrackPointExtension>
        </extensions>
      </trkpt>
      <trkpt lat="43.846258856356143951416015625" lon="4.269822947680950164794921875">
        <ele>184.600006103515625</ele>
        <time>2024-01-27T09:47:19.000Z</time>
        <extensions>
          <ns3:TrackPointExtension>
            <ns3:hr>158</ns3:hr>
            <ns3:cad>92</ns3:cad>
          </ns3:TrackPointExtension>
        </extensions>
      </trkpt>
      <trkpt lat="43.84626463986933231353759765625" lon="4.26978749223053455352783203125">
        <ele>184.600006103515625</ele>
        <time>2024-01-27T09:47:20.000Z</time>
        <extensions>
          <ns3:TrackPointExtension>
            <ns3:hr>158</ns3:hr>
            <ns3:cad>92</ns3:cad>
          </ns3:TrackPointExtension>
        </extensions>
      </trkpt>
      <trkpt lat="43.84626782499253749847412109375" lon="4.26974910311400890350341796875">
        <ele>184.600006103515625</ele>
        <time>2024-01-27T09:47:21.000Z</time>
        <extensions>
          <ns3:TrackPointExtension>
            <ns3:hr>158</ns3:hr>
            <ns3:cad>91</ns3:cad>
          </ns3:TrackPointExtension>
        </extensions>
      </trkpt>
      <trkpt lat="43.846266902983188629150390625" lon="4.2697118036448955535888671875">
        <ele>184.600006103515625</ele>
        <time>2024-01-27T09:47:22.000Z</time>
        <extensions>
          <ns3:TrackPointExtension>
            <ns3:hr>159</ns3:hr>
            <ns3:cad>91</ns3:cad>
          </ns3:TrackPointExtension>
        </extensions>
      </trkpt>
      <trkpt lat="43.846266902983188629150390625" lon="4.269684813916683197021484375">
        <ele>184.600006103515625</ele>
        <time>2024-01-27T09:47:23.000Z</time>
        <extensions>
          <ns3:TrackPointExtension>
            <ns3:hr>159</ns3:hr>
            <ns3:cad>93</ns3:cad>
          </ns3:TrackPointExtension>
        </extensions>
      </trkpt>
      <trkpt lat="43.84626363404095172882080078125" lon="4.269651956856250762939453125">
        <ele>184.600006103515625</ele>
        <time>2024-01-27T09:47:24.000Z</time>
        <extensions>
          <ns3:TrackPointExtension>
            <ns3:hr>160</ns3:hr>
            <ns3:cad>93</ns3:cad>
          </ns3:TrackPointExtension>
        </extensions>
      </trkpt>
      <trkpt lat="43.84626363404095172882080078125" lon="4.2696162499487400054931640625">
        <ele>184.600006103515625</ele>
        <time>2024-01-27T09:47:25.000Z</time>
        <extensions>
          <ns3:TrackPointExtension>
            <ns3:hr>160</ns3:hr>
            <ns3:cad>93</ns3:cad>
          </ns3:TrackPointExtension>
        </extensions>
      </trkpt>
      <trkpt lat="43.8462617062032222747802734375" lon="4.269577525556087493896484375">
        <ele>184.600006103515625</ele>
        <time>2024-01-27T09:47:26.000Z</time>
        <extensions>
          <ns3:TrackPointExtension>
            <ns3:hr>160</ns3:hr>
            <ns3:cad>93</ns3:cad>
          </ns3:TrackPointExtension>
        </extensions>
      </trkpt>
      <trkpt lat="43.84625919163227081298828125" lon="4.26954844035208225250244140625">
        <ele>184.399993896484375</ele>
        <time>2024-01-27T09:47:27.000Z</time>
        <extensions>
          <ns3:TrackPointExtension>
            <ns3:hr>160</ns3:hr>
            <ns3:cad>92</ns3:cad>
          </ns3:TrackPointExtension>
        </extensions>
      </trkpt>
      <trkpt lat="43.8462546654045581817626953125" lon="4.26950611174106597900390625">
        <ele>184.399993896484375</ele>
        <time>2024-01-27T09:47:28.000Z</time>
        <extensions>
          <ns3:TrackPointExtension>
            <ns3:hr>159</ns3:hr>
            <ns3:cad>92</ns3:cad>
          </ns3:TrackPointExtension>
        </extensions>
      </trkpt>
      <trkpt lat="43.8462503068149089813232421875" lon="4.26947057247161865234375">
        <ele>184.399993896484375</ele>
        <time>2024-01-27T09:47:29.000Z</time>
        <extensions>
          <ns3:TrackPointExtension>
            <ns3:hr>159</ns3:hr>
            <ns3:cad>92</ns3:cad>
          </ns3:TrackPointExtension>
        </extensions>
      </trkpt>
      <trkpt lat="43.8462422601878643035888671875" lon="4.26942489109933376312255859375">
        <ele>184.399993896484375</ele>
        <time>2024-01-27T09:47:30.000Z</time>
        <extensions>
          <ns3:TrackPointExtension>
            <ns3:hr>159</ns3:hr>
            <ns3:cad>92</ns3:cad>
          </ns3:TrackPointExtension>
        </extensions>
      </trkpt>
      <trkpt lat="43.846236728131771087646484375" lon="4.26939136348664760589599609375">
        <ele>184.399993896484375</ele>
        <time>2024-01-27T09:47:31.000Z</time>
        <extensions>
          <ns3:TrackPointExtension>
            <ns3:hr>159</ns3:hr>
            <ns3:cad>92</ns3:cad>
          </ns3:TrackPointExtension>
        </extensions>
      </trkpt>
      <trkpt lat="43.846228681504726409912109375" lon="4.26935364492237567901611328125">
        <ele>184.399993896484375</ele>
        <time>2024-01-27T09:47:32.000Z</time>
        <extensions>
          <ns3:TrackPointExtension>
            <ns3:hr>159</ns3:hr>
            <ns3:cad>93</ns3:cad>
          </ns3:TrackPointExtension>
        </extensions>
      </trkpt>
      <trkpt lat="43.84622138924896717071533203125" lon="4.26932682283222675323486328125">
        <ele>184.399993896484375</ele>
        <time>2024-01-27T09:47:33.000Z</time>
        <extensions>
          <ns3:TrackPointExtension>
            <ns3:hr>157</ns3:hr>
            <ns3:cad>93</ns3:cad>
          </ns3:TrackPointExtension>
        </extensions>
      </trkpt>
      <trkpt lat="43.84621283970773220062255859375" lon="4.26929765380918979644775390625">
        <ele>184.399993896484375</ele>
        <time>2024-01-27T09:47:34.000Z</time>
        <extensions>
          <ns3:TrackPointExtension>
            <ns3:hr>154</ns3:hr>
            <ns3:cad>93</ns3:cad>
          </ns3:TrackPointExtension>
        </extensions>
      </trkpt>
      <trkpt lat="43.8462040387094020843505859375" lon="4.26926999352872371673583984375">
        <ele>184.399993896484375</ele>
        <time>2024-01-27T09:47:35.000Z</time>
        <extensions>
          <ns3:TrackPointExtension>
            <ns3:hr>152</ns3:hr>
            <ns3:cad>93</ns3:cad>
          </ns3:TrackPointExtension>
        </extensions>
      </trkpt>
      <trkpt lat="43.8461954891681671142578125" lon="4.26923747174441814422607421875">
        <ele>184.600006103515625</ele>
        <time>2024-01-27T09:47:36.000Z</time>
        <extensions>
          <ns3:TrackPointExtension>
            <ns3:hr>151</ns3:hr>
            <ns3:cad>92</ns3:cad>
          </ns3:TrackPointExtension>
        </extensions>
      </trkpt>
      <trkpt lat="43.8461859337985515594482421875" lon="4.26920838654041290283203125">
        <ele>184.600006103515625</ele>
        <time>2024-01-27T09:47:37.000Z</time>
        <extensions>
          <ns3:TrackPointExtension>
            <ns3:hr>151</ns3:hr>
            <ns3:cad>91</ns3:cad>
          </ns3:TrackPointExtension>
        </extensions>
      </trkpt>
      <trkpt lat="43.84617629460990428924560546875" lon="4.26918114535510540008544921875">
        <ele>184.8000030517578125</ele>
        <time>2024-01-27T09:47:38.000Z</time>
        <extensions>
          <ns3:TrackPointExtension>
            <ns3:hr>151</ns3:hr>
            <ns3:cad>91</ns3:cad>
          </ns3:TrackPointExtension>
        </extensions>
      </trkpt>
      <trkpt lat="43.8461638055741786956787109375" lon="4.269150383770465850830078125">
        <ele>184.8000030517578125</ele>
        <time>2024-01-27T09:47:39.000Z</time>
        <extensions>
          <ns3:TrackPointExtension>
            <ns3:hr>150</ns3:hr>
            <ns3:cad>92</ns3:cad>
          </ns3:TrackPointExtension>
        </extensions>
      </trkpt>
      <trkpt lat="43.84615064598619937896728515625" lon="4.26911978982388973236083984375">
        <ele>185</ele>
        <time>2024-01-27T09:47:40.000Z</time>
        <extensions>
          <ns3:TrackPointExtension>
            <ns3:hr>150</ns3:hr>
            <ns3:cad>94</ns3:cad>
          </ns3:TrackPointExtension>
        </extensions>
      </trkpt>
      <trkpt lat="43.84613505564630031585693359375" lon="4.26908475346863269805908203125">
        <ele>185</ele>
        <time>2024-01-27T09:47:41.000Z</time>
        <extensions>
          <ns3:TrackPointExtension>
            <ns3:hr>150</ns3:hr>
            <ns3:cad>94</ns3:cad>
          </ns3:TrackPointExtension>
        </extensions>
      </trkpt>
      <trkpt lat="43.84612348861992359161376953125" lon="4.269057847559452056884765625">
        <ele>185</ele>
        <time>2024-01-27T09:47:42.000Z</time>
        <extensions>
          <ns3:TrackPointExtension>
            <ns3:hr>150</ns3:hr>
            <ns3:cad>94</ns3:cad>
          </ns3:TrackPointExtension>
        </extensions>
      </trkpt>
      <trkpt lat="43.8461091555655002593994140625" lon="4.26902255974709987640380859375">
        <ele>185</ele>
        <time>2024-01-27T09:47:43.000Z</time>
        <extensions>
          <ns3:TrackPointExtension>
            <ns3:hr>150</ns3:hr>
            <ns3:cad>93</ns3:cad>
          </ns3:TrackPointExtension>
        </extensions>
      </trkpt>
      <trkpt lat="43.84610018692910671234130859375" lon="4.26899439655244350433349609375">
        <ele>185</ele>
        <time>2024-01-27T09:47:44.000Z</time>
        <extensions>
          <ns3:TrackPointExtension>
            <ns3:hr>150</ns3:hr>
            <ns3:cad>93</ns3:cad>
          </ns3:TrackPointExtension>
        </extensions>
      </trkpt>
      <trkpt lat="43.84609155356884002685546875" lon="4.268953911960124969482421875">
        <ele>185</ele>
        <time>2024-01-27T09:47:45.000Z</time>
        <extensions>
          <ns3:TrackPointExtension>
            <ns3:hr>150</ns3:hr>
            <ns3:cad>92</ns3:cad>
          </ns3:TrackPointExtension>
        </extensions>
      </trkpt>
      <trkpt lat="43.84608644060790538787841796875" lon="4.2689228989183902740478515625">
        <ele>185</ele>
        <time>2024-01-27T09:47:46.000Z</time>
        <extensions>
          <ns3:TrackPointExtension>
            <ns3:hr>150</ns3:hr>
            <ns3:cad>92</ns3:cad>
          </ns3:TrackPointExtension>
        </extensions>
      </trkpt>
      <trkpt lat="43.84608325548470020294189453125" lon="4.268884845077991485595703125">
        <ele>184.8000030517578125</ele>
        <time>2024-01-27T09:47:47.000Z</time>
        <extensions>
          <ns3:TrackPointExtension>
            <ns3:hr>150</ns3:hr>
            <ns3:cad>92</ns3:cad>
          </ns3:TrackPointExtension>
        </extensions>
      </trkpt>
      <trkpt lat="43.846078477799892425537109375" lon="4.26884922198951244354248046875">
        <ele>184.8000030517578125</ele>
        <time>2024-01-27T09:47:48.000Z</time>
        <extensions>
          <ns3:TrackPointExtension>
            <ns3:hr>150</ns3:hr>
            <ns3:cad>92</ns3:cad>
          </ns3:TrackPointExtension>
        </extensions>
      </trkpt>
      <trkpt lat="43.84607688523828983306884765625" lon="4.26880815066397190093994140625">
        <ele>184.8000030517578125</ele>
        <time>2024-01-27T09:47:49.000Z</time>
        <extensions>
          <ns3:TrackPointExtension>
            <ns3:hr>151</ns3:hr>
            <ns3:cad>92</ns3:cad>
          </ns3:TrackPointExtension>
        </extensions>
      </trkpt>
      <trkpt lat="43.846073448657989501953125" lon="4.2687743715941905975341796875">
        <ele>184.8000030517578125</ele>
        <time>2024-01-27T09:47:50.000Z</time>
        <extensions>
          <ns3:TrackPointExtension>
            <ns3:hr>151</ns3:hr>
            <ns3:cad>92</ns3:cad>
          </ns3:TrackPointExtension>
        </extensions>
      </trkpt>
      <trkpt lat="43.84607973508536815643310546875" lon="4.2687361501157283782958984375">
        <ele>184.8000030517578125</ele>
        <time>2024-01-27T09:47:51.000Z</time>
        <extensions>
          <ns3:TrackPointExtension>
            <ns3:hr>152</ns3:hr>
            <ns3:cad>93</ns3:cad>
          </ns3:TrackPointExtension>
        </extensions>
      </trkpt>
      <trkpt lat="43.8460830040276050567626953125" lon="4.2686975933611392974853515625">
        <ele>184.600006103515625</ele>
        <time>2024-01-27T09:47:52.000Z</time>
        <extensions>
          <ns3:TrackPointExtension>
            <ns3:hr>153</ns3:hr>
            <ns3:cad>93</ns3:cad>
          </ns3:TrackPointExtension>
        </extensions>
      </trkpt>
      <trkpt lat="43.8460882008075714111328125" lon="4.26865677349269390106201171875">
        <ele>184.600006103515625</ele>
        <time>2024-01-27T09:47:53.000Z</time>
        <extensions>
          <ns3:TrackPointExtension>
            <ns3:hr>153</ns3:hr>
            <ns3:cad>93</ns3:cad>
          </ns3:TrackPointExtension>
        </extensions>
      </trkpt>
      <trkpt lat="43.84609230794012546539306640625" lon="4.26861788146197795867919921875">
        <ele>184.8000030517578125</ele>
        <time>2024-01-27T09:47:54.000Z</time>
        <extensions>
          <ns3:TrackPointExtension>
            <ns3:hr>154</ns3:hr>
            <ns3:cad>93</ns3:cad>
          </ns3:TrackPointExtension>
        </extensions>
      </trkpt>
      <trkpt lat="43.84609758853912353515625" lon="4.268579743802547454833984375">
        <ele>184.8000030517578125</ele>
        <time>2024-01-27T09:47:55.000Z</time>
        <extensions>
          <ns3:TrackPointExtension>
            <ns3:hr>155</ns3:hr>
            <ns3:cad>93</ns3:cad>
          </ns3:TrackPointExtension>
        </extensions>
      </trkpt>
      <trkpt lat="43.8460930623114109039306640625" lon="4.26853741519153118133544921875">
        <ele>184.8000030517578125</ele>
        <time>2024-01-27T09:47:56.000Z</time>
        <extensions>
          <ns3:TrackPointExtension>
            <ns3:hr>155</ns3:hr>
            <ns3:cad>93</ns3:cad>
          </ns3:TrackPointExtension>
        </extensions>
      </trkpt>
      <trkpt lat="43.84609314613044261932373046875" lon="4.2684970982372760772705078125">
        <ele>184.8000030517578125</ele>
        <time>2024-01-27T09:47:57.000Z</time>
        <extensions>
          <ns3:TrackPointExtension>
            <ns3:hr>155</ns3:hr>
            <ns3:cad>93</ns3:cad>
          </ns3:TrackPointExtension>
        </extensions>
      </trkpt>
      <trkpt lat="43.8460913859307765960693359375" lon="4.26845996640622615814208984375">
        <ele>184.8000030517578125</ele>
        <time>2024-01-27T09:47:58.000Z</time>
        <extensions>
          <ns3:TrackPointExtension>
            <ns3:hr>156</ns3:hr>
            <ns3:cad>92</ns3:cad>
          </ns3:TrackPointExtension>
        </extensions>
      </trkpt>
      <trkpt lat="43.84609281085431575775146484375" lon="4.2684213258326053619384765625">
        <ele>184.600006103515625</ele>
        <time>2024-01-27T09:47:59.000Z</time>
        <extensions>
          <ns3:TrackPointExtension>
            <ns3:hr>156</ns3:hr>
            <ns3:cad>91</ns3:cad>
          </ns3:TrackPointExtension>
        </extensions>
      </trkpt>
      <trkpt lat="43.8460917212069034576416015625" lon="4.26838494837284088134765625">
        <ele>184.600006103515625</ele>
        <time>2024-01-27T09:48:00.000Z</time>
        <extensions>
          <ns3:TrackPointExtension>
            <ns3:hr>156</ns3:hr>
            <ns3:cad>90</ns3:cad>
          </ns3:TrackPointExtension>
        </extensions>
      </trkpt>
      <trkpt lat="43.846093229949474334716796875" lon="4.26834496669471263885498046875">
        <ele>184.600006103515625</ele>
        <time>2024-01-27T09:48:01.000Z</time>
        <extensions>
          <ns3:TrackPointExtension>
            <ns3:hr>157</ns3:hr>
            <ns3:cad>89</ns3:cad>
          </ns3:TrackPointExtension>
        </extensions>
      </trkpt>
      <trkpt lat="43.84609096683561801910400390625" lon="4.26831177435815334320068359375">
        <ele>184.600006103515625</ele>
        <time>2024-01-27T09:48:02.000Z</time>
        <extensions>
          <ns3:TrackPointExtension>
            <ns3:hr>157</ns3:hr>
            <ns3:cad>89</ns3:cad>
          </ns3:TrackPointExtension>
        </extensions>
      </trkpt>
      <trkpt lat="43.84609029628336429595947265625" lon="4.268271625041961669921875">
        <ele>184.399993896484375</ele>
        <time>2024-01-27T09:48:03.000Z</time>
        <extensions>
          <ns3:TrackPointExtension>
            <ns3:hr>159</ns3:hr>
            <ns3:cad>88</ns3:cad>
          </ns3:TrackPointExtension>
        </extensions>
      </trkpt>
      <trkpt lat="43.8460866920650005340576171875" lon="4.2682359181344509124755859375">
        <ele>184.399993896484375</ele>
        <time>2024-01-27T09:48:04.000Z</time>
        <extensions>
          <ns3:TrackPointExtension>
            <ns3:hr>159</ns3:hr>
            <ns3:cad>88</ns3:cad>
          </ns3:TrackPointExtension>
        </extensions>
      </trkpt>
      <trkpt lat="43.8460873626172542572021484375" lon="4.26819912157952785491943359375">
        <ele>184.399993896484375</ele>
        <time>2024-01-27T09:48:05.000Z</time>
        <extensions>
          <ns3:TrackPointExtension>
            <ns3:hr>160</ns3:hr>
            <ns3:cad>88</ns3:cad>
          </ns3:TrackPointExtension>
        </extensions>
      </trkpt>
      <trkpt lat="43.84609230794012546539306640625" lon="4.26816894672811031341552734375">
        <ele>184.399993896484375</ele>
        <time>2024-01-27T09:48:06.000Z</time>
        <extensions>
          <ns3:TrackPointExtension>
            <ns3:hr>161</ns3:hr>
            <ns3:cad>89</ns3:cad>
          </ns3:TrackPointExtension>
        </extensions>
      </trkpt>
      <trkpt lat="43.8460957445204257965087890625" lon="4.26813290454447269439697265625">
        <ele>184.1999969482421875</ele>
        <time>2024-01-27T09:48:07.000Z</time>
        <extensions>
          <ns3:TrackPointExtension>
            <ns3:hr>161</ns3:hr>
            <ns3:cad>89</ns3:cad>
          </ns3:TrackPointExtension>
        </extensions>
      </trkpt>
      <trkpt lat="43.8460987620055675506591796875" lon="4.268103651702404022216796875">
        <ele>184.1999969482421875</ele>
        <time>2024-01-27T09:48:08.000Z</time>
        <extensions>
          <ns3:TrackPointExtension>
            <ns3:hr>161</ns3:hr>
            <ns3:cad>89</ns3:cad>
          </ns3:TrackPointExtension>
        </extensions>
      </trkpt>
      <trkpt lat="43.84610488079488277435302734375" lon="4.268065430223941802978515625">
        <ele>184.1999969482421875</ele>
        <time>2024-01-27T09:48:09.000Z</time>
        <extensions>
          <ns3:TrackPointExtension>
            <ns3:hr>161</ns3:hr>
            <ns3:cad>90</ns3:cad>
          </ns3:TrackPointExtension>
        </extensions>
      </trkpt>
      <trkpt lat="43.84610756300389766693115234375" lon="4.2680235207080841064453125">
        <ele>184.1999969482421875</ele>
        <time>2024-01-27T09:48:10.000Z</time>
        <extensions>
          <ns3:TrackPointExtension>
            <ns3:hr>161</ns3:hr>
            <ns3:cad>90</ns3:cad>
          </ns3:TrackPointExtension>
        </extensions>
      </trkpt>
      <trkpt lat="43.84611167013645172119140625" lon="4.2679832875728607177734375">
        <ele>184</ele>
        <time>2024-01-27T09:48:11.000Z</time>
        <extensions>
          <ns3:TrackPointExtension>
            <ns3:hr>161</ns3:hr>
            <ns3:cad>91</ns3:cad>
          </ns3:TrackPointExtension>
        </extensions>
      </trkpt>
      <trkpt lat="43.84611275978386402130126953125" lon="4.2679417133331298828125">
        <ele>184</ele>
        <time>2024-01-27T09:48:12.000Z</time>
        <extensions>
          <ns3:TrackPointExtension>
            <ns3:hr>161</ns3:hr>
            <ns3:cad>92</ns3:cad>
          </ns3:TrackPointExtension>
        </extensions>
      </trkpt>
      <trkpt lat="43.846114687621593475341796875" lon="4.26790676079690456390380859375">
        <ele>184</ele>
        <time>2024-01-27T09:48:13.000Z</time>
        <extensions>
          <ns3:TrackPointExtension>
            <ns3:hr>161</ns3:hr>
            <ns3:cad>92</ns3:cad>
          </ns3:TrackPointExtension>
        </extensions>
      </trkpt>
      <trkpt lat="43.8461141847074031829833984375" lon="4.26786652766168117523193359375">
        <ele>184</ele>
        <time>2024-01-27T09:48:14.000Z</time>
        <extensions>
          <ns3:TrackPointExtension>
            <ns3:hr>161</ns3:hr>
            <ns3:cad>92</ns3:cad>
          </ns3:TrackPointExtension>
        </extensions>
      </trkpt>
      <trkpt lat="43.8461145199835300445556640625" lon="4.2678344249725341796875">
        <ele>184</ele>
        <time>2024-01-27T09:48:15.000Z</time>
        <extensions>
          <ns3:TrackPointExtension>
            <ns3:hr>161</ns3:hr>
            <ns3:cad>92</ns3:cad>
          </ns3:TrackPointExtension>
        </extensions>
      </trkpt>
      <trkpt lat="43.8461131788790225982666015625" lon="4.26779461093246936798095703125">
        <ele>184</ele>
        <time>2024-01-27T09:48:16.000Z</time>
        <extensions>
          <ns3:TrackPointExtension>
            <ns3:hr>161</ns3:hr>
            <ns3:cad>92</ns3:cad>
          </ns3:TrackPointExtension>
        </extensions>
      </trkpt>
      <trkpt lat="43.8461118377745151519775390625" lon="4.2677608318626880645751953125">
        <ele>183.8000030517578125</ele>
        <time>2024-01-27T09:48:17.000Z</time>
        <extensions>
          <ns3:TrackPointExtension>
            <ns3:hr>161</ns3:hr>
            <ns3:cad>92</ns3:cad>
          </ns3:TrackPointExtension>
        </extensions>
      </trkpt>
      <trkpt lat="43.84611041285097599029541015625" lon="4.26771682687103748321533203125">
        <ele>183.8000030517578125</ele>
        <time>2024-01-27T09:48:18.000Z</time>
        <extensions>
          <ns3:TrackPointExtension>
            <ns3:hr>161</ns3:hr>
            <ns3:cad>92</ns3:cad>
          </ns3:TrackPointExtension>
        </extensions>
      </trkpt>
      <trkpt lat="43.8461091555655002593994140625" lon="4.2676840536296367645263671875">
        <ele>183.8000030517578125</ele>
        <time>2024-01-27T09:48:19.000Z</time>
        <extensions>
          <ns3:TrackPointExtension>
            <ns3:hr>161</ns3:hr>
            <ns3:cad>92</ns3:cad>
          </ns3:TrackPointExtension>
        </extensions>
      </trkpt>
      <trkpt lat="43.84610471315681934356689453125" lon="4.26764222793281078338623046875">
        <ele>183.8000030517578125</ele>
        <time>2024-01-27T09:48:20.000Z</time>
        <extensions>
          <ns3:TrackPointExtension>
            <ns3:hr>161</ns3:hr>
            <ns3:cad>92</ns3:cad>
          </ns3:TrackPointExtension>
        </extensions>
      </trkpt>
      <trkpt lat="43.84610085748136043548583984375" lon="4.26761381328105926513671875">
        <ele>184</ele>
        <time>2024-01-27T09:48:21.000Z</time>
        <extensions>
          <ns3:TrackPointExtension>
            <ns3:hr>161</ns3:hr>
            <ns3:cad>92</ns3:cad>
          </ns3:TrackPointExtension>
        </extensions>
      </trkpt>
      <trkpt lat="43.84609834291040897369384765625" lon="4.2675703950226306915283203125">
        <ele>184</ele>
        <time>2024-01-27T09:48:22.000Z</time>
        <extensions>
          <ns3:TrackPointExtension>
            <ns3:hr>161</ns3:hr>
            <ns3:cad>93</ns3:cad>
          </ns3:TrackPointExtension>
        </extensions>
      </trkpt>
      <trkpt lat="43.84609331376850605010986328125" lon="4.26753695122897624969482421875">
        <ele>184.1999969482421875</ele>
        <time>2024-01-27T09:48:23.000Z</time>
        <extensions>
          <ns3:TrackPointExtension>
            <ns3:hr>161</ns3:hr>
            <ns3:cad>93</ns3:cad>
          </ns3:TrackPointExtension>
        </extensions>
      </trkpt>
      <trkpt lat="43.8460903801023960113525390625" lon="4.26749805919826030731201171875">
        <ele>184.1999969482421875</ele>
        <time>2024-01-27T09:48:24.000Z</time>
        <extensions>
          <ns3:TrackPointExtension>
            <ns3:hr>161</ns3:hr>
            <ns3:cad>93</ns3:cad>
          </ns3:TrackPointExtension>
        </extensions>
      </trkpt>
      <trkpt lat="43.84608476422727108001708984375" lon="4.26746620796620845794677734375">
        <ele>184.1999969482421875</ele>
        <time>2024-01-27T09:48:25.000Z</time>
        <extensions>
          <ns3:TrackPointExtension>
            <ns3:hr>161</ns3:hr>
            <ns3:cad>93</ns3:cad>
          </ns3:TrackPointExtension>
        </extensions>
      </trkpt>
      <trkpt lat="43.84607906453311443328857421875" lon="4.26742999814450740814208984375">
        <ele>184.1999969482421875</ele>
        <time>2024-01-27T09:48:26.000Z</time>
        <extensions>
          <ns3:TrackPointExtension>
            <ns3:hr>161</ns3:hr>
            <ns3:cad>93</ns3:cad>
          </ns3:TrackPointExtension>
        </extensions>
      </trkpt>
      <trkpt lat="43.8460702635347843170166015625" lon="4.26739521324634552001953125">
        <ele>184.1999969482421875</ele>
        <time>2024-01-27T09:48:27.000Z</time>
        <extensions>
          <ns3:TrackPointExtension>
            <ns3:hr>161</ns3:hr>
            <ns3:cad>93</ns3:cad>
          </ns3:TrackPointExtension>
        </extensions>
      </trkpt>
      <trkpt lat="43.84606246836483478546142578125" lon="4.26736160181462764739990234375">
        <ele>184.1999969482421875</ele>
        <time>2024-01-27T09:48:28.000Z</time>
        <extensions>
          <ns3:TrackPointExtension>
            <ns3:hr>161</ns3:hr>
            <ns3:cad>93</ns3:cad>
          </ns3:TrackPointExtension>
        </extensions>
      </trkpt>
      <trkpt lat="43.846051655709743499755859375" lon="4.267330504953861236572265625">
        <ele>184.1999969482421875</ele>
        <time>2024-01-27T09:48:29.000Z</time>
        <extensions>
          <ns3:TrackPointExtension>
            <ns3:hr>161</ns3:hr>
            <ns3:cad>93</ns3:cad>
          </ns3:TrackPointExtension>
        </extensions>
      </trkpt>
      <trkpt lat="43.84603866375982761383056640625" lon="4.2672998271882534027099609375">
        <ele>184.1999969482421875</ele>
        <time>2024-01-27T09:48:30.000Z</time>
        <extensions>
          <ns3:TrackPointExtension>
            <ns3:hr>161</ns3:hr>
            <ns3:cad>93</ns3:cad>
          </ns3:TrackPointExtension>
        </extensions>
      </trkpt>
      <trkpt lat="43.84602374397218227386474609375" lon="4.2672753520309925079345703125">
        <ele>184.1999969482421875</ele>
        <time>2024-01-27T09:48:31.000Z</time>
        <extensions>
          <ns3:TrackPointExtension>
            <ns3:hr>161</ns3:hr>
            <ns3:cad>92</ns3:cad>
          </ns3:TrackPointExtension>
        </extensions>
      </trkpt>
      <trkpt lat="43.84600781835615634918212890625" lon="4.2672435007989406585693359375">
        <ele>184.1999969482421875</ele>
        <time>2024-01-27T09:48:32.000Z</time>
        <extensions>
          <ns3:TrackPointExtension>
            <ns3:hr>161</ns3:hr>
            <ns3:cad>92</ns3:cad>
          </ns3:TrackPointExtension>
        </extensions>
      </trkpt>
      <trkpt lat="43.845989294350147247314453125" lon="4.2672188580036163330078125">
        <ele>184.1999969482421875</ele>
        <time>2024-01-27T09:48:33.000Z</time>
        <extensions>
          <ns3:TrackPointExtension>
            <ns3:hr>161</ns3:hr>
            <ns3:cad>92</ns3:cad>
          </ns3:TrackPointExtension>
        </extensions>
      </trkpt>
      <trkpt lat="43.8459713570773601531982421875" lon="4.26719144918024539947509765625">
        <ele>184.1999969482421875</ele>
        <time>2024-01-27T09:48:34.000Z</time>
        <extensions>
          <ns3:TrackPointExtension>
            <ns3:hr>160</ns3:hr>
            <ns3:cad>91</ns3:cad>
          </ns3:TrackPointExtension>
        </extensions>
      </trkpt>
      <trkpt lat="43.84595082141458988189697265625" lon="4.26716278307139873504638671875">
        <ele>184</ele>
        <time>2024-01-27T09:48:35.000Z</time>
        <extensions>
          <ns3:TrackPointExtension>
            <ns3:hr>160</ns3:hr>
            <ns3:cad>90</ns3:cad>
          </ns3:TrackPointExtension>
        </extensions>
      </trkpt>
      <trkpt lat="43.84593196213245391845703125" lon="4.26713059656322002410888671875">
        <ele>184</ele>
        <time>2024-01-27T09:48:36.000Z</time>
        <extensions>
          <ns3:TrackPointExtension>
            <ns3:hr>160</ns3:hr>
            <ns3:cad>90</ns3:cad>
          </ns3:TrackPointExtension>
        </extensions>
      </trkpt>
      <trkpt lat="43.84591293521225452423095703125" lon="4.26709975115954875946044921875">
        <ele>183.8000030517578125</ele>
        <time>2024-01-27T09:48:37.000Z</time>
        <extensions>
          <ns3:TrackPointExtension>
            <ns3:hr>160</ns3:hr>
            <ns3:cad>90</ns3:cad>
          </ns3:TrackPointExtension>
        </extensions>
      </trkpt>
      <trkpt lat="43.84589751251041889190673828125" lon="4.267067648470401763916015625">
        <ele>183.600006103515625</ele>
        <time>2024-01-27T09:48:38.000Z</time>
        <extensions>
          <ns3:TrackPointExtension>
            <ns3:hr>160</ns3:hr>
            <ns3:cad>90</ns3:cad>
          </ns3:TrackPointExtension>
        </extensions>
      </trkpt>
      <trkpt lat="43.8458804972469806671142578125" lon="4.267037808895111083984375">
        <ele>183.399993896484375</ele>
        <time>2024-01-27T09:48:39.000Z</time>
        <extensions>
          <ns3:TrackPointExtension>
            <ns3:hr>160</ns3:hr>
            <ns3:cad>90</ns3:cad>
          </ns3:TrackPointExtension>
        </extensions>
      </trkpt>
      <trkpt lat="43.8458684273064136505126953125" lon="4.26700721494853496551513671875">
        <ele>183.399993896484375</ele>
        <time>2024-01-27T09:48:40.000Z</time>
        <extensions>
          <ns3:TrackPointExtension>
            <ns3:hr>160</ns3:hr>
            <ns3:cad>90</ns3:cad>
          </ns3:TrackPointExtension>
        </extensions>
      </trkpt>
      <trkpt lat="43.8458543457090854644775390625" lon="4.26697804592549800872802734375">
        <ele>183.1999969482421875</ele>
        <time>2024-01-27T09:48:41.000Z</time>
        <extensions>
          <ns3:TrackPointExtension>
            <ns3:hr>160</ns3:hr>
            <ns3:cad>90</ns3:cad>
          </ns3:TrackPointExtension>
        </extensions>
      </trkpt>
      <trkpt lat="43.84584001265466213226318359375" lon="4.2669410817325115203857421875">
        <ele>183.1999969482421875</ele>
        <time>2024-01-27T09:48:42.000Z</time>
        <extensions>
          <ns3:TrackPointExtension>
            <ns3:hr>160</ns3:hr>
            <ns3:cad>90</ns3:cad>
          </ns3:TrackPointExtension>
        </extensions>
      </trkpt>
      <trkpt lat="43.84582425467669963836669921875" lon="4.266906715929508209228515625">
        <ele>183</ele>
        <time>2024-01-27T09:48:43.000Z</time>
        <extensions>
          <ns3:TrackPointExtension>
            <ns3:hr>161</ns3:hr>
            <ns3:cad>89</ns3:cad>
          </ns3:TrackPointExtension>
        </extensions>
      </trkpt>
      <trkpt lat="43.84581084363162517547607421875" lon="4.266871511936187744140625">
        <ele>182.8000030517578125</ele>
        <time>2024-01-27T09:48:44.000Z</time>
        <extensions>
          <ns3:TrackPointExtension>
            <ns3:hr>161</ns3:hr>
            <ns3:cad>89</ns3:cad>
          </ns3:TrackPointExtension>
        </extensions>
      </trkpt>
      <trkpt lat="43.84579827077686786651611328125" lon="4.266838990151882171630859375">
        <ele>182.600006103515625</ele>
        <time>2024-01-27T09:48:45.000Z</time>
        <extensions>
          <ns3:TrackPointExtension>
            <ns3:hr>161</ns3:hr>
            <ns3:cad>89</ns3:cad>
          </ns3:TrackPointExtension>
        </extensions>
      </trkpt>
      <trkpt lat="43.845786787569522857666015625" lon="4.266803450882434844970703125">
        <ele>182.600006103515625</ele>
        <time>2024-01-27T09:48:46.000Z</time>
        <extensions>
          <ns3:TrackPointExtension>
            <ns3:hr>161</ns3:hr>
            <ns3:cad>89</ns3:cad>
          </ns3:TrackPointExtension>
        </extensions>
      </trkpt>
      <trkpt lat="43.845774717628955841064453125" lon="4.2667707614600658416748046875">
        <ele>182.399993896484375</ele>
        <time>2024-01-27T09:48:47.000Z</time>
        <extensions>
          <ns3:TrackPointExtension>
            <ns3:hr>161</ns3:hr>
            <ns3:cad>89</ns3:cad>
          </ns3:TrackPointExtension>
        </extensions>
      </trkpt>
      <trkpt lat="43.84576524607837200164794921875" lon="4.26673932932317256927490234375">
        <ele>182.1999969482421875</ele>
        <time>2024-01-27T09:48:48.000Z</time>
        <extensions>
          <ns3:TrackPointExtension>
            <ns3:hr>161</ns3:hr>
            <ns3:cad>89</ns3:cad>
          </ns3:TrackPointExtension>
        </extensions>
      </trkpt>
      <trkpt lat="43.84575200267136096954345703125" lon="4.266707897186279296875">
        <ele>182</ele>
        <time>2024-01-27T09:48:49.000Z</time>
        <extensions>
          <ns3:TrackPointExtension>
            <ns3:hr>161</ns3:hr>
            <ns3:cad>89</ns3:cad>
          </ns3:TrackPointExtension>
        </extensions>
      </trkpt>
      <trkpt lat="43.8457416929304599761962890625" lon="4.26667235791683197021484375">
        <ele>181.8000030517578125</ele>
        <time>2024-01-27T09:48:50.000Z</time>
        <extensions>
          <ns3:TrackPointExtension>
            <ns3:hr>161</ns3:hr>
            <ns3:cad>89</ns3:cad>
          </ns3:TrackPointExtension>
        </extensions>
      </trkpt>
      <trkpt lat="43.8457316346466541290283203125" lon="4.26664109341800212860107421875">
        <ele>181.8000030517578125</ele>
        <time>2024-01-27T09:48:51.000Z</time>
        <extensions>
          <ns3:TrackPointExtension>
            <ns3:hr>161</ns3:hr>
            <ns3:cad>89</ns3:cad>
          </ns3:TrackPointExtension>
        </extensions>
      </trkpt>
      <trkpt lat="43.84572115726768970489501953125" lon="4.2666054703295230865478515625">
        <ele>181.8000030517578125</ele>
        <time>2024-01-27T09:48:52.000Z</time>
        <extensions>
          <ns3:TrackPointExtension>
            <ns3:hr>161</ns3:hr>
            <ns3:cad>89</ns3:cad>
          </ns3:TrackPointExtension>
        </extensions>
      </trkpt>
      <trkpt lat="43.84571042843163013458251953125" lon="4.26657219417393207550048828125">
        <ele>181.600006103515625</ele>
        <time>2024-01-27T09:48:53.000Z</time>
        <extensions>
          <ns3:TrackPointExtension>
            <ns3:hr>161</ns3:hr>
            <ns3:cad>89</ns3:cad>
          </ns3:TrackPointExtension>
        </extensions>
      </trkpt>
      <trkpt lat="43.8457004539668560028076171875" lon="4.26653481088578701019287109375">
        <ele>181.399993896484375</ele>
        <time>2024-01-27T09:48:54.000Z</time>
        <extensions>
          <ns3:TrackPointExtension>
            <ns3:hr>161</ns3:hr>
            <ns3:cad>89</ns3:cad>
          </ns3:TrackPointExtension>
        </extensions>
      </trkpt>
      <trkpt lat="43.84569031186401844024658203125" lon="4.26650195382535457611083984375">
        <ele>181.399993896484375</ele>
        <time>2024-01-27T09:48:55.000Z</time>
        <extensions>
          <ns3:TrackPointExtension>
            <ns3:hr>161</ns3:hr>
            <ns3:cad>89</ns3:cad>
          </ns3:TrackPointExtension>
        </extensions>
      </trkpt>
      <trkpt lat="43.8456803373992443084716796875" lon="4.2664663307368755340576171875">
        <ele>181.1999969482421875</ele>
        <time>2024-01-27T09:48:56.000Z</time>
        <extensions>
          <ns3:TrackPointExtension>
            <ns3:hr>161</ns3:hr>
            <ns3:cad>89</ns3:cad>
          </ns3:TrackPointExtension>
        </extensions>
      </trkpt>
      <trkpt lat="43.84566969238221645355224609375" lon="4.2664314620196819305419921875">
        <ele>181</ele>
        <time>2024-01-27T09:48:57.000Z</time>
        <extensions>
          <ns3:TrackPointExtension>
            <ns3:hr>161</ns3:hr>
            <ns3:cad>89</ns3:cad>
          </ns3:TrackPointExtension>
        </extensions>
      </trkpt>
      <trkpt lat="43.8456598855555057525634765625" lon="4.266399443149566650390625">
        <ele>180.8000030517578125</ele>
        <time>2024-01-27T09:48:58.000Z</time>
        <extensions>
          <ns3:TrackPointExtension>
            <ns3:hr>161</ns3:hr>
            <ns3:cad>90</ns3:cad>
          </ns3:TrackPointExtension>
        </extensions>
      </trkpt>
      <trkpt lat="43.8456471450626850128173828125" lon="4.2663687653839588165283203125">
        <ele>180.600006103515625</ele>
        <time>2024-01-27T09:48:59.000Z</time>
        <extensions>
          <ns3:TrackPointExtension>
            <ns3:hr>161</ns3:hr>
            <ns3:cad>90</ns3:cad>
          </ns3:TrackPointExtension>
        </extensions>
      </trkpt>
      <trkpt lat="43.84563381783664226531982421875" lon="4.26633733324706554412841796875">
        <ele>180.600006103515625</ele>
        <time>2024-01-27T09:49:00.000Z</time>
        <extensions>
          <ns3:TrackPointExtension>
            <ns3:hr>160</ns3:hr>
            <ns3:cad>90</ns3:cad>
          </ns3:TrackPointExtension>
        </extensions>
      </trkpt>
      <trkpt lat="43.84562074206769466400146484375" lon="4.26631160080432891845703125">
        <ele>180.399993896484375</ele>
        <time>2024-01-27T09:49:01.000Z</time>
        <extensions>
          <ns3:TrackPointExtension>
            <ns3:hr>160</ns3:hr>
            <ns3:cad>90</ns3:cad>
          </ns3:TrackPointExtension>
        </extensions>
      </trkpt>
      <trkpt lat="43.84560649283230304718017578125" lon="4.26627949811518192291259765625">
        <ele>180.1999969482421875</ele>
        <time>2024-01-27T09:49:02.000Z</time>
        <extensions>
          <ns3:TrackPointExtension>
            <ns3:hr>160</ns3:hr>
            <ns3:cad>90</ns3:cad>
          </ns3:TrackPointExtension>
        </extensions>
      </trkpt>
      <trkpt lat="43.84558838792145252227783203125" lon="4.2662551067769527435302734375">
        <ele>180</ele>
        <time>2024-01-27T09:49:03.000Z</time>
        <extensions>
          <ns3:TrackPointExtension>
            <ns3:hr>160</ns3:hr>
            <ns3:cad>90</ns3:cad>
          </ns3:TrackPointExtension>
        </extensions>
      </trkpt>
      <trkpt lat="43.84556852281093597412109375" lon="4.26622250117361545562744140625">
        <ele>180</ele>
        <time>2024-01-27T09:49:04.000Z</time>
        <extensions>
          <ns3:TrackPointExtension>
            <ns3:hr>160</ns3:hr>
            <ns3:cad>89</ns3:cad>
          </ns3:TrackPointExtension>
        </extensions>
      </trkpt>
      <trkpt lat="43.84554748423397541046142578125" lon="4.26619936712086200714111328125">
        <ele>179.600006103515625</ele>
        <time>2024-01-27T09:49:05.000Z</time>
        <extensions>
          <ns3:TrackPointExtension>
            <ns3:hr>160</ns3:hr>
            <ns3:cad>89</ns3:cad>
          </ns3:TrackPointExtension>
        </extensions>
      </trkpt>
      <trkpt lat="43.8455261103808879852294921875" lon="4.26616416312754154205322265625">
        <ele>179.399993896484375</ele>
        <time>2024-01-27T09:49:06.000Z</time>
        <extensions>
          <ns3:TrackPointExtension>
            <ns3:hr>160</ns3:hr>
            <ns3:cad>88</ns3:cad>
          </ns3:TrackPointExtension>
        </extensions>
      </trkpt>
      <trkpt lat="43.845505826175212860107421875" lon="4.2661360837519168853759765625">
        <ele>179</ele>
        <time>2024-01-27T09:49:07.000Z</time>
        <extensions>
          <ns3:TrackPointExtension>
            <ns3:hr>159</ns3:hr>
            <ns3:cad>88</ns3:cad>
          </ns3:TrackPointExtension>
        </extensions>
      </trkpt>
      <trkpt lat="43.8454858772456645965576171875" lon="4.26610104739665985107421875">
        <ele>178.8000030517578125</ele>
        <time>2024-01-27T09:49:08.000Z</time>
        <extensions>
          <ns3:TrackPointExtension>
            <ns3:hr>158</ns3:hr>
            <ns3:cad>88</ns3:cad>
          </ns3:TrackPointExtension>
        </extensions>
      </trkpt>
      <trkpt lat="43.845470957458019256591796875" lon="4.2660774104297161102294921875">
        <ele>178.600006103515625</ele>
        <time>2024-01-27T09:49:09.000Z</time>
        <extensions>
          <ns3:TrackPointExtension>
            <ns3:hr>157</ns3:hr>
            <ns3:cad>88</ns3:cad>
          </ns3:TrackPointExtension>
        </extensions>
      </trkpt>
      <trkpt lat="43.8454525172710418701171875" lon="4.26604430191218852996826171875">
        <ele>178.399993896484375</ele>
        <time>2024-01-27T09:49:10.000Z</time>
        <extensions>
          <ns3:TrackPointExtension>
            <ns3:hr>157</ns3:hr>
            <ns3:cad>88</ns3:cad>
          </ns3:TrackPointExtension>
        </extensions>
      </trkpt>
      <trkpt lat="43.84543843567371368408203125" lon="4.26601915620267391204833984375">
        <ele>178.1999969482421875</ele>
        <time>2024-01-27T09:49:11.000Z</time>
        <extensions>
          <ns3:TrackPointExtension>
            <ns3:hr>157</ns3:hr>
            <ns3:cad>89</ns3:cad>
          </ns3:TrackPointExtension>
        </extensions>
      </trkpt>
      <trkpt lat="43.845415972173213958740234375" lon="4.26598378457129001617431640625">
        <ele>178</ele>
        <time>2024-01-27T09:49:12.000Z</time>
        <extensions>
          <ns3:TrackPointExtension>
            <ns3:hr>156</ns3:hr>
            <ns3:cad>89</ns3:cad>
          </ns3:TrackPointExtension>
        </extensions>
      </trkpt>
      <trkpt lat="43.84539862163364887237548828125" lon="4.26596081815659999847412109375">
        <ele>177.8000030517578125</ele>
        <time>2024-01-27T09:49:13.000Z</time>
        <extensions>
          <ns3:TrackPointExtension>
            <ns3:hr>156</ns3:hr>
            <ns3:cad>88</ns3:cad>
          </ns3:TrackPointExtension>
        </extensions>
      </trkpt>
      <trkpt lat="43.84537615813314914703369140625" lon="4.26593072712421417236328125">
        <ele>177.600006103515625</ele>
        <time>2024-01-27T09:49:14.000Z</time>
        <extensions>
          <ns3:TrackPointExtension>
            <ns3:hr>155</ns3:hr>
            <ns3:cad>88</ns3:cad>
          </ns3:TrackPointExtension>
        </extensions>
      </trkpt>
      <trkpt lat="43.84535335935652256011962890625" lon="4.26591639406979084014892578125">
        <ele>177.600006103515625</ele>
        <time>2024-01-27T09:49:15.000Z</time>
        <extensions>
          <ns3:TrackPointExtension>
            <ns3:hr>155</ns3:hr>
            <ns3:cad>88</ns3:cad>
          </ns3:TrackPointExtension>
        </extensions>
      </trkpt>
      <trkpt lat="43.84533056057989597320556640625" lon="4.26590030081570148468017578125">
        <ele>177.399993896484375</ele>
        <time>2024-01-27T09:49:16.000Z</time>
        <extensions>
          <ns3:TrackPointExtension>
            <ns3:hr>154</ns3:hr>
            <ns3:cad>89</ns3:cad>
          </ns3:TrackPointExtension>
        </extensions>
      </trkpt>
      <trkpt lat="43.84531279094517230987548828125" lon="4.265901558101177215576171875">
        <ele>177.399993896484375</ele>
        <time>2024-01-27T09:49:17.000Z</time>
        <extensions>
          <ns3:TrackPointExtension>
            <ns3:hr>153</ns3:hr>
            <ns3:cad>89</ns3:cad>
          </ns3:TrackPointExtension>
        </extensions>
      </trkpt>
      <trkpt lat="43.84529284201562404632568359375" lon="4.26589979790151119232177734375">
        <ele>177.1999969482421875</ele>
        <time>2024-01-27T09:49:18.000Z</time>
        <extensions>
          <ns3:TrackPointExtension>
            <ns3:hr>153</ns3:hr>
            <ns3:cad>89</ns3:cad>
          </ns3:TrackPointExtension>
        </extensions>
      </trkpt>
      <trkpt lat="43.84526945650577545166015625" lon="4.26591555587947368621826171875">
        <ele>177</ele>
        <time>2024-01-27T09:49:19.000Z</time>
        <extensions>
          <ns3:TrackPointExtension>
            <ns3:hr>153</ns3:hr>
            <ns3:cad>89</ns3:cad>
          </ns3:TrackPointExtension>
        </extensions>
      </trkpt>
      <trkpt lat="43.8452454842627048492431640625" lon="4.2659241892397403717041015625">
        <ele>176.8000030517578125</ele>
        <time>2024-01-27T09:49:20.000Z</time>
        <extensions>
          <ns3:TrackPointExtension>
            <ns3:hr>153</ns3:hr>
            <ns3:cad>88</ns3:cad>
          </ns3:TrackPointExtension>
        </extensions>
      </trkpt>
      <trkpt lat="43.8452189974486827850341796875" lon="4.26592997275292873382568359375">
        <ele>176.600006103515625</ele>
        <time>2024-01-27T09:49:21.000Z</time>
        <extensions>
          <ns3:TrackPointExtension>
            <ns3:hr>153</ns3:hr>
            <ns3:cad>88</ns3:cad>
          </ns3:TrackPointExtension>
        </extensions>
      </trkpt>
      <trkpt lat="43.84519410319626331329345703125" lon="4.2659285478293895721435546875">
        <ele>176.399993896484375</ele>
        <time>2024-01-27T09:49:22.000Z</time>
        <extensions>
          <ns3:TrackPointExtension>
            <ns3:hr>153</ns3:hr>
            <ns3:cad>88</ns3:cad>
          </ns3:TrackPointExtension>
        </extensions>
      </trkpt>
      <trkpt lat="43.8451680354773998260498046875" lon="4.2659231834113597869873046875">
        <ele>176.1999969482421875</ele>
        <time>2024-01-27T09:49:23.000Z</time>
        <extensions>
          <ns3:TrackPointExtension>
            <ns3:hr>153</ns3:hr>
            <ns3:cad>88</ns3:cad>
          </ns3:TrackPointExtension>
        </extensions>
      </trkpt>
      <trkpt lat="43.84514272212982177734375" lon="4.2659168131649494171142578125">
        <ele>176</ele>
        <time>2024-01-27T09:49:24.000Z</time>
        <extensions>
          <ns3:TrackPointExtension>
            <ns3:hr>152</ns3:hr>
            <ns3:cad>88</ns3:cad>
          </ns3:TrackPointExtension>
        </extensions>
      </trkpt>
      <trkpt lat="43.8451172411441802978515625" lon="4.26590683870017528533935546875">
        <ele>175.600006103515625</ele>
        <time>2024-01-27T09:49:25.000Z</time>
        <extensions>
          <ns3:TrackPointExtension>
            <ns3:hr>152</ns3:hr>
            <ns3:cad>88</ns3:cad>
          </ns3:TrackPointExtension>
        </extensions>
      </trkpt>
      <trkpt lat="43.8450882397592067718505859375" lon="4.2658966965973377227783203125">
        <ele>175.600006103515625</ele>
        <time>2024-01-27T09:49:26.000Z</time>
        <extensions>
          <ns3:TrackPointExtension>
            <ns3:hr>152</ns3:hr>
            <ns3:cad>88</ns3:cad>
          </ns3:TrackPointExtension>
        </extensions>
      </trkpt>
      <trkpt lat="43.84506317786872386932373046875" lon="4.26588336937129497528076171875">
        <ele>175.399993896484375</ele>
        <time>2024-01-27T09:49:27.000Z</time>
        <extensions>
          <ns3:TrackPointExtension>
            <ns3:hr>152</ns3:hr>
            <ns3:cad>90</ns3:cad>
          </ns3:TrackPointExtension>
        </extensions>
      </trkpt>
      <trkpt lat="43.845040462911128997802734375" lon="4.26587901078164577484130859375">
        <ele>175.1999969482421875</ele>
        <time>2024-01-27T09:49:28.000Z</time>
        <extensions>
          <ns3:TrackPointExtension>
            <ns3:hr>152</ns3:hr>
            <ns3:cad>90</ns3:cad>
          </ns3:TrackPointExtension>
        </extensions>
      </trkpt>
      <trkpt lat="43.84501623921096324920654296875" lon="4.26587431691586971282958984375">
        <ele>175.1999969482421875</ele>
        <time>2024-01-27T09:49:29.000Z</time>
        <extensions>
          <ns3:TrackPointExtension>
            <ns3:hr>152</ns3:hr>
            <ns3:cad>89</ns3:cad>
          </ns3:TrackPointExtension>
        </extensions>
      </trkpt>
      <trkpt lat="43.84499494917690753936767578125" lon="4.26587968133389949798583984375">
        <ele>175</ele>
        <time>2024-01-27T09:49:30.000Z</time>
        <extensions>
          <ns3:TrackPointExtension>
            <ns3:hr>152</ns3:hr>
            <ns3:cad>89</ns3:cad>
          </ns3:TrackPointExtension>
        </extensions>
      </trkpt>
      <trkpt lat="43.84496904909610748291015625" lon="4.265884123742580413818359375">
        <ele>174.8000030517578125</ele>
        <time>2024-01-27T09:49:31.000Z</time>
        <extensions>
          <ns3:TrackPointExtension>
            <ns3:hr>152</ns3:hr>
            <ns3:cad>88</ns3:cad>
          </ns3:TrackPointExtension>
        </extensions>
      </trkpt>
      <trkpt lat="43.844946585595607757568359375" lon="4.265889488160610198974609375">
        <ele>174.8000030517578125</ele>
        <time>2024-01-27T09:49:32.000Z</time>
        <extensions>
          <ns3:TrackPointExtension>
            <ns3:hr>152</ns3:hr>
            <ns3:cad>88</ns3:cad>
          </ns3:TrackPointExtension>
        </extensions>
      </trkpt>
      <trkpt lat="43.84492772631347179412841796875" lon="4.2658923380076885223388671875">
        <ele>174.600006103515625</ele>
        <time>2024-01-27T09:49:33.000Z</time>
        <extensions>
          <ns3:TrackPointExtension>
            <ns3:hr>152</ns3:hr>
            <ns3:cad>88</ns3:cad>
          </ns3:TrackPointExtension>
        </extensions>
      </trkpt>
      <trkpt lat="43.844911716878414154052734375" lon="4.2658963613212108612060546875">
        <ele>174.1999969482421875</ele>
        <time>2024-01-27T09:49:34.000Z</time>
        <extensions>
          <ns3:TrackPointExtension>
            <ns3:hr>152</ns3:hr>
            <ns3:cad>88</ns3:cad>
          </ns3:TrackPointExtension>
        </extensions>
      </trkpt>
      <trkpt lat="43.84490333497524261474609375" lon="4.2659034021198749542236328125">
        <ele>174.1999969482421875</ele>
        <time>2024-01-27T09:49:35.000Z</time>
        <extensions>
          <ns3:TrackPointExtension>
            <ns3:hr>152</ns3:hr>
            <ns3:cad>88</ns3:cad>
          </ns3:TrackPointExtension>
        </extensions>
      </trkpt>
      <trkpt lat="43.84489470161497592926025390625" lon="4.2659077607095241546630859375">
        <ele>173.8000030517578125</ele>
        <time>2024-01-27T09:49:36.000Z</time>
        <extensions>
          <ns3:TrackPointExtension>
            <ns3:hr>152</ns3:hr>
            <ns3:cad>88</ns3:cad>
          </ns3:TrackPointExtension>
        </extensions>
      </trkpt>
      <trkpt lat="43.84488648734986782073974609375" lon="4.2659104429185390472412109375">
        <ele>173.399993896484375</ele>
        <time>2024-01-27T09:49:37.000Z</time>
        <extensions>
          <ns3:TrackPointExtension>
            <ns3:hr>152</ns3:hr>
            <ns3:cad>88</ns3:cad>
          </ns3:TrackPointExtension>
        </extensions>
      </trkpt>
      <trkpt lat="43.8448793627321720123291015625" lon="4.26590926945209503173828125">
        <ele>173.399993896484375</ele>
        <time>2024-01-27T09:49:38.000Z</time>
        <extensions>
          <ns3:TrackPointExtension>
            <ns3:hr>152</ns3:hr>
            <ns3:cad>88</ns3:cad>
          </ns3:TrackPointExtension>
        </extensions>
      </trkpt>
      <trkpt lat="43.84487056173384189605712890625" lon="4.2659097723662853240966796875">
        <ele>173.1999969482421875</ele>
        <time>2024-01-27T09:49:39.000Z</time>
        <extensions>
          <ns3:TrackPointExtension>
            <ns3:hr>152</ns3:hr>
            <ns3:cad>88</ns3:cad>
          </ns3:TrackPointExtension>
        </extensions>
      </trkpt>
      <trkpt lat="43.844862096011638641357421875" lon="4.26591061055660247802734375">
        <ele>173.1999969482421875</ele>
        <time>2024-01-27T09:49:40.000Z</time>
        <extensions>
          <ns3:TrackPointExtension>
            <ns3:hr>152</ns3:hr>
            <ns3:cad>0</ns3:cad>
          </ns3:TrackPointExtension>
        </extensions>
      </trkpt>
      <trkpt lat="43.8448555581271648406982421875" lon="4.26591153256595134735107421875">
        <ele>173.1999969482421875</ele>
        <time>2024-01-27T09:49:41.000Z</time>
        <extensions>
          <ns3:TrackPointExtension>
            <ns3:hr>152</ns3:hr>
            <ns3:cad>0</ns3:cad>
          </ns3:TrackPointExtension>
        </extensions>
      </trkpt>
      <trkpt lat="43.8448454998433589935302734375" lon="4.26591195166110992431640625">
        <ele>173</ele>
        <time>2024-01-27T09:49:42.000Z</time>
        <extensions>
          <ns3:TrackPointExtension>
            <ns3:hr>152</ns3:hr>
            <ns3:cad>0</ns3:cad>
          </ns3:TrackPointExtension>
        </extensions>
      </trkpt>
      <trkpt lat="43.844834603369235992431640625" lon="4.26591287367045879364013671875">
        <ele>173</ele>
        <time>2024-01-27T09:49:43.000Z</time>
        <extensions>
          <ns3:TrackPointExtension>
            <ns3:hr>151</ns3:hr>
            <ns3:cad>59</ns3:cad>
          </ns3:TrackPointExtension>
        </extensions>
      </trkpt>
      <trkpt lat="43.8448243774473667144775390625" lon="4.2659126222133636474609375">
        <ele>173</ele>
        <time>2024-01-27T09:49:44.000Z</time>
        <extensions>
          <ns3:TrackPointExtension>
            <ns3:hr>151</ns3:hr>
            <ns3:cad>59</ns3:cad>
          </ns3:TrackPointExtension>
        </extensions>
      </trkpt>
      <trkpt lat="43.84481423534452915191650390625" lon="4.26590901799499988555908203125">
        <ele>173</ele>
        <time>2024-01-27T09:49:45.000Z</time>
        <extensions>
          <ns3:TrackPointExtension>
            <ns3:hr>150</ns3:hr>
            <ns3:cad>57</ns3:cad>
          </ns3:TrackPointExtension>
        </extensions>
      </trkpt>
      <trkpt lat="43.844804428517818450927734375" lon="4.26590516231954097747802734375">
        <ele>173</ele>
        <time>2024-01-27T09:49:46.000Z</time>
        <extensions>
          <ns3:TrackPointExtension>
            <ns3:hr>150</ns3:hr>
            <ns3:cad>57</ns3:cad>
          </ns3:TrackPointExtension>
        </extensions>
      </trkpt>
      <trkpt lat="43.84479596279561519622802734375" lon="4.26590097136795520782470703125">
        <ele>173</ele>
        <time>2024-01-27T09:49:47.000Z</time>
        <extensions>
          <ns3:TrackPointExtension>
            <ns3:hr>149</ns3:hr>
            <ns3:cad>56</ns3:cad>
          </ns3:TrackPointExtension>
        </extensions>
      </trkpt>
      <trkpt lat="43.84478808380663394927978515625" lon="4.26590180955827236175537109375">
        <ele>172.600006103515625</ele>
        <time>2024-01-27T09:49:48.000Z</time>
        <extensions>
          <ns3:TrackPointExtension>
            <ns3:hr>149</ns3:hr>
            <ns3:cad>55</ns3:cad>
          </ns3:TrackPointExtension>
        </extensions>
      </trkpt>
      <trkpt lat="43.84477995336055755615234375" lon="4.265900887548923492431640625">
        <ele>172.600006103515625</ele>
        <time>2024-01-27T09:49:49.000Z</time>
        <extensions>
          <ns3:TrackPointExtension>
            <ns3:hr>148</ns3:hr>
            <ns3:cad>55</ns3:cad>
          </ns3:TrackPointExtension>
        </extensions>
      </trkpt>
      <trkpt lat="43.844775259494781494140625" lon="4.2658992111682891845703125">
        <ele>172.399993896484375</ele>
        <time>2024-01-27T09:49:50.000Z</time>
        <extensions>
          <ns3:TrackPointExtension>
            <ns3:hr>148</ns3:hr>
            <ns3:cad>53</ns3:cad>
          </ns3:TrackPointExtension>
        </extensions>
      </trkpt>
      <trkpt lat="43.8447720743715763092041015625" lon="4.26589711569249629974365234375">
        <ele>172.399993896484375</ele>
        <time>2024-01-27T09:49:51.000Z</time>
        <extensions>
          <ns3:TrackPointExtension>
            <ns3:hr>147</ns3:hr>
            <ns3:cad>53</ns3:cad>
          </ns3:TrackPointExtension>
        </extensions>
      </trkpt>
      <trkpt lat="43.8447643630206584930419921875" lon="4.2658933438360691070556640625">
        <ele>172.399993896484375</ele>
        <time>2024-01-27T09:49:52.000Z</time>
        <extensions>
          <ns3:TrackPointExtension>
            <ns3:hr>147</ns3:hr>
            <ns3:cad>53</ns3:cad>
          </ns3:TrackPointExtension>
        </extensions>
      </trkpt>
      <trkpt lat="43.84474835358560085296630859375" lon="4.26588638685643672943115234375">
        <ele>172.1999969482421875</ele>
        <time>2024-01-27T09:49:53.000Z</time>
        <extensions>
          <ns3:TrackPointExtension>
            <ns3:hr>146</ns3:hr>
            <ns3:cad>51</ns3:cad>
          </ns3:TrackPointExtension>
        </extensions>
      </trkpt>
      <trkpt lat="43.8447328470647335052490234375" lon="4.2658817768096923828125">
        <ele>172.1999969482421875</ele>
        <time>2024-01-27T09:49:54.000Z</time>
        <extensions>
          <ns3:TrackPointExtension>
            <ns3:hr>146</ns3:hr>
            <ns3:cad>51</ns3:cad>
          </ns3:TrackPointExtension>
        </extensions>
      </trkpt>
      <trkpt lat="43.844704516232013702392578125" lon="4.2658728919923305511474609375">
        <ele>172</ele>
        <time>2024-01-27T09:49:55.000Z</time>
        <extensions>
          <ns3:TrackPointExtension>
            <ns3:hr>145</ns3:hr>
            <ns3:cad>51</ns3:cad>
          </ns3:TrackPointExtension>
        </extensions>
      </trkpt>
      <trkpt lat="43.8446818850934505462646484375" lon="4.2658643424510955810546875">
        <ele>172</ele>
        <time>2024-01-27T09:49:56.000Z</time>
        <extensions>
          <ns3:TrackPointExtension>
            <ns3:hr>145</ns3:hr>
            <ns3:cad>51</ns3:cad>
          </ns3:TrackPointExtension>
        </extensions>
      </trkpt>
      <trkpt lat="43.8446559011936187744140625" lon="4.26585872657597064971923828125">
        <ele>172</ele>
        <time>2024-01-27T09:49:57.000Z</time>
        <extensions>
          <ns3:TrackPointExtension>
            <ns3:hr>144</ns3:hr>
            <ns3:cad>85</ns3:cad>
          </ns3:TrackPointExtension>
        </extensions>
      </trkpt>
      <trkpt lat="43.844635784626007080078125" lon="4.26585830748081207275390625">
        <ele>172</ele>
        <time>2024-01-27T09:49:58.000Z</time>
        <extensions>
          <ns3:TrackPointExtension>
            <ns3:hr>144</ns3:hr>
            <ns3:cad>86</ns3:cad>
          </ns3:TrackPointExtension>
        </extensions>
      </trkpt>
      <trkpt lat="43.844611980020999908447265625" lon="4.26585939712822437286376953125">
        <ele>171.8000030517578125</ele>
        <time>2024-01-27T09:49:59.000Z</time>
        <extensions>
          <ns3:TrackPointExtension>
            <ns3:hr>144</ns3:hr>
            <ns3:cad>86</ns3:cad>
          </ns3:TrackPointExtension>
        </extensions>
      </trkpt>
      <trkpt lat="43.84458817541599273681640625" lon="4.26586191169917583465576171875">
        <ele>171.8000030517578125</ele>
        <time>2024-01-27T09:50:00.000Z</time>
        <extensions>
          <ns3:TrackPointExtension>
            <ns3:hr>144</ns3:hr>
            <ns3:cad>86</ns3:cad>
          </ns3:TrackPointExtension>
        </extensions>
      </trkpt>
      <trkpt lat="43.844560347497463226318359375" lon="4.26587129943072795867919921875">
        <ele>171.600006103515625</ele>
        <time>2024-01-27T09:50:01.000Z</time>
        <extensions>
          <ns3:TrackPointExtension>
            <ns3:hr>144</ns3:hr>
            <ns3:cad>89</ns3:cad>
          </ns3:TrackPointExtension>
        </extensions>
      </trkpt>
      <trkpt lat="43.8445336930453777313232421875" lon="4.26588110625743865966796875">
        <ele>171.600006103515625</ele>
        <time>2024-01-27T09:50:02.000Z</time>
        <extensions>
          <ns3:TrackPointExtension>
            <ns3:hr>144</ns3:hr>
            <ns3:cad>89</ns3:cad>
          </ns3:TrackPointExtension>
        </extensions>
      </trkpt>
      <trkpt lat="43.844511397182941436767578125" lon="4.26589183509349822998046875">
        <ele>171.399993896484375</ele>
        <time>2024-01-27T09:50:03.000Z</time>
        <extensions>
          <ns3:TrackPointExtension>
            <ns3:hr>144</ns3:hr>
            <ns3:cad>89</ns3:cad>
          </ns3:TrackPointExtension>
        </extensions>
      </trkpt>
      <trkpt lat="43.8444860838353633880615234375" lon="4.265900887548923492431640625">
        <ele>171.1999969482421875</ele>
        <time>2024-01-27T09:50:04.000Z</time>
        <extensions>
          <ns3:TrackPointExtension>
            <ns3:hr>144</ns3:hr>
            <ns3:cad>90</ns3:cad>
          </ns3:TrackPointExtension>
        </extensions>
      </trkpt>
      <trkpt lat="43.844461105763912200927734375" lon="4.2659126222133636474609375">
        <ele>171</ele>
        <time>2024-01-27T09:50:05.000Z</time>
        <extensions>
          <ns3:TrackPointExtension>
            <ns3:hr>145</ns3:hr>
            <ns3:cad>90</ns3:cad>
          </ns3:TrackPointExtension>
        </extensions>
      </trkpt>
      <trkpt lat="43.844436965882778167724609375" lon="4.26592108793556690216064453125">
        <ele>170.8000030517578125</ele>
        <time>2024-01-27T09:50:06.000Z</time>
        <extensions>
          <ns3:TrackPointExtension>
            <ns3:hr>145</ns3:hr>
            <ns3:cad>90</ns3:cad>
          </ns3:TrackPointExtension>
        </extensions>
      </trkpt>
      <trkpt lat="43.8444116525352001190185546875" lon="4.26593332551419734954833984375">
        <ele>170.600006103515625</ele>
        <time>2024-01-27T09:50:07.000Z</time>
        <extensions>
          <ns3:TrackPointExtension>
            <ns3:hr>145</ns3:hr>
            <ns3:cad>90</ns3:cad>
          </ns3:TrackPointExtension>
        </extensions>
      </trkpt>
      <trkpt lat="43.8443865068256855010986328125" lon="4.265942461788654327392578125">
        <ele>170.399993896484375</ele>
        <time>2024-01-27T09:50:08.000Z</time>
        <extensions>
          <ns3:TrackPointExtension>
            <ns3:hr>145</ns3:hr>
            <ns3:cad>90</ns3:cad>
          </ns3:TrackPointExtension>
        </extensions>
      </trkpt>
      <trkpt lat="43.84436395950615406036376953125" lon="4.26595344208180904388427734375">
        <ele>170</ele>
        <time>2024-01-27T09:50:09.000Z</time>
        <extensions>
          <ns3:TrackPointExtension>
            <ns3:hr>145</ns3:hr>
            <ns3:cad>90</ns3:cad>
          </ns3:TrackPointExtension>
        </extensions>
      </trkpt>
      <trkpt lat="43.8443394005298614501953125" lon="4.26596182398498058319091796875">
        <ele>169.8000030517578125</ele>
        <time>2024-01-27T09:50:10.000Z</time>
        <extensions>
          <ns3:TrackPointExtension>
            <ns3:hr>145</ns3:hr>
            <ns3:cad>90</ns3:cad>
          </ns3:TrackPointExtension>
        </extensions>
      </trkpt>
      <trkpt lat="43.844314254820346832275390625" lon="4.2659697867929935455322265625">
        <ele>169.8000030517578125</ele>
        <time>2024-01-27T09:50:11.000Z</time>
        <extensions>
          <ns3:TrackPointExtension>
            <ns3:hr>145</ns3:hr>
            <ns3:cad>90</ns3:cad>
          </ns3:TrackPointExtension>
        </extensions>
      </trkpt>
      <trkpt lat="43.844289444386959075927734375" lon="4.26597657613456249237060546875">
        <ele>169.399993896484375</ele>
        <time>2024-01-27T09:50:12.000Z</time>
        <extensions>
          <ns3:TrackPointExtension>
            <ns3:hr>145</ns3:hr>
            <ns3:cad>90</ns3:cad>
          </ns3:TrackPointExtension>
        </extensions>
      </trkpt>
      <trkpt lat="43.84426857344806194305419921875" lon="4.26598395220935344696044921875">
        <ele>169.1999969482421875</ele>
        <time>2024-01-27T09:50:13.000Z</time>
        <extensions>
          <ns3:TrackPointExtension>
            <ns3:hr>145</ns3:hr>
            <ns3:cad>89</ns3:cad>
          </ns3:TrackPointExtension>
        </extensions>
      </trkpt>
      <trkpt lat="43.8442463614046573638916015625" lon="4.26599266938865184783935546875">
        <ele>169</ele>
        <time>2024-01-27T09:50:14.000Z</time>
        <extensions>
          <ns3:TrackPointExtension>
            <ns3:hr>145</ns3:hr>
            <ns3:cad>89</ns3:cad>
          </ns3:TrackPointExtension>
        </extensions>
      </trkpt>
      <trkpt lat="43.84422683157026767730712890625" lon="4.2660016380250453948974609375">
        <ele>168.8000030517578125</ele>
        <time>2024-01-27T09:50:15.000Z</time>
        <extensions>
          <ns3:TrackPointExtension>
            <ns3:hr>145</ns3:hr>
            <ns3:cad>87</ns3:cad>
          </ns3:TrackPointExtension>
        </extensions>
      </trkpt>
      <trkpt lat="43.8442041166126728057861328125" lon="4.2660103552043437957763671875">
        <ele>168.600006103515625</ele>
        <time>2024-01-27T09:50:16.000Z</time>
        <extensions>
          <ns3:TrackPointExtension>
            <ns3:hr>145</ns3:hr>
            <ns3:cad>87</ns3:cad>
          </ns3:TrackPointExtension>
        </extensions>
      </trkpt>
      <trkpt lat="43.8441816531121730804443359375" lon="4.26601781509816646575927734375">
        <ele>168.1999969482421875</ele>
        <time>2024-01-27T09:50:17.000Z</time>
        <extensions>
          <ns3:TrackPointExtension>
            <ns3:hr>145</ns3:hr>
            <ns3:cad>87</ns3:cad>
          </ns3:TrackPointExtension>
        </extensions>
      </trkpt>
      <trkpt lat="43.84415877051651477813720703125" lon="4.266028292477130889892578125">
        <ele>168</ele>
        <time>2024-01-27T09:50:18.000Z</time>
        <extensions>
          <ns3:TrackPointExtension>
            <ns3:hr>145</ns3:hr>
            <ns3:cad>87</ns3:cad>
          </ns3:TrackPointExtension>
        </extensions>
      </trkpt>
      <trkpt lat="43.84413890540599822998046875" lon="4.26603541709482669830322265625">
        <ele>167.8000030517578125</ele>
        <time>2024-01-27T09:50:19.000Z</time>
        <extensions>
          <ns3:TrackPointExtension>
            <ns3:hr>145</ns3:hr>
            <ns3:cad>87</ns3:cad>
          </ns3:TrackPointExtension>
        </extensions>
      </trkpt>
      <trkpt lat="43.84412172250449657440185546875" lon="4.26604698412120342254638671875">
        <ele>167.600006103515625</ele>
        <time>2024-01-27T09:50:20.000Z</time>
        <extensions>
          <ns3:TrackPointExtension>
            <ns3:hr>146</ns3:hr>
            <ns3:cad>87</ns3:cad>
          </ns3:TrackPointExtension>
        </extensions>
      </trkpt>
      <trkpt lat="43.84410277940332889556884765625" lon="4.26605938933789730072021484375">
        <ele>167.399993896484375</ele>
        <time>2024-01-27T09:50:21.000Z</time>
        <extensions>
          <ns3:TrackPointExtension>
            <ns3:hr>147</ns3:hr>
            <ns3:cad>87</ns3:cad>
          </ns3:TrackPointExtension>
        </extensions>
      </trkpt>
      <trkpt lat="43.844078890979290008544921875" lon="4.2660737223923206329345703125">
        <ele>167.399993896484375</ele>
        <time>2024-01-27T09:50:22.000Z</time>
        <extensions>
          <ns3:TrackPointExtension>
            <ns3:hr>147</ns3:hr>
            <ns3:cad>87</ns3:cad>
          </ns3:TrackPointExtension>
        </extensions>
      </trkpt>
      <trkpt lat="43.844059444963932037353515625" lon="4.266083948314189910888671875">
        <ele>167.1999969482421875</ele>
        <time>2024-01-27T09:50:23.000Z</time>
        <extensions>
          <ns3:TrackPointExtension>
            <ns3:hr>147</ns3:hr>
            <ns3:cad>87</ns3:cad>
          </ns3:TrackPointExtension>
        </extensions>
      </trkpt>
      <trkpt lat="43.84403656236827373504638671875" lon="4.26609811373054981231689453125">
        <ele>166.8000030517578125</ele>
        <time>2024-01-27T09:50:24.000Z</time>
        <extensions>
          <ns3:TrackPointExtension>
            <ns3:hr>147</ns3:hr>
            <ns3:cad>87</ns3:cad>
          </ns3:TrackPointExtension>
        </extensions>
      </trkpt>
      <trkpt lat="43.84401627816259860992431640625" lon="4.2661075852811336517333984375">
        <ele>166.600006103515625</ele>
        <time>2024-01-27T09:50:25.000Z</time>
        <extensions>
          <ns3:TrackPointExtension>
            <ns3:hr>147</ns3:hr>
            <ns3:cad>87</ns3:cad>
          </ns3:TrackPointExtension>
        </extensions>
      </trkpt>
      <trkpt lat="43.84399331174790859222412109375" lon="4.266122169792652130126953125">
        <ele>166.600006103515625</ele>
        <time>2024-01-27T09:50:26.000Z</time>
        <extensions>
          <ns3:TrackPointExtension>
            <ns3:hr>147</ns3:hr>
            <ns3:cad>88</ns3:cad>
          </ns3:TrackPointExtension>
        </extensions>
      </trkpt>
      <trkpt lat="43.84397353045642375946044921875" lon="4.26613164134323596954345703125">
        <ele>166.399993896484375</ele>
        <time>2024-01-27T09:50:27.000Z</time>
        <extensions>
          <ns3:TrackPointExtension>
            <ns3:hr>147</ns3:hr>
            <ns3:cad>89</ns3:cad>
          </ns3:TrackPointExtension>
        </extensions>
      </trkpt>
      <trkpt lat="43.84394469670951366424560546875" lon="4.26614505238831043243408203125">
        <ele>166</ele>
        <time>2024-01-27T09:50:28.000Z</time>
        <extensions>
          <ns3:TrackPointExtension>
            <ns3:hr>147</ns3:hr>
            <ns3:cad>91</ns3:cad>
          </ns3:TrackPointExtension>
        </extensions>
      </trkpt>
      <trkpt lat="43.84392541833221912384033203125" lon="4.26615930162370204925537109375">
        <ele>165.8000030517578125</ele>
        <time>2024-01-27T09:50:29.000Z</time>
        <extensions>
          <ns3:TrackPointExtension>
            <ns3:hr>147</ns3:hr>
            <ns3:cad>91</ns3:cad>
          </ns3:TrackPointExtension>
        </extensions>
      </trkpt>
      <trkpt lat="43.8439033739268779754638671875" lon="4.26617774181067943572998046875">
        <ele>165.8000030517578125</ele>
        <time>2024-01-27T09:50:30.000Z</time>
        <extensions>
          <ns3:TrackPointExtension>
            <ns3:hr>147</ns3:hr>
            <ns3:cad>92</ns3:cad>
          </ns3:TrackPointExtension>
        </extensions>
      </trkpt>
      <trkpt lat="43.8438896276056766510009765625" lon="4.2661964334547519683837890625">
        <ele>165.399993896484375</ele>
        <time>2024-01-27T09:50:31.000Z</time>
        <extensions>
          <ns3:TrackPointExtension>
            <ns3:hr>147</ns3:hr>
            <ns3:cad>92</ns3:cad>
          </ns3:TrackPointExtension>
        </extensions>
      </trkpt>
      <trkpt lat="43.8438731990754604339599609375" lon="4.26621881313621997833251953125">
        <ele>165.1999969482421875</ele>
        <time>2024-01-27T09:50:32.000Z</time>
        <extensions>
          <ns3:TrackPointExtension>
            <ns3:hr>147</ns3:hr>
            <ns3:cad>92</ns3:cad>
          </ns3:TrackPointExtension>
        </extensions>
      </trkpt>
      <trkpt lat="43.843858949840068817138671875" lon="4.26624429412186145782470703125">
        <ele>165</ele>
        <time>2024-01-27T09:50:33.000Z</time>
        <extensions>
          <ns3:TrackPointExtension>
            <ns3:hr>147</ns3:hr>
            <ns3:cad>92</ns3:cad>
          </ns3:TrackPointExtension>
        </extensions>
      </trkpt>
      <trkpt lat="43.84383372031152248382568359375" lon="4.2662624828517436981201171875">
        <ele>164.8000030517578125</ele>
        <time>2024-01-27T09:50:34.000Z</time>
        <extensions>
          <ns3:TrackPointExtension>
            <ns3:hr>147</ns3:hr>
            <ns3:cad>92</ns3:cad>
          </ns3:TrackPointExtension>
        </extensions>
      </trkpt>
      <trkpt lat="43.84381008334457874298095703125" lon="4.2662765644490718841552734375">
        <ele>164.399993896484375</ele>
        <time>2024-01-27T09:50:35.000Z</time>
        <extensions>
          <ns3:TrackPointExtension>
            <ns3:hr>147</ns3:hr>
            <ns3:cad>92</ns3:cad>
          </ns3:TrackPointExtension>
        </extensions>
      </trkpt>
      <trkpt lat="43.84377722628414630889892578125" lon="4.26627798937261104583740234375">
        <ele>164</ele>
        <time>2024-01-27T09:50:36.000Z</time>
        <extensions>
          <ns3:TrackPointExtension>
            <ns3:hr>147</ns3:hr>
            <ns3:cad>91</ns3:cad>
          </ns3:TrackPointExtension>
        </extensions>
      </trkpt>
      <trkpt lat="43.84374470449984073638916015625" lon="4.266275726258754730224609375">
        <ele>163.600006103515625</ele>
        <time>2024-01-27T09:50:37.000Z</time>
        <extensions>
          <ns3:TrackPointExtension>
            <ns3:hr>147</ns3:hr>
            <ns3:cad>91</ns3:cad>
          </ns3:TrackPointExtension>
        </extensions>
      </trkpt>
      <trkpt lat="43.84370866231620311737060546875" lon="4.26626466214656829833984375">
        <ele>163.399993896484375</ele>
        <time>2024-01-27T09:50:38.000Z</time>
        <extensions>
          <ns3:TrackPointExtension>
            <ns3:hr>147</ns3:hr>
            <ns3:cad>93</ns3:cad>
          </ns3:TrackPointExtension>
        </extensions>
      </trkpt>
      <trkpt lat="43.84367798455059528350830078125" lon="4.26625728607177734375">
        <ele>163.399993896484375</ele>
        <time>2024-01-27T09:50:39.000Z</time>
        <extensions>
          <ns3:TrackPointExtension>
            <ns3:hr>147</ns3:hr>
            <ns3:cad>93</ns3:cad>
          </ns3:TrackPointExtension>
        </extensions>
      </trkpt>
      <trkpt lat="43.8436447083950042724609375" lon="4.266243539750576019287109375">
        <ele>163.1999969482421875</ele>
        <time>2024-01-27T09:50:40.000Z</time>
        <extensions>
          <ns3:TrackPointExtension>
            <ns3:hr>147</ns3:hr>
            <ns3:cad>89</ns3:cad>
          </ns3:TrackPointExtension>
        </extensions>
      </trkpt>
      <trkpt lat="43.84361721575260162353515625" lon="4.2662343196570873260498046875">
        <ele>163.1999969482421875</ele>
        <time>2024-01-27T09:50:41.000Z</time>
        <extensions>
          <ns3:TrackPointExtension>
            <ns3:hr>147</ns3:hr>
            <ns3:cad>88</ns3:cad>
          </ns3:TrackPointExtension>
        </extensions>
      </trkpt>
      <trkpt lat="43.84358896873891353607177734375" lon="4.26621529273688793182373046875">
        <ele>163</ele>
        <time>2024-01-27T09:50:42.000Z</time>
        <extensions>
          <ns3:TrackPointExtension>
            <ns3:hr>148</ns3:hr>
            <ns3:cad>88</ns3:cad>
          </ns3:TrackPointExtension>
        </extensions>
      </trkpt>
      <trkpt lat="43.84356516413390636444091796875" lon="4.2662007920444011688232421875">
        <ele>162.8000030517578125</ele>
        <time>2024-01-27T09:50:43.000Z</time>
        <extensions>
          <ns3:TrackPointExtension>
            <ns3:hr>148</ns3:hr>
            <ns3:cad>88</ns3:cad>
          </ns3:TrackPointExtension>
        </extensions>
      </trkpt>
      <trkpt lat="43.84353918023407459259033203125" lon="4.26618075929582118988037109375">
        <ele>162.600006103515625</ele>
        <time>2024-01-27T09:50:44.000Z</time>
        <extensions>
          <ns3:TrackPointExtension>
            <ns3:hr>148</ns3:hr>
            <ns3:cad>88</ns3:cad>
          </ns3:TrackPointExtension>
        </extensions>
      </trkpt>
      <trkpt lat="43.84351705200970172882080078125" lon="4.26616810262203216552734375">
        <ele>162.600006103515625</ele>
        <time>2024-01-27T09:50:45.000Z</time>
        <extensions>
          <ns3:TrackPointExtension>
            <ns3:hr>148</ns3:hr>
            <ns3:cad>88</ns3:cad>
          </ns3:TrackPointExtension>
        </extensions>
      </trkpt>
      <trkpt lat="43.84349291212856769561767578125" lon="4.26615343429148197174072265625">
        <ele>162.600006103515625</ele>
        <time>2024-01-27T09:50:46.000Z</time>
        <extensions>
          <ns3:TrackPointExtension>
            <ns3:hr>149</ns3:hr>
            <ns3:cad>89</ns3:cad>
          </ns3:TrackPointExtension>
        </extensions>
      </trkpt>
      <trkpt lat="43.8434730470180511474609375" lon="4.2661404423415660858154296875">
        <ele>162.600006103515625</ele>
        <time>2024-01-27T09:50:47.000Z</time>
        <extensions>
          <ns3:TrackPointExtension>
            <ns3:hr>149</ns3:hr>
            <ns3:cad>89</ns3:cad>
          </ns3:TrackPointExtension>
        </extensions>
      </trkpt>
      <trkpt lat="43.8434547744691371917724609375" lon="4.26612518727779388427734375">
        <ele>162.399993896484375</ele>
        <time>2024-01-27T09:50:48.000Z</time>
        <extensions>
          <ns3:TrackPointExtension>
            <ns3:hr>149</ns3:hr>
            <ns3:cad>89</ns3:cad>
          </ns3:TrackPointExtension>
        </extensions>
      </trkpt>
      <trkpt lat="43.84342988021671772003173828125" lon="4.26610683090984821319580078125">
        <ele>162.399993896484375</ele>
        <time>2024-01-27T09:50:49.000Z</time>
        <extensions>
          <ns3:TrackPointExtension>
            <ns3:hr>149</ns3:hr>
            <ns3:cad>90</ns3:cad>
          </ns3:TrackPointExtension>
        </extensions>
      </trkpt>
      <trkpt lat="43.843409679830074310302734375" lon="4.266090653836727142333984375">
        <ele>162.1999969482421875</ele>
        <time>2024-01-27T09:50:50.000Z</time>
        <extensions>
          <ns3:TrackPointExtension>
            <ns3:hr>149</ns3:hr>
            <ns3:cad>90</ns3:cad>
          </ns3:TrackPointExtension>
        </extensions>
      </trkpt>
      <trkpt lat="43.84338914416730403900146484375" lon="4.26607749424874782562255859375">
        <ele>162.1999969482421875</ele>
        <time>2024-01-27T09:50:51.000Z</time>
        <extensions>
          <ns3:TrackPointExtension>
            <ns3:hr>150</ns3:hr>
            <ns3:cad>90</ns3:cad>
          </ns3:TrackPointExtension>
        </extensions>
      </trkpt>
      <trkpt lat="43.8433729670941829681396484375" lon="4.26605955697596073150634765625">
        <ele>162</ele>
        <time>2024-01-27T09:50:52.000Z</time>
        <extensions>
          <ns3:TrackPointExtension>
            <ns3:hr>150</ns3:hr>
            <ns3:cad>91</ns3:cad>
          </ns3:TrackPointExtension>
        </extensions>
      </trkpt>
      <trkpt lat="43.84335645474493503570556640625" lon="4.26603692583739757537841796875">
        <ele>162</ele>
        <time>2024-01-27T09:50:53.000Z</time>
        <extensions>
          <ns3:TrackPointExtension>
            <ns3:hr>150</ns3:hr>
            <ns3:cad>91</ns3:cad>
          </ns3:TrackPointExtension>
        </extensions>
      </trkpt>
      <trkpt lat="43.843342624604701995849609375" lon="4.26601496525108814239501953125">
        <ele>162</ele>
        <time>2024-01-27T09:50:54.000Z</time>
        <extensions>
          <ns3:TrackPointExtension>
            <ns3:hr>150</ns3:hr>
            <ns3:cad>91</ns3:cad>
          </ns3:TrackPointExtension>
        </extensions>
      </trkpt>
      <trkpt lat="43.84332879446446895599365234375" lon="4.26599082536995410919189453125">
        <ele>162</ele>
        <time>2024-01-27T09:50:55.000Z</time>
        <extensions>
          <ns3:TrackPointExtension>
            <ns3:hr>151</ns3:hr>
            <ns3:cad>91</ns3:cad>
          </ns3:TrackPointExtension>
        </extensions>
      </trkpt>
      <trkpt lat="43.84331789799034595489501953125" lon="4.26596752367913722991943359375">
        <ele>162</ele>
        <time>2024-01-27T09:50:56.000Z</time>
        <extensions>
          <ns3:TrackPointExtension>
            <ns3:hr>151</ns3:hr>
            <ns3:cad>91</ns3:cad>
          </ns3:TrackPointExtension>
        </extensions>
      </trkpt>
      <trkpt lat="43.843307085335254669189453125" lon="4.26594455726444721221923828125">
        <ele>162</ele>
        <time>2024-01-27T09:50:57.000Z</time>
        <extensions>
          <ns3:TrackPointExtension>
            <ns3:hr>151</ns3:hr>
            <ns3:cad>91</ns3:cad>
          </ns3:TrackPointExtension>
        </extensions>
      </trkpt>
      <trkpt lat="43.8432985357940196990966796875" lon="4.265922009944915771484375">
        <ele>162</ele>
        <time>2024-01-27T09:50:58.000Z</time>
        <extensions>
          <ns3:TrackPointExtension>
            <ns3:hr>151</ns3:hr>
            <ns3:cad>93</ns3:cad>
          </ns3:TrackPointExtension>
        </extensions>
      </trkpt>
      <trkpt lat="43.84328973479568958282470703125" lon="4.26589560694992542266845703125">
        <ele>162.1999969482421875</ele>
        <time>2024-01-27T09:50:59.000Z</time>
        <extensions>
          <ns3:TrackPointExtension>
            <ns3:hr>151</ns3:hr>
            <ns3:cad>93</ns3:cad>
          </ns3:TrackPointExtension>
        </extensions>
      </trkpt>
      <trkpt lat="43.8432898186147212982177734375" lon="4.26586576737463474273681640625">
        <ele>162.1999969482421875</ele>
        <time>2024-01-27T09:51:00.000Z</time>
        <extensions>
          <ns3:TrackPointExtension>
            <ns3:hr>151</ns3:hr>
            <ns3:cad>93</ns3:cad>
          </ns3:TrackPointExtension>
        </extensions>
      </trkpt>
      <trkpt lat="43.8432851247489452362060546875" lon="4.265831820666790008544921875">
        <ele>162.399993896484375</ele>
        <time>2024-01-27T09:51:01.000Z</time>
        <extensions>
          <ns3:TrackPointExtension>
            <ns3:hr>151</ns3:hr>
            <ns3:cad>93</ns3:cad>
          </ns3:TrackPointExtension>
        </extensions>
      </trkpt>
      <trkpt lat="43.84327917359769344329833984375" lon="4.265798628330230712890625">
        <ele>162.399993896484375</ele>
        <time>2024-01-27T09:51:02.000Z</time>
        <extensions>
          <ns3:TrackPointExtension>
            <ns3:hr>151</ns3:hr>
            <ns3:cad>92</ns3:cad>
          </ns3:TrackPointExtension>
        </extensions>
      </trkpt>
      <trkpt lat="43.84327380917966365814208984375" lon="4.26576166413724422454833984375">
        <ele>162.600006103515625</ele>
        <time>2024-01-27T09:51:03.000Z</time>
        <extensions>
          <ns3:TrackPointExtension>
            <ns3:hr>151</ns3:hr>
            <ns3:cad>91</ns3:cad>
          </ns3:TrackPointExtension>
        </extensions>
      </trkpt>
      <trkpt lat="43.84326978586614131927490234375" lon="4.2657243646681308746337890625">
        <ele>162.600006103515625</ele>
        <time>2024-01-27T09:51:04.000Z</time>
        <extensions>
          <ns3:TrackPointExtension>
            <ns3:hr>151</ns3:hr>
            <ns3:cad>91</ns3:cad>
          </ns3:TrackPointExtension>
        </extensions>
      </trkpt>
      <trkpt lat="43.84326928295195102691650390625" lon="4.2656864784657955169677734375">
        <ele>162.8000030517578125</ele>
        <time>2024-01-27T09:51:05.000Z</time>
        <extensions>
          <ns3:TrackPointExtension>
            <ns3:hr>151</ns3:hr>
            <ns3:cad>93</ns3:cad>
          </ns3:TrackPointExtension>
        </extensions>
      </trkpt>
      <trkpt lat="43.84326978586614131927490234375" lon="4.2656475864350795745849609375">
        <ele>162.8000030517578125</ele>
        <time>2024-01-27T09:51:06.000Z</time>
        <extensions>
          <ns3:TrackPointExtension>
            <ns3:hr>151</ns3:hr>
            <ns3:cad>93</ns3:cad>
          </ns3:TrackPointExtension>
        </extensions>
      </trkpt>
      <trkpt lat="43.84327464736998081207275390625" lon="4.26561632193624973297119140625">
        <ele>162.8000030517578125</ele>
        <time>2024-01-27T09:51:07.000Z</time>
        <extensions>
          <ns3:TrackPointExtension>
            <ns3:hr>151</ns3:hr>
            <ns3:cad>93</ns3:cad>
          </ns3:TrackPointExtension>
        </extensions>
      </trkpt>
      <trkpt lat="43.843278922140598297119140625" lon="4.265573322772979736328125">
        <ele>163</ele>
        <time>2024-01-27T09:51:08.000Z</time>
        <extensions>
          <ns3:TrackPointExtension>
            <ns3:hr>151</ns3:hr>
            <ns3:cad>93</ns3:cad>
          </ns3:TrackPointExtension>
        </extensions>
      </trkpt>
      <trkpt lat="43.84328403510153293609619140625" lon="4.265541136264801025390625">
        <ele>163</ele>
        <time>2024-01-27T09:51:09.000Z</time>
        <extensions>
          <ns3:TrackPointExtension>
            <ns3:hr>151</ns3:hr>
            <ns3:cad>93</ns3:cad>
          </ns3:TrackPointExtension>
        </extensions>
      </trkpt>
      <trkpt lat="43.84329090826213359832763671875" lon="4.265499226748943328857421875">
        <ele>163</ele>
        <time>2024-01-27T09:51:10.000Z</time>
        <extensions>
          <ns3:TrackPointExtension>
            <ns3:hr>151</ns3:hr>
            <ns3:cad>93</ns3:cad>
          </ns3:TrackPointExtension>
        </extensions>
      </trkpt>
      <trkpt lat="43.84329828433692455291748046875" lon="4.26546192727982997894287109375">
        <ele>163</ele>
        <time>2024-01-27T09:51:11.000Z</time>
        <extensions>
          <ns3:TrackPointExtension>
            <ns3:hr>151</ns3:hr>
            <ns3:cad>93</ns3:cad>
          </ns3:TrackPointExtension>
        </extensions>
      </trkpt>
      <trkpt lat="43.84330482222139835357666015625" lon="4.26542839966714382171630859375">
        <ele>163</ele>
        <time>2024-01-27T09:51:12.000Z</time>
        <extensions>
          <ns3:TrackPointExtension>
            <ns3:hr>151</ns3:hr>
            <ns3:cad>93</ns3:cad>
          </ns3:TrackPointExtension>
        </extensions>
      </trkpt>
      <trkpt lat="43.8433095999062061309814453125" lon="4.26540425978600978851318359375">
        <ele>163</ele>
        <time>2024-01-27T09:51:13.000Z</time>
        <extensions>
          <ns3:TrackPointExtension>
            <ns3:hr>151</ns3:hr>
            <ns3:cad>93</ns3:cad>
          </ns3:TrackPointExtension>
        </extensions>
      </trkpt>
      <trkpt lat="43.843318484723567962646484375" lon="4.2653656192123889923095703125">
        <ele>163</ele>
        <time>2024-01-27T09:51:14.000Z</time>
        <extensions>
          <ns3:TrackPointExtension>
            <ns3:hr>151</ns3:hr>
            <ns3:cad>92</ns3:cad>
          </ns3:TrackPointExtension>
        </extensions>
      </trkpt>
      <trkpt lat="43.84332887828350067138671875" lon="4.26533217541873455047607421875">
        <ele>163</ele>
        <time>2024-01-27T09:51:15.000Z</time>
        <extensions>
          <ns3:TrackPointExtension>
            <ns3:hr>151</ns3:hr>
            <ns3:cad>92</ns3:cad>
          </ns3:TrackPointExtension>
        </extensions>
      </trkpt>
      <trkpt lat="43.84333960711956024169921875" lon="4.26529412157833576202392578125">
        <ele>163</ele>
        <time>2024-01-27T09:51:16.000Z</time>
        <extensions>
          <ns3:TrackPointExtension>
            <ns3:hr>152</ns3:hr>
            <ns3:cad>90</ns3:cad>
          </ns3:TrackPointExtension>
        </extensions>
      </trkpt>
      <trkpt lat="43.8433478213846683502197265625" lon="4.2652673833072185516357421875">
        <ele>163</ele>
        <time>2024-01-27T09:51:17.000Z</time>
        <extensions>
          <ns3:TrackPointExtension>
            <ns3:hr>151</ns3:hr>
            <ns3:cad>90</ns3:cad>
          </ns3:TrackPointExtension>
        </extensions>
      </trkpt>
      <trkpt lat="43.843354023993015289306640625" lon="4.26522958092391490936279296875">
        <ele>162.8000030517578125</ele>
        <time>2024-01-27T09:51:18.000Z</time>
        <extensions>
          <ns3:TrackPointExtension>
            <ns3:hr>152</ns3:hr>
            <ns3:cad>90</ns3:cad>
          </ns3:TrackPointExtension>
        </extensions>
      </trkpt>
      <trkpt lat="43.843360729515552520751953125" lon="4.265196807682514190673828125">
        <ele>162.600006103515625</ele>
        <time>2024-01-27T09:51:19.000Z</time>
        <extensions>
          <ns3:TrackPointExtension>
            <ns3:hr>152</ns3:hr>
            <ns3:cad>90</ns3:cad>
          </ns3:TrackPointExtension>
        </extensions>
      </trkpt>
      <trkpt lat="43.84336802177131175994873046875" lon="4.2651562392711639404296875">
        <ele>162.600006103515625</ele>
        <time>2024-01-27T09:51:20.000Z</time>
        <extensions>
          <ns3:TrackPointExtension>
            <ns3:hr>152</ns3:hr>
            <ns3:cad>90</ns3:cad>
          </ns3:TrackPointExtension>
        </extensions>
      </trkpt>
      <trkpt lat="43.84337405674159526824951171875" lon="4.2651245556771755218505859375">
        <ele>162.600006103515625</ele>
        <time>2024-01-27T09:51:21.000Z</time>
        <extensions>
          <ns3:TrackPointExtension>
            <ns3:hr>152</ns3:hr>
            <ns3:cad>90</ns3:cad>
          </ns3:TrackPointExtension>
        </extensions>
      </trkpt>
      <trkpt lat="43.84338227100670337677001953125" lon="4.2650792934000492095947265625">
        <ele>162.399993896484375</ele>
        <time>2024-01-27T09:51:22.000Z</time>
        <extensions>
          <ns3:TrackPointExtension>
            <ns3:hr>152</ns3:hr>
            <ns3:cad>91</ns3:cad>
          </ns3:TrackPointExtension>
        </extensions>
      </trkpt>
      <trkpt lat="43.84338947944343090057373046875" lon="4.265045933425426483154296875">
        <ele>162.399993896484375</ele>
        <time>2024-01-27T09:51:23.000Z</time>
        <extensions>
          <ns3:TrackPointExtension>
            <ns3:hr>152</ns3:hr>
            <ns3:cad>91</ns3:cad>
          </ns3:TrackPointExtension>
        </extensions>
      </trkpt>
      <trkpt lat="43.84340004064142704010009765625" lon="4.26501885987818241119384765625">
        <ele>162.399993896484375</ele>
        <time>2024-01-27T09:51:24.000Z</time>
        <extensions>
          <ns3:TrackPointExtension>
            <ns3:hr>152</ns3:hr>
            <ns3:cad>90</ns3:cad>
          </ns3:TrackPointExtension>
        </extensions>
      </trkpt>
      <trkpt lat="43.8434058241546154022216796875" lon="4.26499991677701473236083984375">
        <ele>162.1999969482421875</ele>
        <time>2024-01-27T09:51:25.000Z</time>
        <extensions>
          <ns3:TrackPointExtension>
            <ns3:hr>152</ns3:hr>
            <ns3:cad>89</ns3:cad>
          </ns3:TrackPointExtension>
        </extensions>
      </trkpt>
      <trkpt lat="43.8434068299829959869384765625" lon="4.26497393287718296051025390625">
        <ele>162</ele>
        <time>2024-01-27T09:51:26.000Z</time>
        <extensions>
          <ns3:TrackPointExtension>
            <ns3:hr>152</ns3:hr>
            <ns3:cad>89</ns3:cad>
          </ns3:TrackPointExtension>
        </extensions>
      </trkpt>
      <trkpt lat="43.843402974307537078857421875" lon="4.2649512179195880889892578125">
        <ele>161.600006103515625</ele>
        <time>2024-01-27T09:51:27.000Z</time>
        <extensions>
          <ns3:TrackPointExtension>
            <ns3:hr>151</ns3:hr>
            <ns3:cad>89</ns3:cad>
          </ns3:TrackPointExtension>
        </extensions>
      </trkpt>
      <trkpt lat="43.8434051536023616790771484375" lon="4.2649270780384540557861328125">
        <ele>161.600006103515625</ele>
        <time>2024-01-27T09:51:28.000Z</time>
        <extensions>
          <ns3:TrackPointExtension>
            <ns3:hr>151</ns3:hr>
            <ns3:cad>89</ns3:cad>
          </ns3:TrackPointExtension>
        </extensions>
      </trkpt>
      <trkpt lat="43.8434059917926788330078125" lon="4.26489849574863910675048828125">
        <ele>161.399993896484375</ele>
        <time>2024-01-27T09:51:29.000Z</time>
        <extensions>
          <ns3:TrackPointExtension>
            <ns3:hr>151</ns3:hr>
            <ns3:cad>89</ns3:cad>
          </ns3:TrackPointExtension>
        </extensions>
      </trkpt>
      <trkpt lat="43.84340657852590084075927734375" lon="4.2648573406040668487548828125">
        <ele>161.1999969482421875</ele>
        <time>2024-01-27T09:51:30.000Z</time>
        <extensions>
          <ns3:TrackPointExtension>
            <ns3:hr>151</ns3:hr>
            <ns3:cad>89</ns3:cad>
          </ns3:TrackPointExtension>
        </extensions>
      </trkpt>
      <trkpt lat="43.843410350382328033447265625" lon="4.2648234777152538299560546875">
        <ele>161.1999969482421875</ele>
        <time>2024-01-27T09:51:31.000Z</time>
        <extensions>
          <ns3:TrackPointExtension>
            <ns3:hr>151</ns3:hr>
            <ns3:cad>89</ns3:cad>
          </ns3:TrackPointExtension>
        </extensions>
      </trkpt>
      <trkpt lat="43.843417726457118988037109375" lon="4.26478399895131587982177734375">
        <ele>161</ele>
        <time>2024-01-27T09:51:32.000Z</time>
        <extensions>
          <ns3:TrackPointExtension>
            <ns3:hr>151</ns3:hr>
            <ns3:cad>90</ns3:cad>
          </ns3:TrackPointExtension>
        </extensions>
      </trkpt>
      <trkpt lat="43.8434252701699733734130859375" lon="4.26474309526383876800537109375">
        <ele>160.8000030517578125</ele>
        <time>2024-01-27T09:51:33.000Z</time>
        <extensions>
          <ns3:TrackPointExtension>
            <ns3:hr>151</ns3:hr>
            <ns3:cad>90</ns3:cad>
          </ns3:TrackPointExtension>
        </extensions>
      </trkpt>
      <trkpt lat="43.84343071840703487396240234375" lon="4.26470889709889888763427734375">
        <ele>160.600006103515625</ele>
        <time>2024-01-27T09:51:34.000Z</time>
        <extensions>
          <ns3:TrackPointExtension>
            <ns3:hr>151</ns3:hr>
            <ns3:cad>90</ns3:cad>
          </ns3:TrackPointExtension>
        </extensions>
      </trkpt>
      <trkpt lat="43.8434326462447643280029296875" lon="4.2646814882755279541015625">
        <ele>160.1999969482421875</ele>
        <time>2024-01-27T09:51:35.000Z</time>
        <extensions>
          <ns3:TrackPointExtension>
            <ns3:hr>151</ns3:hr>
            <ns3:cad>90</ns3:cad>
          </ns3:TrackPointExtension>
        </extensions>
      </trkpt>
      <trkpt lat="43.8434363342821598052978515625" lon="4.264638908207416534423828125">
        <ele>160</ele>
        <time>2024-01-27T09:51:36.000Z</time>
        <extensions>
          <ns3:TrackPointExtension>
            <ns3:hr>150</ns3:hr>
            <ns3:cad>90</ns3:cad>
          </ns3:TrackPointExtension>
        </extensions>
      </trkpt>
      <trkpt lat="43.84343826211988925933837890625" lon="4.26460496149957180023193359375">
        <ele>159.8000030517578125</ele>
        <time>2024-01-27T09:51:37.000Z</time>
        <extensions>
          <ns3:TrackPointExtension>
            <ns3:hr>149</ns3:hr>
            <ns3:cad>90</ns3:cad>
          </ns3:TrackPointExtension>
        </extensions>
      </trkpt>
      <trkpt lat="43.84344111196696758270263671875" lon="4.2645676620304584503173828125">
        <ele>159.399993896484375</ele>
        <time>2024-01-27T09:51:38.000Z</time>
        <extensions>
          <ns3:TrackPointExtension>
            <ns3:hr>148</ns3:hr>
            <ns3:cad>90</ns3:cad>
          </ns3:TrackPointExtension>
        </extensions>
      </trkpt>
      <trkpt lat="43.843442536890506744384765625" lon="4.26453195512294769287109375">
        <ele>159.1999969482421875</ele>
        <time>2024-01-27T09:51:39.000Z</time>
        <extensions>
          <ns3:TrackPointExtension>
            <ns3:hr>146</ns3:hr>
            <ns3:cad>90</ns3:cad>
          </ns3:TrackPointExtension>
        </extensions>
      </trkpt>
      <trkpt lat="43.84344312362372875213623046875" lon="4.2645123414695262908935546875">
        <ele>159</ele>
        <time>2024-01-27T09:51:40.000Z</time>
        <extensions>
          <ns3:TrackPointExtension>
            <ns3:hr>146</ns3:hr>
            <ns3:cad>90</ns3:cad>
          </ns3:TrackPointExtension>
        </extensions>
      </trkpt>
      <trkpt lat="43.84344178251922130584716796875" lon="4.26449331454932689666748046875">
        <ele>158.600006103515625</ele>
        <time>2024-01-27T09:51:41.000Z</time>
        <extensions>
          <ns3:TrackPointExtension>
            <ns3:hr>146</ns3:hr>
            <ns3:cad>89</ns3:cad>
          </ns3:TrackPointExtension>
        </extensions>
      </trkpt>
      <trkpt lat="43.84344362653791904449462890625" lon="4.2644727788865566253662109375">
        <ele>158.399993896484375</ele>
        <time>2024-01-27T09:51:42.000Z</time>
        <extensions>
          <ns3:TrackPointExtension>
            <ns3:hr>146</ns3:hr>
            <ns3:cad>89</ns3:cad>
          </ns3:TrackPointExtension>
        </extensions>
      </trkpt>
      <trkpt lat="43.8434467278420925140380859375" lon="4.264452159404754638671875">
        <ele>158.399993896484375</ele>
        <time>2024-01-27T09:51:43.000Z</time>
        <extensions>
          <ns3:TrackPointExtension>
            <ns3:hr>146</ns3:hr>
            <ns3:cad>89</ns3:cad>
          </ns3:TrackPointExtension>
        </extensions>
      </trkpt>
      <trkpt lat="43.8434497453272342681884765625" lon="4.26443271338939666748046875">
        <ele>158.399993896484375</ele>
        <time>2024-01-27T09:51:44.000Z</time>
        <extensions>
          <ns3:TrackPointExtension>
            <ns3:hr>146</ns3:hr>
            <ns3:cad>89</ns3:cad>
          </ns3:TrackPointExtension>
        </extensions>
      </trkpt>
      <trkpt lat="43.84345251135528087615966796875" lon="4.26441653631627559661865234375">
        <ele>158.399993896484375</ele>
        <time>2024-01-27T09:51:45.000Z</time>
        <extensions>
          <ns3:TrackPointExtension>
            <ns3:hr>146</ns3:hr>
            <ns3:cad>89</ns3:cad>
          </ns3:TrackPointExtension>
        </extensions>
      </trkpt>
      <trkpt lat="43.843454606831073760986328125" lon="4.26440278999507427215576171875">
        <ele>158.399993896484375</ele>
        <time>2024-01-27T09:51:46.000Z</time>
        <extensions>
          <ns3:TrackPointExtension>
            <ns3:hr>146</ns3:hr>
            <ns3:cad>89</ns3:cad>
          </ns3:TrackPointExtension>
        </extensions>
      </trkpt>
      <trkpt lat="43.84345703758299350738525390625" lon="4.264386110007762908935546875">
        <ele>158.399993896484375</ele>
        <time>2024-01-27T09:51:47.000Z</time>
        <extensions>
          <ns3:TrackPointExtension>
            <ns3:hr>147</ns3:hr>
            <ns3:cad>89</ns3:cad>
          </ns3:TrackPointExtension>
        </extensions>
      </trkpt>
      <trkpt lat="43.8434594683349132537841796875" lon="4.2643681727349758148193359375">
        <ele>158.1999969482421875</ele>
        <time>2024-01-27T09:51:48.000Z</time>
        <extensions>
          <ns3:TrackPointExtension>
            <ns3:hr>149</ns3:hr>
            <ns3:cad>61</ns3:cad>
          </ns3:TrackPointExtension>
        </extensions>
      </trkpt>
      <trkpt lat="43.84346290491521358489990234375" lon="4.2643483914434909820556640625">
        <ele>158.1999969482421875</ele>
        <time>2024-01-27T09:51:49.000Z</time>
        <extensions>
          <ns3:TrackPointExtension>
            <ns3:hr>151</ns3:hr>
            <ns3:cad>61</ns3:cad>
          </ns3:TrackPointExtension>
        </extensions>
      </trkpt>
      <trkpt lat="43.8434651680290699005126953125" lon="4.26432450301945209503173828125">
        <ele>158.1999969482421875</ele>
        <time>2024-01-27T09:51:50.000Z</time>
        <extensions>
          <ns3:TrackPointExtension>
            <ns3:hr>151</ns3:hr>
            <ns3:cad>61</ns3:cad>
          </ns3:TrackPointExtension>
        </extensions>
      </trkpt>
      <trkpt lat="43.84346835315227508544921875" lon="4.26430338062345981597900390625">
        <ele>158.1999969482421875</ele>
        <time>2024-01-27T09:51:51.000Z</time>
        <extensions>
          <ns3:TrackPointExtension>
            <ns3:hr>149</ns3:hr>
            <ns3:cad>61</ns3:cad>
          </ns3:TrackPointExtension>
        </extensions>
      </trkpt>
      <trkpt lat="43.84347011335194110870361328125" lon="4.26429298706352710723876953125">
        <ele>158.1999969482421875</ele>
        <time>2024-01-27T09:51:52.000Z</time>
        <extensions>
          <ns3:TrackPointExtension>
            <ns3:hr>145</ns3:hr>
            <ns3:cad>61</ns3:cad>
          </ns3:TrackPointExtension>
        </extensions>
      </trkpt>
      <trkpt lat="43.84346994571387767791748046875" lon="4.26427789963781833648681640625">
        <ele>158.1999969482421875</ele>
        <time>2024-01-27T09:51:53.000Z</time>
        <extensions>
          <ns3:TrackPointExtension>
            <ns3:hr>144</ns3:hr>
            <ns3:cad>60</ns3:cad>
          </ns3:TrackPointExtension>
        </extensions>
      </trkpt>
      <trkpt lat="43.8434708677232265472412109375" lon="4.26426700316369533538818359375">
        <ele>158.399993896484375</ele>
        <time>2024-01-27T09:51:54.000Z</time>
        <extensions>
          <ns3:TrackPointExtension>
            <ns3:hr>144</ns3:hr>
            <ns3:cad>60</ns3:cad>
          </ns3:TrackPointExtension>
        </extensions>
      </trkpt>
      <trkpt lat="43.84347329847514629364013671875" lon="4.26425476558506488800048828125">
        <ele>158.399993896484375</ele>
        <time>2024-01-27T09:51:55.000Z</time>
        <extensions>
          <ns3:TrackPointExtension>
            <ns3:hr>143</ns3:hr>
            <ns3:cad>60</ns3:cad>
          </ns3:TrackPointExtension>
        </extensions>
      </trkpt>
      <trkpt lat="43.8434688560664653778076171875" lon="4.26424227654933929443359375">
        <ele>158.399993896484375</ele>
        <time>2024-01-27T09:51:56.000Z</time>
        <extensions>
          <ns3:TrackPointExtension>
            <ns3:hr>142</ns3:hr>
            <ns3:cad>61</ns3:cad>
          </ns3:TrackPointExtension>
        </extensions>
      </trkpt>
      <trkpt lat="43.8434701971709728240966796875" lon="4.26421335898339748382568359375">
        <ele>158.399993896484375</ele>
        <time>2024-01-27T09:51:57.000Z</time>
        <extensions>
          <ns3:TrackPointExtension>
            <ns3:hr>140</ns3:hr>
            <ns3:cad>61</ns3:cad>
          </ns3:TrackPointExtension>
        </extensions>
      </trkpt>
      <trkpt lat="43.84346835315227508544921875" lon="4.2641934938728809356689453125">
        <ele>158.399993896484375</ele>
        <time>2024-01-27T09:51:58.000Z</time>
        <extensions>
          <ns3:TrackPointExtension>
            <ns3:hr>138</ns3:hr>
            <ns3:cad>62</ns3:cad>
          </ns3:TrackPointExtension>
        </extensions>
      </trkpt>
      <trkpt lat="43.84346927516162395477294921875" lon="4.264164157211780548095703125">
        <ele>158.399993896484375</ele>
        <time>2024-01-27T09:51:59.000Z</time>
        <extensions>
          <ns3:TrackPointExtension>
            <ns3:hr>138</ns3:hr>
            <ns3:cad>116</ns3:cad>
          </ns3:TrackPointExtension>
        </extensions>
      </trkpt>
      <trkpt lat="43.84346902370452880859375" lon="4.26413389854133129119873046875">
        <ele>158.600006103515625</ele>
        <time>2024-01-27T09:52:00.000Z</time>
        <extensions>
          <ns3:TrackPointExtension>
            <ns3:hr>137</ns3:hr>
            <ns3:cad>116</ns3:cad>
          </ns3:TrackPointExtension>
        </extensions>
      </trkpt>
      <trkpt lat="43.84346927516162395477294921875" lon="4.2641016282141208648681640625">
        <ele>158.600006103515625</ele>
        <time>2024-01-27T09:52:01.000Z</time>
        <extensions>
          <ns3:TrackPointExtension>
            <ns3:hr>137</ns3:hr>
            <ns3:cad>88</ns3:cad>
          </ns3:TrackPointExtension>
        </extensions>
      </trkpt>
      <trkpt lat="43.8434675149619579315185546875" lon="4.26406927406787872314453125">
        <ele>158.8000030517578125</ele>
        <time>2024-01-27T09:52:02.000Z</time>
        <extensions>
          <ns3:TrackPointExtension>
            <ns3:hr>136</ns3:hr>
            <ns3:cad>88</ns3:cad>
          </ns3:TrackPointExtension>
        </extensions>
      </trkpt>
      <trkpt lat="43.84346701204776763916015625" lon="4.2640365846455097198486328125">
        <ele>159</ele>
        <time>2024-01-27T09:52:03.000Z</time>
        <extensions>
          <ns3:TrackPointExtension>
            <ns3:hr>136</ns3:hr>
            <ns3:cad>89</ns3:cad>
          </ns3:TrackPointExtension>
        </extensions>
      </trkpt>
      <trkpt lat="43.843467347323894500732421875" lon="4.26400381140410900115966796875">
        <ele>159</ele>
        <time>2024-01-27T09:52:04.000Z</time>
        <extensions>
          <ns3:TrackPointExtension>
            <ns3:hr>136</ns3:hr>
            <ns3:cad>90</ns3:cad>
          </ns3:TrackPointExtension>
        </extensions>
      </trkpt>
      <trkpt lat="43.84346961043775081634521484375" lon="4.2639712058007717132568359375">
        <ele>159</ele>
        <time>2024-01-27T09:52:05.000Z</time>
        <extensions>
          <ns3:TrackPointExtension>
            <ns3:hr>135</ns3:hr>
            <ns3:cad>91</ns3:cad>
          </ns3:TrackPointExtension>
        </extensions>
      </trkpt>
      <trkpt lat="43.84346977807581424713134765625" lon="4.26393440924584865570068359375">
        <ele>159.1999969482421875</ele>
        <time>2024-01-27T09:52:06.000Z</time>
        <extensions>
          <ns3:TrackPointExtension>
            <ns3:hr>135</ns3:hr>
            <ns3:cad>91</ns3:cad>
          </ns3:TrackPointExtension>
        </extensions>
      </trkpt>
      <trkpt lat="43.8434675149619579315185546875" lon="4.2639088444411754608154296875">
        <ele>159.1999969482421875</ele>
        <time>2024-01-27T09:52:07.000Z</time>
        <extensions>
          <ns3:TrackPointExtension>
            <ns3:hr>134</ns3:hr>
            <ns3:cad>92</ns3:cad>
          </ns3:TrackPointExtension>
        </extensions>
      </trkpt>
      <trkpt lat="43.84346030652523040771484375" lon="4.263879843056201934814453125">
        <ele>159.399993896484375</ele>
        <time>2024-01-27T09:52:08.000Z</time>
        <extensions>
          <ns3:TrackPointExtension>
            <ns3:hr>134</ns3:hr>
            <ns3:cad>92</ns3:cad>
          </ns3:TrackPointExtension>
        </extensions>
      </trkpt>
      <trkpt lat="43.8434520922601222991943359375" lon="4.26385159604251384735107421875">
        <ele>159.399993896484375</ele>
        <time>2024-01-27T09:52:09.000Z</time>
        <extensions>
          <ns3:TrackPointExtension>
            <ns3:hr>134</ns3:hr>
            <ns3:cad>93</ns3:cad>
          </ns3:TrackPointExtension>
        </extensions>
      </trkpt>
      <trkpt lat="43.8434396870434284210205078125" lon="4.263826198875904083251953125">
        <ele>159.600006103515625</ele>
        <time>2024-01-27T09:52:10.000Z</time>
        <extensions>
          <ns3:TrackPointExtension>
            <ns3:hr>133</ns3:hr>
            <ns3:cad>93</ns3:cad>
          </ns3:TrackPointExtension>
        </extensions>
      </trkpt>
      <trkpt lat="43.8434262759983539581298828125" lon="4.2638124525547027587890625">
        <ele>160</ele>
        <time>2024-01-27T09:52:11.000Z</time>
        <extensions>
          <ns3:TrackPointExtension>
            <ns3:hr>133</ns3:hr>
            <ns3:cad>92</ns3:cad>
          </ns3:TrackPointExtension>
        </extensions>
      </trkpt>
      <trkpt lat="43.84341160766780376434326171875" lon="4.263798706233501434326171875">
        <ele>160.1999969482421875</ele>
        <time>2024-01-27T09:52:12.000Z</time>
        <extensions>
          <ns3:TrackPointExtension>
            <ns3:hr>133</ns3:hr>
            <ns3:cad>91</ns3:cad>
          </ns3:TrackPointExtension>
        </extensions>
      </trkpt>
      <trkpt lat="43.84339601732790470123291015625" lon="4.2637851275503635406494140625">
        <ele>160.399993896484375</ele>
        <time>2024-01-27T09:52:13.000Z</time>
        <extensions>
          <ns3:TrackPointExtension>
            <ns3:hr>133</ns3:hr>
            <ns3:cad>90</ns3:cad>
          </ns3:TrackPointExtension>
        </extensions>
      </trkpt>
      <trkpt lat="43.8433793373405933380126953125" lon="4.2637749016284942626953125">
        <ele>160.600006103515625</ele>
        <time>2024-01-27T09:52:14.000Z</time>
        <extensions>
          <ns3:TrackPointExtension>
            <ns3:hr>133</ns3:hr>
            <ns3:cad>90</ns3:cad>
          </ns3:TrackPointExtension>
        </extensions>
      </trkpt>
      <trkpt lat="43.843359053134918212890625" lon="4.26376308314502239227294921875">
        <ele>160.8000030517578125</ele>
        <time>2024-01-27T09:52:15.000Z</time>
        <extensions>
          <ns3:TrackPointExtension>
            <ns3:hr>133</ns3:hr>
            <ns3:cad>89</ns3:cad>
          </ns3:TrackPointExtension>
        </extensions>
      </trkpt>
      <trkpt lat="43.843348659574985504150390625" lon="4.2637641727924346923828125">
        <ele>161.1999969482421875</ele>
        <time>2024-01-27T09:52:16.000Z</time>
        <extensions>
          <ns3:TrackPointExtension>
            <ns3:hr>133</ns3:hr>
            <ns3:cad>88</ns3:cad>
          </ns3:TrackPointExtension>
        </extensions>
      </trkpt>
      <trkpt lat="43.84332946501672267913818359375" lon="4.26376350224018096923828125">
        <ele>161.600006103515625</ele>
        <time>2024-01-27T09:52:17.000Z</time>
        <extensions>
          <ns3:TrackPointExtension>
            <ns3:hr>134</ns3:hr>
            <ns3:cad>88</ns3:cad>
          </ns3:TrackPointExtension>
        </extensions>
      </trkpt>
      <trkpt lat="43.84331119246780872344970703125" lon="4.26377029158174991607666015625">
        <ele>162.1999969482421875</ele>
        <time>2024-01-27T09:52:18.000Z</time>
        <extensions>
          <ns3:TrackPointExtension>
            <ns3:hr>134</ns3:hr>
            <ns3:cad>88</ns3:cad>
          </ns3:TrackPointExtension>
        </extensions>
      </trkpt>
      <trkpt lat="43.84329744614660739898681640625" lon="4.2637894861400127410888671875">
        <ele>162.600006103515625</ele>
        <time>2024-01-27T09:52:19.000Z</time>
        <extensions>
          <ns3:TrackPointExtension>
            <ns3:hr>135</ns3:hr>
            <ns3:cad>88</ns3:cad>
          </ns3:TrackPointExtension>
        </extensions>
      </trkpt>
      <trkpt lat="43.84328671731054782867431640625" lon="4.26380641758441925048828125">
        <ele>162.8000030517578125</ele>
        <time>2024-01-27T09:52:20.000Z</time>
        <extensions>
          <ns3:TrackPointExtension>
            <ns3:hr>136</ns3:hr>
            <ns3:cad>88</ns3:cad>
          </ns3:TrackPointExtension>
        </extensions>
      </trkpt>
      <trkpt lat="43.84326777420938014984130859375" lon="4.26383919082581996917724609375">
        <ele>163.1999969482421875</ele>
        <time>2024-01-27T09:52:21.000Z</time>
        <extensions>
          <ns3:TrackPointExtension>
            <ns3:hr>136</ns3:hr>
            <ns3:cad>87</ns3:cad>
          </ns3:TrackPointExtension>
        </extensions>
      </trkpt>
      <trkpt lat="43.8432611525058746337890625" lon="4.2638639174401760101318359375">
        <ele>163.399993896484375</ele>
        <time>2024-01-27T09:52:22.000Z</time>
        <extensions>
          <ns3:TrackPointExtension>
            <ns3:hr>137</ns3:hr>
            <ns3:cad>87</ns3:cad>
          </ns3:TrackPointExtension>
        </extensions>
      </trkpt>
      <trkpt lat="43.8432485796511173248291015625" lon="4.26389685831964015960693359375">
        <ele>163.600006103515625</ele>
        <time>2024-01-27T09:52:23.000Z</time>
        <extensions>
          <ns3:TrackPointExtension>
            <ns3:hr>137</ns3:hr>
            <ns3:cad>88</ns3:cad>
          </ns3:TrackPointExtension>
        </extensions>
      </trkpt>
      <trkpt lat="43.843242041766643524169921875" lon="4.263921417295932769775390625">
        <ele>163.600006103515625</ele>
        <time>2024-01-27T09:52:24.000Z</time>
        <extensions>
          <ns3:TrackPointExtension>
            <ns3:hr>138</ns3:hr>
            <ns3:cad>89</ns3:cad>
          </ns3:TrackPointExtension>
        </extensions>
      </trkpt>
      <trkpt lat="43.8432344980537891387939453125" lon="4.26394714973866939544677734375">
        <ele>163.600006103515625</ele>
        <time>2024-01-27T09:52:25.000Z</time>
        <extensions>
          <ns3:TrackPointExtension>
            <ns3:hr>138</ns3:hr>
            <ns3:cad>90</ns3:cad>
          </ns3:TrackPointExtension>
        </extensions>
      </trkpt>
      <trkpt lat="43.8432262837886810302734375" lon="4.26397162489593029022216796875">
        <ele>163.600006103515625</ele>
        <time>2024-01-27T09:52:26.000Z</time>
        <extensions>
          <ns3:TrackPointExtension>
            <ns3:hr>138</ns3:hr>
            <ns3:cad>90</ns3:cad>
          </ns3:TrackPointExtension>
        </extensions>
      </trkpt>
      <trkpt lat="43.84321513585746288299560546875" lon="4.26400816999375820159912109375">
        <ele>163.8000030517578125</ele>
        <time>2024-01-27T09:52:27.000Z</time>
        <extensions>
          <ns3:TrackPointExtension>
            <ns3:hr>139</ns3:hr>
            <ns3:cad>90</ns3:cad>
          </ns3:TrackPointExtension>
        </extensions>
      </trkpt>
      <trkpt lat="43.8432076759636402130126953125" lon="4.26403172314167022705078125">
        <ele>163.8000030517578125</ele>
        <time>2024-01-27T09:52:28.000Z</time>
        <extensions>
          <ns3:TrackPointExtension>
            <ns3:hr>139</ns3:hr>
            <ns3:cad>90</ns3:cad>
          </ns3:TrackPointExtension>
        </extensions>
      </trkpt>
      <trkpt lat="43.84319988079369068145751953125" lon="4.26406080834567546844482421875">
        <ele>163.600006103515625</ele>
        <time>2024-01-27T09:52:29.000Z</time>
        <extensions>
          <ns3:TrackPointExtension>
            <ns3:hr>140</ns3:hr>
            <ns3:cad>90</ns3:cad>
          </ns3:TrackPointExtension>
        </extensions>
      </trkpt>
      <trkpt lat="43.84319250471889972686767578125" lon="4.2640838585793972015380859375">
        <ele>163.8000030517578125</ele>
        <time>2024-01-27T09:52:30.000Z</time>
        <extensions>
          <ns3:TrackPointExtension>
            <ns3:hr>140</ns3:hr>
            <ns3:cad>89</ns3:cad>
          </ns3:TrackPointExtension>
        </extensions>
      </trkpt>
      <trkpt lat="43.843182027339935302734375" lon="4.26411763764917850494384765625">
        <ele>163.8000030517578125</ele>
        <time>2024-01-27T09:52:31.000Z</time>
        <extensions>
          <ns3:TrackPointExtension>
            <ns3:hr>141</ns3:hr>
            <ns3:cad>89</ns3:cad>
          </ns3:TrackPointExtension>
        </extensions>
      </trkpt>
      <trkpt lat="43.84317557327449321746826171875" lon="4.26414462737739086151123046875">
        <ele>163.600006103515625</ele>
        <time>2024-01-27T09:52:32.000Z</time>
        <extensions>
          <ns3:TrackPointExtension>
            <ns3:hr>142</ns3:hr>
            <ns3:cad>89</ns3:cad>
          </ns3:TrackPointExtension>
        </extensions>
      </trkpt>
      <trkpt lat="43.84316551499068737030029296875" lon="4.26417765207588672637939453125">
        <ele>163.600006103515625</ele>
        <time>2024-01-27T09:52:33.000Z</time>
        <extensions>
          <ns3:TrackPointExtension>
            <ns3:hr>143</ns3:hr>
            <ns3:cad>89</ns3:cad>
          </ns3:TrackPointExtension>
        </extensions>
      </trkpt>
      <trkpt lat="43.8431547023355960845947265625" lon="4.26420816220343112945556640625">
        <ele>163.600006103515625</ele>
        <time>2024-01-27T09:52:34.000Z</time>
        <extensions>
          <ns3:TrackPointExtension>
            <ns3:hr>144</ns3:hr>
            <ns3:cad>89</ns3:cad>
          </ns3:TrackPointExtension>
        </extensions>
      </trkpt>
      <trkpt lat="43.8431417942047119140625" lon="4.264239929616451263427734375">
        <ele>163.399993896484375</ele>
        <time>2024-01-27T09:52:35.000Z</time>
        <extensions>
          <ns3:TrackPointExtension>
            <ns3:hr>145</ns3:hr>
            <ns3:cad>89</ns3:cad>
          </ns3:TrackPointExtension>
        </extensions>
      </trkpt>
      <trkpt lat="43.84313316084444522857666015625" lon="4.26426784135401248931884765625">
        <ele>163.399993896484375</ele>
        <time>2024-01-27T09:52:36.000Z</time>
        <extensions>
          <ns3:TrackPointExtension>
            <ns3:hr>145</ns3:hr>
            <ns3:cad>90</ns3:cad>
          </ns3:TrackPointExtension>
        </extensions>
      </trkpt>
      <trkpt lat="43.84312176145613193511962890625" lon="4.26429969258606433868408203125">
        <ele>163.1999969482421875</ele>
        <time>2024-01-27T09:52:37.000Z</time>
        <extensions>
          <ns3:TrackPointExtension>
            <ns3:hr>145</ns3:hr>
            <ns3:cad>90</ns3:cad>
          </ns3:TrackPointExtension>
        </extensions>
      </trkpt>
      <trkpt lat="43.8431111164391040802001953125" lon="4.2643286101520061492919921875">
        <ele>163.1999969482421875</ele>
        <time>2024-01-27T09:52:38.000Z</time>
        <extensions>
          <ns3:TrackPointExtension>
            <ns3:hr>145</ns3:hr>
            <ns3:cad>90</ns3:cad>
          </ns3:TrackPointExtension>
        </extensions>
      </trkpt>
      <trkpt lat="43.84309820830821990966796875" lon="4.2643651552498340606689453125">
        <ele>163.1999969482421875</ele>
        <time>2024-01-27T09:52:39.000Z</time>
        <extensions>
          <ns3:TrackPointExtension>
            <ns3:hr>145</ns3:hr>
            <ns3:cad>89</ns3:cad>
          </ns3:TrackPointExtension>
        </extensions>
      </trkpt>
      <trkpt lat="43.84309007786214351654052734375" lon="4.26439289934933185577392578125">
        <ele>163</ele>
        <time>2024-01-27T09:52:40.000Z</time>
        <extensions>
          <ns3:TrackPointExtension>
            <ns3:hr>145</ns3:hr>
            <ns3:cad>90</ns3:cad>
          </ns3:TrackPointExtension>
        </extensions>
      </trkpt>
      <trkpt lat="43.84307968430221080780029296875" lon="4.26442642696201801300048828125">
        <ele>162.8000030517578125</ele>
        <time>2024-01-27T09:52:41.000Z</time>
        <extensions>
          <ns3:TrackPointExtension>
            <ns3:hr>145</ns3:hr>
            <ns3:cad>89</ns3:cad>
          </ns3:TrackPointExtension>
        </extensions>
      </trkpt>
      <trkpt lat="43.84307205677032470703125" lon="4.2644540034234523773193359375">
        <ele>162.600006103515625</ele>
        <time>2024-01-27T09:52:42.000Z</time>
        <extensions>
          <ns3:TrackPointExtension>
            <ns3:hr>145</ns3:hr>
            <ns3:cad>89</ns3:cad>
          </ns3:TrackPointExtension>
        </extensions>
      </trkpt>
      <trkpt lat="43.84306342341005802154541015625" lon="4.2644895426928997039794921875">
        <ele>162.399993896484375</ele>
        <time>2024-01-27T09:52:43.000Z</time>
        <extensions>
          <ns3:TrackPointExtension>
            <ns3:hr>145</ns3:hr>
            <ns3:cad>89</ns3:cad>
          </ns3:TrackPointExtension>
        </extensions>
      </trkpt>
      <trkpt lat="43.84305671788752079010009765625" lon="4.26452030427753925323486328125">
        <ele>162.1999969482421875</ele>
        <time>2024-01-27T09:52:44.000Z</time>
        <extensions>
          <ns3:TrackPointExtension>
            <ns3:hr>145</ns3:hr>
            <ns3:cad>88</ns3:cad>
          </ns3:TrackPointExtension>
        </extensions>
      </trkpt>
      <trkpt lat="43.84304783307015895843505859375" lon="4.2645552568137645721435546875">
        <ele>162</ele>
        <time>2024-01-27T09:52:45.000Z</time>
        <extensions>
          <ns3:TrackPointExtension>
            <ns3:hr>145</ns3:hr>
            <ns3:cad>88</ns3:cad>
          </ns3:TrackPointExtension>
        </extensions>
      </trkpt>
      <trkpt lat="43.84304079227149486541748046875" lon="4.26458065398037433624267578125">
        <ele>161.8000030517578125</ele>
        <time>2024-01-27T09:52:46.000Z</time>
        <extensions>
          <ns3:TrackPointExtension>
            <ns3:hr>145</ns3:hr>
            <ns3:cad>88</ns3:cad>
          </ns3:TrackPointExtension>
        </extensions>
      </trkpt>
      <trkpt lat="43.84303375147283077239990234375" lon="4.26461384631693363189697265625">
        <ele>161.8000030517578125</ele>
        <time>2024-01-27T09:52:47.000Z</time>
        <extensions>
          <ns3:TrackPointExtension>
            <ns3:hr>145</ns3:hr>
            <ns3:cad>88</ns3:cad>
          </ns3:TrackPointExtension>
        </extensions>
      </trkpt>
      <trkpt lat="43.8430259563028812408447265625" lon="4.264644943177700042724609375">
        <ele>161.399993896484375</ele>
        <time>2024-01-27T09:52:48.000Z</time>
        <extensions>
          <ns3:TrackPointExtension>
            <ns3:hr>145</ns3:hr>
            <ns3:cad>89</ns3:cad>
          </ns3:TrackPointExtension>
        </extensions>
      </trkpt>
      <trkpt lat="43.8430175743997097015380859375" lon="4.2646826617419719696044921875">
        <ele>161.1999969482421875</ele>
        <time>2024-01-27T09:52:49.000Z</time>
        <extensions>
          <ns3:TrackPointExtension>
            <ns3:hr>145</ns3:hr>
            <ns3:cad>89</ns3:cad>
          </ns3:TrackPointExtension>
        </extensions>
      </trkpt>
      <trkpt lat="43.84300424717366695404052734375" lon="4.2647171951830387115478515625">
        <ele>161.1999969482421875</ele>
        <time>2024-01-27T09:52:50.000Z</time>
        <extensions>
          <ns3:TrackPointExtension>
            <ns3:hr>145</ns3:hr>
            <ns3:cad>89</ns3:cad>
          </ns3:TrackPointExtension>
        </extensions>
      </trkpt>
      <trkpt lat="43.842989243566989898681640625" lon="4.26475047133862972259521484375">
        <ele>161</ele>
        <time>2024-01-27T09:52:51.000Z</time>
        <extensions>
          <ns3:TrackPointExtension>
            <ns3:hr>145</ns3:hr>
            <ns3:cad>89</ns3:cad>
          </ns3:TrackPointExtension>
        </extensions>
      </trkpt>
      <trkpt lat="43.84296921081840991973876953125" lon="4.2647795565426349639892578125">
        <ele>160.600006103515625</ele>
        <time>2024-01-27T09:52:52.000Z</time>
        <extensions>
          <ns3:TrackPointExtension>
            <ns3:hr>145</ns3:hr>
            <ns3:cad>88</ns3:cad>
          </ns3:TrackPointExtension>
        </extensions>
      </trkpt>
      <trkpt lat="43.84294942952692508697509765625" lon="4.26481015048921108245849609375">
        <ele>160.399993896484375</ele>
        <time>2024-01-27T09:52:53.000Z</time>
        <extensions>
          <ns3:TrackPointExtension>
            <ns3:hr>145</ns3:hr>
            <ns3:cad>88</ns3:cad>
          </ns3:TrackPointExtension>
        </extensions>
      </trkpt>
      <trkpt lat="43.8429277203977108001708984375" lon="4.26483881659805774688720703125">
        <ele>160.1999969482421875</ele>
        <time>2024-01-27T09:52:54.000Z</time>
        <extensions>
          <ns3:TrackPointExtension>
            <ns3:hr>145</ns3:hr>
            <ns3:cad>88</ns3:cad>
          </ns3:TrackPointExtension>
        </extensions>
      </trkpt>
      <trkpt lat="43.842907436192035675048828125" lon="4.2648692429065704345703125">
        <ele>160.1999969482421875</ele>
        <time>2024-01-27T09:52:55.000Z</time>
        <extensions>
          <ns3:TrackPointExtension>
            <ns3:hr>145</ns3:hr>
            <ns3:cad>88</ns3:cad>
          </ns3:TrackPointExtension>
        </extensions>
      </trkpt>
      <trkpt lat="43.84288907982409000396728515625" lon="4.26489531062543392181396484375">
        <ele>160</ele>
        <time>2024-01-27T09:52:56.000Z</time>
        <extensions>
          <ns3:TrackPointExtension>
            <ns3:hr>145</ns3:hr>
            <ns3:cad>88</ns3:cad>
          </ns3:TrackPointExtension>
        </extensions>
      </trkpt>
      <trkpt lat="43.84286829270422458648681640625" lon="4.2649243958294391632080078125">
        <ele>159.8000030517578125</ele>
        <time>2024-01-27T09:52:57.000Z</time>
        <extensions>
          <ns3:TrackPointExtension>
            <ns3:hr>145</ns3:hr>
            <ns3:cad>89</ns3:cad>
          </ns3:TrackPointExtension>
        </extensions>
      </trkpt>
      <trkpt lat="43.8428492657840251922607421875" lon="4.2649512179195880889892578125">
        <ele>159.8000030517578125</ele>
        <time>2024-01-27T09:52:58.000Z</time>
        <extensions>
          <ns3:TrackPointExtension>
            <ns3:hr>145</ns3:hr>
            <ns3:cad>89</ns3:cad>
          </ns3:TrackPointExtension>
        </extensions>
      </trkpt>
      <trkpt lat="43.84283007122576236724853515625" lon="4.264982230961322784423828125">
        <ele>159.8000030517578125</ele>
        <time>2024-01-27T09:52:59.000Z</time>
        <extensions>
          <ns3:TrackPointExtension>
            <ns3:hr>145</ns3:hr>
            <ns3:cad>89</ns3:cad>
          </ns3:TrackPointExtension>
        </extensions>
      </trkpt>
      <trkpt lat="43.84281263686716556549072265625" lon="4.26500712521374225616455078125">
        <ele>159.600006103515625</ele>
        <time>2024-01-27T09:53:00.000Z</time>
        <extensions>
          <ns3:TrackPointExtension>
            <ns3:hr>145</ns3:hr>
            <ns3:cad>90</ns3:cad>
          </ns3:TrackPointExtension>
        </extensions>
      </trkpt>
      <trkpt lat="43.8427959568798542022705078125" lon="4.2650343663990497589111328125">
        <ele>159.600006103515625</ele>
        <time>2024-01-27T09:53:01.000Z</time>
        <extensions>
          <ns3:TrackPointExtension>
            <ns3:hr>145</ns3:hr>
            <ns3:cad>90</ns3:cad>
          </ns3:TrackPointExtension>
        </extensions>
      </trkpt>
      <trkpt lat="43.84277810342609882354736328125" lon="4.26505657844245433807373046875">
        <ele>159.8000030517578125</ele>
        <time>2024-01-27T09:53:02.000Z</time>
        <extensions>
          <ns3:TrackPointExtension>
            <ns3:hr>145</ns3:hr>
            <ns3:cad>90</ns3:cad>
          </ns3:TrackPointExtension>
        </extensions>
      </trkpt>
      <trkpt lat="43.84275312535464763641357421875" lon="4.26507920958101749420166015625">
        <ele>159.8000030517578125</ele>
        <time>2024-01-27T09:53:03.000Z</time>
        <extensions>
          <ns3:TrackPointExtension>
            <ns3:hr>145</ns3:hr>
            <ns3:cad>91</ns3:cad>
          </ns3:TrackPointExtension>
        </extensions>
      </trkpt>
      <trkpt lat="43.84273200295865535736083984375" lon="4.2650977335870265960693359375">
        <ele>159.8000030517578125</ele>
        <time>2024-01-27T09:53:04.000Z</time>
        <extensions>
          <ns3:TrackPointExtension>
            <ns3:hr>145</ns3:hr>
            <ns3:cad>91</ns3:cad>
          </ns3:TrackPointExtension>
        </extensions>
      </trkpt>
      <trkpt lat="43.84270501323044300079345703125" lon="4.2651213705539703369140625">
        <ele>159.8000030517578125</ele>
        <time>2024-01-27T09:53:05.000Z</time>
        <extensions>
          <ns3:TrackPointExtension>
            <ns3:hr>145</ns3:hr>
            <ns3:cad>91</ns3:cad>
          </ns3:TrackPointExtension>
        </extensions>
      </trkpt>
      <trkpt lat="43.84268221445381641387939453125" lon="4.265136457979679107666015625">
        <ele>160</ele>
        <time>2024-01-27T09:53:06.000Z</time>
        <extensions>
          <ns3:TrackPointExtension>
            <ns3:hr>145</ns3:hr>
            <ns3:cad>91</ns3:cad>
          </ns3:TrackPointExtension>
        </extensions>
      </trkpt>
      <trkpt lat="43.84265656583011150360107421875" lon="4.26515162922441959381103515625">
        <ele>160</ele>
        <time>2024-01-27T09:53:07.000Z</time>
        <extensions>
          <ns3:TrackPointExtension>
            <ns3:hr>145</ns3:hr>
            <ns3:cad>92</ns3:cad>
          </ns3:TrackPointExtension>
        </extensions>
      </trkpt>
      <trkpt lat="43.84263443760573863983154296875" lon="4.26516956649720668792724609375">
        <ele>160</ele>
        <time>2024-01-27T09:53:08.000Z</time>
        <extensions>
          <ns3:TrackPointExtension>
            <ns3:hr>145</ns3:hr>
            <ns3:cad>92</ns3:cad>
          </ns3:TrackPointExtension>
        </extensions>
      </trkpt>
      <trkpt lat="43.84261080063879489898681640625" lon="4.26518700085580348968505859375">
        <ele>160</ele>
        <time>2024-01-27T09:53:09.000Z</time>
        <extensions>
          <ns3:TrackPointExtension>
            <ns3:hr>145</ns3:hr>
            <ns3:cad>92</ns3:cad>
          </ns3:TrackPointExtension>
        </extensions>
      </trkpt>
      <trkpt lat="43.84259127080440521240234375" lon="4.26520527340471744537353515625">
        <ele>160</ele>
        <time>2024-01-27T09:53:10.000Z</time>
        <extensions>
          <ns3:TrackPointExtension>
            <ns3:hr>145</ns3:hr>
            <ns3:cad>92</ns3:cad>
          </ns3:TrackPointExtension>
        </extensions>
      </trkpt>
      <trkpt lat="43.84256872348487377166748046875" lon="4.2652224563062191009521484375">
        <ele>160</ele>
        <time>2024-01-27T09:53:11.000Z</time>
        <extensions>
          <ns3:TrackPointExtension>
            <ns3:hr>145</ns3:hr>
            <ns3:cad>92</ns3:cad>
          </ns3:TrackPointExtension>
        </extensions>
      </trkpt>
      <trkpt lat="43.8425481878221035003662109375" lon="4.2652412317693233489990234375">
        <ele>160</ele>
        <time>2024-01-27T09:53:12.000Z</time>
        <extensions>
          <ns3:TrackPointExtension>
            <ns3:hr>145</ns3:hr>
            <ns3:cad>92</ns3:cad>
          </ns3:TrackPointExtension>
        </extensions>
      </trkpt>
      <trkpt lat="43.84252564050257205963134765625" lon="4.26525673829019069671630859375">
        <ele>160</ele>
        <time>2024-01-27T09:53:13.000Z</time>
        <extensions>
          <ns3:TrackPointExtension>
            <ns3:hr>145</ns3:hr>
            <ns3:cad>92</ns3:cad>
          </ns3:TrackPointExtension>
        </extensions>
      </trkpt>
      <trkpt lat="43.84250384755432605743408203125" lon="4.2652737535536289215087890625">
        <ele>160</ele>
        <time>2024-01-27T09:53:14.000Z</time>
        <extensions>
          <ns3:TrackPointExtension>
            <ns3:hr>145</ns3:hr>
            <ns3:cad>92</ns3:cad>
          </ns3:TrackPointExtension>
        </extensions>
      </trkpt>
      <trkpt lat="43.8424806296825408935546875" lon="4.26529093645513057708740234375">
        <ele>160</ele>
        <time>2024-01-27T09:53:15.000Z</time>
        <extensions>
          <ns3:TrackPointExtension>
            <ns3:hr>145</ns3:hr>
            <ns3:cad>92</ns3:cad>
          </ns3:TrackPointExtension>
        </extensions>
      </trkpt>
      <trkpt lat="43.84245204739272594451904296875" lon="4.2653149925172328948974609375">
        <ele>160</ele>
        <time>2024-01-27T09:53:16.000Z</time>
        <extensions>
          <ns3:TrackPointExtension>
            <ns3:hr>145</ns3:hr>
            <ns3:cad>92</ns3:cad>
          </ns3:TrackPointExtension>
        </extensions>
      </trkpt>
      <trkpt lat="43.84242958389222621917724609375" lon="4.26533351652324199676513671875">
        <ele>160</ele>
        <time>2024-01-27T09:53:17.000Z</time>
        <extensions>
          <ns3:TrackPointExtension>
            <ns3:hr>145</ns3:hr>
            <ns3:cad>92</ns3:cad>
          </ns3:TrackPointExtension>
        </extensions>
      </trkpt>
      <trkpt lat="43.84240644983947277069091796875" lon="4.26535832695662975311279296875">
        <ele>160</ele>
        <time>2024-01-27T09:53:18.000Z</time>
        <extensions>
          <ns3:TrackPointExtension>
            <ns3:hr>145</ns3:hr>
            <ns3:cad>92</ns3:cad>
          </ns3:TrackPointExtension>
        </extensions>
      </trkpt>
      <trkpt lat="43.8423859141767024993896484375" lon="4.265380203723907470703125">
        <ele>160</ele>
        <time>2024-01-27T09:53:19.000Z</time>
        <extensions>
          <ns3:TrackPointExtension>
            <ns3:hr>145</ns3:hr>
            <ns3:cad>92</ns3:cad>
          </ns3:TrackPointExtension>
        </extensions>
      </trkpt>
      <trkpt lat="43.8423647917807102203369140625" lon="4.2654058523476123809814453125">
        <ele>160</ele>
        <time>2024-01-27T09:53:20.000Z</time>
        <extensions>
          <ns3:TrackPointExtension>
            <ns3:hr>146</ns3:hr>
            <ns3:cad>92</ns3:cad>
          </ns3:TrackPointExtension>
        </extensions>
      </trkpt>
      <trkpt lat="43.84234559722244739532470703125" lon="4.265427477657794952392578125">
        <ele>160.1999969482421875</ele>
        <time>2024-01-27T09:53:21.000Z</time>
        <extensions>
          <ns3:TrackPointExtension>
            <ns3:hr>146</ns3:hr>
            <ns3:cad>93</ns3:cad>
          </ns3:TrackPointExtension>
        </extensions>
      </trkpt>
      <trkpt lat="43.84232330136001110076904296875" lon="4.26545689813792705535888671875">
        <ele>160</ele>
        <time>2024-01-27T09:53:22.000Z</time>
        <extensions>
          <ns3:TrackPointExtension>
            <ns3:hr>146</ns3:hr>
            <ns3:cad>93</ns3:cad>
          </ns3:TrackPointExtension>
        </extensions>
      </trkpt>
      <trkpt lat="43.842307291924953460693359375" lon="4.2654816247522830963134765625">
        <ele>160</ele>
        <time>2024-01-27T09:53:23.000Z</time>
        <extensions>
          <ns3:TrackPointExtension>
            <ns3:hr>146</ns3:hr>
            <ns3:cad>92</ns3:cad>
          </ns3:TrackPointExtension>
        </extensions>
      </trkpt>
      <trkpt lat="43.84228725917637348175048828125" lon="4.26550853066146373748779296875">
        <ele>160</ele>
        <time>2024-01-27T09:53:24.000Z</time>
        <extensions>
          <ns3:TrackPointExtension>
            <ns3:hr>145</ns3:hr>
            <ns3:cad>92</ns3:cad>
          </ns3:TrackPointExtension>
        </extensions>
      </trkpt>
      <trkpt lat="43.84227133356034755706787109375" lon="4.26553300581872463226318359375">
        <ele>159.8000030517578125</ele>
        <time>2024-01-27T09:53:25.000Z</time>
        <extensions>
          <ns3:TrackPointExtension>
            <ns3:hr>145</ns3:hr>
            <ns3:cad>92</ns3:cad>
          </ns3:TrackPointExtension>
        </extensions>
      </trkpt>
      <trkpt lat="43.842250294983386993408203125" lon="4.2655644379556179046630859375">
        <ele>159.8000030517578125</ele>
        <time>2024-01-27T09:53:26.000Z</time>
        <extensions>
          <ns3:TrackPointExtension>
            <ns3:hr>146</ns3:hr>
            <ns3:cad>92</ns3:cad>
          </ns3:TrackPointExtension>
        </extensions>
      </trkpt>
      <trkpt lat="43.84223143570125102996826171875" lon="4.2655907571315765380859375">
        <ele>159.600006103515625</ele>
        <time>2024-01-27T09:53:27.000Z</time>
        <extensions>
          <ns3:TrackPointExtension>
            <ns3:hr>146</ns3:hr>
            <ns3:cad>93</ns3:cad>
          </ns3:TrackPointExtension>
        </extensions>
      </trkpt>
      <trkpt lat="43.84220863692462444305419921875" lon="4.26561749540269374847412109375">
        <ele>159.600006103515625</ele>
        <time>2024-01-27T09:53:28.000Z</time>
        <extensions>
          <ns3:TrackPointExtension>
            <ns3:hr>146</ns3:hr>
            <ns3:cad>93</ns3:cad>
          </ns3:TrackPointExtension>
        </extensions>
      </trkpt>
      <trkpt lat="43.8421897776424884796142578125" lon="4.26564314402639865875244140625">
        <ele>159.399993896484375</ele>
        <time>2024-01-27T09:53:29.000Z</time>
        <extensions>
          <ns3:TrackPointExtension>
            <ns3:hr>146</ns3:hr>
            <ns3:cad>93</ns3:cad>
          </ns3:TrackPointExtension>
        </extensions>
      </trkpt>
      <trkpt lat="43.842167146503925323486328125" lon="4.26566661335527896881103515625">
        <ele>159.1999969482421875</ele>
        <time>2024-01-27T09:53:30.000Z</time>
        <extensions>
          <ns3:TrackPointExtension>
            <ns3:hr>147</ns3:hr>
            <ns3:cad>92</ns3:cad>
          </ns3:TrackPointExtension>
        </extensions>
      </trkpt>
      <trkpt lat="43.84214677847921848297119140625" lon="4.2656898312270641326904296875">
        <ele>159</ele>
        <time>2024-01-27T09:53:31.000Z</time>
        <extensions>
          <ns3:TrackPointExtension>
            <ns3:hr>147</ns3:hr>
            <ns3:cad>92</ns3:cad>
          </ns3:TrackPointExtension>
        </extensions>
      </trkpt>
      <trkpt lat="43.8421207107603549957275390625" lon="4.26570944488048553466796875">
        <ele>158.8000030517578125</ele>
        <time>2024-01-27T09:53:32.000Z</time>
        <extensions>
          <ns3:TrackPointExtension>
            <ns3:hr>147</ns3:hr>
            <ns3:cad>93</ns3:cad>
          </ns3:TrackPointExtension>
        </extensions>
      </trkpt>
      <trkpt lat="43.84209430776536464691162109375" lon="4.26572897471487522125244140625">
        <ele>158.600006103515625</ele>
        <time>2024-01-27T09:53:33.000Z</time>
        <extensions>
          <ns3:TrackPointExtension>
            <ns3:hr>147</ns3:hr>
            <ns3:cad>93</ns3:cad>
          </ns3:TrackPointExtension>
        </extensions>
      </trkpt>
      <trkpt lat="43.8420674018561840057373046875" lon="4.26573987118899822235107421875">
        <ele>158.600006103515625</ele>
        <time>2024-01-27T09:53:34.000Z</time>
        <extensions>
          <ns3:TrackPointExtension>
            <ns3:hr>148</ns3:hr>
            <ns3:cad>93</ns3:cad>
          </ns3:TrackPointExtension>
        </extensions>
      </trkpt>
      <trkpt lat="43.84203932248055934906005859375" lon="4.26574976183474063873291015625">
        <ele>158</ele>
        <time>2024-01-27T09:53:35.000Z</time>
        <extensions>
          <ns3:TrackPointExtension>
            <ns3:hr>148</ns3:hr>
            <ns3:cad>93</ns3:cad>
          </ns3:TrackPointExtension>
        </extensions>
      </trkpt>
      <trkpt lat="43.84201459586620330810546875" lon="4.26575395278632640838623046875">
        <ele>158</ele>
        <time>2024-01-27T09:53:36.000Z</time>
        <extensions>
          <ns3:TrackPointExtension>
            <ns3:hr>148</ns3:hr>
            <ns3:cad>90</ns3:cad>
          </ns3:TrackPointExtension>
        </extensions>
      </trkpt>
      <trkpt lat="43.84198668412864208221435546875" lon="4.265739955008029937744140625">
        <ele>158</ele>
        <time>2024-01-27T09:53:37.000Z</time>
        <extensions>
          <ns3:TrackPointExtension>
            <ns3:hr>148</ns3:hr>
            <ns3:cad>90</ns3:cad>
          </ns3:TrackPointExtension>
        </extensions>
      </trkpt>
      <trkpt lat="43.8419601134955883026123046875" lon="4.26572310738265514373779296875">
        <ele>157.8000030517578125</ele>
        <time>2024-01-27T09:53:38.000Z</time>
        <extensions>
          <ns3:TrackPointExtension>
            <ns3:hr>148</ns3:hr>
            <ns3:cad>93</ns3:cad>
          </ns3:TrackPointExtension>
        </extensions>
      </trkpt>
      <trkpt lat="43.84193019010126590728759765625" lon="4.26569662056863307952880859375">
        <ele>157.8000030517578125</ele>
        <time>2024-01-27T09:53:39.000Z</time>
        <extensions>
          <ns3:TrackPointExtension>
            <ns3:hr>149</ns3:hr>
            <ns3:cad>93</ns3:cad>
          </ns3:TrackPointExtension>
        </extensions>
      </trkpt>
      <trkpt lat="43.84190940298140048980712890625" lon="4.26567549817264080047607421875">
        <ele>157.8000030517578125</ele>
        <time>2024-01-27T09:53:40.000Z</time>
        <extensions>
          <ns3:TrackPointExtension>
            <ns3:hr>149</ns3:hr>
            <ns3:cad>93</ns3:cad>
          </ns3:TrackPointExtension>
        </extensions>
      </trkpt>
      <trkpt lat="43.84189297445118427276611328125" lon="4.26564096473157405853271484375">
        <ele>157.8000030517578125</ele>
        <time>2024-01-27T09:53:41.000Z</time>
        <extensions>
          <ns3:TrackPointExtension>
            <ns3:hr>149</ns3:hr>
            <ns3:cad>93</ns3:cad>
          </ns3:TrackPointExtension>
        </extensions>
      </trkpt>
      <trkpt lat="43.84187989868223667144775390625" lon="4.26560827530920505523681640625">
        <ele>157.8000030517578125</ele>
        <time>2024-01-27T09:53:42.000Z</time>
        <extensions>
          <ns3:TrackPointExtension>
            <ns3:hr>149</ns3:hr>
            <ns3:cad>93</ns3:cad>
          </ns3:TrackPointExtension>
        </extensions>
      </trkpt>
      <trkpt lat="43.84186699055135250091552734375" lon="4.2655661143362522125244140625">
        <ele>157.8000030517578125</ele>
        <time>2024-01-27T09:53:43.000Z</time>
        <extensions>
          <ns3:TrackPointExtension>
            <ns3:hr>149</ns3:hr>
            <ns3:cad>93</ns3:cad>
          </ns3:TrackPointExtension>
        </extensions>
      </trkpt>
      <trkpt lat="43.8418561778962612152099609375" lon="4.26553183235228061676025390625">
        <ele>157.600006103515625</ele>
        <time>2024-01-27T09:53:44.000Z</time>
        <extensions>
          <ns3:TrackPointExtension>
            <ns3:hr>149</ns3:hr>
            <ns3:cad>93</ns3:cad>
          </ns3:TrackPointExtension>
        </extensions>
      </trkpt>
      <trkpt lat="43.84184955619275569915771484375" lon="4.26549218595027923583984375">
        <ele>157.600006103515625</ele>
        <time>2024-01-27T09:53:45.000Z</time>
        <extensions>
          <ns3:TrackPointExtension>
            <ns3:hr>149</ns3:hr>
            <ns3:cad>93</ns3:cad>
          </ns3:TrackPointExtension>
        </extensions>
      </trkpt>
      <trkpt lat="43.84184184484183788299560546875" lon="4.26545991562306880950927734375">
        <ele>157.399993896484375</ele>
        <time>2024-01-27T09:53:46.000Z</time>
        <extensions>
          <ns3:TrackPointExtension>
            <ns3:hr>150</ns3:hr>
            <ns3:cad>92</ns3:cad>
          </ns3:TrackPointExtension>
        </extensions>
      </trkpt>
      <trkpt lat="43.8418380729854106903076171875" lon="4.2654222808778285980224609375">
        <ele>157.399993896484375</ele>
        <time>2024-01-27T09:53:47.000Z</time>
        <extensions>
          <ns3:TrackPointExtension>
            <ns3:hr>150</ns3:hr>
            <ns3:cad>92</ns3:cad>
          </ns3:TrackPointExtension>
        </extensions>
      </trkpt>
      <trkpt lat="43.84183145128190517425537109375" lon="4.2653917707502841949462890625">
        <ele>157.399993896484375</ele>
        <time>2024-01-27T09:53:48.000Z</time>
        <extensions>
          <ns3:TrackPointExtension>
            <ns3:hr>150</ns3:hr>
            <ns3:cad>92</ns3:cad>
          </ns3:TrackPointExtension>
        </extensions>
      </trkpt>
      <trkpt lat="43.84182742796838283538818359375" lon="4.2653562314808368682861328125">
        <ele>157.399993896484375</ele>
        <time>2024-01-27T09:53:49.000Z</time>
        <extensions>
          <ns3:TrackPointExtension>
            <ns3:hr>150</ns3:hr>
            <ns3:cad>92</ns3:cad>
          </ns3:TrackPointExtension>
        </extensions>
      </trkpt>
      <trkpt lat="43.84182156063616275787353515625" lon="4.26532060839235782623291015625">
        <ele>157.399993896484375</ele>
        <time>2024-01-27T09:53:50.000Z</time>
        <extensions>
          <ns3:TrackPointExtension>
            <ns3:hr>150</ns3:hr>
            <ns3:cad>92</ns3:cad>
          </ns3:TrackPointExtension>
        </extensions>
      </trkpt>
      <trkpt lat="43.8418182916939258575439453125" lon="4.26528775133192539215087890625">
        <ele>157.399993896484375</ele>
        <time>2024-01-27T09:53:51.000Z</time>
        <extensions>
          <ns3:TrackPointExtension>
            <ns3:hr>151</ns3:hr>
            <ns3:cad>91</ns3:cad>
          </ns3:TrackPointExtension>
        </extensions>
      </trkpt>
      <trkpt lat="43.84181451983749866485595703125" lon="4.26525036804378032684326171875">
        <ele>157.399993896484375</ele>
        <time>2024-01-27T09:53:52.000Z</time>
        <extensions>
          <ns3:TrackPointExtension>
            <ns3:hr>151</ns3:hr>
            <ns3:cad>91</ns3:cad>
          </ns3:TrackPointExtension>
        </extensions>
      </trkpt>
      <trkpt lat="43.84181284345686435699462890625" lon="4.26521801389753818511962890625">
        <ele>157.1999969482421875</ele>
        <time>2024-01-27T09:53:53.000Z</time>
        <extensions>
          <ns3:TrackPointExtension>
            <ns3:hr>151</ns3:hr>
            <ns3:cad>92</ns3:cad>
          </ns3:TrackPointExtension>
        </extensions>
      </trkpt>
      <trkpt lat="43.84181074798107147216796875" lon="4.26517593674361705780029296875">
        <ele>157.399993896484375</ele>
        <time>2024-01-27T09:53:54.000Z</time>
        <extensions>
          <ns3:TrackPointExtension>
            <ns3:hr>152</ns3:hr>
            <ns3:cad>93</ns3:cad>
          </ns3:TrackPointExtension>
        </extensions>
      </trkpt>
      <trkpt lat="43.84180865250527858734130859375" lon="4.265144504606723785400390625">
        <ele>157.399993896484375</ele>
        <time>2024-01-27T09:53:55.000Z</time>
        <extensions>
          <ns3:TrackPointExtension>
            <ns3:hr>152</ns3:hr>
            <ns3:cad>93</ns3:cad>
          </ns3:TrackPointExtension>
        </extensions>
      </trkpt>
      <trkpt lat="43.84180312044918537139892578125" lon="4.265101589262485504150390625">
        <ele>157.1999969482421875</ele>
        <time>2024-01-27T09:53:56.000Z</time>
        <extensions>
          <ns3:TrackPointExtension>
            <ns3:hr>152</ns3:hr>
            <ns3:cad>92</ns3:cad>
          </ns3:TrackPointExtension>
        </extensions>
      </trkpt>
      <trkpt lat="43.8417971692979335784912109375" lon="4.2650705762207508087158203125">
        <ele>157.1999969482421875</ele>
        <time>2024-01-27T09:53:57.000Z</time>
        <extensions>
          <ns3:TrackPointExtension>
            <ns3:hr>153</ns3:hr>
            <ns3:cad>92</ns3:cad>
          </ns3:TrackPointExtension>
        </extensions>
      </trkpt>
      <trkpt lat="43.841791637241840362548828125" lon="4.26503528840839862823486328125">
        <ele>157.399993896484375</ele>
        <time>2024-01-27T09:53:58.000Z</time>
        <extensions>
          <ns3:TrackPointExtension>
            <ns3:hr>153</ns3:hr>
            <ns3:cad>92</ns3:cad>
          </ns3:TrackPointExtension>
        </extensions>
      </trkpt>
      <trkpt lat="43.84178451262414455413818359375" lon="4.2650072090327739715576171875">
        <ele>157.399993896484375</ele>
        <time>2024-01-27T09:53:59.000Z</time>
        <extensions>
          <ns3:TrackPointExtension>
            <ns3:hr>153</ns3:hr>
            <ns3:cad>92</ns3:cad>
          </ns3:TrackPointExtension>
        </extensions>
      </trkpt>
      <trkpt lat="43.8417797349393367767333984375" lon="4.26497720181941986083984375">
        <ele>157.399993896484375</ele>
        <time>2024-01-27T09:54:00.000Z</time>
        <extensions>
          <ns3:TrackPointExtension>
            <ns3:hr>153</ns3:hr>
            <ns3:cad>92</ns3:cad>
          </ns3:TrackPointExtension>
        </extensions>
      </trkpt>
      <trkpt lat="43.84177478961646556854248046875" lon="4.26494359038770198822021484375">
        <ele>157.399993896484375</ele>
        <time>2024-01-27T09:54:01.000Z</time>
        <extensions>
          <ns3:TrackPointExtension>
            <ns3:hr>153</ns3:hr>
            <ns3:cad>92</ns3:cad>
          </ns3:TrackPointExtension>
        </extensions>
      </trkpt>
      <trkpt lat="43.8417710177600383758544921875" lon="4.26491559483110904693603515625">
        <ele>157.399993896484375</ele>
        <time>2024-01-27T09:54:02.000Z</time>
        <extensions>
          <ns3:TrackPointExtension>
            <ns3:hr>153</ns3:hr>
            <ns3:cad>92</ns3:cad>
          </ns3:TrackPointExtension>
        </extensions>
      </trkpt>
      <trkpt lat="43.84176858700811862945556640625" lon="4.26488173194229602813720703125">
        <ele>157.399993896484375</ele>
        <time>2024-01-27T09:54:03.000Z</time>
        <extensions>
          <ns3:TrackPointExtension>
            <ns3:hr>153</ns3:hr>
            <ns3:cad>92</ns3:cad>
          </ns3:TrackPointExtension>
        </extensions>
      </trkpt>
      <trkpt lat="43.84176657535135746002197265625" lon="4.2648516409099102020263671875">
        <ele>157.600006103515625</ele>
        <time>2024-01-27T09:54:04.000Z</time>
        <extensions>
          <ns3:TrackPointExtension>
            <ns3:hr>153</ns3:hr>
            <ns3:cad>92</ns3:cad>
          </ns3:TrackPointExtension>
        </extensions>
      </trkpt>
      <trkpt lat="43.84176121093332767486572265625" lon="4.26481417380273342132568359375">
        <ele>157.600006103515625</ele>
        <time>2024-01-27T09:54:05.000Z</time>
        <extensions>
          <ns3:TrackPointExtension>
            <ns3:hr>154</ns3:hr>
            <ns3:cad>93</ns3:cad>
          </ns3:TrackPointExtension>
        </extensions>
      </trkpt>
      <trkpt lat="43.841756097972393035888671875" lon="4.26478802226483821868896484375">
        <ele>157.600006103515625</ele>
        <time>2024-01-27T09:54:06.000Z</time>
        <extensions>
          <ns3:TrackPointExtension>
            <ns3:hr>154</ns3:hr>
            <ns3:cad>93</ns3:cad>
          </ns3:TrackPointExtension>
        </extensions>
      </trkpt>
      <trkpt lat="43.84174997918307781219482421875" lon="4.2647547461092472076416015625">
        <ele>157.600006103515625</ele>
        <time>2024-01-27T09:54:07.000Z</time>
        <extensions>
          <ns3:TrackPointExtension>
            <ns3:hr>154</ns3:hr>
            <ns3:cad>93</ns3:cad>
          </ns3:TrackPointExtension>
        </extensions>
      </trkpt>
      <trkpt lat="43.84174344129860401153564453125" lon="4.264730773866176605224609375">
        <ele>157.600006103515625</ele>
        <time>2024-01-27T09:54:08.000Z</time>
        <extensions>
          <ns3:TrackPointExtension>
            <ns3:hr>154</ns3:hr>
            <ns3:cad>92</ns3:cad>
          </ns3:TrackPointExtension>
        </extensions>
      </trkpt>
      <trkpt lat="43.84173564612865447998046875" lon="4.264697916805744171142578125">
        <ele>157.600006103515625</ele>
        <time>2024-01-27T09:54:09.000Z</time>
        <extensions>
          <ns3:TrackPointExtension>
            <ns3:hr>154</ns3:hr>
            <ns3:cad>92</ns3:cad>
          </ns3:TrackPointExtension>
        </extensions>
      </trkpt>
      <trkpt lat="43.84172835387289524078369140625" lon="4.26467302255332469940185546875">
        <ele>157.600006103515625</ele>
        <time>2024-01-27T09:54:10.000Z</time>
        <extensions>
          <ns3:TrackPointExtension>
            <ns3:hr>154</ns3:hr>
            <ns3:cad>92</ns3:cad>
          </ns3:TrackPointExtension>
        </extensions>
      </trkpt>
      <trkpt lat="43.8417200557887554168701171875" lon="4.26463915966451168060302734375">
        <ele>157.600006103515625</ele>
        <time>2024-01-27T09:54:11.000Z</time>
        <extensions>
          <ns3:TrackPointExtension>
            <ns3:hr>154</ns3:hr>
            <ns3:cad>92</ns3:cad>
          </ns3:TrackPointExtension>
        </extensions>
      </trkpt>
      <trkpt lat="43.84171024896204471588134765625" lon="4.26459590904414653778076171875">
        <ele>157.8000030517578125</ele>
        <time>2024-01-27T09:54:12.000Z</time>
        <extensions>
          <ns3:TrackPointExtension>
            <ns3:hr>153</ns3:hr>
            <ns3:cad>92</ns3:cad>
          </ns3:TrackPointExtension>
        </extensions>
      </trkpt>
      <trkpt lat="43.8417053036391735076904296875" lon="4.26456171087920665740966796875">
        <ele>157.8000030517578125</ele>
        <time>2024-01-27T09:54:13.000Z</time>
        <extensions>
          <ns3:TrackPointExtension>
            <ns3:hr>153</ns3:hr>
            <ns3:cad>92</ns3:cad>
          </ns3:TrackPointExtension>
        </extensions>
      </trkpt>
      <trkpt lat="43.841699101030826568603515625" lon="4.2645257525146007537841796875">
        <ele>157.8000030517578125</ele>
        <time>2024-01-27T09:54:14.000Z</time>
        <extensions>
          <ns3:TrackPointExtension>
            <ns3:hr>153</ns3:hr>
            <ns3:cad>92</ns3:cad>
          </ns3:TrackPointExtension>
        </extensions>
      </trkpt>
      <trkpt lat="43.841693066060543060302734375" lon="4.26449012942612171173095703125">
        <ele>157.8000030517578125</ele>
        <time>2024-01-27T09:54:15.000Z</time>
        <extensions>
          <ns3:TrackPointExtension>
            <ns3:hr>153</ns3:hr>
            <ns3:cad>92</ns3:cad>
          </ns3:TrackPointExtension>
        </extensions>
      </trkpt>
      <trkpt lat="43.84168828837573528289794921875" lon="4.26444469951093196868896484375">
        <ele>157.8000030517578125</ele>
        <time>2024-01-27T09:54:16.000Z</time>
        <extensions>
          <ns3:TrackPointExtension>
            <ns3:hr>153</ns3:hr>
            <ns3:cad>93</ns3:cad>
          </ns3:TrackPointExtension>
        </extensions>
      </trkpt>
      <trkpt lat="43.8416828401386737823486328125" lon="4.26440396346151828765869140625">
        <ele>157.8000030517578125</ele>
        <time>2024-01-27T09:54:17.000Z</time>
        <extensions>
          <ns3:TrackPointExtension>
            <ns3:hr>152</ns3:hr>
            <ns3:cad>93</ns3:cad>
          </ns3:TrackPointExtension>
        </extensions>
      </trkpt>
      <trkpt lat="43.8416804932057857513427734375" lon="4.2643624730408191680908203125">
        <ele>157.8000030517578125</ele>
        <time>2024-01-27T09:54:18.000Z</time>
        <extensions>
          <ns3:TrackPointExtension>
            <ns3:hr>152</ns3:hr>
            <ns3:cad>92</ns3:cad>
          </ns3:TrackPointExtension>
        </extensions>
      </trkpt>
      <trkpt lat="43.84167839772999286651611328125" lon="4.264327771961688995361328125">
        <ele>157.600006103515625</ele>
        <time>2024-01-27T09:54:19.000Z</time>
        <extensions>
          <ns3:TrackPointExtension>
            <ns3:hr>152</ns3:hr>
            <ns3:cad>92</ns3:cad>
          </ns3:TrackPointExtension>
        </extensions>
      </trkpt>
      <trkpt lat="43.84167739190161228179931640625" lon="4.26429432816803455352783203125">
        <ele>157.600006103515625</ele>
        <time>2024-01-27T09:54:20.000Z</time>
        <extensions>
          <ns3:TrackPointExtension>
            <ns3:hr>152</ns3:hr>
            <ns3:cad>92</ns3:cad>
          </ns3:TrackPointExtension>
        </extensions>
      </trkpt>
      <trkpt lat="43.84167722426354885101318359375" lon="4.26425325684249401092529296875">
        <ele>157.600006103515625</ele>
        <time>2024-01-27T09:54:21.000Z</time>
        <extensions>
          <ns3:TrackPointExtension>
            <ns3:hr>152</ns3:hr>
            <ns3:cad>93</ns3:cad>
          </ns3:TrackPointExtension>
        </extensions>
      </trkpt>
      <trkpt lat="43.8416764698922634124755859375" lon="4.26421553827822208404541015625">
        <ele>157.600006103515625</ele>
        <time>2024-01-27T09:54:22.000Z</time>
        <extensions>
          <ns3:TrackPointExtension>
            <ns3:hr>152</ns3:hr>
            <ns3:cad>93</ns3:cad>
          </ns3:TrackPointExtension>
        </extensions>
      </trkpt>
      <trkpt lat="43.8416747935116291046142578125" lon="4.26417346112430095672607421875">
        <ele>157.600006103515625</ele>
        <time>2024-01-27T09:54:23.000Z</time>
        <extensions>
          <ns3:TrackPointExtension>
            <ns3:hr>153</ns3:hr>
            <ns3:cad>93</ns3:cad>
          </ns3:TrackPointExtension>
        </extensions>
      </trkpt>
      <trkpt lat="43.8416724465787410736083984375" lon="4.26414328627288341522216796875">
        <ele>157.600006103515625</ele>
        <time>2024-01-27T09:54:24.000Z</time>
        <extensions>
          <ns3:TrackPointExtension>
            <ns3:hr>153</ns3:hr>
            <ns3:cad>95</ns3:cad>
          </ns3:TrackPointExtension>
        </extensions>
      </trkpt>
      <trkpt lat="43.84167118929326534271240234375" lon="4.26410858519375324249267578125">
        <ele>157.600006103515625</ele>
        <time>2024-01-27T09:54:25.000Z</time>
        <extensions>
          <ns3:TrackPointExtension>
            <ns3:hr>153</ns3:hr>
            <ns3:cad>95</ns3:cad>
          </ns3:TrackPointExtension>
        </extensions>
      </trkpt>
      <trkpt lat="43.84166859090328216552734375" lon="4.26407790742814540863037109375">
        <ele>157.600006103515625</ele>
        <time>2024-01-27T09:54:26.000Z</time>
        <extensions>
          <ns3:TrackPointExtension>
            <ns3:hr>153</ns3:hr>
            <ns3:cad>95</ns3:cad>
          </ns3:TrackPointExtension>
        </extensions>
      </trkpt>
      <trkpt lat="43.8416677527129650115966796875" lon="4.26404320634901523590087890625">
        <ele>157.600006103515625</ele>
        <time>2024-01-27T09:54:27.000Z</time>
        <extensions>
          <ns3:TrackPointExtension>
            <ns3:hr>153</ns3:hr>
            <ns3:cad>95</ns3:cad>
          </ns3:TrackPointExtension>
        </extensions>
      </trkpt>
      <trkpt lat="43.841664232313632965087890625" lon="4.264009930193424224853515625">
        <ele>157.600006103515625</ele>
        <time>2024-01-27T09:54:28.000Z</time>
        <extensions>
          <ns3:TrackPointExtension>
            <ns3:hr>154</ns3:hr>
            <ns3:cad>94</ns3:cad>
          </ns3:TrackPointExtension>
        </extensions>
      </trkpt>
      <trkpt lat="43.8416633941233158111572265625" lon="4.2639795877039432525634765625">
        <ele>157.600006103515625</ele>
        <time>2024-01-27T09:54:29.000Z</time>
        <extensions>
          <ns3:TrackPointExtension>
            <ns3:hr>154</ns3:hr>
            <ns3:cad>93</ns3:cad>
          </ns3:TrackPointExtension>
        </extensions>
      </trkpt>
      <trkpt lat="43.84166196919977664947509765625" lon="4.26394966430962085723876953125">
        <ele>157.8000030517578125</ele>
        <time>2024-01-27T09:54:30.000Z</time>
        <extensions>
          <ns3:TrackPointExtension>
            <ns3:hr>153</ns3:hr>
            <ns3:cad>93</ns3:cad>
          </ns3:TrackPointExtension>
        </extensions>
      </trkpt>
      <trkpt lat="43.84166347794234752655029296875" lon="4.26391999237239360809326171875">
        <ele>157.8000030517578125</ele>
        <time>2024-01-27T09:54:31.000Z</time>
        <extensions>
          <ns3:TrackPointExtension>
            <ns3:hr>153</ns3:hr>
            <ns3:cad>93</ns3:cad>
          </ns3:TrackPointExtension>
        </extensions>
      </trkpt>
      <trkpt lat="43.84166347794234752655029296875" lon="4.26388411782681941986083984375">
        <ele>157.8000030517578125</ele>
        <time>2024-01-27T09:54:32.000Z</time>
        <extensions>
          <ns3:TrackPointExtension>
            <ns3:hr>153</ns3:hr>
            <ns3:cad>93</ns3:cad>
          </ns3:TrackPointExtension>
        </extensions>
      </trkpt>
      <trkpt lat="43.84166347794234752655029296875" lon="4.26385478116571903228759765625">
        <ele>157.8000030517578125</ele>
        <time>2024-01-27T09:54:33.000Z</time>
        <extensions>
          <ns3:TrackPointExtension>
            <ns3:hr>153</ns3:hr>
            <ns3:cad>91</ns3:cad>
          </ns3:TrackPointExtension>
        </extensions>
      </trkpt>
      <trkpt lat="43.8416630588471889495849609375" lon="4.2638149671256542205810546875">
        <ele>157.8000030517578125</ele>
        <time>2024-01-27T09:54:34.000Z</time>
        <extensions>
          <ns3:TrackPointExtension>
            <ns3:hr>153</ns3:hr>
            <ns3:cad>91</ns3:cad>
          </ns3:TrackPointExtension>
        </extensions>
      </trkpt>
      <trkpt lat="43.84166498668491840362548828125" lon="4.26378487609326839447021484375">
        <ele>157.8000030517578125</ele>
        <time>2024-01-27T09:54:35.000Z</time>
        <extensions>
          <ns3:TrackPointExtension>
            <ns3:hr>153</ns3:hr>
            <ns3:cad>92</ns3:cad>
          </ns3:TrackPointExtension>
        </extensions>
      </trkpt>
      <trkpt lat="43.84165585041046142578125" lon="4.263743720948696136474609375">
        <ele>157.8000030517578125</ele>
        <time>2024-01-27T09:54:36.000Z</time>
        <extensions>
          <ns3:TrackPointExtension>
            <ns3:hr>153</ns3:hr>
            <ns3:cad>93</ns3:cad>
          </ns3:TrackPointExtension>
        </extensions>
      </trkpt>
      <trkpt lat="43.8416519947350025177001953125" lon="4.263714216649532318115234375">
        <ele>157.600006103515625</ele>
        <time>2024-01-27T09:54:37.000Z</time>
        <extensions>
          <ns3:TrackPointExtension>
            <ns3:hr>154</ns3:hr>
            <ns3:cad>93</ns3:cad>
          </ns3:TrackPointExtension>
        </extensions>
      </trkpt>
      <trkpt lat="43.841648809611797332763671875" lon="4.26367255859076976776123046875">
        <ele>157.600006103515625</ele>
        <time>2024-01-27T09:54:38.000Z</time>
        <extensions>
          <ns3:TrackPointExtension>
            <ns3:hr>154</ns3:hr>
            <ns3:cad>93</ns3:cad>
          </ns3:TrackPointExtension>
        </extensions>
      </trkpt>
      <trkpt lat="43.84164487011730670928955078125" lon="4.2636392824351787567138671875">
        <ele>157.600006103515625</ele>
        <time>2024-01-27T09:54:39.000Z</time>
        <extensions>
          <ns3:TrackPointExtension>
            <ns3:hr>154</ns3:hr>
            <ns3:cad>93</ns3:cad>
          </ns3:TrackPointExtension>
        </extensions>
      </trkpt>
      <trkpt lat="43.8416399247944355010986328125" lon="4.26359854638576507568359375">
        <ele>157.399993896484375</ele>
        <time>2024-01-27T09:54:40.000Z</time>
        <extensions>
          <ns3:TrackPointExtension>
            <ns3:hr>154</ns3:hr>
            <ns3:cad>93</ns3:cad>
          </ns3:TrackPointExtension>
        </extensions>
      </trkpt>
      <trkpt lat="43.84163414128124713897705078125" lon="4.26356644369661808013916015625">
        <ele>157.399993896484375</ele>
        <time>2024-01-27T09:54:41.000Z</time>
        <extensions>
          <ns3:TrackPointExtension>
            <ns3:hr>154</ns3:hr>
            <ns3:cad>93</ns3:cad>
          </ns3:TrackPointExtension>
        </extensions>
      </trkpt>
      <trkpt lat="43.84163028560578823089599609375" lon="4.26353006623685359954833984375">
        <ele>157.1999969482421875</ele>
        <time>2024-01-27T09:54:42.000Z</time>
        <extensions>
          <ns3:TrackPointExtension>
            <ns3:hr>154</ns3:hr>
            <ns3:cad>93</ns3:cad>
          </ns3:TrackPointExtension>
        </extensions>
      </trkpt>
      <trkpt lat="43.84162290953099727630615234375" lon="4.2634994722902774810791015625">
        <ele>157</ele>
        <time>2024-01-27T09:54:43.000Z</time>
        <extensions>
          <ns3:TrackPointExtension>
            <ns3:hr>154</ns3:hr>
            <ns3:cad>93</ns3:cad>
          </ns3:TrackPointExtension>
        </extensions>
      </trkpt>
      <trkpt lat="43.84161653928458690643310546875" lon="4.26346502266824245452880859375">
        <ele>157</ele>
        <time>2024-01-27T09:54:44.000Z</time>
        <extensions>
          <ns3:TrackPointExtension>
            <ns3:hr>155</ns3:hr>
            <ns3:cad>93</ns3:cad>
          </ns3:TrackPointExtension>
        </extensions>
      </trkpt>
      <trkpt lat="43.841607235372066497802734375" lon="4.2634288966655731201171875">
        <ele>157</ele>
        <time>2024-01-27T09:54:45.000Z</time>
        <extensions>
          <ns3:TrackPointExtension>
            <ns3:hr>155</ns3:hr>
            <ns3:cad>92</ns3:cad>
          </ns3:TrackPointExtension>
        </extensions>
      </trkpt>
      <trkpt lat="43.84160094894468784332275390625" lon="4.26340182311832904815673828125">
        <ele>156.8000030517578125</ele>
        <time>2024-01-27T09:54:46.000Z</time>
        <extensions>
          <ns3:TrackPointExtension>
            <ns3:hr>154</ns3:hr>
            <ns3:cad>92</ns3:cad>
          </ns3:TrackPointExtension>
        </extensions>
      </trkpt>
      <trkpt lat="43.8415909744799137115478515625" lon="4.2633667029440402984619140625">
        <ele>156.8000030517578125</ele>
        <time>2024-01-27T09:54:47.000Z</time>
        <extensions>
          <ns3:TrackPointExtension>
            <ns3:hr>154</ns3:hr>
            <ns3:cad>93</ns3:cad>
          </ns3:TrackPointExtension>
        </extensions>
      </trkpt>
      <trkpt lat="43.8415825925767421722412109375" lon="4.26333568990230560302734375">
        <ele>156.600006103515625</ele>
        <time>2024-01-27T09:54:48.000Z</time>
        <extensions>
          <ns3:TrackPointExtension>
            <ns3:hr>154</ns3:hr>
            <ns3:cad>93</ns3:cad>
          </ns3:TrackPointExtension>
        </extensions>
      </trkpt>
      <trkpt lat="43.8415711931884288787841796875" lon="4.2632912658154964447021484375">
        <ele>156.600006103515625</ele>
        <time>2024-01-27T09:54:49.000Z</time>
        <extensions>
          <ns3:TrackPointExtension>
            <ns3:hr>154</ns3:hr>
            <ns3:cad>93</ns3:cad>
          </ns3:TrackPointExtension>
        </extensions>
      </trkpt>
      <trkpt lat="43.841562978923320770263671875" lon="4.26326050423085689544677734375">
        <ele>156.600006103515625</ele>
        <time>2024-01-27T09:54:50.000Z</time>
        <extensions>
          <ns3:TrackPointExtension>
            <ns3:hr>154</ns3:hr>
            <ns3:cad>93</ns3:cad>
          </ns3:TrackPointExtension>
        </extensions>
      </trkpt>
      <trkpt lat="43.84155149571597576141357421875" lon="4.26322303712368011474609375">
        <ele>156.399993896484375</ele>
        <time>2024-01-27T09:54:51.000Z</time>
        <extensions>
          <ns3:TrackPointExtension>
            <ns3:hr>154</ns3:hr>
            <ns3:cad>93</ns3:cad>
          </ns3:TrackPointExtension>
        </extensions>
      </trkpt>
      <trkpt lat="43.8415400125086307525634765625" lon="4.2631995677947998046875">
        <ele>156.399993896484375</ele>
        <time>2024-01-27T09:54:52.000Z</time>
        <extensions>
          <ns3:TrackPointExtension>
            <ns3:hr>154</ns3:hr>
            <ns3:cad>93</ns3:cad>
          </ns3:TrackPointExtension>
        </extensions>
      </trkpt>
      <trkpt lat="43.84152450598776340484619140625" lon="4.26316260360181331634521484375">
        <ele>156.1999969482421875</ele>
        <time>2024-01-27T09:54:53.000Z</time>
        <extensions>
          <ns3:TrackPointExtension>
            <ns3:hr>154</ns3:hr>
            <ns3:cad>93</ns3:cad>
          </ns3:TrackPointExtension>
        </extensions>
      </trkpt>
      <trkpt lat="43.84151109494268894195556640625" lon="4.26313142292201519012451171875">
        <ele>156.1999969482421875</ele>
        <time>2024-01-27T09:54:54.000Z</time>
        <extensions>
          <ns3:TrackPointExtension>
            <ns3:hr>154</ns3:hr>
            <ns3:cad>93</ns3:cad>
          </ns3:TrackPointExtension>
        </extensions>
      </trkpt>
      <trkpt lat="43.8414957560598850250244140625" lon="4.26308850757777690887451171875">
        <ele>156.1999969482421875</ele>
        <time>2024-01-27T09:54:55.000Z</time>
        <extensions>
          <ns3:TrackPointExtension>
            <ns3:hr>154</ns3:hr>
            <ns3:cad>92</ns3:cad>
          </ns3:TrackPointExtension>
        </extensions>
      </trkpt>
      <trkpt lat="43.84148611687123775482177734375" lon="4.263057410717010498046875">
        <ele>156</ele>
        <time>2024-01-27T09:54:56.000Z</time>
        <extensions>
          <ns3:TrackPointExtension>
            <ns3:hr>154</ns3:hr>
            <ns3:cad>91</ns3:cad>
          </ns3:TrackPointExtension>
        </extensions>
      </trkpt>
      <trkpt lat="43.8414789922535419464111328125" lon="4.26302053034305572509765625">
        <ele>155.600006103515625</ele>
        <time>2024-01-27T09:54:57.000Z</time>
        <extensions>
          <ns3:TrackPointExtension>
            <ns3:hr>154</ns3:hr>
            <ns3:cad>91</ns3:cad>
          </ns3:TrackPointExtension>
        </extensions>
      </trkpt>
      <trkpt lat="43.84147237055003643035888671875" lon="4.262985326349735260009765625">
        <ele>155.399993896484375</ele>
        <time>2024-01-27T09:54:58.000Z</time>
        <extensions>
          <ns3:TrackPointExtension>
            <ns3:hr>154</ns3:hr>
            <ns3:cad>91</ns3:cad>
          </ns3:TrackPointExtension>
        </extensions>
      </trkpt>
      <trkpt lat="43.8414680957794189453125" lon="4.2629543133080005645751953125">
        <ele>155.399993896484375</ele>
        <time>2024-01-27T09:54:59.000Z</time>
        <extensions>
          <ns3:TrackPointExtension>
            <ns3:hr>154</ns3:hr>
            <ns3:cad>91</ns3:cad>
          </ns3:TrackPointExtension>
        </extensions>
      </trkpt>
      <trkpt lat="43.841462396085262298583984375" lon="4.26291902549564838409423828125">
        <ele>155.399993896484375</ele>
        <time>2024-01-27T09:55:00.000Z</time>
        <extensions>
          <ns3:TrackPointExtension>
            <ns3:hr>154</ns3:hr>
            <ns3:cad>92</ns3:cad>
          </ns3:TrackPointExtension>
        </extensions>
      </trkpt>
      <trkpt lat="43.84145778603851795196533203125" lon="4.26288566552102565765380859375">
        <ele>155.1999969482421875</ele>
        <time>2024-01-27T09:55:01.000Z</time>
        <extensions>
          <ns3:TrackPointExtension>
            <ns3:hr>154</ns3:hr>
            <ns3:cad>94</ns3:cad>
          </ns3:TrackPointExtension>
        </extensions>
      </trkpt>
      <trkpt lat="43.8414538465440273284912109375" lon="4.2628483660519123077392578125">
        <ele>155.1999969482421875</ele>
        <time>2024-01-27T09:55:02.000Z</time>
        <extensions>
          <ns3:TrackPointExtension>
            <ns3:hr>154</ns3:hr>
            <ns3:cad>94</ns3:cad>
          </ns3:TrackPointExtension>
        </extensions>
      </trkpt>
      <trkpt lat="43.8414494879543781280517578125" lon="4.2628128267824649810791015625">
        <ele>155.1999969482421875</ele>
        <time>2024-01-27T09:55:03.000Z</time>
        <extensions>
          <ns3:TrackPointExtension>
            <ns3:hr>154</ns3:hr>
            <ns3:cad>93</ns3:cad>
          </ns3:TrackPointExtension>
        </extensions>
      </trkpt>
      <trkpt lat="43.8414437882602214813232421875" lon="4.262775443494319915771484375">
        <ele>155.1999969482421875</ele>
        <time>2024-01-27T09:55:04.000Z</time>
        <extensions>
          <ns3:TrackPointExtension>
            <ns3:hr>154</ns3:hr>
            <ns3:cad>92</ns3:cad>
          </ns3:TrackPointExtension>
        </extensions>
      </trkpt>
      <trkpt lat="43.84143834002315998077392578125" lon="4.262740574777126312255859375">
        <ele>155</ele>
        <time>2024-01-27T09:55:05.000Z</time>
        <extensions>
          <ns3:TrackPointExtension>
            <ns3:hr>154</ns3:hr>
            <ns3:cad>92</ns3:cad>
          </ns3:TrackPointExtension>
        </extensions>
      </trkpt>
      <trkpt lat="43.84143297560513019561767578125" lon="4.2627058736979961395263671875">
        <ele>155</ele>
        <time>2024-01-27T09:55:06.000Z</time>
        <extensions>
          <ns3:TrackPointExtension>
            <ns3:hr>154</ns3:hr>
            <ns3:cad>92</ns3:cad>
          </ns3:TrackPointExtension>
        </extensions>
      </trkpt>
      <trkpt lat="43.8414287008345127105712890625" lon="4.2626723460853099822998046875">
        <ele>155.1999969482421875</ele>
        <time>2024-01-27T09:55:07.000Z</time>
        <extensions>
          <ns3:TrackPointExtension>
            <ns3:hr>154</ns3:hr>
            <ns3:cad>92</ns3:cad>
          </ns3:TrackPointExtension>
        </extensions>
      </trkpt>
      <trkpt lat="43.84142895229160785675048828125" lon="4.26263990812003612518310546875">
        <ele>155.1999969482421875</ele>
        <time>2024-01-27T09:55:08.000Z</time>
        <extensions>
          <ns3:TrackPointExtension>
            <ns3:hr>154</ns3:hr>
            <ns3:cad>92</ns3:cad>
          </ns3:TrackPointExtension>
        </extensions>
      </trkpt>
      <trkpt lat="43.841428868472576141357421875" lon="4.26260721869766712188720703125">
        <ele>155.1999969482421875</ele>
        <time>2024-01-27T09:55:09.000Z</time>
        <extensions>
          <ns3:TrackPointExtension>
            <ns3:hr>154</ns3:hr>
            <ns3:cad>92</ns3:cad>
          </ns3:TrackPointExtension>
        </extensions>
      </trkpt>
      <trkpt lat="43.841430880129337310791015625" lon="4.2625777982175350189208984375">
        <ele>155.1999969482421875</ele>
        <time>2024-01-27T09:55:10.000Z</time>
        <extensions>
          <ns3:TrackPointExtension>
            <ns3:hr>153</ns3:hr>
            <ns3:cad>92</ns3:cad>
          </ns3:TrackPointExtension>
        </extensions>
      </trkpt>
      <trkpt lat="43.8414330594241619110107421875" lon="4.262540079653263092041015625">
        <ele>155.1999969482421875</ele>
        <time>2024-01-27T09:55:11.000Z</time>
        <extensions>
          <ns3:TrackPointExtension>
            <ns3:hr>153</ns3:hr>
            <ns3:cad>93</ns3:cad>
          </ns3:TrackPointExtension>
        </extensions>
      </trkpt>
      <trkpt lat="43.84143632836639881134033203125" lon="4.26250881515443325042724609375">
        <ele>155.1999969482421875</ele>
        <time>2024-01-27T09:55:12.000Z</time>
        <extensions>
          <ns3:TrackPointExtension>
            <ns3:hr>153</ns3:hr>
            <ns3:cad>93</ns3:cad>
          </ns3:TrackPointExtension>
        </extensions>
      </trkpt>
      <trkpt lat="43.84143817238509654998779296875" lon="4.26246958784759044647216796875">
        <ele>155.399993896484375</ele>
        <time>2024-01-27T09:55:13.000Z</time>
        <extensions>
          <ns3:TrackPointExtension>
            <ns3:hr>153</ns3:hr>
            <ns3:cad>92</ns3:cad>
          </ns3:TrackPointExtension>
        </extensions>
      </trkpt>
      <trkpt lat="43.8414380885660648345947265625" lon="4.262436144053936004638671875">
        <ele>155.399993896484375</ele>
        <time>2024-01-27T09:55:14.000Z</time>
        <extensions>
          <ns3:TrackPointExtension>
            <ns3:hr>153</ns3:hr>
            <ns3:cad>92</ns3:cad>
          </ns3:TrackPointExtension>
        </extensions>
      </trkpt>
      <trkpt lat="43.8414364121854305267333984375" lon="4.26239767111837863922119140625">
        <ele>155.399993896484375</ele>
        <time>2024-01-27T09:55:15.000Z</time>
        <extensions>
          <ns3:TrackPointExtension>
            <ns3:hr>153</ns3:hr>
            <ns3:cad>92</ns3:cad>
          </ns3:TrackPointExtension>
        </extensions>
      </trkpt>
      <trkpt lat="43.84143314324319362640380859375" lon="4.26237168721854686737060546875">
        <ele>155.600006103515625</ele>
        <time>2024-01-27T09:55:16.000Z</time>
        <extensions>
          <ns3:TrackPointExtension>
            <ns3:hr>153</ns3:hr>
            <ns3:cad>93</ns3:cad>
          </ns3:TrackPointExtension>
        </extensions>
      </trkpt>
      <trkpt lat="43.841432221233844757080078125" lon="4.2623380757868289947509765625">
        <ele>155.8000030517578125</ele>
        <time>2024-01-27T09:55:17.000Z</time>
        <extensions>
          <ns3:TrackPointExtension>
            <ns3:hr>153</ns3:hr>
            <ns3:cad>93</ns3:cad>
          </ns3:TrackPointExtension>
        </extensions>
      </trkpt>
      <trkpt lat="43.84142627008259296417236328125" lon="4.26231251098215579986572265625">
        <ele>156</ele>
        <time>2024-01-27T09:55:18.000Z</time>
        <extensions>
          <ns3:TrackPointExtension>
            <ns3:hr>153</ns3:hr>
            <ns3:cad>93</ns3:cad>
          </ns3:TrackPointExtension>
        </extensions>
      </trkpt>
      <trkpt lat="43.84141302667558193206787109375" lon="4.26229306496679782867431640625">
        <ele>156.1999969482421875</ele>
        <time>2024-01-27T09:55:19.000Z</time>
        <extensions>
          <ns3:TrackPointExtension>
            <ns3:hr>153</ns3:hr>
            <ns3:cad>93</ns3:cad>
          </ns3:TrackPointExtension>
        </extensions>
      </trkpt>
      <trkpt lat="43.841402716934680938720703125" lon="4.2622773908078670501708984375">
        <ele>156.1999969482421875</ele>
        <time>2024-01-27T09:55:20.000Z</time>
        <extensions>
          <ns3:TrackPointExtension>
            <ns3:hr>153</ns3:hr>
            <ns3:cad>93</ns3:cad>
          </ns3:TrackPointExtension>
        </extensions>
      </trkpt>
      <trkpt lat="43.84138922207057476043701171875" lon="4.26226406358182430267333984375">
        <ele>156.399993896484375</ele>
        <time>2024-01-27T09:55:21.000Z</time>
        <extensions>
          <ns3:TrackPointExtension>
            <ns3:hr>153</ns3:hr>
            <ns3:cad>93</ns3:cad>
          </ns3:TrackPointExtension>
        </extensions>
      </trkpt>
      <trkpt lat="43.84137480519711971282958984375" lon="4.26224344410002231597900390625">
        <ele>156.600006103515625</ele>
        <time>2024-01-27T09:55:22.000Z</time>
        <extensions>
          <ns3:TrackPointExtension>
            <ns3:hr>153</ns3:hr>
            <ns3:cad>90</ns3:cad>
          </ns3:TrackPointExtension>
        </extensions>
      </trkpt>
      <trkpt lat="43.84135955013334751129150390625" lon="4.26223070360720157623291015625">
        <ele>156.600006103515625</ele>
        <time>2024-01-27T09:55:23.000Z</time>
        <extensions>
          <ns3:TrackPointExtension>
            <ns3:hr>153</ns3:hr>
            <ns3:cad>88</ns3:cad>
          </ns3:TrackPointExtension>
        </extensions>
      </trkpt>
      <trkpt lat="43.84134429506957530975341796875" lon="4.2622197233140468597412109375">
        <ele>156.8000030517578125</ele>
        <time>2024-01-27T09:55:24.000Z</time>
        <extensions>
          <ns3:TrackPointExtension>
            <ns3:hr>153</ns3:hr>
            <ns3:cad>87</ns3:cad>
          </ns3:TrackPointExtension>
        </extensions>
      </trkpt>
      <trkpt lat="43.84132836945354938507080078125" lon="4.2622146941721439361572265625">
        <ele>157</ele>
        <time>2024-01-27T09:55:25.000Z</time>
        <extensions>
          <ns3:TrackPointExtension>
            <ns3:hr>153</ns3:hr>
            <ns3:cad>86</ns3:cad>
          </ns3:TrackPointExtension>
        </extensions>
      </trkpt>
      <trkpt lat="43.84130909107625484466552734375" lon="4.26219985820353031158447265625">
        <ele>157.1999969482421875</ele>
        <time>2024-01-27T09:55:26.000Z</time>
        <extensions>
          <ns3:TrackPointExtension>
            <ns3:hr>153</ns3:hr>
            <ns3:cad>86</ns3:cad>
          </ns3:TrackPointExtension>
        </extensions>
      </trkpt>
      <trkpt lat="43.84129333309829235076904296875" lon="4.2621942423284053802490234375">
        <ele>157.399993896484375</ele>
        <time>2024-01-27T09:55:27.000Z</time>
        <extensions>
          <ns3:TrackPointExtension>
            <ns3:hr>153</ns3:hr>
            <ns3:cad>87</ns3:cad>
          </ns3:TrackPointExtension>
        </extensions>
      </trkpt>
      <trkpt lat="43.84127564728260040283203125" lon="4.26218208856880664825439453125">
        <ele>157.8000030517578125</ele>
        <time>2024-01-27T09:55:28.000Z</time>
        <extensions>
          <ns3:TrackPointExtension>
            <ns3:hr>153</ns3:hr>
            <ns3:cad>87</ns3:cad>
          </ns3:TrackPointExtension>
        </extensions>
      </trkpt>
      <trkpt lat="43.8412603922188282012939453125" lon="4.262170605361461639404296875">
        <ele>158.1999969482421875</ele>
        <time>2024-01-27T09:55:29.000Z</time>
        <extensions>
          <ns3:TrackPointExtension>
            <ns3:hr>153</ns3:hr>
            <ns3:cad>88</ns3:cad>
          </ns3:TrackPointExtension>
        </extensions>
      </trkpt>
      <trkpt lat="43.8412473164498805999755859375" lon="4.26215845160186290740966796875">
        <ele>158.600006103515625</ele>
        <time>2024-01-27T09:55:30.000Z</time>
        <extensions>
          <ns3:TrackPointExtension>
            <ns3:hr>153</ns3:hr>
            <ns3:cad>88</ns3:cad>
          </ns3:TrackPointExtension>
        </extensions>
      </trkpt>
      <trkpt lat="43.84123415686190128326416015625" lon="4.26214252598583698272705078125">
        <ele>159</ele>
        <time>2024-01-27T09:55:31.000Z</time>
        <extensions>
          <ns3:TrackPointExtension>
            <ns3:hr>153</ns3:hr>
            <ns3:cad>86</ns3:cad>
          </ns3:TrackPointExtension>
        </extensions>
      </trkpt>
      <trkpt lat="43.8412231765687465667724609375" lon="4.26213900558650493621826171875">
        <ele>159.1999969482421875</ele>
        <time>2024-01-27T09:55:32.000Z</time>
        <extensions>
          <ns3:TrackPointExtension>
            <ns3:hr>153</ns3:hr>
            <ns3:cad>84</ns3:cad>
          </ns3:TrackPointExtension>
        </extensions>
      </trkpt>
      <trkpt lat="43.84120331145823001861572265625" lon="4.26212358288466930389404296875">
        <ele>159.600006103515625</ele>
        <time>2024-01-27T09:55:33.000Z</time>
        <extensions>
          <ns3:TrackPointExtension>
            <ns3:hr>153</ns3:hr>
            <ns3:cad>84</ns3:cad>
          </ns3:TrackPointExtension>
        </extensions>
      </trkpt>
      <trkpt lat="43.84118855930864810943603515625" lon="4.2621147818863391876220703125">
        <ele>160</ele>
        <time>2024-01-27T09:55:34.000Z</time>
        <extensions>
          <ns3:TrackPointExtension>
            <ns3:hr>153</ns3:hr>
            <ns3:cad>85</ns3:cad>
          </ns3:TrackPointExtension>
        </extensions>
      </trkpt>
      <trkpt lat="43.84117062203586101531982421875" lon="4.26210111938416957855224609375">
        <ele>160.1999969482421875</ele>
        <time>2024-01-27T09:55:35.000Z</time>
        <extensions>
          <ns3:TrackPointExtension>
            <ns3:hr>153</ns3:hr>
            <ns3:cad>86</ns3:cad>
          </ns3:TrackPointExtension>
        </extensions>
      </trkpt>
      <trkpt lat="43.8411571271717548370361328125" lon="4.262096174061298370361328125">
        <ele>160.600006103515625</ele>
        <time>2024-01-27T09:55:36.000Z</time>
        <extensions>
          <ns3:TrackPointExtension>
            <ns3:hr>153</ns3:hr>
            <ns3:cad>86</ns3:cad>
          </ns3:TrackPointExtension>
        </extensions>
      </trkpt>
      <trkpt lat="43.8411386869847774505615234375" lon="4.2620836012065410614013671875">
        <ele>160.600006103515625</ele>
        <time>2024-01-27T09:55:37.000Z</time>
        <extensions>
          <ns3:TrackPointExtension>
            <ns3:hr>153</ns3:hr>
            <ns3:cad>86</ns3:cad>
          </ns3:TrackPointExtension>
        </extensions>
      </trkpt>
      <trkpt lat="43.8411225937306880950927734375" lon="4.262076728045940399169921875">
        <ele>161</ele>
        <time>2024-01-27T09:55:38.000Z</time>
        <extensions>
          <ns3:TrackPointExtension>
            <ns3:hr>153</ns3:hr>
            <ns3:cad>86</ns3:cad>
          </ns3:TrackPointExtension>
        </extensions>
      </trkpt>
      <trkpt lat="43.841105997562408447265625" lon="4.2620685137808322906494140625">
        <ele>161.1999969482421875</ele>
        <time>2024-01-27T09:55:39.000Z</time>
        <extensions>
          <ns3:TrackPointExtension>
            <ns3:hr>154</ns3:hr>
            <ns3:cad>87</ns3:cad>
          </ns3:TrackPointExtension>
        </extensions>
      </trkpt>
      <trkpt lat="43.84109434671700000762939453125" lon="4.26206625066697597503662109375">
        <ele>161.1999969482421875</ele>
        <time>2024-01-27T09:55:40.000Z</time>
        <extensions>
          <ns3:TrackPointExtension>
            <ns3:hr>154</ns3:hr>
            <ns3:cad>88</ns3:cad>
          </ns3:TrackPointExtension>
        </extensions>
      </trkpt>
      <trkpt lat="43.84107724763453006744384765625" lon="4.262053258717060089111328125">
        <ele>161.600006103515625</ele>
        <time>2024-01-27T09:55:41.000Z</time>
        <extensions>
          <ns3:TrackPointExtension>
            <ns3:hr>155</ns3:hr>
            <ns3:cad>89</ns3:cad>
          </ns3:TrackPointExtension>
        </extensions>
      </trkpt>
      <trkpt lat="43.84105947799980640411376953125" lon="4.2620416916906833648681640625">
        <ele>162</ele>
        <time>2024-01-27T09:55:42.000Z</time>
        <extensions>
          <ns3:TrackPointExtension>
            <ns3:hr>155</ns3:hr>
            <ns3:cad>90</ns3:cad>
          </ns3:TrackPointExtension>
        </extensions>
      </trkpt>
      <trkpt lat="43.84104237891733646392822265625" lon="4.2620276100933551788330078125">
        <ele>162</ele>
        <time>2024-01-27T09:55:43.000Z</time>
        <extensions>
          <ns3:TrackPointExtension>
            <ns3:hr>155</ns3:hr>
            <ns3:cad>90</ns3:cad>
          </ns3:TrackPointExtension>
        </extensions>
      </trkpt>
      <trkpt lat="43.84102628566324710845947265625" lon="4.2620138637721538543701171875">
        <ele>162.1999969482421875</ele>
        <time>2024-01-27T09:55:44.000Z</time>
        <extensions>
          <ns3:TrackPointExtension>
            <ns3:hr>156</ns3:hr>
            <ns3:cad>91</ns3:cad>
          </ns3:TrackPointExtension>
        </extensions>
      </trkpt>
      <trkpt lat="43.8410126231610774993896484375" lon="4.26199651323258876800537109375">
        <ele>162.399993896484375</ele>
        <time>2024-01-27T09:55:45.000Z</time>
        <extensions>
          <ns3:TrackPointExtension>
            <ns3:hr>156</ns3:hr>
            <ns3:cad>92</ns3:cad>
          </ns3:TrackPointExtension>
        </extensions>
      </trkpt>
      <trkpt lat="43.84099443443119525909423828125" lon="4.2619753070175647735595703125">
        <ele>162.600006103515625</ele>
        <time>2024-01-27T09:55:46.000Z</time>
        <extensions>
          <ns3:TrackPointExtension>
            <ns3:hr>156</ns3:hr>
            <ns3:cad>93</ns3:cad>
          </ns3:TrackPointExtension>
        </extensions>
      </trkpt>
      <trkpt lat="43.84097750298678874969482421875" lon="4.261956028640270233154296875">
        <ele>162.8000030517578125</ele>
        <time>2024-01-27T09:55:47.000Z</time>
        <extensions>
          <ns3:TrackPointExtension>
            <ns3:hr>156</ns3:hr>
            <ns3:cad>93</ns3:cad>
          </ns3:TrackPointExtension>
        </extensions>
      </trkpt>
      <trkpt lat="43.8409596495330333709716796875" lon="4.26193155348300933837890625">
        <ele>163</ele>
        <time>2024-01-27T09:55:48.000Z</time>
        <extensions>
          <ns3:TrackPointExtension>
            <ns3:hr>157</ns3:hr>
            <ns3:cad>93</ns3:cad>
          </ns3:TrackPointExtension>
        </extensions>
      </trkpt>
      <trkpt lat="43.84094464592635631561279296875" lon="4.26191034726798534393310546875">
        <ele>163.1999969482421875</ele>
        <time>2024-01-27T09:55:49.000Z</time>
        <extensions>
          <ns3:TrackPointExtension>
            <ns3:hr>157</ns3:hr>
            <ns3:cad>93</ns3:cad>
          </ns3:TrackPointExtension>
        </extensions>
      </trkpt>
      <trkpt lat="43.840927295386791229248046875" lon="4.26188000477850437164306640625">
        <ele>163.1999969482421875</ele>
        <time>2024-01-27T09:55:50.000Z</time>
        <extensions>
          <ns3:TrackPointExtension>
            <ns3:hr>157</ns3:hr>
            <ns3:cad>93</ns3:cad>
          </ns3:TrackPointExtension>
        </extensions>
      </trkpt>
      <trkpt lat="43.8409163989126682281494140625" lon="4.2618606425821781158447265625">
        <ele>163.399993896484375</ele>
        <time>2024-01-27T09:55:51.000Z</time>
        <extensions>
          <ns3:TrackPointExtension>
            <ns3:hr>158</ns3:hr>
            <ns3:cad>93</ns3:cad>
          </ns3:TrackPointExtension>
        </extensions>
      </trkpt>
      <trkpt lat="43.84090458042919635772705078125" lon="4.26183105446398258209228515625">
        <ele>163.399993896484375</ele>
        <time>2024-01-27T09:55:52.000Z</time>
        <extensions>
          <ns3:TrackPointExtension>
            <ns3:hr>158</ns3:hr>
            <ns3:cad>92</ns3:cad>
          </ns3:TrackPointExtension>
        </extensions>
      </trkpt>
      <trkpt lat="43.84089368395507335662841796875" lon="4.26180624403059482574462890625">
        <ele>163.600006103515625</ele>
        <time>2024-01-27T09:55:53.000Z</time>
        <extensions>
          <ns3:TrackPointExtension>
            <ns3:hr>158</ns3:hr>
            <ns3:cad>92</ns3:cad>
          </ns3:TrackPointExtension>
        </extensions>
      </trkpt>
      <trkpt lat="43.8408815301954746246337890625" lon="4.2617741413414478302001953125">
        <ele>163.8000030517578125</ele>
        <time>2024-01-27T09:55:54.000Z</time>
        <extensions>
          <ns3:TrackPointExtension>
            <ns3:hr>158</ns3:hr>
            <ns3:cad>92</ns3:cad>
          </ns3:TrackPointExtension>
        </extensions>
      </trkpt>
      <trkpt lat="43.84086929261684417724609375" lon="4.26174941472709178924560546875">
        <ele>163.8000030517578125</ele>
        <time>2024-01-27T09:55:55.000Z</time>
        <extensions>
          <ns3:TrackPointExtension>
            <ns3:hr>158</ns3:hr>
            <ns3:cad>92</ns3:cad>
          </ns3:TrackPointExtension>
        </extensions>
      </trkpt>
      <trkpt lat="43.84085596539080142974853515625" lon="4.26171672530472278594970703125">
        <ele>163.8000030517578125</ele>
        <time>2024-01-27T09:55:56.000Z</time>
        <extensions>
          <ns3:TrackPointExtension>
            <ns3:hr>158</ns3:hr>
            <ns3:cad>93</ns3:cad>
          </ns3:TrackPointExtension>
        </extensions>
      </trkpt>
      <trkpt lat="43.84084112942218780517578125" lon="4.26169124431908130645751953125">
        <ele>164</ele>
        <time>2024-01-27T09:55:57.000Z</time>
        <extensions>
          <ns3:TrackPointExtension>
            <ns3:hr>158</ns3:hr>
            <ns3:cad>93</ns3:cad>
          </ns3:TrackPointExtension>
        </extensions>
      </trkpt>
      <trkpt lat="43.84082746692001819610595703125" lon="4.261664338409900665283203125">
        <ele>164</ele>
        <time>2024-01-27T09:55:58.000Z</time>
        <extensions>
          <ns3:TrackPointExtension>
            <ns3:hr>157</ns3:hr>
            <ns3:cad>91</ns3:cad>
          </ns3:TrackPointExtension>
        </extensions>
      </trkpt>
      <trkpt lat="43.8408154807984828948974609375" lon="4.261642880737781524658203125">
        <ele>164</ele>
        <time>2024-01-27T09:55:59.000Z</time>
        <extensions>
          <ns3:TrackPointExtension>
            <ns3:hr>157</ns3:hr>
            <ns3:cad>91</ns3:cad>
          </ns3:TrackPointExtension>
        </extensions>
      </trkpt>
      <trkpt lat="43.84080491960048675537109375" lon="4.2616209201514720916748046875">
        <ele>164</ele>
        <time>2024-01-27T09:56:00.000Z</time>
        <extensions>
          <ns3:TrackPointExtension>
            <ns3:hr>156</ns3:hr>
            <ns3:cad>93</ns3:cad>
          </ns3:TrackPointExtension>
        </extensions>
      </trkpt>
      <trkpt lat="43.84080064482986927032470703125" lon="4.2616091854870319366455078125">
        <ele>164</ele>
        <time>2024-01-27T09:56:01.000Z</time>
        <extensions>
          <ns3:TrackPointExtension>
            <ns3:hr>156</ns3:hr>
            <ns3:cad>93</ns3:cad>
          </ns3:TrackPointExtension>
        </extensions>
      </trkpt>
      <trkpt lat="43.8407967053353786468505859375" lon="4.26159719936549663543701171875">
        <ele>164</ele>
        <time>2024-01-27T09:56:02.000Z</time>
        <extensions>
          <ns3:TrackPointExtension>
            <ns3:hr>156</ns3:hr>
            <ns3:cad>91</ns3:cad>
          </ns3:TrackPointExtension>
        </extensions>
      </trkpt>
      <trkpt lat="43.84079092182219028472900390625" lon="4.26158663816750049591064453125">
        <ele>164</ele>
        <time>2024-01-27T09:56:03.000Z</time>
        <extensions>
          <ns3:TrackPointExtension>
            <ns3:hr>156</ns3:hr>
            <ns3:cad>91</ns3:cad>
          </ns3:TrackPointExtension>
        </extensions>
      </trkpt>
      <trkpt lat="43.84078304283320903778076171875" lon="4.261575825512409210205078125">
        <ele>164</ele>
        <time>2024-01-27T09:56:04.000Z</time>
        <extensions>
          <ns3:TrackPointExtension>
            <ns3:hr>156</ns3:hr>
            <ns3:cad>91</ns3:cad>
          </ns3:TrackPointExtension>
        </extensions>
      </trkpt>
      <trkpt lat="43.8407765887677669525146484375" lon="4.26156300120055675506591796875">
        <ele>164</ele>
        <time>2024-01-27T09:56:05.000Z</time>
        <extensions>
          <ns3:TrackPointExtension>
            <ns3:hr>156</ns3:hr>
            <ns3:cad>91</ns3:cad>
          </ns3:TrackPointExtension>
        </extensions>
      </trkpt>
      <trkpt lat="43.84076979942619800567626953125" lon="4.261551685631275177001953125">
        <ele>164</ele>
        <time>2024-01-27T09:56:06.000Z</time>
        <extensions>
          <ns3:TrackPointExtension>
            <ns3:hr>156</ns3:hr>
            <ns3:cad>57</ns3:cad>
          </ns3:TrackPointExtension>
        </extensions>
      </trkpt>
      <trkpt lat="43.84076979942619800567626953125" lon="4.261551685631275177001953125">
        <ele>164</ele>
        <time>2024-01-27T09:56:07.000Z</time>
        <extensions>
          <ns3:TrackPointExtension>
            <ns3:hr>156</ns3:hr>
            <ns3:cad>57</ns3:cad>
          </ns3:TrackPointExtension>
        </extensions>
      </trkpt>
      <trkpt lat="43.84075789712369441986083984375" lon="4.26153534092009067535400390625">
        <ele>164</ele>
        <time>2024-01-27T09:56:08.000Z</time>
        <extensions>
          <ns3:TrackPointExtension>
            <ns3:hr>156</ns3:hr>
            <ns3:cad>55</ns3:cad>
          </ns3:TrackPointExtension>
        </extensions>
      </trkpt>
      <trkpt lat="43.8407521136105060577392578125" lon="4.2615253664553165435791015625">
        <ele>164</ele>
        <time>2024-01-27T09:56:09.000Z</time>
        <extensions>
          <ns3:TrackPointExtension>
            <ns3:hr>156</ns3:hr>
            <ns3:cad>54</ns3:cad>
          </ns3:TrackPointExtension>
        </extensions>
      </trkpt>
      <trkpt lat="43.8407521136105060577392578125" lon="4.2615253664553165435791015625">
        <ele>164.1999969482421875</ele>
        <time>2024-01-27T09:56:10.000Z</time>
        <extensions>
          <ns3:TrackPointExtension>
            <ns3:hr>156</ns3:hr>
            <ns3:cad>53</ns3:cad>
          </ns3:TrackPointExtension>
        </extensions>
      </trkpt>
      <trkpt lat="43.8407410494983196258544921875" lon="4.26150315441191196441650390625">
        <ele>164.1999969482421875</ele>
        <time>2024-01-27T09:56:11.000Z</time>
        <extensions>
          <ns3:TrackPointExtension>
            <ns3:hr>156</ns3:hr>
            <ns3:cad>53</ns3:cad>
          </ns3:TrackPointExtension>
        </extensions>
      </trkpt>
      <trkpt lat="43.84073493070900440216064453125" lon="4.26149024628102779388427734375">
        <ele>164.399993896484375</ele>
        <time>2024-01-27T09:56:12.000Z</time>
        <extensions>
          <ns3:TrackPointExtension>
            <ns3:hr>156</ns3:hr>
            <ns3:cad>53</ns3:cad>
          </ns3:TrackPointExtension>
        </extensions>
      </trkpt>
      <trkpt lat="43.84073493070900440216064453125" lon="4.26149024628102779388427734375">
        <ele>164.399993896484375</ele>
        <time>2024-01-27T09:56:13.000Z</time>
        <extensions>
          <ns3:TrackPointExtension>
            <ns3:hr>155</ns3:hr>
            <ns3:cad>53</ns3:cad>
          </ns3:TrackPointExtension>
        </extensions>
      </trkpt>
      <trkpt lat="43.8407232798635959625244140625" lon="4.26146887242794036865234375">
        <ele>164.399993896484375</ele>
        <time>2024-01-27T09:56:14.000Z</time>
        <extensions>
          <ns3:TrackPointExtension>
            <ns3:hr>155</ns3:hr>
            <ns3:cad>53</ns3:cad>
          </ns3:TrackPointExtension>
        </extensions>
      </trkpt>
      <trkpt lat="43.84071732871234416961669921875" lon="4.2614606581628322601318359375">
        <ele>164.399993896484375</ele>
        <time>2024-01-27T09:56:15.000Z</time>
        <extensions>
          <ns3:TrackPointExtension>
            <ns3:hr>154</ns3:hr>
            <ns3:cad>52</ns3:cad>
          </ns3:TrackPointExtension>
        </extensions>
      </trkpt>
      <trkpt lat="43.84071297012269496917724609375" lon="4.261451102793216705322265625">
        <ele>164.399993896484375</ele>
        <time>2024-01-27T09:56:16.000Z</time>
        <extensions>
          <ns3:TrackPointExtension>
            <ns3:hr>154</ns3:hr>
            <ns3:cad>51</ns3:cad>
          </ns3:TrackPointExtension>
        </extensions>
      </trkpt>
      <trkpt lat="43.84071297012269496917724609375" lon="4.261451102793216705322265625">
        <ele>164.399993896484375</ele>
        <time>2024-01-27T09:56:17.000Z</time>
        <extensions>
          <ns3:TrackPointExtension>
            <ns3:hr>153</ns3:hr>
            <ns3:cad>0</ns3:cad>
          </ns3:TrackPointExtension>
        </extensions>
      </trkpt>
      <trkpt lat="43.84071297012269496917724609375" lon="4.261451102793216705322265625">
        <ele>164.399993896484375</ele>
        <time>2024-01-27T09:56:18.000Z</time>
        <extensions>
          <ns3:TrackPointExtension>
            <ns3:hr>153</ns3:hr>
            <ns3:cad>0</ns3:cad>
          </ns3:TrackPointExtension>
        </extensions>
      </trkpt>
      <trkpt lat="43.84071297012269496917724609375" lon="4.261451102793216705322265625">
        <ele>164.399993896484375</ele>
        <time>2024-01-27T09:56:19.000Z</time>
        <extensions>
          <ns3:TrackPointExtension>
            <ns3:hr>153</ns3:hr>
            <ns3:cad>0</ns3:cad>
          </ns3:TrackPointExtension>
        </extensions>
      </trkpt>
      <trkpt lat="43.84071297012269496917724609375" lon="4.261451102793216705322265625">
        <ele>164.399993896484375</ele>
        <time>2024-01-27T09:56:20.000Z</time>
        <extensions>
          <ns3:TrackPointExtension>
            <ns3:hr>154</ns3:hr>
            <ns3:cad>0</ns3:cad>
          </ns3:TrackPointExtension>
        </extensions>
      </trkpt>
      <trkpt lat="43.84071297012269496917724609375" lon="4.261451102793216705322265625">
        <ele>164.399993896484375</ele>
        <time>2024-01-27T09:56:21.000Z</time>
        <extensions>
          <ns3:TrackPointExtension>
            <ns3:hr>154</ns3:hr>
            <ns3:cad>0</ns3:cad>
          </ns3:TrackPointExtension>
        </extensions>
      </trkpt>
      <trkpt lat="43.84071297012269496917724609375" lon="4.261451102793216705322265625">
        <ele>164.399993896484375</ele>
        <time>2024-01-27T09:56:22.000Z</time>
        <extensions>
          <ns3:TrackPointExtension>
            <ns3:hr>155</ns3:hr>
            <ns3:cad>0</ns3:cad>
          </ns3:TrackPointExtension>
        </extensions>
      </trkpt>
      <trkpt lat="43.84071297012269496917724609375" lon="4.261451102793216705322265625">
        <ele>164.399993896484375</ele>
        <time>2024-01-27T09:56:23.000Z</time>
        <extensions>
          <ns3:TrackPointExtension>
            <ns3:hr>155</ns3:hr>
            <ns3:cad>0</ns3:cad>
          </ns3:TrackPointExtension>
        </extensions>
      </trkpt>
      <trkpt lat="43.84071297012269496917724609375" lon="4.261451102793216705322265625">
        <ele>164.399993896484375</ele>
        <time>2024-01-27T09:56:24.000Z</time>
        <extensions>
          <ns3:TrackPointExtension>
            <ns3:hr>155</ns3:hr>
            <ns3:cad>0</ns3:cad>
          </ns3:TrackPointExtension>
        </extensions>
      </trkpt>
      <trkpt lat="43.84070525877177715301513671875" lon="4.26143802702426910400390625">
        <ele>164.399993896484375</ele>
        <time>2024-01-27T09:56:25.000Z</time>
        <extensions>
          <ns3:TrackPointExtension>
            <ns3:hr>155</ns3:hr>
            <ns3:cad>0</ns3:cad>
          </ns3:TrackPointExtension>
        </extensions>
      </trkpt>
      <trkpt lat="43.84070492349565029144287109375" lon="4.2614381946623325347900390625">
        <ele>164.399993896484375</ele>
        <time>2024-01-27T09:56:26.000Z</time>
        <extensions>
          <ns3:TrackPointExtension>
            <ns3:hr>155</ns3:hr>
            <ns3:cad>0</ns3:cad>
          </ns3:TrackPointExtension>
        </extensions>
      </trkpt>
      <trkpt lat="43.8407051749527454376220703125" lon="4.26143693737685680389404296875">
        <ele>164.399993896484375</ele>
        <time>2024-01-27T09:56:27.000Z</time>
        <extensions>
          <ns3:TrackPointExtension>
            <ns3:hr>155</ns3:hr>
            <ns3:cad>0</ns3:cad>
          </ns3:TrackPointExtension>
        </extensions>
      </trkpt>
      <trkpt lat="43.84070509113371372222900390625" lon="4.261438362300395965576171875">
        <ele>164.399993896484375</ele>
        <time>2024-01-27T09:56:28.000Z</time>
        <extensions>
          <ns3:TrackPointExtension>
            <ns3:hr>154</ns3:hr>
            <ns3:cad>0</ns3:cad>
          </ns3:TrackPointExtension>
        </extensions>
      </trkpt>
      <trkpt lat="43.84070173837244510650634765625" lon="4.2614331655204296112060546875">
        <ele>164.399993896484375</ele>
        <time>2024-01-27T09:56:29.000Z</time>
        <extensions>
          <ns3:TrackPointExtension>
            <ns3:hr>154</ns3:hr>
            <ns3:cad>0</ns3:cad>
          </ns3:TrackPointExtension>
        </extensions>
      </trkpt>
      <trkpt lat="43.8407021574676036834716796875" lon="4.261432997882366180419921875">
        <ele>164.399993896484375</ele>
        <time>2024-01-27T09:56:30.000Z</time>
        <extensions>
          <ns3:TrackPointExtension>
            <ns3:hr>154</ns3:hr>
            <ns3:cad>0</ns3:cad>
          </ns3:TrackPointExtension>
        </extensions>
      </trkpt>
      <trkpt lat="43.84070173837244510650634765625" lon="4.26143308170139789581298828125">
        <ele>164.399993896484375</ele>
        <time>2024-01-27T09:56:31.000Z</time>
        <extensions>
          <ns3:TrackPointExtension>
            <ns3:hr>153</ns3:hr>
            <ns3:cad>0</ns3:cad>
          </ns3:TrackPointExtension>
        </extensions>
      </trkpt>
      <trkpt lat="43.84070165455341339111328125" lon="4.2614335007965564727783203125">
        <ele>164.399993896484375</ele>
        <time>2024-01-27T09:56:32.000Z</time>
        <extensions>
          <ns3:TrackPointExtension>
            <ns3:hr>153</ns3:hr>
            <ns3:cad>0</ns3:cad>
          </ns3:TrackPointExtension>
        </extensions>
      </trkpt>
      <trkpt lat="43.840701319277286529541015625" lon="4.26143375225365161895751953125">
        <ele>164.399993896484375</ele>
        <time>2024-01-27T09:56:33.000Z</time>
        <extensions>
          <ns3:TrackPointExtension>
            <ns3:hr>153</ns3:hr>
            <ns3:cad>0</ns3:cad>
          </ns3:TrackPointExtension>
        </extensions>
      </trkpt>
      <trkpt lat="43.84070140309631824493408203125" lon="4.2614338360726833343505859375">
        <ele>164.399993896484375</ele>
        <time>2024-01-27T09:56:34.000Z</time>
        <extensions>
          <ns3:TrackPointExtension>
            <ns3:hr>152</ns3:hr>
            <ns3:cad>0</ns3:cad>
          </ns3:TrackPointExtension>
        </extensions>
      </trkpt>
      <trkpt lat="43.840701319277286529541015625" lon="4.26143391989171504974365234375">
        <ele>164.399993896484375</ele>
        <time>2024-01-27T09:56:35.000Z</time>
        <extensions>
          <ns3:TrackPointExtension>
            <ns3:hr>152</ns3:hr>
            <ns3:cad>0</ns3:cad>
          </ns3:TrackPointExtension>
        </extensions>
      </trkpt>
      <trkpt lat="43.84070123545825481414794921875" lon="4.26143459044396877288818359375">
        <ele>164.1999969482421875</ele>
        <time>2024-01-27T09:56:36.000Z</time>
        <extensions>
          <ns3:TrackPointExtension>
            <ns3:hr>152</ns3:hr>
            <ns3:cad>0</ns3:cad>
          </ns3:TrackPointExtension>
        </extensions>
      </trkpt>
      <trkpt lat="43.840701319277286529541015625" lon="4.261434338986873626708984375">
        <ele>164.1999969482421875</ele>
        <time>2024-01-27T09:56:37.000Z</time>
        <extensions>
          <ns3:TrackPointExtension>
            <ns3:hr>151</ns3:hr>
            <ns3:cad>0</ns3:cad>
          </ns3:TrackPointExtension>
        </extensions>
      </trkpt>
      <trkpt lat="43.84070140309631824493408203125" lon="4.2614345066249370574951171875">
        <ele>164.1999969482421875</ele>
        <time>2024-01-27T09:56:38.000Z</time>
        <extensions>
          <ns3:TrackPointExtension>
            <ns3:hr>151</ns3:hr>
            <ns3:cad>0</ns3:cad>
          </ns3:TrackPointExtension>
        </extensions>
      </trkpt>
      <trkpt lat="43.84070165455341339111328125" lon="4.2614324949681758880615234375">
        <ele>164.1999969482421875</ele>
        <time>2024-01-27T09:56:39.000Z</time>
        <extensions>
          <ns3:TrackPointExtension>
            <ns3:hr>150</ns3:hr>
            <ns3:cad>0</ns3:cad>
          </ns3:TrackPointExtension>
        </extensions>
      </trkpt>
      <trkpt lat="43.8407024927437305450439453125" lon="4.26142553798854351043701171875">
        <ele>164.1999969482421875</ele>
        <time>2024-01-27T09:56:40.000Z</time>
        <extensions>
          <ns3:TrackPointExtension>
            <ns3:hr>149</ns3:hr>
            <ns3:cad>0</ns3:cad>
          </ns3:TrackPointExtension>
        </extensions>
      </trkpt>
      <trkpt lat="43.8407031632959842681884765625" lon="4.261416234076023101806640625">
        <ele>164.1999969482421875</ele>
        <time>2024-01-27T09:56:41.000Z</time>
        <extensions>
          <ns3:TrackPointExtension>
            <ns3:hr>149</ns3:hr>
            <ns3:cad>0</ns3:cad>
          </ns3:TrackPointExtension>
        </extensions>
      </trkpt>
      <trkpt lat="43.84070039726793766021728515625" lon="4.26140743307769298553466796875">
        <ele>164.1999969482421875</ele>
        <time>2024-01-27T09:56:42.000Z</time>
        <extensions>
          <ns3:TrackPointExtension>
            <ns3:hr>148</ns3:hr>
            <ns3:cad>0</ns3:cad>
          </ns3:TrackPointExtension>
        </extensions>
      </trkpt>
      <trkpt lat="43.840698637068271636962890625" lon="4.2613962851464748382568359375">
        <ele>164.1999969482421875</ele>
        <time>2024-01-27T09:56:43.000Z</time>
        <extensions>
          <ns3:TrackPointExtension>
            <ns3:hr>147</ns3:hr>
            <ns3:cad>0</ns3:cad>
          </ns3:TrackPointExtension>
        </extensions>
      </trkpt>
      <trkpt lat="43.8406961224973201751708984375" lon="4.2613862268626689910888671875">
        <ele>164.399993896484375</ele>
        <time>2024-01-27T09:56:44.000Z</time>
        <extensions>
          <ns3:TrackPointExtension>
            <ns3:hr>146</ns3:hr>
            <ns3:cad>0</ns3:cad>
          </ns3:TrackPointExtension>
        </extensions>
      </trkpt>
      <trkpt lat="43.8406967930495738983154296875" lon="4.26137742586433887481689453125">
        <ele>164.399993896484375</ele>
        <time>2024-01-27T09:56:45.000Z</time>
        <extensions>
          <ns3:TrackPointExtension>
            <ns3:hr>144</ns3:hr>
            <ns3:cad>0</ns3:cad>
          </ns3:TrackPointExtension>
        </extensions>
      </trkpt>
      <trkpt lat="43.84069503284990787506103515625" lon="4.26137139089405536651611328125">
        <ele>164.399993896484375</ele>
        <time>2024-01-27T09:56:46.000Z</time>
        <extensions>
          <ns3:TrackPointExtension>
            <ns3:hr>144</ns3:hr>
            <ns3:cad>0</ns3:cad>
          </ns3:TrackPointExtension>
        </extensions>
      </trkpt>
      <trkpt lat="43.8406937755644321441650390625" lon="4.26136351190507411956787109375">
        <ele>164.399993896484375</ele>
        <time>2024-01-27T09:56:47.000Z</time>
        <extensions>
          <ns3:TrackPointExtension>
            <ns3:hr>143</ns3:hr>
            <ns3:cad>0</ns3:cad>
          </ns3:TrackPointExtension>
        </extensions>
      </trkpt>
      <trkpt lat="43.84069168008863925933837890625" lon="4.26135311834514141082763671875">
        <ele>164.399993896484375</ele>
        <time>2024-01-27T09:56:48.000Z</time>
        <extensions>
          <ns3:TrackPointExtension>
            <ns3:hr>142</ns3:hr>
            <ns3:cad>0</ns3:cad>
          </ns3:TrackPointExtension>
        </extensions>
      </trkpt>
      <trkpt lat="43.84068958461284637451171875" lon="4.261344484984874725341796875">
        <ele>164.399993896484375</ele>
        <time>2024-01-27T09:56:49.000Z</time>
        <extensions>
          <ns3:TrackPointExtension>
            <ns3:hr>142</ns3:hr>
            <ns3:cad>0</ns3:cad>
          </ns3:TrackPointExtension>
        </extensions>
      </trkpt>
      <trkpt lat="43.8406887464225292205810546875" lon="4.2613342590630054473876953125">
        <ele>164.399993896484375</ele>
        <time>2024-01-27T09:56:50.000Z</time>
        <extensions>
          <ns3:TrackPointExtension>
            <ns3:hr>141</ns3:hr>
            <ns3:cad>0</ns3:cad>
          </ns3:TrackPointExtension>
        </extensions>
      </trkpt>
      <trkpt lat="43.84068815968930721282958984375" lon="4.261325038969516754150390625">
        <ele>164.399993896484375</ele>
        <time>2024-01-27T09:56:51.000Z</time>
        <extensions>
          <ns3:TrackPointExtension>
            <ns3:hr>141</ns3:hr>
            <ns3:cad>0</ns3:cad>
          </ns3:TrackPointExtension>
        </extensions>
      </trkpt>
      <trkpt lat="43.84068715386092662811279296875" lon="4.26131489686667919158935546875">
        <ele>164.399993896484375</ele>
        <time>2024-01-27T09:56:52.000Z</time>
        <extensions>
          <ns3:TrackPointExtension>
            <ns3:hr>140</ns3:hr>
            <ns3:cad>0</ns3:cad>
          </ns3:TrackPointExtension>
        </extensions>
      </trkpt>
      <trkpt lat="43.84068681858479976654052734375" lon="4.26130525767803192138671875">
        <ele>164.399993896484375</ele>
        <time>2024-01-27T09:56:53.000Z</time>
        <extensions>
          <ns3:TrackPointExtension>
            <ns3:hr>139</ns3:hr>
            <ns3:cad>0</ns3:cad>
          </ns3:TrackPointExtension>
        </extensions>
      </trkpt>
      <trkpt lat="43.840686567127704620361328125" lon="4.2612906731665134429931640625">
        <ele>164.399993896484375</ele>
        <time>2024-01-27T09:56:54.000Z</time>
        <extensions>
          <ns3:TrackPointExtension>
            <ns3:hr>137</ns3:hr>
            <ns3:cad>0</ns3:cad>
          </ns3:TrackPointExtension>
        </extensions>
      </trkpt>
      <trkpt lat="43.8406862318515777587890625" lon="4.2612782679498195648193359375">
        <ele>164.399993896484375</ele>
        <time>2024-01-27T09:56:55.000Z</time>
        <extensions>
          <ns3:TrackPointExtension>
            <ns3:hr>137</ns3:hr>
            <ns3:cad>0</ns3:cad>
          </ns3:TrackPointExtension>
        </extensions>
      </trkpt>
      <trkpt lat="43.84069000370800495147705078125" lon="4.26125940866768360137939453125">
        <ele>164.399993896484375</ele>
        <time>2024-01-27T09:56:56.000Z</time>
        <extensions>
          <ns3:TrackPointExtension>
            <ns3:hr>136</ns3:hr>
            <ns3:cad>0</ns3:cad>
          </ns3:TrackPointExtension>
        </extensions>
      </trkpt>
      <trkpt lat="43.840685896575450897216796875" lon="4.26123677752912044525146484375">
        <ele>164.399993896484375</ele>
        <time>2024-01-27T09:56:57.000Z</time>
        <extensions>
          <ns3:TrackPointExtension>
            <ns3:hr>135</ns3:hr>
            <ns3:cad>44</ns3:cad>
          </ns3:TrackPointExtension>
        </extensions>
      </trkpt>
      <trkpt lat="43.84068178944289684295654296875" lon="4.261217750608921051025390625">
        <ele>164.399993896484375</ele>
        <time>2024-01-27T09:56:58.000Z</time>
        <extensions>
          <ns3:TrackPointExtension>
            <ns3:hr>133</ns3:hr>
            <ns3:cad>44</ns3:cad>
          </ns3:TrackPointExtension>
        </extensions>
      </trkpt>
      <trkpt lat="43.8406746648252010345458984375" lon="4.26119067706167697906494140625">
        <ele>164.399993896484375</ele>
        <time>2024-01-27T09:56:59.000Z</time>
        <extensions>
          <ns3:TrackPointExtension>
            <ns3:hr>132</ns3:hr>
            <ns3:cad>44</ns3:cad>
          </ns3:TrackPointExtension>
        </extensions>
      </trkpt>
      <trkpt lat="43.84066536091268062591552734375" lon="4.26116670481860637664794921875">
        <ele>164.1999969482421875</ele>
        <time>2024-01-27T09:57:00.000Z</time>
        <extensions>
          <ns3:TrackPointExtension>
            <ns3:hr>131</ns3:hr>
            <ns3:cad>44</ns3:cad>
          </ns3:TrackPointExtension>
        </extensions>
      </trkpt>
      <trkpt lat="43.84064356796443462371826171875" lon="4.261142648756504058837890625">
        <ele>164</ele>
        <time>2024-01-27T09:57:01.000Z</time>
        <extensions>
          <ns3:TrackPointExtension>
            <ns3:hr>131</ns3:hr>
            <ns3:cad>44</ns3:cad>
          </ns3:TrackPointExtension>
        </extensions>
      </trkpt>
      <trkpt lat="43.84062630124390125274658203125" lon="4.261131249368190765380859375">
        <ele>163.8000030517578125</ele>
        <time>2024-01-27T09:57:02.000Z</time>
        <extensions>
          <ns3:TrackPointExtension>
            <ns3:hr>130</ns3:hr>
            <ns3:cad>44</ns3:cad>
          </ns3:TrackPointExtension>
        </extensions>
      </trkpt>
      <trkpt lat="43.84060509502887725830078125" lon="4.2611170001327991485595703125">
        <ele>163.8000030517578125</ele>
        <time>2024-01-27T09:57:03.000Z</time>
        <extensions>
          <ns3:TrackPointExtension>
            <ns3:hr>130</ns3:hr>
            <ns3:cad>83</ns3:cad>
          </ns3:TrackPointExtension>
        </extensions>
      </trkpt>
      <trkpt lat="43.84058271534740924835205078125" lon="4.26110149361193180084228515625">
        <ele>163.8000030517578125</ele>
        <time>2024-01-27T09:57:04.000Z</time>
        <extensions>
          <ns3:TrackPointExtension>
            <ns3:hr>130</ns3:hr>
            <ns3:cad>85</ns3:cad>
          </ns3:TrackPointExtension>
        </extensions>
      </trkpt>
      <trkpt lat="43.84056176058948040008544921875" lon="4.2610921896994113922119140625">
        <ele>163.8000030517578125</ele>
        <time>2024-01-27T09:57:05.000Z</time>
        <extensions>
          <ns3:TrackPointExtension>
            <ns3:hr>129</ns3:hr>
            <ns3:cad>88</ns3:cad>
          </ns3:TrackPointExtension>
        </extensions>
      </trkpt>
      <trkpt lat="43.840534687042236328125" lon="4.261083640158176422119140625">
        <ele>163.600006103515625</ele>
        <time>2024-01-27T09:57:06.000Z</time>
        <extensions>
          <ns3:TrackPointExtension>
            <ns3:hr>129</ns3:hr>
            <ns3:cad>88</ns3:cad>
          </ns3:TrackPointExtension>
        </extensions>
      </trkpt>
      <trkpt lat="43.84050828404724597930908203125" lon="4.2610861547291278839111328125">
        <ele>163.600006103515625</ele>
        <time>2024-01-27T09:57:07.000Z</time>
        <extensions>
          <ns3:TrackPointExtension>
            <ns3:hr>129</ns3:hr>
            <ns3:cad>89</ns3:cad>
          </ns3:TrackPointExtension>
        </extensions>
      </trkpt>
      <trkpt lat="43.8404771871864795684814453125" lon="4.26108020357787609100341796875">
        <ele>163.600006103515625</ele>
        <time>2024-01-27T09:57:08.000Z</time>
        <extensions>
          <ns3:TrackPointExtension>
            <ns3:hr>129</ns3:hr>
            <ns3:cad>89</ns3:cad>
          </ns3:TrackPointExtension>
        </extensions>
      </trkpt>
      <trkpt lat="43.84045220911502838134765625" lon="4.26107936538755893707275390625">
        <ele>163.399993896484375</ele>
        <time>2024-01-27T09:57:09.000Z</time>
        <extensions>
          <ns3:TrackPointExtension>
            <ns3:hr>129</ns3:hr>
            <ns3:cad>88</ns3:cad>
          </ns3:TrackPointExtension>
        </extensions>
      </trkpt>
      <trkpt lat="43.8404255546629428863525390625" lon="4.26107056438922882080078125">
        <ele>163</ele>
        <time>2024-01-27T09:57:10.000Z</time>
        <extensions>
          <ns3:TrackPointExtension>
            <ns3:hr>130</ns3:hr>
            <ns3:cad>88</ns3:cad>
          </ns3:TrackPointExtension>
        </extensions>
      </trkpt>
      <trkpt lat="43.84040124714374542236328125" lon="4.2610631883144378662109375">
        <ele>162.8000030517578125</ele>
        <time>2024-01-27T09:57:11.000Z</time>
        <extensions>
          <ns3:TrackPointExtension>
            <ns3:hr>130</ns3:hr>
            <ns3:cad>87</ns3:cad>
          </ns3:TrackPointExtension>
        </extensions>
      </trkpt>
      <trkpt lat="43.8403742574155330657958984375" lon="4.261051453649997711181640625">
        <ele>162.8000030517578125</ele>
        <time>2024-01-27T09:57:12.000Z</time>
        <extensions>
          <ns3:TrackPointExtension>
            <ns3:hr>130</ns3:hr>
            <ns3:cad>87</ns3:cad>
          </ns3:TrackPointExtension>
        </extensions>
      </trkpt>
      <trkpt lat="43.84035003371536731719970703125" lon="4.26103980280458927154541015625">
        <ele>162.600006103515625</ele>
        <time>2024-01-27T09:57:13.000Z</time>
        <extensions>
          <ns3:TrackPointExtension>
            <ns3:hr>131</ns3:hr>
            <ns3:cad>88</ns3:cad>
          </ns3:TrackPointExtension>
        </extensions>
      </trkpt>
      <trkpt lat="43.840323127806186676025390625" lon="4.261024631559848785400390625">
        <ele>162.600006103515625</ele>
        <time>2024-01-27T09:57:14.000Z</time>
        <extensions>
          <ns3:TrackPointExtension>
            <ns3:hr>131</ns3:hr>
            <ns3:cad>88</ns3:cad>
          </ns3:TrackPointExtension>
        </extensions>
      </trkpt>
      <trkpt lat="43.840301670134067535400390625" lon="4.2610108852386474609375">
        <ele>162.1999969482421875</ele>
        <time>2024-01-27T09:57:15.000Z</time>
        <extensions>
          <ns3:TrackPointExtension>
            <ns3:hr>132</ns3:hr>
            <ns3:cad>88</ns3:cad>
          </ns3:TrackPointExtension>
        </extensions>
      </trkpt>
      <trkpt lat="43.84027241729199886322021484375" lon="4.260992445051670074462890625">
        <ele>162.1999969482421875</ele>
        <time>2024-01-27T09:57:16.000Z</time>
        <extensions>
          <ns3:TrackPointExtension>
            <ns3:hr>132</ns3:hr>
            <ns3:cad>89</ns3:cad>
          </ns3:TrackPointExtension>
        </extensions>
      </trkpt>
      <trkpt lat="43.8402481935918331146240234375" lon="4.260977692902088165283203125">
        <ele>162</ele>
        <time>2024-01-27T09:57:17.000Z</time>
        <extensions>
          <ns3:TrackPointExtension>
            <ns3:hr>133</ns3:hr>
            <ns3:cad>89</ns3:cad>
          </ns3:TrackPointExtension>
        </extensions>
      </trkpt>
      <trkpt lat="43.840221874415874481201171875" lon="4.2609627731144428253173828125">
        <ele>161.8000030517578125</ele>
        <time>2024-01-27T09:57:18.000Z</time>
        <extensions>
          <ns3:TrackPointExtension>
            <ns3:hr>133</ns3:hr>
            <ns3:cad>89</ns3:cad>
          </ns3:TrackPointExtension>
        </extensions>
      </trkpt>
      <trkpt lat="43.8402002491056919097900390625" lon="4.26094860769808292388916015625">
        <ele>161.399993896484375</ele>
        <time>2024-01-27T09:57:19.000Z</time>
        <extensions>
          <ns3:TrackPointExtension>
            <ns3:hr>134</ns3:hr>
            <ns3:cad>88</ns3:cad>
          </ns3:TrackPointExtension>
        </extensions>
      </trkpt>
      <trkpt lat="43.8401704095304012298583984375" lon="4.2609258927404880523681640625">
        <ele>161.1999969482421875</ele>
        <time>2024-01-27T09:57:20.000Z</time>
        <extensions>
          <ns3:TrackPointExtension>
            <ns3:hr>134</ns3:hr>
            <ns3:cad>88</ns3:cad>
          </ns3:TrackPointExtension>
        </extensions>
      </trkpt>
      <trkpt lat="43.84015054441988468170166015625" lon="4.26090024411678314208984375">
        <ele>161.1999969482421875</ele>
        <time>2024-01-27T09:57:21.000Z</time>
        <extensions>
          <ns3:TrackPointExtension>
            <ns3:hr>134</ns3:hr>
            <ns3:cad>88</ns3:cad>
          </ns3:TrackPointExtension>
        </extensions>
      </trkpt>
      <trkpt lat="43.84013595990836620330810546875" lon="4.26086545921862125396728515625">
        <ele>160.8000030517578125</ele>
        <time>2024-01-27T09:57:22.000Z</time>
        <extensions>
          <ns3:TrackPointExtension>
            <ns3:hr>135</ns3:hr>
            <ns3:cad>88</ns3:cad>
          </ns3:TrackPointExtension>
        </extensions>
      </trkpt>
      <trkpt lat="43.840128667652606964111328125" lon="4.26083025522530078887939453125">
        <ele>160.600006103515625</ele>
        <time>2024-01-27T09:57:23.000Z</time>
        <extensions>
          <ns3:TrackPointExtension>
            <ns3:hr>135</ns3:hr>
            <ns3:cad>88</ns3:cad>
          </ns3:TrackPointExtension>
        </extensions>
      </trkpt>
      <trkpt lat="43.84012372232973575592041015625" lon="4.2607894353568553924560546875">
        <ele>160.399993896484375</ele>
        <time>2024-01-27T09:57:24.000Z</time>
        <extensions>
          <ns3:TrackPointExtension>
            <ns3:hr>136</ns3:hr>
            <ns3:cad>89</ns3:cad>
          </ns3:TrackPointExtension>
        </extensions>
      </trkpt>
      <trkpt lat="43.8401228003203868865966796875" lon="4.26075012423098087310791015625">
        <ele>160</ele>
        <time>2024-01-27T09:57:25.000Z</time>
        <extensions>
          <ns3:TrackPointExtension>
            <ns3:hr>136</ns3:hr>
            <ns3:cad>89</ns3:cad>
          </ns3:TrackPointExtension>
        </extensions>
      </trkpt>
      <trkpt lat="43.84012305177748203277587890625" lon="4.260705448687076568603515625">
        <ele>159.8000030517578125</ele>
        <time>2024-01-27T09:57:26.000Z</time>
        <extensions>
          <ns3:TrackPointExtension>
            <ns3:hr>136</ns3:hr>
            <ns3:cad>89</ns3:cad>
          </ns3:TrackPointExtension>
        </extensions>
      </trkpt>
      <trkpt lat="43.84012958966195583343505859375" lon="4.26066664047539234161376953125">
        <ele>159.600006103515625</ele>
        <time>2024-01-27T09:57:27.000Z</time>
        <extensions>
          <ns3:TrackPointExtension>
            <ns3:hr>137</ns3:hr>
            <ns3:cad>88</ns3:cad>
          </ns3:TrackPointExtension>
        </extensions>
      </trkpt>
      <trkpt lat="43.8401412405073642730712890625" lon="4.2606258206069469451904296875">
        <ele>159.399993896484375</ele>
        <time>2024-01-27T09:57:28.000Z</time>
        <extensions>
          <ns3:TrackPointExtension>
            <ns3:hr>137</ns3:hr>
            <ns3:cad>88</ns3:cad>
          </ns3:TrackPointExtension>
        </extensions>
      </trkpt>
      <trkpt lat="43.8401563279330730438232421875" lon="4.26058852113783359527587890625">
        <ele>159</ele>
        <time>2024-01-27T09:57:29.000Z</time>
        <extensions>
          <ns3:TrackPointExtension>
            <ns3:hr>138</ns3:hr>
            <ns3:cad>89</ns3:cad>
          </ns3:TrackPointExtension>
        </extensions>
      </trkpt>
      <trkpt lat="43.840171582996845245361328125" lon="4.260551221668720245361328125">
        <ele>158.8000030517578125</ele>
        <time>2024-01-27T09:57:30.000Z</time>
        <extensions>
          <ns3:TrackPointExtension>
            <ns3:hr>138</ns3:hr>
            <ns3:cad>89</ns3:cad>
          </ns3:TrackPointExtension>
        </extensions>
      </trkpt>
      <trkpt lat="43.84018541313707828521728515625" lon="4.26051861606538295745849609375">
        <ele>158.600006103515625</ele>
        <time>2024-01-27T09:57:31.000Z</time>
        <extensions>
          <ns3:TrackPointExtension>
            <ns3:hr>138</ns3:hr>
            <ns3:cad>89</ns3:cad>
          </ns3:TrackPointExtension>
        </extensions>
      </trkpt>
      <trkpt lat="43.8401965610682964324951171875" lon="4.26048039458692073822021484375">
        <ele>158.600006103515625</ele>
        <time>2024-01-27T09:57:32.000Z</time>
        <extensions>
          <ns3:TrackPointExtension>
            <ns3:hr>138</ns3:hr>
            <ns3:cad>89</ns3:cad>
          </ns3:TrackPointExtension>
        </extensions>
      </trkpt>
      <trkpt lat="43.84020117111504077911376953125" lon="4.26044560968875885009765625">
        <ele>158.399993896484375</ele>
        <time>2024-01-27T09:57:33.000Z</time>
        <extensions>
          <ns3:TrackPointExtension>
            <ns3:hr>139</ns3:hr>
            <ns3:cad>88</ns3:cad>
          </ns3:TrackPointExtension>
        </extensions>
      </trkpt>
      <trkpt lat="43.8402002491056919097900390625" lon="4.26041216589510440826416015625">
        <ele>158.1999969482421875</ele>
        <time>2024-01-27T09:57:34.000Z</time>
        <extensions>
          <ns3:TrackPointExtension>
            <ns3:hr>139</ns3:hr>
            <ns3:cad>88</ns3:cad>
          </ns3:TrackPointExtension>
        </extensions>
      </trkpt>
      <trkpt lat="43.84019874036312103271484375" lon="4.2603757046163082122802734375">
        <ele>158</ele>
        <time>2024-01-27T09:57:35.000Z</time>
        <extensions>
          <ns3:TrackPointExtension>
            <ns3:hr>139</ns3:hr>
            <ns3:cad>88</ns3:cad>
          </ns3:TrackPointExtension>
        </extensions>
      </trkpt>
      <trkpt lat="43.84019245393574237823486328125" lon="4.260340668261051177978515625">
        <ele>158</ele>
        <time>2024-01-27T09:57:36.000Z</time>
        <extensions>
          <ns3:TrackPointExtension>
            <ns3:hr>140</ns3:hr>
            <ns3:cad>88</ns3:cad>
          </ns3:TrackPointExtension>
        </extensions>
      </trkpt>
      <trkpt lat="43.8401841558516025543212890625" lon="4.26030470989644527435302734375">
        <ele>157.8000030517578125</ele>
        <time>2024-01-27T09:57:37.000Z</time>
        <extensions>
          <ns3:TrackPointExtension>
            <ns3:hr>140</ns3:hr>
            <ns3:cad>88</ns3:cad>
          </ns3:TrackPointExtension>
        </extensions>
      </trkpt>
      <trkpt lat="43.84017619304358959197998046875" lon="4.260272271931171417236328125">
        <ele>157.399993896484375</ele>
        <time>2024-01-27T09:57:38.000Z</time>
        <extensions>
          <ns3:TrackPointExtension>
            <ns3:hr>140</ns3:hr>
            <ns3:cad>88</ns3:cad>
          </ns3:TrackPointExtension>
        </extensions>
      </trkpt>
      <trkpt lat="43.840158842504024505615234375" lon="4.2602379061281681060791015625">
        <ele>157.1999969482421875</ele>
        <time>2024-01-27T09:57:39.000Z</time>
        <extensions>
          <ns3:TrackPointExtension>
            <ns3:hr>140</ns3:hr>
            <ns3:cad>88</ns3:cad>
          </ns3:TrackPointExtension>
        </extensions>
      </trkpt>
      <trkpt lat="43.840146772563457489013671875" lon="4.2602037079632282257080078125">
        <ele>157.1999969482421875</ele>
        <time>2024-01-27T09:57:40.000Z</time>
        <extensions>
          <ns3:TrackPointExtension>
            <ns3:hr>141</ns3:hr>
            <ns3:cad>88</ns3:cad>
          </ns3:TrackPointExtension>
        </extensions>
      </trkpt>
      <trkpt lat="43.84013436734676361083984375" lon="4.2601685039699077606201171875">
        <ele>157</ele>
        <time>2024-01-27T09:57:41.000Z</time>
        <extensions>
          <ns3:TrackPointExtension>
            <ns3:hr>141</ns3:hr>
            <ns3:cad>88</ns3:cad>
          </ns3:TrackPointExtension>
        </extensions>
      </trkpt>
      <trkpt lat="43.84012020193040370941162109375" lon="4.26013447344303131103515625">
        <ele>156.8000030517578125</ele>
        <time>2024-01-27T09:57:42.000Z</time>
        <extensions>
          <ns3:TrackPointExtension>
            <ns3:hr>141</ns3:hr>
            <ns3:cad>88</ns3:cad>
          </ns3:TrackPointExtension>
        </extensions>
      </trkpt>
      <trkpt lat="43.84010477922856807708740234375" lon="4.26009784452617168426513671875">
        <ele>156.600006103515625</ele>
        <time>2024-01-27T09:57:43.000Z</time>
        <extensions>
          <ns3:TrackPointExtension>
            <ns3:hr>141</ns3:hr>
            <ns3:cad>88</ns3:cad>
          </ns3:TrackPointExtension>
        </extensions>
      </trkpt>
      <trkpt lat="43.84008608758449554443359375" lon="4.26006398163735866546630859375">
        <ele>156.399993896484375</ele>
        <time>2024-01-27T09:57:44.000Z</time>
        <extensions>
          <ns3:TrackPointExtension>
            <ns3:hr>141</ns3:hr>
            <ns3:cad>89</ns3:cad>
          </ns3:TrackPointExtension>
        </extensions>
      </trkpt>
      <trkpt lat="43.8400693237781524658203125" lon="4.260032884776592254638671875">
        <ele>156.1999969482421875</ele>
        <time>2024-01-27T09:57:45.000Z</time>
        <extensions>
          <ns3:TrackPointExtension>
            <ns3:hr>141</ns3:hr>
            <ns3:cad>89</ns3:cad>
          </ns3:TrackPointExtension>
        </extensions>
      </trkpt>
      <trkpt lat="43.84005046449601650238037109375" lon="4.26000447012484073638916015625">
        <ele>156</ele>
        <time>2024-01-27T09:57:46.000Z</time>
        <extensions>
          <ns3:TrackPointExtension>
            <ns3:hr>142</ns3:hr>
            <ns3:cad>89</ns3:cad>
          </ns3:TrackPointExtension>
        </extensions>
      </trkpt>
      <trkpt lat="43.8400312699377536773681640625" lon="4.2599733732640743255615234375">
        <ele>156</ele>
        <time>2024-01-27T09:57:47.000Z</time>
        <extensions>
          <ns3:TrackPointExtension>
            <ns3:hr>142</ns3:hr>
            <ns3:cad>89</ns3:cad>
          </ns3:TrackPointExtension>
        </extensions>
      </trkpt>
      <trkpt lat="43.84001023136079311370849609375" lon="4.2599435336887836456298828125">
        <ele>155.8000030517578125</ele>
        <time>2024-01-27T09:57:48.000Z</time>
        <extensions>
          <ns3:TrackPointExtension>
            <ns3:hr>142</ns3:hr>
            <ns3:cad>89</ns3:cad>
          </ns3:TrackPointExtension>
        </extensions>
      </trkpt>
      <trkpt lat="43.8399950601160526275634765625" lon="4.2599130235612392425537109375">
        <ele>155.8000030517578125</ele>
        <time>2024-01-27T09:57:49.000Z</time>
        <extensions>
          <ns3:TrackPointExtension>
            <ns3:hr>142</ns3:hr>
            <ns3:cad>89</ns3:cad>
          </ns3:TrackPointExtension>
        </extensions>
      </trkpt>
      <trkpt lat="43.8399789668619632720947265625" lon="4.2598771490156650543212890625">
        <ele>155.8000030517578125</ele>
        <time>2024-01-27T09:57:50.000Z</time>
        <extensions>
          <ns3:TrackPointExtension>
            <ns3:hr>142</ns3:hr>
            <ns3:cad>89</ns3:cad>
          </ns3:TrackPointExtension>
        </extensions>
      </trkpt>
      <trkpt lat="43.8399695791304111480712890625" lon="4.2598449625074863433837890625">
        <ele>155.600006103515625</ele>
        <time>2024-01-27T09:57:51.000Z</time>
        <extensions>
          <ns3:TrackPointExtension>
            <ns3:hr>142</ns3:hr>
            <ns3:cad>90</ns3:cad>
          </ns3:TrackPointExtension>
        </extensions>
      </trkpt>
      <trkpt lat="43.8399645499885082244873046875" lon="4.259811602532863616943359375">
        <ele>155.399993896484375</ele>
        <time>2024-01-27T09:57:52.000Z</time>
        <extensions>
          <ns3:TrackPointExtension>
            <ns3:hr>143</ns3:hr>
            <ns3:cad>91</ns3:cad>
          </ns3:TrackPointExtension>
        </extensions>
      </trkpt>
      <trkpt lat="43.8399598561227321624755859375" lon="4.259775392711162567138671875">
        <ele>155.399993896484375</ele>
        <time>2024-01-27T09:57:53.000Z</time>
        <extensions>
          <ns3:TrackPointExtension>
            <ns3:hr>143</ns3:hr>
            <ns3:cad>92</ns3:cad>
          </ns3:TrackPointExtension>
        </extensions>
      </trkpt>
      <trkpt lat="43.83995465934276580810546875" lon="4.25973775796592235565185546875">
        <ele>155.399993896484375</ele>
        <time>2024-01-27T09:57:54.000Z</time>
        <extensions>
          <ns3:TrackPointExtension>
            <ns3:hr>143</ns3:hr>
            <ns3:cad>92</ns3:cad>
          </ns3:TrackPointExtension>
        </extensions>
      </trkpt>
      <trkpt lat="43.83994971401989459991455078125" lon="4.25970758311450481414794921875">
        <ele>155.399993896484375</ele>
        <time>2024-01-27T09:57:55.000Z</time>
        <extensions>
          <ns3:TrackPointExtension>
            <ns3:hr>143</ns3:hr>
            <ns3:cad>92</ns3:cad>
          </ns3:TrackPointExtension>
        </extensions>
      </trkpt>
      <trkpt lat="43.839936554431915283203125" lon="4.25967288203537464141845703125">
        <ele>155.399993896484375</ele>
        <time>2024-01-27T09:57:56.000Z</time>
        <extensions>
          <ns3:TrackPointExtension>
            <ns3:hr>143</ns3:hr>
            <ns3:cad>93</ns3:cad>
          </ns3:TrackPointExtension>
        </extensions>
      </trkpt>
      <trkpt lat="43.839921467006206512451171875" lon="4.25964807160198688507080078125">
        <ele>155.600006103515625</ele>
        <time>2024-01-27T09:57:57.000Z</time>
        <extensions>
          <ns3:TrackPointExtension>
            <ns3:hr>143</ns3:hr>
            <ns3:cad>93</ns3:cad>
          </ns3:TrackPointExtension>
        </extensions>
      </trkpt>
      <trkpt lat="43.839900679886341094970703125" lon="4.25962577573955059051513671875">
        <ele>155.600006103515625</ele>
        <time>2024-01-27T09:57:58.000Z</time>
        <extensions>
          <ns3:TrackPointExtension>
            <ns3:hr>144</ns3:hr>
            <ns3:cad>93</ns3:cad>
          </ns3:TrackPointExtension>
        </extensions>
      </trkpt>
      <trkpt lat="43.83988064713776111602783203125" lon="4.25960599444806575775146484375">
        <ele>155.600006103515625</ele>
        <time>2024-01-27T09:57:59.000Z</time>
        <extensions>
          <ns3:TrackPointExtension>
            <ns3:hr>144</ns3:hr>
            <ns3:cad>93</ns3:cad>
          </ns3:TrackPointExtension>
        </extensions>
      </trkpt>
      <trkpt lat="43.83985835127532482147216796875" lon="4.25958202220499515533447265625">
        <ele>155.8000030517578125</ele>
        <time>2024-01-27T09:58:00.000Z</time>
        <extensions>
          <ns3:TrackPointExtension>
            <ns3:hr>145</ns3:hr>
            <ns3:cad>93</ns3:cad>
          </ns3:TrackPointExtension>
        </extensions>
      </trkpt>
      <trkpt lat="43.83983840234577655792236328125" lon="4.25956341437995433807373046875">
        <ele>155.8000030517578125</ele>
        <time>2024-01-27T09:58:01.000Z</time>
        <extensions>
          <ns3:TrackPointExtension>
            <ns3:hr>145</ns3:hr>
            <ns3:cad>93</ns3:cad>
          </ns3:TrackPointExtension>
        </extensions>
      </trkpt>
      <trkpt lat="43.83981409482657909393310546875" lon="4.259532988071441650390625">
        <ele>155.8000030517578125</ele>
        <time>2024-01-27T09:58:02.000Z</time>
        <extensions>
          <ns3:TrackPointExtension>
            <ns3:hr>145</ns3:hr>
            <ns3:cad>93</ns3:cad>
          </ns3:TrackPointExtension>
        </extensions>
      </trkpt>
      <trkpt lat="43.83979029022157192230224609375" lon="4.2595133744180202484130859375">
        <ele>155.8000030517578125</ele>
        <time>2024-01-27T09:58:03.000Z</time>
        <extensions>
          <ns3:TrackPointExtension>
            <ns3:hr>145</ns3:hr>
            <ns3:cad>92</ns3:cad>
          </ns3:TrackPointExtension>
        </extensions>
      </trkpt>
      <trkpt lat="43.839764893054962158203125" lon="4.25949334166944026947021484375">
        <ele>155.600006103515625</ele>
        <time>2024-01-27T09:58:04.000Z</time>
        <extensions>
          <ns3:TrackPointExtension>
            <ns3:hr>145</ns3:hr>
            <ns3:cad>91</ns3:cad>
          </ns3:TrackPointExtension>
        </extensions>
      </trkpt>
      <trkpt lat="43.839743770658969879150390625" lon="4.2594828642904758453369140625">
        <ele>155.1999969482421875</ele>
        <time>2024-01-27T09:58:05.000Z</time>
        <extensions>
          <ns3:TrackPointExtension>
            <ns3:hr>145</ns3:hr>
            <ns3:cad>91</ns3:cad>
          </ns3:TrackPointExtension>
        </extensions>
      </trkpt>
      <trkpt lat="43.83972072042524814605712890625" lon="4.25948495976626873016357421875">
        <ele>155</ele>
        <time>2024-01-27T09:58:06.000Z</time>
        <extensions>
          <ns3:TrackPointExtension>
            <ns3:hr>145</ns3:hr>
            <ns3:cad>90</ns3:cad>
          </ns3:TrackPointExtension>
        </extensions>
      </trkpt>
      <trkpt lat="43.8396956585347652435302734375" lon="4.25949099473655223846435546875">
        <ele>154.8000030517578125</ele>
        <time>2024-01-27T09:58:07.000Z</time>
        <extensions>
          <ns3:TrackPointExtension>
            <ns3:hr>146</ns3:hr>
            <ns3:cad>90</ns3:cad>
          </ns3:TrackPointExtension>
        </extensions>
      </trkpt>
      <trkpt lat="43.8396681658923625946044921875" lon="4.25950289703905582427978515625">
        <ele>154.600006103515625</ele>
        <time>2024-01-27T09:58:08.000Z</time>
        <extensions>
          <ns3:TrackPointExtension>
            <ns3:hr>146</ns3:hr>
            <ns3:cad>90</ns3:cad>
          </ns3:TrackPointExtension>
        </extensions>
      </trkpt>
      <trkpt lat="43.83964612148702144622802734375" lon="4.2595153860747814178466796875">
        <ele>154.600006103515625</ele>
        <time>2024-01-27T09:58:09.000Z</time>
        <extensions>
          <ns3:TrackPointExtension>
            <ns3:hr>146</ns3:hr>
            <ns3:cad>90</ns3:cad>
          </ns3:TrackPointExtension>
        </extensions>
      </trkpt>
      <trkpt lat="43.8396195508539676666259765625" lon="4.2595294676721096038818359375">
        <ele>154.399993896484375</ele>
        <time>2024-01-27T09:58:10.000Z</time>
        <extensions>
          <ns3:TrackPointExtension>
            <ns3:hr>146</ns3:hr>
            <ns3:cad>89</ns3:cad>
          </ns3:TrackPointExtension>
        </extensions>
      </trkpt>
      <trkpt lat="43.839594237506389617919921875" lon="4.25954145379364490509033203125">
        <ele>154.399993896484375</ele>
        <time>2024-01-27T09:58:11.000Z</time>
        <extensions>
          <ns3:TrackPointExtension>
            <ns3:hr>146</ns3:hr>
            <ns3:cad>88</ns3:cad>
          </ns3:TrackPointExtension>
        </extensions>
      </trkpt>
      <trkpt lat="43.83955945260822772979736328125" lon="4.2595465667545795440673828125">
        <ele>154</ele>
        <time>2024-01-27T09:58:12.000Z</time>
        <extensions>
          <ns3:TrackPointExtension>
            <ns3:hr>147</ns3:hr>
            <ns3:cad>88</ns3:cad>
          </ns3:TrackPointExtension>
        </extensions>
      </trkpt>
      <trkpt lat="43.83953229524195194244384765625" lon="4.2595452256500720977783203125">
        <ele>153.600006103515625</ele>
        <time>2024-01-27T09:58:13.000Z</time>
        <extensions>
          <ns3:TrackPointExtension>
            <ns3:hr>147</ns3:hr>
            <ns3:cad>87</ns3:cad>
          </ns3:TrackPointExtension>
        </extensions>
      </trkpt>
      <trkpt lat="43.839500360190868377685546875" lon="4.25953709520399570465087890625">
        <ele>153.399993896484375</ele>
        <time>2024-01-27T09:58:14.000Z</time>
        <extensions>
          <ns3:TrackPointExtension>
            <ns3:hr>147</ns3:hr>
            <ns3:cad>87</ns3:cad>
          </ns3:TrackPointExtension>
        </extensions>
      </trkpt>
      <trkpt lat="43.83947311900556087493896484375" lon="4.25952519290149211883544921875">
        <ele>153.1999969482421875</ele>
        <time>2024-01-27T09:58:15.000Z</time>
        <extensions>
          <ns3:TrackPointExtension>
            <ns3:hr>147</ns3:hr>
            <ns3:cad>88</ns3:cad>
          </ns3:TrackPointExtension>
        </extensions>
      </trkpt>
      <trkpt lat="43.839447386562824249267578125" lon="4.259506501257419586181640625">
        <ele>153</ele>
        <time>2024-01-27T09:58:16.000Z</time>
        <extensions>
          <ns3:TrackPointExtension>
            <ns3:hr>147</ns3:hr>
            <ns3:cad>88</ns3:cad>
          </ns3:TrackPointExtension>
        </extensions>
      </trkpt>
      <trkpt lat="43.83942224085330963134765625" lon="4.2594858817756175994873046875">
        <ele>152.8000030517578125</ele>
        <time>2024-01-27T09:58:17.000Z</time>
        <extensions>
          <ns3:TrackPointExtension>
            <ns3:hr>146</ns3:hr>
            <ns3:cad>89</ns3:cad>
          </ns3:TrackPointExtension>
        </extensions>
      </trkpt>
      <trkpt lat="43.8393952511250972747802734375" lon="4.2594573833048343658447265625">
        <ele>152.600006103515625</ele>
        <time>2024-01-27T09:58:18.000Z</time>
        <extensions>
          <ns3:TrackPointExtension>
            <ns3:hr>146</ns3:hr>
            <ns3:cad>89</ns3:cad>
          </ns3:TrackPointExtension>
        </extensions>
      </trkpt>
      <trkpt lat="43.83937354199588298797607421875" lon="4.259431399405002593994140625">
        <ele>152.399993896484375</ele>
        <time>2024-01-27T09:58:19.000Z</time>
        <extensions>
          <ns3:TrackPointExtension>
            <ns3:hr>146</ns3:hr>
            <ns3:cad>89</ns3:cad>
          </ns3:TrackPointExtension>
        </extensions>
      </trkpt>
      <trkpt lat="43.83934982120990753173828125" lon="4.25940549932420253753662109375">
        <ele>152.1999969482421875</ele>
        <time>2024-01-27T09:58:20.000Z</time>
        <extensions>
          <ns3:TrackPointExtension>
            <ns3:hr>146</ns3:hr>
            <ns3:cad>90</ns3:cad>
          </ns3:TrackPointExtension>
        </extensions>
      </trkpt>
      <trkpt lat="43.839330039918422698974609375" lon="4.25938387401401996612548828125">
        <ele>152.1999969482421875</ele>
        <time>2024-01-27T09:58:21.000Z</time>
        <extensions>
          <ns3:TrackPointExtension>
            <ns3:hr>146</ns3:hr>
            <ns3:cad>90</ns3:cad>
          </ns3:TrackPointExtension>
        </extensions>
      </trkpt>
      <trkpt lat="43.83930648677051067352294921875" lon="4.2593625001609325408935546875">
        <ele>152</ele>
        <time>2024-01-27T09:58:22.000Z</time>
        <extensions>
          <ns3:TrackPointExtension>
            <ns3:hr>146</ns3:hr>
            <ns3:cad>90</ns3:cad>
          </ns3:TrackPointExtension>
        </extensions>
      </trkpt>
      <trkpt lat="43.83928352035582065582275390625" lon="4.2593417130410671234130859375">
        <ele>152</ele>
        <time>2024-01-27T09:58:23.000Z</time>
        <extensions>
          <ns3:TrackPointExtension>
            <ns3:hr>146</ns3:hr>
            <ns3:cad>89</ns3:cad>
          </ns3:TrackPointExtension>
        </extensions>
      </trkpt>
      <trkpt lat="43.8392567820847034454345703125" lon="4.2593224346637725830078125">
        <ele>151.8000030517578125</ele>
        <time>2024-01-27T09:58:24.000Z</time>
        <extensions>
          <ns3:TrackPointExtension>
            <ns3:hr>147</ns3:hr>
            <ns3:cad>89</ns3:cad>
          </ns3:TrackPointExtension>
        </extensions>
      </trkpt>
      <trkpt lat="43.83923557586967945098876953125" lon="4.25929938443005084991455078125">
        <ele>151.8000030517578125</ele>
        <time>2024-01-27T09:58:25.000Z</time>
        <extensions>
          <ns3:TrackPointExtension>
            <ns3:hr>147</ns3:hr>
            <ns3:cad>89</ns3:cad>
          </ns3:TrackPointExtension>
        </extensions>
      </trkpt>
      <trkpt lat="43.83921378292143344879150390625" lon="4.25928018987178802490234375">
        <ele>151.8000030517578125</ele>
        <time>2024-01-27T09:58:26.000Z</time>
        <extensions>
          <ns3:TrackPointExtension>
            <ns3:hr>147</ns3:hr>
            <ns3:cad>89</ns3:cad>
          </ns3:TrackPointExtension>
        </extensions>
      </trkpt>
      <trkpt lat="43.83919467218220233917236328125" lon="4.25925546325743198394775390625">
        <ele>151.8000030517578125</ele>
        <time>2024-01-27T09:58:27.000Z</time>
        <extensions>
          <ns3:TrackPointExtension>
            <ns3:hr>147</ns3:hr>
            <ns3:cad>89</ns3:cad>
          </ns3:TrackPointExtension>
        </extensions>
      </trkpt>
      <trkpt lat="43.83917103521525859832763671875" lon="4.2592260427772998809814453125">
        <ele>151.600006103515625</ele>
        <time>2024-01-27T09:58:28.000Z</time>
        <extensions>
          <ns3:TrackPointExtension>
            <ns3:hr>147</ns3:hr>
            <ns3:cad>89</ns3:cad>
          </ns3:TrackPointExtension>
        </extensions>
      </trkpt>
      <trkpt lat="43.83914723061025142669677734375" lon="4.2592025734484195709228515625">
        <ele>151.399993896484375</ele>
        <time>2024-01-27T09:58:29.000Z</time>
        <extensions>
          <ns3:TrackPointExtension>
            <ns3:hr>147</ns3:hr>
            <ns3:cad>90</ns3:cad>
          </ns3:TrackPointExtension>
        </extensions>
      </trkpt>
      <trkpt lat="43.83911806158721446990966796875" lon="4.259178601205348968505859375">
        <ele>151.1999969482421875</ele>
        <time>2024-01-27T09:58:30.000Z</time>
        <extensions>
          <ns3:TrackPointExtension>
            <ns3:hr>147</ns3:hr>
            <ns3:cad>90</ns3:cad>
          </ns3:TrackPointExtension>
        </extensions>
      </trkpt>
      <trkpt lat="43.83909241296350955963134765625" lon="4.25916074775159358978271484375">
        <ele>151</ele>
        <time>2024-01-27T09:58:31.000Z</time>
        <extensions>
          <ns3:TrackPointExtension>
            <ns3:hr>147</ns3:hr>
            <ns3:cad>90</ns3:cad>
          </ns3:TrackPointExtension>
        </extensions>
      </trkpt>
      <trkpt lat="43.839062489569187164306640625" lon="4.2591392062604427337646484375">
        <ele>151</ele>
        <time>2024-01-27T09:58:32.000Z</time>
        <extensions>
          <ns3:TrackPointExtension>
            <ns3:hr>147</ns3:hr>
            <ns3:cad>90</ns3:cad>
          </ns3:TrackPointExtension>
        </extensions>
      </trkpt>
      <trkpt lat="43.839040361344814300537109375" lon="4.2591167427599430084228515625">
        <ele>150.8000030517578125</ele>
        <time>2024-01-27T09:58:33.000Z</time>
        <extensions>
          <ns3:TrackPointExtension>
            <ns3:hr>148</ns3:hr>
            <ns3:cad>90</ns3:cad>
          </ns3:TrackPointExtension>
        </extensions>
      </trkpt>
      <trkpt lat="43.8390167243778705596923828125" lon="4.25909721292555332183837890625">
        <ele>150.600006103515625</ele>
        <time>2024-01-27T09:58:34.000Z</time>
        <extensions>
          <ns3:TrackPointExtension>
            <ns3:hr>148</ns3:hr>
            <ns3:cad>88</ns3:cad>
          </ns3:TrackPointExtension>
        </extensions>
      </trkpt>
      <trkpt lat="43.83899149484932422637939453125" lon="4.2590708099305629730224609375">
        <ele>150.600006103515625</ele>
        <time>2024-01-27T09:58:35.000Z</time>
        <extensions>
          <ns3:TrackPointExtension>
            <ns3:hr>148</ns3:hr>
            <ns3:cad>87</ns3:cad>
          </ns3:TrackPointExtension>
        </extensions>
      </trkpt>
      <trkpt lat="43.83896701969206333160400390625" lon="4.25904641859233379364013671875">
        <ele>150.600006103515625</ele>
        <time>2024-01-27T09:58:36.000Z</time>
        <extensions>
          <ns3:TrackPointExtension>
            <ns3:hr>148</ns3:hr>
            <ns3:cad>87</ns3:cad>
          </ns3:TrackPointExtension>
        </extensions>
      </trkpt>
      <trkpt lat="43.83894254453480243682861328125" lon="4.2590166628360748291015625">
        <ele>150.399993896484375</ele>
        <time>2024-01-27T09:58:37.000Z</time>
        <extensions>
          <ns3:TrackPointExtension>
            <ns3:hr>148</ns3:hr>
            <ns3:cad>87</ns3:cad>
          </ns3:TrackPointExtension>
        </extensions>
      </trkpt>
      <trkpt lat="43.8389235176146030426025390625" lon="4.25899394787847995758056640625">
        <ele>150.399993896484375</ele>
        <time>2024-01-27T09:58:38.000Z</time>
        <extensions>
          <ns3:TrackPointExtension>
            <ns3:hr>148</ns3:hr>
            <ns3:cad>88</ns3:cad>
          </ns3:TrackPointExtension>
        </extensions>
      </trkpt>
      <trkpt lat="43.83890935219824314117431640625" lon="4.2589668743312358856201171875">
        <ele>150.399993896484375</ele>
        <time>2024-01-27T09:58:39.000Z</time>
        <extensions>
          <ns3:TrackPointExtension>
            <ns3:hr>148</ns3:hr>
            <ns3:cad>88</ns3:cad>
          </ns3:TrackPointExtension>
        </extensions>
      </trkpt>
      <trkpt lat="43.838894851505756378173828125" lon="4.25893879495561122894287109375">
        <ele>150.399993896484375</ele>
        <time>2024-01-27T09:58:40.000Z</time>
        <extensions>
          <ns3:TrackPointExtension>
            <ns3:hr>148</ns3:hr>
            <ns3:cad>89</ns3:cad>
          </ns3:TrackPointExtension>
        </extensions>
      </trkpt>
      <trkpt lat="43.83888085372745990753173828125" lon="4.25890870392322540283203125">
        <ele>150.399993896484375</ele>
        <time>2024-01-27T09:58:41.000Z</time>
        <extensions>
          <ns3:TrackPointExtension>
            <ns3:hr>148</ns3:hr>
            <ns3:cad>89</ns3:cad>
          </ns3:TrackPointExtension>
        </extensions>
      </trkpt>
      <trkpt lat="43.838861323893070220947265625" lon="4.2588760145008563995361328125">
        <ele>150.399993896484375</ele>
        <time>2024-01-27T09:58:42.000Z</time>
        <extensions>
          <ns3:TrackPointExtension>
            <ns3:hr>148</ns3:hr>
            <ns3:cad>90</ns3:cad>
          </ns3:TrackPointExtension>
        </extensions>
      </trkpt>
      <trkpt lat="43.83884481154382228851318359375" lon="4.25885011442005634307861328125">
        <ele>150.600006103515625</ele>
        <time>2024-01-27T09:58:43.000Z</time>
        <extensions>
          <ns3:TrackPointExtension>
            <ns3:hr>148</ns3:hr>
            <ns3:cad>90</ns3:cad>
          </ns3:TrackPointExtension>
        </extensions>
      </trkpt>
      <trkpt lat="43.8388219289481639862060546875" lon="4.25882345996797084808349609375">
        <ele>150.600006103515625</ele>
        <time>2024-01-27T09:58:44.000Z</time>
        <extensions>
          <ns3:TrackPointExtension>
            <ns3:hr>149</ns3:hr>
            <ns3:cad>91</ns3:cad>
          </ns3:TrackPointExtension>
        </extensions>
      </trkpt>
      <trkpt lat="43.83879938162863254547119140625" lon="4.25880267284810543060302734375">
        <ele>150.600006103515625</ele>
        <time>2024-01-27T09:58:45.000Z</time>
        <extensions>
          <ns3:TrackPointExtension>
            <ns3:hr>149</ns3:hr>
            <ns3:cad>93</ns3:cad>
          </ns3:TrackPointExtension>
        </extensions>
      </trkpt>
      <trkpt lat="43.8387738168239593505859375" lon="4.2587851546704769134521484375">
        <ele>150.8000030517578125</ele>
        <time>2024-01-27T09:58:46.000Z</time>
        <extensions>
          <ns3:TrackPointExtension>
            <ns3:hr>149</ns3:hr>
            <ns3:cad>93</ns3:cad>
          </ns3:TrackPointExtension>
        </extensions>
      </trkpt>
      <trkpt lat="43.8387501798570156097412109375" lon="4.25876948051154613494873046875">
        <ele>150.8000030517578125</ele>
        <time>2024-01-27T09:58:47.000Z</time>
        <extensions>
          <ns3:TrackPointExtension>
            <ns3:hr>149</ns3:hr>
            <ns3:cad>92</ns3:cad>
          </ns3:TrackPointExtension>
        </extensions>
      </trkpt>
      <trkpt lat="43.83871824480593204498291015625" lon="4.25874735228717327117919921875">
        <ele>150.8000030517578125</ele>
        <time>2024-01-27T09:58:48.000Z</time>
        <extensions>
          <ns3:TrackPointExtension>
            <ns3:hr>149</ns3:hr>
            <ns3:cad>92</ns3:cad>
          </ns3:TrackPointExtension>
        </extensions>
      </trkpt>
      <trkpt lat="43.838693015277385711669921875" lon="4.25873142667114734649658203125">
        <ele>150.8000030517578125</ele>
        <time>2024-01-27T09:58:49.000Z</time>
        <extensions>
          <ns3:TrackPointExtension>
            <ns3:hr>149</ns3:hr>
            <ns3:cad>90</ns3:cad>
          </ns3:TrackPointExtension>
        </extensions>
      </trkpt>
      <trkpt lat="43.83866451680660247802734375" lon="4.25871600396931171417236328125">
        <ele>150.600006103515625</ele>
        <time>2024-01-27T09:58:50.000Z</time>
        <extensions>
          <ns3:TrackPointExtension>
            <ns3:hr>150</ns3:hr>
            <ns3:cad>90</ns3:cad>
          </ns3:TrackPointExtension>
        </extensions>
      </trkpt>
      <trkpt lat="43.8386423885822296142578125" lon="4.2587067000567913055419921875">
        <ele>150.8000030517578125</ele>
        <time>2024-01-27T09:58:51.000Z</time>
        <extensions>
          <ns3:TrackPointExtension>
            <ns3:hr>150</ns3:hr>
            <ns3:cad>90</ns3:cad>
          </ns3:TrackPointExtension>
        </extensions>
      </trkpt>
      <trkpt lat="43.83861414156854152679443359375" lon="4.2586869187653064727783203125">
        <ele>150.8000030517578125</ele>
        <time>2024-01-27T09:58:52.000Z</time>
        <extensions>
          <ns3:TrackPointExtension>
            <ns3:hr>150</ns3:hr>
            <ns3:cad>90</ns3:cad>
          </ns3:TrackPointExtension>
        </extensions>
      </trkpt>
      <trkpt lat="43.838592432439327239990234375" lon="4.25867669284343719482421875">
        <ele>150.600006103515625</ele>
        <time>2024-01-27T09:58:53.000Z</time>
        <extensions>
          <ns3:TrackPointExtension>
            <ns3:hr>150</ns3:hr>
            <ns3:cad>90</ns3:cad>
          </ns3:TrackPointExtension>
        </extensions>
      </trkpt>
      <trkpt lat="43.8385681249201297760009765625" lon="4.2586530558764934539794921875">
        <ele>150.600006103515625</ele>
        <time>2024-01-27T09:58:54.000Z</time>
        <extensions>
          <ns3:TrackPointExtension>
            <ns3:hr>151</ns3:hr>
            <ns3:cad>92</ns3:cad>
          </ns3:TrackPointExtension>
        </extensions>
      </trkpt>
      <trkpt lat="43.8385493494570255279541015625" lon="4.2586332745850086212158203125">
        <ele>150.8000030517578125</ele>
        <time>2024-01-27T09:58:55.000Z</time>
        <extensions>
          <ns3:TrackPointExtension>
            <ns3:hr>151</ns3:hr>
            <ns3:cad>92</ns3:cad>
          </ns3:TrackPointExtension>
        </extensions>
      </trkpt>
      <trkpt lat="43.83853334002196788787841796875" lon="4.25860066898167133331298828125">
        <ele>150.8000030517578125</ele>
        <time>2024-01-27T09:58:56.000Z</time>
        <extensions>
          <ns3:TrackPointExtension>
            <ns3:hr>152</ns3:hr>
            <ns3:cad>92</ns3:cad>
          </ns3:TrackPointExtension>
        </extensions>
      </trkpt>
      <trkpt lat="43.83852680213749408721923828125" lon="4.258570410311222076416015625">
        <ele>150.8000030517578125</ele>
        <time>2024-01-27T09:58:57.000Z</time>
        <extensions>
          <ns3:TrackPointExtension>
            <ns3:hr>152</ns3:hr>
            <ns3:cad>93</ns3:cad>
          </ns3:TrackPointExtension>
        </extensions>
      </trkpt>
      <trkpt lat="43.8385295681655406951904296875" lon="4.25853948108851909637451171875">
        <ele>150.8000030517578125</ele>
        <time>2024-01-27T09:58:58.000Z</time>
        <extensions>
          <ns3:TrackPointExtension>
            <ns3:hr>152</ns3:hr>
            <ns3:cad>93</ns3:cad>
          </ns3:TrackPointExtension>
        </extensions>
      </trkpt>
      <trkpt lat="43.838533423840999603271484375" lon="4.2585105635225772857666015625">
        <ele>150.8000030517578125</ele>
        <time>2024-01-27T09:58:59.000Z</time>
        <extensions>
          <ns3:TrackPointExtension>
            <ns3:hr>153</ns3:hr>
            <ns3:cad>92</ns3:cad>
          </ns3:TrackPointExtension>
        </extensions>
      </trkpt>
      <trkpt lat="43.8385404646396636962890625" lon="4.25847276113927364349365234375">
        <ele>150.8000030517578125</ele>
        <time>2024-01-27T09:59:00.000Z</time>
        <extensions>
          <ns3:TrackPointExtension>
            <ns3:hr>153</ns3:hr>
            <ns3:cad>92</ns3:cad>
          </ns3:TrackPointExtension>
        </extensions>
      </trkpt>
      <trkpt lat="43.83854784071445465087890625" lon="4.258448369801044464111328125">
        <ele>151</ele>
        <time>2024-01-27T09:59:01.000Z</time>
        <extensions>
          <ns3:TrackPointExtension>
            <ns3:hr>153</ns3:hr>
            <ns3:cad>92</ns3:cad>
          </ns3:TrackPointExtension>
        </extensions>
      </trkpt>
      <trkpt lat="43.83855831809341907501220703125" lon="4.25841257907450199127197265625">
        <ele>151.600006103515625</ele>
        <time>2024-01-27T09:59:02.000Z</time>
        <extensions>
          <ns3:TrackPointExtension>
            <ns3:hr>153</ns3:hr>
            <ns3:cad>91</ns3:cad>
          </ns3:TrackPointExtension>
        </extensions>
      </trkpt>
      <trkpt lat="43.83856795728206634521484375" lon="4.25839095376431941986083984375">
        <ele>152</ele>
        <time>2024-01-27T09:59:03.000Z</time>
        <extensions>
          <ns3:TrackPointExtension>
            <ns3:hr>153</ns3:hr>
            <ns3:cad>88</ns3:cad>
          </ns3:TrackPointExtension>
        </extensions>
      </trkpt>
      <trkpt lat="43.83857793174684047698974609375" lon="4.25836413167417049407958984375">
        <ele>152.399993896484375</ele>
        <time>2024-01-27T09:59:04.000Z</time>
        <extensions>
          <ns3:TrackPointExtension>
            <ns3:hr>153</ns3:hr>
            <ns3:cad>87</ns3:cad>
          </ns3:TrackPointExtension>
        </extensions>
      </trkpt>
      <trkpt lat="43.83858681656420230865478515625" lon="4.25833471119403839111328125">
        <ele>152.600006103515625</ele>
        <time>2024-01-27T09:59:05.000Z</time>
        <extensions>
          <ns3:TrackPointExtension>
            <ns3:hr>154</ns3:hr>
            <ns3:cad>87</ns3:cad>
          </ns3:TrackPointExtension>
        </extensions>
      </trkpt>
      <trkpt lat="43.83859737776219844818115234375" lon="4.25830260850489139556884765625">
        <ele>152.8000030517578125</ele>
        <time>2024-01-27T09:59:06.000Z</time>
        <extensions>
          <ns3:TrackPointExtension>
            <ns3:hr>154</ns3:hr>
            <ns3:cad>87</ns3:cad>
          </ns3:TrackPointExtension>
        </extensions>
      </trkpt>
      <trkpt lat="43.83860290981829166412353515625" lon="4.25828106701374053955078125">
        <ele>153.1999969482421875</ele>
        <time>2024-01-27T09:59:07.000Z</time>
        <extensions>
          <ns3:TrackPointExtension>
            <ns3:hr>154</ns3:hr>
            <ns3:cad>87</ns3:cad>
          </ns3:TrackPointExtension>
        </extensions>
      </trkpt>
      <trkpt lat="43.83861045353114604949951171875" lon="4.2582520656287670135498046875">
        <ele>153.399993896484375</ele>
        <time>2024-01-27T09:59:08.000Z</time>
        <extensions>
          <ns3:TrackPointExtension>
            <ns3:hr>154</ns3:hr>
            <ns3:cad>87</ns3:cad>
          </ns3:TrackPointExtension>
        </extensions>
      </trkpt>
      <trkpt lat="43.83861766196787357330322265625" lon="4.2582329548895359039306640625">
        <ele>153.8000030517578125</ele>
        <time>2024-01-27T09:59:09.000Z</time>
        <extensions>
          <ns3:TrackPointExtension>
            <ns3:hr>154</ns3:hr>
            <ns3:cad>88</ns3:cad>
          </ns3:TrackPointExtension>
        </extensions>
      </trkpt>
      <trkpt lat="43.83862428367137908935546875" lon="4.25820487551391124725341796875">
        <ele>154</ele>
        <time>2024-01-27T09:59:10.000Z</time>
        <extensions>
          <ns3:TrackPointExtension>
            <ns3:hr>154</ns3:hr>
            <ns3:cad>89</ns3:cad>
          </ns3:TrackPointExtension>
        </extensions>
      </trkpt>
      <trkpt lat="43.8386311568319797515869140625" lon="4.25818190909922122955322265625">
        <ele>154.399993896484375</ele>
        <time>2024-01-27T09:59:11.000Z</time>
        <extensions>
          <ns3:TrackPointExtension>
            <ns3:hr>154</ns3:hr>
            <ns3:cad>90</ns3:cad>
          </ns3:TrackPointExtension>
        </extensions>
      </trkpt>
      <trkpt lat="43.83863492868840694427490234375" lon="4.258148632943630218505859375">
        <ele>154.8000030517578125</ele>
        <time>2024-01-27T09:59:12.000Z</time>
        <extensions>
          <ns3:TrackPointExtension>
            <ns3:hr>154</ns3:hr>
            <ns3:cad>90</ns3:cad>
          </ns3:TrackPointExtension>
        </extensions>
      </trkpt>
      <trkpt lat="43.8386324979364871978759765625" lon="4.25812826491892337799072265625">
        <ele>155</ele>
        <time>2024-01-27T09:59:13.000Z</time>
        <extensions>
          <ns3:TrackPointExtension>
            <ns3:hr>155</ns3:hr>
            <ns3:cad>92</ns3:cad>
          </ns3:TrackPointExtension>
        </extensions>
      </trkpt>
      <trkpt lat="43.8386207632720470428466796875" lon="4.25809758715331554412841796875">
        <ele>155.399993896484375</ele>
        <time>2024-01-27T09:59:14.000Z</time>
        <extensions>
          <ns3:TrackPointExtension>
            <ns3:hr>155</ns3:hr>
            <ns3:cad>92</ns3:cad>
          </ns3:TrackPointExtension>
        </extensions>
      </trkpt>
      <trkpt lat="43.8386073522269725799560546875" lon="4.258076883852481842041015625">
        <ele>155.399993896484375</ele>
        <time>2024-01-27T09:59:15.000Z</time>
        <extensions>
          <ns3:TrackPointExtension>
            <ns3:hr>155</ns3:hr>
            <ns3:cad>90</ns3:cad>
          </ns3:TrackPointExtension>
        </extensions>
      </trkpt>
      <trkpt lat="43.838587068021297454833984375" lon="4.25805148668587207794189453125">
        <ele>155.600006103515625</ele>
        <time>2024-01-27T09:59:16.000Z</time>
        <extensions>
          <ns3:TrackPointExtension>
            <ns3:hr>155</ns3:hr>
            <ns3:cad>90</ns3:cad>
          </ns3:TrackPointExtension>
        </extensions>
      </trkpt>
      <trkpt lat="43.83856653235852718353271484375" lon="4.258036315441131591796875">
        <ele>156</ele>
        <time>2024-01-27T09:59:17.000Z</time>
        <extensions>
          <ns3:TrackPointExtension>
            <ns3:hr>156</ns3:hr>
            <ns3:cad>91</ns3:cad>
          </ns3:TrackPointExtension>
        </extensions>
      </trkpt>
      <trkpt lat="43.8385392911732196807861328125" lon="4.25801862962543964385986328125">
        <ele>156</ele>
        <time>2024-01-27T09:59:18.000Z</time>
        <extensions>
          <ns3:TrackPointExtension>
            <ns3:hr>156</ns3:hr>
            <ns3:cad>93</ns3:cad>
          </ns3:TrackPointExtension>
        </extensions>
      </trkpt>
      <trkpt lat="43.8385094515979290008544921875" lon="4.25800069235265254974365234375">
        <ele>156</ele>
        <time>2024-01-27T09:59:19.000Z</time>
        <extensions>
          <ns3:TrackPointExtension>
            <ns3:hr>156</ns3:hr>
            <ns3:cad>93</ns3:cad>
          </ns3:TrackPointExtension>
        </extensions>
      </trkpt>
      <trkpt lat="43.83848480880260467529296875" lon="4.25798677839338779449462890625">
        <ele>156</ele>
        <time>2024-01-27T09:59:20.000Z</time>
        <extensions>
          <ns3:TrackPointExtension>
            <ns3:hr>157</ns3:hr>
            <ns3:cad>93</ns3:cad>
          </ns3:TrackPointExtension>
        </extensions>
      </trkpt>
      <trkpt lat="43.83845823816955089569091796875" lon="4.25796330906450748443603515625">
        <ele>156.1999969482421875</ele>
        <time>2024-01-27T09:59:21.000Z</time>
        <extensions>
          <ns3:TrackPointExtension>
            <ns3:hr>157</ns3:hr>
            <ns3:cad>93</ns3:cad>
          </ns3:TrackPointExtension>
        </extensions>
      </trkpt>
      <trkpt lat="43.83843895979225635528564453125" lon="4.257938750088214874267578125">
        <ele>156.1999969482421875</ele>
        <time>2024-01-27T09:59:22.000Z</time>
        <extensions>
          <ns3:TrackPointExtension>
            <ns3:hr>157</ns3:hr>
            <ns3:cad>92</ns3:cad>
          </ns3:TrackPointExtension>
        </extensions>
      </trkpt>
      <trkpt lat="43.83842202834784984588623046875" lon="4.257913939654827117919921875">
        <ele>156.1999969482421875</ele>
        <time>2024-01-27T09:59:23.000Z</time>
        <extensions>
          <ns3:TrackPointExtension>
            <ns3:hr>157</ns3:hr>
            <ns3:cad>92</ns3:cad>
          </ns3:TrackPointExtension>
        </extensions>
      </trkpt>
      <trkpt lat="43.83840945549309253692626953125" lon="4.25788787193596363067626953125">
        <ele>156.1999969482421875</ele>
        <time>2024-01-27T09:59:24.000Z</time>
        <extensions>
          <ns3:TrackPointExtension>
            <ns3:hr>158</ns3:hr>
            <ns3:cad>92</ns3:cad>
          </ns3:TrackPointExtension>
        </extensions>
      </trkpt>
      <trkpt lat="43.83839906193315982818603515625" lon="4.25785736180841922760009765625">
        <ele>156.1999969482421875</ele>
        <time>2024-01-27T09:59:25.000Z</time>
        <extensions>
          <ns3:TrackPointExtension>
            <ns3:hr>158</ns3:hr>
            <ns3:cad>92</ns3:cad>
          </ns3:TrackPointExtension>
        </extensions>
      </trkpt>
      <trkpt lat="43.8383924402296543121337890625" lon="4.25782509148120880126953125">
        <ele>156.399993896484375</ele>
        <time>2024-01-27T09:59:26.000Z</time>
        <extensions>
          <ns3:TrackPointExtension>
            <ns3:hr>158</ns3:hr>
            <ns3:cad>92</ns3:cad>
          </ns3:TrackPointExtension>
        </extensions>
      </trkpt>
      <trkpt lat="43.8383917696774005889892578125" lon="4.25778611563146114349365234375">
        <ele>156.399993896484375</ele>
        <time>2024-01-27T09:59:27.000Z</time>
        <extensions>
          <ns3:TrackPointExtension>
            <ns3:hr>158</ns3:hr>
            <ns3:cad>92</ns3:cad>
          </ns3:TrackPointExtension>
        </extensions>
      </trkpt>
      <trkpt lat="43.83839285932481288909912109375" lon="4.25775376148521900177001953125">
        <ele>156.399993896484375</ele>
        <time>2024-01-27T09:59:28.000Z</time>
        <extensions>
          <ns3:TrackPointExtension>
            <ns3:hr>158</ns3:hr>
            <ns3:cad>92</ns3:cad>
          </ns3:TrackPointExtension>
        </extensions>
      </trkpt>
      <trkpt lat="43.83839822374284267425537109375" lon="4.2577119357883930206298828125">
        <ele>156.399993896484375</ele>
        <time>2024-01-27T09:59:29.000Z</time>
        <extensions>
          <ns3:TrackPointExtension>
            <ns3:hr>159</ns3:hr>
            <ns3:cad>92</ns3:cad>
          </ns3:TrackPointExtension>
        </extensions>
      </trkpt>
      <trkpt lat="43.83840501308441162109375" lon="4.25768335349857807159423828125">
        <ele>156.399993896484375</ele>
        <time>2024-01-27T09:59:30.000Z</time>
        <extensions>
          <ns3:TrackPointExtension>
            <ns3:hr>159</ns3:hr>
            <ns3:cad>92</ns3:cad>
          </ns3:TrackPointExtension>
        </extensions>
      </trkpt>
      <trkpt lat="43.838411383330821990966796875" lon="4.2576478980481624603271484375">
        <ele>156.399993896484375</ele>
        <time>2024-01-27T09:59:31.000Z</time>
        <extensions>
          <ns3:TrackPointExtension>
            <ns3:hr>159</ns3:hr>
            <ns3:cad>92</ns3:cad>
          </ns3:TrackPointExtension>
        </extensions>
      </trkpt>
      <trkpt lat="43.83841641247272491455078125" lon="4.2576261050999164581298828125">
        <ele>156.399993896484375</ele>
        <time>2024-01-27T09:59:32.000Z</time>
        <extensions>
          <ns3:TrackPointExtension>
            <ns3:hr>159</ns3:hr>
            <ns3:cad>92</ns3:cad>
          </ns3:TrackPointExtension>
        </extensions>
      </trkpt>
      <trkpt lat="43.83841817267239093780517578125" lon="4.257596768438816070556640625">
        <ele>156.399993896484375</ele>
        <time>2024-01-27T09:59:33.000Z</time>
        <extensions>
          <ns3:TrackPointExtension>
            <ns3:hr>159</ns3:hr>
            <ns3:cad>92</ns3:cad>
          </ns3:TrackPointExtension>
        </extensions>
      </trkpt>
      <trkpt lat="43.83841716684401035308837890625" lon="4.25757103599607944488525390625">
        <ele>156.399993896484375</ele>
        <time>2024-01-27T09:59:34.000Z</time>
        <extensions>
          <ns3:TrackPointExtension>
            <ns3:hr>159</ns3:hr>
            <ns3:cad>91</ns3:cad>
          </ns3:TrackPointExtension>
        </extensions>
      </trkpt>
      <trkpt lat="43.838416077196598052978515625" lon="4.25754035823047161102294921875">
        <ele>156.399993896484375</ele>
        <time>2024-01-27T09:59:35.000Z</time>
        <extensions>
          <ns3:TrackPointExtension>
            <ns3:hr>159</ns3:hr>
            <ns3:cad>91</ns3:cad>
          </ns3:TrackPointExtension>
        </extensions>
      </trkpt>
      <trkpt lat="43.83842672221362590789794921875" lon="4.2575151287019252777099609375">
        <ele>156.399993896484375</ele>
        <time>2024-01-27T09:59:36.000Z</time>
        <extensions>
          <ns3:TrackPointExtension>
            <ns3:hr>159</ns3:hr>
            <ns3:cad>90</ns3:cad>
          </ns3:TrackPointExtension>
        </extensions>
      </trkpt>
      <trkpt lat="43.8384457491338253021240234375" lon="4.25749258138239383697509765625">
        <ele>156.1999969482421875</ele>
        <time>2024-01-27T09:59:37.000Z</time>
        <extensions>
          <ns3:TrackPointExtension>
            <ns3:hr>159</ns3:hr>
            <ns3:cad>88</ns3:cad>
          </ns3:TrackPointExtension>
        </extensions>
      </trkpt>
      <trkpt lat="43.8384651951491832733154296875" lon="4.25747782923281192779541015625">
        <ele>156</ele>
        <time>2024-01-27T09:59:38.000Z</time>
        <extensions>
          <ns3:TrackPointExtension>
            <ns3:hr>159</ns3:hr>
            <ns3:cad>88</ns3:cad>
          </ns3:TrackPointExtension>
        </extensions>
      </trkpt>
      <trkpt lat="43.8384863175451755523681640625" lon="4.257466681301593780517578125">
        <ele>156</ele>
        <time>2024-01-27T09:59:39.000Z</time>
        <extensions>
          <ns3:TrackPointExtension>
            <ns3:hr>159</ns3:hr>
            <ns3:cad>88</ns3:cad>
          </ns3:TrackPointExtension>
        </extensions>
      </trkpt>
      <trkpt lat="43.8385067693889141082763671875" lon="4.2574588023126125335693359375">
        <ele>156</ele>
        <time>2024-01-27T09:59:40.000Z</time>
        <extensions>
          <ns3:TrackPointExtension>
            <ns3:hr>159</ns3:hr>
            <ns3:cad>87</ns3:cad>
          </ns3:TrackPointExtension>
        </extensions>
      </trkpt>
      <trkpt lat="43.8385312445461750030517578125" lon="4.25745234824717044830322265625">
        <ele>156</ele>
        <time>2024-01-27T09:59:41.000Z</time>
        <extensions>
          <ns3:TrackPointExtension>
            <ns3:hr>159</ns3:hr>
            <ns3:cad>87</ns3:cad>
          </ns3:TrackPointExtension>
        </extensions>
      </trkpt>
      <trkpt lat="43.83855479769408702850341796875" lon="4.2574494145810604095458984375">
        <ele>156</ele>
        <time>2024-01-27T09:59:42.000Z</time>
        <extensions>
          <ns3:TrackPointExtension>
            <ns3:hr>159</ns3:hr>
            <ns3:cad>92</ns3:cad>
          </ns3:TrackPointExtension>
        </extensions>
      </trkpt>
      <trkpt lat="43.8385808654129505157470703125" lon="4.2574437148869037628173828125">
        <ele>156.399993896484375</ele>
        <time>2024-01-27T09:59:43.000Z</time>
        <extensions>
          <ns3:TrackPointExtension>
            <ns3:hr>158</ns3:hr>
            <ns3:cad>92</ns3:cad>
          </ns3:TrackPointExtension>
        </extensions>
      </trkpt>
      <trkpt lat="43.83860190398991107940673828125" lon="4.25743474625051021575927734375">
        <ele>156.399993896484375</ele>
        <time>2024-01-27T09:59:44.000Z</time>
        <extensions>
          <ns3:TrackPointExtension>
            <ns3:hr>158</ns3:hr>
            <ns3:cad>90</ns3:cad>
          </ns3:TrackPointExtension>
        </extensions>
      </trkpt>
      <trkpt lat="43.83862964808940887451171875" lon="4.2574274539947509765625">
        <ele>156.600006103515625</ele>
        <time>2024-01-27T09:59:45.000Z</time>
        <extensions>
          <ns3:TrackPointExtension>
            <ns3:hr>158</ns3:hr>
            <ns3:cad>90</ns3:cad>
          </ns3:TrackPointExtension>
        </extensions>
      </trkpt>
      <trkpt lat="43.8386509381234645843505859375" lon="4.2574252746999263763427734375">
        <ele>156.600006103515625</ele>
        <time>2024-01-27T09:59:46.000Z</time>
        <extensions>
          <ns3:TrackPointExtension>
            <ns3:hr>158</ns3:hr>
            <ns3:cad>90</ns3:cad>
          </ns3:TrackPointExtension>
        </extensions>
      </trkpt>
      <trkpt lat="43.8386774249374866485595703125" lon="4.2574234306812286376953125">
        <ele>156.600006103515625</ele>
        <time>2024-01-27T09:59:47.000Z</time>
        <extensions>
          <ns3:TrackPointExtension>
            <ns3:hr>158</ns3:hr>
            <ns3:cad>90</ns3:cad>
          </ns3:TrackPointExtension>
        </extensions>
      </trkpt>
      <trkpt lat="43.83870206773281097412109375" lon="4.2574219219386577606201171875">
        <ele>156.600006103515625</ele>
        <time>2024-01-27T09:59:48.000Z</time>
        <extensions>
          <ns3:TrackPointExtension>
            <ns3:hr>158</ns3:hr>
            <ns3:cad>90</ns3:cad>
          </ns3:TrackPointExtension>
        </extensions>
      </trkpt>
      <trkpt lat="43.838729560375213623046875" lon="4.257417730987071990966796875">
        <ele>156.8000030517578125</ele>
        <time>2024-01-27T09:59:49.000Z</time>
        <extensions>
          <ns3:TrackPointExtension>
            <ns3:hr>158</ns3:hr>
            <ns3:cad>90</ns3:cad>
          </ns3:TrackPointExtension>
        </extensions>
      </trkpt>
      <trkpt lat="43.83875437080860137939453125" lon="4.25741471350193023681640625">
        <ele>156.8000030517578125</ele>
        <time>2024-01-27T09:59:50.000Z</time>
        <extensions>
          <ns3:TrackPointExtension>
            <ns3:hr>158</ns3:hr>
            <ns3:cad>90</ns3:cad>
          </ns3:TrackPointExtension>
        </extensions>
      </trkpt>
      <trkpt lat="43.83877993561327457427978515625" lon="4.25741949118673801422119140625">
        <ele>156.8000030517578125</ele>
        <time>2024-01-27T09:59:51.000Z</time>
        <extensions>
          <ns3:TrackPointExtension>
            <ns3:hr>159</ns3:hr>
            <ns3:cad>89</ns3:cad>
          </ns3:TrackPointExtension>
        </extensions>
      </trkpt>
      <trkpt lat="43.8388021476566791534423828125" lon="4.25742544233798980712890625">
        <ele>157</ele>
        <time>2024-01-27T09:59:52.000Z</time>
        <extensions>
          <ns3:TrackPointExtension>
            <ns3:hr>159</ns3:hr>
            <ns3:cad>89</ns3:cad>
          </ns3:TrackPointExtension>
        </extensions>
      </trkpt>
      <trkpt lat="43.83882679045200347900390625" lon="4.25743457861244678497314453125">
        <ele>157</ele>
        <time>2024-01-27T09:59:53.000Z</time>
        <extensions>
          <ns3:TrackPointExtension>
            <ns3:hr>159</ns3:hr>
            <ns3:cad>90</ns3:cad>
          </ns3:TrackPointExtension>
        </extensions>
      </trkpt>
      <trkpt lat="43.83884950540959835052490234375" lon="4.2574403621256351470947265625">
        <ele>157</ele>
        <time>2024-01-27T09:59:54.000Z</time>
        <extensions>
          <ns3:TrackPointExtension>
            <ns3:hr>159</ns3:hr>
            <ns3:cad>90</ns3:cad>
          </ns3:TrackPointExtension>
        </extensions>
      </trkpt>
      <trkpt lat="43.83888043463230133056640625" lon="4.2574467323720455169677734375">
        <ele>157.1999969482421875</ele>
        <time>2024-01-27T09:59:55.000Z</time>
        <extensions>
          <ns3:TrackPointExtension>
            <ns3:hr>159</ns3:hr>
            <ns3:cad>92</ns3:cad>
          </ns3:TrackPointExtension>
        </extensions>
      </trkpt>
      <trkpt lat="43.83890323340892791748046875" lon="4.25744690001010894775390625">
        <ele>157.1999969482421875</ele>
        <time>2024-01-27T09:59:56.000Z</time>
        <extensions>
          <ns3:TrackPointExtension>
            <ns3:hr>159</ns3:hr>
            <ns3:cad>92</ns3:cad>
          </ns3:TrackPointExtension>
        </extensions>
      </trkpt>
      <trkpt lat="43.8389292173087596893310546875" lon="4.2574433796107769012451171875">
        <ele>157.1999969482421875</ele>
        <time>2024-01-27T09:59:57.000Z</time>
        <extensions>
          <ns3:TrackPointExtension>
            <ns3:hr>159</ns3:hr>
            <ns3:cad>92</ns3:cad>
          </ns3:TrackPointExtension>
        </extensions>
      </trkpt>
      <trkpt lat="43.83895243518054485321044921875" lon="4.2574386857450008392333984375">
        <ele>157.399993896484375</ele>
        <time>2024-01-27T09:59:58.000Z</time>
        <extensions>
          <ns3:TrackPointExtension>
            <ns3:hr>159</ns3:hr>
            <ns3:cad>92</ns3:cad>
          </ns3:TrackPointExtension>
        </extensions>
      </trkpt>
      <trkpt lat="43.8389778323471546173095703125" lon="4.25743726082146167755126953125">
        <ele>157.399993896484375</ele>
        <time>2024-01-27T09:59:59.000Z</time>
        <extensions>
          <ns3:TrackPointExtension>
            <ns3:hr>159</ns3:hr>
            <ns3:cad>92</ns3:cad>
          </ns3:TrackPointExtension>
        </extensions>
      </trkpt>
      <trkpt lat="43.838998787105083465576171875" lon="4.2574363388121128082275390625">
        <ele>157.399993896484375</ele>
        <time>2024-01-27T10:00:00.000Z</time>
        <extensions>
          <ns3:TrackPointExtension>
            <ns3:hr>159</ns3:hr>
            <ns3:cad>93</ns3:cad>
          </ns3:TrackPointExtension>
        </extensions>
      </trkpt>
      <trkpt lat="43.83902636356651782989501953125" lon="4.2574395239353179931640625">
        <ele>157.399993896484375</ele>
        <time>2024-01-27T10:00:01.000Z</time>
        <extensions>
          <ns3:TrackPointExtension>
            <ns3:hr>159</ns3:hr>
            <ns3:cad>93</ns3:cad>
          </ns3:TrackPointExtension>
        </extensions>
      </trkpt>
      <trkpt lat="43.839052431285381317138671875" lon="4.25743944011628627777099609375">
        <ele>157.399993896484375</ele>
        <time>2024-01-27T10:00:02.000Z</time>
        <extensions>
          <ns3:TrackPointExtension>
            <ns3:hr>159</ns3:hr>
            <ns3:cad>93</ns3:cad>
          </ns3:TrackPointExtension>
        </extensions>
      </trkpt>
      <trkpt lat="43.8390777446329593658447265625" lon="4.25743483006954193115234375">
        <ele>157.1999969482421875</ele>
        <time>2024-01-27T10:00:03.000Z</time>
        <extensions>
          <ns3:TrackPointExtension>
            <ns3:hr>159</ns3:hr>
            <ns3:cad>91</ns3:cad>
          </ns3:TrackPointExtension>
        </extensions>
      </trkpt>
      <trkpt lat="43.8390988670289516448974609375" lon="4.2574279569089412689208984375">
        <ele>157.1999969482421875</ele>
        <time>2024-01-27T10:00:04.000Z</time>
        <extensions>
          <ns3:TrackPointExtension>
            <ns3:hr>158</ns3:hr>
            <ns3:cad>89</ns3:cad>
          </ns3:TrackPointExtension>
        </extensions>
      </trkpt>
      <trkpt lat="43.839119486510753631591796875" lon="4.25744329579174518585205078125">
        <ele>157.1999969482421875</ele>
        <time>2024-01-27T10:00:05.000Z</time>
        <extensions>
          <ns3:TrackPointExtension>
            <ns3:hr>158</ns3:hr>
            <ns3:cad>89</ns3:cad>
          </ns3:TrackPointExtension>
        </extensions>
      </trkpt>
      <trkpt lat="43.83914069272577762603759765625" lon="4.25745670683681964874267578125">
        <ele>157.1999969482421875</ele>
        <time>2024-01-27T10:00:06.000Z</time>
        <extensions>
          <ns3:TrackPointExtension>
            <ns3:hr>158</ns3:hr>
            <ns3:cad>89</ns3:cad>
          </ns3:TrackPointExtension>
        </extensions>
      </trkpt>
      <trkpt lat="43.83916550315916538238525390625" lon="4.25747481174767017364501953125">
        <ele>157.1999969482421875</ele>
        <time>2024-01-27T10:00:07.000Z</time>
        <extensions>
          <ns3:TrackPointExtension>
            <ns3:hr>158</ns3:hr>
            <ns3:cad>89</ns3:cad>
          </ns3:TrackPointExtension>
        </extensions>
      </trkpt>
      <trkpt lat="43.83919182233512401580810546875" lon="4.2574866302311420440673828125">
        <ele>157.1999969482421875</ele>
        <time>2024-01-27T10:00:08.000Z</time>
        <extensions>
          <ns3:TrackPointExtension>
            <ns3:hr>159</ns3:hr>
            <ns3:cad>89</ns3:cad>
          </ns3:TrackPointExtension>
        </extensions>
      </trkpt>
      <trkpt lat="43.83921571075916290283203125" lon="4.25749744288623332977294921875">
        <ele>157.1999969482421875</ele>
        <time>2024-01-27T10:00:09.000Z</time>
        <extensions>
          <ns3:TrackPointExtension>
            <ns3:hr>159</ns3:hr>
            <ns3:cad>90</ns3:cad>
          </ns3:TrackPointExtension>
        </extensions>
      </trkpt>
      <trkpt lat="43.83924094028770923614501953125" lon="4.2575077526271343231201171875">
        <ele>157.1999969482421875</ele>
        <time>2024-01-27T10:00:10.000Z</time>
        <extensions>
          <ns3:TrackPointExtension>
            <ns3:hr>159</ns3:hr>
            <ns3:cad>93</ns3:cad>
          </ns3:TrackPointExtension>
        </extensions>
      </trkpt>
      <trkpt lat="43.83926591835916042327880859375" lon="4.25752225331962108612060546875">
        <ele>157.1999969482421875</ele>
        <time>2024-01-27T10:00:11.000Z</time>
        <extensions>
          <ns3:TrackPointExtension>
            <ns3:hr>158</ns3:hr>
            <ns3:cad>93</ns3:cad>
          </ns3:TrackPointExtension>
        </extensions>
      </trkpt>
      <trkpt lat="43.839290477335453033447265625" lon="4.2575385980308055877685546875">
        <ele>157.399993896484375</ele>
        <time>2024-01-27T10:00:12.000Z</time>
        <extensions>
          <ns3:TrackPointExtension>
            <ns3:hr>158</ns3:hr>
            <ns3:cad>93</ns3:cad>
          </ns3:TrackPointExtension>
        </extensions>
      </trkpt>
      <trkpt lat="43.83931620977818965911865234375" lon="4.25755209289491176605224609375">
        <ele>157.399993896484375</ele>
        <time>2024-01-27T10:00:13.000Z</time>
        <extensions>
          <ns3:TrackPointExtension>
            <ns3:hr>158</ns3:hr>
            <ns3:cad>92</ns3:cad>
          </ns3:TrackPointExtension>
        </extensions>
      </trkpt>
      <trkpt lat="43.839340098202228546142578125" lon="4.25755913369357585906982421875">
        <ele>157.399993896484375</ele>
        <time>2024-01-27T10:00:14.000Z</time>
        <extensions>
          <ns3:TrackPointExtension>
            <ns3:hr>157</ns3:hr>
            <ns3:cad>92</ns3:cad>
          </ns3:TrackPointExtension>
        </extensions>
      </trkpt>
      <trkpt lat="43.83936080150306224822998046875" lon="4.2575630731880664825439453125">
        <ele>157.600006103515625</ele>
        <time>2024-01-27T10:00:15.000Z</time>
        <extensions>
          <ns3:TrackPointExtension>
            <ns3:hr>157</ns3:hr>
            <ns3:cad>90</ns3:cad>
          </ns3:TrackPointExtension>
        </extensions>
      </trkpt>
      <trkpt lat="43.83938745595514774322509765625" lon="4.25757489167153835296630859375">
        <ele>157.600006103515625</ele>
        <time>2024-01-27T10:00:16.000Z</time>
        <extensions>
          <ns3:TrackPointExtension>
            <ns3:hr>157</ns3:hr>
            <ns3:cad>90</ns3:cad>
          </ns3:TrackPointExtension>
        </extensions>
      </trkpt>
      <trkpt lat="43.839410841464996337890625" lon="4.25758159719407558441162109375">
        <ele>157.600006103515625</ele>
        <time>2024-01-27T10:00:17.000Z</time>
        <extensions>
          <ns3:TrackPointExtension>
            <ns3:hr>157</ns3:hr>
            <ns3:cad>91</ns3:cad>
          </ns3:TrackPointExtension>
        </extensions>
      </trkpt>
      <trkpt lat="43.83943338878452777862548828125" lon="4.25759308040142059326171875">
        <ele>157.8000030517578125</ele>
        <time>2024-01-27T10:00:18.000Z</time>
        <extensions>
          <ns3:TrackPointExtension>
            <ns3:hr>157</ns3:hr>
            <ns3:cad>92</ns3:cad>
          </ns3:TrackPointExtension>
        </extensions>
      </trkpt>
      <trkpt lat="43.83945652283728122711181640625" lon="4.25759869627654552459716796875">
        <ele>157.8000030517578125</ele>
        <time>2024-01-27T10:00:19.000Z</time>
        <extensions>
          <ns3:TrackPointExtension>
            <ns3:hr>157</ns3:hr>
            <ns3:cad>92</ns3:cad>
          </ns3:TrackPointExtension>
        </extensions>
      </trkpt>
      <trkpt lat="43.8394819200038909912109375" lon="4.257602132856845855712890625">
        <ele>157.8000030517578125</ele>
        <time>2024-01-27T10:00:20.000Z</time>
        <extensions>
          <ns3:TrackPointExtension>
            <ns3:hr>156</ns3:hr>
            <ns3:cad>93</ns3:cad>
          </ns3:TrackPointExtension>
        </extensions>
      </trkpt>
      <trkpt lat="43.8395048864185810089111328125" lon="4.25760322250425815582275390625">
        <ele>157.8000030517578125</ele>
        <time>2024-01-27T10:00:21.000Z</time>
        <extensions>
          <ns3:TrackPointExtension>
            <ns3:hr>156</ns3:hr>
            <ns3:cad>94</ns3:cad>
          </ns3:TrackPointExtension>
        </extensions>
      </trkpt>
      <trkpt lat="43.83952525444328784942626953125" lon="4.2576039768755435943603515625">
        <ele>157.8000030517578125</ele>
        <time>2024-01-27T10:00:22.000Z</time>
        <extensions>
          <ns3:TrackPointExtension>
            <ns3:hr>156</ns3:hr>
            <ns3:cad>94</ns3:cad>
          </ns3:TrackPointExtension>
        </extensions>
      </trkpt>
      <trkpt lat="43.839547969400882720947265625" lon="4.257608838379383087158203125">
        <ele>157.8000030517578125</ele>
        <time>2024-01-27T10:00:23.000Z</time>
        <extensions>
          <ns3:TrackPointExtension>
            <ns3:hr>156</ns3:hr>
            <ns3:cad>93</ns3:cad>
          </ns3:TrackPointExtension>
        </extensions>
      </trkpt>
      <trkpt lat="43.83956708014011383056640625" lon="4.2576220817863941192626953125">
        <ele>157.8000030517578125</ele>
        <time>2024-01-27T10:00:24.000Z</time>
        <extensions>
          <ns3:TrackPointExtension>
            <ns3:hr>156</ns3:hr>
            <ns3:cad>92</ns3:cad>
          </ns3:TrackPointExtension>
        </extensions>
      </trkpt>
      <trkpt lat="43.83958878926932811737060546875" lon="4.2576307989656925201416015625">
        <ele>157.8000030517578125</ele>
        <time>2024-01-27T10:00:25.000Z</time>
        <extensions>
          <ns3:TrackPointExtension>
            <ns3:hr>156</ns3:hr>
            <ns3:cad>92</ns3:cad>
          </ns3:TrackPointExtension>
        </extensions>
      </trkpt>
      <trkpt lat="43.83960622362792491912841796875" lon="4.25763792358338832855224609375">
        <ele>157.8000030517578125</ele>
        <time>2024-01-27T10:00:26.000Z</time>
        <extensions>
          <ns3:TrackPointExtension>
            <ns3:hr>156</ns3:hr>
            <ns3:cad>92</ns3:cad>
          </ns3:TrackPointExtension>
        </extensions>
      </trkpt>
      <trkpt lat="43.8396294414997100830078125" lon="4.25765384919941425323486328125">
        <ele>158</ele>
        <time>2024-01-27T10:00:27.000Z</time>
        <extensions>
          <ns3:TrackPointExtension>
            <ns3:hr>157</ns3:hr>
            <ns3:cad>92</ns3:cad>
          </ns3:TrackPointExtension>
        </extensions>
      </trkpt>
      <trkpt lat="43.83965048007667064666748046875" lon="4.25766390748322010040283203125">
        <ele>158</ele>
        <time>2024-01-27T10:00:28.000Z</time>
        <extensions>
          <ns3:TrackPointExtension>
            <ns3:hr>157</ns3:hr>
            <ns3:cad>90</ns3:cad>
          </ns3:TrackPointExtension>
        </extensions>
      </trkpt>
      <trkpt lat="43.83967629633843898773193359375" lon="4.257677234709262847900390625">
        <ele>158</ele>
        <time>2024-01-27T10:00:29.000Z</time>
        <extensions>
          <ns3:TrackPointExtension>
            <ns3:hr>158</ns3:hr>
            <ns3:cad>90</ns3:cad>
          </ns3:TrackPointExtension>
        </extensions>
      </trkpt>
      <trkpt lat="43.83969490416347980499267578125" lon="4.25768905319273471832275390625">
        <ele>158.1999969482421875</ele>
        <time>2024-01-27T10:00:30.000Z</time>
        <extensions>
          <ns3:TrackPointExtension>
            <ns3:hr>158</ns3:hr>
            <ns3:cad>90</ns3:cad>
          </ns3:TrackPointExtension>
        </extensions>
      </trkpt>
      <trkpt lat="43.839718289673328399658203125" lon="4.2577059008181095123291015625">
        <ele>158.1999969482421875</ele>
        <time>2024-01-27T10:00:31.000Z</time>
        <extensions>
          <ns3:TrackPointExtension>
            <ns3:hr>158</ns3:hr>
            <ns3:cad>92</ns3:cad>
          </ns3:TrackPointExtension>
        </extensions>
      </trkpt>
      <trkpt lat="43.83973740041255950927734375" lon="4.25771688111126422882080078125">
        <ele>158.399993896484375</ele>
        <time>2024-01-27T10:00:32.000Z</time>
        <extensions>
          <ns3:TrackPointExtension>
            <ns3:hr>158</ns3:hr>
            <ns3:cad>92</ns3:cad>
          </ns3:TrackPointExtension>
        </extensions>
      </trkpt>
      <trkpt lat="43.83976019918918609619140625" lon="4.2577327229082584381103515625">
        <ele>158.399993896484375</ele>
        <time>2024-01-27T10:00:33.000Z</time>
        <extensions>
          <ns3:TrackPointExtension>
            <ns3:hr>158</ns3:hr>
            <ns3:cad>91</ns3:cad>
          </ns3:TrackPointExtension>
        </extensions>
      </trkpt>
      <trkpt lat="43.8397811539471149444580078125" lon="4.25774387083947658538818359375">
        <ele>158.399993896484375</ele>
        <time>2024-01-27T10:00:34.000Z</time>
        <extensions>
          <ns3:TrackPointExtension>
            <ns3:hr>158</ns3:hr>
            <ns3:cad>91</ns3:cad>
          </ns3:TrackPointExtension>
        </extensions>
      </trkpt>
      <trkpt lat="43.83980311453342437744140625" lon="4.25775812007486820220947265625">
        <ele>158.399993896484375</ele>
        <time>2024-01-27T10:00:35.000Z</time>
        <extensions>
          <ns3:TrackPointExtension>
            <ns3:hr>158</ns3:hr>
            <ns3:cad>92</ns3:cad>
          </ns3:TrackPointExtension>
        </extensions>
      </trkpt>
      <trkpt lat="43.839824907481670379638671875" lon="4.2577721178531646728515625">
        <ele>158.600006103515625</ele>
        <time>2024-01-27T10:00:36.000Z</time>
        <extensions>
          <ns3:TrackPointExtension>
            <ns3:hr>158</ns3:hr>
            <ns3:cad>92</ns3:cad>
          </ns3:TrackPointExtension>
        </extensions>
      </trkpt>
      <trkpt lat="43.83984594605863094329833984375" lon="4.25778225995600223541259765625">
        <ele>158.600006103515625</ele>
        <time>2024-01-27T10:00:37.000Z</time>
        <extensions>
          <ns3:TrackPointExtension>
            <ns3:hr>158</ns3:hr>
            <ns3:cad>92</ns3:cad>
          </ns3:TrackPointExtension>
        </extensions>
      </trkpt>
      <trkpt lat="43.8398730196058750152587890625" lon="4.2577836848795413970947265625">
        <ele>158.8000030517578125</ele>
        <time>2024-01-27T10:00:38.000Z</time>
        <extensions>
          <ns3:TrackPointExtension>
            <ns3:hr>158</ns3:hr>
            <ns3:cad>93</ns3:cad>
          </ns3:TrackPointExtension>
        </extensions>
      </trkpt>
      <trkpt lat="43.83989305235445499420166015625" lon="4.25778812728822231292724609375">
        <ele>158.8000030517578125</ele>
        <time>2024-01-27T10:00:39.000Z</time>
        <extensions>
          <ns3:TrackPointExtension>
            <ns3:hr>158</ns3:hr>
            <ns3:cad>93</ns3:cad>
          </ns3:TrackPointExtension>
        </extensions>
      </trkpt>
      <trkpt lat="43.8399159349501132965087890625" lon="4.25780363380908966064453125">
        <ele>159</ele>
        <time>2024-01-27T10:00:40.000Z</time>
        <extensions>
          <ns3:TrackPointExtension>
            <ns3:hr>158</ns3:hr>
            <ns3:cad>93</ns3:cad>
          </ns3:TrackPointExtension>
        </extensions>
      </trkpt>
      <trkpt lat="43.83993613533675670623779296875" lon="4.25781763158738613128662109375">
        <ele>159</ele>
        <time>2024-01-27T10:00:41.000Z</time>
        <extensions>
          <ns3:TrackPointExtension>
            <ns3:hr>158</ns3:hr>
            <ns3:cad>93</ns3:cad>
          </ns3:TrackPointExtension>
        </extensions>
      </trkpt>
      <trkpt lat="43.83995625190436840057373046875" lon="4.2578403465449810028076171875">
        <ele>159</ele>
        <time>2024-01-27T10:00:42.000Z</time>
        <extensions>
          <ns3:TrackPointExtension>
            <ns3:hr>158</ns3:hr>
            <ns3:cad>92</ns3:cad>
          </ns3:TrackPointExtension>
        </extensions>
      </trkpt>
      <trkpt lat="43.83997477591037750244140625" lon="4.2578547634184360504150390625">
        <ele>159.1999969482421875</ele>
        <time>2024-01-27T10:00:43.000Z</time>
        <extensions>
          <ns3:TrackPointExtension>
            <ns3:hr>159</ns3:hr>
            <ns3:cad>92</ns3:cad>
          </ns3:TrackPointExtension>
        </extensions>
      </trkpt>
      <trkpt lat="43.83999782614409923553466796875" lon="4.25787680782377719879150390625">
        <ele>159.399993896484375</ele>
        <time>2024-01-27T10:00:44.000Z</time>
        <extensions>
          <ns3:TrackPointExtension>
            <ns3:hr>159</ns3:hr>
            <ns3:cad>92</ns3:cad>
          </ns3:TrackPointExtension>
        </extensions>
      </trkpt>
      <trkpt lat="43.8400171883404254913330078125" lon="4.257889799773693084716796875">
        <ele>159.399993896484375</ele>
        <time>2024-01-27T10:00:45.000Z</time>
        <extensions>
          <ns3:TrackPointExtension>
            <ns3:hr>159</ns3:hr>
            <ns3:cad>92</ns3:cad>
          </ns3:TrackPointExtension>
        </extensions>
      </trkpt>
      <trkpt lat="43.8400373049080371856689453125" lon="4.2579100839793682098388671875">
        <ele>159.399993896484375</ele>
        <time>2024-01-27T10:00:46.000Z</time>
        <extensions>
          <ns3:TrackPointExtension>
            <ns3:hr>159</ns3:hr>
            <ns3:cad>92</ns3:cad>
          </ns3:TrackPointExtension>
        </extensions>
      </trkpt>
      <trkpt lat="43.84005532599985599517822265625" lon="4.25792961381375789642333984375">
        <ele>159.600006103515625</ele>
        <time>2024-01-27T10:00:47.000Z</time>
        <extensions>
          <ns3:TrackPointExtension>
            <ns3:hr>159</ns3:hr>
            <ns3:cad>92</ns3:cad>
          </ns3:TrackPointExtension>
        </extensions>
      </trkpt>
      <trkpt lat="43.84007041342556476593017578125" lon="4.257953502237796783447265625">
        <ele>159.600006103515625</ele>
        <time>2024-01-27T10:00:48.000Z</time>
        <extensions>
          <ns3:TrackPointExtension>
            <ns3:hr>159</ns3:hr>
            <ns3:cad>92</ns3:cad>
          </ns3:TrackPointExtension>
        </extensions>
      </trkpt>
      <trkpt lat="43.84008130989968776702880859375" lon="4.2579781450331211090087890625">
        <ele>159.8000030517578125</ele>
        <time>2024-01-27T10:00:49.000Z</time>
        <extensions>
          <ns3:TrackPointExtension>
            <ns3:hr>158</ns3:hr>
            <ns3:cad>91</ns3:cad>
          </ns3:TrackPointExtension>
        </extensions>
      </trkpt>
      <trkpt lat="43.84009706787765026092529296875" lon="4.25800421275198459625244140625">
        <ele>159.8000030517578125</ele>
        <time>2024-01-27T10:00:50.000Z</time>
        <extensions>
          <ns3:TrackPointExtension>
            <ns3:hr>158</ns3:hr>
            <ns3:cad>91</ns3:cad>
          </ns3:TrackPointExtension>
        </extensions>
      </trkpt>
      <trkpt lat="43.84011366404592990875244140625" lon="4.25802835263311862945556640625">
        <ele>160</ele>
        <time>2024-01-27T10:00:51.000Z</time>
        <extensions>
          <ns3:TrackPointExtension>
            <ns3:hr>157</ns3:hr>
            <ns3:cad>92</ns3:cad>
          </ns3:TrackPointExtension>
        </extensions>
      </trkpt>
      <trkpt lat="43.8401328586041927337646484375" lon="4.2580465413630008697509765625">
        <ele>160</ele>
        <time>2024-01-27T10:00:52.000Z</time>
        <extensions>
          <ns3:TrackPointExtension>
            <ns3:hr>157</ns3:hr>
            <ns3:cad>93</ns3:cad>
          </ns3:TrackPointExtension>
        </extensions>
      </trkpt>
      <trkpt lat="43.840151131153106689453125" lon="4.258064813911914825439453125">
        <ele>160</ele>
        <time>2024-01-27T10:00:53.000Z</time>
        <extensions>
          <ns3:TrackPointExtension>
            <ns3:hr>156</ns3:hr>
            <ns3:cad>93</ns3:cad>
          </ns3:TrackPointExtension>
        </extensions>
      </trkpt>
      <trkpt lat="43.84016789495944976806640625" lon="4.25807730294764041900634765625">
        <ele>160.1999969482421875</ele>
        <time>2024-01-27T10:00:54.000Z</time>
        <extensions>
          <ns3:TrackPointExtension>
            <ns3:hr>156</ns3:hr>
            <ns3:cad>93</ns3:cad>
          </ns3:TrackPointExtension>
        </extensions>
      </trkpt>
      <trkpt lat="43.84018641896545886993408203125" lon="4.25809063017368316650390625">
        <ele>160.399993896484375</ele>
        <time>2024-01-27T10:00:55.000Z</time>
        <extensions>
          <ns3:TrackPointExtension>
            <ns3:hr>156</ns3:hr>
            <ns3:cad>92</ns3:cad>
          </ns3:TrackPointExtension>
        </extensions>
      </trkpt>
      <trkpt lat="43.8402039371430873870849609375" lon="4.25810026936233043670654296875">
        <ele>160.600006103515625</ele>
        <time>2024-01-27T10:00:56.000Z</time>
        <extensions>
          <ns3:TrackPointExtension>
            <ns3:hr>156</ns3:hr>
            <ns3:cad>92</ns3:cad>
          </ns3:TrackPointExtension>
        </extensions>
      </trkpt>
      <trkpt lat="43.8402222096920013427734375" lon="4.25811099819839000701904296875">
        <ele>160.8000030517578125</ele>
        <time>2024-01-27T10:00:57.000Z</time>
        <extensions>
          <ns3:TrackPointExtension>
            <ns3:hr>156</ns3:hr>
            <ns3:cad>92</ns3:cad>
          </ns3:TrackPointExtension>
        </extensions>
      </trkpt>
      <trkpt lat="43.8402383029460906982421875" lon="4.2581181228160858154296875">
        <ele>160.8000030517578125</ele>
        <time>2024-01-27T10:00:58.000Z</time>
        <extensions>
          <ns3:TrackPointExtension>
            <ns3:hr>156</ns3:hr>
            <ns3:cad>92</ns3:cad>
          </ns3:TrackPointExtension>
        </extensions>
      </trkpt>
      <trkpt lat="43.840260095894336700439453125" lon="4.25813463516533374786376953125">
        <ele>161</ele>
        <time>2024-01-27T10:00:59.000Z</time>
        <extensions>
          <ns3:TrackPointExtension>
            <ns3:hr>156</ns3:hr>
            <ns3:cad>92</ns3:cad>
          </ns3:TrackPointExtension>
        </extensions>
      </trkpt>
      <trkpt lat="43.84028163738548755645751953125" lon="4.25814695656299591064453125">
        <ele>161</ele>
        <time>2024-01-27T10:01:00.000Z</time>
        <extensions>
          <ns3:TrackPointExtension>
            <ns3:hr>157</ns3:hr>
            <ns3:cad>92</ns3:cad>
          </ns3:TrackPointExtension>
        </extensions>
      </trkpt>
      <trkpt lat="43.84030678309500217437744140625" lon="4.2581422626972198486328125">
        <ele>161.1999969482421875</ele>
        <time>2024-01-27T10:01:01.000Z</time>
        <extensions>
          <ns3:TrackPointExtension>
            <ns3:hr>157</ns3:hr>
            <ns3:cad>92</ns3:cad>
          </ns3:TrackPointExtension>
        </extensions>
      </trkpt>
      <trkpt lat="43.8403216190636157989501953125" lon="4.25813832320272922515869140625">
        <ele>161.399993896484375</ele>
        <time>2024-01-27T10:01:02.000Z</time>
        <extensions>
          <ns3:TrackPointExtension>
            <ns3:hr>157</ns3:hr>
            <ns3:cad>92</ns3:cad>
          </ns3:TrackPointExtension>
        </extensions>
      </trkpt>
      <trkpt lat="43.84033687412738800048828125" lon="4.2581209726631641387939453125">
        <ele>161.600006103515625</ele>
        <time>2024-01-27T10:01:03.000Z</time>
        <extensions>
          <ns3:TrackPointExtension>
            <ns3:hr>158</ns3:hr>
            <ns3:cad>92</ns3:cad>
          </ns3:TrackPointExtension>
        </extensions>
      </trkpt>
      <trkpt lat="43.84034818969666957855224609375" lon="4.25809825770556926727294921875">
        <ele>161.600006103515625</ele>
        <time>2024-01-27T10:01:04.000Z</time>
        <extensions>
          <ns3:TrackPointExtension>
            <ns3:hr>158</ns3:hr>
            <ns3:cad>91</ns3:cad>
          </ns3:TrackPointExtension>
        </extensions>
      </trkpt>
      <trkpt lat="43.84035766124725341796875" lon="4.25806674174964427947998046875">
        <ele>161.600006103515625</ele>
        <time>2024-01-27T10:01:05.000Z</time>
        <extensions>
          <ns3:TrackPointExtension>
            <ns3:hr>158</ns3:hr>
            <ns3:cad>91</ns3:cad>
          </ns3:TrackPointExtension>
        </extensions>
      </trkpt>
      <trkpt lat="43.8403672166168689727783203125" lon="4.2580361478030681610107421875">
        <ele>161.600006103515625</ele>
        <time>2024-01-27T10:01:06.000Z</time>
        <extensions>
          <ns3:TrackPointExtension>
            <ns3:hr>158</ns3:hr>
            <ns3:cad>91</ns3:cad>
          </ns3:TrackPointExtension>
        </extensions>
      </trkpt>
      <trkpt lat="43.8403762690722942352294921875" lon="4.2580039612948894500732421875">
        <ele>161.600006103515625</ele>
        <time>2024-01-27T10:01:07.000Z</time>
        <extensions>
          <ns3:TrackPointExtension>
            <ns3:hr>158</ns3:hr>
            <ns3:cad>89</ns3:cad>
          </ns3:TrackPointExtension>
        </extensions>
      </trkpt>
      <trkpt lat="43.8403876684606075286865234375" lon="4.2579717747867107391357421875">
        <ele>161.399993896484375</ele>
        <time>2024-01-27T10:01:08.000Z</time>
        <extensions>
          <ns3:TrackPointExtension>
            <ns3:hr>158</ns3:hr>
            <ns3:cad>87</ns3:cad>
          </ns3:TrackPointExtension>
        </extensions>
      </trkpt>
      <trkpt lat="43.8403983972966670989990234375" lon="4.2579476349055767059326171875">
        <ele>161.1999969482421875</ele>
        <time>2024-01-27T10:01:09.000Z</time>
        <extensions>
          <ns3:TrackPointExtension>
            <ns3:hr>159</ns3:hr>
            <ns3:cad>87</ns3:cad>
          </ns3:TrackPointExtension>
        </extensions>
      </trkpt>
      <trkpt lat="43.84041105397045612335205078125" lon="4.25792433321475982666015625">
        <ele>160.8000030517578125</ele>
        <time>2024-01-27T10:01:10.000Z</time>
        <extensions>
          <ns3:TrackPointExtension>
            <ns3:hr>159</ns3:hr>
            <ns3:cad>87</ns3:cad>
          </ns3:TrackPointExtension>
        </extensions>
      </trkpt>
      <trkpt lat="43.84042211808264255523681640625" lon="4.257904551923274993896484375">
        <ele>160.399993896484375</ele>
        <time>2024-01-27T10:01:11.000Z</time>
        <extensions>
          <ns3:TrackPointExtension>
            <ns3:hr>158</ns3:hr>
            <ns3:cad>87</ns3:cad>
          </ns3:TrackPointExtension>
        </extensions>
      </trkpt>
      <trkpt lat="43.84044039063155651092529296875" lon="4.25787982530891895294189453125">
        <ele>160.1999969482421875</ele>
        <time>2024-01-27T10:01:12.000Z</time>
        <extensions>
          <ns3:TrackPointExtension>
            <ns3:hr>158</ns3:hr>
            <ns3:cad>85</ns3:cad>
          </ns3:TrackPointExtension>
        </extensions>
      </trkpt>
      <trkpt lat="43.840454556047916412353515625" lon="4.2578611336648464202880859375">
        <ele>160</ele>
        <time>2024-01-27T10:01:13.000Z</time>
        <extensions>
          <ns3:TrackPointExtension>
            <ns3:hr>158</ns3:hr>
            <ns3:cad>84</ns3:cad>
          </ns3:TrackPointExtension>
        </extensions>
      </trkpt>
      <trkpt lat="43.84047877974808216094970703125" lon="4.257838837802410125732421875">
        <ele>159.600006103515625</ele>
        <time>2024-01-27T10:01:14.000Z</time>
        <extensions>
          <ns3:TrackPointExtension>
            <ns3:hr>158</ns3:hr>
            <ns3:cad>84</ns3:cad>
          </ns3:TrackPointExtension>
        </extensions>
      </trkpt>
      <trkpt lat="43.8404984772205352783203125" lon="4.2578269354999065399169921875">
        <ele>159.1999969482421875</ele>
        <time>2024-01-27T10:01:15.000Z</time>
        <extensions>
          <ns3:TrackPointExtension>
            <ns3:hr>158</ns3:hr>
            <ns3:cad>84</ns3:cad>
          </ns3:TrackPointExtension>
        </extensions>
      </trkpt>
      <trkpt lat="43.8405237905681133270263671875" lon="4.25781075842678546905517578125">
        <ele>159</ele>
        <time>2024-01-27T10:01:16.000Z</time>
        <extensions>
          <ns3:TrackPointExtension>
            <ns3:hr>158</ns3:hr>
            <ns3:cad>87</ns3:cad>
          </ns3:TrackPointExtension>
        </extensions>
      </trkpt>
      <trkpt lat="43.840545080602169036865234375" lon="4.25780053250491619110107421875">
        <ele>158.8000030517578125</ele>
        <time>2024-01-27T10:01:17.000Z</time>
        <extensions>
          <ns3:TrackPointExtension>
            <ns3:hr>158</ns3:hr>
            <ns3:cad>87</ns3:cad>
          </ns3:TrackPointExtension>
        </extensions>
      </trkpt>
      <trkpt lat="43.8405720703303813934326171875" lon="4.25778527744114398956298828125">
        <ele>158.600006103515625</ele>
        <time>2024-01-27T10:01:18.000Z</time>
        <extensions>
          <ns3:TrackPointExtension>
            <ns3:hr>158</ns3:hr>
            <ns3:cad>87</ns3:cad>
          </ns3:TrackPointExtension>
        </extensions>
      </trkpt>
      <trkpt lat="43.84059495292603969573974609375" lon="4.257779158651828765869140625">
        <ele>158.399993896484375</ele>
        <time>2024-01-27T10:01:19.000Z</time>
        <extensions>
          <ns3:TrackPointExtension>
            <ns3:hr>158</ns3:hr>
            <ns3:cad>87</ns3:cad>
          </ns3:TrackPointExtension>
        </extensions>
      </trkpt>
      <trkpt lat="43.84061942808330059051513671875" lon="4.25777756609022617340087890625">
        <ele>158</ele>
        <time>2024-01-27T10:01:20.000Z</time>
        <extensions>
          <ns3:TrackPointExtension>
            <ns3:hr>158</ns3:hr>
            <ns3:cad>88</ns3:cad>
          </ns3:TrackPointExtension>
        </extensions>
      </trkpt>
      <trkpt lat="43.84064306505024433135986328125" lon="4.2577856965363025665283203125">
        <ele>158</ele>
        <time>2024-01-27T10:01:21.000Z</time>
        <extensions>
          <ns3:TrackPointExtension>
            <ns3:hr>158</ns3:hr>
            <ns3:cad>88</ns3:cad>
          </ns3:TrackPointExtension>
        </extensions>
      </trkpt>
      <trkpt lat="43.84066854603588581085205078125" lon="4.25778460688889026641845703125">
        <ele>157.8000030517578125</ele>
        <time>2024-01-27T10:01:22.000Z</time>
        <extensions>
          <ns3:TrackPointExtension>
            <ns3:hr>158</ns3:hr>
            <ns3:cad>88</ns3:cad>
          </ns3:TrackPointExtension>
        </extensions>
      </trkpt>
      <trkpt lat="43.84069318883121013641357421875" lon="4.25777605734765529632568359375">
        <ele>157.8000030517578125</ele>
        <time>2024-01-27T10:01:23.000Z</time>
        <extensions>
          <ns3:TrackPointExtension>
            <ns3:hr>157</ns3:hr>
            <ns3:cad>88</ns3:cad>
          </ns3:TrackPointExtension>
        </extensions>
      </trkpt>
      <trkpt lat="43.84071246720850467681884765625" lon="4.2577635683119297027587890625">
        <ele>157.600006103515625</ele>
        <time>2024-01-27T10:01:24.000Z</time>
        <extensions>
          <ns3:TrackPointExtension>
            <ns3:hr>157</ns3:hr>
            <ns3:cad>89</ns3:cad>
          </ns3:TrackPointExtension>
        </extensions>
      </trkpt>
      <trkpt lat="43.8407319970428943634033203125" lon="4.2577454634010791778564453125">
        <ele>157.399993896484375</ele>
        <time>2024-01-27T10:01:25.000Z</time>
        <extensions>
          <ns3:TrackPointExtension>
            <ns3:hr>157</ns3:hr>
            <ns3:cad>89</ns3:cad>
          </ns3:TrackPointExtension>
        </extensions>
      </trkpt>
      <trkpt lat="43.8407531194388866424560546875" lon="4.25772425718605518341064453125">
        <ele>157.399993896484375</ele>
        <time>2024-01-27T10:01:26.000Z</time>
        <extensions>
          <ns3:TrackPointExtension>
            <ns3:hr>157</ns3:hr>
            <ns3:cad>89</ns3:cad>
          </ns3:TrackPointExtension>
        </extensions>
      </trkpt>
      <trkpt lat="43.84077482856810092926025390625" lon="4.2577050626277923583984375">
        <ele>157.1999969482421875</ele>
        <time>2024-01-27T10:01:27.000Z</time>
        <extensions>
          <ns3:TrackPointExtension>
            <ns3:hr>157</ns3:hr>
            <ns3:cad>89</ns3:cad>
          </ns3:TrackPointExtension>
        </extensions>
      </trkpt>
      <trkpt lat="43.84079880081117153167724609375" lon="4.2576851136982440948486328125">
        <ele>157.1999969482421875</ele>
        <time>2024-01-27T10:01:28.000Z</time>
        <extensions>
          <ns3:TrackPointExtension>
            <ns3:hr>157</ns3:hr>
            <ns3:cad>89</ns3:cad>
          </ns3:TrackPointExtension>
        </extensions>
      </trkpt>
      <trkpt lat="43.840822018682956695556640625" lon="4.2576723732054233551025390625">
        <ele>156.8000030517578125</ele>
        <time>2024-01-27T10:01:29.000Z</time>
        <extensions>
          <ns3:TrackPointExtension>
            <ns3:hr>157</ns3:hr>
            <ns3:cad>88</ns3:cad>
          </ns3:TrackPointExtension>
        </extensions>
      </trkpt>
      <trkpt lat="43.8408392854034900665283203125" lon="4.25764295272529125213623046875">
        <ele>156.8000030517578125</ele>
        <time>2024-01-27T10:01:30.000Z</time>
        <extensions>
          <ns3:TrackPointExtension>
            <ns3:hr>157</ns3:hr>
            <ns3:cad>88</ns3:cad>
          </ns3:TrackPointExtension>
        </extensions>
      </trkpt>
      <trkpt lat="43.84084691293537616729736328125" lon="4.25761747173964977264404296875">
        <ele>156.8000030517578125</ele>
        <time>2024-01-27T10:01:31.000Z</time>
        <extensions>
          <ns3:TrackPointExtension>
            <ns3:hr>157</ns3:hr>
            <ns3:cad>88</ns3:cad>
          </ns3:TrackPointExtension>
        </extensions>
      </trkpt>
      <trkpt lat="43.84083802811801433563232421875" lon="4.2575902305543422698974609375">
        <ele>156.600006103515625</ele>
        <time>2024-01-27T10:01:32.000Z</time>
        <extensions>
          <ns3:TrackPointExtension>
            <ns3:hr>157</ns3:hr>
            <ns3:cad>89</ns3:cad>
          </ns3:TrackPointExtension>
        </extensions>
      </trkpt>
      <trkpt lat="43.8408203423023223876953125" lon="4.2575556971132755279541015625">
        <ele>156.600006103515625</ele>
        <time>2024-01-27T10:01:33.000Z</time>
        <extensions>
          <ns3:TrackPointExtension>
            <ns3:hr>157</ns3:hr>
            <ns3:cad>89</ns3:cad>
          </ns3:TrackPointExtension>
        </extensions>
      </trkpt>
      <trkpt lat="43.8407935202121734619140625" lon="4.25752200186252593994140625">
        <ele>156.399993896484375</ele>
        <time>2024-01-27T10:01:34.000Z</time>
        <extensions>
          <ns3:TrackPointExtension>
            <ns3:hr>157</ns3:hr>
            <ns3:cad>89</ns3:cad>
          </ns3:TrackPointExtension>
        </extensions>
      </trkpt>
      <trkpt lat="43.8407655246555805206298828125" lon="4.25749325193464756011962890625">
        <ele>156.1999969482421875</ele>
        <time>2024-01-27T10:01:35.000Z</time>
        <extensions>
          <ns3:TrackPointExtension>
            <ns3:hr>157</ns3:hr>
            <ns3:cad>89</ns3:cad>
          </ns3:TrackPointExtension>
        </extensions>
      </trkpt>
      <trkpt lat="43.8407398760318756103515625" lon="4.25747632049024105072021484375">
        <ele>156.1999969482421875</ele>
        <time>2024-01-27T10:01:36.000Z</time>
        <extensions>
          <ns3:TrackPointExtension>
            <ns3:hr>157</ns3:hr>
            <ns3:cad>89</ns3:cad>
          </ns3:TrackPointExtension>
        </extensions>
      </trkpt>
      <trkpt lat="43.84071162901818752288818359375" lon="4.25745092332363128662109375">
        <ele>156</ele>
        <time>2024-01-27T10:01:37.000Z</time>
        <extensions>
          <ns3:TrackPointExtension>
            <ns3:hr>157</ns3:hr>
            <ns3:cad>89</ns3:cad>
          </ns3:TrackPointExtension>
        </extensions>
      </trkpt>
      <trkpt lat="43.84068832732737064361572265625" lon="4.257433153688907623291015625">
        <ele>155.8000030517578125</ele>
        <time>2024-01-27T10:01:38.000Z</time>
        <extensions>
          <ns3:TrackPointExtension>
            <ns3:hr>157</ns3:hr>
            <ns3:cad>89</ns3:cad>
          </ns3:TrackPointExtension>
        </extensions>
      </trkpt>
      <trkpt lat="43.84066418744623661041259765625" lon="4.25740473903715610504150390625">
        <ele>155.8000030517578125</ele>
        <time>2024-01-27T10:01:39.000Z</time>
        <extensions>
          <ns3:TrackPointExtension>
            <ns3:hr>157</ns3:hr>
            <ns3:cad>89</ns3:cad>
          </ns3:TrackPointExtension>
        </extensions>
      </trkpt>
      <trkpt lat="43.84064574725925922393798828125" lon="4.25737850368022918701171875">
        <ele>155.399993896484375</ele>
        <time>2024-01-27T10:01:40.000Z</time>
        <extensions>
          <ns3:TrackPointExtension>
            <ns3:hr>156</ns3:hr>
            <ns3:cad>88</ns3:cad>
          </ns3:TrackPointExtension>
        </extensions>
      </trkpt>
      <trkpt lat="43.84062948636710643768310546875" lon="4.25735042430460453033447265625">
        <ele>155.1999969482421875</ele>
        <time>2024-01-27T10:01:41.000Z</time>
        <extensions>
          <ns3:TrackPointExtension>
            <ns3:hr>156</ns3:hr>
            <ns3:cad>87</ns3:cad>
          </ns3:TrackPointExtension>
        </extensions>
      </trkpt>
      <trkpt lat="43.84061356075108051300048828125" lon="4.25731706432998180389404296875">
        <ele>155</ele>
        <time>2024-01-27T10:01:42.000Z</time>
        <extensions>
          <ns3:TrackPointExtension>
            <ns3:hr>156</ns3:hr>
            <ns3:cad>87</ns3:cad>
          </ns3:TrackPointExtension>
        </extensions>
      </trkpt>
      <trkpt lat="43.8405975513160228729248046875" lon="4.25728730857372283935546875">
        <ele>154.600006103515625</ele>
        <time>2024-01-27T10:01:43.000Z</time>
        <extensions>
          <ns3:TrackPointExtension>
            <ns3:hr>156</ns3:hr>
            <ns3:cad>87</ns3:cad>
          </ns3:TrackPointExtension>
        </extensions>
      </trkpt>
      <trkpt lat="43.8405777700245380401611328125" lon="4.25726543180644512176513671875">
        <ele>154.399993896484375</ele>
        <time>2024-01-27T10:01:44.000Z</time>
        <extensions>
          <ns3:TrackPointExtension>
            <ns3:hr>156</ns3:hr>
            <ns3:cad>87</ns3:cad>
          </ns3:TrackPointExtension>
        </extensions>
      </trkpt>
      <trkpt lat="43.84055354632437229156494140625" lon="4.25724682398140430450439453125">
        <ele>154</ele>
        <time>2024-01-27T10:01:45.000Z</time>
        <extensions>
          <ns3:TrackPointExtension>
            <ns3:hr>156</ns3:hr>
            <ns3:cad>87</ns3:cad>
          </ns3:TrackPointExtension>
        </extensions>
      </trkpt>
      <trkpt lat="43.8405301608145236968994140625" lon="4.25723232328891754150390625">
        <ele>153.600006103515625</ele>
        <time>2024-01-27T10:01:46.000Z</time>
        <extensions>
          <ns3:TrackPointExtension>
            <ns3:hr>156</ns3:hr>
            <ns3:cad>87</ns3:cad>
          </ns3:TrackPointExtension>
        </extensions>
      </trkpt>
      <trkpt lat="43.84051063098013401031494140625" lon="4.2572143860161304473876953125">
        <ele>153.600006103515625</ele>
        <time>2024-01-27T10:01:47.000Z</time>
        <extensions>
          <ns3:TrackPointExtension>
            <ns3:hr>156</ns3:hr>
            <ns3:cad>88</ns3:cad>
          </ns3:TrackPointExtension>
        </extensions>
      </trkpt>
      <trkpt lat="43.840491771697998046875" lon="4.25719921477138996124267578125">
        <ele>153.600006103515625</ele>
        <time>2024-01-27T10:01:48.000Z</time>
        <extensions>
          <ns3:TrackPointExtension>
            <ns3:hr>156</ns3:hr>
            <ns3:cad>89</ns3:cad>
          </ns3:TrackPointExtension>
        </extensions>
      </trkpt>
      <trkpt lat="43.84047073312103748321533203125" lon="4.2571855522692203521728515625">
        <ele>153.600006103515625</ele>
        <time>2024-01-27T10:01:49.000Z</time>
        <extensions>
          <ns3:TrackPointExtension>
            <ns3:hr>156</ns3:hr>
            <ns3:cad>90</ns3:cad>
          </ns3:TrackPointExtension>
        </extensions>
      </trkpt>
      <trkpt lat="43.84044810198247432708740234375" lon="4.2571781761944293975830078125">
        <ele>153.600006103515625</ele>
        <time>2024-01-27T10:01:50.000Z</time>
        <extensions>
          <ns3:TrackPointExtension>
            <ns3:hr>156</ns3:hr>
            <ns3:cad>91</ns3:cad>
          </ns3:TrackPointExtension>
        </extensions>
      </trkpt>
      <trkpt lat="43.84042412973940372467041015625" lon="4.25718002021312713623046875">
        <ele>153.600006103515625</ele>
        <time>2024-01-27T10:01:51.000Z</time>
        <extensions>
          <ns3:TrackPointExtension>
            <ns3:hr>155</ns3:hr>
            <ns3:cad>91</ns3:cad>
          </ns3:TrackPointExtension>
        </extensions>
      </trkpt>
      <trkpt lat="43.84040149860084056854248046875" lon="4.2571865580976009368896484375">
        <ele>153.600006103515625</ele>
        <time>2024-01-27T10:01:52.000Z</time>
        <extensions>
          <ns3:TrackPointExtension>
            <ns3:hr>155</ns3:hr>
            <ns3:cad>90</ns3:cad>
          </ns3:TrackPointExtension>
        </extensions>
      </trkpt>
      <trkpt lat="43.840376771986484527587890625" lon="4.25719334743916988372802734375">
        <ele>153.600006103515625</ele>
        <time>2024-01-27T10:01:53.000Z</time>
        <extensions>
          <ns3:TrackPointExtension>
            <ns3:hr>155</ns3:hr>
            <ns3:cad>89</ns3:cad>
          </ns3:TrackPointExtension>
        </extensions>
      </trkpt>
      <trkpt lat="43.84035321883857250213623046875" lon="4.25719619728624820709228515625">
        <ele>153.600006103515625</ele>
        <time>2024-01-27T10:01:54.000Z</time>
        <extensions>
          <ns3:TrackPointExtension>
            <ns3:hr>155</ns3:hr>
            <ns3:cad>89</ns3:cad>
          </ns3:TrackPointExtension>
        </extensions>
      </trkpt>
      <trkpt lat="43.840331174433231353759765625" lon="4.2571842111647129058837890625">
        <ele>153.600006103515625</ele>
        <time>2024-01-27T10:01:55.000Z</time>
        <extensions>
          <ns3:TrackPointExtension>
            <ns3:hr>155</ns3:hr>
            <ns3:cad>90</ns3:cad>
          </ns3:TrackPointExtension>
        </extensions>
      </trkpt>
      <trkpt lat="43.840311057865619659423828125" lon="4.25717532634735107421875">
        <ele>153.600006103515625</ele>
        <time>2024-01-27T10:01:56.000Z</time>
        <extensions>
          <ns3:TrackPointExtension>
            <ns3:hr>155</ns3:hr>
            <ns3:cad>90</ns3:cad>
          </ns3:TrackPointExtension>
        </extensions>
      </trkpt>
      <trkpt lat="43.8402919471263885498046875" lon="4.2571620829403400421142578125">
        <ele>153.600006103515625</ele>
        <time>2024-01-27T10:01:57.000Z</time>
        <extensions>
          <ns3:TrackPointExtension>
            <ns3:hr>155</ns3:hr>
            <ns3:cad>90</ns3:cad>
          </ns3:TrackPointExtension>
        </extensions>
      </trkpt>
      <trkpt lat="43.84027392603456974029541015625" lon="4.25714640878140926361083984375">
        <ele>153.600006103515625</ele>
        <time>2024-01-27T10:01:58.000Z</time>
        <extensions>
          <ns3:TrackPointExtension>
            <ns3:hr>155</ns3:hr>
            <ns3:cad>90</ns3:cad>
          </ns3:TrackPointExtension>
        </extensions>
      </trkpt>
      <trkpt lat="43.84025146253407001495361328125" lon="4.25712813623249530792236328125">
        <ele>153.600006103515625</ele>
        <time>2024-01-27T10:01:59.000Z</time>
        <extensions>
          <ns3:TrackPointExtension>
            <ns3:hr>155</ns3:hr>
            <ns3:cad>90</ns3:cad>
          </ns3:TrackPointExtension>
        </extensions>
      </trkpt>
      <trkpt lat="43.84023335762321949005126953125" lon="4.2571121267974376678466796875">
        <ele>153.399993896484375</ele>
        <time>2024-01-27T10:02:00.000Z</time>
        <extensions>
          <ns3:TrackPointExtension>
            <ns3:hr>155</ns3:hr>
            <ns3:cad>90</ns3:cad>
          </ns3:TrackPointExtension>
        </extensions>
      </trkpt>
      <trkpt lat="43.8402116484940052032470703125" lon="4.25710131414234638214111328125">
        <ele>153.1999969482421875</ele>
        <time>2024-01-27T10:02:01.000Z</time>
        <extensions>
          <ns3:TrackPointExtension>
            <ns3:hr>155</ns3:hr>
            <ns3:cad>89</ns3:cad>
          </ns3:TrackPointExtension>
        </extensions>
      </trkpt>
      <trkpt lat="43.840191364288330078125" lon="4.25709410570561885833740234375">
        <ele>153</ele>
        <time>2024-01-27T10:02:02.000Z</time>
        <extensions>
          <ns3:TrackPointExtension>
            <ns3:hr>155</ns3:hr>
            <ns3:cad>89</ns3:cad>
          </ns3:TrackPointExtension>
        </extensions>
      </trkpt>
      <trkpt lat="43.84017166681587696075439453125" lon="4.25708773545920848846435546875">
        <ele>152.8000030517578125</ele>
        <time>2024-01-27T10:02:03.000Z</time>
        <extensions>
          <ns3:TrackPointExtension>
            <ns3:hr>155</ns3:hr>
            <ns3:cad>89</ns3:cad>
          </ns3:TrackPointExtension>
        </extensions>
      </trkpt>
      <trkpt lat="43.84016177617013454437255859375" lon="4.257067032158374786376953125">
        <ele>152.8000030517578125</ele>
        <time>2024-01-27T10:02:04.000Z</time>
        <extensions>
          <ns3:TrackPointExtension>
            <ns3:hr>154</ns3:hr>
            <ns3:cad>89</ns3:cad>
          </ns3:TrackPointExtension>
        </extensions>
      </trkpt>
      <trkpt lat="43.8401435874402523040771484375" lon="4.25705336965620517730712890625">
        <ele>152.8000030517578125</ele>
        <time>2024-01-27T10:02:05.000Z</time>
        <extensions>
          <ns3:TrackPointExtension>
            <ns3:hr>154</ns3:hr>
            <ns3:cad>90</ns3:cad>
          </ns3:TrackPointExtension>
        </extensions>
      </trkpt>
      <trkpt lat="43.84012405760586261749267578125" lon="4.25703710876405239105224609375">
        <ele>152.600006103515625</ele>
        <time>2024-01-27T10:02:06.000Z</time>
        <extensions>
          <ns3:TrackPointExtension>
            <ns3:hr>154</ns3:hr>
            <ns3:cad>90</ns3:cad>
          </ns3:TrackPointExtension>
        </extensions>
      </trkpt>
      <trkpt lat="43.84010360576212406158447265625" lon="4.25702604465186595916748046875">
        <ele>152.600006103515625</ele>
        <time>2024-01-27T10:02:07.000Z</time>
        <extensions>
          <ns3:TrackPointExtension>
            <ns3:hr>154</ns3:hr>
            <ns3:cad>90</ns3:cad>
          </ns3:TrackPointExtension>
        </extensions>
      </trkpt>
      <trkpt lat="43.84008533321321010589599609375" lon="4.2570138908922672271728515625">
        <ele>152.1999969482421875</ele>
        <time>2024-01-27T10:02:08.000Z</time>
        <extensions>
          <ns3:TrackPointExtension>
            <ns3:hr>154</ns3:hr>
            <ns3:cad>89</ns3:cad>
          </ns3:TrackPointExtension>
        </extensions>
      </trkpt>
      <trkpt lat="43.840073682367801666259765625" lon="4.25699486397206783294677734375">
        <ele>152</ele>
        <time>2024-01-27T10:02:09.000Z</time>
        <extensions>
          <ns3:TrackPointExtension>
            <ns3:hr>154</ns3:hr>
            <ns3:cad>89</ns3:cad>
          </ns3:TrackPointExtension>
        </extensions>
      </trkpt>
      <trkpt lat="43.84007007814943790435791015625" lon="4.25696401856839656829833984375">
        <ele>151.600006103515625</ele>
        <time>2024-01-27T10:02:10.000Z</time>
        <extensions>
          <ns3:TrackPointExtension>
            <ns3:hr>154</ns3:hr>
            <ns3:cad>89</ns3:cad>
          </ns3:TrackPointExtension>
        </extensions>
      </trkpt>
      <trkpt lat="43.8400758616626262664794921875" lon="4.25693325698375701904296875">
        <ele>151.600006103515625</ele>
        <time>2024-01-27T10:02:11.000Z</time>
        <extensions>
          <ns3:TrackPointExtension>
            <ns3:hr>154</ns3:hr>
            <ns3:cad>88</ns3:cad>
          </ns3:TrackPointExtension>
        </extensions>
      </trkpt>
      <trkpt lat="43.84008206427097320556640625" lon="4.2569035850465297698974609375">
        <ele>151.399993896484375</ele>
        <time>2024-01-27T10:02:12.000Z</time>
        <extensions>
          <ns3:TrackPointExtension>
            <ns3:hr>154</ns3:hr>
            <ns3:cad>88</ns3:cad>
          </ns3:TrackPointExtension>
        </extensions>
      </trkpt>
      <trkpt lat="43.84008281864225864410400390625" lon="4.2568814568221569061279296875">
        <ele>151.1999969482421875</ele>
        <time>2024-01-27T10:02:13.000Z</time>
        <extensions>
          <ns3:TrackPointExtension>
            <ns3:hr>154</ns3:hr>
            <ns3:cad>89</ns3:cad>
          </ns3:TrackPointExtension>
        </extensions>
      </trkpt>
      <trkpt lat="43.84008583612740039825439453125" lon="4.256853796541690826416015625">
        <ele>151.1999969482421875</ele>
        <time>2024-01-27T10:02:14.000Z</time>
        <extensions>
          <ns3:TrackPointExtension>
            <ns3:hr>154</ns3:hr>
            <ns3:cad>89</ns3:cad>
          </ns3:TrackPointExtension>
        </extensions>
      </trkpt>
      <trkpt lat="43.84008114226162433624267578125" lon="4.256833679974079132080078125">
        <ele>151</ele>
        <time>2024-01-27T10:02:15.000Z</time>
        <extensions>
          <ns3:TrackPointExtension>
            <ns3:hr>154</ns3:hr>
            <ns3:cad>89</ns3:cad>
          </ns3:TrackPointExtension>
        </extensions>
      </trkpt>
      <trkpt lat="43.84007242508232593536376953125" lon="4.2568087019026279449462890625">
        <ele>151</ele>
        <time>2024-01-27T10:02:16.000Z</time>
        <extensions>
          <ns3:TrackPointExtension>
            <ns3:hr>154</ns3:hr>
            <ns3:cad>89</ns3:cad>
          </ns3:TrackPointExtension>
        </extensions>
      </trkpt>
      <trkpt lat="43.840066976845264434814453125" lon="4.25679051317274570465087890625">
        <ele>150.600006103515625</ele>
        <time>2024-01-27T10:02:17.000Z</time>
        <extensions>
          <ns3:TrackPointExtension>
            <ns3:hr>154</ns3:hr>
            <ns3:cad>88</ns3:cad>
          </ns3:TrackPointExtension>
        </extensions>
      </trkpt>
      <trkpt lat="43.84005599655210971832275390625" lon="4.2567620985209941864013671875">
        <ele>150.399993896484375</ele>
        <time>2024-01-27T10:02:18.000Z</time>
        <extensions>
          <ns3:TrackPointExtension>
            <ns3:hr>154</ns3:hr>
            <ns3:cad>88</ns3:cad>
          </ns3:TrackPointExtension>
        </extensions>
      </trkpt>
      <trkpt lat="43.84004116058349609375" lon="4.25674877129495143890380859375">
        <ele>150.1999969482421875</ele>
        <time>2024-01-27T10:02:19.000Z</time>
        <extensions>
          <ns3:TrackPointExtension>
            <ns3:hr>154</ns3:hr>
            <ns3:cad>86</ns3:cad>
          </ns3:TrackPointExtension>
        </extensions>
      </trkpt>
      <trkpt lat="43.84001928381621837615966796875" lon="4.2567314207553863525390625">
        <ele>149.8000030517578125</ele>
        <time>2024-01-27T10:02:20.000Z</time>
        <extensions>
          <ns3:TrackPointExtension>
            <ns3:hr>154</ns3:hr>
            <ns3:cad>86</ns3:cad>
          </ns3:TrackPointExtension>
        </extensions>
      </trkpt>
      <trkpt lat="43.84000302292406558990478515625" lon="4.2567178420722484588623046875">
        <ele>149.600006103515625</ele>
        <time>2024-01-27T10:02:21.000Z</time>
        <extensions>
          <ns3:TrackPointExtension>
            <ns3:hr>154</ns3:hr>
            <ns3:cad>87</ns3:cad>
          </ns3:TrackPointExtension>
        </extensions>
      </trkpt>
      <trkpt lat="43.83998173289000988006591796875" lon="4.256696216762065887451171875">
        <ele>149.399993896484375</ele>
        <time>2024-01-27T10:02:22.000Z</time>
        <extensions>
          <ns3:TrackPointExtension>
            <ns3:hr>154</ns3:hr>
            <ns3:cad>90</ns3:cad>
          </ns3:TrackPointExtension>
        </extensions>
      </trkpt>
      <trkpt lat="43.83996295742690563201904296875" lon="4.256682135164737701416015625">
        <ele>149.1999969482421875</ele>
        <time>2024-01-27T10:02:23.000Z</time>
        <extensions>
          <ns3:TrackPointExtension>
            <ns3:hr>153</ns3:hr>
            <ns3:cad>90</ns3:cad>
          </ns3:TrackPointExtension>
        </extensions>
      </trkpt>
      <trkpt lat="43.83994015865027904510498046875" lon="4.256674088537693023681640625">
        <ele>149</ele>
        <time>2024-01-27T10:02:24.000Z</time>
        <extensions>
          <ns3:TrackPointExtension>
            <ns3:hr>153</ns3:hr>
            <ns3:cad>90</ns3:cad>
          </ns3:TrackPointExtension>
        </extensions>
      </trkpt>
      <trkpt lat="43.83992247283458709716796875" lon="4.25667149014770984649658203125">
        <ele>148.600006103515625</ele>
        <time>2024-01-27T10:02:25.000Z</time>
        <extensions>
          <ns3:TrackPointExtension>
            <ns3:hr>153</ns3:hr>
            <ns3:cad>90</ns3:cad>
          </ns3:TrackPointExtension>
        </extensions>
      </trkpt>
      <trkpt lat="43.8399001769721508026123046875" lon="4.25666528753936290740966796875">
        <ele>148.600006103515625</ele>
        <time>2024-01-27T10:02:26.000Z</time>
        <extensions>
          <ns3:TrackPointExtension>
            <ns3:hr>153</ns3:hr>
            <ns3:cad>92</ns3:cad>
          </ns3:TrackPointExtension>
        </extensions>
      </trkpt>
      <trkpt lat="43.83988316170871257781982421875" lon="4.2566643655300140380859375">
        <ele>148.600006103515625</ele>
        <time>2024-01-27T10:02:27.000Z</time>
        <extensions>
          <ns3:TrackPointExtension>
            <ns3:hr>153</ns3:hr>
            <ns3:cad>92</ns3:cad>
          </ns3:TrackPointExtension>
        </extensions>
      </trkpt>
      <trkpt lat="43.83986270986497402191162109375" lon="4.25666092894971370697021484375">
        <ele>148.399993896484375</ele>
        <time>2024-01-27T10:02:28.000Z</time>
        <extensions>
          <ns3:TrackPointExtension>
            <ns3:hr>152</ns3:hr>
            <ns3:cad>92</ns3:cad>
          </ns3:TrackPointExtension>
        </extensions>
      </trkpt>
      <trkpt lat="43.83984007872641086578369140625" lon="4.2566590011119842529296875">
        <ele>148.399993896484375</ele>
        <time>2024-01-27T10:02:29.000Z</time>
        <extensions>
          <ns3:TrackPointExtension>
            <ns3:hr>152</ns3:hr>
            <ns3:cad>92</ns3:cad>
          </ns3:TrackPointExtension>
        </extensions>
      </trkpt>
      <trkpt lat="43.8398237340152263641357421875" lon="4.25663829781115055084228515625">
        <ele>148.1999969482421875</ele>
        <time>2024-01-27T10:02:30.000Z</time>
        <extensions>
          <ns3:TrackPointExtension>
            <ns3:hr>152</ns3:hr>
            <ns3:cad>92</ns3:cad>
          </ns3:TrackPointExtension>
        </extensions>
      </trkpt>
      <trkpt lat="43.83980579674243927001953125" lon="4.2566259764134883880615234375">
        <ele>148.1999969482421875</ele>
        <time>2024-01-27T10:02:31.000Z</time>
        <extensions>
          <ns3:TrackPointExtension>
            <ns3:hr>152</ns3:hr>
            <ns3:cad>92</ns3:cad>
          </ns3:TrackPointExtension>
        </extensions>
      </trkpt>
      <trkpt lat="43.83978140540421009063720703125" lon="4.25660627894103527069091796875">
        <ele>148.1999969482421875</ele>
        <time>2024-01-27T10:02:32.000Z</time>
        <extensions>
          <ns3:TrackPointExtension>
            <ns3:hr>152</ns3:hr>
            <ns3:cad>92</ns3:cad>
          </ns3:TrackPointExtension>
        </extensions>
      </trkpt>
      <trkpt lat="43.8397600315511226654052734375" lon="4.2565971426665782928466796875">
        <ele>148.1999969482421875</ele>
        <time>2024-01-27T10:02:33.000Z</time>
        <extensions>
          <ns3:TrackPointExtension>
            <ns3:hr>152</ns3:hr>
            <ns3:cad>92</ns3:cad>
          </ns3:TrackPointExtension>
        </extensions>
      </trkpt>
      <trkpt lat="43.8397342152893543243408203125" lon="4.25658213905990123748779296875">
        <ele>148.1999969482421875</ele>
        <time>2024-01-27T10:02:34.000Z</time>
        <extensions>
          <ns3:TrackPointExtension>
            <ns3:hr>151</ns3:hr>
            <ns3:cad>90</ns3:cad>
          </ns3:TrackPointExtension>
        </extensions>
      </trkpt>
      <trkpt lat="43.83971099741756916046142578125" lon="4.256576858460903167724609375">
        <ele>148.1999969482421875</ele>
        <time>2024-01-27T10:02:35.000Z</time>
        <extensions>
          <ns3:TrackPointExtension>
            <ns3:hr>151</ns3:hr>
            <ns3:cad>90</ns3:cad>
          </ns3:TrackPointExtension>
        </extensions>
      </trkpt>
      <trkpt lat="43.8396772183477878570556640625" lon="4.2565676383674144744873046875">
        <ele>148.1999969482421875</ele>
        <time>2024-01-27T10:02:36.000Z</time>
        <extensions>
          <ns3:TrackPointExtension>
            <ns3:hr>151</ns3:hr>
            <ns3:cad>89</ns3:cad>
          </ns3:TrackPointExtension>
        </extensions>
      </trkpt>
      <trkpt lat="43.8396557606756687164306640625" lon="4.25656420178711414337158203125">
        <ele>148.1999969482421875</ele>
        <time>2024-01-27T10:02:37.000Z</time>
        <extensions>
          <ns3:TrackPointExtension>
            <ns3:hr>151</ns3:hr>
            <ns3:cad>88</ns3:cad>
          </ns3:TrackPointExtension>
        </extensions>
      </trkpt>
      <trkpt lat="43.83962784893810749053955078125" lon="4.25655246712267398834228515625">
        <ele>148.1999969482421875</ele>
        <time>2024-01-27T10:02:38.000Z</time>
        <extensions>
          <ns3:TrackPointExtension>
            <ns3:hr>151</ns3:hr>
            <ns3:cad>88</ns3:cad>
          </ns3:TrackPointExtension>
        </extensions>
      </trkpt>
      <trkpt lat="43.83960555307567119598388671875" lon="4.25654458813369274139404296875">
        <ele>148</ele>
        <time>2024-01-27T10:02:39.000Z</time>
        <extensions>
          <ns3:TrackPointExtension>
            <ns3:hr>151</ns3:hr>
            <ns3:cad>88</ns3:cad>
          </ns3:TrackPointExtension>
        </extensions>
      </trkpt>
      <trkpt lat="43.83957806043326854705810546875" lon="4.2565300874412059783935546875">
        <ele>147.8000030517578125</ele>
        <time>2024-01-27T10:02:40.000Z</time>
        <extensions>
          <ns3:TrackPointExtension>
            <ns3:hr>151</ns3:hr>
            <ns3:cad>89</ns3:cad>
          </ns3:TrackPointExtension>
        </extensions>
      </trkpt>
      <trkpt lat="43.8395595364272594451904296875" lon="4.2565248906612396240234375">
        <ele>147.8000030517578125</ele>
        <time>2024-01-27T10:02:41.000Z</time>
        <extensions>
          <ns3:TrackPointExtension>
            <ns3:hr>151</ns3:hr>
            <ns3:cad>89</ns3:cad>
          </ns3:TrackPointExtension>
        </extensions>
      </trkpt>
      <trkpt lat="43.83953732438385486602783203125" lon="4.25651659257709980010986328125">
        <ele>147.8000030517578125</ele>
        <time>2024-01-27T10:02:42.000Z</time>
        <extensions>
          <ns3:TrackPointExtension>
            <ns3:hr>150</ns3:hr>
            <ns3:cad>89</ns3:cad>
          </ns3:TrackPointExtension>
        </extensions>
      </trkpt>
      <trkpt lat="43.8395156152546405792236328125" lon="4.25651776604354381561279296875">
        <ele>147.600006103515625</ele>
        <time>2024-01-27T10:02:43.000Z</time>
        <extensions>
          <ns3:TrackPointExtension>
            <ns3:hr>150</ns3:hr>
            <ns3:cad>89</ns3:cad>
          </ns3:TrackPointExtension>
        </extensions>
      </trkpt>
      <trkpt lat="43.83949197828769683837890625" lon="4.2565324343740940093994140625">
        <ele>147.399993896484375</ele>
        <time>2024-01-27T10:02:44.000Z</time>
        <extensions>
          <ns3:TrackPointExtension>
            <ns3:hr>150</ns3:hr>
            <ns3:cad>89</ns3:cad>
          </ns3:TrackPointExtension>
        </extensions>
      </trkpt>
      <trkpt lat="43.83947446011006832122802734375" lon="4.25654844380915164947509765625">
        <ele>147.399993896484375</ele>
        <time>2024-01-27T10:02:45.000Z</time>
        <extensions>
          <ns3:TrackPointExtension>
            <ns3:hr>150</ns3:hr>
            <ns3:cad>89</ns3:cad>
          </ns3:TrackPointExtension>
        </extensions>
      </trkpt>
      <trkpt lat="43.8394465483725070953369140625" lon="4.25656084902584552764892578125">
        <ele>147.1999969482421875</ele>
        <time>2024-01-27T10:02:46.000Z</time>
        <extensions>
          <ns3:TrackPointExtension>
            <ns3:hr>150</ns3:hr>
            <ns3:cad>89</ns3:cad>
          </ns3:TrackPointExtension>
        </extensions>
      </trkpt>
      <trkpt lat="43.8394254259765148162841796875" lon="4.25657258369028568267822265625">
        <ele>147.1999969482421875</ele>
        <time>2024-01-27T10:02:47.000Z</time>
        <extensions>
          <ns3:TrackPointExtension>
            <ns3:hr>150</ns3:hr>
            <ns3:cad>88</ns3:cad>
          </ns3:TrackPointExtension>
        </extensions>
      </trkpt>
      <trkpt lat="43.839397095143795013427734375" lon="4.25658280961215496063232421875">
        <ele>147</ele>
        <time>2024-01-27T10:02:48.000Z</time>
        <extensions>
          <ns3:TrackPointExtension>
            <ns3:hr>150</ns3:hr>
            <ns3:cad>88</ns3:cad>
          </ns3:TrackPointExtension>
        </extensions>
      </trkpt>
      <trkpt lat="43.83937622420489788055419921875" lon="4.25659119151532649993896484375">
        <ele>147</ele>
        <time>2024-01-27T10:02:49.000Z</time>
        <extensions>
          <ns3:TrackPointExtension>
            <ns3:hr>150</ns3:hr>
            <ns3:cad>89</ns3:cad>
          </ns3:TrackPointExtension>
        </extensions>
      </trkpt>
      <trkpt lat="43.839348815381526947021484375" lon="4.256590269505977630615234375">
        <ele>147</ele>
        <time>2024-01-27T10:02:50.000Z</time>
        <extensions>
          <ns3:TrackPointExtension>
            <ns3:hr>151</ns3:hr>
            <ns3:cad>90</ns3:cad>
          </ns3:TrackPointExtension>
        </extensions>
      </trkpt>
      <trkpt lat="43.839326687157154083251953125" lon="4.25659404136240482330322265625">
        <ele>147</ele>
        <time>2024-01-27T10:02:51.000Z</time>
        <extensions>
          <ns3:TrackPointExtension>
            <ns3:hr>151</ns3:hr>
            <ns3:cad>90</ns3:cad>
          </ns3:TrackPointExtension>
        </extensions>
      </trkpt>
      <trkpt lat="43.83930112235248088836669921875" lon="4.25658532418310642242431640625">
        <ele>147</ele>
        <time>2024-01-27T10:02:52.000Z</time>
        <extensions>
          <ns3:TrackPointExtension>
            <ns3:hr>151</ns3:hr>
            <ns3:cad>91</ns3:cad>
          </ns3:TrackPointExtension>
        </extensions>
      </trkpt>
      <trkpt lat="43.8392789103090763092041015625" lon="4.256582558155059814453125">
        <ele>147</ele>
        <time>2024-01-27T10:02:53.000Z</time>
        <extensions>
          <ns3:TrackPointExtension>
            <ns3:hr>151</ns3:hr>
            <ns3:cad>92</ns3:cad>
          </ns3:TrackPointExtension>
        </extensions>
      </trkpt>
      <trkpt lat="43.8392524234950542449951171875" lon="4.25656973384320735931396484375">
        <ele>147</ele>
        <time>2024-01-27T10:02:54.000Z</time>
        <extensions>
          <ns3:TrackPointExtension>
            <ns3:hr>152</ns3:hr>
            <ns3:cad>92</ns3:cad>
          </ns3:TrackPointExtension>
        </extensions>
      </trkpt>
      <trkpt lat="43.83922920562326908111572265625" lon="4.2565585859119892120361328125">
        <ele>147</ele>
        <time>2024-01-27T10:02:55.000Z</time>
        <extensions>
          <ns3:TrackPointExtension>
            <ns3:hr>152</ns3:hr>
            <ns3:cad>92</ns3:cad>
          </ns3:TrackPointExtension>
        </extensions>
      </trkpt>
      <trkpt lat="43.83920238353312015533447265625" lon="4.2565434984862804412841796875">
        <ele>147</ele>
        <time>2024-01-27T10:02:56.000Z</time>
        <extensions>
          <ns3:TrackPointExtension>
            <ns3:hr>152</ns3:hr>
            <ns3:cad>92</ns3:cad>
          </ns3:TrackPointExtension>
        </extensions>
      </trkpt>
      <trkpt lat="43.8391786627471446990966796875" lon="4.2565317638218402862548828125">
        <ele>147</ele>
        <time>2024-01-27T10:02:57.000Z</time>
        <extensions>
          <ns3:TrackPointExtension>
            <ns3:hr>152</ns3:hr>
            <ns3:cad>91</ns3:cad>
          </ns3:TrackPointExtension>
        </extensions>
      </trkpt>
      <trkpt lat="43.8391525112092494964599609375" lon="4.2565156705677509307861328125">
        <ele>147</ele>
        <time>2024-01-27T10:02:58.000Z</time>
        <extensions>
          <ns3:TrackPointExtension>
            <ns3:hr>152</ns3:hr>
            <ns3:cad>91</ns3:cad>
          </ns3:TrackPointExtension>
        </extensions>
      </trkpt>
      <trkpt lat="43.83913013152778148651123046875" lon="4.25650368444621562957763671875">
        <ele>147</ele>
        <time>2024-01-27T10:02:59.000Z</time>
        <extensions>
          <ns3:TrackPointExtension>
            <ns3:hr>153</ns3:hr>
            <ns3:cad>92</ns3:cad>
          </ns3:TrackPointExtension>
        </extensions>
      </trkpt>
      <trkpt lat="43.83910842239856719970703125" lon="4.25648256205022335052490234375">
        <ele>147</ele>
        <time>2024-01-27T10:03:00.000Z</time>
        <extensions>
          <ns3:TrackPointExtension>
            <ns3:hr>153</ns3:hr>
            <ns3:cad>92</ns3:cad>
          </ns3:TrackPointExtension>
        </extensions>
      </trkpt>
      <trkpt lat="43.83908587507903575897216796875" lon="4.2564640380442142486572265625">
        <ele>147</ele>
        <time>2024-01-27T10:03:01.000Z</time>
        <extensions>
          <ns3:TrackPointExtension>
            <ns3:hr>153</ns3:hr>
            <ns3:cad>92</ns3:cad>
          </ns3:TrackPointExtension>
        </extensions>
      </trkpt>
      <trkpt lat="43.83907095529139041900634765625" lon="4.25643428228795528411865234375">
        <ele>146.8000030517578125</ele>
        <time>2024-01-27T10:03:02.000Z</time>
        <extensions>
          <ns3:TrackPointExtension>
            <ns3:hr>153</ns3:hr>
            <ns3:cad>92</ns3:cad>
          </ns3:TrackPointExtension>
        </extensions>
      </trkpt>
      <trkpt lat="43.8390576280653476715087890625" lon="4.25641215406358242034912109375">
        <ele>146.8000030517578125</ele>
        <time>2024-01-27T10:03:03.000Z</time>
        <extensions>
          <ns3:TrackPointExtension>
            <ns3:hr>153</ns3:hr>
            <ns3:cad>91</ns3:cad>
          </ns3:TrackPointExtension>
        </extensions>
      </trkpt>
      <trkpt lat="43.83904497139155864715576171875" lon="4.25637460313737392425537109375">
        <ele>146.8000030517578125</ele>
        <time>2024-01-27T10:03:04.000Z</time>
        <extensions>
          <ns3:TrackPointExtension>
            <ns3:hr>153</ns3:hr>
            <ns3:cad>91</ns3:cad>
          </ns3:TrackPointExtension>
        </extensions>
      </trkpt>
      <trkpt lat="43.83903306908905506134033203125" lon="4.25634928978979587554931640625">
        <ele>146.399993896484375</ele>
        <time>2024-01-27T10:03:05.000Z</time>
        <extensions>
          <ns3:TrackPointExtension>
            <ns3:hr>153</ns3:hr>
            <ns3:cad>89</ns3:cad>
          </ns3:TrackPointExtension>
        </extensions>
      </trkpt>
      <trkpt lat="43.83902250789105892181396484375" lon="4.256308637559413909912109375">
        <ele>146</ele>
        <time>2024-01-27T10:03:06.000Z</time>
        <extensions>
          <ns3:TrackPointExtension>
            <ns3:hr>153</ns3:hr>
            <ns3:cad>89</ns3:cad>
          </ns3:TrackPointExtension>
        </extensions>
      </trkpt>
      <trkpt lat="43.8390106894075870513916015625" lon="4.25628592260181903839111328125">
        <ele>145.8000030517578125</ele>
        <time>2024-01-27T10:03:07.000Z</time>
        <extensions>
          <ns3:TrackPointExtension>
            <ns3:hr>153</ns3:hr>
            <ns3:cad>89</ns3:cad>
          </ns3:TrackPointExtension>
        </extensions>
      </trkpt>
      <trkpt lat="43.83899551816284656524658203125" lon="4.2562615312635898590087890625">
        <ele>145.8000030517578125</ele>
        <time>2024-01-27T10:03:08.000Z</time>
        <extensions>
          <ns3:TrackPointExtension>
            <ns3:hr>153</ns3:hr>
            <ns3:cad>88</ns3:cad>
          </ns3:TrackPointExtension>
        </extensions>
      </trkpt>
      <trkpt lat="43.8389785028994083404541015625" lon="4.25624166615307331085205078125">
        <ele>145.1999969482421875</ele>
        <time>2024-01-27T10:03:09.000Z</time>
        <extensions>
          <ns3:TrackPointExtension>
            <ns3:hr>153</ns3:hr>
            <ns3:cad>88</ns3:cad>
          </ns3:TrackPointExtension>
        </extensions>
      </trkpt>
      <trkpt lat="43.8389597274363040924072265625" lon="4.2562166042625904083251953125">
        <ele>145.1999969482421875</ele>
        <time>2024-01-27T10:03:10.000Z</time>
        <extensions>
          <ns3:TrackPointExtension>
            <ns3:hr>153</ns3:hr>
            <ns3:cad>89</ns3:cad>
          </ns3:TrackPointExtension>
        </extensions>
      </trkpt>
      <trkpt lat="43.83893919177353382110595703125" lon="4.25619221292436122894287109375">
        <ele>145</ele>
        <time>2024-01-27T10:03:11.000Z</time>
        <extensions>
          <ns3:TrackPointExtension>
            <ns3:hr>153</ns3:hr>
            <ns3:cad>89</ns3:cad>
          </ns3:TrackPointExtension>
        </extensions>
      </trkpt>
      <trkpt lat="43.83891706354916095733642578125" lon="4.25616740249097347259521484375">
        <ele>144.8000030517578125</ele>
        <time>2024-01-27T10:03:12.000Z</time>
        <extensions>
          <ns3:TrackPointExtension>
            <ns3:hr>156</ns3:hr>
            <ns3:cad>91</ns3:cad>
          </ns3:TrackPointExtension>
        </extensions>
      </trkpt>
      <trkpt lat="43.83889518678188323974609375" lon="4.2561425082385540008544921875">
        <ele>144.600006103515625</ele>
        <time>2024-01-27T10:03:13.000Z</time>
        <extensions>
          <ns3:TrackPointExtension>
            <ns3:hr>158</ns3:hr>
            <ns3:cad>92</ns3:cad>
          </ns3:TrackPointExtension>
        </extensions>
      </trkpt>
      <trkpt lat="43.83887431584298610687255859375" lon="4.25611543469130992889404296875">
        <ele>144.399993896484375</ele>
        <time>2024-01-27T10:03:14.000Z</time>
        <extensions>
          <ns3:TrackPointExtension>
            <ns3:hr>159</ns3:hr>
            <ns3:cad>93</ns3:cad>
          </ns3:TrackPointExtension>
        </extensions>
      </trkpt>
      <trkpt lat="43.8388544507324695587158203125" lon="4.25609238445758819580078125">
        <ele>144.399993896484375</ele>
        <time>2024-01-27T10:03:15.000Z</time>
        <extensions>
          <ns3:TrackPointExtension>
            <ns3:hr>161</ns3:hr>
            <ns3:cad>93</ns3:cad>
          </ns3:TrackPointExtension>
        </extensions>
      </trkpt>
      <trkpt lat="43.83883953094482421875" lon="4.25606749020516872406005859375">
        <ele>144.399993896484375</ele>
        <time>2024-01-27T10:03:16.000Z</time>
        <extensions>
          <ns3:TrackPointExtension>
            <ns3:hr>163</ns3:hr>
            <ns3:cad>93</ns3:cad>
          </ns3:TrackPointExtension>
        </extensions>
      </trkpt>
      <trkpt lat="43.83882544934749603271484375" lon="4.25603899173438549041748046875">
        <ele>144.399993896484375</ele>
        <time>2024-01-27T10:03:17.000Z</time>
        <extensions>
          <ns3:TrackPointExtension>
            <ns3:hr>163</ns3:hr>
            <ns3:cad>93</ns3:cad>
          </ns3:TrackPointExtension>
        </extensions>
      </trkpt>
      <trkpt lat="43.8388113677501678466796875" lon="4.2560161091387271881103515625">
        <ele>144.399993896484375</ele>
        <time>2024-01-27T10:03:18.000Z</time>
        <extensions>
          <ns3:TrackPointExtension>
            <ns3:hr>164</ns3:hr>
            <ns3:cad>93</ns3:cad>
          </ns3:TrackPointExtension>
        </extensions>
      </trkpt>
      <trkpt lat="43.8387927599251270294189453125" lon="4.25598953850567340850830078125">
        <ele>144.399993896484375</ele>
        <time>2024-01-27T10:03:19.000Z</time>
        <extensions>
          <ns3:TrackPointExtension>
            <ns3:hr>164</ns3:hr>
            <ns3:cad>92</ns3:cad>
          </ns3:TrackPointExtension>
        </extensions>
      </trkpt>
      <trkpt lat="43.83877851068973541259765625" lon="4.25597378052771091461181640625">
        <ele>144.399993896484375</ele>
        <time>2024-01-27T10:03:20.000Z</time>
        <extensions>
          <ns3:TrackPointExtension>
            <ns3:hr>164</ns3:hr>
            <ns3:cad>92</ns3:cad>
          </ns3:TrackPointExtension>
        </extensions>
      </trkpt>
      <trkpt lat="43.838755376636981964111328125" lon="4.2559436894953250885009765625">
        <ele>144.399993896484375</ele>
        <time>2024-01-27T10:03:21.000Z</time>
        <extensions>
          <ns3:TrackPointExtension>
            <ns3:hr>164</ns3:hr>
            <ns3:cad>92</ns3:cad>
          </ns3:TrackPointExtension>
        </extensions>
      </trkpt>
      <trkpt lat="43.83873584680259227752685546875" lon="4.25592801533639430999755859375">
        <ele>144.399993896484375</ele>
        <time>2024-01-27T10:03:22.000Z</time>
        <extensions>
          <ns3:TrackPointExtension>
            <ns3:hr>164</ns3:hr>
            <ns3:cad>92</ns3:cad>
          </ns3:TrackPointExtension>
        </extensions>
      </trkpt>
      <trkpt lat="43.83871489204466342926025390625" lon="4.25590001977980136871337890625">
        <ele>144.399993896484375</ele>
        <time>2024-01-27T10:03:23.000Z</time>
        <extensions>
          <ns3:TrackPointExtension>
            <ns3:hr>164</ns3:hr>
            <ns3:cad>92</ns3:cad>
          </ns3:TrackPointExtension>
        </extensions>
      </trkpt>
      <trkpt lat="43.838697709143161773681640625" lon="4.255885183811187744140625">
        <ele>144.399993896484375</ele>
        <time>2024-01-27T10:03:24.000Z</time>
        <extensions>
          <ns3:TrackPointExtension>
            <ns3:hr>164</ns3:hr>
            <ns3:cad>92</ns3:cad>
          </ns3:TrackPointExtension>
        </extensions>
      </trkpt>
      <trkpt lat="43.83868136443197727203369140625" lon="4.255858026444911956787109375">
        <ele>144.399993896484375</ele>
        <time>2024-01-27T10:03:25.000Z</time>
        <extensions>
          <ns3:TrackPointExtension>
            <ns3:hr>164</ns3:hr>
            <ns3:cad>92</ns3:cad>
          </ns3:TrackPointExtension>
        </extensions>
      </trkpt>
      <trkpt lat="43.83866560645401477813720703125" lon="4.25584017299115657806396484375">
        <ele>144.600006103515625</ele>
        <time>2024-01-27T10:03:26.000Z</time>
        <extensions>
          <ns3:TrackPointExtension>
            <ns3:hr>164</ns3:hr>
            <ns3:cad>91</ns3:cad>
          </ns3:TrackPointExtension>
        </extensions>
      </trkpt>
      <trkpt lat="43.838650770485401153564453125" lon="4.2558149434626102447509765625">
        <ele>144.600006103515625</ele>
        <time>2024-01-27T10:03:27.000Z</time>
        <extensions>
          <ns3:TrackPointExtension>
            <ns3:hr>164</ns3:hr>
            <ns3:cad>91</ns3:cad>
          </ns3:TrackPointExtension>
        </extensions>
      </trkpt>
      <trkpt lat="43.83863367140293121337890625" lon="4.25579868257045745849609375">
        <ele>144.8000030517578125</ele>
        <time>2024-01-27T10:03:28.000Z</time>
        <extensions>
          <ns3:TrackPointExtension>
            <ns3:hr>164</ns3:hr>
            <ns3:cad>91</ns3:cad>
          </ns3:TrackPointExtension>
        </extensions>
      </trkpt>
      <trkpt lat="43.83861648850142955780029296875" lon="4.25578124821186065673828125">
        <ele>144.8000030517578125</ele>
        <time>2024-01-27T10:03:29.000Z</time>
        <extensions>
          <ns3:TrackPointExtension>
            <ns3:hr>164</ns3:hr>
            <ns3:cad>92</ns3:cad>
          </ns3:TrackPointExtension>
        </extensions>
      </trkpt>
      <trkpt lat="43.83859855122864246368408203125" lon="4.25575819797813892364501953125">
        <ele>145</ele>
        <time>2024-01-27T10:03:30.000Z</time>
        <extensions>
          <ns3:TrackPointExtension>
            <ns3:hr>163</ns3:hr>
            <ns3:cad>93</ns3:cad>
          </ns3:TrackPointExtension>
        </extensions>
      </trkpt>
      <trkpt lat="43.8385832123458385467529296875" lon="4.255744032561779022216796875">
        <ele>145</ele>
        <time>2024-01-27T10:03:31.000Z</time>
        <extensions>
          <ns3:TrackPointExtension>
            <ns3:hr>163</ns3:hr>
            <ns3:cad>93</ns3:cad>
          </ns3:TrackPointExtension>
        </extensions>
      </trkpt>
      <trkpt lat="43.83856368251144886016845703125" lon="4.2557175457477569580078125">
        <ele>145.1999969482421875</ele>
        <time>2024-01-27T10:03:32.000Z</time>
        <extensions>
          <ns3:TrackPointExtension>
            <ns3:hr>163</ns3:hr>
            <ns3:cad>92</ns3:cad>
          </ns3:TrackPointExtension>
        </extensions>
      </trkpt>
      <trkpt lat="43.8385483436286449432373046875" lon="4.2557009495794773101806640625">
        <ele>145.399993896484375</ele>
        <time>2024-01-27T10:03:33.000Z</time>
        <extensions>
          <ns3:TrackPointExtension>
            <ns3:hr>163</ns3:hr>
            <ns3:cad>92</ns3:cad>
          </ns3:TrackPointExtension>
        </extensions>
      </trkpt>
      <trkpt lat="43.83852831088006496429443359375" lon="4.25567387603223323822021484375">
        <ele>145.600006103515625</ele>
        <time>2024-01-27T10:03:34.000Z</time>
        <extensions>
          <ns3:TrackPointExtension>
            <ns3:hr>163</ns3:hr>
            <ns3:cad>92</ns3:cad>
          </ns3:TrackPointExtension>
        </extensions>
      </trkpt>
      <trkpt lat="43.83851339109241962432861328125" lon="4.25565744750201702117919921875">
        <ele>145.8000030517578125</ele>
        <time>2024-01-27T10:03:35.000Z</time>
        <extensions>
          <ns3:TrackPointExtension>
            <ns3:hr>163</ns3:hr>
            <ns3:cad>92</ns3:cad>
          </ns3:TrackPointExtension>
        </extensions>
      </trkpt>
      <trkpt lat="43.8384960405528545379638671875" lon="4.25563598982989788055419921875">
        <ele>145.8000030517578125</ele>
        <time>2024-01-27T10:03:36.000Z</time>
        <extensions>
          <ns3:TrackPointExtension>
            <ns3:hr>163</ns3:hr>
            <ns3:cad>93</ns3:cad>
          </ns3:TrackPointExtension>
        </extensions>
      </trkpt>
      <trkpt lat="43.83848036639392375946044921875" lon="4.255621992051601409912109375">
        <ele>146.1999969482421875</ele>
        <time>2024-01-27T10:03:37.000Z</time>
        <extensions>
          <ns3:TrackPointExtension>
            <ns3:hr>163</ns3:hr>
            <ns3:cad>93</ns3:cad>
          </ns3:TrackPointExtension>
        </extensions>
      </trkpt>
      <trkpt lat="43.83845622651278972625732421875" lon="4.25560648553073406219482421875">
        <ele>146.399993896484375</ele>
        <time>2024-01-27T10:03:38.000Z</time>
        <extensions>
          <ns3:TrackPointExtension>
            <ns3:hr>163</ns3:hr>
            <ns3:cad>93</ns3:cad>
          </ns3:TrackPointExtension>
        </extensions>
      </trkpt>
      <trkpt lat="43.83843787014484405517578125" lon="4.25559424795210361480712890625">
        <ele>146.399993896484375</ele>
        <time>2024-01-27T10:03:39.000Z</time>
        <extensions>
          <ns3:TrackPointExtension>
            <ns3:hr>164</ns3:hr>
            <ns3:cad>93</ns3:cad>
          </ns3:TrackPointExtension>
        </extensions>
      </trkpt>
      <trkpt lat="43.838418088853359222412109375" lon="4.2555785737931728363037109375">
        <ele>146.600006103515625</ele>
        <time>2024-01-27T10:03:40.000Z</time>
        <extensions>
          <ns3:TrackPointExtension>
            <ns3:hr>164</ns3:hr>
            <ns3:cad>92</ns3:cad>
          </ns3:TrackPointExtension>
        </extensions>
      </trkpt>
      <trkpt lat="43.83840023539960384368896484375" lon="4.25556926988065242767333984375">
        <ele>146.600006103515625</ele>
        <time>2024-01-27T10:03:41.000Z</time>
        <extensions>
          <ns3:TrackPointExtension>
            <ns3:hr>164</ns3:hr>
            <ns3:cad>92</ns3:cad>
          </ns3:TrackPointExtension>
        </extensions>
      </trkpt>
      <trkpt lat="43.8383786939084529876708984375" lon="4.2555547691881656646728515625">
        <ele>146.8000030517578125</ele>
        <time>2024-01-27T10:03:42.000Z</time>
        <extensions>
          <ns3:TrackPointExtension>
            <ns3:hr>164</ns3:hr>
            <ns3:cad>91</ns3:cad>
          </ns3:TrackPointExtension>
        </extensions>
      </trkpt>
      <trkpt lat="43.8383585773408412933349609375" lon="4.25554160960018634796142578125">
        <ele>146.8000030517578125</ele>
        <time>2024-01-27T10:03:43.000Z</time>
        <extensions>
          <ns3:TrackPointExtension>
            <ns3:hr>164</ns3:hr>
            <ns3:cad>92</ns3:cad>
          </ns3:TrackPointExtension>
        </extensions>
      </trkpt>
      <trkpt lat="43.83833368308842182159423828125" lon="4.25551839172840118408203125">
        <ele>146.8000030517578125</ele>
        <time>2024-01-27T10:03:44.000Z</time>
        <extensions>
          <ns3:TrackPointExtension>
            <ns3:hr>164</ns3:hr>
            <ns3:cad>91</ns3:cad>
          </ns3:TrackPointExtension>
        </extensions>
      </trkpt>
      <trkpt lat="43.83830820210278034210205078125" lon="4.2555031366646289825439453125">
        <ele>146.8000030517578125</ele>
        <time>2024-01-27T10:03:45.000Z</time>
        <extensions>
          <ns3:TrackPointExtension>
            <ns3:hr>164</ns3:hr>
            <ns3:cad>91</ns3:cad>
          </ns3:TrackPointExtension>
        </extensions>
      </trkpt>
      <trkpt lat="43.83828557096421718597412109375" lon="4.2554877139627933502197265625">
        <ele>146.8000030517578125</ele>
        <time>2024-01-27T10:03:46.000Z</time>
        <extensions>
          <ns3:TrackPointExtension>
            <ns3:hr>164</ns3:hr>
            <ns3:cad>90</ns3:cad>
          </ns3:TrackPointExtension>
        </extensions>
      </trkpt>
      <trkpt lat="43.8382606767117977142333984375" lon="4.2554753087460994720458984375">
        <ele>146.600006103515625</ele>
        <time>2024-01-27T10:03:47.000Z</time>
        <extensions>
          <ns3:TrackPointExtension>
            <ns3:hr>164</ns3:hr>
            <ns3:cad>90</ns3:cad>
          </ns3:TrackPointExtension>
        </extensions>
      </trkpt>
      <trkpt lat="43.83823678828775882720947265625" lon="4.2554627358913421630859375">
        <ele>146.600006103515625</ele>
        <time>2024-01-27T10:03:48.000Z</time>
        <extensions>
          <ns3:TrackPointExtension>
            <ns3:hr>164</ns3:hr>
            <ns3:cad>90</ns3:cad>
          </ns3:TrackPointExtension>
        </extensions>
      </trkpt>
      <trkpt lat="43.83821315132081508636474609375" lon="4.25544907338917255401611328125">
        <ele>146.600006103515625</ele>
        <time>2024-01-27T10:03:49.000Z</time>
        <extensions>
          <ns3:TrackPointExtension>
            <ns3:hr>164</ns3:hr>
            <ns3:cad>91</ns3:cad>
          </ns3:TrackPointExtension>
        </extensions>
      </trkpt>
      <trkpt lat="43.8381917774677276611328125" lon="4.25544069148600101470947265625">
        <ele>146.600006103515625</ele>
        <time>2024-01-27T10:03:50.000Z</time>
        <extensions>
          <ns3:TrackPointExtension>
            <ns3:hr>164</ns3:hr>
            <ns3:cad>91</ns3:cad>
          </ns3:TrackPointExtension>
        </extensions>
      </trkpt>
      <trkpt lat="43.8381649553775787353515625" lon="4.25542610697448253631591796875">
        <ele>146.8000030517578125</ele>
        <time>2024-01-27T10:03:51.000Z</time>
        <extensions>
          <ns3:TrackPointExtension>
            <ns3:hr>164</ns3:hr>
            <ns3:cad>91</ns3:cad>
          </ns3:TrackPointExtension>
        </extensions>
      </trkpt>
      <trkpt lat="43.83814861066639423370361328125" lon="4.25541353411972522735595703125">
        <ele>146.8000030517578125</ele>
        <time>2024-01-27T10:03:52.000Z</time>
        <extensions>
          <ns3:TrackPointExtension>
            <ns3:hr>164</ns3:hr>
            <ns3:cad>91</ns3:cad>
          </ns3:TrackPointExtension>
        </extensions>
      </trkpt>
      <trkpt lat="43.83812547661364078521728515625" lon="4.25539408810436725616455078125">
        <ele>146.8000030517578125</ele>
        <time>2024-01-27T10:03:53.000Z</time>
        <extensions>
          <ns3:TrackPointExtension>
            <ns3:hr>164</ns3:hr>
            <ns3:cad>92</ns3:cad>
          </ns3:TrackPointExtension>
        </extensions>
      </trkpt>
      <trkpt lat="43.8381067849695682525634765625" lon="4.25538151524960994720458984375">
        <ele>147</ele>
        <time>2024-01-27T10:03:54.000Z</time>
        <extensions>
          <ns3:TrackPointExtension>
            <ns3:hr>164</ns3:hr>
            <ns3:cad>92</ns3:cad>
          </ns3:TrackPointExtension>
        </extensions>
      </trkpt>
      <trkpt lat="43.838080801069736480712890625" lon="4.2553572915494441986083984375">
        <ele>147</ele>
        <time>2024-01-27T10:03:55.000Z</time>
        <extensions>
          <ns3:TrackPointExtension>
            <ns3:hr>164</ns3:hr>
            <ns3:cad>92</ns3:cad>
          </ns3:TrackPointExtension>
        </extensions>
      </trkpt>
      <trkpt lat="43.8380615226924419403076171875" lon="4.25534765236079692840576171875">
        <ele>147</ele>
        <time>2024-01-27T10:03:56.000Z</time>
        <extensions>
          <ns3:TrackPointExtension>
            <ns3:hr>164</ns3:hr>
            <ns3:cad>92</ns3:cad>
          </ns3:TrackPointExtension>
        </extensions>
      </trkpt>
      <trkpt lat="43.83803830482065677642822265625" lon="4.25532803870737552642822265625">
        <ele>147</ele>
        <time>2024-01-27T10:03:57.000Z</time>
        <extensions>
          <ns3:TrackPointExtension>
            <ns3:hr>164</ns3:hr>
            <ns3:cad>92</ns3:cad>
          </ns3:TrackPointExtension>
        </extensions>
      </trkpt>
      <trkpt lat="43.838019110262393951416015625" lon="4.255320243537425994873046875">
        <ele>147</ele>
        <time>2024-01-27T10:03:58.000Z</time>
        <extensions>
          <ns3:TrackPointExtension>
            <ns3:hr>164</ns3:hr>
            <ns3:cad>92</ns3:cad>
          </ns3:TrackPointExtension>
        </extensions>
      </trkpt>
      <trkpt lat="43.8379994966089725494384765625" lon="4.2553018033504486083984375">
        <ele>147</ele>
        <time>2024-01-27T10:03:59.000Z</time>
        <extensions>
          <ns3:TrackPointExtension>
            <ns3:hr>164</ns3:hr>
            <ns3:cad>92</ns3:cad>
          </ns3:TrackPointExtension>
        </extensions>
      </trkpt>
      <trkpt lat="43.83798181079328060150146484375" lon="4.25529367290437221527099609375">
        <ele>147</ele>
        <time>2024-01-27T10:04:00.000Z</time>
        <extensions>
          <ns3:TrackPointExtension>
            <ns3:hr>164</ns3:hr>
            <ns3:cad>92</ns3:cad>
          </ns3:TrackPointExtension>
        </extensions>
      </trkpt>
      <trkpt lat="43.8379589281976222991943359375" lon="4.255279004573822021484375">
        <ele>147</ele>
        <time>2024-01-27T10:04:01.000Z</time>
        <extensions>
          <ns3:TrackPointExtension>
            <ns3:hr>164</ns3:hr>
            <ns3:cad>92</ns3:cad>
          </ns3:TrackPointExtension>
        </extensions>
      </trkpt>
      <trkpt lat="43.83793621324002742767333984375" lon="4.2552674375474452972412109375">
        <ele>147</ele>
        <time>2024-01-27T10:04:02.000Z</time>
        <extensions>
          <ns3:TrackPointExtension>
            <ns3:hr>164</ns3:hr>
            <ns3:cad>92</ns3:cad>
          </ns3:TrackPointExtension>
        </extensions>
      </trkpt>
      <trkpt lat="43.83791207335889339447021484375" lon="4.255252517759799957275390625">
        <ele>147</ele>
        <time>2024-01-27T10:04:03.000Z</time>
        <extensions>
          <ns3:TrackPointExtension>
            <ns3:hr>164</ns3:hr>
            <ns3:cad>92</ns3:cad>
          </ns3:TrackPointExtension>
        </extensions>
      </trkpt>
      <trkpt lat="43.83788709528744220733642578125" lon="4.25524212419986724853515625">
        <ele>147</ele>
        <time>2024-01-27T10:04:04.000Z</time>
        <extensions>
          <ns3:TrackPointExtension>
            <ns3:hr>164</ns3:hr>
            <ns3:cad>93</ns3:cad>
          </ns3:TrackPointExtension>
        </extensions>
      </trkpt>
      <trkpt lat="43.837862871587276458740234375" lon="4.25522997044026851654052734375">
        <ele>147</ele>
        <time>2024-01-27T10:04:05.000Z</time>
        <extensions>
          <ns3:TrackPointExtension>
            <ns3:hr>164</ns3:hr>
            <ns3:cad>93</ns3:cad>
          </ns3:TrackPointExtension>
        </extensions>
      </trkpt>
      <trkpt lat="43.837838061153888702392578125" lon="4.2552158050239086151123046875">
        <ele>147</ele>
        <time>2024-01-27T10:04:06.000Z</time>
        <extensions>
          <ns3:TrackPointExtension>
            <ns3:hr>163</ns3:hr>
            <ns3:cad>93</ns3:cad>
          </ns3:TrackPointExtension>
        </extensions>
      </trkpt>
      <trkpt lat="43.837819285690784454345703125" lon="4.2552050761878490447998046875">
        <ele>147</ele>
        <time>2024-01-27T10:04:07.000Z</time>
        <extensions>
          <ns3:TrackPointExtension>
            <ns3:hr>163</ns3:hr>
            <ns3:cad>93</ns3:cad>
          </ns3:TrackPointExtension>
        </extensions>
      </trkpt>
      <trkpt lat="43.83779623545706272125244140625" lon="4.255186133086681365966796875">
        <ele>147</ele>
        <time>2024-01-27T10:04:08.000Z</time>
        <extensions>
          <ns3:TrackPointExtension>
            <ns3:hr>163</ns3:hr>
            <ns3:cad>93</ns3:cad>
          </ns3:TrackPointExtension>
        </extensions>
      </trkpt>
      <trkpt lat="43.83777645416557788848876953125" lon="4.25517029128968715667724609375">
        <ele>147</ele>
        <time>2024-01-27T10:04:09.000Z</time>
        <extensions>
          <ns3:TrackPointExtension>
            <ns3:hr>163</ns3:hr>
            <ns3:cad>93</ns3:cad>
          </ns3:TrackPointExtension>
        </extensions>
      </trkpt>
      <trkpt lat="43.83775751106441020965576171875" lon="4.25513911060988903045654296875">
        <ele>147</ele>
        <time>2024-01-27T10:04:10.000Z</time>
        <extensions>
          <ns3:TrackPointExtension>
            <ns3:hr>163</ns3:hr>
            <ns3:cad>93</ns3:cad>
          </ns3:TrackPointExtension>
        </extensions>
      </trkpt>
      <trkpt lat="43.8377413339912891387939453125" lon="4.25511882640421390533447265625">
        <ele>147</ele>
        <time>2024-01-27T10:04:11.000Z</time>
        <extensions>
          <ns3:TrackPointExtension>
            <ns3:hr>162</ns3:hr>
            <ns3:cad>93</ns3:cad>
          </ns3:TrackPointExtension>
        </extensions>
      </trkpt>
      <trkpt lat="43.83772465400397777557373046875" lon="4.25508613698184490203857421875">
        <ele>146.8000030517578125</ele>
        <time>2024-01-27T10:04:12.000Z</time>
        <extensions>
          <ns3:TrackPointExtension>
            <ns3:hr>162</ns3:hr>
            <ns3:cad>93</ns3:cad>
          </ns3:TrackPointExtension>
        </extensions>
      </trkpt>
      <trkpt lat="43.837711326777935028076171875" lon="4.2550645954906940460205078125">
        <ele>146.8000030517578125</ele>
        <time>2024-01-27T10:04:13.000Z</time>
        <extensions>
          <ns3:TrackPointExtension>
            <ns3:hr>162</ns3:hr>
            <ns3:cad>93</ns3:cad>
          </ns3:TrackPointExtension>
        </extensions>
      </trkpt>
      <trkpt lat="43.8376974128186702728271484375" lon="4.2550290562212467193603515625">
        <ele>146.600006103515625</ele>
        <time>2024-01-27T10:04:14.000Z</time>
        <extensions>
          <ns3:TrackPointExtension>
            <ns3:hr>162</ns3:hr>
            <ns3:cad>93</ns3:cad>
          </ns3:TrackPointExtension>
        </extensions>
      </trkpt>
      <trkpt lat="43.8376883603632450103759765625" lon="4.2549988813698291778564453125">
        <ele>146.600006103515625</ele>
        <time>2024-01-27T10:04:15.000Z</time>
        <extensions>
          <ns3:TrackPointExtension>
            <ns3:hr>162</ns3:hr>
            <ns3:cad>92</ns3:cad>
          </ns3:TrackPointExtension>
        </extensions>
      </trkpt>
      <trkpt lat="43.83767905645072460174560546875" lon="4.25495655275881290435791015625">
        <ele>146.600006103515625</ele>
        <time>2024-01-27T10:04:16.000Z</time>
        <extensions>
          <ns3:TrackPointExtension>
            <ns3:hr>162</ns3:hr>
            <ns3:cad>91</ns3:cad>
          </ns3:TrackPointExtension>
        </extensions>
      </trkpt>
      <trkpt lat="43.83767344057559967041015625" lon="4.25492520444095134735107421875">
        <ele>146.399993896484375</ele>
        <time>2024-01-27T10:04:17.000Z</time>
        <extensions>
          <ns3:TrackPointExtension>
            <ns3:hr>162</ns3:hr>
            <ns3:cad>90</ns3:cad>
          </ns3:TrackPointExtension>
        </extensions>
      </trkpt>
      <trkpt lat="43.83767318911850452423095703125" lon="4.25488446839153766632080078125">
        <ele>146.1999969482421875</ele>
        <time>2024-01-27T10:04:18.000Z</time>
        <extensions>
          <ns3:TrackPointExtension>
            <ns3:hr>162</ns3:hr>
            <ns3:cad>89</ns3:cad>
          </ns3:TrackPointExtension>
        </extensions>
      </trkpt>
      <trkpt lat="43.8376746140420436859130859375" lon="4.254856221377849578857421875">
        <ele>146</ele>
        <time>2024-01-27T10:04:19.000Z</time>
        <extensions>
          <ns3:TrackPointExtension>
            <ns3:hr>162</ns3:hr>
            <ns3:cad>89</ns3:cad>
          </ns3:TrackPointExtension>
        </extensions>
      </trkpt>
      <trkpt lat="43.8376821577548980712890625" lon="4.25481422804296016693115234375">
        <ele>146</ele>
        <time>2024-01-27T10:04:20.000Z</time>
        <extensions>
          <ns3:TrackPointExtension>
            <ns3:hr>162</ns3:hr>
            <ns3:cad>89</ns3:cad>
          </ns3:TrackPointExtension>
        </extensions>
      </trkpt>
      <trkpt lat="43.83769213221967220306396484375" lon="4.254782460629940032958984375">
        <ele>145.8000030517578125</ele>
        <time>2024-01-27T10:04:21.000Z</time>
        <extensions>
          <ns3:TrackPointExtension>
            <ns3:hr>161</ns3:hr>
            <ns3:cad>89</ns3:cad>
          </ns3:TrackPointExtension>
        </extensions>
      </trkpt>
      <trkpt lat="43.83770554326474666595458984375" lon="4.25474264658987522125244140625">
        <ele>145.8000030517578125</ele>
        <time>2024-01-27T10:04:22.000Z</time>
        <extensions>
          <ns3:TrackPointExtension>
            <ns3:hr>161</ns3:hr>
            <ns3:cad>90</ns3:cad>
          </ns3:TrackPointExtension>
        </extensions>
      </trkpt>
      <trkpt lat="43.83771610446274280548095703125" lon="4.25471507012844085693359375">
        <ele>145.600006103515625</ele>
        <time>2024-01-27T10:04:23.000Z</time>
        <extensions>
          <ns3:TrackPointExtension>
            <ns3:hr>161</ns3:hr>
            <ns3:cad>90</ns3:cad>
          </ns3:TrackPointExtension>
        </extensions>
      </trkpt>
      <trkpt lat="43.8377342931926250457763671875" lon="4.254679195582866668701171875">
        <ele>145.399993896484375</ele>
        <time>2024-01-27T10:04:24.000Z</time>
        <extensions>
          <ns3:TrackPointExtension>
            <ns3:hr>161</ns3:hr>
            <ns3:cad>90</ns3:cad>
          </ns3:TrackPointExtension>
        </extensions>
      </trkpt>
      <trkpt lat="43.837752230465412139892578125" lon="4.254647009074687957763671875">
        <ele>145.1999969482421875</ele>
        <time>2024-01-27T10:04:25.000Z</time>
        <extensions>
          <ns3:TrackPointExtension>
            <ns3:hr>161</ns3:hr>
            <ns3:cad>90</ns3:cad>
          </ns3:TrackPointExtension>
        </extensions>
      </trkpt>
      <trkpt lat="43.8377772085368633270263671875" lon="4.254621528089046478271484375">
        <ele>145.1999969482421875</ele>
        <time>2024-01-27T10:04:26.000Z</time>
        <extensions>
          <ns3:TrackPointExtension>
            <ns3:hr>161</ns3:hr>
            <ns3:cad>92</ns3:cad>
          </ns3:TrackPointExtension>
        </extensions>
      </trkpt>
      <trkpt lat="43.83780193515121936798095703125" lon="4.25460333935916423797607421875">
        <ele>145</ele>
        <time>2024-01-27T10:04:27.000Z</time>
        <extensions>
          <ns3:TrackPointExtension>
            <ns3:hr>161</ns3:hr>
            <ns3:cad>92</ns3:cad>
          </ns3:TrackPointExtension>
        </extensions>
      </trkpt>
      <trkpt lat="43.8378298468887805938720703125" lon="4.25459009595215320587158203125">
        <ele>145</ele>
        <time>2024-01-27T10:04:28.000Z</time>
        <extensions>
          <ns3:TrackPointExtension>
            <ns3:hr>161</ns3:hr>
            <ns3:cad>92</ns3:cad>
          </ns3:TrackPointExtension>
        </extensions>
      </trkpt>
      <trkpt lat="43.83785457350313663482666015625" lon="4.2545781098306179046630859375">
        <ele>145</ele>
        <time>2024-01-27T10:04:29.000Z</time>
        <extensions>
          <ns3:TrackPointExtension>
            <ns3:hr>162</ns3:hr>
            <ns3:cad>92</ns3:cad>
          </ns3:TrackPointExtension>
        </extensions>
      </trkpt>
      <trkpt lat="43.83787997066974639892578125" lon="4.2545693926513195037841796875">
        <ele>145</ele>
        <time>2024-01-27T10:04:30.000Z</time>
        <extensions>
          <ns3:TrackPointExtension>
            <ns3:hr>162</ns3:hr>
            <ns3:cad>92</ns3:cad>
          </ns3:TrackPointExtension>
        </extensions>
      </trkpt>
      <trkpt lat="43.8379072956740856170654296875" lon="4.2545534670352935791015625">
        <ele>145</ele>
        <time>2024-01-27T10:04:31.000Z</time>
        <extensions>
          <ns3:TrackPointExtension>
            <ns3:hr>162</ns3:hr>
            <ns3:cad>92</ns3:cad>
          </ns3:TrackPointExtension>
        </extensions>
      </trkpt>
      <trkpt lat="43.8379347883164882659912109375" lon="4.25453670322895050048828125">
        <ele>145</ele>
        <time>2024-01-27T10:04:32.000Z</time>
        <extensions>
          <ns3:TrackPointExtension>
            <ns3:hr>162</ns3:hr>
            <ns3:cad>92</ns3:cad>
          </ns3:TrackPointExtension>
        </extensions>
      </trkpt>
      <trkpt lat="43.83796043694019317626953125" lon="4.25452974624931812286376953125">
        <ele>145</ele>
        <time>2024-01-27T10:04:33.000Z</time>
        <extensions>
          <ns3:TrackPointExtension>
            <ns3:hr>162</ns3:hr>
            <ns3:cad>92</ns3:cad>
          </ns3:TrackPointExtension>
        </extensions>
      </trkpt>
      <trkpt lat="43.8379800505936145782470703125" lon="4.25451516173779964447021484375">
        <ele>145</ele>
        <time>2024-01-27T10:04:34.000Z</time>
        <extensions>
          <ns3:TrackPointExtension>
            <ns3:hr>162</ns3:hr>
            <ns3:cad>92</ns3:cad>
          </ns3:TrackPointExtension>
        </extensions>
      </trkpt>
      <trkpt lat="43.8380078785121440887451171875" lon="4.25449839793145656585693359375">
        <ele>145</ele>
        <time>2024-01-27T10:04:35.000Z</time>
        <extensions>
          <ns3:TrackPointExtension>
            <ns3:hr>162</ns3:hr>
            <ns3:cad>92</ns3:cad>
          </ns3:TrackPointExtension>
        </extensions>
      </trkpt>
      <trkpt lat="43.83802958764135837554931640625" lon="4.254485070705413818359375">
        <ele>145</ele>
        <time>2024-01-27T10:04:36.000Z</time>
        <extensions>
          <ns3:TrackPointExtension>
            <ns3:hr>162</ns3:hr>
            <ns3:cad>92</ns3:cad>
          </ns3:TrackPointExtension>
        </extensions>
      </trkpt>
      <trkpt lat="43.8380581699311733245849609375" lon="4.25447694025933742523193359375">
        <ele>145.1999969482421875</ele>
        <time>2024-01-27T10:04:37.000Z</time>
        <extensions>
          <ns3:TrackPointExtension>
            <ns3:hr>162</ns3:hr>
            <ns3:cad>92</ns3:cad>
          </ns3:TrackPointExtension>
        </extensions>
      </trkpt>
      <trkpt lat="43.83808323182165622711181640625" lon="4.25446386449038982391357421875">
        <ele>145.1999969482421875</ele>
        <time>2024-01-27T10:04:38.000Z</time>
        <extensions>
          <ns3:TrackPointExtension>
            <ns3:hr>162</ns3:hr>
            <ns3:cad>93</ns3:cad>
          </ns3:TrackPointExtension>
        </extensions>
      </trkpt>
      <trkpt lat="43.83811072446405887603759765625" lon="4.25445020198822021484375">
        <ele>145.1999969482421875</ele>
        <time>2024-01-27T10:04:39.000Z</time>
        <extensions>
          <ns3:TrackPointExtension>
            <ns3:hr>162</ns3:hr>
            <ns3:cad>93</ns3:cad>
          </ns3:TrackPointExtension>
        </extensions>
      </trkpt>
      <trkpt lat="43.8381332717835903167724609375" lon="4.25443318672478199005126953125">
        <ele>145.1999969482421875</ele>
        <time>2024-01-27T10:04:40.000Z</time>
        <extensions>
          <ns3:TrackPointExtension>
            <ns3:hr>162</ns3:hr>
            <ns3:cad>93</ns3:cad>
          </ns3:TrackPointExtension>
        </extensions>
      </trkpt>
      <trkpt lat="43.83815883658826351165771484375" lon="4.25442212261259555816650390625">
        <ele>145.1999969482421875</ele>
        <time>2024-01-27T10:04:41.000Z</time>
        <extensions>
          <ns3:TrackPointExtension>
            <ns3:hr>162</ns3:hr>
            <ns3:cad>92</ns3:cad>
          </ns3:TrackPointExtension>
        </extensions>
      </trkpt>
      <trkpt lat="43.838182054460048675537109375" lon="4.25440737046301364898681640625">
        <ele>145.1999969482421875</ele>
        <time>2024-01-27T10:04:42.000Z</time>
        <extensions>
          <ns3:TrackPointExtension>
            <ns3:hr>162</ns3:hr>
            <ns3:cad>92</ns3:cad>
          </ns3:TrackPointExtension>
        </extensions>
      </trkpt>
      <trkpt lat="43.83820543996989727020263671875" lon="4.25439261831343173980712890625">
        <ele>145.1999969482421875</ele>
        <time>2024-01-27T10:04:43.000Z</time>
        <extensions>
          <ns3:TrackPointExtension>
            <ns3:hr>162</ns3:hr>
            <ns3:cad>90</ns3:cad>
          </ns3:TrackPointExtension>
        </extensions>
      </trkpt>
      <trkpt lat="43.83823008276522159576416015625" lon="4.25437618978321552276611328125">
        <ele>145.1999969482421875</ele>
        <time>2024-01-27T10:04:44.000Z</time>
        <extensions>
          <ns3:TrackPointExtension>
            <ns3:hr>162</ns3:hr>
            <ns3:cad>90</ns3:cad>
          </ns3:TrackPointExtension>
        </extensions>
      </trkpt>
      <trkpt lat="43.83825791068375110626220703125" lon="4.2543668858706951141357421875">
        <ele>145</ele>
        <time>2024-01-27T10:04:45.000Z</time>
        <extensions>
          <ns3:TrackPointExtension>
            <ns3:hr>162</ns3:hr>
            <ns3:cad>91</ns3:cad>
          </ns3:TrackPointExtension>
        </extensions>
      </trkpt>
      <trkpt lat="43.83828490041196346282958984375" lon="4.25435163080692291259765625">
        <ele>145</ele>
        <time>2024-01-27T10:04:46.000Z</time>
        <extensions>
          <ns3:TrackPointExtension>
            <ns3:hr>162</ns3:hr>
            <ns3:cad>91</ns3:cad>
          </ns3:TrackPointExtension>
        </extensions>
      </trkpt>
      <trkpt lat="43.83831071667373180389404296875" lon="4.254339896142482757568359375">
        <ele>145</ele>
        <time>2024-01-27T10:04:47.000Z</time>
        <extensions>
          <ns3:TrackPointExtension>
            <ns3:hr>161</ns3:hr>
            <ns3:cad>91</ns3:cad>
          </ns3:TrackPointExtension>
        </extensions>
      </trkpt>
      <trkpt lat="43.83833485655486583709716796875" lon="4.25432673655450344085693359375">
        <ele>145</ele>
        <time>2024-01-27T10:04:48.000Z</time>
        <extensions>
          <ns3:TrackPointExtension>
            <ns3:hr>161</ns3:hr>
            <ns3:cad>91</ns3:cad>
          </ns3:TrackPointExtension>
        </extensions>
      </trkpt>
      <trkpt lat="43.8383599184453487396240234375" lon="4.2543186061084270477294921875">
        <ele>144.8000030517578125</ele>
        <time>2024-01-27T10:04:49.000Z</time>
        <extensions>
          <ns3:TrackPointExtension>
            <ns3:hr>161</ns3:hr>
            <ns3:cad>90</ns3:cad>
          </ns3:TrackPointExtension>
        </extensions>
      </trkpt>
      <trkpt lat="43.8383837230503559112548828125" lon="4.254312403500080108642578125">
        <ele>144.8000030517578125</ele>
        <time>2024-01-27T10:04:50.000Z</time>
        <extensions>
          <ns3:TrackPointExtension>
            <ns3:hr>161</ns3:hr>
            <ns3:cad>90</ns3:cad>
          </ns3:TrackPointExtension>
        </extensions>
      </trkpt>
      <trkpt lat="43.838406689465045928955078125" lon="4.25431139767169952392578125">
        <ele>144.8000030517578125</ele>
        <time>2024-01-27T10:04:51.000Z</time>
        <extensions>
          <ns3:TrackPointExtension>
            <ns3:hr>160</ns3:hr>
            <ns3:cad>90</ns3:cad>
          </ns3:TrackPointExtension>
        </extensions>
      </trkpt>
      <trkpt lat="43.83843175135552883148193359375" lon="4.25431014038622379302978515625">
        <ele>145</ele>
        <time>2024-01-27T10:04:52.000Z</time>
        <extensions>
          <ns3:TrackPointExtension>
            <ns3:hr>160</ns3:hr>
            <ns3:cad>90</ns3:cad>
          </ns3:TrackPointExtension>
        </extensions>
      </trkpt>
      <trkpt lat="43.83845656178891658782958984375" lon="4.25431030802428722381591796875">
        <ele>145</ele>
        <time>2024-01-27T10:04:53.000Z</time>
        <extensions>
          <ns3:TrackPointExtension>
            <ns3:hr>159</ns3:hr>
            <ns3:cad>92</ns3:cad>
          </ns3:TrackPointExtension>
        </extensions>
      </trkpt>
      <trkpt lat="43.83848455734550952911376953125" lon="4.25431014038622379302978515625">
        <ele>145</ele>
        <time>2024-01-27T10:04:54.000Z</time>
        <extensions>
          <ns3:TrackPointExtension>
            <ns3:hr>159</ns3:hr>
            <ns3:cad>92</ns3:cad>
          </ns3:TrackPointExtension>
        </extensions>
      </trkpt>
      <trkpt lat="43.83850785903632640838623046875" lon="4.2543088831007480621337890625">
        <ele>145</ele>
        <time>2024-01-27T10:04:55.000Z</time>
        <extensions>
          <ns3:TrackPointExtension>
            <ns3:hr>159</ns3:hr>
            <ns3:cad>93</ns3:cad>
          </ns3:TrackPointExtension>
        </extensions>
      </trkpt>
      <trkpt lat="43.83853283710777759552001953125" lon="4.25431139767169952392578125">
        <ele>145.1999969482421875</ele>
        <time>2024-01-27T10:04:56.000Z</time>
        <extensions>
          <ns3:TrackPointExtension>
            <ns3:hr>159</ns3:hr>
            <ns3:cad>93</ns3:cad>
          </ns3:TrackPointExtension>
        </extensions>
      </trkpt>
      <trkpt lat="43.8385543785989284515380859375" lon="4.25430913455784320831298828125">
        <ele>145.399993896484375</ele>
        <time>2024-01-27T10:04:57.000Z</time>
        <extensions>
          <ns3:TrackPointExtension>
            <ns3:hr>159</ns3:hr>
            <ns3:cad>93</ns3:cad>
          </ns3:TrackPointExtension>
        </extensions>
      </trkpt>
      <trkpt lat="43.83858203887939453125" lon="4.2543149180710315704345703125">
        <ele>145.399993896484375</ele>
        <time>2024-01-27T10:04:58.000Z</time>
        <extensions>
          <ns3:TrackPointExtension>
            <ns3:hr>159</ns3:hr>
            <ns3:cad>93</ns3:cad>
          </ns3:TrackPointExtension>
        </extensions>
      </trkpt>
      <trkpt lat="43.8386063463985919952392578125" lon="4.254316426813602447509765625">
        <ele>145.399993896484375</ele>
        <time>2024-01-27T10:04:59.000Z</time>
        <extensions>
          <ns3:TrackPointExtension>
            <ns3:hr>159</ns3:hr>
            <ns3:cad>93</ns3:cad>
          </ns3:TrackPointExtension>
        </extensions>
      </trkpt>
      <trkpt lat="43.838637359440326690673828125" lon="4.25432589836418628692626953125">
        <ele>145.399993896484375</ele>
        <time>2024-01-27T10:05:00.000Z</time>
        <extensions>
          <ns3:TrackPointExtension>
            <ns3:hr>159</ns3:hr>
            <ns3:cad>93</ns3:cad>
          </ns3:TrackPointExtension>
        </extensions>
      </trkpt>
      <trkpt lat="43.83866242133080959320068359375" lon="4.25432883203029632568359375">
        <ele>145.399993896484375</ele>
        <time>2024-01-27T10:05:01.000Z</time>
        <extensions>
          <ns3:TrackPointExtension>
            <ns3:hr>159</ns3:hr>
            <ns3:cad>93</ns3:cad>
          </ns3:TrackPointExtension>
        </extensions>
      </trkpt>
      <trkpt lat="43.83869008161127567291259765625" lon="4.25433327443897724151611328125">
        <ele>145.399993896484375</ele>
        <time>2024-01-27T10:05:02.000Z</time>
        <extensions>
          <ns3:TrackPointExtension>
            <ns3:hr>159</ns3:hr>
            <ns3:cad>93</ns3:cad>
          </ns3:TrackPointExtension>
        </extensions>
      </trkpt>
      <trkpt lat="43.83871522732079029083251953125" lon="4.25432992167770862579345703125">
        <ele>145.399993896484375</ele>
        <time>2024-01-27T10:05:03.000Z</time>
        <extensions>
          <ns3:TrackPointExtension>
            <ns3:hr>159</ns3:hr>
            <ns3:cad>93</ns3:cad>
          </ns3:TrackPointExtension>
        </extensions>
      </trkpt>
      <trkpt lat="43.83874238468706607818603515625" lon="4.25432925112545490264892578125">
        <ele>145.1999969482421875</ele>
        <time>2024-01-27T10:05:04.000Z</time>
        <extensions>
          <ns3:TrackPointExtension>
            <ns3:hr>159</ns3:hr>
            <ns3:cad>93</ns3:cad>
          </ns3:TrackPointExtension>
        </extensions>
      </trkpt>
      <trkpt lat="43.83876618929207324981689453125" lon="4.25432673655450344085693359375">
        <ele>145.1999969482421875</ele>
        <time>2024-01-27T10:05:05.000Z</time>
        <extensions>
          <ns3:TrackPointExtension>
            <ns3:hr>160</ns3:hr>
            <ns3:cad>93</ns3:cad>
          </ns3:TrackPointExtension>
        </extensions>
      </trkpt>
      <trkpt lat="43.83879032917320728302001953125" lon="4.25432690419256687164306640625">
        <ele>145.1999969482421875</ele>
        <time>2024-01-27T10:05:06.000Z</time>
        <extensions>
          <ns3:TrackPointExtension>
            <ns3:hr>160</ns3:hr>
            <ns3:cad>93</ns3:cad>
          </ns3:TrackPointExtension>
        </extensions>
      </trkpt>
      <trkpt lat="43.83881664834916591644287109375" lon="4.2543296702206134796142578125">
        <ele>145.1999969482421875</ele>
        <time>2024-01-27T10:05:07.000Z</time>
        <extensions>
          <ns3:TrackPointExtension>
            <ns3:hr>160</ns3:hr>
            <ns3:cad>93</ns3:cad>
          </ns3:TrackPointExtension>
        </extensions>
      </trkpt>
      <trkpt lat="43.8388410396873950958251953125" lon="4.2543303407728672027587890625">
        <ele>145.1999969482421875</ele>
        <time>2024-01-27T10:05:08.000Z</time>
        <extensions>
          <ns3:TrackPointExtension>
            <ns3:hr>160</ns3:hr>
            <ns3:cad>93</ns3:cad>
          </ns3:TrackPointExtension>
        </extensions>
      </trkpt>
      <trkpt lat="43.838866017758846282958984375" lon="4.25433729775249958038330078125">
        <ele>145.1999969482421875</ele>
        <time>2024-01-27T10:05:09.000Z</time>
        <extensions>
          <ns3:TrackPointExtension>
            <ns3:hr>160</ns3:hr>
            <ns3:cad>93</ns3:cad>
          </ns3:TrackPointExtension>
        </extensions>
      </trkpt>
      <trkpt lat="43.83888890035450458526611328125" lon="4.25434517674148082733154296875">
        <ele>145.1999969482421875</ele>
        <time>2024-01-27T10:05:10.000Z</time>
        <extensions>
          <ns3:TrackPointExtension>
            <ns3:hr>160</ns3:hr>
            <ns3:cad>93</ns3:cad>
          </ns3:TrackPointExtension>
        </extensions>
      </trkpt>
      <trkpt lat="43.8389124535024166107177734375" lon="4.2543531395494937896728515625">
        <ele>145.1999969482421875</ele>
        <time>2024-01-27T10:05:11.000Z</time>
        <extensions>
          <ns3:TrackPointExtension>
            <ns3:hr>160</ns3:hr>
            <ns3:cad>93</ns3:cad>
          </ns3:TrackPointExtension>
        </extensions>
      </trkpt>
      <trkpt lat="43.83893064223229885101318359375" lon="4.2543517984449863433837890625">
        <ele>145.399993896484375</ele>
        <time>2024-01-27T10:05:12.000Z</time>
        <extensions>
          <ns3:TrackPointExtension>
            <ns3:hr>160</ns3:hr>
            <ns3:cad>93</ns3:cad>
          </ns3:TrackPointExtension>
        </extensions>
      </trkpt>
      <trkpt lat="43.8389439694583415985107421875" lon="4.25435557030141353607177734375">
        <ele>145.399993896484375</ele>
        <time>2024-01-27T10:05:13.000Z</time>
        <extensions>
          <ns3:TrackPointExtension>
            <ns3:hr>160</ns3:hr>
            <ns3:cad>93</ns3:cad>
          </ns3:TrackPointExtension>
        </extensions>
      </trkpt>
      <trkpt lat="43.838953189551830291748046875" lon="4.25435959361493587493896484375">
        <ele>145.399993896484375</ele>
        <time>2024-01-27T10:05:14.000Z</time>
        <extensions>
          <ns3:TrackPointExtension>
            <ns3:hr>160</ns3:hr>
            <ns3:cad>93</ns3:cad>
          </ns3:TrackPointExtension>
        </extensions>
      </trkpt>
      <trkpt lat="43.838949836790561676025390625" lon="4.25436814315617084503173828125">
        <ele>145.399993896484375</ele>
        <time>2024-01-27T10:05:15.000Z</time>
        <extensions>
          <ns3:TrackPointExtension>
            <ns3:hr>160</ns3:hr>
            <ns3:cad>91</ns3:cad>
          </ns3:TrackPointExtension>
        </extensions>
      </trkpt>
      <trkpt lat="43.8389453105628490447998046875" lon="4.25436462275683879852294921875">
        <ele>145.600006103515625</ele>
        <time>2024-01-27T10:05:16.000Z</time>
        <extensions>
          <ns3:TrackPointExtension>
            <ns3:hr>160</ns3:hr>
            <ns3:cad>91</ns3:cad>
          </ns3:TrackPointExtension>
        </extensions>
      </trkpt>
      <trkpt lat="43.8390656746923923492431640625" lon="4.2543745972216129302978515625">
        <ele>145.1999969482421875</ele>
        <time>2024-01-27T10:05:28.000Z</time>
        <extensions>
          <ns3:TrackPointExtension>
            <ns3:hr>157</ns3:hr>
            <ns3:cad>0</ns3:cad>
          </ns3:TrackPointExtension>
        </extensions>
      </trkpt>
      <trkpt lat="43.83907883428037166595458984375" lon="4.25437384285032749176025390625">
        <ele>145.1999969482421875</ele>
        <time>2024-01-27T10:05:29.000Z</time>
        <extensions>
          <ns3:TrackPointExtension>
            <ns3:hr>157</ns3:hr>
            <ns3:cad>0</ns3:cad>
          </ns3:TrackPointExtension>
        </extensions>
      </trkpt>
      <trkpt lat="43.8391032256186008453369140625" lon="4.2543742619454860687255859375">
        <ele>145.1999969482421875</ele>
        <time>2024-01-27T10:05:30.000Z</time>
        <extensions>
          <ns3:TrackPointExtension>
            <ns3:hr>157</ns3:hr>
            <ns3:cad>0</ns3:cad>
          </ns3:TrackPointExtension>
        </extensions>
      </trkpt>
      <trkpt lat="43.839128203690052032470703125" lon="4.25436898134648799896240234375">
        <ele>145.1999969482421875</ele>
        <time>2024-01-27T10:05:31.000Z</time>
        <extensions>
          <ns3:TrackPointExtension>
            <ns3:hr>156</ns3:hr>
            <ns3:cad>0</ns3:cad>
          </ns3:TrackPointExtension>
        </extensions>
      </trkpt>
      <trkpt lat="43.83915477432310581207275390625" lon="4.254364706575870513916015625">
        <ele>145.1999969482421875</ele>
        <time>2024-01-27T10:05:32.000Z</time>
        <extensions>
          <ns3:TrackPointExtension>
            <ns3:hr>156</ns3:hr>
            <ns3:cad>0</ns3:cad>
          </ns3:TrackPointExtension>
        </extensions>
      </trkpt>
      <trkpt lat="43.8391810096800327301025390625" lon="4.25435607321560382843017578125">
        <ele>145</ele>
        <time>2024-01-27T10:05:33.000Z</time>
        <extensions>
          <ns3:TrackPointExtension>
            <ns3:hr>156</ns3:hr>
            <ns3:cad>0</ns3:cad>
          </ns3:TrackPointExtension>
        </extensions>
      </trkpt>
      <trkpt lat="43.8392051495611667633056640625" lon="4.25434836186468601226806640625">
        <ele>144.600006103515625</ele>
        <time>2024-01-27T10:05:34.000Z</time>
        <extensions>
          <ns3:TrackPointExtension>
            <ns3:hr>155</ns3:hr>
            <ns3:cad>85</ns3:cad>
          </ns3:TrackPointExtension>
        </extensions>
      </trkpt>
      <trkpt lat="43.83923172019422054290771484375" lon="4.254330508410930633544921875">
        <ele>144</ele>
        <time>2024-01-27T10:05:35.000Z</time>
        <extensions>
          <ns3:TrackPointExtension>
            <ns3:hr>155</ns3:hr>
            <ns3:cad>85</ns3:cad>
          </ns3:TrackPointExtension>
        </extensions>
      </trkpt>
      <trkpt lat="43.83925468660891056060791015625" lon="4.254313074052333831787109375">
        <ele>143.600006103515625</ele>
        <time>2024-01-27T10:05:36.000Z</time>
        <extensions>
          <ns3:TrackPointExtension>
            <ns3:hr>155</ns3:hr>
            <ns3:cad>86</ns3:cad>
          </ns3:TrackPointExtension>
        </extensions>
      </trkpt>
      <trkpt lat="43.839280419051647186279296875" lon="4.25429421477019786834716796875">
        <ele>143.399993896484375</ele>
        <time>2024-01-27T10:05:37.000Z</time>
        <extensions>
          <ns3:TrackPointExtension>
            <ns3:hr>155</ns3:hr>
            <ns3:cad>86</ns3:cad>
          </ns3:TrackPointExtension>
        </extensions>
      </trkpt>
      <trkpt lat="43.839298523962497711181640625" lon="4.2542683146893978118896484375">
        <ele>143.1999969482421875</ele>
        <time>2024-01-27T10:05:38.000Z</time>
        <extensions>
          <ns3:TrackPointExtension>
            <ns3:hr>155</ns3:hr>
            <ns3:cad>86</ns3:cad>
          </ns3:TrackPointExtension>
        </extensions>
      </trkpt>
      <trkpt lat="43.83930799551308155059814453125" lon="4.254238642752170562744140625">
        <ele>142.8000030517578125</ele>
        <time>2024-01-27T10:05:39.000Z</time>
        <extensions>
          <ns3:TrackPointExtension>
            <ns3:hr>155</ns3:hr>
            <ns3:cad>86</ns3:cad>
          </ns3:TrackPointExtension>
        </extensions>
      </trkpt>
      <trkpt lat="43.83931788615882396697998046875" lon="4.25419715233147144317626953125">
        <ele>142.600006103515625</ele>
        <time>2024-01-27T10:05:40.000Z</time>
        <extensions>
          <ns3:TrackPointExtension>
            <ns3:hr>155</ns3:hr>
            <ns3:cad>87</ns3:cad>
          </ns3:TrackPointExtension>
        </extensions>
      </trkpt>
      <trkpt lat="43.83932165801525115966796875" lon="4.254169575870037078857421875">
        <ele>142.600006103515625</ele>
        <time>2024-01-27T10:05:41.000Z</time>
        <extensions>
          <ns3:TrackPointExtension>
            <ns3:hr>154</ns3:hr>
            <ns3:cad>87</ns3:cad>
          </ns3:TrackPointExtension>
        </extensions>
      </trkpt>
      <trkpt lat="43.83932760916650295257568359375" lon="4.2541325278580188751220703125">
        <ele>142.600006103515625</ele>
        <time>2024-01-27T10:05:42.000Z</time>
        <extensions>
          <ns3:TrackPointExtension>
            <ns3:hr>154</ns3:hr>
            <ns3:cad>87</ns3:cad>
          </ns3:TrackPointExtension>
        </extensions>
      </trkpt>
      <trkpt lat="43.839330710470676422119140625" lon="4.2541043646633625030517578125">
        <ele>142.8000030517578125</ele>
        <time>2024-01-27T10:05:43.000Z</time>
        <extensions>
          <ns3:TrackPointExtension>
            <ns3:hr>154</ns3:hr>
            <ns3:cad>88</ns3:cad>
          </ns3:TrackPointExtension>
        </extensions>
      </trkpt>
      <trkpt lat="43.83933062665164470672607421875" lon="4.2540778778493404388427734375">
        <ele>143</ele>
        <time>2024-01-27T10:05:44.000Z</time>
        <extensions>
          <ns3:TrackPointExtension>
            <ns3:hr>155</ns3:hr>
            <ns3:cad>88</ns3:cad>
          </ns3:TrackPointExtension>
        </extensions>
      </trkpt>
      <trkpt lat="43.83932526223361492156982421875" lon="4.2540520615875720977783203125">
        <ele>143.399993896484375</ele>
        <time>2024-01-27T10:05:45.000Z</time>
        <extensions>
          <ns3:TrackPointExtension>
            <ns3:hr>155</ns3:hr>
            <ns3:cad>88</ns3:cad>
          </ns3:TrackPointExtension>
        </extensions>
      </trkpt>
      <trkpt lat="43.83931805379688739776611328125" lon="4.2540279217064380645751953125">
        <ele>143.600006103515625</ele>
        <time>2024-01-27T10:05:46.000Z</time>
        <extensions>
          <ns3:TrackPointExtension>
            <ns3:hr>155</ns3:hr>
            <ns3:cad>86</ns3:cad>
          </ns3:TrackPointExtension>
        </extensions>
      </trkpt>
      <trkpt lat="43.83930732496082782745361328125" lon="4.2540091462433338165283203125">
        <ele>143.8000030517578125</ele>
        <time>2024-01-27T10:05:47.000Z</time>
        <extensions>
          <ns3:TrackPointExtension>
            <ns3:hr>155</ns3:hr>
            <ns3:cad>86</ns3:cad>
          </ns3:TrackPointExtension>
        </extensions>
      </trkpt>
      <trkpt lat="43.83928905241191387176513671875" lon="4.25397436134517192840576171875">
        <ele>144</ele>
        <time>2024-01-27T10:05:48.000Z</time>
        <extensions>
          <ns3:TrackPointExtension>
            <ns3:hr>155</ns3:hr>
            <ns3:cad>86</ns3:cad>
          </ns3:TrackPointExtension>
        </extensions>
      </trkpt>
      <trkpt lat="43.839271701872348785400390625" lon="4.25395977683365345001220703125">
        <ele>144.1999969482421875</ele>
        <time>2024-01-27T10:05:49.000Z</time>
        <extensions>
          <ns3:TrackPointExtension>
            <ns3:hr>155</ns3:hr>
            <ns3:cad>88</ns3:cad>
          </ns3:TrackPointExtension>
        </extensions>
      </trkpt>
      <trkpt lat="43.8392514176666736602783203125" lon="4.253926165401935577392578125">
        <ele>144.600006103515625</ele>
        <time>2024-01-27T10:05:50.000Z</time>
        <extensions>
          <ns3:TrackPointExtension>
            <ns3:hr>155</ns3:hr>
            <ns3:cad>88</ns3:cad>
          </ns3:TrackPointExtension>
        </extensions>
      </trkpt>
      <trkpt lat="43.83923180401325225830078125" lon="4.25390445627272129058837890625">
        <ele>144.8000030517578125</ele>
        <time>2024-01-27T10:05:51.000Z</time>
        <extensions>
          <ns3:TrackPointExtension>
            <ns3:hr>154</ns3:hr>
            <ns3:cad>91</ns3:cad>
          </ns3:TrackPointExtension>
        </extensions>
      </trkpt>
      <trkpt lat="43.83921680040657520294189453125" lon="4.25388182513415813446044921875">
        <ele>145</ele>
        <time>2024-01-27T10:05:52.000Z</time>
        <extensions>
          <ns3:TrackPointExtension>
            <ns3:hr>154</ns3:hr>
            <ns3:cad>92</ns3:cad>
          </ns3:TrackPointExtension>
        </extensions>
      </trkpt>
      <trkpt lat="43.839204311370849609375" lon="4.2538582719862461090087890625">
        <ele>145.1999969482421875</ele>
        <time>2024-01-27T10:05:53.000Z</time>
        <extensions>
          <ns3:TrackPointExtension>
            <ns3:hr>154</ns3:hr>
            <ns3:cad>93</ns3:cad>
          </ns3:TrackPointExtension>
        </extensions>
      </trkpt>
      <trkpt lat="43.83919425308704376220703125" lon="4.253834299743175506591796875">
        <ele>145.399993896484375</ele>
        <time>2024-01-27T10:05:54.000Z</time>
        <extensions>
          <ns3:TrackPointExtension>
            <ns3:hr>153</ns3:hr>
            <ns3:cad>93</ns3:cad>
          </ns3:TrackPointExtension>
        </extensions>
      </trkpt>
      <trkpt lat="43.8391867093741893768310546875" lon="4.2538078129291534423828125">
        <ele>145.600006103515625</ele>
        <time>2024-01-27T10:05:55.000Z</time>
        <extensions>
          <ns3:TrackPointExtension>
            <ns3:hr>153</ns3:hr>
            <ns3:cad>93</ns3:cad>
          </ns3:TrackPointExtension>
        </extensions>
      </trkpt>
      <trkpt lat="43.8391769863665103912353515625" lon="4.25378073938190937042236328125">
        <ele>145.8000030517578125</ele>
        <time>2024-01-27T10:05:56.000Z</time>
        <extensions>
          <ns3:TrackPointExtension>
            <ns3:hr>153</ns3:hr>
            <ns3:cad>93</ns3:cad>
          </ns3:TrackPointExtension>
        </extensions>
      </trkpt>
      <trkpt lat="43.83916382677853107452392578125" lon="4.25374939106404781341552734375">
        <ele>146</ele>
        <time>2024-01-27T10:05:57.000Z</time>
        <extensions>
          <ns3:TrackPointExtension>
            <ns3:hr>153</ns3:hr>
            <ns3:cad>92</ns3:cad>
          </ns3:TrackPointExtension>
        </extensions>
      </trkpt>
      <trkpt lat="43.83915158919990062713623046875" lon="4.25373028032481670379638671875">
        <ele>146.1999969482421875</ele>
        <time>2024-01-27T10:05:58.000Z</time>
        <extensions>
          <ns3:TrackPointExtension>
            <ns3:hr>153</ns3:hr>
            <ns3:cad>92</ns3:cad>
          </ns3:TrackPointExtension>
        </extensions>
      </trkpt>
      <trkpt lat="43.839128203690052032470703125" lon="4.25370697863399982452392578125">
        <ele>146.399993896484375</ele>
        <time>2024-01-27T10:05:59.000Z</time>
        <extensions>
          <ns3:TrackPointExtension>
            <ns3:hr>153</ns3:hr>
            <ns3:cad>92</ns3:cad>
          </ns3:TrackPointExtension>
        </extensions>
      </trkpt>
      <trkpt lat="43.8391136191785335540771484375" lon="4.25369390286505222320556640625">
        <ele>146.600006103515625</ele>
        <time>2024-01-27T10:06:00.000Z</time>
        <extensions>
          <ns3:TrackPointExtension>
            <ns3:hr>154</ns3:hr>
            <ns3:cad>92</ns3:cad>
          </ns3:TrackPointExtension>
        </extensions>
      </trkpt>
      <trkpt lat="43.83909123949706554412841796875" lon="4.25366724841296672821044921875">
        <ele>146.600006103515625</ele>
        <time>2024-01-27T10:06:01.000Z</time>
        <extensions>
          <ns3:TrackPointExtension>
            <ns3:hr>154</ns3:hr>
            <ns3:cad>92</ns3:cad>
          </ns3:TrackPointExtension>
        </extensions>
      </trkpt>
      <trkpt lat="43.83907380513846874237060546875" lon="4.25364889204502105712890625">
        <ele>146.600006103515625</ele>
        <time>2024-01-27T10:06:02.000Z</time>
        <extensions>
          <ns3:TrackPointExtension>
            <ns3:hr>154</ns3:hr>
            <ns3:cad>92</ns3:cad>
          </ns3:TrackPointExtension>
        </extensions>
      </trkpt>
      <trkpt lat="43.83905603550374507904052734375" lon="4.25362433306872844696044921875">
        <ele>146.600006103515625</ele>
        <time>2024-01-27T10:06:03.000Z</time>
        <extensions>
          <ns3:TrackPointExtension>
            <ns3:hr>155</ns3:hr>
            <ns3:cad>92</ns3:cad>
          </ns3:TrackPointExtension>
        </extensions>
      </trkpt>
      <trkpt lat="43.8390393555164337158203125" lon="4.2536054737865924835205078125">
        <ele>146.600006103515625</ele>
        <time>2024-01-27T10:06:04.000Z</time>
        <extensions>
          <ns3:TrackPointExtension>
            <ns3:hr>155</ns3:hr>
            <ns3:cad>92</ns3:cad>
          </ns3:TrackPointExtension>
        </extensions>
      </trkpt>
      <trkpt lat="43.83902284316718578338623046875" lon="4.25357379019260406494140625">
        <ele>146.600006103515625</ele>
        <time>2024-01-27T10:06:05.000Z</time>
        <extensions>
          <ns3:TrackPointExtension>
            <ns3:hr>155</ns3:hr>
            <ns3:cad>90</ns3:cad>
          </ns3:TrackPointExtension>
        </extensions>
      </trkpt>
      <trkpt lat="43.83900842629373073577880859375" lon="4.2535481415688991546630859375">
        <ele>146.399993896484375</ele>
        <time>2024-01-27T10:06:06.000Z</time>
        <extensions>
          <ns3:TrackPointExtension>
            <ns3:hr>155</ns3:hr>
            <ns3:cad>90</ns3:cad>
          </ns3:TrackPointExtension>
        </extensions>
      </trkpt>
      <trkpt lat="43.838993422687053680419921875" lon="4.2535109259188175201416015625">
        <ele>146.399993896484375</ele>
        <time>2024-01-27T10:06:07.000Z</time>
        <extensions>
          <ns3:TrackPointExtension>
            <ns3:hr>155</ns3:hr>
            <ns3:cad>92</ns3:cad>
          </ns3:TrackPointExtension>
        </extensions>
      </trkpt>
      <trkpt lat="43.8389811851084232330322265625" lon="4.2534844391047954559326171875">
        <ele>146.399993896484375</ele>
        <time>2024-01-27T10:06:08.000Z</time>
        <extensions>
          <ns3:TrackPointExtension>
            <ns3:hr>155</ns3:hr>
            <ns3:cad>92</ns3:cad>
          </ns3:TrackPointExtension>
        </extensions>
      </trkpt>
      <trkpt lat="43.83897054009139537811279296875" lon="4.2534482292830944061279296875">
        <ele>146.1999969482421875</ele>
        <time>2024-01-27T10:06:09.000Z</time>
        <extensions>
          <ns3:TrackPointExtension>
            <ns3:hr>155</ns3:hr>
            <ns3:cad>91</ns3:cad>
          </ns3:TrackPointExtension>
        </extensions>
      </trkpt>
      <trkpt lat="43.83895763196051120758056640625" lon="4.25341998226940631866455078125">
        <ele>146.1999969482421875</ele>
        <time>2024-01-27T10:06:10.000Z</time>
        <extensions>
          <ns3:TrackPointExtension>
            <ns3:hr>155</ns3:hr>
            <ns3:cad>91</ns3:cad>
          </ns3:TrackPointExtension>
        </extensions>
      </trkpt>
      <trkpt lat="43.83895159699022769927978515625" lon="4.25337790511548519134521484375">
        <ele>146.1999969482421875</ele>
        <time>2024-01-27T10:06:11.000Z</time>
        <extensions>
          <ns3:TrackPointExtension>
            <ns3:hr>155</ns3:hr>
            <ns3:cad>92</ns3:cad>
          </ns3:TrackPointExtension>
        </extensions>
      </trkpt>
      <trkpt lat="43.8389489986002445220947265625" lon="4.2533483169972896575927734375">
        <ele>146.1999969482421875</ele>
        <time>2024-01-27T10:06:12.000Z</time>
        <extensions>
          <ns3:TrackPointExtension>
            <ns3:hr>155</ns3:hr>
            <ns3:cad>92</ns3:cad>
          </ns3:TrackPointExtension>
        </extensions>
      </trkpt>
      <trkpt lat="43.8389550335705280303955078125" lon="4.2533124424517154693603515625">
        <ele>146.1999969482421875</ele>
        <time>2024-01-27T10:06:13.000Z</time>
        <extensions>
          <ns3:TrackPointExtension>
            <ns3:hr>156</ns3:hr>
            <ns3:cad>92</ns3:cad>
          </ns3:TrackPointExtension>
        </extensions>
      </trkpt>
      <trkpt lat="43.8389724679291248321533203125" lon="4.25328218378126621246337890625">
        <ele>146.1999969482421875</ele>
        <time>2024-01-27T10:06:14.000Z</time>
        <extensions>
          <ns3:TrackPointExtension>
            <ns3:hr>156</ns3:hr>
            <ns3:cad>92</ns3:cad>
          </ns3:TrackPointExtension>
        </extensions>
      </trkpt>
      <trkpt lat="43.838987052440643310546875" lon="4.2532500810921192169189453125">
        <ele>146.399993896484375</ele>
        <time>2024-01-27T10:06:15.000Z</time>
        <extensions>
          <ns3:TrackPointExtension>
            <ns3:hr>156</ns3:hr>
            <ns3:cad>91</ns3:cad>
          </ns3:TrackPointExtension>
        </extensions>
      </trkpt>
      <trkpt lat="43.8390059955418109893798828125" lon="4.2532219178974628448486328125">
        <ele>146.600006103515625</ele>
        <time>2024-01-27T10:06:16.000Z</time>
        <extensions>
          <ns3:TrackPointExtension>
            <ns3:hr>157</ns3:hr>
            <ns3:cad>91</ns3:cad>
          </ns3:TrackPointExtension>
        </extensions>
      </trkpt>
      <trkpt lat="43.83902636356651782989501953125" lon="4.25320423208177089691162109375">
        <ele>146.600006103515625</ele>
        <time>2024-01-27T10:06:17.000Z</time>
        <extensions>
          <ns3:TrackPointExtension>
            <ns3:hr>157</ns3:hr>
            <ns3:cad>92</ns3:cad>
          </ns3:TrackPointExtension>
        </extensions>
      </trkpt>
      <trkpt lat="43.8390442170202732086181640625" lon="4.25318730063736438751220703125">
        <ele>146.8000030517578125</ele>
        <time>2024-01-27T10:06:18.000Z</time>
        <extensions>
          <ns3:TrackPointExtension>
            <ns3:hr>157</ns3:hr>
            <ns3:cad>93</ns3:cad>
          </ns3:TrackPointExtension>
        </extensions>
      </trkpt>
      <trkpt lat="43.83906659670174121856689453125" lon="4.25317816436290740966796875">
        <ele>147</ele>
        <time>2024-01-27T10:06:19.000Z</time>
        <extensions>
          <ns3:TrackPointExtension>
            <ns3:hr>158</ns3:hr>
            <ns3:cad>92</ns3:cad>
          </ns3:TrackPointExtension>
        </extensions>
      </trkpt>
      <trkpt lat="43.83908436633646488189697265625" lon="4.253165088593959808349609375">
        <ele>147</ele>
        <time>2024-01-27T10:06:20.000Z</time>
        <extensions>
          <ns3:TrackPointExtension>
            <ns3:hr>158</ns3:hr>
            <ns3:cad>91</ns3:cad>
          </ns3:TrackPointExtension>
        </extensions>
      </trkpt>
      <trkpt lat="43.83910238742828369140625" lon="4.25314941443502902984619140625">
        <ele>147.1999969482421875</ele>
        <time>2024-01-27T10:06:21.000Z</time>
        <extensions>
          <ns3:TrackPointExtension>
            <ns3:hr>158</ns3:hr>
            <ns3:cad>91</ns3:cad>
          </ns3:TrackPointExtension>
        </extensions>
      </trkpt>
      <trkpt lat="43.8391223363578319549560546875" lon="4.25313114188611507415771484375">
        <ele>147.600006103515625</ele>
        <time>2024-01-27T10:06:22.000Z</time>
        <extensions>
          <ns3:TrackPointExtension>
            <ns3:hr>158</ns3:hr>
            <ns3:cad>89</ns3:cad>
          </ns3:TrackPointExtension>
        </extensions>
      </trkpt>
      <trkpt lat="43.839141614735126495361328125" lon="4.25311622209846973419189453125">
        <ele>147.8000030517578125</ele>
        <time>2024-01-27T10:06:23.000Z</time>
        <extensions>
          <ns3:TrackPointExtension>
            <ns3:hr>158</ns3:hr>
            <ns3:cad>89</ns3:cad>
          </ns3:TrackPointExtension>
        </extensions>
      </trkpt>
      <trkpt lat="43.83915980346500873565673828125" lon="4.25310180522501468658447265625">
        <ele>147.8000030517578125</ele>
        <time>2024-01-27T10:06:24.000Z</time>
        <extensions>
          <ns3:TrackPointExtension>
            <ns3:hr>159</ns3:hr>
            <ns3:cad>89</ns3:cad>
          </ns3:TrackPointExtension>
        </extensions>
      </trkpt>
      <trkpt lat="43.8391732983291149139404296875" lon="4.25309526734054088592529296875">
        <ele>147.8000030517578125</ele>
        <time>2024-01-27T10:06:25.000Z</time>
        <extensions>
          <ns3:TrackPointExtension>
            <ns3:hr>159</ns3:hr>
            <ns3:cad>91</ns3:cad>
          </ns3:TrackPointExtension>
        </extensions>
      </trkpt>
      <trkpt lat="43.83919534273445606231689453125" lon="4.25308453850448131561279296875">
        <ele>148</ele>
        <time>2024-01-27T10:06:26.000Z</time>
        <extensions>
          <ns3:TrackPointExtension>
            <ns3:hr>159</ns3:hr>
            <ns3:cad>92</ns3:cad>
          </ns3:TrackPointExtension>
        </extensions>
      </trkpt>
      <trkpt lat="43.83921378292143344879150390625" lon="4.253073222935199737548828125">
        <ele>148</ele>
        <time>2024-01-27T10:06:27.000Z</time>
        <extensions>
          <ns3:TrackPointExtension>
            <ns3:hr>159</ns3:hr>
            <ns3:cad>92</ns3:cad>
          </ns3:TrackPointExtension>
        </extensions>
      </trkpt>
      <trkpt lat="43.83923423476517200469970703125" lon="4.2530599795281887054443359375">
        <ele>148.399993896484375</ele>
        <time>2024-01-27T10:06:28.000Z</time>
        <extensions>
          <ns3:TrackPointExtension>
            <ns3:hr>159</ns3:hr>
            <ns3:cad>92</ns3:cad>
          </ns3:TrackPointExtension>
        </extensions>
      </trkpt>
      <trkpt lat="43.839250914752483367919921875" lon="4.2530435509979724884033203125">
        <ele>148.600006103515625</ele>
        <time>2024-01-27T10:06:29.000Z</time>
        <extensions>
          <ns3:TrackPointExtension>
            <ns3:hr>159</ns3:hr>
            <ns3:cad>92</ns3:cad>
          </ns3:TrackPointExtension>
        </extensions>
      </trkpt>
      <trkpt lat="43.8392691873013973236083984375" lon="4.253020249307155609130859375">
        <ele>148.8000030517578125</ele>
        <time>2024-01-27T10:06:30.000Z</time>
        <extensions>
          <ns3:TrackPointExtension>
            <ns3:hr>159</ns3:hr>
            <ns3:cad>92</ns3:cad>
          </ns3:TrackPointExtension>
        </extensions>
      </trkpt>
      <trkpt lat="43.83928251452744007110595703125" lon="4.253002144396305084228515625">
        <ele>149</ele>
        <time>2024-01-27T10:06:31.000Z</time>
        <extensions>
          <ns3:TrackPointExtension>
            <ns3:hr>159</ns3:hr>
            <ns3:cad>92</ns3:cad>
          </ns3:TrackPointExtension>
        </extensions>
      </trkpt>
      <trkpt lat="43.8393022119998931884765625" lon="4.25298043526709079742431640625">
        <ele>149</ele>
        <time>2024-01-27T10:06:32.000Z</time>
        <extensions>
          <ns3:TrackPointExtension>
            <ns3:hr>159</ns3:hr>
            <ns3:cad>92</ns3:cad>
          </ns3:TrackPointExtension>
        </extensions>
      </trkpt>
      <trkpt lat="43.83931570686399936676025390625" lon="4.25296199508011341094970703125">
        <ele>149.1999969482421875</ele>
        <time>2024-01-27T10:06:33.000Z</time>
        <extensions>
          <ns3:TrackPointExtension>
            <ns3:hr>159</ns3:hr>
            <ns3:cad>92</ns3:cad>
          </ns3:TrackPointExtension>
        </extensions>
      </trkpt>
      <trkpt lat="43.83933448232710361480712890625" lon="4.252947829663753509521484375">
        <ele>149.399993896484375</ele>
        <time>2024-01-27T10:06:34.000Z</time>
        <extensions>
          <ns3:TrackPointExtension>
            <ns3:hr>160</ns3:hr>
            <ns3:cad>92</ns3:cad>
          </ns3:TrackPointExtension>
        </extensions>
      </trkpt>
      <trkpt lat="43.839351497590541839599609375" lon="4.252934753894805908203125">
        <ele>149.600006103515625</ele>
        <time>2024-01-27T10:06:35.000Z</time>
        <extensions>
          <ns3:TrackPointExtension>
            <ns3:hr>160</ns3:hr>
            <ns3:cad>92</ns3:cad>
          </ns3:TrackPointExtension>
        </extensions>
      </trkpt>
      <trkpt lat="43.839372955262660980224609375" lon="4.25292058847844600677490234375">
        <ele>149.8000030517578125</ele>
        <time>2024-01-27T10:06:36.000Z</time>
        <extensions>
          <ns3:TrackPointExtension>
            <ns3:hr>160</ns3:hr>
            <ns3:cad>92</ns3:cad>
          </ns3:TrackPointExtension>
        </extensions>
      </trkpt>
      <trkpt lat="43.83939214982092380523681640625" lon="4.252906255424022674560546875">
        <ele>150</ele>
        <time>2024-01-27T10:06:37.000Z</time>
        <extensions>
          <ns3:TrackPointExtension>
            <ns3:hr>160</ns3:hr>
            <ns3:cad>92</ns3:cad>
          </ns3:TrackPointExtension>
        </extensions>
      </trkpt>
      <trkpt lat="43.83941209875047206878662109375" lon="4.25289385020732879638671875">
        <ele>150</ele>
        <time>2024-01-27T10:06:38.000Z</time>
        <extensions>
          <ns3:TrackPointExtension>
            <ns3:hr>160</ns3:hr>
            <ns3:cad>90</ns3:cad>
          </ns3:TrackPointExtension>
        </extensions>
      </trkpt>
      <trkpt lat="43.83943288587033748626708984375" lon="4.25288178026676177978515625">
        <ele>150.1999969482421875</ele>
        <time>2024-01-27T10:06:39.000Z</time>
        <extensions>
          <ns3:TrackPointExtension>
            <ns3:hr>160</ns3:hr>
            <ns3:cad>90</ns3:cad>
          </ns3:TrackPointExtension>
        </extensions>
      </trkpt>
      <trkpt lat="43.8394539244472980499267578125" lon="4.25287348218262195587158203125">
        <ele>150.1999969482421875</ele>
        <time>2024-01-27T10:06:40.000Z</time>
        <extensions>
          <ns3:TrackPointExtension>
            <ns3:hr>160</ns3:hr>
            <ns3:cad>91</ns3:cad>
          </ns3:TrackPointExtension>
        </extensions>
      </trkpt>
      <trkpt lat="43.8394750468432903289794921875" lon="4.25286275334656238555908203125">
        <ele>150.600006103515625</ele>
        <time>2024-01-27T10:06:41.000Z</time>
        <extensions>
          <ns3:TrackPointExtension>
            <ns3:hr>160</ns3:hr>
            <ns3:cad>92</ns3:cad>
          </ns3:TrackPointExtension>
        </extensions>
      </trkpt>
      <trkpt lat="43.8394938223063945770263671875" lon="4.25285227596759796142578125">
        <ele>150.8000030517578125</ele>
        <time>2024-01-27T10:06:42.000Z</time>
        <extensions>
          <ns3:TrackPointExtension>
            <ns3:hr>160</ns3:hr>
            <ns3:cad>92</ns3:cad>
          </ns3:TrackPointExtension>
        </extensions>
      </trkpt>
      <trkpt lat="43.839514441788196563720703125" lon="4.25283844582736492156982421875">
        <ele>150.8000030517578125</ele>
        <time>2024-01-27T10:06:43.000Z</time>
        <extensions>
          <ns3:TrackPointExtension>
            <ns3:hr>161</ns3:hr>
            <ns3:cad>92</ns3:cad>
          </ns3:TrackPointExtension>
        </extensions>
      </trkpt>
      <trkpt lat="43.83953279815614223480224609375" lon="4.2528259567916393280029296875">
        <ele>151</ele>
        <time>2024-01-27T10:06:44.000Z</time>
        <extensions>
          <ns3:TrackPointExtension>
            <ns3:hr>161</ns3:hr>
            <ns3:cad>92</ns3:cad>
          </ns3:TrackPointExtension>
        </extensions>
      </trkpt>
      <trkpt lat="43.83955542929470539093017578125" lon="4.25280877389013767242431640625">
        <ele>151.1999969482421875</ele>
        <time>2024-01-27T10:06:45.000Z</time>
        <extensions>
          <ns3:TrackPointExtension>
            <ns3:hr>161</ns3:hr>
            <ns3:cad>93</ns3:cad>
          </ns3:TrackPointExtension>
        </extensions>
      </trkpt>
      <trkpt lat="43.83957454003393650054931640625" lon="4.25279234535992145538330078125">
        <ele>151.1999969482421875</ele>
        <time>2024-01-27T10:06:46.000Z</time>
        <extensions>
          <ns3:TrackPointExtension>
            <ns3:hr>162</ns3:hr>
            <ns3:cad>93</ns3:cad>
          </ns3:TrackPointExtension>
        </extensions>
      </trkpt>
      <trkpt lat="43.83959767408668994903564453125" lon="4.25278178416192531585693359375">
        <ele>151.399993896484375</ele>
        <time>2024-01-27T10:06:47.000Z</time>
        <extensions>
          <ns3:TrackPointExtension>
            <ns3:hr>162</ns3:hr>
            <ns3:cad>93</ns3:cad>
          </ns3:TrackPointExtension>
        </extensions>
      </trkpt>
      <trkpt lat="43.8396155275404453277587890625" lon="4.252768792212009429931640625">
        <ele>151.600006103515625</ele>
        <time>2024-01-27T10:06:48.000Z</time>
        <extensions>
          <ns3:TrackPointExtension>
            <ns3:hr>162</ns3:hr>
            <ns3:cad>93</ns3:cad>
          </ns3:TrackPointExtension>
        </extensions>
      </trkpt>
      <trkpt lat="43.8396366499364376068115234375" lon="4.2527552135288715362548828125">
        <ele>151.8000030517578125</ele>
        <time>2024-01-27T10:06:49.000Z</time>
        <extensions>
          <ns3:TrackPointExtension>
            <ns3:hr>162</ns3:hr>
            <ns3:cad>92</ns3:cad>
          </ns3:TrackPointExtension>
        </extensions>
      </trkpt>
      <trkpt lat="43.83965467102825641632080078125" lon="4.2527418024837970733642578125">
        <ele>152</ele>
        <time>2024-01-27T10:06:50.000Z</time>
        <extensions>
          <ns3:TrackPointExtension>
            <ns3:hr>162</ns3:hr>
            <ns3:cad>92</ns3:cad>
          </ns3:TrackPointExtension>
        </extensions>
      </trkpt>
      <trkpt lat="43.83967562578618526458740234375" lon="4.25272746942937374114990234375">
        <ele>152.1999969482421875</ele>
        <time>2024-01-27T10:06:51.000Z</time>
        <extensions>
          <ns3:TrackPointExtension>
            <ns3:hr>162</ns3:hr>
            <ns3:cad>92</ns3:cad>
          </ns3:TrackPointExtension>
        </extensions>
      </trkpt>
      <trkpt lat="43.83969758637249469757080078125" lon="4.2527136392891407012939453125">
        <ele>152.1999969482421875</ele>
        <time>2024-01-27T10:06:52.000Z</time>
        <extensions>
          <ns3:TrackPointExtension>
            <ns3:hr>162</ns3:hr>
            <ns3:cad>92</ns3:cad>
          </ns3:TrackPointExtension>
        </extensions>
      </trkpt>
      <trkpt lat="43.8397181220352649688720703125" lon="4.25270400010049343109130859375">
        <ele>152.399993896484375</ele>
        <time>2024-01-27T10:06:53.000Z</time>
        <extensions>
          <ns3:TrackPointExtension>
            <ns3:hr>163</ns3:hr>
            <ns3:cad>92</ns3:cad>
          </ns3:TrackPointExtension>
        </extensions>
      </trkpt>
      <trkpt lat="43.83973547257483005523681640625" lon="4.25268690101802349090576171875">
        <ele>152.399993896484375</ele>
        <time>2024-01-27T10:06:54.000Z</time>
        <extensions>
          <ns3:TrackPointExtension>
            <ns3:hr>163</ns3:hr>
            <ns3:cad>92</ns3:cad>
          </ns3:TrackPointExtension>
        </extensions>
      </trkpt>
      <trkpt lat="43.83975324220955371856689453125" lon="4.25267147831618785858154296875">
        <ele>152.600006103515625</ele>
        <time>2024-01-27T10:06:55.000Z</time>
        <extensions>
          <ns3:TrackPointExtension>
            <ns3:hr>163</ns3:hr>
            <ns3:cad>92</ns3:cad>
          </ns3:TrackPointExtension>
        </extensions>
      </trkpt>
      <trkpt lat="43.8397684134542942047119140625" lon="4.25265253521502017974853515625">
        <ele>152.8000030517578125</ele>
        <time>2024-01-27T10:06:56.000Z</time>
        <extensions>
          <ns3:TrackPointExtension>
            <ns3:hr>163</ns3:hr>
            <ns3:cad>92</ns3:cad>
          </ns3:TrackPointExtension>
        </extensions>
      </trkpt>
      <trkpt lat="43.83977805264294147491455078125" lon="4.2526314966380596160888671875">
        <ele>153</ele>
        <time>2024-01-27T10:06:57.000Z</time>
        <extensions>
          <ns3:TrackPointExtension>
            <ns3:hr>163</ns3:hr>
            <ns3:cad>92</ns3:cad>
          </ns3:TrackPointExtension>
        </extensions>
      </trkpt>
      <trkpt lat="43.839784674346446990966796875" lon="4.25260090269148349761962890625">
        <ele>153.1999969482421875</ele>
        <time>2024-01-27T10:06:58.000Z</time>
        <extensions>
          <ns3:TrackPointExtension>
            <ns3:hr>163</ns3:hr>
            <ns3:cad>90</ns3:cad>
          </ns3:TrackPointExtension>
        </extensions>
      </trkpt>
      <trkpt lat="43.83979112841188907623291015625" lon="4.25257223658263683319091796875">
        <ele>153.399993896484375</ele>
        <time>2024-01-27T10:06:59.000Z</time>
        <extensions>
          <ns3:TrackPointExtension>
            <ns3:hr>162</ns3:hr>
            <ns3:cad>90</ns3:cad>
          </ns3:TrackPointExtension>
        </extensions>
      </trkpt>
      <trkpt lat="43.8397850096225738525390625" lon="4.2525312490761280059814453125">
        <ele>153.600006103515625</ele>
        <time>2024-01-27T10:07:00.000Z</time>
        <extensions>
          <ns3:TrackPointExtension>
            <ns3:hr>162</ns3:hr>
            <ns3:cad>92</ns3:cad>
          </ns3:TrackPointExtension>
        </extensions>
      </trkpt>
      <trkpt lat="43.839785344898700714111328125" lon="4.252504594624042510986328125">
        <ele>153.600006103515625</ele>
        <time>2024-01-27T10:07:01.000Z</time>
        <extensions>
          <ns3:TrackPointExtension>
            <ns3:hr>162</ns3:hr>
            <ns3:cad>93</ns3:cad>
          </ns3:TrackPointExtension>
        </extensions>
      </trkpt>
      <trkpt lat="43.83978928439319133758544921875" lon="4.252473413944244384765625">
        <ele>153.600006103515625</ele>
        <time>2024-01-27T10:07:02.000Z</time>
        <extensions>
          <ns3:TrackPointExtension>
            <ns3:hr>162</ns3:hr>
            <ns3:cad>93</ns3:cad>
          </ns3:TrackPointExtension>
        </extensions>
      </trkpt>
      <trkpt lat="43.8397925533354282379150390625" lon="4.25244860351085662841796875">
        <ele>153.8000030517578125</ele>
        <time>2024-01-27T10:07:03.000Z</time>
        <extensions>
          <ns3:TrackPointExtension>
            <ns3:hr>162</ns3:hr>
            <ns3:cad>92</ns3:cad>
          </ns3:TrackPointExtension>
        </extensions>
      </trkpt>
      <trkpt lat="43.83979372680187225341796875" lon="4.25241247750818729400634765625">
        <ele>153.8000030517578125</ele>
        <time>2024-01-27T10:07:04.000Z</time>
        <extensions>
          <ns3:TrackPointExtension>
            <ns3:hr>162</ns3:hr>
            <ns3:cad>92</ns3:cad>
          </ns3:TrackPointExtension>
        </extensions>
      </trkpt>
      <trkpt lat="43.8397935591638088226318359375" lon="4.25238498486578464508056640625">
        <ele>153.8000030517578125</ele>
        <time>2024-01-27T10:07:05.000Z</time>
        <extensions>
          <ns3:TrackPointExtension>
            <ns3:hr>162</ns3:hr>
            <ns3:cad>92</ns3:cad>
          </ns3:TrackPointExtension>
        </extensions>
      </trkpt>
      <trkpt lat="43.8397938944399356842041015625" lon="4.25234726630151271820068359375">
        <ele>154</ele>
        <time>2024-01-27T10:07:06.000Z</time>
        <extensions>
          <ns3:TrackPointExtension>
            <ns3:hr>162</ns3:hr>
            <ns3:cad>92</ns3:cad>
          </ns3:TrackPointExtension>
        </extensions>
      </trkpt>
      <trkpt lat="43.83979079313576221466064453125" lon="4.25232145003974437713623046875">
        <ele>154</ele>
        <time>2024-01-27T10:07:07.000Z</time>
        <extensions>
          <ns3:TrackPointExtension>
            <ns3:hr>162</ns3:hr>
            <ns3:cad>92</ns3:cad>
          </ns3:TrackPointExtension>
        </extensions>
      </trkpt>
      <trkpt lat="43.83978995494544506072998046875" lon="4.2522851563990116119384765625">
        <ele>154</ele>
        <time>2024-01-27T10:07:08.000Z</time>
        <extensions>
          <ns3:TrackPointExtension>
            <ns3:hr>162</ns3:hr>
            <ns3:cad>92</ns3:cad>
          </ns3:TrackPointExtension>
        </extensions>
      </trkpt>
      <trkpt lat="43.83978794328868389129638671875" lon="4.25225280225276947021484375">
        <ele>154</ele>
        <time>2024-01-27T10:07:09.000Z</time>
        <extensions>
          <ns3:TrackPointExtension>
            <ns3:hr>162</ns3:hr>
            <ns3:cad>92</ns3:cad>
          </ns3:TrackPointExtension>
        </extensions>
      </trkpt>
      <trkpt lat="43.8397922180593013763427734375" lon="4.25222170539200305938720703125">
        <ele>154.1999969482421875</ele>
        <time>2024-01-27T10:07:10.000Z</time>
        <extensions>
          <ns3:TrackPointExtension>
            <ns3:hr>162</ns3:hr>
            <ns3:cad>92</ns3:cad>
          </ns3:TrackPointExtension>
        </extensions>
      </trkpt>
      <trkpt lat="43.83978945203125476837158203125" lon="4.25218784250319004058837890625">
        <ele>154</ele>
        <time>2024-01-27T10:07:11.000Z</time>
        <extensions>
          <ns3:TrackPointExtension>
            <ns3:hr>162</ns3:hr>
            <ns3:cad>92</ns3:cad>
          </ns3:TrackPointExtension>
        </extensions>
      </trkpt>
      <trkpt lat="43.839787356555461883544921875" lon="4.25215012393891811370849609375">
        <ele>154.1999969482421875</ele>
        <time>2024-01-27T10:07:12.000Z</time>
        <extensions>
          <ns3:TrackPointExtension>
            <ns3:hr>162</ns3:hr>
            <ns3:cad>92</ns3:cad>
          </ns3:TrackPointExtension>
        </extensions>
      </trkpt>
      <trkpt lat="43.8397828303277492523193359375" lon="4.25211357884109020233154296875">
        <ele>154.1999969482421875</ele>
        <time>2024-01-27T10:07:13.000Z</time>
        <extensions>
          <ns3:TrackPointExtension>
            <ns3:hr>162</ns3:hr>
            <ns3:cad>92</ns3:cad>
          </ns3:TrackPointExtension>
        </extensions>
      </trkpt>
      <trkpt lat="43.83977604098618030548095703125" lon="4.25208139233291149139404296875">
        <ele>154.1999969482421875</ele>
        <time>2024-01-27T10:07:14.000Z</time>
        <extensions>
          <ns3:TrackPointExtension>
            <ns3:hr>162</ns3:hr>
            <ns3:cad>91</ns3:cad>
          </ns3:TrackPointExtension>
        </extensions>
      </trkpt>
      <trkpt lat="43.83976665325462818145751953125" lon="4.25204082392156124114990234375">
        <ele>154.1999969482421875</ele>
        <time>2024-01-27T10:07:15.000Z</time>
        <extensions>
          <ns3:TrackPointExtension>
            <ns3:hr>162</ns3:hr>
            <ns3:cad>91</ns3:cad>
          </ns3:TrackPointExtension>
        </extensions>
      </trkpt>
      <trkpt lat="43.83975751698017120361328125" lon="4.2520135827362537384033203125">
        <ele>154.1999969482421875</ele>
        <time>2024-01-27T10:07:16.000Z</time>
        <extensions>
          <ns3:TrackPointExtension>
            <ns3:hr>162</ns3:hr>
            <ns3:cad>91</ns3:cad>
          </ns3:TrackPointExtension>
        </extensions>
      </trkpt>
      <trkpt lat="43.8397499732673168182373046875" lon="4.251976199448108673095703125">
        <ele>154.399993896484375</ele>
        <time>2024-01-27T10:07:17.000Z</time>
        <extensions>
          <ns3:TrackPointExtension>
            <ns3:hr>162</ns3:hr>
            <ns3:cad>92</ns3:cad>
          </ns3:TrackPointExtension>
        </extensions>
      </trkpt>
      <trkpt lat="43.83974335156381130218505859375" lon="4.2519512213766574859619140625">
        <ele>154.399993896484375</ele>
        <time>2024-01-27T10:07:18.000Z</time>
        <extensions>
          <ns3:TrackPointExtension>
            <ns3:hr>162</ns3:hr>
            <ns3:cad>93</ns3:cad>
          </ns3:TrackPointExtension>
        </extensions>
      </trkpt>
      <trkpt lat="43.83973874151706695556640625" lon="4.25191258080303668975830078125">
        <ele>154.399993896484375</ele>
        <time>2024-01-27T10:07:19.000Z</time>
        <extensions>
          <ns3:TrackPointExtension>
            <ns3:hr>162</ns3:hr>
            <ns3:cad>93</ns3:cad>
          </ns3:TrackPointExtension>
        </extensions>
      </trkpt>
      <trkpt lat="43.8397325389087200164794921875" lon="4.25188508816063404083251953125">
        <ele>154.399993896484375</ele>
        <time>2024-01-27T10:07:20.000Z</time>
        <extensions>
          <ns3:TrackPointExtension>
            <ns3:hr>162</ns3:hr>
            <ns3:cad>93</ns3:cad>
          </ns3:TrackPointExtension>
        </extensions>
      </trkpt>
      <trkpt lat="43.8397298566997051239013671875" lon="4.2518449388444423675537109375">
        <ele>154.600006103515625</ele>
        <time>2024-01-27T10:07:21.000Z</time>
        <extensions>
          <ns3:TrackPointExtension>
            <ns3:hr>162</ns3:hr>
            <ns3:cad>93</ns3:cad>
          </ns3:TrackPointExtension>
        </extensions>
      </trkpt>
      <trkpt lat="43.83972130715847015380859375" lon="4.25181853584945201873779296875">
        <ele>154.600006103515625</ele>
        <time>2024-01-27T10:07:22.000Z</time>
        <extensions>
          <ns3:TrackPointExtension>
            <ns3:hr>161</ns3:hr>
            <ns3:cad>92</ns3:cad>
          </ns3:TrackPointExtension>
        </extensions>
      </trkpt>
      <trkpt lat="43.8397177867591381072998046875" lon="4.25177562050521373748779296875">
        <ele>154.600006103515625</ele>
        <time>2024-01-27T10:07:23.000Z</time>
        <extensions>
          <ns3:TrackPointExtension>
            <ns3:hr>161</ns3:hr>
            <ns3:cad>92</ns3:cad>
          </ns3:TrackPointExtension>
        </extensions>
      </trkpt>
      <trkpt lat="43.83970965631306171417236328125" lon="4.2517456971108913421630859375">
        <ele>154.600006103515625</ele>
        <time>2024-01-27T10:07:24.000Z</time>
        <extensions>
          <ns3:TrackPointExtension>
            <ns3:hr>161</ns3:hr>
            <ns3:cad>92</ns3:cad>
          </ns3:TrackPointExtension>
        </extensions>
      </trkpt>
      <trkpt lat="43.8397045433521270751953125" lon="4.2517111636698246002197265625">
        <ele>154.8000030517578125</ele>
        <time>2024-01-27T10:07:25.000Z</time>
        <extensions>
          <ns3:TrackPointExtension>
            <ns3:hr>161</ns3:hr>
            <ns3:cad>91</ns3:cad>
          </ns3:TrackPointExtension>
        </extensions>
      </trkpt>
      <trkpt lat="43.83969850838184356689453125" lon="4.25167554058134555816650390625">
        <ele>154.8000030517578125</ele>
        <time>2024-01-27T10:07:26.000Z</time>
        <extensions>
          <ns3:TrackPointExtension>
            <ns3:hr>161</ns3:hr>
            <ns3:cad>91</ns3:cad>
          </ns3:TrackPointExtension>
        </extensions>
      </trkpt>
      <trkpt lat="43.83969255723059177398681640625" lon="4.2516427673399448394775390625">
        <ele>154.8000030517578125</ele>
        <time>2024-01-27T10:07:27.000Z</time>
        <extensions>
          <ns3:TrackPointExtension>
            <ns3:hr>161</ns3:hr>
            <ns3:cad>93</ns3:cad>
          </ns3:TrackPointExtension>
        </extensions>
      </trkpt>
      <trkpt lat="43.83968585170805454254150390625" lon="4.25160915590822696685791015625">
        <ele>154.8000030517578125</ele>
        <time>2024-01-27T10:07:28.000Z</time>
        <extensions>
          <ns3:TrackPointExtension>
            <ns3:hr>160</ns3:hr>
            <ns3:cad>93</ns3:cad>
          </ns3:TrackPointExtension>
        </extensions>
      </trkpt>
      <trkpt lat="43.83968384005129337310791015625" lon="4.25157646648585796356201171875">
        <ele>155</ele>
        <time>2024-01-27T10:07:29.000Z</time>
        <extensions>
          <ns3:TrackPointExtension>
            <ns3:hr>160</ns3:hr>
            <ns3:cad>92</ns3:cad>
          </ns3:TrackPointExtension>
        </extensions>
      </trkpt>
      <trkpt lat="43.83968182839453220367431640625" lon="4.25153673626482486724853515625">
        <ele>155</ele>
        <time>2024-01-27T10:07:30.000Z</time>
        <extensions>
          <ns3:TrackPointExtension>
            <ns3:hr>160</ns3:hr>
            <ns3:cad>91</ns3:cad>
          </ns3:TrackPointExtension>
        </extensions>
      </trkpt>
      <trkpt lat="43.83968149311840534210205078125" lon="4.25151159055531024932861328125">
        <ele>155</ele>
        <time>2024-01-27T10:07:31.000Z</time>
        <extensions>
          <ns3:TrackPointExtension>
            <ns3:hr>160</ns3:hr>
            <ns3:cad>91</ns3:cad>
          </ns3:TrackPointExtension>
        </extensions>
      </trkpt>
      <trkpt lat="43.8396857678890228271484375" lon="4.25147320143878459930419921875">
        <ele>155.1999969482421875</ele>
        <time>2024-01-27T10:07:32.000Z</time>
        <extensions>
          <ns3:TrackPointExtension>
            <ns3:hr>160</ns3:hr>
            <ns3:cad>92</ns3:cad>
          </ns3:TrackPointExtension>
        </extensions>
      </trkpt>
      <trkpt lat="43.8396866060793399810791015625" lon="4.25144520588219165802001953125">
        <ele>155.1999969482421875</ele>
        <time>2024-01-27T10:07:33.000Z</time>
        <extensions>
          <ns3:TrackPointExtension>
            <ns3:hr>160</ns3:hr>
            <ns3:cad>92</ns3:cad>
          </ns3:TrackPointExtension>
        </extensions>
      </trkpt>
      <trkpt lat="43.8396916352212429046630859375" lon="4.25141058862209320068359375">
        <ele>155.1999969482421875</ele>
        <time>2024-01-27T10:07:34.000Z</time>
        <extensions>
          <ns3:TrackPointExtension>
            <ns3:hr>160</ns3:hr>
            <ns3:cad>92</ns3:cad>
          </ns3:TrackPointExtension>
        </extensions>
      </trkpt>
      <trkpt lat="43.83969490416347980499267578125" lon="4.25138385035097599029541015625">
        <ele>155.1999969482421875</ele>
        <time>2024-01-27T10:07:35.000Z</time>
        <extensions>
          <ns3:TrackPointExtension>
            <ns3:hr>159</ns3:hr>
            <ns3:cad>92</ns3:cad>
          </ns3:TrackPointExtension>
        </extensions>
      </trkpt>
      <trkpt lat="43.8397043757140636444091796875" lon="4.2513561062514781951904296875">
        <ele>155.399993896484375</ele>
        <time>2024-01-27T10:07:36.000Z</time>
        <extensions>
          <ns3:TrackPointExtension>
            <ns3:hr>159</ns3:hr>
            <ns3:cad>92</ns3:cad>
          </ns3:TrackPointExtension>
        </extensions>
      </trkpt>
      <trkpt lat="43.83971334435045719146728515625" lon="4.25132718868553638458251953125">
        <ele>155.399993896484375</ele>
        <time>2024-01-27T10:07:37.000Z</time>
        <extensions>
          <ns3:TrackPointExtension>
            <ns3:hr>159</ns3:hr>
            <ns3:cad>92</ns3:cad>
          </ns3:TrackPointExtension>
        </extensions>
      </trkpt>
      <trkpt lat="43.8397234864532947540283203125" lon="4.2512950859963893890380859375">
        <ele>155.600006103515625</ele>
        <time>2024-01-27T10:07:38.000Z</time>
        <extensions>
          <ns3:TrackPointExtension>
            <ns3:hr>158</ns3:hr>
            <ns3:cad>92</ns3:cad>
          </ns3:TrackPointExtension>
        </extensions>
      </trkpt>
      <trkpt lat="43.83973337709903717041015625" lon="4.251264743506908416748046875">
        <ele>155.600006103515625</ele>
        <time>2024-01-27T10:07:39.000Z</time>
        <extensions>
          <ns3:TrackPointExtension>
            <ns3:hr>158</ns3:hr>
            <ns3:cad>93</ns3:cad>
          </ns3:TrackPointExtension>
        </extensions>
      </trkpt>
      <trkpt lat="43.8397462852299213409423828125" lon="4.25123582594096660614013671875">
        <ele>156</ele>
        <time>2024-01-27T10:07:40.000Z</time>
        <extensions>
          <ns3:TrackPointExtension>
            <ns3:hr>157</ns3:hr>
            <ns3:cad>93</ns3:cad>
          </ns3:TrackPointExtension>
        </extensions>
      </trkpt>
      <trkpt lat="43.83976288139820098876953125" lon="4.25120984204113483428955078125">
        <ele>156</ele>
        <time>2024-01-27T10:07:41.000Z</time>
        <extensions>
          <ns3:TrackPointExtension>
            <ns3:hr>157</ns3:hr>
            <ns3:cad>93</ns3:cad>
          </ns3:TrackPointExtension>
        </extensions>
      </trkpt>
      <trkpt lat="43.8397771306335926055908203125" lon="4.251187629997730255126953125">
        <ele>156.1999969482421875</ele>
        <time>2024-01-27T10:07:42.000Z</time>
        <extensions>
          <ns3:TrackPointExtension>
            <ns3:hr>157</ns3:hr>
            <ns3:cad>93</ns3:cad>
          </ns3:TrackPointExtension>
        </extensions>
      </trkpt>
      <trkpt lat="43.83979330770671367645263671875" lon="4.2511606402695178985595703125">
        <ele>156.1999969482421875</ele>
        <time>2024-01-27T10:07:43.000Z</time>
        <extensions>
          <ns3:TrackPointExtension>
            <ns3:hr>157</ns3:hr>
            <ns3:cad>91</ns3:cad>
          </ns3:TrackPointExtension>
        </extensions>
      </trkpt>
      <trkpt lat="43.83980269543826580047607421875" lon="4.25114027224481105804443359375">
        <ele>156.399993896484375</ele>
        <time>2024-01-27T10:07:44.000Z</time>
        <extensions>
          <ns3:TrackPointExtension>
            <ns3:hr>157</ns3:hr>
            <ns3:cad>91</ns3:cad>
          </ns3:TrackPointExtension>
        </extensions>
      </trkpt>
      <trkpt lat="43.83981443010270595550537109375" lon="4.25110473297536373138427734375">
        <ele>156.399993896484375</ele>
        <time>2024-01-27T10:07:45.000Z</time>
        <extensions>
          <ns3:TrackPointExtension>
            <ns3:hr>157</ns3:hr>
            <ns3:cad>93</ns3:cad>
          </ns3:TrackPointExtension>
        </extensions>
      </trkpt>
      <trkpt lat="43.8398213870823383331298828125" lon="4.25107791088521480560302734375">
        <ele>156.399993896484375</ele>
        <time>2024-01-27T10:07:46.000Z</time>
        <extensions>
          <ns3:TrackPointExtension>
            <ns3:hr>157</ns3:hr>
            <ns3:cad>93</ns3:cad>
          </ns3:TrackPointExtension>
        </extensions>
      </trkpt>
      <trkpt lat="43.839828260242938995361328125" lon="4.25104203633964061737060546875">
        <ele>156.399993896484375</ele>
        <time>2024-01-27T10:07:47.000Z</time>
        <extensions>
          <ns3:TrackPointExtension>
            <ns3:hr>157</ns3:hr>
            <ns3:cad>92</ns3:cad>
          </ns3:TrackPointExtension>
        </extensions>
      </trkpt>
      <trkpt lat="43.83983152918517589569091796875" lon="4.25101353786885738372802734375">
        <ele>156.399993896484375</ele>
        <time>2024-01-27T10:07:48.000Z</time>
        <extensions>
          <ns3:TrackPointExtension>
            <ns3:hr>157</ns3:hr>
            <ns3:cad>90</ns3:cad>
          </ns3:TrackPointExtension>
        </extensions>
      </trkpt>
      <trkpt lat="43.839834630489349365234375" lon="4.25097607076168060302734375">
        <ele>156.399993896484375</ele>
        <time>2024-01-27T10:07:49.000Z</time>
        <extensions>
          <ns3:TrackPointExtension>
            <ns3:hr>157</ns3:hr>
            <ns3:cad>89</ns3:cad>
          </ns3:TrackPointExtension>
        </extensions>
      </trkpt>
      <trkpt lat="43.8398351334035396575927734375" lon="4.25094882957637310028076171875">
        <ele>156.1999969482421875</ele>
        <time>2024-01-27T10:07:50.000Z</time>
        <extensions>
          <ns3:TrackPointExtension>
            <ns3:hr>157</ns3:hr>
            <ns3:cad>89</ns3:cad>
          </ns3:TrackPointExtension>
        </extensions>
      </trkpt>
      <trkpt lat="43.839831613004207611083984375" lon="4.25091010518372058868408203125">
        <ele>156.1999969482421875</ele>
        <time>2024-01-27T10:07:51.000Z</time>
        <extensions>
          <ns3:TrackPointExtension>
            <ns3:hr>157</ns3:hr>
            <ns3:cad>89</ns3:cad>
          </ns3:TrackPointExtension>
        </extensions>
      </trkpt>
      <trkpt lat="43.83983253501355648040771484375" lon="4.25087993033230304718017578125">
        <ele>156.1999969482421875</ele>
        <time>2024-01-27T10:07:52.000Z</time>
        <extensions>
          <ns3:TrackPointExtension>
            <ns3:hr>157</ns3:hr>
            <ns3:cad>88</ns3:cad>
          </ns3:TrackPointExtension>
        </extensions>
      </trkpt>
      <trkpt lat="43.83983303792774677276611328125" lon="4.25084196031093597412109375">
        <ele>156</ele>
        <time>2024-01-27T10:07:53.000Z</time>
        <extensions>
          <ns3:TrackPointExtension>
            <ns3:hr>157</ns3:hr>
            <ns3:cad>89</ns3:cad>
          </ns3:TrackPointExtension>
        </extensions>
      </trkpt>
      <trkpt lat="43.83983270265161991119384765625" lon="4.25080751068890094757080078125">
        <ele>155.8000030517578125</ele>
        <time>2024-01-27T10:07:54.000Z</time>
        <extensions>
          <ns3:TrackPointExtension>
            <ns3:hr>157</ns3:hr>
            <ns3:cad>89</ns3:cad>
          </ns3:TrackPointExtension>
        </extensions>
      </trkpt>
      <trkpt lat="43.839831613004207611083984375" lon="4.25076710991561412811279296875">
        <ele>155.600006103515625</ele>
        <time>2024-01-27T10:07:55.000Z</time>
        <extensions>
          <ns3:TrackPointExtension>
            <ns3:hr>157</ns3:hr>
            <ns3:cad>89</ns3:cad>
          </ns3:TrackPointExtension>
        </extensions>
      </trkpt>
      <trkpt lat="43.83983471430838108062744140625" lon="4.25073374994099140167236328125">
        <ele>155.1999969482421875</ele>
        <time>2024-01-27T10:07:56.000Z</time>
        <extensions>
          <ns3:TrackPointExtension>
            <ns3:hr>157</ns3:hr>
            <ns3:cad>89</ns3:cad>
          </ns3:TrackPointExtension>
        </extensions>
      </trkpt>
      <trkpt lat="43.83983069099485874176025390625" lon="4.25069754011929035186767578125">
        <ele>155</ele>
        <time>2024-01-27T10:07:57.000Z</time>
        <extensions>
          <ns3:TrackPointExtension>
            <ns3:hr>157</ns3:hr>
            <ns3:cad>89</ns3:cad>
          </ns3:TrackPointExtension>
        </extensions>
      </trkpt>
      <trkpt lat="43.83983354084193706512451171875" lon="4.25066216848790645599365234375">
        <ele>154.8000030517578125</ele>
        <time>2024-01-27T10:07:58.000Z</time>
        <extensions>
          <ns3:TrackPointExtension>
            <ns3:hr>157</ns3:hr>
            <ns3:cad>88</ns3:cad>
          </ns3:TrackPointExtension>
        </extensions>
      </trkpt>
      <trkpt lat="43.83983504958450794219970703125" lon="4.2506339214742183685302734375">
        <ele>154.399993896484375</ele>
        <time>2024-01-27T10:07:59.000Z</time>
        <extensions>
          <ns3:TrackPointExtension>
            <ns3:hr>156</ns3:hr>
            <ns3:cad>88</ns3:cad>
          </ns3:TrackPointExtension>
        </extensions>
      </trkpt>
      <trkpt lat="43.83983789943158626556396484375" lon="4.25059511326253414154052734375">
        <ele>154.1999969482421875</ele>
        <time>2024-01-27T10:08:00.000Z</time>
        <extensions>
          <ns3:TrackPointExtension>
            <ns3:hr>156</ns3:hr>
            <ns3:cad>87</ns3:cad>
          </ns3:TrackPointExtension>
        </extensions>
      </trkpt>
      <trkpt lat="43.83983664214611053466796875" lon="4.250565357506275177001953125">
        <ele>154</ele>
        <time>2024-01-27T10:08:01.000Z</time>
        <extensions>
          <ns3:TrackPointExtension>
            <ns3:hr>156</ns3:hr>
            <ns3:cad>87</ns3:cad>
          </ns3:TrackPointExtension>
        </extensions>
      </trkpt>
      <trkpt lat="43.8398388214409351348876953125" lon="4.2505246214568614959716796875">
        <ele>153.600006103515625</ele>
        <time>2024-01-27T10:08:02.000Z</time>
        <extensions>
          <ns3:TrackPointExtension>
            <ns3:hr>155</ns3:hr>
            <ns3:cad>87</ns3:cad>
          </ns3:TrackPointExtension>
        </extensions>
      </trkpt>
      <trkpt lat="43.83983773179352283477783203125" lon="4.2504937760531902313232421875">
        <ele>153.399993896484375</ele>
        <time>2024-01-27T10:08:03.000Z</time>
        <extensions>
          <ns3:TrackPointExtension>
            <ns3:hr>155</ns3:hr>
            <ns3:cad>88</ns3:cad>
          </ns3:TrackPointExtension>
        </extensions>
      </trkpt>
      <trkpt lat="43.8398386538028717041015625" lon="4.25045111216604709625244140625">
        <ele>153</ele>
        <time>2024-01-27T10:08:04.000Z</time>
        <extensions>
          <ns3:TrackPointExtension>
            <ns3:hr>154</ns3:hr>
            <ns3:cad>88</ns3:cad>
          </ns3:TrackPointExtension>
        </extensions>
      </trkpt>
      <trkpt lat="43.83983932435512542724609375" lon="4.25042211078107357025146484375">
        <ele>153</ele>
        <time>2024-01-27T10:08:05.000Z</time>
        <extensions>
          <ns3:TrackPointExtension>
            <ns3:hr>154</ns3:hr>
            <ns3:cad>88</ns3:cad>
          </ns3:TrackPointExtension>
        </extensions>
      </trkpt>
      <trkpt lat="43.83984242565929889678955078125" lon="4.25038053654134273529052734375">
        <ele>152.600006103515625</ele>
        <time>2024-01-27T10:08:06.000Z</time>
        <extensions>
          <ns3:TrackPointExtension>
            <ns3:hr>154</ns3:hr>
            <ns3:cad>88</ns3:cad>
          </ns3:TrackPointExtension>
        </extensions>
      </trkpt>
      <trkpt lat="43.83984343148767948150634765625" lon="4.25034985877573490142822265625">
        <ele>152.399993896484375</ele>
        <time>2024-01-27T10:08:07.000Z</time>
        <extensions>
          <ns3:TrackPointExtension>
            <ns3:hr>154</ns3:hr>
            <ns3:cad>88</ns3:cad>
          </ns3:TrackPointExtension>
        </extensions>
      </trkpt>
      <trkpt lat="43.839845694601535797119140625" lon="4.250310547649860382080078125">
        <ele>152</ele>
        <time>2024-01-27T10:08:08.000Z</time>
        <extensions>
          <ns3:TrackPointExtension>
            <ns3:hr>154</ns3:hr>
            <ns3:cad>87</ns3:cad>
          </ns3:TrackPointExtension>
        </extensions>
      </trkpt>
      <trkpt lat="43.839845024049282073974609375" lon="4.25027861259877681732177734375">
        <ele>152</ele>
        <time>2024-01-27T10:08:09.000Z</time>
        <extensions>
          <ns3:TrackPointExtension>
            <ns3:hr>154</ns3:hr>
            <ns3:cad>87</ns3:cad>
          </ns3:TrackPointExtension>
        </extensions>
      </trkpt>
      <trkpt lat="43.83984812535345554351806640625" lon="4.25023905001580715179443359375">
        <ele>151.600006103515625</ele>
        <time>2024-01-27T10:08:10.000Z</time>
        <extensions>
          <ns3:TrackPointExtension>
            <ns3:hr>154</ns3:hr>
            <ns3:cad>88</ns3:cad>
          </ns3:TrackPointExtension>
        </extensions>
      </trkpt>
      <trkpt lat="43.83985466323792934417724609375" lon="4.25020904280245304107666015625">
        <ele>151.600006103515625</ele>
        <time>2024-01-27T10:08:11.000Z</time>
        <extensions>
          <ns3:TrackPointExtension>
            <ns3:hr>154</ns3:hr>
            <ns3:cad>88</ns3:cad>
          </ns3:TrackPointExtension>
        </extensions>
      </trkpt>
      <trkpt lat="43.83987142704427242279052734375" lon="4.250179119408130645751953125">
        <ele>151.399993896484375</ele>
        <time>2024-01-27T10:08:12.000Z</time>
        <extensions>
          <ns3:TrackPointExtension>
            <ns3:hr>153</ns3:hr>
            <ns3:cad>88</ns3:cad>
          </ns3:TrackPointExtension>
        </extensions>
      </trkpt>
      <trkpt lat="43.83989104069769382476806640625" lon="4.25015799701213836669921875">
        <ele>151</ele>
        <time>2024-01-27T10:08:13.000Z</time>
        <extensions>
          <ns3:TrackPointExtension>
            <ns3:hr>153</ns3:hr>
            <ns3:cad>88</ns3:cad>
          </ns3:TrackPointExtension>
        </extensions>
      </trkpt>
      <trkpt lat="43.83991367183625698089599609375" lon="4.2501367069780826568603515625">
        <ele>150.8000030517578125</ele>
        <time>2024-01-27T10:08:14.000Z</time>
        <extensions>
          <ns3:TrackPointExtension>
            <ns3:hr>153</ns3:hr>
            <ns3:cad>88</ns3:cad>
          </ns3:TrackPointExtension>
        </extensions>
      </trkpt>
      <trkpt lat="43.839936889708042144775390625" lon="4.2501219548285007476806640625">
        <ele>150.399993896484375</ele>
        <time>2024-01-27T10:08:15.000Z</time>
        <extensions>
          <ns3:TrackPointExtension>
            <ns3:hr>153</ns3:hr>
            <ns3:cad>88</ns3:cad>
          </ns3:TrackPointExtension>
        </extensions>
      </trkpt>
      <trkpt lat="43.83996329270303249359130859375" lon="4.25010326318442821502685546875">
        <ele>150.399993896484375</ele>
        <time>2024-01-27T10:08:16.000Z</time>
        <extensions>
          <ns3:TrackPointExtension>
            <ns3:hr>153</ns3:hr>
            <ns3:cad>88</ns3:cad>
          </ns3:TrackPointExtension>
        </extensions>
      </trkpt>
      <trkpt lat="43.83998525328934192657470703125" lon="4.25009052269160747528076171875">
        <ele>150.1999969482421875</ele>
        <time>2024-01-27T10:08:17.000Z</time>
        <extensions>
          <ns3:TrackPointExtension>
            <ns3:hr>153</ns3:hr>
            <ns3:cad>88</ns3:cad>
          </ns3:TrackPointExtension>
        </extensions>
      </trkpt>
      <trkpt lat="43.84000905789434909820556640625" lon="4.25007694400846958160400390625">
        <ele>150</ele>
        <time>2024-01-27T10:08:18.000Z</time>
        <extensions>
          <ns3:TrackPointExtension>
            <ns3:hr>154</ns3:hr>
            <ns3:cad>89</ns3:cad>
          </ns3:TrackPointExtension>
        </extensions>
      </trkpt>
      <trkpt lat="43.8400312699377536773681640625" lon="4.25005649216473102569580078125">
        <ele>150</ele>
        <time>2024-01-27T10:08:19.000Z</time>
        <extensions>
          <ns3:TrackPointExtension>
            <ns3:hr>154</ns3:hr>
            <ns3:cad>89</ns3:cad>
          </ns3:TrackPointExtension>
        </extensions>
      </trkpt>
      <trkpt lat="43.84005390107631683349609375" lon="4.25003453157842159271240234375">
        <ele>149.8000030517578125</ele>
        <time>2024-01-27T10:08:20.000Z</time>
        <extensions>
          <ns3:TrackPointExtension>
            <ns3:hr>154</ns3:hr>
            <ns3:cad>90</ns3:cad>
          </ns3:TrackPointExtension>
        </extensions>
      </trkpt>
      <trkpt lat="43.84007292799651622772216796875" lon="4.2500129900872707366943359375">
        <ele>149.8000030517578125</ele>
        <time>2024-01-27T10:08:21.000Z</time>
        <extensions>
          <ns3:TrackPointExtension>
            <ns3:hr>154</ns3:hr>
            <ns3:cad>90</ns3:cad>
          </ns3:TrackPointExtension>
        </extensions>
      </trkpt>
      <trkpt lat="43.840097151696681976318359375" lon="4.24999195151031017303466796875">
        <ele>149.600006103515625</ele>
        <time>2024-01-27T10:08:22.000Z</time>
        <extensions>
          <ns3:TrackPointExtension>
            <ns3:hr>154</ns3:hr>
            <ns3:cad>90</ns3:cad>
          </ns3:TrackPointExtension>
        </extensions>
      </trkpt>
      <trkpt lat="43.8401197828352451324462890625" lon="4.24997099675238132476806640625">
        <ele>149.600006103515625</ele>
        <time>2024-01-27T10:08:23.000Z</time>
        <extensions>
          <ns3:TrackPointExtension>
            <ns3:hr>154</ns3:hr>
            <ns3:cad>90</ns3:cad>
          </ns3:TrackPointExtension>
        </extensions>
      </trkpt>
      <trkpt lat="43.84014367125928401947021484375" lon="4.2499506287276744842529296875">
        <ele>149.600006103515625</ele>
        <time>2024-01-27T10:08:24.000Z</time>
        <extensions>
          <ns3:TrackPointExtension>
            <ns3:hr>154</ns3:hr>
            <ns3:cad>90</ns3:cad>
          </ns3:TrackPointExtension>
        </extensions>
      </trkpt>
      <trkpt lat="43.8401647098362445831298828125" lon="4.24993294291198253631591796875">
        <ele>149.600006103515625</ele>
        <time>2024-01-27T10:08:25.000Z</time>
        <extensions>
          <ns3:TrackPointExtension>
            <ns3:hr>155</ns3:hr>
            <ns3:cad>90</ns3:cad>
          </ns3:TrackPointExtension>
        </extensions>
      </trkpt>
      <trkpt lat="43.840187005698680877685546875" lon="4.24991098232567310333251953125">
        <ele>149.600006103515625</ele>
        <time>2024-01-27T10:08:26.000Z</time>
        <extensions>
          <ns3:TrackPointExtension>
            <ns3:hr>155</ns3:hr>
            <ns3:cad>90</ns3:cad>
          </ns3:TrackPointExtension>
        </extensions>
      </trkpt>
      <trkpt lat="43.84020284749567508697509765625" lon="4.24989237450063228607177734375">
        <ele>149.600006103515625</ele>
        <time>2024-01-27T10:08:27.000Z</time>
        <extensions>
          <ns3:TrackPointExtension>
            <ns3:hr>155</ns3:hr>
            <ns3:cad>90</ns3:cad>
          </ns3:TrackPointExtension>
        </extensions>
      </trkpt>
      <trkpt lat="43.84021709673106670379638671875" lon="4.24986739642918109893798828125">
        <ele>149.600006103515625</ele>
        <time>2024-01-27T10:08:28.000Z</time>
        <extensions>
          <ns3:TrackPointExtension>
            <ns3:hr>155</ns3:hr>
            <ns3:cad>89</ns3:cad>
          </ns3:TrackPointExtension>
        </extensions>
      </trkpt>
      <trkpt lat="43.840226233005523681640625" lon="4.2498470284044742584228515625">
        <ele>149.8000030517578125</ele>
        <time>2024-01-27T10:08:29.000Z</time>
        <extensions>
          <ns3:TrackPointExtension>
            <ns3:hr>155</ns3:hr>
            <ns3:cad>89</ns3:cad>
          </ns3:TrackPointExtension>
        </extensions>
      </trkpt>
      <trkpt lat="43.840233944356441497802734375" lon="4.24981735646724700927734375">
        <ele>150.1999969482421875</ele>
        <time>2024-01-27T10:08:30.000Z</time>
        <extensions>
          <ns3:TrackPointExtension>
            <ns3:hr>155</ns3:hr>
            <ns3:cad>89</ns3:cad>
          </ns3:TrackPointExtension>
        </extensions>
      </trkpt>
      <trkpt lat="43.84024031460285186767578125" lon="4.24979413859546184539794921875">
        <ele>150.399993896484375</ele>
        <time>2024-01-27T10:08:31.000Z</time>
        <extensions>
          <ns3:TrackPointExtension>
            <ns3:hr>155</ns3:hr>
            <ns3:cad>90</ns3:cad>
          </ns3:TrackPointExtension>
        </extensions>
      </trkpt>
      <trkpt lat="43.84024693630635738372802734375" lon="4.24975943751633167266845703125">
        <ele>150.8000030517578125</ele>
        <time>2024-01-27T10:08:32.000Z</time>
        <extensions>
          <ns3:TrackPointExtension>
            <ns3:hr>155</ns3:hr>
            <ns3:cad>90</ns3:cad>
          </ns3:TrackPointExtension>
        </extensions>
      </trkpt>
      <trkpt lat="43.840250708162784576416015625" lon="4.249737896025180816650390625">
        <ele>151</ele>
        <time>2024-01-27T10:08:33.000Z</time>
        <extensions>
          <ns3:TrackPointExtension>
            <ns3:hr>155</ns3:hr>
            <ns3:cad>90</ns3:cad>
          </ns3:TrackPointExtension>
        </extensions>
      </trkpt>
      <trkpt lat="43.840258419513702392578125" lon="4.24970109947025775909423828125">
        <ele>151.1999969482421875</ele>
        <time>2024-01-27T10:08:34.000Z</time>
        <extensions>
          <ns3:TrackPointExtension>
            <ns3:hr>155</ns3:hr>
            <ns3:cad>91</ns3:cad>
          </ns3:TrackPointExtension>
        </extensions>
      </trkpt>
      <trkpt lat="43.84025640785694122314453125" lon="4.249674864113330841064453125">
        <ele>151.600006103515625</ele>
        <time>2024-01-27T10:08:35.000Z</time>
        <extensions>
          <ns3:TrackPointExtension>
            <ns3:hr>155</ns3:hr>
            <ns3:cad>91</ns3:cad>
          </ns3:TrackPointExtension>
        </extensions>
      </trkpt>
      <trkpt lat="43.84026319719851016998291015625" lon="4.24964074976742267608642578125">
        <ele>151.600006103515625</ele>
        <time>2024-01-27T10:08:36.000Z</time>
        <extensions>
          <ns3:TrackPointExtension>
            <ns3:hr>155</ns3:hr>
            <ns3:cad>91</ns3:cad>
          </ns3:TrackPointExtension>
        </extensions>
      </trkpt>
      <trkpt lat="43.84026453830301761627197265625" lon="4.24961484968662261962890625">
        <ele>151.8000030517578125</ele>
        <time>2024-01-27T10:08:37.000Z</time>
        <extensions>
          <ns3:TrackPointExtension>
            <ns3:hr>155</ns3:hr>
            <ns3:cad>91</ns3:cad>
          </ns3:TrackPointExtension>
        </extensions>
      </trkpt>
      <trkpt lat="43.84026939980685710906982421875" lon="4.24958492629230022430419921875">
        <ele>152</ele>
        <time>2024-01-27T10:08:38.000Z</time>
        <extensions>
          <ns3:TrackPointExtension>
            <ns3:hr>155</ns3:hr>
            <ns3:cad>92</ns3:cad>
          </ns3:TrackPointExtension>
        </extensions>
      </trkpt>
      <trkpt lat="43.840270824730396270751953125" lon="4.24955843947827816009521484375">
        <ele>152.1999969482421875</ele>
        <time>2024-01-27T10:08:39.000Z</time>
        <extensions>
          <ns3:TrackPointExtension>
            <ns3:hr>156</ns3:hr>
            <ns3:cad>93</ns3:cad>
          </ns3:TrackPointExtension>
        </extensions>
      </trkpt>
      <trkpt lat="43.84027778171002864837646484375" lon="4.2495301924645900726318359375">
        <ele>152.1999969482421875</ele>
        <time>2024-01-27T10:08:40.000Z</time>
        <extensions>
          <ns3:TrackPointExtension>
            <ns3:hr>156</ns3:hr>
            <ns3:cad>93</ns3:cad>
          </ns3:TrackPointExtension>
        </extensions>
      </trkpt>
      <trkpt lat="43.84027677588164806365966796875" lon="4.24950412474572658538818359375">
        <ele>152.1999969482421875</ele>
        <time>2024-01-27T10:08:41.000Z</time>
        <extensions>
          <ns3:TrackPointExtension>
            <ns3:hr>156</ns3:hr>
            <ns3:cad>93</ns3:cad>
          </ns3:TrackPointExtension>
        </extensions>
      </trkpt>
      <trkpt lat="43.84028314612805843353271484375" lon="4.24947110004723072052001953125">
        <ele>152.399993896484375</ele>
        <time>2024-01-27T10:08:42.000Z</time>
        <extensions>
          <ns3:TrackPointExtension>
            <ns3:hr>156</ns3:hr>
            <ns3:cad>92</ns3:cad>
          </ns3:TrackPointExtension>
        </extensions>
      </trkpt>
      <trkpt lat="43.84029018692672252655029296875" lon="4.24943623133003711700439453125">
        <ele>152.399993896484375</ele>
        <time>2024-01-27T10:08:43.000Z</time>
        <extensions>
          <ns3:TrackPointExtension>
            <ns3:hr>156</ns3:hr>
            <ns3:cad>92</ns3:cad>
          </ns3:TrackPointExtension>
        </extensions>
      </trkpt>
      <trkpt lat="43.84029773063957691192626953125" lon="4.24940488301217555999755859375">
        <ele>152.399993896484375</ele>
        <time>2024-01-27T10:08:44.000Z</time>
        <extensions>
          <ns3:TrackPointExtension>
            <ns3:hr>156</ns3:hr>
            <ns3:cad>92</ns3:cad>
          </ns3:TrackPointExtension>
        </extensions>
      </trkpt>
      <trkpt lat="43.84030393324792385101318359375" lon="4.24937353469431400299072265625">
        <ele>152.399993896484375</ele>
        <time>2024-01-27T10:08:45.000Z</time>
        <extensions>
          <ns3:TrackPointExtension>
            <ns3:hr>156</ns3:hr>
            <ns3:cad>92</ns3:cad>
          </ns3:TrackPointExtension>
        </extensions>
      </trkpt>
      <trkpt lat="43.840309716761112213134765625" lon="4.2493451200425624847412109375">
        <ele>152.399993896484375</ele>
        <time>2024-01-27T10:08:46.000Z</time>
        <extensions>
          <ns3:TrackPointExtension>
            <ns3:hr>156</ns3:hr>
            <ns3:cad>91</ns3:cad>
          </ns3:TrackPointExtension>
        </extensions>
      </trkpt>
      <trkpt lat="43.84031482972204685211181640625" lon="4.24931469373404979705810546875">
        <ele>152.1999969482421875</ele>
        <time>2024-01-27T10:08:47.000Z</time>
        <extensions>
          <ns3:TrackPointExtension>
            <ns3:hr>157</ns3:hr>
            <ns3:cad>91</ns3:cad>
          </ns3:TrackPointExtension>
        </extensions>
      </trkpt>
      <trkpt lat="43.84031667374074459075927734375" lon="4.24928938038647174835205078125">
        <ele>152.1999969482421875</ele>
        <time>2024-01-27T10:08:48.000Z</time>
        <extensions>
          <ns3:TrackPointExtension>
            <ns3:hr>157</ns3:hr>
            <ns3:cad>91</ns3:cad>
          </ns3:TrackPointExtension>
        </extensions>
      </trkpt>
      <trkpt lat="43.8403152488172054290771484375" lon="4.2492613010108470916748046875">
        <ele>152</ele>
        <time>2024-01-27T10:08:49.000Z</time>
        <extensions>
          <ns3:TrackPointExtension>
            <ns3:hr>157</ns3:hr>
            <ns3:cad>90</ns3:cad>
          </ns3:TrackPointExtension>
        </extensions>
      </trkpt>
      <trkpt lat="43.8403115607798099517822265625" lon="4.24923934042453765869140625">
        <ele>151.8000030517578125</ele>
        <time>2024-01-27T10:08:50.000Z</time>
        <extensions>
          <ns3:TrackPointExtension>
            <ns3:hr>157</ns3:hr>
            <ns3:cad>90</ns3:cad>
          </ns3:TrackPointExtension>
        </extensions>
      </trkpt>
      <trkpt lat="43.840306699275970458984375" lon="4.24920807592570781707763671875">
        <ele>151.600006103515625</ele>
        <time>2024-01-27T10:08:51.000Z</time>
        <extensions>
          <ns3:TrackPointExtension>
            <ns3:hr>157</ns3:hr>
            <ns3:cad>90</ns3:cad>
          </ns3:TrackPointExtension>
        </extensions>
      </trkpt>
      <trkpt lat="43.84030393324792385101318359375" lon="4.2491788230836391448974609375">
        <ele>151.399993896484375</ele>
        <time>2024-01-27T10:08:52.000Z</time>
        <extensions>
          <ns3:TrackPointExtension>
            <ns3:hr>157</ns3:hr>
            <ns3:cad>90</ns3:cad>
          </ns3:TrackPointExtension>
        </extensions>
      </trkpt>
      <trkpt lat="43.84030443616211414337158203125" lon="4.2491422779858112335205078125">
        <ele>151.1999969482421875</ele>
        <time>2024-01-27T10:08:53.000Z</time>
        <extensions>
          <ns3:TrackPointExtension>
            <ns3:hr>157</ns3:hr>
            <ns3:cad>90</ns3:cad>
          </ns3:TrackPointExtension>
        </extensions>
      </trkpt>
      <trkpt lat="43.8403078727424144744873046875" lon="4.24911034293472766876220703125">
        <ele>150.600006103515625</ele>
        <time>2024-01-27T10:08:54.000Z</time>
        <extensions>
          <ns3:TrackPointExtension>
            <ns3:hr>157</ns3:hr>
            <ns3:cad>90</ns3:cad>
          </ns3:TrackPointExtension>
        </extensions>
      </trkpt>
      <trkpt lat="43.84031080640852451324462890625" lon="4.249070696532726287841796875">
        <ele>150</ele>
        <time>2024-01-27T10:08:55.000Z</time>
        <extensions>
          <ns3:TrackPointExtension>
            <ns3:hr>157</ns3:hr>
            <ns3:cad>90</ns3:cad>
          </ns3:TrackPointExtension>
        </extensions>
      </trkpt>
      <trkpt lat="43.84031985886394977569580078125" lon="4.24903557635843753814697265625">
        <ele>149.8000030517578125</ele>
        <time>2024-01-27T10:08:56.000Z</time>
        <extensions>
          <ns3:TrackPointExtension>
            <ns3:hr>157</ns3:hr>
            <ns3:cad>90</ns3:cad>
          </ns3:TrackPointExtension>
        </extensions>
      </trkpt>
      <trkpt lat="43.84033553302288055419921875" lon="4.24899701960384845733642578125">
        <ele>149.8000030517578125</ele>
        <time>2024-01-27T10:08:57.000Z</time>
        <extensions>
          <ns3:TrackPointExtension>
            <ns3:hr>156</ns3:hr>
            <ns3:cad>89</ns3:cad>
          </ns3:TrackPointExtension>
        </extensions>
      </trkpt>
      <trkpt lat="43.8403538055717945098876953125" lon="4.24897070042788982391357421875">
        <ele>149.600006103515625</ele>
        <time>2024-01-27T10:08:58.000Z</time>
        <extensions>
          <ns3:TrackPointExtension>
            <ns3:hr>157</ns3:hr>
            <ns3:cad>89</ns3:cad>
          </ns3:TrackPointExtension>
        </extensions>
      </trkpt>
      <trkpt lat="43.840374089777469635009765625" lon="4.248945973813533782958984375">
        <ele>149.399993896484375</ele>
        <time>2024-01-27T10:08:59.000Z</time>
        <extensions>
          <ns3:TrackPointExtension>
            <ns3:hr>156</ns3:hr>
            <ns3:cad>89</ns3:cad>
          </ns3:TrackPointExtension>
        </extensions>
      </trkpt>
      <trkpt lat="43.8403943739831447601318359375" lon="4.24892677925527095794677734375">
        <ele>149.399993896484375</ele>
        <time>2024-01-27T10:09:00.000Z</time>
        <extensions>
          <ns3:TrackPointExtension>
            <ns3:hr>156</ns3:hr>
            <ns3:cad>89</ns3:cad>
          </ns3:TrackPointExtension>
        </extensions>
      </trkpt>
      <trkpt lat="43.84041306562721729278564453125" lon="4.24890674650669097900390625">
        <ele>149.399993896484375</ele>
        <time>2024-01-27T10:09:01.000Z</time>
        <extensions>
          <ns3:TrackPointExtension>
            <ns3:hr>156</ns3:hr>
            <ns3:cad>90</ns3:cad>
          </ns3:TrackPointExtension>
        </extensions>
      </trkpt>
      <trkpt lat="43.84043217636644840240478515625" lon="4.2488904856145381927490234375">
        <ele>149.399993896484375</ele>
        <time>2024-01-27T10:09:02.000Z</time>
        <extensions>
          <ns3:TrackPointExtension>
            <ns3:hr>156</ns3:hr>
            <ns3:cad>92</ns3:cad>
          </ns3:TrackPointExtension>
        </extensions>
      </trkpt>
      <trkpt lat="43.84045463986694812774658203125" lon="4.24886785447597503662109375">
        <ele>149.600006103515625</ele>
        <time>2024-01-27T10:09:03.000Z</time>
        <extensions>
          <ns3:TrackPointExtension>
            <ns3:hr>156</ns3:hr>
            <ns3:cad>92</ns3:cad>
          </ns3:TrackPointExtension>
        </extensions>
      </trkpt>
      <trkpt lat="43.84047207422554492950439453125" lon="4.2488502524793148040771484375">
        <ele>149.600006103515625</ele>
        <time>2024-01-27T10:09:04.000Z</time>
        <extensions>
          <ns3:TrackPointExtension>
            <ns3:hr>156</ns3:hr>
            <ns3:cad>92</ns3:cad>
          </ns3:TrackPointExtension>
        </extensions>
      </trkpt>
      <trkpt lat="43.84049705229699611663818359375" lon="4.24882770515978336334228515625">
        <ele>149.600006103515625</ele>
        <time>2024-01-27T10:09:05.000Z</time>
        <extensions>
          <ns3:TrackPointExtension>
            <ns3:hr>156</ns3:hr>
            <ns3:cad>91</ns3:cad>
          </ns3:TrackPointExtension>
        </extensions>
      </trkpt>
      <trkpt lat="43.840515576303005218505859375" lon="4.24880507402122020721435546875">
        <ele>149.600006103515625</ele>
        <time>2024-01-27T10:09:06.000Z</time>
        <extensions>
          <ns3:TrackPointExtension>
            <ns3:hr>156</ns3:hr>
            <ns3:cad>92</ns3:cad>
          </ns3:TrackPointExtension>
        </extensions>
      </trkpt>
      <trkpt lat="43.840536363422870635986328125" lon="4.24878537654876708984375">
        <ele>149.600006103515625</ele>
        <time>2024-01-27T10:09:07.000Z</time>
        <extensions>
          <ns3:TrackPointExtension>
            <ns3:hr>156</ns3:hr>
            <ns3:cad>92</ns3:cad>
          </ns3:TrackPointExtension>
        </extensions>
      </trkpt>
      <trkpt lat="43.84055706672370433807373046875" lon="4.24876148812472820281982421875">
        <ele>149.8000030517578125</ele>
        <time>2024-01-27T10:09:08.000Z</time>
        <extensions>
          <ns3:TrackPointExtension>
            <ns3:hr>156</ns3:hr>
            <ns3:cad>92</ns3:cad>
          </ns3:TrackPointExtension>
        </extensions>
      </trkpt>
      <trkpt lat="43.84057768620550632476806640625" lon="4.248739443719387054443359375">
        <ele>150</ele>
        <time>2024-01-27T10:09:09.000Z</time>
        <extensions>
          <ns3:TrackPointExtension>
            <ns3:hr>156</ns3:hr>
            <ns3:cad>93</ns3:cad>
          </ns3:TrackPointExtension>
        </extensions>
      </trkpt>
      <trkpt lat="43.84059436619281768798828125" lon="4.24871656112372875213623046875">
        <ele>150</ele>
        <time>2024-01-27T10:09:10.000Z</time>
        <extensions>
          <ns3:TrackPointExtension>
            <ns3:hr>156</ns3:hr>
            <ns3:cad>93</ns3:cad>
          </ns3:TrackPointExtension>
        </extensions>
      </trkpt>
      <trkpt lat="43.84061087854206562042236328125" lon="4.2486941814422607421875">
        <ele>150.1999969482421875</ele>
        <time>2024-01-27T10:09:11.000Z</time>
        <extensions>
          <ns3:TrackPointExtension>
            <ns3:hr>156</ns3:hr>
            <ns3:cad>93</ns3:cad>
          </ns3:TrackPointExtension>
        </extensions>
      </trkpt>
      <trkpt lat="43.8406245410442352294921875" lon="4.24865989945828914642333984375">
        <ele>150.399993896484375</ele>
        <time>2024-01-27T10:09:12.000Z</time>
        <extensions>
          <ns3:TrackPointExtension>
            <ns3:hr>156</ns3:hr>
            <ns3:cad>93</ns3:cad>
          </ns3:TrackPointExtension>
        </extensions>
      </trkpt>
      <trkpt lat="43.84063820354640483856201171875" lon="4.24863089807331562042236328125">
        <ele>150.399993896484375</ele>
        <time>2024-01-27T10:09:13.000Z</time>
        <extensions>
          <ns3:TrackPointExtension>
            <ns3:hr>156</ns3:hr>
            <ns3:cad>93</ns3:cad>
          </ns3:TrackPointExtension>
        </extensions>
      </trkpt>
      <trkpt lat="43.84065077640116214752197265625" lon="4.2485964484512805938720703125">
        <ele>150.600006103515625</ele>
        <time>2024-01-27T10:09:14.000Z</time>
        <extensions>
          <ns3:TrackPointExtension>
            <ns3:hr>156</ns3:hr>
            <ns3:cad>93</ns3:cad>
          </ns3:TrackPointExtension>
        </extensions>
      </trkpt>
      <trkpt lat="43.8406625948846340179443359375" lon="4.248569793999195098876953125">
        <ele>150.600006103515625</ele>
        <time>2024-01-27T10:09:15.000Z</time>
        <extensions>
          <ns3:TrackPointExtension>
            <ns3:hr>156</ns3:hr>
            <ns3:cad>93</ns3:cad>
          </ns3:TrackPointExtension>
        </extensions>
      </trkpt>
      <trkpt lat="43.84067407809197902679443359375" lon="4.248540289700031280517578125">
        <ele>150.600006103515625</ele>
        <time>2024-01-27T10:09:16.000Z</time>
        <extensions>
          <ns3:TrackPointExtension>
            <ns3:hr>156</ns3:hr>
            <ns3:cad>92</ns3:cad>
          </ns3:TrackPointExtension>
        </extensions>
      </trkpt>
      <trkpt lat="43.84066653437912464141845703125" lon="4.248503744602203369140625">
        <ele>150.600006103515625</ele>
        <time>2024-01-27T10:09:17.000Z</time>
        <extensions>
          <ns3:TrackPointExtension>
            <ns3:hr>156</ns3:hr>
            <ns3:cad>92</ns3:cad>
          </ns3:TrackPointExtension>
        </extensions>
      </trkpt>
      <trkpt lat="43.8406666181981563568115234375" lon="4.24846242181956768035888671875">
        <ele>150.8000030517578125</ele>
        <time>2024-01-27T10:09:18.000Z</time>
        <extensions>
          <ns3:TrackPointExtension>
            <ns3:hr>156</ns3:hr>
            <ns3:cad>91</ns3:cad>
          </ns3:TrackPointExtension>
        </extensions>
      </trkpt>
      <trkpt lat="43.84065982885658740997314453125" lon="4.2484304867684841156005859375">
        <ele>150.8000030517578125</ele>
        <time>2024-01-27T10:09:19.000Z</time>
        <extensions>
          <ns3:TrackPointExtension>
            <ns3:hr>157</ns3:hr>
            <ns3:cad>91</ns3:cad>
          </ns3:TrackPointExtension>
        </extensions>
      </trkpt>
      <trkpt lat="43.84065278805792331695556640625" lon="4.24839654006063938140869140625">
        <ele>151</ele>
        <time>2024-01-27T10:09:20.000Z</time>
        <extensions>
          <ns3:TrackPointExtension>
            <ns3:hr>157</ns3:hr>
            <ns3:cad>91</ns3:cad>
          </ns3:TrackPointExtension>
        </extensions>
      </trkpt>
      <trkpt lat="43.840647004544734954833984375" lon="4.2483661137521266937255859375">
        <ele>151.1999969482421875</ele>
        <time>2024-01-27T10:09:21.000Z</time>
        <extensions>
          <ns3:TrackPointExtension>
            <ns3:hr>157</ns3:hr>
            <ns3:cad>91</ns3:cad>
          </ns3:TrackPointExtension>
        </extensions>
      </trkpt>
      <trkpt lat="43.84064088575541973114013671875" lon="4.24833786673843860626220703125">
        <ele>151.399993896484375</ele>
        <time>2024-01-27T10:09:22.000Z</time>
        <extensions>
          <ns3:TrackPointExtension>
            <ns3:hr>157</ns3:hr>
            <ns3:cad>92</ns3:cad>
          </ns3:TrackPointExtension>
        </extensions>
      </trkpt>
      <trkpt lat="43.8406324200332164764404296875" lon="4.2483034171164035797119140625">
        <ele>151.399993896484375</ele>
        <time>2024-01-27T10:09:23.000Z</time>
        <extensions>
          <ns3:TrackPointExtension>
            <ns3:hr>157</ns3:hr>
            <ns3:cad>92</ns3:cad>
          </ns3:TrackPointExtension>
        </extensions>
      </trkpt>
      <trkpt lat="43.84062613360583782196044921875" lon="4.248275421559810638427734375">
        <ele>151.399993896484375</ele>
        <time>2024-01-27T10:09:24.000Z</time>
        <extensions>
          <ns3:TrackPointExtension>
            <ns3:hr>157</ns3:hr>
            <ns3:cad>92</ns3:cad>
          </ns3:TrackPointExtension>
        </extensions>
      </trkpt>
      <trkpt lat="43.840619511902332305908203125" lon="4.24823510460555553436279296875">
        <ele>151.600006103515625</ele>
        <time>2024-01-27T10:09:25.000Z</time>
        <extensions>
          <ns3:TrackPointExtension>
            <ns3:hr>157</ns3:hr>
            <ns3:cad>92</ns3:cad>
          </ns3:TrackPointExtension>
        </extensions>
      </trkpt>
      <trkpt lat="43.840616829693317413330078125" lon="4.2482100427150726318359375">
        <ele>151.600006103515625</ele>
        <time>2024-01-27T10:09:26.000Z</time>
        <extensions>
          <ns3:TrackPointExtension>
            <ns3:hr>158</ns3:hr>
            <ns3:cad>92</ns3:cad>
          </ns3:TrackPointExtension>
        </extensions>
      </trkpt>
      <trkpt lat="43.8406146503984928131103515625" lon="4.248183555901050567626953125">
        <ele>151.8000030517578125</ele>
        <time>2024-01-27T10:09:27.000Z</time>
        <extensions>
          <ns3:TrackPointExtension>
            <ns3:hr>158</ns3:hr>
            <ns3:cad>93</ns3:cad>
          </ns3:TrackPointExtension>
        </extensions>
      </trkpt>
      <trkpt lat="43.840612471103668212890625" lon="4.2481558956205844879150390625">
        <ele>152</ele>
        <time>2024-01-27T10:09:28.000Z</time>
        <extensions>
          <ns3:TrackPointExtension>
            <ns3:hr>158</ns3:hr>
            <ns3:cad>93</ns3:cad>
          </ns3:TrackPointExtension>
        </extensions>
      </trkpt>
      <trkpt lat="43.840606771409511566162109375" lon="4.24812530167400836944580078125">
        <ele>152.399993896484375</ele>
        <time>2024-01-27T10:09:29.000Z</time>
        <extensions>
          <ns3:TrackPointExtension>
            <ns3:hr>158</ns3:hr>
            <ns3:cad>93</ns3:cad>
          </ns3:TrackPointExtension>
        </extensions>
      </trkpt>
      <trkpt lat="43.840600736439228057861328125" lon="4.248101748526096343994140625">
        <ele>152.399993896484375</ele>
        <time>2024-01-27T10:09:30.000Z</time>
        <extensions>
          <ns3:TrackPointExtension>
            <ns3:hr>158</ns3:hr>
            <ns3:cad>91</ns3:cad>
          </ns3:TrackPointExtension>
        </extensions>
      </trkpt>
      <trkpt lat="43.8405663706362247467041015625" lon="4.248095043003559112548828125">
        <ele>152.600006103515625</ele>
        <time>2024-01-27T10:09:31.000Z</time>
        <extensions>
          <ns3:TrackPointExtension>
            <ns3:hr>159</ns3:hr>
            <ns3:cad>90</ns3:cad>
          </ns3:TrackPointExtension>
        </extensions>
      </trkpt>
      <trkpt lat="43.84054801426827907562255859375" lon="4.24808590672910213470458984375">
        <ele>152.600006103515625</ele>
        <time>2024-01-27T10:09:32.000Z</time>
        <extensions>
          <ns3:TrackPointExtension>
            <ns3:hr>159</ns3:hr>
            <ns3:cad>89</ns3:cad>
          </ns3:TrackPointExtension>
        </extensions>
      </trkpt>
      <trkpt lat="43.84052555076777935028076171875" lon="4.24808464944362640380859375">
        <ele>152.600006103515625</ele>
        <time>2024-01-27T10:09:33.000Z</time>
        <extensions>
          <ns3:TrackPointExtension>
            <ns3:hr>159</ns3:hr>
            <ns3:cad>89</ns3:cad>
          </ns3:TrackPointExtension>
        </extensions>
      </trkpt>
      <trkpt lat="43.8405026681721210479736328125" lon="4.24808733165264129638671875">
        <ele>152.600006103515625</ele>
        <time>2024-01-27T10:09:34.000Z</time>
        <extensions>
          <ns3:TrackPointExtension>
            <ns3:hr>159</ns3:hr>
            <ns3:cad>90</ns3:cad>
          </ns3:TrackPointExtension>
        </extensions>
      </trkpt>
      <trkpt lat="43.84047634899616241455078125" lon="4.2480888403952121734619140625">
        <ele>152.600006103515625</ele>
        <time>2024-01-27T10:09:35.000Z</time>
        <extensions>
          <ns3:TrackPointExtension>
            <ns3:hr>159</ns3:hr>
            <ns3:cad>90</ns3:cad>
          </ns3:TrackPointExtension>
        </extensions>
      </trkpt>
      <trkpt lat="43.84045413695275783538818359375" lon="4.2480948753654956817626953125">
        <ele>152.600006103515625</ele>
        <time>2024-01-27T10:09:36.000Z</time>
        <extensions>
          <ns3:TrackPointExtension>
            <ns3:hr>159</ns3:hr>
            <ns3:cad>90</ns3:cad>
          </ns3:TrackPointExtension>
        </extensions>
      </trkpt>
      <trkpt lat="43.84042815305292606353759765625" lon="4.24809395335614681243896484375">
        <ele>152.600006103515625</ele>
        <time>2024-01-27T10:09:37.000Z</time>
        <extensions>
          <ns3:TrackPointExtension>
            <ns3:hr>159</ns3:hr>
            <ns3:cad>90</ns3:cad>
          </ns3:TrackPointExtension>
        </extensions>
      </trkpt>
      <trkpt lat="43.840406276285648345947265625" lon="4.24809663556516170501708984375">
        <ele>152.600006103515625</ele>
        <time>2024-01-27T10:09:38.000Z</time>
        <extensions>
          <ns3:TrackPointExtension>
            <ns3:hr>159</ns3:hr>
            <ns3:cad>90</ns3:cad>
          </ns3:TrackPointExtension>
        </extensions>
      </trkpt>
      <trkpt lat="43.8403849862515926361083984375" lon="4.2480878345668315887451171875">
        <ele>152.600006103515625</ele>
        <time>2024-01-27T10:09:39.000Z</time>
        <extensions>
          <ns3:TrackPointExtension>
            <ns3:hr>159</ns3:hr>
            <ns3:cad>91</ns3:cad>
          </ns3:TrackPointExtension>
        </extensions>
      </trkpt>
      <trkpt lat="43.84036646224558353424072265625" lon="4.24808724783360958099365234375">
        <ele>152.8000030517578125</ele>
        <time>2024-01-27T10:09:40.000Z</time>
        <extensions>
          <ns3:TrackPointExtension>
            <ns3:hr>159</ns3:hr>
            <ns3:cad>93</ns3:cad>
          </ns3:TrackPointExtension>
        </extensions>
      </trkpt>
      <trkpt lat="43.84034886024892330169677734375" lon="4.24807400442659854888916015625">
        <ele>153</ele>
        <time>2024-01-27T10:09:41.000Z</time>
        <extensions>
          <ns3:TrackPointExtension>
            <ns3:hr>160</ns3:hr>
            <ns3:cad>93</ns3:cad>
          </ns3:TrackPointExtension>
        </extensions>
      </trkpt>
      <trkpt lat="43.8403330184519290924072265625" lon="4.24806864000856876373291015625">
        <ele>153.1999969482421875</ele>
        <time>2024-01-27T10:09:42.000Z</time>
        <extensions>
          <ns3:TrackPointExtension>
            <ns3:hr>160</ns3:hr>
            <ns3:cad>93</ns3:cad>
          </ns3:TrackPointExtension>
        </extensions>
      </trkpt>
      <trkpt lat="43.84031382389366626739501953125" lon="4.248072914779186248779296875">
        <ele>153.399993896484375</ele>
        <time>2024-01-27T10:09:43.000Z</time>
        <extensions>
          <ns3:TrackPointExtension>
            <ns3:hr>159</ns3:hr>
            <ns3:cad>93</ns3:cad>
          </ns3:TrackPointExtension>
        </extensions>
      </trkpt>
      <trkpt lat="43.84030410088598728179931640625" lon="4.2480893433094024658203125">
        <ele>153.399993896484375</ele>
        <time>2024-01-27T10:09:44.000Z</time>
        <extensions>
          <ns3:TrackPointExtension>
            <ns3:hr>160</ns3:hr>
            <ns3:cad>93</ns3:cad>
          </ns3:TrackPointExtension>
        </extensions>
      </trkpt>
      <trkpt lat="43.8402974791824817657470703125" lon="4.248115830123424530029296875">
        <ele>153.600006103515625</ele>
        <time>2024-01-27T10:09:45.000Z</time>
        <extensions>
          <ns3:TrackPointExtension>
            <ns3:hr>160</ns3:hr>
            <ns3:cad>93</ns3:cad>
          </ns3:TrackPointExtension>
        </extensions>
      </trkpt>
      <trkpt lat="43.8402947969734668731689453125" lon="4.248147346079349517822265625">
        <ele>153.8000030517578125</ele>
        <time>2024-01-27T10:09:46.000Z</time>
        <extensions>
          <ns3:TrackPointExtension>
            <ns3:hr>160</ns3:hr>
            <ns3:cad>92</ns3:cad>
          </ns3:TrackPointExtension>
        </extensions>
      </trkpt>
      <trkpt lat="43.8402917794883251190185546875" lon="4.24816922284662723541259765625">
        <ele>154</ele>
        <time>2024-01-27T10:09:47.000Z</time>
        <extensions>
          <ns3:TrackPointExtension>
            <ns3:hr>160</ns3:hr>
            <ns3:cad>91</ns3:cad>
          </ns3:TrackPointExtension>
        </extensions>
      </trkpt>
      <trkpt lat="43.8402927853167057037353515625" lon="4.2482001520693302154541015625">
        <ele>154.399993896484375</ele>
        <time>2024-01-27T10:09:48.000Z</time>
        <extensions>
          <ns3:TrackPointExtension>
            <ns3:hr>160</ns3:hr>
            <ns3:cad>91</ns3:cad>
          </ns3:TrackPointExtension>
        </extensions>
      </trkpt>
      <trkpt lat="43.84029454551637172698974609375" lon="4.24822487868368625640869140625">
        <ele>154.600006103515625</ele>
        <time>2024-01-27T10:09:49.000Z</time>
        <extensions>
          <ns3:TrackPointExtension>
            <ns3:hr>160</ns3:hr>
            <ns3:cad>92</ns3:cad>
          </ns3:TrackPointExtension>
        </extensions>
      </trkpt>
      <trkpt lat="43.84029270149767398834228515625" lon="4.24825941212475299835205078125">
        <ele>155</ele>
        <time>2024-01-27T10:09:50.000Z</time>
        <extensions>
          <ns3:TrackPointExtension>
            <ns3:hr>160</ns3:hr>
            <ns3:cad>93</ns3:cad>
          </ns3:TrackPointExtension>
        </extensions>
      </trkpt>
      <trkpt lat="43.84029303677380084991455078125" lon="4.24827969633042812347412109375">
        <ele>155.1999969482421875</ele>
        <time>2024-01-27T10:09:51.000Z</time>
        <extensions>
          <ns3:TrackPointExtension>
            <ns3:hr>160</ns3:hr>
            <ns3:cad>93</ns3:cad>
          </ns3:TrackPointExtension>
        </extensions>
      </trkpt>
      <trkpt lat="43.84028968401253223419189453125" lon="4.2483134754002094268798828125">
        <ele>155.1999969482421875</ele>
        <time>2024-01-27T10:09:52.000Z</time>
        <extensions>
          <ns3:TrackPointExtension>
            <ns3:hr>160</ns3:hr>
            <ns3:cad>93</ns3:cad>
          </ns3:TrackPointExtension>
        </extensions>
      </trkpt>
      <trkpt lat="43.8402927853167057037353515625" lon="4.2483369447290897369384765625">
        <ele>155.1999969482421875</ele>
        <time>2024-01-27T10:09:53.000Z</time>
        <extensions>
          <ns3:TrackPointExtension>
            <ns3:hr>160</ns3:hr>
            <ns3:cad>92</ns3:cad>
          </ns3:TrackPointExtension>
        </extensions>
      </trkpt>
      <trkpt lat="43.84030493907630443572998046875" lon="4.24836494028568267822265625">
        <ele>155.1999969482421875</ele>
        <time>2024-01-27T10:09:54.000Z</time>
        <extensions>
          <ns3:TrackPointExtension>
            <ns3:hr>160</ns3:hr>
            <ns3:cad>93</ns3:cad>
          </ns3:TrackPointExtension>
        </extensions>
      </trkpt>
      <trkpt lat="43.84031273424625396728515625" lon="4.24838363192975521087646484375">
        <ele>155.1999969482421875</ele>
        <time>2024-01-27T10:09:55.000Z</time>
        <extensions>
          <ns3:TrackPointExtension>
            <ns3:hr>161</ns3:hr>
            <ns3:cad>92</ns3:cad>
          </ns3:TrackPointExtension>
        </extensions>
      </trkpt>
      <trkpt lat="43.84031617082655429840087890625" lon="4.2484137229621410369873046875">
        <ele>155.1999969482421875</ele>
        <time>2024-01-27T10:09:56.000Z</time>
        <extensions>
          <ns3:TrackPointExtension>
            <ns3:hr>161</ns3:hr>
            <ns3:cad>91</ns3:cad>
          </ns3:TrackPointExtension>
        </extensions>
      </trkpt>
      <trkpt lat="43.84031801484525203704833984375" lon="4.248435683548450469970703125">
        <ele>155</ele>
        <time>2024-01-27T10:09:57.000Z</time>
        <extensions>
          <ns3:TrackPointExtension>
            <ns3:hr>160</ns3:hr>
            <ns3:cad>90</ns3:cad>
          </ns3:TrackPointExtension>
        </extensions>
      </trkpt>
      <trkpt lat="43.8403206132352352142333984375" lon="4.24846895970404148101806640625">
        <ele>155</ele>
        <time>2024-01-27T10:09:58.000Z</time>
        <extensions>
          <ns3:TrackPointExtension>
            <ns3:hr>161</ns3:hr>
            <ns3:cad>88</ns3:cad>
          </ns3:TrackPointExtension>
        </extensions>
      </trkpt>
      <trkpt lat="43.840318433940410614013671875" lon="4.2484941892325878143310546875">
        <ele>154.8000030517578125</ele>
        <time>2024-01-27T10:09:59.000Z</time>
        <extensions>
          <ns3:TrackPointExtension>
            <ns3:hr>161</ns3:hr>
            <ns3:cad>88</ns3:cad>
          </ns3:TrackPointExtension>
        </extensions>
      </trkpt>
      <trkpt lat="43.840310387313365936279296875" lon="4.24852109514176845550537109375">
        <ele>154.600006103515625</ele>
        <time>2024-01-27T10:10:00.000Z</time>
        <extensions>
          <ns3:TrackPointExtension>
            <ns3:hr>160</ns3:hr>
            <ns3:cad>88</ns3:cad>
          </ns3:TrackPointExtension>
        </extensions>
      </trkpt>
      <trkpt lat="43.84029823355376720428466796875" lon="4.2485384456813335418701171875">
        <ele>154.1999969482421875</ele>
        <time>2024-01-27T10:10:01.000Z</time>
        <extensions>
          <ns3:TrackPointExtension>
            <ns3:hr>160</ns3:hr>
            <ns3:cad>89</ns3:cad>
          </ns3:TrackPointExtension>
        </extensions>
      </trkpt>
      <trkpt lat="43.84027929045259952545166015625" lon="4.24854330718517303466796875">
        <ele>154</ele>
        <time>2024-01-27T10:10:02.000Z</time>
        <extensions>
          <ns3:TrackPointExtension>
            <ns3:hr>160</ns3:hr>
            <ns3:cad>89</ns3:cad>
          </ns3:TrackPointExtension>
        </extensions>
      </trkpt>
      <trkpt lat="43.84025850333273410797119140625" lon="4.248540960252285003662109375">
        <ele>153.8000030517578125</ele>
        <time>2024-01-27T10:10:03.000Z</time>
        <extensions>
          <ns3:TrackPointExtension>
            <ns3:hr>160</ns3:hr>
            <ns3:cad>89</ns3:cad>
          </ns3:TrackPointExtension>
        </extensions>
      </trkpt>
      <trkpt lat="43.8402337767183780670166015625" lon="4.248535595834255218505859375">
        <ele>153.600006103515625</ele>
        <time>2024-01-27T10:10:04.000Z</time>
        <extensions>
          <ns3:TrackPointExtension>
            <ns3:hr>160</ns3:hr>
            <ns3:cad>89</ns3:cad>
          </ns3:TrackPointExtension>
        </extensions>
      </trkpt>
      <trkpt lat="43.84021223522722721099853515625" lon="4.2485345900058746337890625">
        <ele>153.399993896484375</ele>
        <time>2024-01-27T10:10:05.000Z</time>
        <extensions>
          <ns3:TrackPointExtension>
            <ns3:hr>160</ns3:hr>
            <ns3:cad>89</ns3:cad>
          </ns3:TrackPointExtension>
        </extensions>
      </trkpt>
      <trkpt lat="43.84019396267831325531005859375" lon="4.248541630804538726806640625">
        <ele>153.399993896484375</ele>
        <time>2024-01-27T10:10:06.000Z</time>
        <extensions>
          <ns3:TrackPointExtension>
            <ns3:hr>159</ns3:hr>
            <ns3:cad>90</ns3:cad>
          </ns3:TrackPointExtension>
        </extensions>
      </trkpt>
      <trkpt lat="43.84018256328999996185302734375" lon="4.24855261109769344329833984375">
        <ele>153.399993896484375</ele>
        <time>2024-01-27T10:10:07.000Z</time>
        <extensions>
          <ns3:TrackPointExtension>
            <ns3:hr>159</ns3:hr>
            <ns3:cad>91</ns3:cad>
          </ns3:TrackPointExtension>
        </extensions>
      </trkpt>
      <trkpt lat="43.8401754386723041534423828125" lon="4.24857406876981258392333984375">
        <ele>153.399993896484375</ele>
        <time>2024-01-27T10:10:08.000Z</time>
        <extensions>
          <ns3:TrackPointExtension>
            <ns3:hr>159</ns3:hr>
            <ns3:cad>92</ns3:cad>
          </ns3:TrackPointExtension>
        </extensions>
      </trkpt>
      <trkpt lat="43.840163536369800567626953125" lon="4.24859267659485340118408203125">
        <ele>153.399993896484375</ele>
        <time>2024-01-27T10:10:09.000Z</time>
        <extensions>
          <ns3:TrackPointExtension>
            <ns3:hr>159</ns3:hr>
            <ns3:cad>92</ns3:cad>
          </ns3:TrackPointExtension>
        </extensions>
      </trkpt>
      <trkpt lat="43.84015507064759731292724609375" lon="4.2486195825040340423583984375">
        <ele>153.399993896484375</ele>
        <time>2024-01-27T10:10:10.000Z</time>
        <extensions>
          <ns3:TrackPointExtension>
            <ns3:hr>159</ns3:hr>
            <ns3:cad>92</ns3:cad>
          </ns3:TrackPointExtension>
        </extensions>
      </trkpt>
      <trkpt lat="43.84015406481921672821044921875" lon="4.24864280037581920623779296875">
        <ele>153.399993896484375</ele>
        <time>2024-01-27T10:10:11.000Z</time>
        <extensions>
          <ns3:TrackPointExtension>
            <ns3:hr>158</ns3:hr>
            <ns3:cad>91</ns3:cad>
          </ns3:TrackPointExtension>
        </extensions>
      </trkpt>
      <trkpt lat="43.84016261436045169830322265625" lon="4.24867180176079273223876953125">
        <ele>153.399993896484375</ele>
        <time>2024-01-27T10:10:12.000Z</time>
        <extensions>
          <ns3:TrackPointExtension>
            <ns3:hr>158</ns3:hr>
            <ns3:cad>90</ns3:cad>
          </ns3:TrackPointExtension>
        </extensions>
      </trkpt>
      <trkpt lat="43.84016328491270542144775390625" lon="4.2486982047557830810546875">
        <ele>153.1999969482421875</ele>
        <time>2024-01-27T10:10:13.000Z</time>
        <extensions>
          <ns3:TrackPointExtension>
            <ns3:hr>158</ns3:hr>
            <ns3:cad>89</ns3:cad>
          </ns3:TrackPointExtension>
        </extensions>
      </trkpt>
      <trkpt lat="43.84015381336212158203125" lon="4.2487275414168834686279296875">
        <ele>152.8000030517578125</ele>
        <time>2024-01-27T10:10:14.000Z</time>
        <extensions>
          <ns3:TrackPointExtension>
            <ns3:hr>158</ns3:hr>
            <ns3:cad>89</ns3:cad>
          </ns3:TrackPointExtension>
        </extensions>
      </trkpt>
      <trkpt lat="43.84014300070703029632568359375" lon="4.248747490346431732177734375">
        <ele>152.600006103515625</ele>
        <time>2024-01-27T10:10:15.000Z</time>
        <extensions>
          <ns3:TrackPointExtension>
            <ns3:hr>158</ns3:hr>
            <ns3:cad>89</ns3:cad>
          </ns3:TrackPointExtension>
        </extensions>
      </trkpt>
      <trkpt lat="43.84012171067297458648681640625" lon="4.2487432993948459625244140625">
        <ele>152.600006103515625</ele>
        <time>2024-01-27T10:10:16.000Z</time>
        <extensions>
          <ns3:TrackPointExtension>
            <ns3:hr>158</ns3:hr>
            <ns3:cad>90</ns3:cad>
          </ns3:TrackPointExtension>
        </extensions>
      </trkpt>
      <trkpt lat="43.8401087187230587005615234375" lon="4.24873416312038898468017578125">
        <ele>152.600006103515625</ele>
        <time>2024-01-27T10:10:17.000Z</time>
        <extensions>
          <ns3:TrackPointExtension>
            <ns3:hr>158</ns3:hr>
            <ns3:cad>90</ns3:cad>
          </ns3:TrackPointExtension>
        </extensions>
      </trkpt>
      <trkpt lat="43.84009069763123989105224609375" lon="4.24873047508299350738525390625">
        <ele>152.600006103515625</ele>
        <time>2024-01-27T10:10:18.000Z</time>
        <extensions>
          <ns3:TrackPointExtension>
            <ns3:hr>158</ns3:hr>
            <ns3:cad>90</ns3:cad>
          </ns3:TrackPointExtension>
        </extensions>
      </trkpt>
      <trkpt lat="43.84007862769067287445068359375" lon="4.2487345822155475616455078125">
        <ele>152.600006103515625</ele>
        <time>2024-01-27T10:10:19.000Z</time>
        <extensions>
          <ns3:TrackPointExtension>
            <ns3:hr>158</ns3:hr>
            <ns3:cad>92</ns3:cad>
          </ns3:TrackPointExtension>
        </extensions>
      </trkpt>
      <trkpt lat="43.8400574214756488800048828125" lon="4.24874849617481231689453125">
        <ele>152.600006103515625</ele>
        <time>2024-01-27T10:10:20.000Z</time>
        <extensions>
          <ns3:TrackPointExtension>
            <ns3:hr>158</ns3:hr>
            <ns3:cad>93</ns3:cad>
          </ns3:TrackPointExtension>
        </extensions>
      </trkpt>
      <trkpt lat="43.84003856219351291656494140625" lon="4.248758889734745025634765625">
        <ele>152.600006103515625</ele>
        <time>2024-01-27T10:10:21.000Z</time>
        <extensions>
          <ns3:TrackPointExtension>
            <ns3:hr>158</ns3:hr>
            <ns3:cad>93</ns3:cad>
          </ns3:TrackPointExtension>
        </extensions>
      </trkpt>
      <trkpt lat="43.84002498351037502288818359375" lon="4.24876584671437740325927734375">
        <ele>152.600006103515625</ele>
        <time>2024-01-27T10:10:22.000Z</time>
        <extensions>
          <ns3:TrackPointExtension>
            <ns3:hr>158</ns3:hr>
            <ns3:cad>92</ns3:cad>
          </ns3:TrackPointExtension>
        </extensions>
      </trkpt>
      <trkpt lat="43.840006627142429351806640625" lon="4.24877858720719814300537109375">
        <ele>152.8000030517578125</ele>
        <time>2024-01-27T10:10:23.000Z</time>
        <extensions>
          <ns3:TrackPointExtension>
            <ns3:hr>158</ns3:hr>
            <ns3:cad>92</ns3:cad>
          </ns3:TrackPointExtension>
        </extensions>
      </trkpt>
      <trkpt lat="43.839987181127071380615234375" lon="4.24879007041454315185546875">
        <ele>152.8000030517578125</ele>
        <time>2024-01-27T10:10:24.000Z</time>
        <extensions>
          <ns3:TrackPointExtension>
            <ns3:hr>158</ns3:hr>
            <ns3:cad>92</ns3:cad>
          </ns3:TrackPointExtension>
        </extensions>
      </trkpt>
      <trkpt lat="43.8399660587310791015625" lon="4.24879610538482666015625">
        <ele>153</ele>
        <time>2024-01-27T10:10:25.000Z</time>
        <extensions>
          <ns3:TrackPointExtension>
            <ns3:hr>158</ns3:hr>
            <ns3:cad>93</ns3:cad>
          </ns3:TrackPointExtension>
        </extensions>
      </trkpt>
      <trkpt lat="43.8399501331150531768798828125" lon="4.24880607984960079193115234375">
        <ele>153</ele>
        <time>2024-01-27T10:10:26.000Z</time>
        <extensions>
          <ns3:TrackPointExtension>
            <ns3:hr>158</ns3:hr>
            <ns3:cad>95</ns3:cad>
          </ns3:TrackPointExtension>
        </extensions>
      </trkpt>
      <trkpt lat="43.8399352133274078369140625" lon="4.24882452003657817840576171875">
        <ele>153</ele>
        <time>2024-01-27T10:10:27.000Z</time>
        <extensions>
          <ns3:TrackPointExtension>
            <ns3:hr>158</ns3:hr>
            <ns3:cad>95</ns3:cad>
          </ns3:TrackPointExtension>
        </extensions>
      </trkpt>
      <trkpt lat="43.83992238901555538177490234375" lon="4.2488445527851581573486328125">
        <ele>153</ele>
        <time>2024-01-27T10:10:28.000Z</time>
        <extensions>
          <ns3:TrackPointExtension>
            <ns3:hr>158</ns3:hr>
            <ns3:cad>95</ns3:cad>
          </ns3:TrackPointExtension>
        </extensions>
      </trkpt>
      <trkpt lat="43.83990244008600711822509765625" lon="4.24886559136211872100830078125">
        <ele>152.8000030517578125</ele>
        <time>2024-01-27T10:10:29.000Z</time>
        <extensions>
          <ns3:TrackPointExtension>
            <ns3:hr>158</ns3:hr>
            <ns3:cad>94</ns3:cad>
          </ns3:TrackPointExtension>
        </extensions>
      </trkpt>
      <trkpt lat="43.83988416753709316253662109375" lon="4.24888101406395435333251953125">
        <ele>152.8000030517578125</ele>
        <time>2024-01-27T10:10:30.000Z</time>
        <extensions>
          <ns3:TrackPointExtension>
            <ns3:hr>158</ns3:hr>
            <ns3:cad>93</ns3:cad>
          </ns3:TrackPointExtension>
        </extensions>
      </trkpt>
      <trkpt lat="43.83986807428300380706787109375" lon="4.2488854564726352691650390625">
        <ele>152.600006103515625</ele>
        <time>2024-01-27T10:10:31.000Z</time>
        <extensions>
          <ns3:TrackPointExtension>
            <ns3:hr>158</ns3:hr>
            <ns3:cad>91</ns3:cad>
          </ns3:TrackPointExtension>
        </extensions>
      </trkpt>
      <trkpt lat="43.8398455269634723663330078125" lon="4.24888419918715953826904296875">
        <ele>152.600006103515625</ele>
        <time>2024-01-27T10:10:32.000Z</time>
        <extensions>
          <ns3:TrackPointExtension>
            <ns3:hr>158</ns3:hr>
            <ns3:cad>91</ns3:cad>
          </ns3:TrackPointExtension>
        </extensions>
      </trkpt>
      <trkpt lat="43.83982591331005096435546875" lon="4.24889123998582363128662109375">
        <ele>152.600006103515625</ele>
        <time>2024-01-27T10:10:33.000Z</time>
        <extensions>
          <ns3:TrackPointExtension>
            <ns3:hr>158</ns3:hr>
            <ns3:cad>91</ns3:cad>
          </ns3:TrackPointExtension>
        </extensions>
      </trkpt>
      <trkpt lat="43.83980252780020236968994140625" lon="4.248903058469295501708984375">
        <ele>152.600006103515625</ele>
        <time>2024-01-27T10:10:34.000Z</time>
        <extensions>
          <ns3:TrackPointExtension>
            <ns3:hr>158</ns3:hr>
            <ns3:cad>92</ns3:cad>
          </ns3:TrackPointExtension>
        </extensions>
      </trkpt>
      <trkpt lat="43.83978559635579586029052734375" lon="4.2489173077046871185302734375">
        <ele>152.8000030517578125</ele>
        <time>2024-01-27T10:10:35.000Z</time>
        <extensions>
          <ns3:TrackPointExtension>
            <ns3:hr>158</ns3:hr>
            <ns3:cad>93</ns3:cad>
          </ns3:TrackPointExtension>
        </extensions>
      </trkpt>
      <trkpt lat="43.83975894190371036529541015625" lon="4.2489223368465900421142578125">
        <ele>152.8000030517578125</ele>
        <time>2024-01-27T10:10:36.000Z</time>
        <extensions>
          <ns3:TrackPointExtension>
            <ns3:hr>159</ns3:hr>
            <ns3:cad>93</ns3:cad>
          </ns3:TrackPointExtension>
        </extensions>
      </trkpt>
      <trkpt lat="43.839738406240940093994140625" lon="4.248921833932399749755859375">
        <ele>153</ele>
        <time>2024-01-27T10:10:37.000Z</time>
        <extensions>
          <ns3:TrackPointExtension>
            <ns3:hr>159</ns3:hr>
            <ns3:cad>92</ns3:cad>
          </ns3:TrackPointExtension>
        </extensions>
      </trkpt>
      <trkpt lat="43.83972239680588245391845703125" lon="4.24891370348632335662841796875">
        <ele>153.1999969482421875</ele>
        <time>2024-01-27T10:10:38.000Z</time>
        <extensions>
          <ns3:TrackPointExtension>
            <ns3:hr>159</ns3:hr>
            <ns3:cad>92</ns3:cad>
          </ns3:TrackPointExtension>
        </extensions>
      </trkpt>
      <trkpt lat="43.83970948867499828338623046875" lon="4.248916804790496826171875">
        <ele>153.399993896484375</ele>
        <time>2024-01-27T10:10:39.000Z</time>
        <extensions>
          <ns3:TrackPointExtension>
            <ns3:hr>159</ns3:hr>
            <ns3:cad>92</ns3:cad>
          </ns3:TrackPointExtension>
        </extensions>
      </trkpt>
      <trkpt lat="43.839692808687686920166015625" lon="4.248933233320713043212890625">
        <ele>153.399993896484375</ele>
        <time>2024-01-27T10:10:40.000Z</time>
        <extensions>
          <ns3:TrackPointExtension>
            <ns3:hr>159</ns3:hr>
            <ns3:cad>94</ns3:cad>
          </ns3:TrackPointExtension>
        </extensions>
      </trkpt>
      <trkpt lat="43.83967746980488300323486328125" lon="4.2489558644592761993408203125">
        <ele>153.600006103515625</ele>
        <time>2024-01-27T10:10:41.000Z</time>
        <extensions>
          <ns3:TrackPointExtension>
            <ns3:hr>159</ns3:hr>
            <ns3:cad>94</ns3:cad>
          </ns3:TrackPointExtension>
        </extensions>
      </trkpt>
      <trkpt lat="43.8396628014743328094482421875" lon="4.24897572956979274749755859375">
        <ele>153.600006103515625</ele>
        <time>2024-01-27T10:10:42.000Z</time>
        <extensions>
          <ns3:TrackPointExtension>
            <ns3:hr>159</ns3:hr>
            <ns3:cad>93</ns3:cad>
          </ns3:TrackPointExtension>
        </extensions>
      </trkpt>
      <trkpt lat="43.83964712731540203094482421875" lon="4.2489974386990070343017578125">
        <ele>153.600006103515625</ele>
        <time>2024-01-27T10:10:43.000Z</time>
        <extensions>
          <ns3:TrackPointExtension>
            <ns3:hr>159</ns3:hr>
            <ns3:cad>92</ns3:cad>
          </ns3:TrackPointExtension>
        </extensions>
      </trkpt>
      <trkpt lat="43.83963002823293209075927734375" lon="4.24901680089533329010009765625">
        <ele>153.600006103515625</ele>
        <time>2024-01-27T10:10:44.000Z</time>
        <extensions>
          <ns3:TrackPointExtension>
            <ns3:hr>159</ns3:hr>
            <ns3:cad>92</ns3:cad>
          </ns3:TrackPointExtension>
        </extensions>
      </trkpt>
      <trkpt lat="43.839611671864986419677734375" lon="4.24903959967195987701416015625">
        <ele>153.399993896484375</ele>
        <time>2024-01-27T10:10:45.000Z</time>
        <extensions>
          <ns3:TrackPointExtension>
            <ns3:hr>159</ns3:hr>
            <ns3:cad>92</ns3:cad>
          </ns3:TrackPointExtension>
        </extensions>
      </trkpt>
      <trkpt lat="43.83959650062024593353271484375" lon="4.2490601353347301483154296875">
        <ele>153.399993896484375</ele>
        <time>2024-01-27T10:10:46.000Z</time>
        <extensions>
          <ns3:TrackPointExtension>
            <ns3:hr>158</ns3:hr>
            <ns3:cad>91</ns3:cad>
          </ns3:TrackPointExtension>
        </extensions>
      </trkpt>
      <trkpt lat="43.839586190879344940185546875" lon="4.24907949753105640411376953125">
        <ele>153.1999969482421875</ele>
        <time>2024-01-27T10:10:47.000Z</time>
        <extensions>
          <ns3:TrackPointExtension>
            <ns3:hr>158</ns3:hr>
            <ns3:cad>91</ns3:cad>
          </ns3:TrackPointExtension>
        </extensions>
      </trkpt>
      <trkpt lat="43.839584179222583770751953125" lon="4.24909391440451145172119140625">
        <ele>153</ele>
        <time>2024-01-27T10:10:48.000Z</time>
        <extensions>
          <ns3:TrackPointExtension>
            <ns3:hr>158</ns3:hr>
            <ns3:cad>91</ns3:cad>
          </ns3:TrackPointExtension>
        </extensions>
      </trkpt>
      <trkpt lat="43.83958124555647373199462890625" lon="4.24911327660083770751953125">
        <ele>153</ele>
        <time>2024-01-27T10:10:49.000Z</time>
        <extensions>
          <ns3:TrackPointExtension>
            <ns3:hr>158</ns3:hr>
            <ns3:cad>90</ns3:cad>
          </ns3:TrackPointExtension>
        </extensions>
      </trkpt>
      <trkpt lat="43.83957571350038051605224609375" lon="4.24912962131202220916748046875">
        <ele>152.600006103515625</ele>
        <time>2024-01-27T10:10:50.000Z</time>
        <extensions>
          <ns3:TrackPointExtension>
            <ns3:hr>158</ns3:hr>
            <ns3:cad>79</ns3:cad>
          </ns3:TrackPointExtension>
        </extensions>
      </trkpt>
      <trkpt lat="43.8395729474723339080810546875" lon="4.24913473427295684814453125">
        <ele>152.399993896484375</ele>
        <time>2024-01-27T10:10:51.000Z</time>
        <extensions>
          <ns3:TrackPointExtension>
            <ns3:hr>158</ns3:hr>
            <ns3:cad>79</ns3:cad>
          </ns3:TrackPointExtension>
        </extensions>
      </trkpt>
      <trkpt lat="43.83957169018685817718505859375" lon="4.2491449601948261260986328125">
        <ele>152.1999969482421875</ele>
        <time>2024-01-27T10:10:52.000Z</time>
        <extensions>
          <ns3:TrackPointExtension>
            <ns3:hr>158</ns3:hr>
            <ns3:cad>79</ns3:cad>
          </ns3:TrackPointExtension>
        </extensions>
      </trkpt>
      <trkpt lat="43.8395695947110652923583984375" lon="4.249159879982471466064453125">
        <ele>152</ele>
        <time>2024-01-27T10:10:53.000Z</time>
        <extensions>
          <ns3:TrackPointExtension>
            <ns3:hr>158</ns3:hr>
            <ns3:cad>79</ns3:cad>
          </ns3:TrackPointExtension>
        </extensions>
      </trkpt>
      <trkpt lat="43.8395679183304309844970703125" lon="4.24917689524590969085693359375">
        <ele>151.399993896484375</ele>
        <time>2024-01-27T10:10:54.000Z</time>
        <extensions>
          <ns3:TrackPointExtension>
            <ns3:hr>158</ns3:hr>
            <ns3:cad>73</ns3:cad>
          </ns3:TrackPointExtension>
        </extensions>
      </trkpt>
      <trkpt lat="43.83956565521657466888427734375" lon="4.24918980337679386138916015625">
        <ele>151</ele>
        <time>2024-01-27T10:10:55.000Z</time>
        <extensions>
          <ns3:TrackPointExtension>
            <ns3:hr>158</ns3:hr>
            <ns3:cad>73</ns3:cad>
          </ns3:TrackPointExtension>
        </extensions>
      </trkpt>
      <trkpt lat="43.83955844677984714508056640625" lon="4.24920656718313694000244140625">
        <ele>150.8000030517578125</ele>
        <time>2024-01-27T10:10:56.000Z</time>
        <extensions>
          <ns3:TrackPointExtension>
            <ns3:hr>158</ns3:hr>
            <ns3:cad>73</ns3:cad>
          </ns3:TrackPointExtension>
        </extensions>
      </trkpt>
      <trkpt lat="43.83955341763794422149658203125" lon="4.24922282807528972625732421875">
        <ele>150.399993896484375</ele>
        <time>2024-01-27T10:10:57.000Z</time>
        <extensions>
          <ns3:TrackPointExtension>
            <ns3:hr>157</ns3:hr>
            <ns3:cad>86</ns3:cad>
          </ns3:TrackPointExtension>
        </extensions>
      </trkpt>
      <trkpt lat="43.8395436108112335205078125" lon="4.24924948252737522125244140625">
        <ele>150</ele>
        <time>2024-01-27T10:10:58.000Z</time>
        <extensions>
          <ns3:TrackPointExtension>
            <ns3:hr>157</ns3:hr>
            <ns3:cad>86</ns3:cad>
          </ns3:TrackPointExtension>
        </extensions>
      </trkpt>
      <trkpt lat="43.839537911117076873779296875" lon="4.2492706887423992156982421875">
        <ele>150</ele>
        <time>2024-01-27T10:10:59.000Z</time>
        <extensions>
          <ns3:TrackPointExtension>
            <ns3:hr>156</ns3:hr>
            <ns3:cad>86</ns3:cad>
          </ns3:TrackPointExtension>
        </extensions>
      </trkpt>
      <trkpt lat="43.83952944539487361907958984375" lon="4.24929843284189701080322265625">
        <ele>150</ele>
        <time>2024-01-27T10:11:00.000Z</time>
        <extensions>
          <ns3:TrackPointExtension>
            <ns3:hr>156</ns3:hr>
            <ns3:cad>85</ns3:cad>
          </ns3:TrackPointExtension>
        </extensions>
      </trkpt>
      <trkpt lat="43.83952416479587554931640625" lon="4.24931251443922519683837890625">
        <ele>150</ele>
        <time>2024-01-27T10:11:01.000Z</time>
        <extensions>
          <ns3:TrackPointExtension>
            <ns3:hr>155</ns3:hr>
            <ns3:cad>85</ns3:cad>
          </ns3:TrackPointExtension>
        </extensions>
      </trkpt>
      <trkpt lat="43.8395149447023868560791015625" lon="4.2493229918181896209716796875">
        <ele>150.1999969482421875</ele>
        <time>2024-01-27T10:11:02.000Z</time>
        <extensions>
          <ns3:TrackPointExtension>
            <ns3:hr>155</ns3:hr>
            <ns3:cad>85</ns3:cad>
          </ns3:TrackPointExtension>
        </extensions>
      </trkpt>
      <trkpt lat="43.83950346149504184722900390625" lon="4.24932709895074367523193359375">
        <ele>150.600006103515625</ele>
        <time>2024-01-27T10:11:03.000Z</time>
        <extensions>
          <ns3:TrackPointExtension>
            <ns3:hr>154</ns3:hr>
            <ns3:cad>85</ns3:cad>
          </ns3:TrackPointExtension>
        </extensions>
      </trkpt>
      <trkpt lat="43.83948929607868194580078125" lon="4.24933724105358123779296875">
        <ele>151.1999969482421875</ele>
        <time>2024-01-27T10:11:04.000Z</time>
        <extensions>
          <ns3:TrackPointExtension>
            <ns3:hr>154</ns3:hr>
            <ns3:cad>87</ns3:cad>
          </ns3:TrackPointExtension>
        </extensions>
      </trkpt>
      <trkpt lat="43.83947697468101978302001953125" lon="4.2493511550128459930419921875">
        <ele>151.399993896484375</ele>
        <time>2024-01-27T10:11:05.000Z</time>
        <extensions>
          <ns3:TrackPointExtension>
            <ns3:hr>154</ns3:hr>
            <ns3:cad>87</ns3:cad>
          </ns3:TrackPointExtension>
        </extensions>
      </trkpt>
      <trkpt lat="43.83946322835981845855712890625" lon="4.24937051720917224884033203125">
        <ele>151.8000030517578125</ele>
        <time>2024-01-27T10:11:06.000Z</time>
        <extensions>
          <ns3:TrackPointExtension>
            <ns3:hr>153</ns3:hr>
            <ns3:cad>87</ns3:cad>
          </ns3:TrackPointExtension>
        </extensions>
      </trkpt>
      <trkpt lat="43.8394492305815219879150390625" lon="4.24937873147428035736083984375">
        <ele>152</ele>
        <time>2024-01-27T10:11:07.000Z</time>
        <extensions>
          <ns3:TrackPointExtension>
            <ns3:hr>153</ns3:hr>
            <ns3:cad>88</ns3:cad>
          </ns3:TrackPointExtension>
        </extensions>
      </trkpt>
      <trkpt lat="43.83943405933678150177001953125" lon="4.2493937350809574127197265625">
        <ele>152.1999969482421875</ele>
        <time>2024-01-27T10:11:08.000Z</time>
        <extensions>
          <ns3:TrackPointExtension>
            <ns3:hr>154</ns3:hr>
            <ns3:cad>89</ns3:cad>
          </ns3:TrackPointExtension>
        </extensions>
      </trkpt>
      <trkpt lat="43.83942425251007080078125" lon="4.24941192381083965301513671875">
        <ele>152.600006103515625</ele>
        <time>2024-01-27T10:11:09.000Z</time>
        <extensions>
          <ns3:TrackPointExtension>
            <ns3:hr>154</ns3:hr>
            <ns3:cad>90</ns3:cad>
          </ns3:TrackPointExtension>
        </extensions>
      </trkpt>
      <trkpt lat="43.83940857835114002227783203125" lon="4.24944578669965267181396484375">
        <ele>153</ele>
        <time>2024-01-27T10:11:10.000Z</time>
        <extensions>
          <ns3:TrackPointExtension>
            <ns3:hr>154</ns3:hr>
            <ns3:cad>90</ns3:cad>
          </ns3:TrackPointExtension>
        </extensions>
      </trkpt>
      <trkpt lat="43.8393945805728435516357421875" lon="4.2494745366275310516357421875">
        <ele>153.1999969482421875</ele>
        <time>2024-01-27T10:11:11.000Z</time>
        <extensions>
          <ns3:TrackPointExtension>
            <ns3:hr>154</ns3:hr>
            <ns3:cad>91</ns3:cad>
          </ns3:TrackPointExtension>
        </extensions>
      </trkpt>
      <trkpt lat="43.83937857113778591156005859375" lon="4.249491132795810699462890625">
        <ele>153.399993896484375</ele>
        <time>2024-01-27T10:11:12.000Z</time>
        <extensions>
          <ns3:TrackPointExtension>
            <ns3:hr>154</ns3:hr>
            <ns3:cad>91</ns3:cad>
          </ns3:TrackPointExtension>
        </extensions>
      </trkpt>
      <trkpt lat="43.8393687643110752105712890625" lon="4.2495016939938068389892578125">
        <ele>153.600006103515625</ele>
        <time>2024-01-27T10:11:13.000Z</time>
        <extensions>
          <ns3:TrackPointExtension>
            <ns3:hr>154</ns3:hr>
            <ns3:cad>93</ns3:cad>
          </ns3:TrackPointExtension>
        </extensions>
      </trkpt>
      <trkpt lat="43.8393536768853664398193359375" lon="4.2495140992105007171630859375">
        <ele>153.8000030517578125</ele>
        <time>2024-01-27T10:11:14.000Z</time>
        <extensions>
          <ns3:TrackPointExtension>
            <ns3:hr>154</ns3:hr>
            <ns3:cad>93</ns3:cad>
          </ns3:TrackPointExtension>
        </extensions>
      </trkpt>
      <trkpt lat="43.839346468448638916015625" lon="4.24952692352235317230224609375">
        <ele>154</ele>
        <time>2024-01-27T10:11:15.000Z</time>
        <extensions>
          <ns3:TrackPointExtension>
            <ns3:hr>153</ns3:hr>
            <ns3:cad>93</ns3:cad>
          </ns3:TrackPointExtension>
        </extensions>
      </trkpt>
      <trkpt lat="43.8393335603177547454833984375" lon="4.2495539970695972442626953125">
        <ele>154.1999969482421875</ele>
        <time>2024-01-27T10:11:16.000Z</time>
        <extensions>
          <ns3:TrackPointExtension>
            <ns3:hr>153</ns3:hr>
            <ns3:cad>91</ns3:cad>
          </ns3:TrackPointExtension>
        </extensions>
      </trkpt>
      <trkpt lat="43.83932643570005893707275390625" lon="4.2495699226856231689453125">
        <ele>154.1999969482421875</ele>
        <time>2024-01-27T10:11:17.000Z</time>
        <extensions>
          <ns3:TrackPointExtension>
            <ns3:hr>153</ns3:hr>
            <ns3:cad>90</ns3:cad>
          </ns3:TrackPointExtension>
        </extensions>
      </trkpt>
      <trkpt lat="43.8393114320933818817138671875" lon="4.24958844669163227081298828125">
        <ele>154.399993896484375</ele>
        <time>2024-01-27T10:11:18.000Z</time>
        <extensions>
          <ns3:TrackPointExtension>
            <ns3:hr>153</ns3:hr>
            <ns3:cad>90</ns3:cad>
          </ns3:TrackPointExtension>
        </extensions>
      </trkpt>
      <trkpt lat="43.83930346928536891937255859375" lon="4.24961208365857601165771484375">
        <ele>154.399993896484375</ele>
        <time>2024-01-27T10:11:19.000Z</time>
        <extensions>
          <ns3:TrackPointExtension>
            <ns3:hr>153</ns3:hr>
            <ns3:cad>89</ns3:cad>
          </ns3:TrackPointExtension>
        </extensions>
      </trkpt>
      <trkpt lat="43.83929626084864139556884765625" lon="4.24964343197643756866455078125">
        <ele>154.399993896484375</ele>
        <time>2024-01-27T10:11:20.000Z</time>
        <extensions>
          <ns3:TrackPointExtension>
            <ns3:hr>153</ns3:hr>
            <ns3:cad>90</ns3:cad>
          </ns3:TrackPointExtension>
        </extensions>
      </trkpt>
      <trkpt lat="43.8392939977347850799560546875" lon="4.2496689967811107635498046875">
        <ele>154.1999969482421875</ele>
        <time>2024-01-27T10:11:21.000Z</time>
        <extensions>
          <ns3:TrackPointExtension>
            <ns3:hr>153</ns3:hr>
            <ns3:cad>90</ns3:cad>
          </ns3:TrackPointExtension>
        </extensions>
      </trkpt>
      <trkpt lat="43.83928268216550350189208984375" lon="4.24969397485256195068359375">
        <ele>154.1999969482421875</ele>
        <time>2024-01-27T10:11:22.000Z</time>
        <extensions>
          <ns3:TrackPointExtension>
            <ns3:hr>153</ns3:hr>
            <ns3:cad>91</ns3:cad>
          </ns3:TrackPointExtension>
        </extensions>
      </trkpt>
      <trkpt lat="43.83927203714847564697265625" lon="4.24971702508628368377685546875">
        <ele>154</ele>
        <time>2024-01-27T10:11:23.000Z</time>
        <extensions>
          <ns3:TrackPointExtension>
            <ns3:hr>153</ns3:hr>
            <ns3:cad>92</ns3:cad>
          </ns3:TrackPointExtension>
        </extensions>
      </trkpt>
      <trkpt lat="43.8392654992640018463134765625" lon="4.2497383989393711090087890625">
        <ele>154</ele>
        <time>2024-01-27T10:11:24.000Z</time>
        <extensions>
          <ns3:TrackPointExtension>
            <ns3:hr>154</ns3:hr>
            <ns3:cad>92</ns3:cad>
          </ns3:TrackPointExtension>
        </extensions>
      </trkpt>
      <trkpt lat="43.83925233967602252960205078125" lon="4.24975608475506305694580078125">
        <ele>154</ele>
        <time>2024-01-27T10:11:25.000Z</time>
        <extensions>
          <ns3:TrackPointExtension>
            <ns3:hr>154</ns3:hr>
            <ns3:cad>92</ns3:cad>
          </ns3:TrackPointExtension>
        </extensions>
      </trkpt>
      <trkpt lat="43.8392430357635021209716796875" lon="4.2497736029326915740966796875">
        <ele>154</ele>
        <time>2024-01-27T10:11:26.000Z</time>
        <extensions>
          <ns3:TrackPointExtension>
            <ns3:hr>155</ns3:hr>
            <ns3:cad>92</ns3:cad>
          </ns3:TrackPointExtension>
        </extensions>
      </trkpt>
      <trkpt lat="43.83923448622226715087890625" lon="4.24980218522250652313232421875">
        <ele>154</ele>
        <time>2024-01-27T10:11:27.000Z</time>
        <extensions>
          <ns3:TrackPointExtension>
            <ns3:hr>156</ns3:hr>
            <ns3:cad>92</ns3:cad>
          </ns3:TrackPointExtension>
        </extensions>
      </trkpt>
      <trkpt lat="43.83922719396650791168212890625" lon="4.2498188652098178863525390625">
        <ele>154</ele>
        <time>2024-01-27T10:11:28.000Z</time>
        <extensions>
          <ns3:TrackPointExtension>
            <ns3:hr>156</ns3:hr>
            <ns3:cad>92</ns3:cad>
          </ns3:TrackPointExtension>
        </extensions>
      </trkpt>
      <trkpt lat="43.83921076543629169464111328125" lon="4.249847196042537689208984375">
        <ele>154</ele>
        <time>2024-01-27T10:11:29.000Z</time>
        <extensions>
          <ns3:TrackPointExtension>
            <ns3:hr>157</ns3:hr>
            <ns3:cad>92</ns3:cad>
          </ns3:TrackPointExtension>
        </extensions>
      </trkpt>
      <trkpt lat="43.8391987793147563934326171875" lon="4.2498708330094814300537109375">
        <ele>154</ele>
        <time>2024-01-27T10:11:30.000Z</time>
        <extensions>
          <ns3:TrackPointExtension>
            <ns3:hr>158</ns3:hr>
            <ns3:cad>91</ns3:cad>
          </ns3:TrackPointExtension>
        </extensions>
      </trkpt>
      <trkpt lat="43.839180506765842437744140625" lon="4.24989673309028148651123046875">
        <ele>154.1999969482421875</ele>
        <time>2024-01-27T10:11:31.000Z</time>
        <extensions>
          <ns3:TrackPointExtension>
            <ns3:hr>158</ns3:hr>
            <ns3:cad>91</ns3:cad>
          </ns3:TrackPointExtension>
        </extensions>
      </trkpt>
      <trkpt lat="43.839167766273021697998046875" lon="4.249916933476924896240234375">
        <ele>154.1999969482421875</ele>
        <time>2024-01-27T10:11:32.000Z</time>
        <extensions>
          <ns3:TrackPointExtension>
            <ns3:hr>158</ns3:hr>
            <ns3:cad>93</ns3:cad>
          </ns3:TrackPointExtension>
        </extensions>
      </trkpt>
      <trkpt lat="43.8391541875898838043212890625" lon="4.2499425821006298065185546875">
        <ele>154.1999969482421875</ele>
        <time>2024-01-27T10:11:33.000Z</time>
        <extensions>
          <ns3:TrackPointExtension>
            <ns3:hr>158</ns3:hr>
            <ns3:cad>93</ns3:cad>
          </ns3:TrackPointExtension>
        </extensions>
      </trkpt>
      <trkpt lat="43.83914555422961711883544921875" lon="4.24996756017208099365234375">
        <ele>154.1999969482421875</ele>
        <time>2024-01-27T10:11:34.000Z</time>
        <extensions>
          <ns3:TrackPointExtension>
            <ns3:hr>158</ns3:hr>
            <ns3:cad>93</ns3:cad>
          </ns3:TrackPointExtension>
        </extensions>
      </trkpt>
      <trkpt lat="43.83913256227970123291015625" lon="4.24999161623418331146240234375">
        <ele>154.1999969482421875</ele>
        <time>2024-01-27T10:11:35.000Z</time>
        <extensions>
          <ns3:TrackPointExtension>
            <ns3:hr>158</ns3:hr>
            <ns3:cad>92</ns3:cad>
          </ns3:TrackPointExtension>
        </extensions>
      </trkpt>
      <trkpt lat="43.83912091143429279327392578125" lon="4.25000838004052639007568359375">
        <ele>154.1999969482421875</ele>
        <time>2024-01-27T10:11:36.000Z</time>
        <extensions>
          <ns3:TrackPointExtension>
            <ns3:hr>158</ns3:hr>
            <ns3:cad>92</ns3:cad>
          </ns3:TrackPointExtension>
        </extensions>
      </trkpt>
      <trkpt lat="43.839105404913425445556640625" lon="4.250017516314983367919921875">
        <ele>154.399993896484375</ele>
        <time>2024-01-27T10:11:37.000Z</time>
        <extensions>
          <ns3:TrackPointExtension>
            <ns3:hr>158</ns3:hr>
            <ns3:cad>91</ns3:cad>
          </ns3:TrackPointExtension>
        </extensions>
      </trkpt>
      <trkpt lat="43.83908587507903575897216796875" lon="4.250027574598789215087890625">
        <ele>154.399993896484375</ele>
        <time>2024-01-27T10:11:38.000Z</time>
        <extensions>
          <ns3:TrackPointExtension>
            <ns3:hr>158</ns3:hr>
            <ns3:cad>91</ns3:cad>
          </ns3:TrackPointExtension>
        </extensions>
      </trkpt>
      <trkpt lat="43.83906760253012180328369140625" lon="4.2500381357967853546142578125">
        <ele>154.600006103515625</ele>
        <time>2024-01-27T10:11:39.000Z</time>
        <extensions>
          <ns3:TrackPointExtension>
            <ns3:hr>158</ns3:hr>
            <ns3:cad>91</ns3:cad>
          </ns3:TrackPointExtension>
        </extensions>
      </trkpt>
      <trkpt lat="43.83905385620892047882080078125" lon="4.25005615688860416412353515625">
        <ele>154.8000030517578125</ele>
        <time>2024-01-27T10:11:40.000Z</time>
        <extensions>
          <ns3:TrackPointExtension>
            <ns3:hr>158</ns3:hr>
            <ns3:cad>93</ns3:cad>
          </ns3:TrackPointExtension>
        </extensions>
      </trkpt>
      <trkpt lat="43.8390418700873851776123046875" lon="4.25007677637040615081787109375">
        <ele>155</ele>
        <time>2024-01-27T10:11:41.000Z</time>
        <extensions>
          <ns3:TrackPointExtension>
            <ns3:hr>158</ns3:hr>
            <ns3:cad>93</ns3:cad>
          </ns3:TrackPointExtension>
        </extensions>
      </trkpt>
      <trkpt lat="43.8390334881842136383056640625" lon="4.25010426901280879974365234375">
        <ele>155</ele>
        <time>2024-01-27T10:11:42.000Z</time>
        <extensions>
          <ns3:TrackPointExtension>
            <ns3:hr>158</ns3:hr>
            <ns3:cad>93</ns3:cad>
          </ns3:TrackPointExtension>
        </extensions>
      </trkpt>
      <trkpt lat="43.839027620851993560791015625" lon="4.2501243017613887786865234375">
        <ele>155</ele>
        <time>2024-01-27T10:11:43.000Z</time>
        <extensions>
          <ns3:TrackPointExtension>
            <ns3:hr>158</ns3:hr>
            <ns3:cad>93</ns3:cad>
          </ns3:TrackPointExtension>
        </extensions>
      </trkpt>
      <trkpt lat="43.83902569301426410675048828125" lon="4.2501511238515377044677734375">
        <ele>155</ele>
        <time>2024-01-27T10:11:44.000Z</time>
        <extensions>
          <ns3:TrackPointExtension>
            <ns3:hr>158</ns3:hr>
            <ns3:cad>91</ns3:cad>
          </ns3:TrackPointExtension>
        </extensions>
      </trkpt>
      <trkpt lat="43.83902301080524921417236328125" lon="4.25017886795103549957275390625">
        <ele>155</ele>
        <time>2024-01-27T10:11:45.000Z</time>
        <extensions>
          <ns3:TrackPointExtension>
            <ns3:hr>158</ns3:hr>
            <ns3:cad>91</ns3:cad>
          </ns3:TrackPointExtension>
        </extensions>
      </trkpt>
      <trkpt lat="43.83902125060558319091796875" lon="4.25020887516438961029052734375">
        <ele>154.600006103515625</ele>
        <time>2024-01-27T10:11:46.000Z</time>
        <extensions>
          <ns3:TrackPointExtension>
            <ns3:hr>158</ns3:hr>
            <ns3:cad>91</ns3:cad>
          </ns3:TrackPointExtension>
        </extensions>
      </trkpt>
      <trkpt lat="43.83901655673980712890625" lon="4.2502349428832530975341796875">
        <ele>154.399993896484375</ele>
        <time>2024-01-27T10:11:47.000Z</time>
        <extensions>
          <ns3:TrackPointExtension>
            <ns3:hr>158</ns3:hr>
            <ns3:cad>91</ns3:cad>
          </ns3:TrackPointExtension>
        </extensions>
      </trkpt>
      <trkpt lat="43.8390090130269527435302734375" lon="4.250256232917308807373046875">
        <ele>154</ele>
        <time>2024-01-27T10:11:48.000Z</time>
        <extensions>
          <ns3:TrackPointExtension>
            <ns3:hr>158</ns3:hr>
            <ns3:cad>93</ns3:cad>
          </ns3:TrackPointExtension>
        </extensions>
      </trkpt>
      <trkpt lat="43.83899970911443233489990234375" lon="4.2502828873693943023681640625">
        <ele>154</ele>
        <time>2024-01-27T10:11:49.000Z</time>
        <extensions>
          <ns3:TrackPointExtension>
            <ns3:hr>158</ns3:hr>
            <ns3:cad>94</ns3:cad>
          </ns3:TrackPointExtension>
        </extensions>
      </trkpt>
      <trkpt lat="43.83898596279323101043701171875" lon="4.25030979327857494354248046875">
        <ele>153.8000030517578125</ele>
        <time>2024-01-27T10:11:50.000Z</time>
        <extensions>
          <ns3:TrackPointExtension>
            <ns3:hr>158</ns3:hr>
            <ns3:cad>94</ns3:cad>
          </ns3:TrackPointExtension>
        </extensions>
      </trkpt>
      <trkpt lat="43.83897456340491771697998046875" lon="4.25034030340611934661865234375">
        <ele>153.8000030517578125</ele>
        <time>2024-01-27T10:11:51.000Z</time>
        <extensions>
          <ns3:TrackPointExtension>
            <ns3:hr>158</ns3:hr>
            <ns3:cad>93</ns3:cad>
          </ns3:TrackPointExtension>
        </extensions>
      </trkpt>
      <trkpt lat="43.8389630801975727081298828125" lon="4.25036360509693622589111328125">
        <ele>153.8000030517578125</ele>
        <time>2024-01-27T10:11:52.000Z</time>
        <extensions>
          <ns3:TrackPointExtension>
            <ns3:hr>158</ns3:hr>
            <ns3:cad>93</ns3:cad>
          </ns3:TrackPointExtension>
        </extensions>
      </trkpt>
      <trkpt lat="43.8389533571898937225341796875" lon="4.2503925226628780364990234375">
        <ele>153.600006103515625</ele>
        <time>2024-01-27T10:11:53.000Z</time>
        <extensions>
          <ns3:TrackPointExtension>
            <ns3:hr>158</ns3:hr>
            <ns3:cad>92</ns3:cad>
          </ns3:TrackPointExtension>
        </extensions>
      </trkpt>
      <trkpt lat="43.8389453105628490447998046875" lon="4.250412471592426300048828125">
        <ele>153.600006103515625</ele>
        <time>2024-01-27T10:11:54.000Z</time>
        <extensions>
          <ns3:TrackPointExtension>
            <ns3:hr>158</ns3:hr>
            <ns3:cad>92</ns3:cad>
          </ns3:TrackPointExtension>
        </extensions>
      </trkpt>
      <trkpt lat="43.83893718011677265167236328125" lon="4.2504389584064483642578125">
        <ele>153.600006103515625</ele>
        <time>2024-01-27T10:11:55.000Z</time>
        <extensions>
          <ns3:TrackPointExtension>
            <ns3:hr>158</ns3:hr>
            <ns3:cad>92</ns3:cad>
          </ns3:TrackPointExtension>
        </extensions>
      </trkpt>
      <trkpt lat="43.8389293849468231201171875" lon="4.25045832060277462005615234375">
        <ele>153.399993896484375</ele>
        <time>2024-01-27T10:11:56.000Z</time>
        <extensions>
          <ns3:TrackPointExtension>
            <ns3:hr>158</ns3:hr>
            <ns3:cad>90</ns3:cad>
          </ns3:TrackPointExtension>
        </extensions>
      </trkpt>
      <trkpt lat="43.838911950588226318359375" lon="4.25048899836838245391845703125">
        <ele>153.1999969482421875</ele>
        <time>2024-01-27T10:11:57.000Z</time>
        <extensions>
          <ns3:TrackPointExtension>
            <ns3:hr>158</ns3:hr>
            <ns3:cad>90</ns3:cad>
          </ns3:TrackPointExtension>
        </extensions>
      </trkpt>
      <trkpt lat="43.8389020599424839019775390625" lon="4.25051070749759674072265625">
        <ele>153.1999969482421875</ele>
        <time>2024-01-27T10:11:58.000Z</time>
        <extensions>
          <ns3:TrackPointExtension>
            <ns3:hr>158</ns3:hr>
            <ns3:cad>91</ns3:cad>
          </ns3:TrackPointExtension>
        </extensions>
      </trkpt>
      <trkpt lat="43.83889040909707546234130859375" lon="4.25053342245519161224365234375">
        <ele>153.1999969482421875</ele>
        <time>2024-01-27T10:11:59.000Z</time>
        <extensions>
          <ns3:TrackPointExtension>
            <ns3:hr>158</ns3:hr>
            <ns3:cad>93</ns3:cad>
          </ns3:TrackPointExtension>
        </extensions>
      </trkpt>
      <trkpt lat="43.83888118900358676910400390625" lon="4.2505517788231372833251953125">
        <ele>153</ele>
        <time>2024-01-27T10:12:00.000Z</time>
        <extensions>
          <ns3:TrackPointExtension>
            <ns3:hr>158</ns3:hr>
            <ns3:cad>93</ns3:cad>
          </ns3:TrackPointExtension>
        </extensions>
      </trkpt>
      <trkpt lat="43.83887213654816150665283203125" lon="4.25057181157171726226806640625">
        <ele>153</ele>
        <time>2024-01-27T10:12:01.000Z</time>
        <extensions>
          <ns3:TrackPointExtension>
            <ns3:hr>158</ns3:hr>
            <ns3:cad>93</ns3:cad>
          </ns3:TrackPointExtension>
        </extensions>
      </trkpt>
      <trkpt lat="43.838868029415607452392578125" lon="4.25059293396770954132080078125">
        <ele>153</ele>
        <time>2024-01-27T10:12:02.000Z</time>
        <extensions>
          <ns3:TrackPointExtension>
            <ns3:hr>158</ns3:hr>
            <ns3:cad>93</ns3:cad>
          </ns3:TrackPointExtension>
        </extensions>
      </trkpt>
      <trkpt lat="43.83886073715984821319580078125" lon="4.2506151460111141204833984375">
        <ele>152.8000030517578125</ele>
        <time>2024-01-27T10:12:03.000Z</time>
        <extensions>
          <ns3:TrackPointExtension>
            <ns3:hr>158</ns3:hr>
            <ns3:cad>93</ns3:cad>
          </ns3:TrackPointExtension>
        </extensions>
      </trkpt>
      <trkpt lat="43.8388561271131038665771484375" lon="4.2506298981606960296630859375">
        <ele>152.8000030517578125</ele>
        <time>2024-01-27T10:12:04.000Z</time>
        <extensions>
          <ns3:TrackPointExtension>
            <ns3:hr>158</ns3:hr>
            <ns3:cad>93</ns3:cad>
          </ns3:TrackPointExtension>
        </extensions>
      </trkpt>
      <trkpt lat="43.83884782902896404266357421875" lon="4.25064456649124622344970703125">
        <ele>152.399993896484375</ele>
        <time>2024-01-27T10:12:05.000Z</time>
        <extensions>
          <ns3:TrackPointExtension>
            <ns3:hr>158</ns3:hr>
            <ns3:cad>93</ns3:cad>
          </ns3:TrackPointExtension>
        </extensions>
      </trkpt>
      <trkpt lat="43.83883894421160221099853515625" lon="4.25066937692463397979736328125">
        <ele>152.399993896484375</ele>
        <time>2024-01-27T10:12:06.000Z</time>
        <extensions>
          <ns3:TrackPointExtension>
            <ns3:hr>158</ns3:hr>
            <ns3:cad>93</ns3:cad>
          </ns3:TrackPointExtension>
        </extensions>
      </trkpt>
      <trkpt lat="43.8388301432132720947265625" lon="4.25069167278707027435302734375">
        <ele>152.399993896484375</ele>
        <time>2024-01-27T10:12:07.000Z</time>
        <extensions>
          <ns3:TrackPointExtension>
            <ns3:hr>158</ns3:hr>
            <ns3:cad>90</ns3:cad>
          </ns3:TrackPointExtension>
        </extensions>
      </trkpt>
      <trkpt lat="43.83881798945367336273193359375" lon="4.250715561211109161376953125">
        <ele>152.1999969482421875</ele>
        <time>2024-01-27T10:12:08.000Z</time>
        <extensions>
          <ns3:TrackPointExtension>
            <ns3:hr>158</ns3:hr>
            <ns3:cad>90</ns3:cad>
          </ns3:TrackPointExtension>
        </extensions>
      </trkpt>
      <trkpt lat="43.83880876936018466949462890625" lon="4.25073542632162570953369140625">
        <ele>152.1999969482421875</ele>
        <time>2024-01-27T10:12:09.000Z</time>
        <extensions>
          <ns3:TrackPointExtension>
            <ns3:hr>158</ns3:hr>
            <ns3:cad>91</ns3:cad>
          </ns3:TrackPointExtension>
        </extensions>
      </trkpt>
      <trkpt lat="43.83879435248672962188720703125" lon="4.25076627172529697418212890625">
        <ele>152.1999969482421875</ele>
        <time>2024-01-27T10:12:10.000Z</time>
        <extensions>
          <ns3:TrackPointExtension>
            <ns3:hr>158</ns3:hr>
            <ns3:cad>91</ns3:cad>
          </ns3:TrackPointExtension>
        </extensions>
      </trkpt>
      <trkpt lat="43.83878429420292377471923828125" lon="4.25078487955033779144287109375">
        <ele>152</ele>
        <time>2024-01-27T10:12:11.000Z</time>
        <extensions>
          <ns3:TrackPointExtension>
            <ns3:hr>158</ns3:hr>
            <ns3:cad>93</ns3:cad>
          </ns3:TrackPointExtension>
        </extensions>
      </trkpt>
      <trkpt lat="43.8387696258723735809326171875" lon="4.2508126236498355865478515625">
        <ele>152</ele>
        <time>2024-01-27T10:12:12.000Z</time>
        <extensions>
          <ns3:TrackPointExtension>
            <ns3:hr>158</ns3:hr>
            <ns3:cad>93</ns3:cad>
          </ns3:TrackPointExtension>
        </extensions>
      </trkpt>
      <trkpt lat="43.83876233361661434173583984375" lon="4.25082997418940067291259765625">
        <ele>152</ele>
        <time>2024-01-27T10:12:13.000Z</time>
        <extensions>
          <ns3:TrackPointExtension>
            <ns3:hr>158</ns3:hr>
            <ns3:cad>91</ns3:cad>
          </ns3:TrackPointExtension>
        </extensions>
      </trkpt>
      <trkpt lat="43.83874892257153987884521484375" lon="4.25084539689123630523681640625">
        <ele>152</ele>
        <time>2024-01-27T10:12:14.000Z</time>
        <extensions>
          <ns3:TrackPointExtension>
            <ns3:hr>157</ns3:hr>
            <ns3:cad>91</ns3:cad>
          </ns3:TrackPointExtension>
        </extensions>
      </trkpt>
      <trkpt lat="43.8387387804687023162841796875" lon="4.2508629150688648223876953125">
        <ele>152</ele>
        <time>2024-01-27T10:12:15.000Z</time>
        <extensions>
          <ns3:TrackPointExtension>
            <ns3:hr>157</ns3:hr>
            <ns3:cad>91</ns3:cad>
          </ns3:TrackPointExtension>
        </extensions>
      </trkpt>
      <trkpt lat="43.83872394450008869171142578125" lon="4.2508800141513347625732421875">
        <ele>152</ele>
        <time>2024-01-27T10:12:16.000Z</time>
        <extensions>
          <ns3:TrackPointExtension>
            <ns3:hr>157</ns3:hr>
            <ns3:cad>92</ns3:cad>
          </ns3:TrackPointExtension>
        </extensions>
      </trkpt>
      <trkpt lat="43.838714472949504852294921875" lon="4.2508997954428195953369140625">
        <ele>152.1999969482421875</ele>
        <time>2024-01-27T10:12:17.000Z</time>
        <extensions>
          <ns3:TrackPointExtension>
            <ns3:hr>157</ns3:hr>
            <ns3:cad>93</ns3:cad>
          </ns3:TrackPointExtension>
        </extensions>
      </trkpt>
      <trkpt lat="43.8387062586843967437744140625" lon="4.25091949291527271270751953125">
        <ele>152.399993896484375</ele>
        <time>2024-01-27T10:12:18.000Z</time>
        <extensions>
          <ns3:TrackPointExtension>
            <ns3:hr>156</ns3:hr>
            <ns3:cad>93</ns3:cad>
          </ns3:TrackPointExtension>
        </extensions>
      </trkpt>
      <trkpt lat="43.83870282210409641265869140625" lon="4.25094346515834331512451171875">
        <ele>152.399993896484375</ele>
        <time>2024-01-27T10:12:19.000Z</time>
        <extensions>
          <ns3:TrackPointExtension>
            <ns3:hr>156</ns3:hr>
            <ns3:cad>93</ns3:cad>
          </ns3:TrackPointExtension>
        </extensions>
      </trkpt>
      <trkpt lat="43.83870206773281097412109375" lon="4.25095997750759124755859375">
        <ele>152.399993896484375</ele>
        <time>2024-01-27T10:12:20.000Z</time>
        <extensions>
          <ns3:TrackPointExtension>
            <ns3:hr>156</ns3:hr>
            <ns3:cad>96</ns3:cad>
          </ns3:TrackPointExtension>
        </extensions>
      </trkpt>
      <trkpt lat="43.83869745768606662750244140625" lon="4.25098470412194728851318359375">
        <ele>152.399993896484375</ele>
        <time>2024-01-27T10:12:21.000Z</time>
        <extensions>
          <ns3:TrackPointExtension>
            <ns3:hr>156</ns3:hr>
            <ns3:cad>96</ns3:cad>
          </ns3:TrackPointExtension>
        </extensions>
      </trkpt>
      <trkpt lat="43.83869024924933910369873046875" lon="4.25101605243980884552001953125">
        <ele>152</ele>
        <time>2024-01-27T10:12:22.000Z</time>
        <extensions>
          <ns3:TrackPointExtension>
            <ns3:hr>156</ns3:hr>
            <ns3:cad>96</ns3:cad>
          </ns3:TrackPointExtension>
        </extensions>
      </trkpt>
      <trkpt lat="43.83868153207004070281982421875" lon="4.251038767397403717041015625">
        <ele>151.600006103515625</ele>
        <time>2024-01-27T10:12:23.000Z</time>
        <extensions>
          <ns3:TrackPointExtension>
            <ns3:hr>156</ns3:hr>
            <ns3:cad>93</ns3:cad>
          </ns3:TrackPointExtension>
        </extensions>
      </trkpt>
      <trkpt lat="43.83867382071912288665771484375" lon="4.251064248383045196533203125">
        <ele>151.600006103515625</ele>
        <time>2024-01-27T10:12:24.000Z</time>
        <extensions>
          <ns3:TrackPointExtension>
            <ns3:hr>156</ns3:hr>
            <ns3:cad>93</ns3:cad>
          </ns3:TrackPointExtension>
        </extensions>
      </trkpt>
      <trkpt lat="43.83866510353982448577880859375" lon="4.2510902322828769683837890625">
        <ele>151.600006103515625</ele>
        <time>2024-01-27T10:12:25.000Z</time>
        <extensions>
          <ns3:TrackPointExtension>
            <ns3:hr>156</ns3:hr>
            <ns3:cad>93</ns3:cad>
          </ns3:TrackPointExtension>
        </extensions>
      </trkpt>
      <trkpt lat="43.83865839801728725433349609375" lon="4.251116551458835601806640625">
        <ele>151.600006103515625</ele>
        <time>2024-01-27T10:12:26.000Z</time>
        <extensions>
          <ns3:TrackPointExtension>
            <ns3:hr>156</ns3:hr>
            <ns3:cad>93</ns3:cad>
          </ns3:TrackPointExtension>
        </extensions>
      </trkpt>
      <trkpt lat="43.8386522792279720306396484375" lon="4.25113976933062076568603515625">
        <ele>151.600006103515625</ele>
        <time>2024-01-27T10:12:27.000Z</time>
        <extensions>
          <ns3:TrackPointExtension>
            <ns3:hr>155</ns3:hr>
            <ns3:cad>93</ns3:cad>
          </ns3:TrackPointExtension>
        </extensions>
      </trkpt>
      <trkpt lat="43.83864766918122768402099609375" lon="4.25116248428821563720703125">
        <ele>151.8000030517578125</ele>
        <time>2024-01-27T10:12:28.000Z</time>
        <extensions>
          <ns3:TrackPointExtension>
            <ns3:hr>155</ns3:hr>
            <ns3:cad>93</ns3:cad>
          </ns3:TrackPointExtension>
        </extensions>
      </trkpt>
      <trkpt lat="43.83863911963999271392822265625" lon="4.25118285231292247772216796875">
        <ele>151.8000030517578125</ele>
        <time>2024-01-27T10:12:29.000Z</time>
        <extensions>
          <ns3:TrackPointExtension>
            <ns3:hr>154</ns3:hr>
            <ns3:cad>93</ns3:cad>
          </ns3:TrackPointExtension>
        </extensions>
      </trkpt>
      <trkpt lat="43.83862973190844058990478515625" lon="4.251202382147312164306640625">
        <ele>151.8000030517578125</ele>
        <time>2024-01-27T10:12:30.000Z</time>
        <extensions>
          <ns3:TrackPointExtension>
            <ns3:hr>153</ns3:hr>
            <ns3:cad>93</ns3:cad>
          </ns3:TrackPointExtension>
        </extensions>
      </trkpt>
      <trkpt lat="43.8386190868914127349853515625" lon="4.25122157670557498931884765625">
        <ele>152</ele>
        <time>2024-01-27T10:12:31.000Z</time>
        <extensions>
          <ns3:TrackPointExtension>
            <ns3:hr>152</ns3:hr>
            <ns3:cad>93</ns3:cad>
          </ns3:TrackPointExtension>
        </extensions>
      </trkpt>
      <trkpt lat="43.83860684931278228759765625" lon="4.25124253146350383758544921875">
        <ele>152</ele>
        <time>2024-01-27T10:12:32.000Z</time>
        <extensions>
          <ns3:TrackPointExtension>
            <ns3:hr>151</ns3:hr>
            <ns3:cad>87</ns3:cad>
          </ns3:TrackPointExtension>
        </extensions>
      </trkpt>
      <trkpt lat="43.83859477937221527099609375" lon="4.25125342793762683868408203125">
        <ele>152</ele>
        <time>2024-01-27T10:12:33.000Z</time>
        <extensions>
          <ns3:TrackPointExtension>
            <ns3:hr>150</ns3:hr>
            <ns3:cad>87</ns3:cad>
          </ns3:TrackPointExtension>
        </extensions>
      </trkpt>
      <trkpt lat="43.8385791890323162078857421875" lon="4.2512570321559906005859375">
        <ele>152.1999969482421875</ele>
        <time>2024-01-27T10:12:34.000Z</time>
        <extensions>
          <ns3:TrackPointExtension>
            <ns3:hr>150</ns3:hr>
            <ns3:cad>87</ns3:cad>
          </ns3:TrackPointExtension>
        </extensions>
      </trkpt>
      <trkpt lat="43.8385646045207977294921875" lon="4.25125041045248508453369140625">
        <ele>152.600006103515625</ele>
        <time>2024-01-27T10:12:35.000Z</time>
        <extensions>
          <ns3:TrackPointExtension>
            <ns3:hr>149</ns3:hr>
            <ns3:cad>89</ns3:cad>
          </ns3:TrackPointExtension>
        </extensions>
      </trkpt>
      <trkpt lat="43.83855320513248443603515625" lon="4.25124722532927989959716796875">
        <ele>153</ele>
        <time>2024-01-27T10:12:36.000Z</time>
        <extensions>
          <ns3:TrackPointExtension>
            <ns3:hr>149</ns3:hr>
            <ns3:cad>90</ns3:cad>
          </ns3:TrackPointExtension>
        </extensions>
      </trkpt>
      <trkpt lat="43.8385439850389957427978515625" lon="4.25123230554163455963134765625">
        <ele>153.399993896484375</ele>
        <time>2024-01-27T10:12:37.000Z</time>
        <extensions>
          <ns3:TrackPointExtension>
            <ns3:hr>149</ns3:hr>
            <ns3:cad>90</ns3:cad>
          </ns3:TrackPointExtension>
        </extensions>
      </trkpt>
      <trkpt lat="43.838532753288745880126953125" lon="4.2512270249426364898681640625">
        <ele>153.8000030517578125</ele>
        <time>2024-01-27T10:12:38.000Z</time>
        <extensions>
          <ns3:TrackPointExtension>
            <ns3:hr>148</ns3:hr>
            <ns3:cad>88</ns3:cad>
          </ns3:TrackPointExtension>
        </extensions>
      </trkpt>
      <trkpt lat="43.83851422928273677825927734375" lon="4.2512156255543231964111328125">
        <ele>154.1999969482421875</ele>
        <time>2024-01-27T10:12:39.000Z</time>
        <extensions>
          <ns3:TrackPointExtension>
            <ns3:hr>148</ns3:hr>
            <ns3:cad>87</ns3:cad>
          </ns3:TrackPointExtension>
        </extensions>
      </trkpt>
      <trkpt lat="43.8384993933141231536865234375" lon="4.25121076405048370361328125">
        <ele>154.8000030517578125</ele>
        <time>2024-01-27T10:12:40.000Z</time>
        <extensions>
          <ns3:TrackPointExtension>
            <ns3:hr>148</ns3:hr>
            <ns3:cad>86</ns3:cad>
          </ns3:TrackPointExtension>
        </extensions>
      </trkpt>
      <trkpt lat="43.83848673664033412933349609375" lon="4.2512085847556591033935546875">
        <ele>155.1999969482421875</ele>
        <time>2024-01-27T10:12:41.000Z</time>
        <extensions>
          <ns3:TrackPointExtension>
            <ns3:hr>148</ns3:hr>
            <ns3:cad>86</ns3:cad>
          </ns3:TrackPointExtension>
        </extensions>
      </trkpt>
      <trkpt lat="43.8384735770523548126220703125" lon="4.2512156255543231964111328125">
        <ele>155.8000030517578125</ele>
        <time>2024-01-27T10:12:42.000Z</time>
        <extensions>
          <ns3:TrackPointExtension>
            <ns3:hr>148</ns3:hr>
            <ns3:cad>89</ns3:cad>
          </ns3:TrackPointExtension>
        </extensions>
      </trkpt>
      <trkpt lat="43.83845865726470947265625" lon="4.2512141168117523193359375">
        <ele>156.399993896484375</ele>
        <time>2024-01-27T10:12:43.000Z</time>
        <extensions>
          <ns3:TrackPointExtension>
            <ns3:hr>149</ns3:hr>
            <ns3:cad>90</ns3:cad>
          </ns3:TrackPointExtension>
        </extensions>
      </trkpt>
      <trkpt lat="43.83844549767673015594482421875" lon="4.25121034495532512664794921875">
        <ele>156.8000030517578125</ele>
        <time>2024-01-27T10:12:44.000Z</time>
        <extensions>
          <ns3:TrackPointExtension>
            <ns3:hr>149</ns3:hr>
            <ns3:cad>91</ns3:cad>
          </ns3:TrackPointExtension>
        </extensions>
      </trkpt>
      <trkpt lat="43.83843342773616313934326171875" lon="4.25119894556701183319091796875">
        <ele>157</ele>
        <time>2024-01-27T10:12:45.000Z</time>
        <extensions>
          <ns3:TrackPointExtension>
            <ns3:hr>149</ns3:hr>
            <ns3:cad>91</ns3:cad>
          </ns3:TrackPointExtension>
        </extensions>
      </trkpt>
      <trkpt lat="43.83842269890010356903076171875" lon="4.25119291059672832489013671875">
        <ele>157.600006103515625</ele>
        <time>2024-01-27T10:12:46.000Z</time>
        <extensions>
          <ns3:TrackPointExtension>
            <ns3:hr>149</ns3:hr>
            <ns3:cad>91</ns3:cad>
          </ns3:TrackPointExtension>
        </extensions>
      </trkpt>
      <trkpt lat="43.83841901086270809173583984375" lon="4.25117212347686290740966796875">
        <ele>158</ele>
        <time>2024-01-27T10:12:47.000Z</time>
        <extensions>
          <ns3:TrackPointExtension>
            <ns3:hr>150</ns3:hr>
            <ns3:cad>91</ns3:cad>
          </ns3:TrackPointExtension>
        </extensions>
      </trkpt>
      <trkpt lat="43.83841917850077152252197265625" lon="4.2511532641947269439697265625">
        <ele>158.399993896484375</ele>
        <time>2024-01-27T10:12:48.000Z</time>
        <extensions>
          <ns3:TrackPointExtension>
            <ns3:hr>150</ns3:hr>
            <ns3:cad>92</ns3:cad>
          </ns3:TrackPointExtension>
        </extensions>
      </trkpt>
      <trkpt lat="43.83842454291880130767822265625" lon="4.25113155506551265716552734375">
        <ele>158.8000030517578125</ele>
        <time>2024-01-27T10:12:49.000Z</time>
        <extensions>
          <ns3:TrackPointExtension>
            <ns3:hr>150</ns3:hr>
            <ns3:cad>92</ns3:cad>
          </ns3:TrackPointExtension>
        </extensions>
      </trkpt>
      <trkpt lat="43.83842714130878448486328125" lon="4.25110573880374431610107421875">
        <ele>158.8000030517578125</ele>
        <time>2024-01-27T10:12:50.000Z</time>
        <extensions>
          <ns3:TrackPointExtension>
            <ns3:hr>150</ns3:hr>
            <ns3:cad>92</ns3:cad>
          </ns3:TrackPointExtension>
        </extensions>
      </trkpt>
      <trkpt lat="43.83843057788908481597900390625" lon="4.25107774324715137481689453125">
        <ele>159</ele>
        <time>2024-01-27T10:12:51.000Z</time>
        <extensions>
          <ns3:TrackPointExtension>
            <ns3:hr>150</ns3:hr>
            <ns3:cad>92</ns3:cad>
          </ns3:TrackPointExtension>
        </extensions>
      </trkpt>
      <trkpt lat="43.83843359537422657012939453125" lon="4.2510451376438140869140625">
        <ele>159</ele>
        <time>2024-01-27T10:12:52.000Z</time>
        <extensions>
          <ns3:TrackPointExtension>
            <ns3:hr>150</ns3:hr>
            <ns3:cad>93</ns3:cad>
          </ns3:TrackPointExtension>
        </extensions>
      </trkpt>
      <trkpt lat="43.83843652904033660888671875" lon="4.251025021076202392578125">
        <ele>159.1999969482421875</ele>
        <time>2024-01-27T10:12:53.000Z</time>
        <extensions>
          <ns3:TrackPointExtension>
            <ns3:hr>150</ns3:hr>
            <ns3:cad>94</ns3:cad>
          </ns3:TrackPointExtension>
        </extensions>
      </trkpt>
      <trkpt lat="43.83844063617289066314697265625" lon="4.25099308602511882781982421875">
        <ele>159.399993896484375</ele>
        <time>2024-01-27T10:12:54.000Z</time>
        <extensions>
          <ns3:TrackPointExtension>
            <ns3:hr>150</ns3:hr>
            <ns3:cad>94</ns3:cad>
          </ns3:TrackPointExtension>
        </extensions>
      </trkpt>
      <trkpt lat="43.8384413905441761016845703125" lon="4.250963665544986724853515625">
        <ele>159.600006103515625</ele>
        <time>2024-01-27T10:12:55.000Z</time>
        <extensions>
          <ns3:TrackPointExtension>
            <ns3:hr>150</ns3:hr>
            <ns3:cad>93</ns3:cad>
          </ns3:TrackPointExtension>
        </extensions>
      </trkpt>
      <trkpt lat="43.83843787014484405517578125" lon="4.25093458034098148345947265625">
        <ele>160</ele>
        <time>2024-01-27T10:12:56.000Z</time>
        <extensions>
          <ns3:TrackPointExtension>
            <ns3:hr>151</ns3:hr>
            <ns3:cad>93</ns3:cad>
          </ns3:TrackPointExtension>
        </extensions>
      </trkpt>
      <trkpt lat="43.83843426592648029327392578125" lon="4.25091681070625782012939453125">
        <ele>160</ele>
        <time>2024-01-27T10:12:57.000Z</time>
        <extensions>
          <ns3:TrackPointExtension>
            <ns3:hr>154</ns3:hr>
            <ns3:cad>92</ns3:cad>
          </ns3:TrackPointExtension>
        </extensions>
      </trkpt>
      <trkpt lat="43.8384236209094524383544921875" lon="4.2508957721292972564697265625">
        <ele>160.399993896484375</ele>
        <time>2024-01-27T10:12:58.000Z</time>
        <extensions>
          <ns3:TrackPointExtension>
            <ns3:hr>158</ns3:hr>
            <ns3:cad>93</ns3:cad>
          </ns3:TrackPointExtension>
        </extensions>
      </trkpt>
      <trkpt lat="43.83841465227305889129638671875" lon="4.25088076852262020111083984375">
        <ele>160.8000030517578125</ele>
        <time>2024-01-27T10:12:59.000Z</time>
        <extensions>
          <ns3:TrackPointExtension>
            <ns3:hr>159</ns3:hr>
            <ns3:cad>92</ns3:cad>
          </ns3:TrackPointExtension>
        </extensions>
      </trkpt>
      <trkpt lat="43.8384018279612064361572265625" lon="4.2508686147630214691162109375">
        <ele>161.1999969482421875</ele>
        <time>2024-01-27T10:13:00.000Z</time>
        <extensions>
          <ns3:TrackPointExtension>
            <ns3:hr>160</ns3:hr>
            <ns3:cad>92</ns3:cad>
          </ns3:TrackPointExtension>
        </extensions>
      </trkpt>
      <trkpt lat="43.8383887521922588348388671875" lon="4.250858724117279052734375">
        <ele>161.600006103515625</ele>
        <time>2024-01-27T10:13:01.000Z</time>
        <extensions>
          <ns3:TrackPointExtension>
            <ns3:hr>160</ns3:hr>
            <ns3:cad>92</ns3:cad>
          </ns3:TrackPointExtension>
        </extensions>
      </trkpt>
      <trkpt lat="43.838378526270389556884765625" lon="4.2508427985012531280517578125">
        <ele>162.1999969482421875</ele>
        <time>2024-01-27T10:13:02.000Z</time>
        <extensions>
          <ns3:TrackPointExtension>
            <ns3:hr>160</ns3:hr>
            <ns3:cad>91</ns3:cad>
          </ns3:TrackPointExtension>
        </extensions>
      </trkpt>
      <trkpt lat="43.838365785777568817138671875" lon="4.25082854926586151123046875">
        <ele>162.399993896484375</ele>
        <time>2024-01-27T10:13:03.000Z</time>
        <extensions>
          <ns3:TrackPointExtension>
            <ns3:hr>160</ns3:hr>
            <ns3:cad>91</ns3:cad>
          </ns3:TrackPointExtension>
        </extensions>
      </trkpt>
      <trkpt lat="43.83835203945636749267578125" lon="4.25080952234566211700439453125">
        <ele>163</ele>
        <time>2024-01-27T10:13:04.000Z</time>
        <extensions>
          <ns3:TrackPointExtension>
            <ns3:hr>159</ns3:hr>
            <ns3:cad>92</ns3:cad>
          </ns3:TrackPointExtension>
        </extensions>
      </trkpt>
      <trkpt lat="43.83834223262965679168701171875" lon="4.25080214627087116241455078125">
        <ele>163.1999969482421875</ele>
        <time>2024-01-27T10:13:05.000Z</time>
        <extensions>
          <ns3:TrackPointExtension>
            <ns3:hr>159</ns3:hr>
            <ns3:cad>92</ns3:cad>
          </ns3:TrackPointExtension>
        </extensions>
      </trkpt>
      <trkpt lat="43.838330246508121490478515625" lon="4.250783286988735198974609375">
        <ele>163.399993896484375</ele>
        <time>2024-01-27T10:13:06.000Z</time>
        <extensions>
          <ns3:TrackPointExtension>
            <ns3:hr>159</ns3:hr>
            <ns3:cad>90</ns3:cad>
          </ns3:TrackPointExtension>
        </extensions>
      </trkpt>
      <trkpt lat="43.8383223675191402435302734375" lon="4.2507697083055973052978515625">
        <ele>164</ele>
        <time>2024-01-27T10:13:07.000Z</time>
        <extensions>
          <ns3:TrackPointExtension>
            <ns3:hr>159</ns3:hr>
            <ns3:cad>90</ns3:cad>
          </ns3:TrackPointExtension>
        </extensions>
      </trkpt>
      <trkpt lat="43.83831038139760494232177734375" lon="4.25075956620275974273681640625">
        <ele>164.1999969482421875</ele>
        <time>2024-01-27T10:13:08.000Z</time>
        <extensions>
          <ns3:TrackPointExtension>
            <ns3:hr>159</ns3:hr>
            <ns3:cad>90</ns3:cad>
          </ns3:TrackPointExtension>
        </extensions>
      </trkpt>
      <trkpt lat="43.838300742208957672119140625" lon="4.25075344741344451904296875">
        <ele>164.600006103515625</ele>
        <time>2024-01-27T10:13:09.000Z</time>
        <extensions>
          <ns3:TrackPointExtension>
            <ns3:hr>158</ns3:hr>
            <ns3:cad>88</ns3:cad>
          </ns3:TrackPointExtension>
        </extensions>
      </trkpt>
      <trkpt lat="43.83828766644001007080078125" lon="4.2507445625960826873779296875">
        <ele>164.8000030517578125</ele>
        <time>2024-01-27T10:13:10.000Z</time>
        <extensions>
          <ns3:TrackPointExtension>
            <ns3:hr>158</ns3:hr>
            <ns3:cad>88</ns3:cad>
          </ns3:TrackPointExtension>
        </extensions>
      </trkpt>
      <trkpt lat="43.83827283047139644622802734375" lon="4.2507422156631946563720703125">
        <ele>165.1999969482421875</ele>
        <time>2024-01-27T10:13:11.000Z</time>
        <extensions>
          <ns3:TrackPointExtension>
            <ns3:hr>158</ns3:hr>
            <ns3:cad>88</ns3:cad>
          </ns3:TrackPointExtension>
        </extensions>
      </trkpt>
      <trkpt lat="43.83825656957924365997314453125" lon="4.25073475576937198638916015625">
        <ele>165.600006103515625</ele>
        <time>2024-01-27T10:13:12.000Z</time>
        <extensions>
          <ns3:TrackPointExtension>
            <ns3:hr>158</ns3:hr>
            <ns3:cad>88</ns3:cad>
          </ns3:TrackPointExtension>
        </extensions>
      </trkpt>
      <trkpt lat="43.838242404162883758544921875" lon="4.250735677778720855712890625">
        <ele>166</ele>
        <time>2024-01-27T10:13:13.000Z</time>
        <extensions>
          <ns3:TrackPointExtension>
            <ns3:hr>158</ns3:hr>
            <ns3:cad>89</ns3:cad>
          </ns3:TrackPointExtension>
        </extensions>
      </trkpt>
      <trkpt lat="43.838224969804286956787109375" lon="4.2507271282374858856201171875">
        <ele>166.1999969482421875</ele>
        <time>2024-01-27T10:13:14.000Z</time>
        <extensions>
          <ns3:TrackPointExtension>
            <ns3:hr>158</ns3:hr>
            <ns3:cad>93</ns3:cad>
          </ns3:TrackPointExtension>
        </extensions>
      </trkpt>
      <trkpt lat="43.83820694871246814727783203125" lon="4.250717572867870330810546875">
        <ele>166.600006103515625</ele>
        <time>2024-01-27T10:13:15.000Z</time>
        <extensions>
          <ns3:TrackPointExtension>
            <ns3:hr>158</ns3:hr>
            <ns3:cad>93</ns3:cad>
          </ns3:TrackPointExtension>
        </extensions>
      </trkpt>
      <trkpt lat="43.83819286711513996124267578125" lon="4.2507110349833965301513671875">
        <ele>166.8000030517578125</ele>
        <time>2024-01-27T10:13:16.000Z</time>
        <extensions>
          <ns3:TrackPointExtension>
            <ns3:hr>158</ns3:hr>
            <ns3:cad>92</ns3:cad>
          </ns3:TrackPointExtension>
        </extensions>
      </trkpt>
      <trkpt lat="43.838178031146526336669921875" lon="4.25071313045918941497802734375">
        <ele>167.1999969482421875</ele>
        <time>2024-01-27T10:13:17.000Z</time>
        <extensions>
          <ns3:TrackPointExtension>
            <ns3:hr>158</ns3:hr>
            <ns3:cad>92</ns3:cad>
          </ns3:TrackPointExtension>
        </extensions>
      </trkpt>
      <trkpt lat="43.83816436864435672760009765625" lon="4.25071857869625091552734375">
        <ele>167.399993896484375</ele>
        <time>2024-01-27T10:13:18.000Z</time>
        <extensions>
          <ns3:TrackPointExtension>
            <ns3:hr>158</ns3:hr>
            <ns3:cad>92</ns3:cad>
          </ns3:TrackPointExtension>
        </extensions>
      </trkpt>
      <trkpt lat="43.838143832981586456298828125" lon="4.2507157288491725921630859375">
        <ele>167.600006103515625</ele>
        <time>2024-01-27T10:13:19.000Z</time>
        <extensions>
          <ns3:TrackPointExtension>
            <ns3:hr>158</ns3:hr>
            <ns3:cad>92</ns3:cad>
          </ns3:TrackPointExtension>
        </extensions>
      </trkpt>
      <trkpt lat="43.83813067339360713958740234375" lon="4.25071447156369686126708984375">
        <ele>167.8000030517578125</ele>
        <time>2024-01-27T10:13:20.000Z</time>
        <extensions>
          <ns3:TrackPointExtension>
            <ns3:hr>159</ns3:hr>
            <ns3:cad>92</ns3:cad>
          </ns3:TrackPointExtension>
        </extensions>
      </trkpt>
      <trkpt lat="43.83810888044536113739013671875" lon="4.250710867345333099365234375">
        <ele>168.1999969482421875</ele>
        <time>2024-01-27T10:13:21.000Z</time>
        <extensions>
          <ns3:TrackPointExtension>
            <ns3:hr>159</ns3:hr>
            <ns3:cad>93</ns3:cad>
          </ns3:TrackPointExtension>
        </extensions>
      </trkpt>
      <trkpt lat="43.83809664286673069000244140625" lon="4.25071933306753635406494140625">
        <ele>168.399993896484375</ele>
        <time>2024-01-27T10:13:22.000Z</time>
        <extensions>
          <ns3:TrackPointExtension>
            <ns3:hr>159</ns3:hr>
            <ns3:cad>93</ns3:cad>
          </ns3:TrackPointExtension>
        </extensions>
      </trkpt>
      <trkpt lat="43.838075436651706695556640625" lon="4.25072729587554931640625">
        <ele>168.8000030517578125</ele>
        <time>2024-01-27T10:13:23.000Z</time>
        <extensions>
          <ns3:TrackPointExtension>
            <ns3:hr>159</ns3:hr>
            <ns3:cad>92</ns3:cad>
          </ns3:TrackPointExtension>
        </extensions>
      </trkpt>
      <trkpt lat="43.838060684502124786376953125" lon="4.2507408745586872100830078125">
        <ele>168.8000030517578125</ele>
        <time>2024-01-27T10:13:24.000Z</time>
        <extensions>
          <ns3:TrackPointExtension>
            <ns3:hr>159</ns3:hr>
            <ns3:cad>92</ns3:cad>
          </ns3:TrackPointExtension>
        </extensions>
      </trkpt>
      <trkpt lat="43.838043920695781707763671875" lon="4.250752441585063934326171875">
        <ele>169</ele>
        <time>2024-01-27T10:13:25.000Z</time>
        <extensions>
          <ns3:TrackPointExtension>
            <ns3:hr>159</ns3:hr>
            <ns3:cad>92</ns3:cad>
          </ns3:TrackPointExtension>
        </extensions>
      </trkpt>
      <trkpt lat="43.8380281627178192138671875" lon="4.250772558152675628662109375">
        <ele>169.1999969482421875</ele>
        <time>2024-01-27T10:13:26.000Z</time>
        <extensions>
          <ns3:TrackPointExtension>
            <ns3:hr>159</ns3:hr>
            <ns3:cad>92</ns3:cad>
          </ns3:TrackPointExtension>
        </extensions>
      </trkpt>
      <trkpt lat="43.83801165036857128143310546875" lon="4.2507930099964141845703125">
        <ele>169.1999969482421875</ele>
        <time>2024-01-27T10:13:27.000Z</time>
        <extensions>
          <ns3:TrackPointExtension>
            <ns3:hr>160</ns3:hr>
            <ns3:cad>93</ns3:cad>
          </ns3:TrackPointExtension>
        </extensions>
      </trkpt>
      <trkpt lat="43.8379959762096405029296875" lon="4.25081891007721424102783203125">
        <ele>169.1999969482421875</ele>
        <time>2024-01-27T10:13:28.000Z</time>
        <extensions>
          <ns3:TrackPointExtension>
            <ns3:hr>160</ns3:hr>
            <ns3:cad>93</ns3:cad>
          </ns3:TrackPointExtension>
        </extensions>
      </trkpt>
      <trkpt lat="43.83798046968877315521240234375" lon="4.25083517096936702728271484375">
        <ele>169.1999969482421875</ele>
        <time>2024-01-27T10:13:29.000Z</time>
        <extensions>
          <ns3:TrackPointExtension>
            <ns3:hr>160</ns3:hr>
            <ns3:cad>93</ns3:cad>
          </ns3:TrackPointExtension>
        </extensions>
      </trkpt>
      <trkpt lat="43.83796437643468379974365234375" lon="4.25085998140275478363037109375">
        <ele>169.399993896484375</ele>
        <time>2024-01-27T10:13:30.000Z</time>
        <extensions>
          <ns3:TrackPointExtension>
            <ns3:hr>160</ns3:hr>
            <ns3:cad>93</ns3:cad>
          </ns3:TrackPointExtension>
        </extensions>
      </trkpt>
      <trkpt lat="43.8379485346376895904541015625" lon="4.25087624229490756988525390625">
        <ele>169.399993896484375</ele>
        <time>2024-01-27T10:13:31.000Z</time>
        <extensions>
          <ns3:TrackPointExtension>
            <ns3:hr>160</ns3:hr>
            <ns3:cad>93</ns3:cad>
          </ns3:TrackPointExtension>
        </extensions>
      </trkpt>
      <trkpt lat="43.83793202228844165802001953125" lon="4.25088060088455677032470703125">
        <ele>169.399993896484375</ele>
        <time>2024-01-27T10:13:32.000Z</time>
        <extensions>
          <ns3:TrackPointExtension>
            <ns3:hr>160</ns3:hr>
            <ns3:cad>93</ns3:cad>
          </ns3:TrackPointExtension>
        </extensions>
      </trkpt>
      <trkpt lat="43.8379133306443691253662109375" lon="4.25087640993297100067138671875">
        <ele>169.600006103515625</ele>
        <time>2024-01-27T10:13:33.000Z</time>
        <extensions>
          <ns3:TrackPointExtension>
            <ns3:hr>160</ns3:hr>
            <ns3:cad>93</ns3:cad>
          </ns3:TrackPointExtension>
        </extensions>
      </trkpt>
      <trkpt lat="43.83789313025772571563720703125" lon="4.25087389536201953887939453125">
        <ele>169.600006103515625</ele>
        <time>2024-01-27T10:13:34.000Z</time>
        <extensions>
          <ns3:TrackPointExtension>
            <ns3:hr>160</ns3:hr>
            <ns3:cad>93</ns3:cad>
          </ns3:TrackPointExtension>
        </extensions>
      </trkpt>
      <trkpt lat="43.8378784619271755218505859375" lon="4.25087976269423961639404296875">
        <ele>169.600006103515625</ele>
        <time>2024-01-27T10:13:35.000Z</time>
        <extensions>
          <ns3:TrackPointExtension>
            <ns3:hr>160</ns3:hr>
            <ns3:cad>93</ns3:cad>
          </ns3:TrackPointExtension>
        </extensions>
      </trkpt>
      <trkpt lat="43.83785591460764408111572265625" lon="4.2508987896144390106201171875">
        <ele>169.600006103515625</ele>
        <time>2024-01-27T10:13:36.000Z</time>
        <extensions>
          <ns3:TrackPointExtension>
            <ns3:hr>160</ns3:hr>
            <ns3:cad>92</ns3:cad>
          </ns3:TrackPointExtension>
        </extensions>
      </trkpt>
      <trkpt lat="43.83784384466707706451416015625" lon="4.2509236000478267669677734375">
        <ele>169.600006103515625</ele>
        <time>2024-01-27T10:13:37.000Z</time>
        <extensions>
          <ns3:TrackPointExtension>
            <ns3:hr>160</ns3:hr>
            <ns3:cad>92</ns3:cad>
          </ns3:TrackPointExtension>
        </extensions>
      </trkpt>
      <trkpt lat="43.8378238119184970855712890625" lon="4.25093944184482097625732421875">
        <ele>169.8000030517578125</ele>
        <time>2024-01-27T10:13:38.000Z</time>
        <extensions>
          <ns3:TrackPointExtension>
            <ns3:hr>160</ns3:hr>
            <ns3:cad>92</ns3:cad>
          </ns3:TrackPointExtension>
        </extensions>
      </trkpt>
      <trkpt lat="43.8378030247986316680908203125" lon="4.25095067359507083892822265625">
        <ele>169.8000030517578125</ele>
        <time>2024-01-27T10:13:39.000Z</time>
        <extensions>
          <ns3:TrackPointExtension>
            <ns3:hr>161</ns3:hr>
            <ns3:cad>90</ns3:cad>
          </ns3:TrackPointExtension>
        </extensions>
      </trkpt>
      <trkpt lat="43.83778584189713001251220703125" lon="4.250953607261180877685546875">
        <ele>169.8000030517578125</ele>
        <time>2024-01-27T10:13:40.000Z</time>
        <extensions>
          <ns3:TrackPointExtension>
            <ns3:hr>161</ns3:hr>
            <ns3:cad>90</ns3:cad>
          </ns3:TrackPointExtension>
        </extensions>
      </trkpt>
      <trkpt lat="43.83776539005339145660400390625" lon="4.2509474046528339385986328125">
        <ele>169.8000030517578125</ele>
        <time>2024-01-27T10:13:41.000Z</time>
        <extensions>
          <ns3:TrackPointExtension>
            <ns3:hr>161</ns3:hr>
            <ns3:cad>91</ns3:cad>
          </ns3:TrackPointExtension>
        </extensions>
      </trkpt>
      <trkpt lat="43.83774762041866779327392578125" lon="4.25093625672161579132080078125">
        <ele>169.8000030517578125</ele>
        <time>2024-01-27T10:13:42.000Z</time>
        <extensions>
          <ns3:TrackPointExtension>
            <ns3:hr>161</ns3:hr>
            <ns3:cad>91</ns3:cad>
          </ns3:TrackPointExtension>
        </extensions>
      </trkpt>
      <trkpt lat="43.837732113897800445556640625" lon="4.25093340687453746795654296875">
        <ele>170</ele>
        <time>2024-01-27T10:13:43.000Z</time>
        <extensions>
          <ns3:TrackPointExtension>
            <ns3:hr>161</ns3:hr>
            <ns3:cad>91</ns3:cad>
          </ns3:TrackPointExtension>
        </extensions>
      </trkpt>
      <trkpt lat="43.8377171941101551055908203125" lon="4.2509417049586772918701171875">
        <ele>170</ele>
        <time>2024-01-27T10:13:44.000Z</time>
        <extensions>
          <ns3:TrackPointExtension>
            <ns3:hr>161</ns3:hr>
            <ns3:cad>92</ns3:cad>
          </ns3:TrackPointExtension>
        </extensions>
      </trkpt>
      <trkpt lat="43.83769883774220943450927734375" lon="4.25094430334866046905517578125">
        <ele>170</ele>
        <time>2024-01-27T10:13:45.000Z</time>
        <extensions>
          <ns3:TrackPointExtension>
            <ns3:hr>161</ns3:hr>
            <ns3:cad>92</ns3:cad>
          </ns3:TrackPointExtension>
        </extensions>
      </trkpt>
      <trkpt lat="43.83768492378294467926025390625" lon="4.2509497515857219696044921875">
        <ele>170</ele>
        <time>2024-01-27T10:13:46.000Z</time>
        <extensions>
          <ns3:TrackPointExtension>
            <ns3:hr>161</ns3:hr>
            <ns3:cad>92</ns3:cad>
          </ns3:TrackPointExtension>
        </extensions>
      </trkpt>
      <trkpt lat="43.8376652263104915618896484375" lon="4.25095285288989543914794921875">
        <ele>170</ele>
        <time>2024-01-27T10:13:47.000Z</time>
        <extensions>
          <ns3:TrackPointExtension>
            <ns3:hr>161</ns3:hr>
            <ns3:cad>92</ns3:cad>
          </ns3:TrackPointExtension>
        </extensions>
      </trkpt>
      <trkpt lat="43.83765005506575107574462890625" lon="4.25094899721443653106689453125">
        <ele>169.8000030517578125</ele>
        <time>2024-01-27T10:13:48.000Z</time>
        <extensions>
          <ns3:TrackPointExtension>
            <ns3:hr>161</ns3:hr>
            <ns3:cad>90</ns3:cad>
          </ns3:TrackPointExtension>
        </extensions>
      </trkpt>
      <trkpt lat="43.8376373983919620513916015625" lon="4.2509279586374759674072265625">
        <ele>169.8000030517578125</ele>
        <time>2024-01-27T10:13:49.000Z</time>
        <extensions>
          <ns3:TrackPointExtension>
            <ns3:hr>161</ns3:hr>
            <ns3:cad>90</ns3:cad>
          </ns3:TrackPointExtension>
        </extensions>
      </trkpt>
      <trkpt lat="43.83762625046074390411376953125" lon="4.250910691916942596435546875">
        <ele>169.8000030517578125</ele>
        <time>2024-01-27T10:13:50.000Z</time>
        <extensions>
          <ns3:TrackPointExtension>
            <ns3:hr>160</ns3:hr>
            <ns3:cad>90</ns3:cad>
          </ns3:TrackPointExtension>
        </extensions>
      </trkpt>
      <trkpt lat="43.83761577308177947998046875" lon="4.2508843727409839630126953125">
        <ele>169.8000030517578125</ele>
        <time>2024-01-27T10:13:51.000Z</time>
        <extensions>
          <ns3:TrackPointExtension>
            <ns3:hr>160</ns3:hr>
            <ns3:cad>92</ns3:cad>
          </ns3:TrackPointExtension>
        </extensions>
      </trkpt>
      <trkpt lat="43.8376021943986415863037109375" lon="4.25086718983948230743408203125">
        <ele>169.8000030517578125</ele>
        <time>2024-01-27T10:13:52.000Z</time>
        <extensions>
          <ns3:TrackPointExtension>
            <ns3:hr>160</ns3:hr>
            <ns3:cad>92</ns3:cad>
          </ns3:TrackPointExtension>
        </extensions>
      </trkpt>
      <trkpt lat="43.8375867716968059539794921875" lon="4.2508520185947418212890625">
        <ele>169.8000030517578125</ele>
        <time>2024-01-27T10:13:53.000Z</time>
        <extensions>
          <ns3:TrackPointExtension>
            <ns3:hr>160</ns3:hr>
            <ns3:cad>94</ns3:cad>
          </ns3:TrackPointExtension>
        </extensions>
      </trkpt>
      <trkpt lat="43.8375686667859554290771484375" lon="4.25083751790225505828857421875">
        <ele>169.600006103515625</ele>
        <time>2024-01-27T10:13:54.000Z</time>
        <extensions>
          <ns3:TrackPointExtension>
            <ns3:hr>160</ns3:hr>
            <ns3:cad>94</ns3:cad>
          </ns3:TrackPointExtension>
        </extensions>
      </trkpt>
      <trkpt lat="43.8375498913228511810302734375" lon="4.2508198320865631103515625">
        <ele>169.8000030517578125</ele>
        <time>2024-01-27T10:13:55.000Z</time>
        <extensions>
          <ns3:TrackPointExtension>
            <ns3:hr>160</ns3:hr>
            <ns3:cad>93</ns3:cad>
          </ns3:TrackPointExtension>
        </extensions>
      </trkpt>
      <trkpt lat="43.83752994239330291748046875" lon="4.25080038607120513916015625">
        <ele>169.8000030517578125</ele>
        <time>2024-01-27T10:13:56.000Z</time>
        <extensions>
          <ns3:TrackPointExtension>
            <ns3:hr>160</ns3:hr>
            <ns3:cad>93</ns3:cad>
          </ns3:TrackPointExtension>
        </extensions>
      </trkpt>
      <trkpt lat="43.83751192130148410797119140625" lon="4.25078521482646465301513671875">
        <ele>169.8000030517578125</ele>
        <time>2024-01-27T10:13:57.000Z</time>
        <extensions>
          <ns3:TrackPointExtension>
            <ns3:hr>159</ns3:hr>
            <ns3:cad>92</ns3:cad>
          </ns3:TrackPointExtension>
        </extensions>
      </trkpt>
      <trkpt lat="43.83749281056225299835205078125" lon="4.25077096559107303619384765625">
        <ele>169.8000030517578125</ele>
        <time>2024-01-27T10:13:58.000Z</time>
        <extensions>
          <ns3:TrackPointExtension>
            <ns3:hr>159</ns3:hr>
            <ns3:cad>92</ns3:cad>
          </ns3:TrackPointExtension>
        </extensions>
      </trkpt>
      <trkpt lat="43.83747763931751251220703125" lon="4.250752441585063934326171875">
        <ele>169.8000030517578125</ele>
        <time>2024-01-27T10:13:59.000Z</time>
        <extensions>
          <ns3:TrackPointExtension>
            <ns3:hr>159</ns3:hr>
            <ns3:cad>92</ns3:cad>
          </ns3:TrackPointExtension>
        </extensions>
      </trkpt>
      <trkpt lat="43.83746129460632801055908203125" lon="4.250729978084564208984375">
        <ele>169.8000030517578125</ele>
        <time>2024-01-27T10:14:00.000Z</time>
        <extensions>
          <ns3:TrackPointExtension>
            <ns3:hr>159</ns3:hr>
            <ns3:cad>92</ns3:cad>
          </ns3:TrackPointExtension>
        </extensions>
      </trkpt>
      <trkpt lat="43.83744637481868267059326171875" lon="4.25070843659341335296630859375">
        <ele>169.8000030517578125</ele>
        <time>2024-01-27T10:14:01.000Z</time>
        <extensions>
          <ns3:TrackPointExtension>
            <ns3:hr>159</ns3:hr>
            <ns3:cad>92</ns3:cad>
          </ns3:TrackPointExtension>
        </extensions>
      </trkpt>
      <trkpt lat="43.83743128739297389984130859375" lon="4.25068211741745471954345703125">
        <ele>169.8000030517578125</ele>
        <time>2024-01-27T10:14:02.000Z</time>
        <extensions>
          <ns3:TrackPointExtension>
            <ns3:hr>159</ns3:hr>
            <ns3:cad>92</ns3:cad>
          </ns3:TrackPointExtension>
        </extensions>
      </trkpt>
      <trkpt lat="43.8374177925288677215576171875" lon="4.250665269792079925537109375">
        <ele>169.8000030517578125</ele>
        <time>2024-01-27T10:14:03.000Z</time>
        <extensions>
          <ns3:TrackPointExtension>
            <ns3:hr>159</ns3:hr>
            <ns3:cad>93</ns3:cad>
          </ns3:TrackPointExtension>
        </extensions>
      </trkpt>
      <trkpt lat="43.8374047167599201202392578125" lon="4.25064104609191417694091796875">
        <ele>170</ele>
        <time>2024-01-27T10:14:04.000Z</time>
        <extensions>
          <ns3:TrackPointExtension>
            <ns3:hr>158</ns3:hr>
            <ns3:cad>93</ns3:cad>
          </ns3:TrackPointExtension>
        </extensions>
      </trkpt>
      <trkpt lat="43.83739423938095569610595703125" lon="4.2506215162575244903564453125">
        <ele>170</ele>
        <time>2024-01-27T10:14:05.000Z</time>
        <extensions>
          <ns3:TrackPointExtension>
            <ns3:hr>158</ns3:hr>
            <ns3:cad>93</ns3:cad>
          </ns3:TrackPointExtension>
        </extensions>
      </trkpt>
      <trkpt lat="43.83737705647945404052734375" lon="4.2506013996899127960205078125">
        <ele>170</ele>
        <time>2024-01-27T10:14:06.000Z</time>
        <extensions>
          <ns3:TrackPointExtension>
            <ns3:hr>158</ns3:hr>
            <ns3:cad>93</ns3:cad>
          </ns3:TrackPointExtension>
        </extensions>
      </trkpt>
      <trkpt lat="43.83736389689147472381591796875" lon="4.2505906708538532257080078125">
        <ele>170</ele>
        <time>2024-01-27T10:14:07.000Z</time>
        <extensions>
          <ns3:TrackPointExtension>
            <ns3:hr>157</ns3:hr>
            <ns3:cad>93</ns3:cad>
          </ns3:TrackPointExtension>
        </extensions>
      </trkpt>
      <trkpt lat="43.8373534195125102996826171875" lon="4.25056309439241886138916015625">
        <ele>170</ele>
        <time>2024-01-27T10:14:08.000Z</time>
        <extensions>
          <ns3:TrackPointExtension>
            <ns3:hr>157</ns3:hr>
            <ns3:cad>92</ns3:cad>
          </ns3:TrackPointExtension>
        </extensions>
      </trkpt>
      <trkpt lat="43.8373467139899730682373046875" lon="4.25054096616804599761962890625">
        <ele>170</ele>
        <time>2024-01-27T10:14:09.000Z</time>
        <extensions>
          <ns3:TrackPointExtension>
            <ns3:hr>157</ns3:hr>
            <ns3:cad>92</ns3:cad>
          </ns3:TrackPointExtension>
        </extensions>
      </trkpt>
      <trkpt lat="43.837335817515850067138671875" lon="4.25051984377205371856689453125">
        <ele>170</ele>
        <time>2024-01-27T10:14:10.000Z</time>
        <extensions>
          <ns3:TrackPointExtension>
            <ns3:hr>156</ns3:hr>
            <ns3:cad>92</ns3:cad>
          </ns3:TrackPointExtension>
        </extensions>
      </trkpt>
      <trkpt lat="43.83732433430850505828857421875" lon="4.25050861202180385589599609375">
        <ele>170</ele>
        <time>2024-01-27T10:14:11.000Z</time>
        <extensions>
          <ns3:TrackPointExtension>
            <ns3:hr>156</ns3:hr>
            <ns3:cad>92</ns3:cad>
          </ns3:TrackPointExtension>
        </extensions>
      </trkpt>
      <trkpt lat="43.8373051397502422332763671875" lon="4.2504900880157947540283203125">
        <ele>170</ele>
        <time>2024-01-27T10:14:12.000Z</time>
        <extensions>
          <ns3:TrackPointExtension>
            <ns3:hr>156</ns3:hr>
            <ns3:cad>92</ns3:cad>
          </ns3:TrackPointExtension>
        </extensions>
      </trkpt>
      <trkpt lat="43.83728560991585254669189453125" lon="4.2504776827991008758544921875">
        <ele>169.8000030517578125</ele>
        <time>2024-01-27T10:14:13.000Z</time>
        <extensions>
          <ns3:TrackPointExtension>
            <ns3:hr>156</ns3:hr>
            <ns3:cad>92</ns3:cad>
          </ns3:TrackPointExtension>
        </extensions>
      </trkpt>
      <trkpt lat="43.83726633153855800628662109375" lon="4.2504558898508548736572265625">
        <ele>169.8000030517578125</ele>
        <time>2024-01-27T10:14:14.000Z</time>
        <extensions>
          <ns3:TrackPointExtension>
            <ns3:hr>156</ns3:hr>
            <ns3:cad>92</ns3:cad>
          </ns3:TrackPointExtension>
        </extensions>
      </trkpt>
      <trkpt lat="43.83725023828446865081787109375" lon="4.2504411377012729644775390625">
        <ele>169.8000030517578125</ele>
        <time>2024-01-27T10:14:15.000Z</time>
        <extensions>
          <ns3:TrackPointExtension>
            <ns3:hr>156</ns3:hr>
            <ns3:cad>92</ns3:cad>
          </ns3:TrackPointExtension>
        </extensions>
      </trkpt>
      <trkpt lat="43.83722743950784206390380859375" lon="4.2504196800291538238525390625">
        <ele>169.8000030517578125</ele>
        <time>2024-01-27T10:14:16.000Z</time>
        <extensions>
          <ns3:TrackPointExtension>
            <ns3:hr>156</ns3:hr>
            <ns3:cad>92</ns3:cad>
          </ns3:TrackPointExtension>
        </extensions>
      </trkpt>
      <trkpt lat="43.83720816113054752349853515625" lon="4.25041222013533115386962890625">
        <ele>169.8000030517578125</ele>
        <time>2024-01-27T10:14:17.000Z</time>
        <extensions>
          <ns3:TrackPointExtension>
            <ns3:hr>156</ns3:hr>
            <ns3:cad>92</ns3:cad>
          </ns3:TrackPointExtension>
        </extensions>
      </trkpt>
      <trkpt lat="43.83718393743038177490234375" lon="4.250400066375732421875">
        <ele>169.8000030517578125</ele>
        <time>2024-01-27T10:14:18.000Z</time>
        <extensions>
          <ns3:TrackPointExtension>
            <ns3:hr>157</ns3:hr>
            <ns3:cad>92</ns3:cad>
          </ns3:TrackPointExtension>
        </extensions>
      </trkpt>
      <trkpt lat="43.83716457523405551910400390625" lon="4.2503898404538631439208984375">
        <ele>169.8000030517578125</ele>
        <time>2024-01-27T10:14:19.000Z</time>
        <extensions>
          <ns3:TrackPointExtension>
            <ns3:hr>157</ns3:hr>
            <ns3:cad>92</ns3:cad>
          </ns3:TrackPointExtension>
        </extensions>
      </trkpt>
      <trkpt lat="43.83714278228580951690673828125" lon="4.25037919543683528900146484375">
        <ele>169.8000030517578125</ele>
        <time>2024-01-27T10:14:20.000Z</time>
        <extensions>
          <ns3:TrackPointExtension>
            <ns3:hr>157</ns3:hr>
            <ns3:cad>92</ns3:cad>
          </ns3:TrackPointExtension>
        </extensions>
      </trkpt>
      <trkpt lat="43.837126605212688446044921875" lon="4.250375591218471527099609375">
        <ele>169.8000030517578125</ele>
        <time>2024-01-27T10:14:21.000Z</time>
        <extensions>
          <ns3:TrackPointExtension>
            <ns3:hr>157</ns3:hr>
            <ns3:cad>91</ns3:cad>
          </ns3:TrackPointExtension>
        </extensions>
      </trkpt>
      <trkpt lat="43.83710791356861591339111328125" lon="4.25036611966788768768310546875">
        <ele>169.600006103515625</ele>
        <time>2024-01-27T10:14:22.000Z</time>
        <extensions>
          <ns3:TrackPointExtension>
            <ns3:hr>157</ns3:hr>
            <ns3:cad>90</ns3:cad>
          </ns3:TrackPointExtension>
        </extensions>
      </trkpt>
      <trkpt lat="43.83708897046744823455810546875" lon="4.250360839068889617919921875">
        <ele>169.600006103515625</ele>
        <time>2024-01-27T10:14:23.000Z</time>
        <extensions>
          <ns3:TrackPointExtension>
            <ns3:hr>156</ns3:hr>
            <ns3:cad>90</ns3:cad>
          </ns3:TrackPointExtension>
        </extensions>
      </trkpt>
      <trkpt lat="43.83707153610885143280029296875" lon="4.250353462994098663330078125">
        <ele>169.600006103515625</ele>
        <time>2024-01-27T10:14:24.000Z</time>
        <extensions>
          <ns3:TrackPointExtension>
            <ns3:hr>156</ns3:hr>
            <ns3:cad>90</ns3:cad>
          </ns3:TrackPointExtension>
        </extensions>
      </trkpt>
      <trkpt lat="43.83705510757863521575927734375" lon="4.25034767948091030120849609375">
        <ele>169.600006103515625</ele>
        <time>2024-01-27T10:14:25.000Z</time>
        <extensions>
          <ns3:TrackPointExtension>
            <ns3:hr>156</ns3:hr>
            <ns3:cad>90</ns3:cad>
          </ns3:TrackPointExtension>
        </extensions>
      </trkpt>
      <trkpt lat="43.83704588748514652252197265625" lon="4.25033359788358211517333984375">
        <ele>169.399993896484375</ele>
        <time>2024-01-27T10:14:26.000Z</time>
        <extensions>
          <ns3:TrackPointExtension>
            <ns3:hr>156</ns3:hr>
            <ns3:cad>90</ns3:cad>
          </ns3:TrackPointExtension>
        </extensions>
      </trkpt>
      <trkpt lat="43.837038092315196990966796875" lon="4.2503190971910953521728515625">
        <ele>169.399993896484375</ele>
        <time>2024-01-27T10:14:27.000Z</time>
        <extensions>
          <ns3:TrackPointExtension>
            <ns3:hr>155</ns3:hr>
            <ns3:cad>90</ns3:cad>
          </ns3:TrackPointExtension>
        </extensions>
      </trkpt>
      <trkpt lat="43.83702627383172512054443359375" lon="4.25029420293867588043212890625">
        <ele>169.399993896484375</ele>
        <time>2024-01-27T10:14:28.000Z</time>
        <extensions>
          <ns3:TrackPointExtension>
            <ns3:hr>155</ns3:hr>
            <ns3:cad>90</ns3:cad>
          </ns3:TrackPointExtension>
        </extensions>
      </trkpt>
      <trkpt lat="43.83701227605342864990234375" lon="4.25026939250528812408447265625">
        <ele>169.399993896484375</ele>
        <time>2024-01-27T10:14:29.000Z</time>
        <extensions>
          <ns3:TrackPointExtension>
            <ns3:hr>155</ns3:hr>
            <ns3:cad>90</ns3:cad>
          </ns3:TrackPointExtension>
        </extensions>
      </trkpt>
      <trkpt lat="43.8370040617883205413818359375" lon="4.25024692900478839874267578125">
        <ele>169.399993896484375</ele>
        <time>2024-01-27T10:14:30.000Z</time>
        <extensions>
          <ns3:TrackPointExtension>
            <ns3:hr>155</ns3:hr>
            <ns3:cad>90</ns3:cad>
          </ns3:TrackPointExtension>
        </extensions>
      </trkpt>
      <trkpt lat="43.83698989637196063995361328125" lon="4.25021725706756114959716796875">
        <ele>169.600006103515625</ele>
        <time>2024-01-27T10:14:31.000Z</time>
        <extensions>
          <ns3:TrackPointExtension>
            <ns3:hr>155</ns3:hr>
            <ns3:cad>90</ns3:cad>
          </ns3:TrackPointExtension>
        </extensions>
      </trkpt>
      <trkpt lat="43.8369812630116939544677734375" lon="4.25018842332065105438232421875">
        <ele>169.600006103515625</ele>
        <time>2024-01-27T10:14:32.000Z</time>
        <extensions>
          <ns3:TrackPointExtension>
            <ns3:hr>155</ns3:hr>
            <ns3:cad>90</ns3:cad>
          </ns3:TrackPointExtension>
        </extensions>
      </trkpt>
      <trkpt lat="43.836970031261444091796875" lon="4.25016604363918304443359375">
        <ele>169.600006103515625</ele>
        <time>2024-01-27T10:14:33.000Z</time>
        <extensions>
          <ns3:TrackPointExtension>
            <ns3:hr>155</ns3:hr>
            <ns3:cad>90</ns3:cad>
          </ns3:TrackPointExtension>
        </extensions>
      </trkpt>
      <trkpt lat="43.83695368655025959014892578125" lon="4.2501385509967803955078125">
        <ele>169.600006103515625</ele>
        <time>2024-01-27T10:14:34.000Z</time>
        <extensions>
          <ns3:TrackPointExtension>
            <ns3:hr>155</ns3:hr>
            <ns3:cad>90</ns3:cad>
          </ns3:TrackPointExtension>
        </extensions>
      </trkpt>
      <trkpt lat="43.83694228716194629669189453125" lon="4.250125475227832794189453125">
        <ele>169.600006103515625</ele>
        <time>2024-01-27T10:14:35.000Z</time>
        <extensions>
          <ns3:TrackPointExtension>
            <ns3:hr>155</ns3:hr>
            <ns3:cad>89</ns3:cad>
          </ns3:TrackPointExtension>
        </extensions>
      </trkpt>
      <trkpt lat="43.83693088777363300323486328125" lon="4.2501085437834262847900390625">
        <ele>169.399993896484375</ele>
        <time>2024-01-27T10:14:36.000Z</time>
        <extensions>
          <ns3:TrackPointExtension>
            <ns3:hr>155</ns3:hr>
            <ns3:cad>89</ns3:cad>
          </ns3:TrackPointExtension>
        </extensions>
      </trkpt>
      <trkpt lat="43.8369155488908290863037109375" lon="4.25009270198643207550048828125">
        <ele>169.1999969482421875</ele>
        <time>2024-01-27T10:14:37.000Z</time>
        <extensions>
          <ns3:TrackPointExtension>
            <ns3:hr>155</ns3:hr>
            <ns3:cad>89</ns3:cad>
          </ns3:TrackPointExtension>
        </extensions>
      </trkpt>
      <trkpt lat="43.83689786307513713836669921875" lon="4.250085242092609405517578125">
        <ele>169.1999969482421875</ele>
        <time>2024-01-27T10:14:38.000Z</time>
        <extensions>
          <ns3:TrackPointExtension>
            <ns3:hr>155</ns3:hr>
            <ns3:cad>87</ns3:cad>
          </ns3:TrackPointExtension>
        </extensions>
      </trkpt>
      <trkpt lat="43.836883865296840667724609375" lon="4.25007610581815242767333984375">
        <ele>169</ele>
        <time>2024-01-27T10:14:39.000Z</time>
        <extensions>
          <ns3:TrackPointExtension>
            <ns3:hr>155</ns3:hr>
            <ns3:cad>87</ns3:cad>
          </ns3:TrackPointExtension>
        </extensions>
      </trkpt>
      <trkpt lat="43.8368672691285610198974609375" lon="4.25006101839244365692138671875">
        <ele>169</ele>
        <time>2024-01-27T10:14:40.000Z</time>
        <extensions>
          <ns3:TrackPointExtension>
            <ns3:hr>156</ns3:hr>
            <ns3:cad>88</ns3:cad>
          </ns3:TrackPointExtension>
        </extensions>
      </trkpt>
      <trkpt lat="43.83685427717864513397216796875" lon="4.25005473196506500244140625">
        <ele>168.8000030517578125</ele>
        <time>2024-01-27T10:14:41.000Z</time>
        <extensions>
          <ns3:TrackPointExtension>
            <ns3:hr>156</ns3:hr>
            <ns3:cad>88</ns3:cad>
          </ns3:TrackPointExtension>
        </extensions>
      </trkpt>
      <trkpt lat="43.83684053085744380950927734375" lon="4.25005448050796985626220703125">
        <ele>168.600006103515625</ele>
        <time>2024-01-27T10:14:42.000Z</time>
        <extensions>
          <ns3:TrackPointExtension>
            <ns3:hr>156</ns3:hr>
            <ns3:cad>88</ns3:cad>
          </ns3:TrackPointExtension>
        </extensions>
      </trkpt>
      <trkpt lat="43.83681915700435638427734375" lon="4.25004324875771999359130859375">
        <ele>168.399993896484375</ele>
        <time>2024-01-27T10:14:43.000Z</time>
        <extensions>
          <ns3:TrackPointExtension>
            <ns3:hr>156</ns3:hr>
            <ns3:cad>88</ns3:cad>
          </ns3:TrackPointExtension>
        </extensions>
      </trkpt>
      <trkpt lat="43.83680264465510845184326171875" lon="4.25002983771264553070068359375">
        <ele>168.399993896484375</ele>
        <time>2024-01-27T10:14:44.000Z</time>
        <extensions>
          <ns3:TrackPointExtension>
            <ns3:hr>156</ns3:hr>
            <ns3:cad>87</ns3:cad>
          </ns3:TrackPointExtension>
        </extensions>
      </trkpt>
      <trkpt lat="43.83678495883941650390625" lon="4.25001089461147785186767578125">
        <ele>168.1999969482421875</ele>
        <time>2024-01-27T10:14:45.000Z</time>
        <extensions>
          <ns3:TrackPointExtension>
            <ns3:hr>155</ns3:hr>
            <ns3:cad>86</ns3:cad>
          </ns3:TrackPointExtension>
        </extensions>
      </trkpt>
      <trkpt lat="43.83677246980369091033935546875" lon="4.25000485964119434356689453125">
        <ele>168</ele>
        <time>2024-01-27T10:14:46.000Z</time>
        <extensions>
          <ns3:TrackPointExtension>
            <ns3:hr>155</ns3:hr>
            <ns3:cad>86</ns3:cad>
          </ns3:TrackPointExtension>
        </extensions>
      </trkpt>
      <trkpt lat="43.8367593102157115936279296875" lon="4.25001047551631927490234375">
        <ele>167.8000030517578125</ele>
        <time>2024-01-27T10:14:47.000Z</time>
        <extensions>
          <ns3:TrackPointExtension>
            <ns3:hr>155</ns3:hr>
            <ns3:cad>86</ns3:cad>
          </ns3:TrackPointExtension>
        </extensions>
      </trkpt>
      <trkpt lat="43.83675344288349151611328125" lon="4.25002028234302997589111328125">
        <ele>167.600006103515625</ele>
        <time>2024-01-27T10:14:48.000Z</time>
        <extensions>
          <ns3:TrackPointExtension>
            <ns3:hr>155</ns3:hr>
            <ns3:cad>86</ns3:cad>
          </ns3:TrackPointExtension>
        </extensions>
      </trkpt>
      <trkpt lat="43.836738355457782745361328125" lon="4.25003117881715297698974609375">
        <ele>167.1999969482421875</ele>
        <time>2024-01-27T10:14:49.000Z</time>
        <extensions>
          <ns3:TrackPointExtension>
            <ns3:hr>155</ns3:hr>
            <ns3:cad>86</ns3:cad>
          </ns3:TrackPointExtension>
        </extensions>
      </trkpt>
      <trkpt lat="43.8367281295359134674072265625" lon="4.250024892389774322509765625">
        <ele>166.8000030517578125</ele>
        <time>2024-01-27T10:14:50.000Z</time>
        <extensions>
          <ns3:TrackPointExtension>
            <ns3:hr>155</ns3:hr>
            <ns3:cad>87</ns3:cad>
          </ns3:TrackPointExtension>
        </extensions>
      </trkpt>
      <trkpt lat="43.8367106951773166656494140625" lon="4.25002254545688629150390625">
        <ele>166.600006103515625</ele>
        <time>2024-01-27T10:14:51.000Z</time>
        <extensions>
          <ns3:TrackPointExtension>
            <ns3:hr>155</ns3:hr>
            <ns3:cad>88</ns3:cad>
          </ns3:TrackPointExtension>
        </extensions>
      </trkpt>
      <trkpt lat="43.8367013074457645416259765625" lon="4.25001491792500019073486328125">
        <ele>166.399993896484375</ele>
        <time>2024-01-27T10:14:52.000Z</time>
        <extensions>
          <ns3:TrackPointExtension>
            <ns3:hr>155</ns3:hr>
            <ns3:cad>88</ns3:cad>
          </ns3:TrackPointExtension>
        </extensions>
      </trkpt>
      <trkpt lat="43.83669049479067325592041015625" lon="4.2500056140124797821044921875">
        <ele>166.399993896484375</ele>
        <time>2024-01-27T10:14:53.000Z</time>
        <extensions>
          <ns3:TrackPointExtension>
            <ns3:hr>155</ns3:hr>
            <ns3:cad>88</ns3:cad>
          </ns3:TrackPointExtension>
        </extensions>
      </trkpt>
      <trkpt lat="43.83667775429785251617431640625" lon="4.25000620074570178985595703125">
        <ele>166</ele>
        <time>2024-01-27T10:14:54.000Z</time>
        <extensions>
          <ns3:TrackPointExtension>
            <ns3:hr>155</ns3:hr>
            <ns3:cad>88</ns3:cad>
          </ns3:TrackPointExtension>
        </extensions>
      </trkpt>
      <trkpt lat="43.8366640917956829071044921875" lon="4.25000511109828948974609375">
        <ele>165.8000030517578125</ele>
        <time>2024-01-27T10:14:55.000Z</time>
        <extensions>
          <ns3:TrackPointExtension>
            <ns3:hr>155</ns3:hr>
            <ns3:cad>89</ns3:cad>
          </ns3:TrackPointExtension>
        </extensions>
      </trkpt>
      <trkpt lat="43.83665227331221103668212890625" lon="4.2500258982181549072265625">
        <ele>165.399993896484375</ele>
        <time>2024-01-27T10:14:56.000Z</time>
        <extensions>
          <ns3:TrackPointExtension>
            <ns3:hr>155</ns3:hr>
            <ns3:cad>89</ns3:cad>
          </ns3:TrackPointExtension>
        </extensions>
      </trkpt>
      <trkpt lat="43.83663869462907314300537109375" lon="4.25005045719444751739501953125">
        <ele>165.1999969482421875</ele>
        <time>2024-01-27T10:14:57.000Z</time>
        <extensions>
          <ns3:TrackPointExtension>
            <ns3:hr>154</ns3:hr>
            <ns3:cad>89</ns3:cad>
          </ns3:TrackPointExtension>
        </extensions>
      </trkpt>
      <trkpt lat="43.83662947453558444976806640625" lon="4.2500797100365161895751953125">
        <ele>165</ele>
        <time>2024-01-27T10:14:58.000Z</time>
        <extensions>
          <ns3:TrackPointExtension>
            <ns3:hr>154</ns3:hr>
            <ns3:cad>86</ns3:cad>
          </ns3:TrackPointExtension>
        </extensions>
      </trkpt>
      <trkpt lat="43.836618997156620025634765625" lon="4.2500958032906055450439453125">
        <ele>164.600006103515625</ele>
        <time>2024-01-27T10:14:59.000Z</time>
        <extensions>
          <ns3:TrackPointExtension>
            <ns3:hr>154</ns3:hr>
            <ns3:cad>86</ns3:cad>
          </ns3:TrackPointExtension>
        </extensions>
      </trkpt>
      <trkpt lat="43.83660851977765560150146484375" lon="4.25010024569928646087646484375">
        <ele>164.399993896484375</ele>
        <time>2024-01-27T10:15:00.000Z</time>
        <extensions>
          <ns3:TrackPointExtension>
            <ns3:hr>154</ns3:hr>
            <ns3:cad>87</ns3:cad>
          </ns3:TrackPointExtension>
        </extensions>
      </trkpt>
      <trkpt lat="43.83659410290420055389404296875" lon="4.250095970928668975830078125">
        <ele>164.1999969482421875</ele>
        <time>2024-01-27T10:15:01.000Z</time>
        <extensions>
          <ns3:TrackPointExtension>
            <ns3:hr>155</ns3:hr>
            <ns3:cad>87</ns3:cad>
          </ns3:TrackPointExtension>
        </extensions>
      </trkpt>
      <trkpt lat="43.836583457887172698974609375" lon="4.250101335346698760986328125">
        <ele>163.8000030517578125</ele>
        <time>2024-01-27T10:15:02.000Z</time>
        <extensions>
          <ns3:TrackPointExtension>
            <ns3:hr>155</ns3:hr>
            <ns3:cad>87</ns3:cad>
          </ns3:TrackPointExtension>
        </extensions>
      </trkpt>
      <trkpt lat="43.83656409569084644317626953125" lon="4.2501149140298366546630859375">
        <ele>163.399993896484375</ele>
        <time>2024-01-27T10:15:03.000Z</time>
        <extensions>
          <ns3:TrackPointExtension>
            <ns3:hr>155</ns3:hr>
            <ns3:cad>87</ns3:cad>
          </ns3:TrackPointExtension>
        </extensions>
      </trkpt>
      <trkpt lat="43.83655135519802570343017578125" lon="4.2501239664852619171142578125">
        <ele>163.1999969482421875</ele>
        <time>2024-01-27T10:15:04.000Z</time>
        <extensions>
          <ns3:TrackPointExtension>
            <ns3:hr>155</ns3:hr>
            <ns3:cad>88</ns3:cad>
          </ns3:TrackPointExtension>
        </extensions>
      </trkpt>
      <trkpt lat="43.836535178124904632568359375" lon="4.25012690015137195587158203125">
        <ele>163</ele>
        <time>2024-01-27T10:15:05.000Z</time>
        <extensions>
          <ns3:TrackPointExtension>
            <ns3:hr>155</ns3:hr>
            <ns3:cad>88</ns3:cad>
          </ns3:TrackPointExtension>
        </extensions>
      </trkpt>
      <trkpt lat="43.83651564829051494598388671875" lon="4.25013192929327487945556640625">
        <ele>162.399993896484375</ele>
        <time>2024-01-27T10:15:06.000Z</time>
        <extensions>
          <ns3:TrackPointExtension>
            <ns3:hr>155</ns3:hr>
            <ns3:cad>89</ns3:cad>
          </ns3:TrackPointExtension>
        </extensions>
      </trkpt>
      <trkpt lat="43.8364991359412670135498046875" lon="4.2501393891870975494384765625">
        <ele>161.8000030517578125</ele>
        <time>2024-01-27T10:15:07.000Z</time>
        <extensions>
          <ns3:TrackPointExtension>
            <ns3:hr>154</ns3:hr>
            <ns3:cad>90</ns3:cad>
          </ns3:TrackPointExtension>
        </extensions>
      </trkpt>
      <trkpt lat="43.8364840485155582427978515625" lon="4.2501447536051273345947265625">
        <ele>161.600006103515625</ele>
        <time>2024-01-27T10:15:08.000Z</time>
        <extensions>
          <ns3:TrackPointExtension>
            <ns3:hr>154</ns3:hr>
            <ns3:cad>90</ns3:cad>
          </ns3:TrackPointExtension>
        </extensions>
      </trkpt>
      <trkpt lat="43.83646585978567600250244140625" lon="4.25014500506222248077392578125">
        <ele>161.1999969482421875</ele>
        <time>2024-01-27T10:15:09.000Z</time>
        <extensions>
          <ns3:TrackPointExtension>
            <ns3:hr>154</ns3:hr>
            <ns3:cad>92</ns3:cad>
          </ns3:TrackPointExtension>
        </extensions>
      </trkpt>
      <trkpt lat="43.8364451564848423004150390625" lon="4.25013243220746517181396484375">
        <ele>161</ele>
        <time>2024-01-27T10:15:10.000Z</time>
        <extensions>
          <ns3:TrackPointExtension>
            <ns3:hr>154</ns3:hr>
            <ns3:cad>92</ns3:cad>
          </ns3:TrackPointExtension>
        </extensions>
      </trkpt>
      <trkpt lat="43.836428560316562652587890625" lon="4.2501202784478664398193359375">
        <ele>160.600006103515625</ele>
        <time>2024-01-27T10:15:11.000Z</time>
        <extensions>
          <ns3:TrackPointExtension>
            <ns3:hr>154</ns3:hr>
            <ns3:cad>92</ns3:cad>
          </ns3:TrackPointExtension>
        </extensions>
      </trkpt>
      <trkpt lat="43.83641414344310760498046875" lon="4.25010678358376026153564453125">
        <ele>159.8000030517578125</ele>
        <time>2024-01-27T10:15:12.000Z</time>
        <extensions>
          <ns3:TrackPointExtension>
            <ns3:hr>154</ns3:hr>
            <ns3:cad>92</ns3:cad>
          </ns3:TrackPointExtension>
        </extensions>
      </trkpt>
      <trkpt lat="43.83639712817966938018798828125" lon="4.2500978149473667144775390625">
        <ele>159.399993896484375</ele>
        <time>2024-01-27T10:15:13.000Z</time>
        <extensions>
          <ns3:TrackPointExtension>
            <ns3:hr>153</ns3:hr>
            <ns3:cad>90</ns3:cad>
          </ns3:TrackPointExtension>
        </extensions>
      </trkpt>
      <trkpt lat="43.8363812863826751708984375" lon="4.25010175444185733795166015625">
        <ele>159.399993896484375</ele>
        <time>2024-01-27T10:15:14.000Z</time>
        <extensions>
          <ns3:TrackPointExtension>
            <ns3:hr>153</ns3:hr>
            <ns3:cad>90</ns3:cad>
          </ns3:TrackPointExtension>
        </extensions>
      </trkpt>
      <trkpt lat="43.83636896498501300811767578125" lon="4.25010980106890201568603515625">
        <ele>159</ele>
        <time>2024-01-27T10:15:15.000Z</time>
        <extensions>
          <ns3:TrackPointExtension>
            <ns3:hr>153</ns3:hr>
            <ns3:cad>90</ns3:cad>
          </ns3:TrackPointExtension>
        </extensions>
      </trkpt>
      <trkpt lat="43.8363536261022090911865234375" lon="4.25012203864753246307373046875">
        <ele>158.600006103515625</ele>
        <time>2024-01-27T10:15:16.000Z</time>
        <extensions>
          <ns3:TrackPointExtension>
            <ns3:hr>153</ns3:hr>
            <ns3:cad>91</ns3:cad>
          </ns3:TrackPointExtension>
        </extensions>
      </trkpt>
      <trkpt lat="43.83633979596197605133056640625" lon="4.25013176165521144866943359375">
        <ele>158</ele>
        <time>2024-01-27T10:15:17.000Z</time>
        <extensions>
          <ns3:TrackPointExtension>
            <ns3:hr>152</ns3:hr>
            <ns3:cad>91</ns3:cad>
          </ns3:TrackPointExtension>
        </extensions>
      </trkpt>
      <trkpt lat="43.8363197632133960723876953125" lon="4.2501519620418548583984375">
        <ele>157.8000030517578125</ele>
        <time>2024-01-27T10:15:18.000Z</time>
        <extensions>
          <ns3:TrackPointExtension>
            <ns3:hr>152</ns3:hr>
            <ns3:cad>91</ns3:cad>
          </ns3:TrackPointExtension>
        </extensions>
      </trkpt>
      <trkpt lat="43.8363073579967021942138671875" lon="4.25015925429761409759521484375">
        <ele>157.1999969482421875</ele>
        <time>2024-01-27T10:15:19.000Z</time>
        <extensions>
          <ns3:TrackPointExtension>
            <ns3:hr>152</ns3:hr>
            <ns3:cad>90</ns3:cad>
          </ns3:TrackPointExtension>
        </extensions>
      </trkpt>
      <trkpt lat="43.836290426552295684814453125" lon="4.25015523098409175872802734375">
        <ele>157</ele>
        <time>2024-01-27T10:15:20.000Z</time>
        <extensions>
          <ns3:TrackPointExtension>
            <ns3:hr>152</ns3:hr>
            <ns3:cad>89</ns3:cad>
          </ns3:TrackPointExtension>
        </extensions>
      </trkpt>
      <trkpt lat="43.8362818770110607147216796875" lon="4.25014584325253963470458984375">
        <ele>156.1999969482421875</ele>
        <time>2024-01-27T10:15:21.000Z</time>
        <extensions>
          <ns3:TrackPointExtension>
            <ns3:hr>152</ns3:hr>
            <ns3:cad>89</ns3:cad>
          </ns3:TrackPointExtension>
        </extensions>
      </trkpt>
      <trkpt lat="43.83626704104244709014892578125" lon="4.25012153573334217071533203125">
        <ele>156</ele>
        <time>2024-01-27T10:15:22.000Z</time>
        <extensions>
          <ns3:TrackPointExtension>
            <ns3:hr>152</ns3:hr>
            <ns3:cad>89</ns3:cad>
          </ns3:TrackPointExtension>
        </extensions>
      </trkpt>
      <trkpt lat="43.83625681512057781219482421875" lon="4.25009488128125667572021484375">
        <ele>155.600006103515625</ele>
        <time>2024-01-27T10:15:23.000Z</time>
        <extensions>
          <ns3:TrackPointExtension>
            <ns3:hr>152</ns3:hr>
            <ns3:cad>89</ns3:cad>
          </ns3:TrackPointExtension>
        </extensions>
      </trkpt>
      <trkpt lat="43.836244828999042510986328125" lon="4.25006604753434658050537109375">
        <ele>155.1999969482421875</ele>
        <time>2024-01-27T10:15:24.000Z</time>
        <extensions>
          <ns3:TrackPointExtension>
            <ns3:hr>152</ns3:hr>
            <ns3:cad>89</ns3:cad>
          </ns3:TrackPointExtension>
        </extensions>
      </trkpt>
      <trkpt lat="43.83623586036264896392822265625" lon="4.2500344477593898773193359375">
        <ele>155</ele>
        <time>2024-01-27T10:15:25.000Z</time>
        <extensions>
          <ns3:TrackPointExtension>
            <ns3:hr>152</ns3:hr>
            <ns3:cad>89</ns3:cad>
          </ns3:TrackPointExtension>
        </extensions>
      </trkpt>
      <trkpt lat="43.83622504770755767822265625" lon="4.25001089461147785186767578125">
        <ele>154.8000030517578125</ele>
        <time>2024-01-27T10:15:26.000Z</time>
        <extensions>
          <ns3:TrackPointExtension>
            <ns3:hr>152</ns3:hr>
            <ns3:cad>89</ns3:cad>
          </ns3:TrackPointExtension>
        </extensions>
      </trkpt>
      <trkpt lat="43.83621524088084697723388671875" lon="4.24999915994703769683837890625">
        <ele>154.600006103515625</ele>
        <time>2024-01-27T10:15:27.000Z</time>
        <extensions>
          <ns3:TrackPointExtension>
            <ns3:hr>152</ns3:hr>
            <ns3:cad>88</ns3:cad>
          </ns3:TrackPointExtension>
        </extensions>
      </trkpt>
      <trkpt lat="43.8361993990838527679443359375" lon="4.2499816417694091796875">
        <ele>154.399993896484375</ele>
        <time>2024-01-27T10:15:28.000Z</time>
        <extensions>
          <ns3:TrackPointExtension>
            <ns3:hr>152</ns3:hr>
            <ns3:cad>88</ns3:cad>
          </ns3:TrackPointExtension>
        </extensions>
      </trkpt>
      <trkpt lat="43.83618439547717571258544921875" lon="4.2499694041907787322998046875">
        <ele>154.1999969482421875</ele>
        <time>2024-01-27T10:15:29.000Z</time>
        <extensions>
          <ns3:TrackPointExtension>
            <ns3:hr>152</ns3:hr>
            <ns3:cad>88</ns3:cad>
          </ns3:TrackPointExtension>
        </extensions>
      </trkpt>
      <trkpt lat="43.83616830222308635711669921875" lon="4.24995507113635540008544921875">
        <ele>153.8000030517578125</ele>
        <time>2024-01-27T10:15:30.000Z</time>
        <extensions>
          <ns3:TrackPointExtension>
            <ns3:hr>152</ns3:hr>
            <ns3:cad>89</ns3:cad>
          </ns3:TrackPointExtension>
        </extensions>
      </trkpt>
      <trkpt lat="43.83615338243544101715087890625" lon="4.24995188601315021514892578125">
        <ele>153.600006103515625</ele>
        <time>2024-01-27T10:15:31.000Z</time>
        <extensions>
          <ns3:TrackPointExtension>
            <ns3:hr>152</ns3:hr>
            <ns3:cad>89</ns3:cad>
          </ns3:TrackPointExtension>
        </extensions>
      </trkpt>
      <trkpt lat="43.836140222847461700439453125" lon="4.2499553225934505462646484375">
        <ele>153.600006103515625</ele>
        <time>2024-01-27T10:15:32.000Z</time>
        <extensions>
          <ns3:TrackPointExtension>
            <ns3:hr>152</ns3:hr>
            <ns3:cad>89</ns3:cad>
          </ns3:TrackPointExtension>
        </extensions>
      </trkpt>
      <trkpt lat="43.8361226208508014678955078125" lon="4.2499529756605625152587890625">
        <ele>153.600006103515625</ele>
        <time>2024-01-27T10:15:33.000Z</time>
        <extensions>
          <ns3:TrackPointExtension>
            <ns3:hr>151</ns3:hr>
            <ns3:cad>89</ns3:cad>
          </ns3:TrackPointExtension>
        </extensions>
      </trkpt>
      <trkpt lat="43.8361045159399509429931640625" lon="4.24994668923318386077880859375">
        <ele>153.8000030517578125</ele>
        <time>2024-01-27T10:15:34.000Z</time>
        <extensions>
          <ns3:TrackPointExtension>
            <ns3:hr>151</ns3:hr>
            <ns3:cad>89</ns3:cad>
          </ns3:TrackPointExtension>
        </extensions>
      </trkpt>
      <trkpt lat="43.83608766831457614898681640625" lon="4.24993260763585567474365234375">
        <ele>154</ele>
        <time>2024-01-27T10:15:35.000Z</time>
        <extensions>
          <ns3:TrackPointExtension>
            <ns3:hr>152</ns3:hr>
            <ns3:cad>89</ns3:cad>
          </ns3:TrackPointExtension>
        </extensions>
      </trkpt>
      <trkpt lat="43.83606855757534503936767578125" lon="4.24992254935204982757568359375">
        <ele>154.399993896484375</ele>
        <time>2024-01-27T10:15:36.000Z</time>
        <extensions>
          <ns3:TrackPointExtension>
            <ns3:hr>151</ns3:hr>
            <ns3:cad>89</ns3:cad>
          </ns3:TrackPointExtension>
        </extensions>
      </trkpt>
      <trkpt lat="43.8360592536628246307373046875" lon="4.2499051988124847412109375">
        <ele>154.600006103515625</ele>
        <time>2024-01-27T10:15:37.000Z</time>
        <extensions>
          <ns3:TrackPointExtension>
            <ns3:hr>150</ns3:hr>
            <ns3:cad>89</ns3:cad>
          </ns3:TrackPointExtension>
        </extensions>
      </trkpt>
      <trkpt lat="43.83605212904512882232666015625" lon="4.24988399259746074676513671875">
        <ele>155</ele>
        <time>2024-01-27T10:15:38.000Z</time>
        <extensions>
          <ns3:TrackPointExtension>
            <ns3:hr>150</ns3:hr>
            <ns3:cad>89</ns3:cad>
          </ns3:TrackPointExtension>
        </extensions>
      </trkpt>
      <trkpt lat="43.83605070412158966064453125" lon="4.24985683523118495941162109375">
        <ele>155.1999969482421875</ele>
        <time>2024-01-27T10:15:39.000Z</time>
        <extensions>
          <ns3:TrackPointExtension>
            <ns3:hr>150</ns3:hr>
            <ns3:cad>89</ns3:cad>
          </ns3:TrackPointExtension>
        </extensions>
      </trkpt>
      <trkpt lat="43.836043663322925567626953125" lon="4.24983722157776355743408203125">
        <ele>155.600006103515625</ele>
        <time>2024-01-27T10:15:40.000Z</time>
        <extensions>
          <ns3:TrackPointExtension>
            <ns3:hr>150</ns3:hr>
            <ns3:cad>89</ns3:cad>
          </ns3:TrackPointExtension>
        </extensions>
      </trkpt>
      <trkpt lat="43.8360331021249294281005859375" lon="4.24981576390564441680908203125">
        <ele>156.1999969482421875</ele>
        <time>2024-01-27T10:15:41.000Z</time>
        <extensions>
          <ns3:TrackPointExtension>
            <ns3:hr>151</ns3:hr>
            <ns3:cad>89</ns3:cad>
          </ns3:TrackPointExtension>
        </extensions>
      </trkpt>
      <trkpt lat="43.83602388203144073486328125" lon="4.24980528652667999267578125">
        <ele>156.399993896484375</ele>
        <time>2024-01-27T10:15:42.000Z</time>
        <extensions>
          <ns3:TrackPointExtension>
            <ns3:hr>151</ns3:hr>
            <ns3:cad>88</ns3:cad>
          </ns3:TrackPointExtension>
        </extensions>
      </trkpt>
      <trkpt lat="43.83601105771958827972412109375" lon="4.24979564733803272247314453125">
        <ele>156.600006103515625</ele>
        <time>2024-01-27T10:15:43.000Z</time>
        <extensions>
          <ns3:TrackPointExtension>
            <ns3:hr>151</ns3:hr>
            <ns3:cad>88</ns3:cad>
          </ns3:TrackPointExtension>
        </extensions>
      </trkpt>
      <trkpt lat="43.8359932042658329010009765625" lon="4.249788857996463775634765625">
        <ele>157.1999969482421875</ele>
        <time>2024-01-27T10:15:44.000Z</time>
        <extensions>
          <ns3:TrackPointExtension>
            <ns3:hr>151</ns3:hr>
            <ns3:cad>88</ns3:cad>
          </ns3:TrackPointExtension>
        </extensions>
      </trkpt>
      <trkpt lat="43.8359740935266017913818359375" lon="4.2497762851417064666748046875">
        <ele>157.399993896484375</ele>
        <time>2024-01-27T10:15:45.000Z</time>
        <extensions>
          <ns3:TrackPointExtension>
            <ns3:hr>152</ns3:hr>
            <ns3:cad>89</ns3:cad>
          </ns3:TrackPointExtension>
        </extensions>
      </trkpt>
      <trkpt lat="43.835955820977687835693359375" lon="4.24976949580013751983642578125">
        <ele>157.8000030517578125</ele>
        <time>2024-01-27T10:15:46.000Z</time>
        <extensions>
          <ns3:TrackPointExtension>
            <ns3:hr>152</ns3:hr>
            <ns3:cad>91</ns3:cad>
          </ns3:TrackPointExtension>
        </extensions>
      </trkpt>
      <trkpt lat="43.83593679405748844146728515625" lon="4.2497603595256805419921875">
        <ele>157.8000030517578125</ele>
        <time>2024-01-27T10:15:47.000Z</time>
        <extensions>
          <ns3:TrackPointExtension>
            <ns3:hr>152</ns3:hr>
            <ns3:cad>91</ns3:cad>
          </ns3:TrackPointExtension>
        </extensions>
      </trkpt>
      <trkpt lat="43.83591583929955959320068359375" lon="4.24974719993770122528076171875">
        <ele>158</ele>
        <time>2024-01-27T10:15:48.000Z</time>
        <extensions>
          <ns3:TrackPointExtension>
            <ns3:hr>152</ns3:hr>
            <ns3:cad>91</ns3:cad>
          </ns3:TrackPointExtension>
        </extensions>
      </trkpt>
      <trkpt lat="43.83589890785515308380126953125" lon="4.2497417517006397247314453125">
        <ele>158.399993896484375</ele>
        <time>2024-01-27T10:15:49.000Z</time>
        <extensions>
          <ns3:TrackPointExtension>
            <ns3:hr>153</ns3:hr>
            <ns3:cad>91</ns3:cad>
          </ns3:TrackPointExtension>
        </extensions>
      </trkpt>
      <trkpt lat="43.835876695811748504638671875" lon="4.2497300170361995697021484375">
        <ele>158.600006103515625</ele>
        <time>2024-01-27T10:15:50.000Z</time>
        <extensions>
          <ns3:TrackPointExtension>
            <ns3:hr>154</ns3:hr>
            <ns3:cad>92</ns3:cad>
          </ns3:TrackPointExtension>
        </extensions>
      </trkpt>
      <trkpt lat="43.8358582556247711181640625" lon="4.24973018467426300048828125">
        <ele>158.8000030517578125</ele>
        <time>2024-01-27T10:15:51.000Z</time>
        <extensions>
          <ns3:TrackPointExtension>
            <ns3:hr>154</ns3:hr>
            <ns3:cad>93</ns3:cad>
          </ns3:TrackPointExtension>
        </extensions>
      </trkpt>
      <trkpt lat="43.835833109915256500244140625" lon="4.24971886910498142242431640625">
        <ele>159</ele>
        <time>2024-01-27T10:15:52.000Z</time>
        <extensions>
          <ns3:TrackPointExtension>
            <ns3:hr>154</ns3:hr>
            <ns3:cad>93</ns3:cad>
          </ns3:TrackPointExtension>
        </extensions>
      </trkpt>
      <trkpt lat="43.83581810630857944488525390625" lon="4.24971316941082477569580078125">
        <ele>159.399993896484375</ele>
        <time>2024-01-27T10:15:53.000Z</time>
        <extensions>
          <ns3:TrackPointExtension>
            <ns3:hr>154</ns3:hr>
            <ns3:cad>93</ns3:cad>
          </ns3:TrackPointExtension>
        </extensions>
      </trkpt>
      <trkpt lat="43.835796900093555450439453125" lon="4.24970160238444805145263671875">
        <ele>159.600006103515625</ele>
        <time>2024-01-27T10:15:54.000Z</time>
        <extensions>
          <ns3:TrackPointExtension>
            <ns3:hr>155</ns3:hr>
            <ns3:cad>93</ns3:cad>
          </ns3:TrackPointExtension>
        </extensions>
      </trkpt>
      <trkpt lat="43.8357823155820369720458984375" lon="4.24969456158578395843505859375">
        <ele>160</ele>
        <time>2024-01-27T10:15:55.000Z</time>
        <extensions>
          <ns3:TrackPointExtension>
            <ns3:hr>155</ns3:hr>
            <ns3:cad>92</ns3:cad>
          </ns3:TrackPointExtension>
        </extensions>
      </trkpt>
      <trkpt lat="43.83576060645282268524169921875" lon="4.24967922270298004150390625">
        <ele>160.1999969482421875</ele>
        <time>2024-01-27T10:15:56.000Z</time>
        <extensions>
          <ns3:TrackPointExtension>
            <ns3:hr>156</ns3:hr>
            <ns3:cad>92</ns3:cad>
          </ns3:TrackPointExtension>
        </extensions>
      </trkpt>
      <trkpt lat="43.8357457704842090606689453125" lon="4.24967260099947452545166015625">
        <ele>160.399993896484375</ele>
        <time>2024-01-27T10:15:57.000Z</time>
        <extensions>
          <ns3:TrackPointExtension>
            <ns3:hr>156</ns3:hr>
            <ns3:cad>92</ns3:cad>
          </ns3:TrackPointExtension>
        </extensions>
      </trkpt>
      <trkpt lat="43.8357320241630077362060546875" lon="4.2496505565941333770751953125">
        <ele>160.600006103515625</ele>
        <time>2024-01-27T10:15:58.000Z</time>
        <extensions>
          <ns3:TrackPointExtension>
            <ns3:hr>157</ns3:hr>
            <ns3:cad>90</ns3:cad>
          </ns3:TrackPointExtension>
        </extensions>
      </trkpt>
      <trkpt lat="43.83571785874664783477783203125" lon="4.24964175559580326080322265625">
        <ele>160.8000030517578125</ele>
        <time>2024-01-27T10:15:59.000Z</time>
        <extensions>
          <ns3:TrackPointExtension>
            <ns3:hr>157</ns3:hr>
            <ns3:cad>90</ns3:cad>
          </ns3:TrackPointExtension>
        </extensions>
      </trkpt>
      <trkpt lat="43.83569707162678241729736328125" lon="4.2496358044445514678955078125">
        <ele>161.1999969482421875</ele>
        <time>2024-01-27T10:16:00.000Z</time>
        <extensions>
          <ns3:TrackPointExtension>
            <ns3:hr>158</ns3:hr>
            <ns3:cad>90</ns3:cad>
          </ns3:TrackPointExtension>
        </extensions>
      </trkpt>
      <trkpt lat="43.83568215183913707733154296875" lon="4.2496342957019805908203125">
        <ele>161.399993896484375</ele>
        <time>2024-01-27T10:16:01.000Z</time>
        <extensions>
          <ns3:TrackPointExtension>
            <ns3:hr>159</ns3:hr>
            <ns3:cad>90</ns3:cad>
          </ns3:TrackPointExtension>
        </extensions>
      </trkpt>
      <trkpt lat="43.83566622622311115264892578125" lon="4.249619543552398681640625">
        <ele>161.8000030517578125</ele>
        <time>2024-01-27T10:16:02.000Z</time>
        <extensions>
          <ns3:TrackPointExtension>
            <ns3:hr>160</ns3:hr>
            <ns3:cad>90</ns3:cad>
          </ns3:TrackPointExtension>
        </extensions>
      </trkpt>
      <trkpt lat="43.83565013296902179718017578125" lon="4.24961593933403491973876953125">
        <ele>162</ele>
        <time>2024-01-27T10:16:03.000Z</time>
        <extensions>
          <ns3:TrackPointExtension>
            <ns3:hr>160</ns3:hr>
            <ns3:cad>90</ns3:cad>
          </ns3:TrackPointExtension>
        </extensions>
      </trkpt>
      <trkpt lat="43.83563236333429813385009765625" lon="4.24960101954638957977294921875">
        <ele>162.1999969482421875</ele>
        <time>2024-01-27T10:16:04.000Z</time>
        <extensions>
          <ns3:TrackPointExtension>
            <ns3:hr>160</ns3:hr>
            <ns3:cad>91</ns3:cad>
          </ns3:TrackPointExtension>
        </extensions>
      </trkpt>
      <trkpt lat="43.83562029339373111724853515625" lon="4.24958894960582256317138671875">
        <ele>162.600006103515625</ele>
        <time>2024-01-27T10:16:05.000Z</time>
        <extensions>
          <ns3:TrackPointExtension>
            <ns3:hr>161</ns3:hr>
            <ns3:cad>92</ns3:cad>
          </ns3:TrackPointExtension>
        </extensions>
      </trkpt>
      <trkpt lat="43.83560135029256343841552734375" lon="4.24958257935941219329833984375">
        <ele>162.600006103515625</ele>
        <time>2024-01-27T10:16:06.000Z</time>
        <extensions>
          <ns3:TrackPointExtension>
            <ns3:hr>161</ns3:hr>
            <ns3:cad>92</ns3:cad>
          </ns3:TrackPointExtension>
        </extensions>
      </trkpt>
      <trkpt lat="43.835586346685886383056640625" lon="4.2495833337306976318359375">
        <ele>163</ele>
        <time>2024-01-27T10:16:07.000Z</time>
        <extensions>
          <ns3:TrackPointExtension>
            <ns3:hr>161</ns3:hr>
            <ns3:cad>92</ns3:cad>
          </ns3:TrackPointExtension>
        </extensions>
      </trkpt>
      <trkpt lat="43.83557067252695560455322265625" lon="4.2495767958462238311767578125">
        <ele>163</ele>
        <time>2024-01-27T10:16:08.000Z</time>
        <extensions>
          <ns3:TrackPointExtension>
            <ns3:hr>161</ns3:hr>
            <ns3:cad>90</ns3:cad>
          </ns3:TrackPointExtension>
        </extensions>
      </trkpt>
      <trkpt lat="43.835557512938976287841796875" lon="4.2495697550475597381591796875">
        <ele>163.399993896484375</ele>
        <time>2024-01-27T10:16:09.000Z</time>
        <extensions>
          <ns3:TrackPointExtension>
            <ns3:hr>162</ns3:hr>
            <ns3:cad>90</ns3:cad>
          </ns3:TrackPointExtension>
        </extensions>
      </trkpt>
      <trkpt lat="43.83554284460842609405517578125" lon="4.24955693073570728302001953125">
        <ele>163.600006103515625</ele>
        <time>2024-01-27T10:16:10.000Z</time>
        <extensions>
          <ns3:TrackPointExtension>
            <ns3:hr>162</ns3:hr>
            <ns3:cad>90</ns3:cad>
          </ns3:TrackPointExtension>
        </extensions>
      </trkpt>
      <trkpt lat="43.8355261646211147308349609375" lon="4.24955609254539012908935546875">
        <ele>163.8000030517578125</ele>
        <time>2024-01-27T10:16:11.000Z</time>
        <extensions>
          <ns3:TrackPointExtension>
            <ns3:hr>162</ns3:hr>
            <ns3:cad>90</ns3:cad>
          </ns3:TrackPointExtension>
        </extensions>
      </trkpt>
      <trkpt lat="43.8355095684528350830078125" lon="4.24955575726926326751708984375">
        <ele>164</ele>
        <time>2024-01-27T10:16:12.000Z</time>
        <extensions>
          <ns3:TrackPointExtension>
            <ns3:hr>162</ns3:hr>
            <ns3:cad>90</ns3:cad>
          </ns3:TrackPointExtension>
        </extensions>
      </trkpt>
      <trkpt lat="43.8354919664561748504638671875" lon="4.24955860711634159088134765625">
        <ele>164</ele>
        <time>2024-01-27T10:16:13.000Z</time>
        <extensions>
          <ns3:TrackPointExtension>
            <ns3:hr>163</ns3:hr>
            <ns3:cad>90</ns3:cad>
          </ns3:TrackPointExtension>
        </extensions>
      </trkpt>
      <trkpt lat="43.8354772143065929412841796875" lon="4.24956464208662509918212890625">
        <ele>164.1999969482421875</ele>
        <time>2024-01-27T10:16:14.000Z</time>
        <extensions>
          <ns3:TrackPointExtension>
            <ns3:hr>163</ns3:hr>
            <ns3:cad>92</ns3:cad>
          </ns3:TrackPointExtension>
        </extensions>
      </trkpt>
      <trkpt lat="43.83545634336769580841064453125" lon="4.24958224408328533172607421875">
        <ele>164.1999969482421875</ele>
        <time>2024-01-27T10:16:15.000Z</time>
        <extensions>
          <ns3:TrackPointExtension>
            <ns3:hr>163</ns3:hr>
            <ns3:cad>92</ns3:cad>
          </ns3:TrackPointExtension>
        </extensions>
      </trkpt>
      <trkpt lat="43.83543706499040126800537109375" lon="4.24959179945290088653564453125">
        <ele>164.399993896484375</ele>
        <time>2024-01-27T10:16:16.000Z</time>
        <extensions>
          <ns3:TrackPointExtension>
            <ns3:hr>163</ns3:hr>
            <ns3:cad>92</ns3:cad>
          </ns3:TrackPointExtension>
        </extensions>
      </trkpt>
      <trkpt lat="43.8354131765663623809814453125" lon="4.24959263764321804046630859375">
        <ele>164.600006103515625</ele>
        <time>2024-01-27T10:16:17.000Z</time>
        <extensions>
          <ns3:TrackPointExtension>
            <ns3:hr>163</ns3:hr>
            <ns3:cad>92</ns3:cad>
          </ns3:TrackPointExtension>
        </extensions>
      </trkpt>
      <trkpt lat="43.83539482019841670989990234375" lon="4.2495954036712646484375">
        <ele>164.8000030517578125</ele>
        <time>2024-01-27T10:16:18.000Z</time>
        <extensions>
          <ns3:TrackPointExtension>
            <ns3:hr>163</ns3:hr>
            <ns3:cad>92</ns3:cad>
          </ns3:TrackPointExtension>
        </extensions>
      </trkpt>
      <trkpt lat="43.83537503890693187713623046875" lon="4.249598085880279541015625">
        <ele>165</ele>
        <time>2024-01-27T10:16:19.000Z</time>
        <extensions>
          <ns3:TrackPointExtension>
            <ns3:hr>163</ns3:hr>
            <ns3:cad>92</ns3:cad>
          </ns3:TrackPointExtension>
        </extensions>
      </trkpt>
      <trkpt lat="43.83535592816770076751708984375" lon="4.249595068395137786865234375">
        <ele>165.399993896484375</ele>
        <time>2024-01-27T10:16:20.000Z</time>
        <extensions>
          <ns3:TrackPointExtension>
            <ns3:hr>163</ns3:hr>
            <ns3:cad>91</ns3:cad>
          </ns3:TrackPointExtension>
        </extensions>
      </trkpt>
      <trkpt lat="43.835338912904262542724609375" lon="4.24959548749029636383056640625">
        <ele>165.600006103515625</ele>
        <time>2024-01-27T10:16:21.000Z</time>
        <extensions>
          <ns3:TrackPointExtension>
            <ns3:hr>164</ns3:hr>
            <ns3:cad>91</ns3:cad>
          </ns3:TrackPointExtension>
        </extensions>
      </trkpt>
      <trkpt lat="43.8353233225643634796142578125" lon="4.2495885305106639862060546875">
        <ele>166</ele>
        <time>2024-01-27T10:16:22.000Z</time>
        <extensions>
          <ns3:TrackPointExtension>
            <ns3:hr>164</ns3:hr>
            <ns3:cad>89</ns3:cad>
          </ns3:TrackPointExtension>
        </extensions>
      </trkpt>
      <trkpt lat="43.8353095762431621551513671875" lon="4.24958358518779277801513671875">
        <ele>166.399993896484375</ele>
        <time>2024-01-27T10:16:23.000Z</time>
        <extensions>
          <ns3:TrackPointExtension>
            <ns3:hr>164</ns3:hr>
            <ns3:cad>87</ns3:cad>
          </ns3:TrackPointExtension>
        </extensions>
      </trkpt>
      <trkpt lat="43.8352938182651996612548828125" lon="4.2495734430849552154541015625">
        <ele>166.600006103515625</ele>
        <time>2024-01-27T10:16:24.000Z</time>
        <extensions>
          <ns3:TrackPointExtension>
            <ns3:hr>164</ns3:hr>
            <ns3:cad>87</ns3:cad>
          </ns3:TrackPointExtension>
        </extensions>
      </trkpt>
      <trkpt lat="43.83527395315468311309814453125" lon="4.24956263042986392974853515625">
        <ele>167</ele>
        <time>2024-01-27T10:16:25.000Z</time>
        <extensions>
          <ns3:TrackPointExtension>
            <ns3:hr>164</ns3:hr>
            <ns3:cad>87</ns3:cad>
          </ns3:TrackPointExtension>
        </extensions>
      </trkpt>
      <trkpt lat="43.83525677025318145751953125" lon="4.24955047667026519775390625">
        <ele>167.399993896484375</ele>
        <time>2024-01-27T10:16:26.000Z</time>
        <extensions>
          <ns3:TrackPointExtension>
            <ns3:hr>165</ns3:hr>
            <ns3:cad>90</ns3:cad>
          </ns3:TrackPointExtension>
        </extensions>
      </trkpt>
      <trkpt lat="43.8352391682565212249755859375" lon="4.2495419271290302276611328125">
        <ele>167.600006103515625</ele>
        <time>2024-01-27T10:16:27.000Z</time>
        <extensions>
          <ns3:TrackPointExtension>
            <ns3:hr>165</ns3:hr>
            <ns3:cad>90</ns3:cad>
          </ns3:TrackPointExtension>
        </extensions>
      </trkpt>
      <trkpt lat="43.83522416464984416961669921875" lon="4.24953765235841274261474609375">
        <ele>168</ele>
        <time>2024-01-27T10:16:28.000Z</time>
        <extensions>
          <ns3:TrackPointExtension>
            <ns3:hr>165</ns3:hr>
            <ns3:cad>92</ns3:cad>
          </ns3:TrackPointExtension>
        </extensions>
      </trkpt>
      <trkpt lat="43.83520974777638912200927734375" lon="4.249534718692302703857421875">
        <ele>168.1999969482421875</ele>
        <time>2024-01-27T10:16:29.000Z</time>
        <extensions>
          <ns3:TrackPointExtension>
            <ns3:hr>165</ns3:hr>
            <ns3:cad>92</ns3:cad>
          </ns3:TrackPointExtension>
        </extensions>
      </trkpt>
      <trkpt lat="43.835202120244503021240234375" lon="4.2495325393974781036376953125">
        <ele>168.600006103515625</ele>
        <time>2024-01-27T10:16:30.000Z</time>
        <extensions>
          <ns3:TrackPointExtension>
            <ns3:hr>165</ns3:hr>
            <ns3:cad>92</ns3:cad>
          </ns3:TrackPointExtension>
        </extensions>
      </trkpt>
      <trkpt lat="43.8351952470839023590087890625" lon="4.24952709116041660308837890625">
        <ele>169</ele>
        <time>2024-01-27T10:16:31.000Z</time>
        <extensions>
          <ns3:TrackPointExtension>
            <ns3:hr>166</ns3:hr>
            <ns3:cad>92</ns3:cad>
          </ns3:TrackPointExtension>
        </extensions>
      </trkpt>
      <trkpt lat="43.83518175221979618072509765625" lon="4.2495171166956424713134765625">
        <ele>169.1999969482421875</ele>
        <time>2024-01-27T10:16:32.000Z</time>
        <extensions>
          <ns3:TrackPointExtension>
            <ns3:hr>166</ns3:hr>
            <ns3:cad>92</ns3:cad>
          </ns3:TrackPointExtension>
        </extensions>
      </trkpt>
      <trkpt lat="43.83517571724951267242431640625" lon="4.24950747750699520111083984375">
        <ele>169.600006103515625</ele>
        <time>2024-01-27T10:16:33.000Z</time>
        <extensions>
          <ns3:TrackPointExtension>
            <ns3:hr>166</ns3:hr>
            <ns3:cad>92</ns3:cad>
          </ns3:TrackPointExtension>
        </extensions>
      </trkpt>
      <trkpt lat="43.83517018519341945648193359375" lon="4.249503202736377716064453125">
        <ele>169.8000030517578125</ele>
        <time>2024-01-27T10:16:34.000Z</time>
        <extensions>
          <ns3:TrackPointExtension>
            <ns3:hr>166</ns3:hr>
            <ns3:cad>92</ns3:cad>
          </ns3:TrackPointExtension>
        </extensions>
      </trkpt>
      <trkpt lat="43.83516431786119937896728515625" lon="4.249507226049900054931640625">
        <ele>170.1999969482421875</ele>
        <time>2024-01-27T10:16:35.000Z</time>
        <extensions>
          <ns3:TrackPointExtension>
            <ns3:hr>166</ns3:hr>
            <ns3:cad>92</ns3:cad>
          </ns3:TrackPointExtension>
        </extensions>
      </trkpt>
      <trkpt lat="43.835157193243503570556640625" lon="4.24950982443988323211669921875">
        <ele>170.399993896484375</ele>
        <time>2024-01-27T10:16:36.000Z</time>
        <extensions>
          <ns3:TrackPointExtension>
            <ns3:hr>167</ns3:hr>
            <ns3:cad>92</ns3:cad>
          </ns3:TrackPointExtension>
        </extensions>
      </trkpt>
      <trkpt lat="43.8351459614932537078857421875" lon="4.249506890773773193359375">
        <ele>170.600006103515625</ele>
        <time>2024-01-27T10:16:37.000Z</time>
        <extensions>
          <ns3:TrackPointExtension>
            <ns3:hr>167</ns3:hr>
            <ns3:cad>92</ns3:cad>
          </ns3:TrackPointExtension>
        </extensions>
      </trkpt>
      <trkpt lat="43.8351312093436717987060546875" lon="4.24950328655540943145751953125">
        <ele>170.8000030517578125</ele>
        <time>2024-01-27T10:16:38.000Z</time>
        <extensions>
          <ns3:TrackPointExtension>
            <ns3:hr>167</ns3:hr>
            <ns3:cad>92</ns3:cad>
          </ns3:TrackPointExtension>
        </extensions>
      </trkpt>
      <trkpt lat="43.83511905558407306671142578125" lon="4.24949658103287220001220703125">
        <ele>171</ele>
        <time>2024-01-27T10:16:39.000Z</time>
        <extensions>
          <ns3:TrackPointExtension>
            <ns3:hr>167</ns3:hr>
            <ns3:cad>92</ns3:cad>
          </ns3:TrackPointExtension>
        </extensions>
      </trkpt>
      <trkpt lat="43.83510312996804714202880859375" lon="4.249487780034542083740234375">
        <ele>171.1999969482421875</ele>
        <time>2024-01-27T10:16:40.000Z</time>
        <extensions>
          <ns3:TrackPointExtension>
            <ns3:hr>167</ns3:hr>
            <ns3:cad>92</ns3:cad>
          </ns3:TrackPointExtension>
        </extensions>
      </trkpt>
      <trkpt lat="43.835096843540668487548828125" lon="4.24948266707360744476318359375">
        <ele>171.399993896484375</ele>
        <time>2024-01-27T10:16:41.000Z</time>
        <extensions>
          <ns3:TrackPointExtension>
            <ns3:hr>167</ns3:hr>
            <ns3:cad>92</ns3:cad>
          </ns3:TrackPointExtension>
        </extensions>
      </trkpt>
      <trkpt lat="43.83508636616170406341552734375" lon="4.2494795657694339752197265625">
        <ele>171.399993896484375</ele>
        <time>2024-01-27T10:16:42.000Z</time>
        <extensions>
          <ns3:TrackPointExtension>
            <ns3:hr>167</ns3:hr>
            <ns3:cad>92</ns3:cad>
          </ns3:TrackPointExtension>
        </extensions>
      </trkpt>
      <trkpt lat="43.8350750505924224853515625" lon="4.24947830848395824432373046875">
        <ele>171.600006103515625</ele>
        <time>2024-01-27T10:16:43.000Z</time>
        <extensions>
          <ns3:TrackPointExtension>
            <ns3:hr>168</ns3:hr>
            <ns3:cad>58</ns3:cad>
          </ns3:TrackPointExtension>
        </extensions>
      </trkpt>
      <trkpt lat="43.8350628130137920379638671875" lon="4.2494760453701019287109375">
        <ele>171.8000030517578125</ele>
        <time>2024-01-27T10:16:44.000Z</time>
        <extensions>
          <ns3:TrackPointExtension>
            <ns3:hr>168</ns3:hr>
            <ns3:cad>58</ns3:cad>
          </ns3:TrackPointExtension>
        </extensions>
      </trkpt>
      <trkpt lat="43.83505334146320819854736328125" lon="4.24947244115173816680908203125">
        <ele>172</ele>
        <time>2024-01-27T10:16:45.000Z</time>
        <extensions>
          <ns3:TrackPointExtension>
            <ns3:hr>168</ns3:hr>
            <ns3:cad>58</ns3:cad>
          </ns3:TrackPointExtension>
        </extensions>
      </trkpt>
      <trkpt lat="43.83504328317940235137939453125" lon="4.249469675123691558837890625">
        <ele>172</ele>
        <time>2024-01-27T10:16:46.000Z</time>
        <extensions>
          <ns3:TrackPointExtension>
            <ns3:hr>168</ns3:hr>
            <ns3:cad>58</ns3:cad>
          </ns3:TrackPointExtension>
        </extensions>
      </trkpt>
      <trkpt lat="43.8350366614758968353271484375" lon="4.24946590326726436614990234375">
        <ele>172.1999969482421875</ele>
        <time>2024-01-27T10:16:47.000Z</time>
        <extensions>
          <ns3:TrackPointExtension>
            <ns3:hr>168</ns3:hr>
            <ns3:cad>57</ns3:cad>
          </ns3:TrackPointExtension>
        </extensions>
      </trkpt>
      <trkpt lat="43.8350252620875835418701171875" lon="4.24946129322052001953125">
        <ele>172.399993896484375</ele>
        <time>2024-01-27T10:16:48.000Z</time>
        <extensions>
          <ns3:TrackPointExtension>
            <ns3:hr>168</ns3:hr>
            <ns3:cad>56</ns3:cad>
          </ns3:TrackPointExtension>
        </extensions>
      </trkpt>
      <trkpt lat="43.8350145332515239715576171875" lon="4.249453581869602203369140625">
        <ele>172.600006103515625</ele>
        <time>2024-01-27T10:16:49.000Z</time>
        <extensions>
          <ns3:TrackPointExtension>
            <ns3:hr>168</ns3:hr>
            <ns3:cad>55</ns3:cad>
          </ns3:TrackPointExtension>
        </extensions>
      </trkpt>
      <trkpt lat="43.835005648434162139892578125" lon="4.24944394268095493316650390625">
        <ele>172.8000030517578125</ele>
        <time>2024-01-27T10:16:50.000Z</time>
        <extensions>
          <ns3:TrackPointExtension>
            <ns3:hr>168</ns3:hr>
            <ns3:cad>55</ns3:cad>
          </ns3:TrackPointExtension>
        </extensions>
      </trkpt>
      <trkpt lat="43.8349972665309906005859375" lon="4.2494383268058300018310546875">
        <ele>172.8000030517578125</ele>
        <time>2024-01-27T10:16:51.000Z</time>
        <extensions>
          <ns3:TrackPointExtension>
            <ns3:hr>168</ns3:hr>
            <ns3:cad>56</ns3:cad>
          </ns3:TrackPointExtension>
        </extensions>
      </trkpt>
      <trkpt lat="43.83498678915202617645263671875" lon="4.2494282685220241546630859375">
        <ele>173.1999969482421875</ele>
        <time>2024-01-27T10:16:52.000Z</time>
        <extensions>
          <ns3:TrackPointExtension>
            <ns3:hr>168</ns3:hr>
            <ns3:cad>57</ns3:cad>
          </ns3:TrackPointExtension>
        </extensions>
      </trkpt>
      <trkpt lat="43.8349773176014423370361328125" lon="4.24941636621952056884765625">
        <ele>173.399993896484375</ele>
        <time>2024-01-27T10:16:53.000Z</time>
        <extensions>
          <ns3:TrackPointExtension>
            <ns3:hr>168</ns3:hr>
            <ns3:cad>58</ns3:cad>
          </ns3:TrackPointExtension>
        </extensions>
      </trkpt>
      <trkpt lat="43.83496575057506561279296875" lon="4.24940295517444610595703125">
        <ele>173.600006103515625</ele>
        <time>2024-01-27T10:16:54.000Z</time>
        <extensions>
          <ns3:TrackPointExtension>
            <ns3:hr>168</ns3:hr>
            <ns3:cad>59</ns3:cad>
          </ns3:TrackPointExtension>
        </extensions>
      </trkpt>
      <trkpt lat="43.83495443500578403472900390625" lon="4.24938929267227649688720703125">
        <ele>173.8000030517578125</ele>
        <time>2024-01-27T10:16:55.000Z</time>
        <extensions>
          <ns3:TrackPointExtension>
            <ns3:hr>168</ns3:hr>
            <ns3:cad>59</ns3:cad>
          </ns3:TrackPointExtension>
        </extensions>
      </trkpt>
      <trkpt lat="43.83494538255035877227783203125" lon="4.2493773065507411956787109375">
        <ele>173.8000030517578125</ele>
        <time>2024-01-27T10:16:56.000Z</time>
        <extensions>
          <ns3:TrackPointExtension>
            <ns3:hr>169</ns3:hr>
            <ns3:cad>58</ns3:cad>
          </ns3:TrackPointExtension>
        </extensions>
      </trkpt>
      <trkpt lat="43.8349354080855846405029296875" lon="4.2493682540953159332275390625">
        <ele>174</ele>
        <time>2024-01-27T10:16:57.000Z</time>
        <extensions>
          <ns3:TrackPointExtension>
            <ns3:hr>168</ns3:hr>
            <ns3:cad>56</ns3:cad>
          </ns3:TrackPointExtension>
        </extensions>
      </trkpt>
      <trkpt lat="43.83492643944919109344482421875" lon="4.24935677088797092437744140625">
        <ele>174.1999969482421875</ele>
        <time>2024-01-27T10:16:58.000Z</time>
        <extensions>
          <ns3:TrackPointExtension>
            <ns3:hr>168</ns3:hr>
            <ns3:cad>55</ns3:cad>
          </ns3:TrackPointExtension>
        </extensions>
      </trkpt>
      <trkpt lat="43.83491369895637035369873046875" lon="4.24934319220483303070068359375">
        <ele>174.399993896484375</ele>
        <time>2024-01-27T10:16:59.000Z</time>
        <extensions>
          <ns3:TrackPointExtension>
            <ns3:hr>168</ns3:hr>
            <ns3:cad>55</ns3:cad>
          </ns3:TrackPointExtension>
        </extensions>
      </trkpt>
      <trkpt lat="43.834903053939342498779296875" lon="4.249331541359424591064453125">
        <ele>174.600006103515625</ele>
        <time>2024-01-27T10:17:00.000Z</time>
        <extensions>
          <ns3:TrackPointExtension>
            <ns3:hr>168</ns3:hr>
            <ns3:cad>54</ns3:cad>
          </ns3:TrackPointExtension>
        </extensions>
      </trkpt>
      <trkpt lat="43.8348934985697269439697265625" lon="4.2493216507136821746826171875">
        <ele>174.600006103515625</ele>
        <time>2024-01-27T10:17:01.000Z</time>
        <extensions>
          <ns3:TrackPointExtension>
            <ns3:hr>168</ns3:hr>
            <ns3:cad>54</ns3:cad>
          </ns3:TrackPointExtension>
        </extensions>
      </trkpt>
      <trkpt lat="43.83488419465720653533935546875" lon="4.24931469373404979705810546875">
        <ele>174.600006103515625</ele>
        <time>2024-01-27T10:17:02.000Z</time>
        <extensions>
          <ns3:TrackPointExtension>
            <ns3:hr>168</ns3:hr>
            <ns3:cad>54</ns3:cad>
          </ns3:TrackPointExtension>
        </extensions>
      </trkpt>
      <trkpt lat="43.8348740525543689727783203125" lon="4.2493072338402271270751953125">
        <ele>174.600006103515625</ele>
        <time>2024-01-27T10:17:03.000Z</time>
        <extensions>
          <ns3:TrackPointExtension>
            <ns3:hr>168</ns3:hr>
            <ns3:cad>54</ns3:cad>
          </ns3:TrackPointExtension>
        </extensions>
      </trkpt>
      <trkpt lat="43.834858126938343048095703125" lon="4.249296672642230987548828125">
        <ele>174.8000030517578125</ele>
        <time>2024-01-27T10:17:04.000Z</time>
        <extensions>
          <ns3:TrackPointExtension>
            <ns3:hr>167</ns3:hr>
            <ns3:cad>54</ns3:cad>
          </ns3:TrackPointExtension>
        </extensions>
      </trkpt>
      <trkpt lat="43.834842704236507415771484375" lon="4.24928820692002773284912109375">
        <ele>175</ele>
        <time>2024-01-27T10:17:05.000Z</time>
        <extensions>
          <ns3:TrackPointExtension>
            <ns3:hr>167</ns3:hr>
            <ns3:cad>54</ns3:cad>
          </ns3:TrackPointExtension>
        </extensions>
      </trkpt>
      <trkpt lat="43.83482627570629119873046875" lon="4.2492820881307125091552734375">
        <ele>175</ele>
        <time>2024-01-27T10:17:06.000Z</time>
        <extensions>
          <ns3:TrackPointExtension>
            <ns3:hr>166</ns3:hr>
            <ns3:cad>54</ns3:cad>
          </ns3:TrackPointExtension>
        </extensions>
      </trkpt>
      <trkpt lat="43.83480339311063289642333984375" lon="4.249284267425537109375">
        <ele>175.1999969482421875</ele>
        <time>2024-01-27T10:17:07.000Z</time>
        <extensions>
          <ns3:TrackPointExtension>
            <ns3:hr>166</ns3:hr>
            <ns3:cad>88</ns3:cad>
          </ns3:TrackPointExtension>
        </extensions>
      </trkpt>
      <trkpt lat="43.83478059433400630950927734375" lon="4.24927982501685619354248046875">
        <ele>175.1999969482421875</ele>
        <time>2024-01-27T10:17:08.000Z</time>
        <extensions>
          <ns3:TrackPointExtension>
            <ns3:hr>165</ns3:hr>
            <ns3:cad>90</ns3:cad>
          </ns3:TrackPointExtension>
        </extensions>
      </trkpt>
      <trkpt lat="43.83476081304252147674560546875" lon="4.24927999265491962432861328125">
        <ele>175.1999969482421875</ele>
        <time>2024-01-27T10:17:09.000Z</time>
        <extensions>
          <ns3:TrackPointExtension>
            <ns3:hr>165</ns3:hr>
            <ns3:cad>90</ns3:cad>
          </ns3:TrackPointExtension>
        </extensions>
      </trkpt>
      <trkpt lat="43.8347399421036243438720703125" lon="4.2492747120559215545654296875">
        <ele>175.1999969482421875</ele>
        <time>2024-01-27T10:17:10.000Z</time>
        <extensions>
          <ns3:TrackPointExtension>
            <ns3:hr>165</ns3:hr>
            <ns3:cad>90</ns3:cad>
          </ns3:TrackPointExtension>
        </extensions>
      </trkpt>
      <trkpt lat="43.8347198255360126495361328125" lon="4.24927110783755779266357421875">
        <ele>175.399993896484375</ele>
        <time>2024-01-27T10:17:11.000Z</time>
        <extensions>
          <ns3:TrackPointExtension>
            <ns3:hr>165</ns3:hr>
            <ns3:cad>90</ns3:cad>
          </ns3:TrackPointExtension>
        </extensions>
      </trkpt>
      <trkpt lat="43.83470046333968639373779296875" lon="4.24926876090466976165771484375">
        <ele>175.399993896484375</ele>
        <time>2024-01-27T10:17:12.000Z</time>
        <extensions>
          <ns3:TrackPointExtension>
            <ns3:hr>165</ns3:hr>
            <ns3:cad>90</ns3:cad>
          </ns3:TrackPointExtension>
        </extensions>
      </trkpt>
      <trkpt lat="43.83467565290629863739013671875" lon="4.24927043728530406951904296875">
        <ele>175.600006103515625</ele>
        <time>2024-01-27T10:17:13.000Z</time>
        <extensions>
          <ns3:TrackPointExtension>
            <ns3:hr>165</ns3:hr>
            <ns3:cad>90</ns3:cad>
          </ns3:TrackPointExtension>
        </extensions>
      </trkpt>
      <trkpt lat="43.83465637452900409698486328125" lon="4.249267838895320892333984375">
        <ele>175.600006103515625</ele>
        <time>2024-01-27T10:17:14.000Z</time>
        <extensions>
          <ns3:TrackPointExtension>
            <ns3:hr>164</ns3:hr>
            <ns3:cad>90</ns3:cad>
          </ns3:TrackPointExtension>
        </extensions>
      </trkpt>
      <trkpt lat="43.83463609032332897186279296875" lon="4.24927194602787494659423828125">
        <ele>175.600006103515625</ele>
        <time>2024-01-27T10:17:15.000Z</time>
        <extensions>
          <ns3:TrackPointExtension>
            <ns3:hr>164</ns3:hr>
            <ns3:cad>90</ns3:cad>
          </ns3:TrackPointExtension>
        </extensions>
      </trkpt>
      <trkpt lat="43.8346162252128124237060546875" lon="4.24927429296076297760009765625">
        <ele>175.600006103515625</ele>
        <time>2024-01-27T10:17:16.000Z</time>
        <extensions>
          <ns3:TrackPointExtension>
            <ns3:hr>164</ns3:hr>
            <ns3:cad>90</ns3:cad>
          </ns3:TrackPointExtension>
        </extensions>
      </trkpt>
      <trkpt lat="43.83459099568426609039306640625" lon="4.24927890300750732421875">
        <ele>175.399993896484375</ele>
        <time>2024-01-27T10:17:17.000Z</time>
        <extensions>
          <ns3:TrackPointExtension>
            <ns3:hr>164</ns3:hr>
            <ns3:cad>90</ns3:cad>
          </ns3:TrackPointExtension>
        </extensions>
      </trkpt>
      <trkpt lat="43.83457020856440067291259765625" lon="4.24927848391234874725341796875">
        <ele>175.1999969482421875</ele>
        <time>2024-01-27T10:17:18.000Z</time>
        <extensions>
          <ns3:TrackPointExtension>
            <ns3:hr>164</ns3:hr>
            <ns3:cad>92</ns3:cad>
          </ns3:TrackPointExtension>
        </extensions>
      </trkpt>
      <trkpt lat="43.834542967379093170166015625" lon="4.24927999265491962432861328125">
        <ele>175</ele>
        <time>2024-01-27T10:17:19.000Z</time>
        <extensions>
          <ns3:TrackPointExtension>
            <ns3:hr>164</ns3:hr>
            <ns3:cad>92</ns3:cad>
          </ns3:TrackPointExtension>
        </extensions>
      </trkpt>
      <trkpt lat="43.83452025242149829864501953125" lon="4.249277897179126739501953125">
        <ele>174.600006103515625</ele>
        <time>2024-01-27T10:17:20.000Z</time>
        <extensions>
          <ns3:TrackPointExtension>
            <ns3:hr>163</ns3:hr>
            <ns3:cad>92</ns3:cad>
          </ns3:TrackPointExtension>
        </extensions>
      </trkpt>
      <trkpt lat="43.834494687616825103759765625" lon="4.24927663989365100860595703125">
        <ele>174.600006103515625</ele>
        <time>2024-01-27T10:17:21.000Z</time>
        <extensions>
          <ns3:TrackPointExtension>
            <ns3:hr>163</ns3:hr>
            <ns3:cad>92</ns3:cad>
          </ns3:TrackPointExtension>
        </extensions>
      </trkpt>
      <trkpt lat="43.83447197265923023223876953125" lon="4.24927345477044582366943359375">
        <ele>174.600006103515625</ele>
        <time>2024-01-27T10:17:22.000Z</time>
        <extensions>
          <ns3:TrackPointExtension>
            <ns3:hr>163</ns3:hr>
            <ns3:cad>92</ns3:cad>
          </ns3:TrackPointExtension>
        </extensions>
      </trkpt>
      <trkpt lat="43.83444917388260364532470703125" lon="4.2492659948766231536865234375">
        <ele>174.600006103515625</ele>
        <time>2024-01-27T10:17:23.000Z</time>
        <extensions>
          <ns3:TrackPointExtension>
            <ns3:hr>163</ns3:hr>
            <ns3:cad>93</ns3:cad>
          </ns3:TrackPointExtension>
        </extensions>
      </trkpt>
      <trkpt lat="43.83443023078143596649169921875" lon="4.2492589540779590606689453125">
        <ele>174.600006103515625</ele>
        <time>2024-01-27T10:17:24.000Z</time>
        <extensions>
          <ns3:TrackPointExtension>
            <ns3:hr>162</ns3:hr>
            <ns3:cad>93</ns3:cad>
          </ns3:TrackPointExtension>
        </extensions>
      </trkpt>
      <trkpt lat="43.83440827019512653350830078125" lon="4.24924747087061405181884765625">
        <ele>174.399993896484375</ele>
        <time>2024-01-27T10:17:25.000Z</time>
        <extensions>
          <ns3:TrackPointExtension>
            <ns3:hr>162</ns3:hr>
            <ns3:cad>93</ns3:cad>
          </ns3:TrackPointExtension>
        </extensions>
      </trkpt>
      <trkpt lat="43.834387399256229400634765625" lon="4.24923992715775966644287109375">
        <ele>174.399993896484375</ele>
        <time>2024-01-27T10:17:26.000Z</time>
        <extensions>
          <ns3:TrackPointExtension>
            <ns3:hr>162</ns3:hr>
            <ns3:cad>93</ns3:cad>
          </ns3:TrackPointExtension>
        </extensions>
      </trkpt>
      <trkpt lat="43.83436300791800022125244140625" lon="4.24922525882720947265625">
        <ele>174.399993896484375</ele>
        <time>2024-01-27T10:17:27.000Z</time>
        <extensions>
          <ns3:TrackPointExtension>
            <ns3:hr>162</ns3:hr>
            <ns3:cad>93</ns3:cad>
          </ns3:TrackPointExtension>
        </extensions>
      </trkpt>
      <trkpt lat="43.83433903567492961883544921875" lon="4.24921461381018161773681640625">
        <ele>174.1999969482421875</ele>
        <time>2024-01-27T10:17:28.000Z</time>
        <extensions>
          <ns3:TrackPointExtension>
            <ns3:hr>161</ns3:hr>
            <ns3:cad>92</ns3:cad>
          </ns3:TrackPointExtension>
        </extensions>
      </trkpt>
      <trkpt lat="43.83431657217442989349365234375" lon="4.24920044839382171630859375">
        <ele>174</ele>
        <time>2024-01-27T10:17:29.000Z</time>
        <extensions>
          <ns3:TrackPointExtension>
            <ns3:hr>161</ns3:hr>
            <ns3:cad>92</ns3:cad>
          </ns3:TrackPointExtension>
        </extensions>
      </trkpt>
      <trkpt lat="43.83429310284554958343505859375" lon="4.24919374287128448486328125">
        <ele>173.8000030517578125</ele>
        <time>2024-01-27T10:17:30.000Z</time>
        <extensions>
          <ns3:TrackPointExtension>
            <ns3:hr>161</ns3:hr>
            <ns3:cad>92</ns3:cad>
          </ns3:TrackPointExtension>
        </extensions>
      </trkpt>
      <trkpt lat="43.83426980115473270416259765625" lon="4.24918309785425662994384765625">
        <ele>173.399993896484375</ele>
        <time>2024-01-27T10:17:31.000Z</time>
        <extensions>
          <ns3:TrackPointExtension>
            <ns3:hr>161</ns3:hr>
            <ns3:cad>92</ns3:cad>
          </ns3:TrackPointExtension>
        </extensions>
      </trkpt>
      <trkpt lat="43.83424331434071063995361328125" lon="4.2491828463971614837646484375">
        <ele>173.1999969482421875</ele>
        <time>2024-01-27T10:17:32.000Z</time>
        <extensions>
          <ns3:TrackPointExtension>
            <ns3:hr>161</ns3:hr>
            <ns3:cad>92</ns3:cad>
          </ns3:TrackPointExtension>
        </extensions>
      </trkpt>
      <trkpt lat="43.83421867154538631439208984375" lon="4.2491781525313854217529296875">
        <ele>173</ele>
        <time>2024-01-27T10:17:33.000Z</time>
        <extensions>
          <ns3:TrackPointExtension>
            <ns3:hr>161</ns3:hr>
            <ns3:cad>90</ns3:cad>
          </ns3:TrackPointExtension>
        </extensions>
      </trkpt>
      <trkpt lat="43.834196291863918304443359375" lon="4.24918108619749546051025390625">
        <ele>172.8000030517578125</ele>
        <time>2024-01-27T10:17:34.000Z</time>
        <extensions>
          <ns3:TrackPointExtension>
            <ns3:hr>161</ns3:hr>
            <ns3:cad>90</ns3:cad>
          </ns3:TrackPointExtension>
        </extensions>
      </trkpt>
      <trkpt lat="43.83417005650699138641357421875" lon="4.249184019863605499267578125">
        <ele>172.600006103515625</ele>
        <time>2024-01-27T10:17:35.000Z</time>
        <extensions>
          <ns3:TrackPointExtension>
            <ns3:hr>161</ns3:hr>
            <ns3:cad>90</ns3:cad>
          </ns3:TrackPointExtension>
        </extensions>
      </trkpt>
      <trkpt lat="43.83414474315941333770751953125" lon="4.24919114448130130767822265625">
        <ele>172.600006103515625</ele>
        <time>2024-01-27T10:17:36.000Z</time>
        <extensions>
          <ns3:TrackPointExtension>
            <ns3:hr>161</ns3:hr>
            <ns3:cad>90</ns3:cad>
          </ns3:TrackPointExtension>
        </extensions>
      </trkpt>
      <trkpt lat="43.83411909453570842742919921875" lon="4.2491999454796314239501953125">
        <ele>172.399993896484375</ele>
        <time>2024-01-27T10:17:37.000Z</time>
        <extensions>
          <ns3:TrackPointExtension>
            <ns3:hr>161</ns3:hr>
            <ns3:cad>91</ns3:cad>
          </ns3:TrackPointExtension>
        </extensions>
      </trkpt>
      <trkpt lat="43.83409260772168636322021484375" lon="4.24921142868697643280029296875">
        <ele>172.1999969482421875</ele>
        <time>2024-01-27T10:17:38.000Z</time>
        <extensions>
          <ns3:TrackPointExtension>
            <ns3:hr>161</ns3:hr>
            <ns3:cad>92</ns3:cad>
          </ns3:TrackPointExtension>
        </extensions>
      </trkpt>
      <trkpt lat="43.83407098241150379180908203125" lon="4.24922651611268520355224609375">
        <ele>172.1999969482421875</ele>
        <time>2024-01-27T10:17:39.000Z</time>
        <extensions>
          <ns3:TrackPointExtension>
            <ns3:hr>161</ns3:hr>
            <ns3:cad>92</ns3:cad>
          </ns3:TrackPointExtension>
        </extensions>
      </trkpt>
      <trkpt lat="43.83405187167227268218994140625" lon="4.24924671649932861328125">
        <ele>172</ele>
        <time>2024-01-27T10:17:40.000Z</time>
        <extensions>
          <ns3:TrackPointExtension>
            <ns3:hr>161</ns3:hr>
            <ns3:cad>92</ns3:cad>
          </ns3:TrackPointExtension>
        </extensions>
      </trkpt>
      <trkpt lat="43.83403301239013671875" lon="4.249265827238559722900390625">
        <ele>172</ele>
        <time>2024-01-27T10:17:41.000Z</time>
        <extensions>
          <ns3:TrackPointExtension>
            <ns3:hr>160</ns3:hr>
            <ns3:cad>90</ns3:cad>
          </ns3:TrackPointExtension>
        </extensions>
      </trkpt>
      <trkpt lat="43.83401549421250820159912109375" lon="4.2492944933474063873291015625">
        <ele>171.8000030517578125</ele>
        <time>2024-01-27T10:17:42.000Z</time>
        <extensions>
          <ns3:TrackPointExtension>
            <ns3:hr>160</ns3:hr>
            <ns3:cad>90</ns3:cad>
          </ns3:TrackPointExtension>
        </extensions>
      </trkpt>
      <trkpt lat="43.8339968025684356689453125" lon="4.24932240508496761322021484375">
        <ele>171.600006103515625</ele>
        <time>2024-01-27T10:17:43.000Z</time>
        <extensions>
          <ns3:TrackPointExtension>
            <ns3:hr>160</ns3:hr>
            <ns3:cad>90</ns3:cad>
          </ns3:TrackPointExtension>
        </extensions>
      </trkpt>
      <trkpt lat="43.83398196659982204437255859375" lon="4.249356351792812347412109375">
        <ele>171.399993896484375</ele>
        <time>2024-01-27T10:17:44.000Z</time>
        <extensions>
          <ns3:TrackPointExtension>
            <ns3:hr>160</ns3:hr>
            <ns3:cad>89</ns3:cad>
          </ns3:TrackPointExtension>
        </extensions>
      </trkpt>
      <trkpt lat="43.8339714892208576202392578125" lon="4.24938359297811985015869140625">
        <ele>171.1999969482421875</ele>
        <time>2024-01-27T10:17:45.000Z</time>
        <extensions>
          <ns3:TrackPointExtension>
            <ns3:hr>160</ns3:hr>
            <ns3:cad>89</ns3:cad>
          </ns3:TrackPointExtension>
        </extensions>
      </trkpt>
      <trkpt lat="43.83396335877478122711181640625" lon="4.249419383704662322998046875">
        <ele>171</ele>
        <time>2024-01-27T10:17:46.000Z</time>
        <extensions>
          <ns3:TrackPointExtension>
            <ns3:hr>160</ns3:hr>
            <ns3:cad>90</ns3:cad>
          </ns3:TrackPointExtension>
        </extensions>
      </trkpt>
      <trkpt lat="43.83395145647227764129638671875" lon="4.2494438588619232177734375">
        <ele>171</ele>
        <time>2024-01-27T10:17:47.000Z</time>
        <extensions>
          <ns3:TrackPointExtension>
            <ns3:hr>160</ns3:hr>
            <ns3:cad>90</ns3:cad>
          </ns3:TrackPointExtension>
        </extensions>
      </trkpt>
      <trkpt lat="43.83394181728363037109375" lon="4.2494775541126728057861328125">
        <ele>170.8000030517578125</ele>
        <time>2024-01-27T10:17:48.000Z</time>
        <extensions>
          <ns3:TrackPointExtension>
            <ns3:hr>160</ns3:hr>
            <ns3:cad>90</ns3:cad>
          </ns3:TrackPointExtension>
        </extensions>
      </trkpt>
      <trkpt lat="43.833935447037220001220703125" lon="4.2495067231357097625732421875">
        <ele>170.600006103515625</ele>
        <time>2024-01-27T10:17:49.000Z</time>
        <extensions>
          <ns3:TrackPointExtension>
            <ns3:hr>159</ns3:hr>
            <ns3:cad>90</ns3:cad>
          </ns3:TrackPointExtension>
        </extensions>
      </trkpt>
      <trkpt lat="43.8339262269437313079833984375" lon="4.24954100511968135833740234375">
        <ele>170.399993896484375</ele>
        <time>2024-01-27T10:17:50.000Z</time>
        <extensions>
          <ns3:TrackPointExtension>
            <ns3:hr>159</ns3:hr>
            <ns3:cad>90</ns3:cad>
          </ns3:TrackPointExtension>
        </extensions>
      </trkpt>
      <trkpt lat="43.83392161689698696136474609375" lon="4.24957084469497203826904296875">
        <ele>170.1999969482421875</ele>
        <time>2024-01-27T10:17:51.000Z</time>
        <extensions>
          <ns3:TrackPointExtension>
            <ns3:hr>159</ns3:hr>
            <ns3:cad>92</ns3:cad>
          </ns3:TrackPointExtension>
        </extensions>
      </trkpt>
      <trkpt lat="43.83391340263187885284423828125" lon="4.249608479440212249755859375">
        <ele>170.1999969482421875</ele>
        <time>2024-01-27T10:17:52.000Z</time>
        <extensions>
          <ns3:TrackPointExtension>
            <ns3:hr>159</ns3:hr>
            <ns3:cad>92</ns3:cad>
          </ns3:TrackPointExtension>
        </extensions>
      </trkpt>
      <trkpt lat="43.83390652947127819061279296875" lon="4.249639995396137237548828125">
        <ele>170</ele>
        <time>2024-01-27T10:17:53.000Z</time>
        <extensions>
          <ns3:TrackPointExtension>
            <ns3:hr>158</ns3:hr>
            <ns3:cad>92</ns3:cad>
          </ns3:TrackPointExtension>
        </extensions>
      </trkpt>
      <trkpt lat="43.83389647118747234344482421875" lon="4.24967746250331401824951171875">
        <ele>169.8000030517578125</ele>
        <time>2024-01-27T10:17:54.000Z</time>
        <extensions>
          <ns3:TrackPointExtension>
            <ns3:hr>158</ns3:hr>
            <ns3:cad>92</ns3:cad>
          </ns3:TrackPointExtension>
        </extensions>
      </trkpt>
      <trkpt lat="43.83389026857912540435791015625" lon="4.24970797263085842132568359375">
        <ele>169.399993896484375</ele>
        <time>2024-01-27T10:17:55.000Z</time>
        <extensions>
          <ns3:TrackPointExtension>
            <ns3:hr>158</ns3:hr>
            <ns3:cad>92</ns3:cad>
          </ns3:TrackPointExtension>
        </extensions>
      </trkpt>
      <trkpt lat="43.833881802856922149658203125" lon="4.24974703229963779449462890625">
        <ele>169.399993896484375</ele>
        <time>2024-01-27T10:17:56.000Z</time>
        <extensions>
          <ns3:TrackPointExtension>
            <ns3:hr>158</ns3:hr>
            <ns3:cad>91</ns3:cad>
          </ns3:TrackPointExtension>
        </extensions>
      </trkpt>
      <trkpt lat="43.83387635461986064910888671875" lon="4.24977972172200679779052734375">
        <ele>169.1999969482421875</ele>
        <time>2024-01-27T10:17:57.000Z</time>
        <extensions>
          <ns3:TrackPointExtension>
            <ns3:hr>158</ns3:hr>
            <ns3:cad>91</ns3:cad>
          </ns3:TrackPointExtension>
        </extensions>
      </trkpt>
      <trkpt lat="43.83387006819248199462890625" lon="4.24982179887592792510986328125">
        <ele>169</ele>
        <time>2024-01-27T10:17:58.000Z</time>
        <extensions>
          <ns3:TrackPointExtension>
            <ns3:hr>158</ns3:hr>
            <ns3:cad>91</ns3:cad>
          </ns3:TrackPointExtension>
        </extensions>
      </trkpt>
      <trkpt lat="43.8338653743267059326171875" lon="4.24985214136540889739990234375">
        <ele>168.8000030517578125</ele>
        <time>2024-01-27T10:17:59.000Z</time>
        <extensions>
          <ns3:TrackPointExtension>
            <ns3:hr>158</ns3:hr>
            <ns3:cad>90</ns3:cad>
          </ns3:TrackPointExtension>
        </extensions>
      </trkpt>
      <trkpt lat="43.83386059664189815521240234375" lon="4.24988868646323680877685546875">
        <ele>168.600006103515625</ele>
        <time>2024-01-27T10:18:00.000Z</time>
        <extensions>
          <ns3:TrackPointExtension>
            <ns3:hr>158</ns3:hr>
            <ns3:cad>90</ns3:cad>
          </ns3:TrackPointExtension>
        </extensions>
      </trkpt>
      <trkpt lat="43.8338581658899784088134765625" lon="4.2499201186001300811767578125">
        <ele>168.600006103515625</ele>
        <time>2024-01-27T10:18:01.000Z</time>
        <extensions>
          <ns3:TrackPointExtension>
            <ns3:hr>158</ns3:hr>
            <ns3:cad>91</ns3:cad>
          </ns3:TrackPointExtension>
        </extensions>
      </trkpt>
      <trkpt lat="43.8338571600615978240966796875" lon="4.249956496059894561767578125">
        <ele>168.600006103515625</ele>
        <time>2024-01-27T10:18:02.000Z</time>
        <extensions>
          <ns3:TrackPointExtension>
            <ns3:hr>158</ns3:hr>
            <ns3:cad>92</ns3:cad>
          </ns3:TrackPointExtension>
        </extensions>
      </trkpt>
      <trkpt lat="43.833858668804168701171875" lon="4.24998843111097812652587890625">
        <ele>168.399993896484375</ele>
        <time>2024-01-27T10:18:03.000Z</time>
        <extensions>
          <ns3:TrackPointExtension>
            <ns3:hr>158</ns3:hr>
            <ns3:cad>92</ns3:cad>
          </ns3:TrackPointExtension>
        </extensions>
      </trkpt>
      <trkpt lat="43.83385933935642242431640625" lon="4.250024892389774322509765625">
        <ele>168.399993896484375</ele>
        <time>2024-01-27T10:18:04.000Z</time>
        <extensions>
          <ns3:TrackPointExtension>
            <ns3:hr>158</ns3:hr>
            <ns3:cad>93</ns3:cad>
          </ns3:TrackPointExtension>
        </extensions>
      </trkpt>
      <trkpt lat="43.8338608480989933013916015625" lon="4.25005565397441387176513671875">
        <ele>168.399993896484375</ele>
        <time>2024-01-27T10:18:05.000Z</time>
        <extensions>
          <ns3:TrackPointExtension>
            <ns3:hr>159</ns3:hr>
            <ns3:cad>93</ns3:cad>
          </ns3:TrackPointExtension>
        </extensions>
      </trkpt>
      <trkpt lat="43.83385665714740753173828125" lon="4.25009052269160747528076171875">
        <ele>168.600006103515625</ele>
        <time>2024-01-27T10:18:06.000Z</time>
        <extensions>
          <ns3:TrackPointExtension>
            <ns3:hr>159</ns3:hr>
            <ns3:cad>93</ns3:cad>
          </ns3:TrackPointExtension>
        </extensions>
      </trkpt>
      <trkpt lat="43.83385271765291690826416015625" lon="4.25012656487524509429931640625">
        <ele>168.600006103515625</ele>
        <time>2024-01-27T10:18:07.000Z</time>
        <extensions>
          <ns3:TrackPointExtension>
            <ns3:hr>159</ns3:hr>
            <ns3:cad>93</ns3:cad>
          </ns3:TrackPointExtension>
        </extensions>
      </trkpt>
      <trkpt lat="43.83384601213037967681884765625" lon="4.25015690736472606658935546875">
        <ele>168.600006103515625</ele>
        <time>2024-01-27T10:18:08.000Z</time>
        <extensions>
          <ns3:TrackPointExtension>
            <ns3:hr>159</ns3:hr>
            <ns3:cad>93</ns3:cad>
          </ns3:TrackPointExtension>
        </extensions>
      </trkpt>
      <trkpt lat="43.833839893341064453125" lon="4.2501906864345073699951171875">
        <ele>168.600006103515625</ele>
        <time>2024-01-27T10:18:09.000Z</time>
        <extensions>
          <ns3:TrackPointExtension>
            <ns3:hr>159</ns3:hr>
            <ns3:cad>93</ns3:cad>
          </ns3:TrackPointExtension>
        </extensions>
      </trkpt>
      <trkpt lat="43.83383209817111492156982421875" lon="4.25021943636238574981689453125">
        <ele>168.600006103515625</ele>
        <time>2024-01-27T10:18:10.000Z</time>
        <extensions>
          <ns3:TrackPointExtension>
            <ns3:hr>159</ns3:hr>
            <ns3:cad>93</ns3:cad>
          </ns3:TrackPointExtension>
        </extensions>
      </trkpt>
      <trkpt lat="43.83382036350667476654052734375" lon="4.25025321543216705322265625">
        <ele>168.600006103515625</ele>
        <time>2024-01-27T10:18:11.000Z</time>
        <extensions>
          <ns3:TrackPointExtension>
            <ns3:hr>159</ns3:hr>
            <ns3:cad>93</ns3:cad>
          </ns3:TrackPointExtension>
        </extensions>
      </trkpt>
      <trkpt lat="43.83381365798413753509521484375" lon="4.2502785287797451019287109375">
        <ele>168.600006103515625</ele>
        <time>2024-01-27T10:18:12.000Z</time>
        <extensions>
          <ns3:TrackPointExtension>
            <ns3:hr>159</ns3:hr>
            <ns3:cad>93</ns3:cad>
          </ns3:TrackPointExtension>
        </extensions>
      </trkpt>
      <trkpt lat="43.83380234241485595703125" lon="4.250313229858875274658203125">
        <ele>168.600006103515625</ele>
        <time>2024-01-27T10:18:13.000Z</time>
        <extensions>
          <ns3:TrackPointExtension>
            <ns3:hr>159</ns3:hr>
            <ns3:cad>93</ns3:cad>
          </ns3:TrackPointExtension>
        </extensions>
      </trkpt>
      <trkpt lat="43.83379555307328701019287109375" lon="4.250339381396770477294921875">
        <ele>168.600006103515625</ele>
        <time>2024-01-27T10:18:14.000Z</time>
        <extensions>
          <ns3:TrackPointExtension>
            <ns3:hr>159</ns3:hr>
            <ns3:cad>93</ns3:cad>
          </ns3:TrackPointExtension>
        </extensions>
      </trkpt>
      <trkpt lat="43.8337847404181957244873046875" lon="4.25036880187690258026123046875">
        <ele>168.600006103515625</ele>
        <time>2024-01-27T10:18:15.000Z</time>
        <extensions>
          <ns3:TrackPointExtension>
            <ns3:hr>160</ns3:hr>
            <ns3:cad>93</ns3:cad>
          </ns3:TrackPointExtension>
        </extensions>
      </trkpt>
      <trkpt lat="43.83377887308597564697265625" lon="4.25039545632898807525634765625">
        <ele>168.8000030517578125</ele>
        <time>2024-01-27T10:18:16.000Z</time>
        <extensions>
          <ns3:TrackPointExtension>
            <ns3:hr>160</ns3:hr>
            <ns3:cad>92</ns3:cad>
          </ns3:TrackPointExtension>
        </extensions>
      </trkpt>
      <trkpt lat="43.8337709940969944000244140625" lon="4.25042261369526386260986328125">
        <ele>169</ele>
        <time>2024-01-27T10:18:17.000Z</time>
        <extensions>
          <ns3:TrackPointExtension>
            <ns3:hr>160</ns3:hr>
            <ns3:cad>92</ns3:cad>
          </ns3:TrackPointExtension>
        </extensions>
      </trkpt>
      <trkpt lat="43.8337636180222034454345703125" lon="4.2504491843283176422119140625">
        <ele>169</ele>
        <time>2024-01-27T10:18:18.000Z</time>
        <extensions>
          <ns3:TrackPointExtension>
            <ns3:hr>160</ns3:hr>
            <ns3:cad>92</ns3:cad>
          </ns3:TrackPointExtension>
        </extensions>
      </trkpt>
      <trkpt lat="43.8337554037570953369140625" lon="4.25047541968524456024169921875">
        <ele>169.1999969482421875</ele>
        <time>2024-01-27T10:18:19.000Z</time>
        <extensions>
          <ns3:TrackPointExtension>
            <ns3:hr>161</ns3:hr>
            <ns3:cad>93</ns3:cad>
          </ns3:TrackPointExtension>
        </extensions>
      </trkpt>
      <trkpt lat="43.83374643512070178985595703125" lon="4.250508360564708709716796875">
        <ele>169.1999969482421875</ele>
        <time>2024-01-27T10:18:20.000Z</time>
        <extensions>
          <ns3:TrackPointExtension>
            <ns3:hr>161</ns3:hr>
            <ns3:cad>93</ns3:cad>
          </ns3:TrackPointExtension>
        </extensions>
      </trkpt>
      <trkpt lat="43.83374132215976715087890625" lon="4.25053258426487445831298828125">
        <ele>169.399993896484375</ele>
        <time>2024-01-27T10:18:21.000Z</time>
        <extensions>
          <ns3:TrackPointExtension>
            <ns3:hr>161</ns3:hr>
            <ns3:cad>93</ns3:cad>
          </ns3:TrackPointExtension>
        </extensions>
      </trkpt>
      <trkpt lat="43.8337324373424053192138671875" lon="4.2505625076591968536376953125">
        <ele>169.399993896484375</ele>
        <time>2024-01-27T10:18:22.000Z</time>
        <extensions>
          <ns3:TrackPointExtension>
            <ns3:hr>161</ns3:hr>
            <ns3:cad>93</ns3:cad>
          </ns3:TrackPointExtension>
        </extensions>
      </trkpt>
      <trkpt lat="43.83372363634407520294189453125" lon="4.250586144626140594482421875">
        <ele>169.600006103515625</ele>
        <time>2024-01-27T10:18:23.000Z</time>
        <extensions>
          <ns3:TrackPointExtension>
            <ns3:hr>161</ns3:hr>
            <ns3:cad>93</ns3:cad>
          </ns3:TrackPointExtension>
        </extensions>
      </trkpt>
      <trkpt lat="43.83371391333639621734619140625" lon="4.25060802139341831207275390625">
        <ele>170</ele>
        <time>2024-01-27T10:18:24.000Z</time>
        <extensions>
          <ns3:TrackPointExtension>
            <ns3:hr>161</ns3:hr>
            <ns3:cad>93</ns3:cad>
          </ns3:TrackPointExtension>
        </extensions>
      </trkpt>
      <trkpt lat="43.8337032683193683624267578125" lon="4.25063651986420154571533203125">
        <ele>170.399993896484375</ele>
        <time>2024-01-27T10:18:25.000Z</time>
        <extensions>
          <ns3:TrackPointExtension>
            <ns3:hr>161</ns3:hr>
            <ns3:cad>95</ns3:cad>
          </ns3:TrackPointExtension>
        </extensions>
      </trkpt>
      <trkpt lat="43.8336945511400699615478515625" lon="4.25065697170794010162353515625">
        <ele>170.8000030517578125</ele>
        <time>2024-01-27T10:18:26.000Z</time>
        <extensions>
          <ns3:TrackPointExtension>
            <ns3:hr>162</ns3:hr>
            <ns3:cad>95</ns3:cad>
          </ns3:TrackPointExtension>
        </extensions>
      </trkpt>
      <trkpt lat="43.8336811400949954986572265625" lon="4.25068748183548450469970703125">
        <ele>171</ele>
        <time>2024-01-27T10:18:27.000Z</time>
        <extensions>
          <ns3:TrackPointExtension>
            <ns3:hr>162</ns3:hr>
            <ns3:cad>95</ns3:cad>
          </ns3:TrackPointExtension>
        </extensions>
      </trkpt>
      <trkpt lat="43.83366948924958705902099609375" lon="4.25071581266820430755615234375">
        <ele>171.399993896484375</ele>
        <time>2024-01-27T10:18:28.000Z</time>
        <extensions>
          <ns3:TrackPointExtension>
            <ns3:hr>161</ns3:hr>
            <ns3:cad>96</ns3:cad>
          </ns3:TrackPointExtension>
        </extensions>
      </trkpt>
      <trkpt lat="43.83365456946194171905517578125" lon="4.25074313767254352569580078125">
        <ele>171.600006103515625</ele>
        <time>2024-01-27T10:18:29.000Z</time>
        <extensions>
          <ns3:TrackPointExtension>
            <ns3:hr>161</ns3:hr>
            <ns3:cad>96</ns3:cad>
          </ns3:TrackPointExtension>
        </extensions>
      </trkpt>
      <trkpt lat="43.83364065550267696380615234375" lon="4.25077348016202449798583984375">
        <ele>171.8000030517578125</ele>
        <time>2024-01-27T10:18:30.000Z</time>
        <extensions>
          <ns3:TrackPointExtension>
            <ns3:hr>162</ns3:hr>
            <ns3:cad>96</ns3:cad>
          </ns3:TrackPointExtension>
        </extensions>
      </trkpt>
      <trkpt lat="43.833622299134731292724609375" lon="4.25080114044249057769775390625">
        <ele>171.8000030517578125</ele>
        <time>2024-01-27T10:18:31.000Z</time>
        <extensions>
          <ns3:TrackPointExtension>
            <ns3:hr>161</ns3:hr>
            <ns3:cad>95</ns3:cad>
          </ns3:TrackPointExtension>
        </extensions>
      </trkpt>
      <trkpt lat="43.83360545150935649871826171875" lon="4.250828213989734649658203125">
        <ele>172</ele>
        <time>2024-01-27T10:18:32.000Z</time>
        <extensions>
          <ns3:TrackPointExtension>
            <ns3:hr>162</ns3:hr>
            <ns3:cad>95</ns3:cad>
          </ns3:TrackPointExtension>
        </extensions>
      </trkpt>
      <trkpt lat="43.83358617313206195831298828125" lon="4.2508541978895664215087890625">
        <ele>172</ele>
        <time>2024-01-27T10:18:33.000Z</time>
        <extensions>
          <ns3:TrackPointExtension>
            <ns3:hr>162</ns3:hr>
            <ns3:cad>94</ns3:cad>
          </ns3:TrackPointExtension>
        </extensions>
      </trkpt>
      <trkpt lat="43.83356873877346515655517578125" lon="4.25087741576135158538818359375">
        <ele>172</ele>
        <time>2024-01-27T10:18:34.000Z</time>
        <extensions>
          <ns3:TrackPointExtension>
            <ns3:hr>162</ns3:hr>
            <ns3:cad>93</ns3:cad>
          </ns3:TrackPointExtension>
        </extensions>
      </trkpt>
      <trkpt lat="43.83355281315743923187255859375" lon="4.250899963080883026123046875">
        <ele>172</ele>
        <time>2024-01-27T10:18:35.000Z</time>
        <extensions>
          <ns3:TrackPointExtension>
            <ns3:hr>162</ns3:hr>
            <ns3:cad>92</ns3:cad>
          </ns3:TrackPointExtension>
        </extensions>
      </trkpt>
      <trkpt lat="43.8335336185991764068603515625" lon="4.250927455723285675048828125">
        <ele>172.1999969482421875</ele>
        <time>2024-01-27T10:18:36.000Z</time>
        <extensions>
          <ns3:TrackPointExtension>
            <ns3:hr>162</ns3:hr>
            <ns3:cad>92</ns3:cad>
          </ns3:TrackPointExtension>
        </extensions>
      </trkpt>
      <trkpt lat="43.83351978845894336700439453125" lon="4.2509487457573413848876953125">
        <ele>172.399993896484375</ele>
        <time>2024-01-27T10:18:37.000Z</time>
        <extensions>
          <ns3:TrackPointExtension>
            <ns3:hr>163</ns3:hr>
            <ns3:cad>92</ns3:cad>
          </ns3:TrackPointExtension>
        </extensions>
      </trkpt>
      <trkpt lat="43.83349782787263393402099609375" lon="4.250971712172031402587890625">
        <ele>172.399993896484375</ele>
        <time>2024-01-27T10:18:38.000Z</time>
        <extensions>
          <ns3:TrackPointExtension>
            <ns3:hr>163</ns3:hr>
            <ns3:cad>92</ns3:cad>
          </ns3:TrackPointExtension>
        </extensions>
      </trkpt>
      <trkpt lat="43.83348491974174976348876953125" lon="4.250990487635135650634765625">
        <ele>172.600006103515625</ele>
        <time>2024-01-27T10:18:39.000Z</time>
        <extensions>
          <ns3:TrackPointExtension>
            <ns3:hr>163</ns3:hr>
            <ns3:cad>92</ns3:cad>
          </ns3:TrackPointExtension>
        </extensions>
      </trkpt>
      <trkpt lat="43.83346681483089923858642578125" lon="4.251007251441478729248046875">
        <ele>172.600006103515625</ele>
        <time>2024-01-27T10:18:40.000Z</time>
        <extensions>
          <ns3:TrackPointExtension>
            <ns3:hr>163</ns3:hr>
            <ns3:cad>92</ns3:cad>
          </ns3:TrackPointExtension>
        </extensions>
      </trkpt>
      <trkpt lat="43.83345256559550762176513671875" lon="4.25102711655199527740478515625">
        <ele>172.8000030517578125</ele>
        <time>2024-01-27T10:18:41.000Z</time>
        <extensions>
          <ns3:TrackPointExtension>
            <ns3:hr>163</ns3:hr>
            <ns3:cad>92</ns3:cad>
          </ns3:TrackPointExtension>
        </extensions>
      </trkpt>
      <trkpt lat="43.8334340415894985198974609375" lon="4.25104689784348011016845703125">
        <ele>172.8000030517578125</ele>
        <time>2024-01-27T10:18:42.000Z</time>
        <extensions>
          <ns3:TrackPointExtension>
            <ns3:hr>163</ns3:hr>
            <ns3:cad>92</ns3:cad>
          </ns3:TrackPointExtension>
        </extensions>
      </trkpt>
      <trkpt lat="43.83341652341187000274658203125" lon="4.2510719597339630126953125">
        <ele>172.8000030517578125</ele>
        <time>2024-01-27T10:18:43.000Z</time>
        <extensions>
          <ns3:TrackPointExtension>
            <ns3:hr>163</ns3:hr>
            <ns3:cad>92</ns3:cad>
          </ns3:TrackPointExtension>
        </extensions>
      </trkpt>
      <trkpt lat="43.83340126834809780120849609375" lon="4.251094423234462738037109375">
        <ele>172.8000030517578125</ele>
        <time>2024-01-27T10:18:44.000Z</time>
        <extensions>
          <ns3:TrackPointExtension>
            <ns3:hr>163</ns3:hr>
            <ns3:cad>92</ns3:cad>
          </ns3:TrackPointExtension>
        </extensions>
      </trkpt>
      <trkpt lat="43.83338282816112041473388671875" lon="4.25111914984881877899169921875">
        <ele>173</ele>
        <time>2024-01-27T10:18:45.000Z</time>
        <extensions>
          <ns3:TrackPointExtension>
            <ns3:hr>163</ns3:hr>
            <ns3:cad>92</ns3:cad>
          </ns3:TrackPointExtension>
        </extensions>
      </trkpt>
      <trkpt lat="43.83337117731571197509765625" lon="4.25113993696868419647216796875">
        <ele>173</ele>
        <time>2024-01-27T10:18:46.000Z</time>
        <extensions>
          <ns3:TrackPointExtension>
            <ns3:hr>163</ns3:hr>
            <ns3:cad>92</ns3:cad>
          </ns3:TrackPointExtension>
        </extensions>
      </trkpt>
      <trkpt lat="43.83335349150002002716064453125" lon="4.251164160668849945068359375">
        <ele>173</ele>
        <time>2024-01-27T10:18:47.000Z</time>
        <extensions>
          <ns3:TrackPointExtension>
            <ns3:hr>163</ns3:hr>
            <ns3:cad>92</ns3:cad>
          </ns3:TrackPointExtension>
        </extensions>
      </trkpt>
      <trkpt lat="43.8333401642739772796630859375" lon="4.25118863582611083984375">
        <ele>173.1999969482421875</ele>
        <time>2024-01-27T10:18:48.000Z</time>
        <extensions>
          <ns3:TrackPointExtension>
            <ns3:hr>163</ns3:hr>
            <ns3:cad>92</ns3:cad>
          </ns3:TrackPointExtension>
        </extensions>
      </trkpt>
      <trkpt lat="43.8333223946392536163330078125" lon="4.25121235661208629608154296875">
        <ele>173.600006103515625</ele>
        <time>2024-01-27T10:18:49.000Z</time>
        <extensions>
          <ns3:TrackPointExtension>
            <ns3:hr>163</ns3:hr>
            <ns3:cad>92</ns3:cad>
          </ns3:TrackPointExtension>
        </extensions>
      </trkpt>
      <trkpt lat="43.83331409655511379241943359375" lon="4.25123448483645915985107421875">
        <ele>173.8000030517578125</ele>
        <time>2024-01-27T10:18:50.000Z</time>
        <extensions>
          <ns3:TrackPointExtension>
            <ns3:hr>163</ns3:hr>
            <ns3:cad>92</ns3:cad>
          </ns3:TrackPointExtension>
        </extensions>
      </trkpt>
      <trkpt lat="43.8333019427955150604248046875" lon="4.25125879235565662384033203125">
        <ele>174</ele>
        <time>2024-01-27T10:18:51.000Z</time>
        <extensions>
          <ns3:TrackPointExtension>
            <ns3:hr>163</ns3:hr>
            <ns3:cad>93</ns3:cad>
          </ns3:TrackPointExtension>
        </extensions>
      </trkpt>
      <trkpt lat="43.83328744210302829742431640625" lon="4.25128729082643985748291015625">
        <ele>174.1999969482421875</ele>
        <time>2024-01-27T10:18:52.000Z</time>
        <extensions>
          <ns3:TrackPointExtension>
            <ns3:hr>163</ns3:hr>
            <ns3:cad>93</ns3:cad>
          </ns3:TrackPointExtension>
        </extensions>
      </trkpt>
      <trkpt lat="43.8332747854292392730712890625" lon="4.251309670507907867431640625">
        <ele>174.1999969482421875</ele>
        <time>2024-01-27T10:18:53.000Z</time>
        <extensions>
          <ns3:TrackPointExtension>
            <ns3:hr>163</ns3:hr>
            <ns3:cad>93</ns3:cad>
          </ns3:TrackPointExtension>
        </extensions>
      </trkpt>
      <trkpt lat="43.833258189260959625244140625" lon="4.25133741460740566253662109375">
        <ele>174.399993896484375</ele>
        <time>2024-01-27T10:18:54.000Z</time>
        <extensions>
          <ns3:TrackPointExtension>
            <ns3:hr>163</ns3:hr>
            <ns3:cad>93</ns3:cad>
          </ns3:TrackPointExtension>
        </extensions>
      </trkpt>
      <trkpt lat="43.833250142633914947509765625" lon="4.25136029720306396484375">
        <ele>174.399993896484375</ele>
        <time>2024-01-27T10:18:55.000Z</time>
        <extensions>
          <ns3:TrackPointExtension>
            <ns3:hr>163</ns3:hr>
            <ns3:cad>93</ns3:cad>
          </ns3:TrackPointExtension>
        </extensions>
      </trkpt>
      <trkpt lat="43.8332362286746501922607421875" lon="4.25138787366449832916259765625">
        <ele>174.600006103515625</ele>
        <time>2024-01-27T10:18:56.000Z</time>
        <extensions>
          <ns3:TrackPointExtension>
            <ns3:hr>163</ns3:hr>
            <ns3:cad>95</ns3:cad>
          </ns3:TrackPointExtension>
        </extensions>
      </trkpt>
      <trkpt lat="43.83322692476212978363037109375" lon="4.25141586922109127044677734375">
        <ele>174.8000030517578125</ele>
        <time>2024-01-27T10:18:57.000Z</time>
        <extensions>
          <ns3:TrackPointExtension>
            <ns3:hr>163</ns3:hr>
            <ns3:cad>95</ns3:cad>
          </ns3:TrackPointExtension>
        </extensions>
      </trkpt>
      <trkpt lat="43.83321569301187992095947265625" lon="4.25144135020673274993896484375">
        <ele>174.8000030517578125</ele>
        <time>2024-01-27T10:18:58.000Z</time>
        <extensions>
          <ns3:TrackPointExtension>
            <ns3:hr>164</ns3:hr>
            <ns3:cad>93</ns3:cad>
          </ns3:TrackPointExtension>
        </extensions>
      </trkpt>
      <trkpt lat="43.833204545080661773681640625" lon="4.25146884284913539886474609375">
        <ele>175</ele>
        <time>2024-01-27T10:18:59.000Z</time>
        <extensions>
          <ns3:TrackPointExtension>
            <ns3:hr>164</ns3:hr>
            <ns3:cad>93</ns3:cad>
          </ns3:TrackPointExtension>
        </extensions>
      </trkpt>
      <trkpt lat="43.83319457061588764190673828125" lon="4.2514908872544765472412109375">
        <ele>175.1999969482421875</ele>
        <time>2024-01-27T10:19:00.000Z</time>
        <extensions>
          <ns3:TrackPointExtension>
            <ns3:hr>164</ns3:hr>
            <ns3:cad>93</ns3:cad>
          </ns3:TrackPointExtension>
        </extensions>
      </trkpt>
      <trkpt lat="43.83318266831338405609130859375" lon="4.25151519477367401123046875">
        <ele>175.1999969482421875</ele>
        <time>2024-01-27T10:19:01.000Z</time>
        <extensions>
          <ns3:TrackPointExtension>
            <ns3:hr>164</ns3:hr>
            <ns3:cad>93</ns3:cad>
          </ns3:TrackPointExtension>
        </extensions>
      </trkpt>
      <trkpt lat="43.83317411877214908599853515625" lon="4.2515415139496326446533203125">
        <ele>175.399993896484375</ele>
        <time>2024-01-27T10:19:02.000Z</time>
        <extensions>
          <ns3:TrackPointExtension>
            <ns3:hr>164</ns3:hr>
            <ns3:cad>93</ns3:cad>
          </ns3:TrackPointExtension>
        </extensions>
      </trkpt>
      <trkpt lat="43.8331628032028675079345703125" lon="4.2515706829726696014404296875">
        <ele>175.399993896484375</ele>
        <time>2024-01-27T10:19:03.000Z</time>
        <extensions>
          <ns3:TrackPointExtension>
            <ns3:hr>164</ns3:hr>
            <ns3:cad>93</ns3:cad>
          </ns3:TrackPointExtension>
        </extensions>
      </trkpt>
      <trkpt lat="43.8331564329564571380615234375" lon="4.25159431993961334228515625">
        <ele>175.600006103515625</ele>
        <time>2024-01-27T10:19:04.000Z</time>
        <extensions>
          <ns3:TrackPointExtension>
            <ns3:hr>164</ns3:hr>
            <ns3:cad>93</ns3:cad>
          </ns3:TrackPointExtension>
        </extensions>
      </trkpt>
      <trkpt lat="43.83314461447298526763916015625" lon="4.25162038765847682952880859375">
        <ele>175.8000030517578125</ele>
        <time>2024-01-27T10:19:05.000Z</time>
        <extensions>
          <ns3:TrackPointExtension>
            <ns3:hr>163</ns3:hr>
            <ns3:cad>92</ns3:cad>
          </ns3:TrackPointExtension>
        </extensions>
      </trkpt>
      <trkpt lat="43.8331379927694797515869140625" lon="4.25164435990154743194580078125">
        <ele>175.8000030517578125</ele>
        <time>2024-01-27T10:19:06.000Z</time>
        <extensions>
          <ns3:TrackPointExtension>
            <ns3:hr>163</ns3:hr>
            <ns3:cad>92</ns3:cad>
          </ns3:TrackPointExtension>
        </extensions>
      </trkpt>
      <trkpt lat="43.83312709629535675048828125" lon="4.25167218782007694244384765625">
        <ele>176</ele>
        <time>2024-01-27T10:19:07.000Z</time>
        <extensions>
          <ns3:TrackPointExtension>
            <ns3:hr>163</ns3:hr>
            <ns3:cad>91</ns3:cad>
          </ns3:TrackPointExtension>
        </extensions>
      </trkpt>
      <trkpt lat="43.83311904966831207275390625" lon="4.25169750116765499114990234375">
        <ele>176</ele>
        <time>2024-01-27T10:19:08.000Z</time>
        <extensions>
          <ns3:TrackPointExtension>
            <ns3:hr>163</ns3:hr>
            <ns3:cad>92</ns3:cad>
          </ns3:TrackPointExtension>
        </extensions>
      </trkpt>
      <trkpt lat="43.8331115059554576873779296875" lon="4.25172314979135990142822265625">
        <ele>176</ele>
        <time>2024-01-27T10:19:09.000Z</time>
        <extensions>
          <ns3:TrackPointExtension>
            <ns3:hr>163</ns3:hr>
            <ns3:cad>92</ns3:cad>
          </ns3:TrackPointExtension>
        </extensions>
      </trkpt>
      <trkpt lat="43.83310161530971527099609375" lon="4.25175416283309459686279296875">
        <ele>176.1999969482421875</ele>
        <time>2024-01-27T10:19:10.000Z</time>
        <extensions>
          <ns3:TrackPointExtension>
            <ns3:hr>163</ns3:hr>
            <ns3:cad>93</ns3:cad>
          </ns3:TrackPointExtension>
        </extensions>
      </trkpt>
      <trkpt lat="43.83309331722557544708251953125" lon="4.25178064964711666107177734375">
        <ele>176.600006103515625</ele>
        <time>2024-01-27T10:19:11.000Z</time>
        <extensions>
          <ns3:TrackPointExtension>
            <ns3:hr>163</ns3:hr>
            <ns3:cad>93</ns3:cad>
          </ns3:TrackPointExtension>
        </extensions>
      </trkpt>
      <trkpt lat="43.8330826722085475921630859375" lon="4.25181266851723194122314453125">
        <ele>176.600006103515625</ele>
        <time>2024-01-27T10:19:12.000Z</time>
        <extensions>
          <ns3:TrackPointExtension>
            <ns3:hr>163</ns3:hr>
            <ns3:cad>93</ns3:cad>
          </ns3:TrackPointExtension>
        </extensions>
      </trkpt>
      <trkpt lat="43.83307973854243755340576171875" lon="4.25183965824544429779052734375">
        <ele>176.600006103515625</ele>
        <time>2024-01-27T10:19:13.000Z</time>
        <extensions>
          <ns3:TrackPointExtension>
            <ns3:hr>163</ns3:hr>
            <ns3:cad>92</ns3:cad>
          </ns3:TrackPointExtension>
        </extensions>
      </trkpt>
      <trkpt lat="43.833072446286678314208984375" lon="4.25187268294394016265869140625">
        <ele>176.600006103515625</ele>
        <time>2024-01-27T10:19:14.000Z</time>
        <extensions>
          <ns3:TrackPointExtension>
            <ns3:hr>163</ns3:hr>
            <ns3:cad>92</ns3:cad>
          </ns3:TrackPointExtension>
        </extensions>
      </trkpt>
      <trkpt lat="43.83307018317282199859619140625" lon="4.25189950503408908843994140625">
        <ele>176.600006103515625</ele>
        <time>2024-01-27T10:19:15.000Z</time>
        <extensions>
          <ns3:TrackPointExtension>
            <ns3:hr>164</ns3:hr>
            <ns3:cad>93</ns3:cad>
          </ns3:TrackPointExtension>
        </extensions>
      </trkpt>
      <trkpt lat="43.8330622203648090362548828125" lon="4.25193286500871181488037109375">
        <ele>176.600006103515625</ele>
        <time>2024-01-27T10:19:16.000Z</time>
        <extensions>
          <ns3:TrackPointExtension>
            <ns3:hr>164</ns3:hr>
            <ns3:cad>93</ns3:cad>
          </ns3:TrackPointExtension>
        </extensions>
      </trkpt>
      <trkpt lat="43.83305509574711322784423828125" lon="4.251963458955287933349609375">
        <ele>176.600006103515625</ele>
        <time>2024-01-27T10:19:17.000Z</time>
        <extensions>
          <ns3:TrackPointExtension>
            <ns3:hr>164</ns3:hr>
            <ns3:cad>93</ns3:cad>
          </ns3:TrackPointExtension>
        </extensions>
      </trkpt>
      <trkpt lat="43.8330474682152271270751953125" lon="4.251990951597690582275390625">
        <ele>176.600006103515625</ele>
        <time>2024-01-27T10:19:18.000Z</time>
        <extensions>
          <ns3:TrackPointExtension>
            <ns3:hr>164</ns3:hr>
            <ns3:cad>93</ns3:cad>
          </ns3:TrackPointExtension>
        </extensions>
      </trkpt>
      <trkpt lat="43.8330417685210704803466796875" lon="4.25201685167849063873291015625">
        <ele>176.600006103515625</ele>
        <time>2024-01-27T10:19:19.000Z</time>
        <extensions>
          <ns3:TrackPointExtension>
            <ns3:hr>164</ns3:hr>
            <ns3:cad>92</ns3:cad>
          </ns3:TrackPointExtension>
        </extensions>
      </trkpt>
      <trkpt lat="43.83303665556013584136962890625" lon="4.25204635597765445709228515625">
        <ele>176.600006103515625</ele>
        <time>2024-01-27T10:19:20.000Z</time>
        <extensions>
          <ns3:TrackPointExtension>
            <ns3:hr>164</ns3:hr>
            <ns3:cad>92</ns3:cad>
          </ns3:TrackPointExtension>
        </extensions>
      </trkpt>
      <trkpt lat="43.83303179405629634857177734375" lon="4.25208776257932186126708984375">
        <ele>176.8000030517578125</ele>
        <time>2024-01-27T10:19:21.000Z</time>
        <extensions>
          <ns3:TrackPointExtension>
            <ns3:hr>164</ns3:hr>
            <ns3:cad>92</ns3:cad>
          </ns3:TrackPointExtension>
        </extensions>
      </trkpt>
      <trkpt lat="43.83302458561956882476806640625" lon="4.25212581641972064971923828125">
        <ele>176.8000030517578125</ele>
        <time>2024-01-27T10:19:22.000Z</time>
        <extensions>
          <ns3:TrackPointExtension>
            <ns3:hr>164</ns3:hr>
            <ns3:cad>92</ns3:cad>
          </ns3:TrackPointExtension>
        </extensions>
      </trkpt>
      <trkpt lat="43.83301737718284130096435546875" lon="4.25217124633491039276123046875">
        <ele>176.8000030517578125</ele>
        <time>2024-01-27T10:19:23.000Z</time>
        <extensions>
          <ns3:TrackPointExtension>
            <ns3:hr>164</ns3:hr>
            <ns3:cad>92</ns3:cad>
          </ns3:TrackPointExtension>
        </extensions>
      </trkpt>
      <trkpt lat="43.83300773799419403076171875" lon="4.25221131183207035064697265625">
        <ele>176.8000030517578125</ele>
        <time>2024-01-27T10:19:24.000Z</time>
        <extensions>
          <ns3:TrackPointExtension>
            <ns3:hr>164</ns3:hr>
            <ns3:cad>91</ns3:cad>
          </ns3:TrackPointExtension>
        </extensions>
      </trkpt>
      <trkpt lat="43.8330022059381008148193359375" lon="4.25224852748215198516845703125">
        <ele>177</ele>
        <time>2024-01-27T10:19:25.000Z</time>
        <extensions>
          <ns3:TrackPointExtension>
            <ns3:hr>164</ns3:hr>
            <ns3:cad>90</ns3:cad>
          </ns3:TrackPointExtension>
        </extensions>
      </trkpt>
      <trkpt lat="43.83299206383526325225830078125" lon="4.2522848211228847503662109375">
        <ele>177</ele>
        <time>2024-01-27T10:19:26.000Z</time>
        <extensions>
          <ns3:TrackPointExtension>
            <ns3:hr>164</ns3:hr>
            <ns3:cad>89</ns3:cad>
          </ns3:TrackPointExtension>
        </extensions>
      </trkpt>
      <trkpt lat="43.83298502303659915924072265625" lon="4.252324886620044708251953125">
        <ele>177</ele>
        <time>2024-01-27T10:19:27.000Z</time>
        <extensions>
          <ns3:TrackPointExtension>
            <ns3:hr>163</ns3:hr>
            <ns3:cad>88</ns3:cad>
          </ns3:TrackPointExtension>
        </extensions>
      </trkpt>
      <trkpt lat="43.83297530002892017364501953125" lon="4.2523621022701263427734375">
        <ele>176.8000030517578125</ele>
        <time>2024-01-27T10:19:28.000Z</time>
        <extensions>
          <ns3:TrackPointExtension>
            <ns3:hr>163</ns3:hr>
            <ns3:cad>88</ns3:cad>
          </ns3:TrackPointExtension>
        </extensions>
      </trkpt>
      <trkpt lat="43.832967169582843780517578125" lon="4.25240040756762027740478515625">
        <ele>176.600006103515625</ele>
        <time>2024-01-27T10:19:29.000Z</time>
        <extensions>
          <ns3:TrackPointExtension>
            <ns3:hr>163</ns3:hr>
            <ns3:cad>88</ns3:cad>
          </ns3:TrackPointExtension>
        </extensions>
      </trkpt>
      <trkpt lat="43.8329561054706573486328125" lon="4.25243812613189220428466796875">
        <ele>176.600006103515625</ele>
        <time>2024-01-27T10:19:30.000Z</time>
        <extensions>
          <ns3:TrackPointExtension>
            <ns3:hr>163</ns3:hr>
            <ns3:cad>88</ns3:cad>
          </ns3:TrackPointExtension>
        </extensions>
      </trkpt>
      <trkpt lat="43.8329499028623104095458984375" lon="4.252477772533893585205078125">
        <ele>176.399993896484375</ele>
        <time>2024-01-27T10:19:31.000Z</time>
        <extensions>
          <ns3:TrackPointExtension>
            <ns3:hr>163</ns3:hr>
            <ns3:cad>88</ns3:cad>
          </ns3:TrackPointExtension>
        </extensions>
      </trkpt>
      <trkpt lat="43.83293942548334598541259765625" lon="4.252515994012355804443359375">
        <ele>176</ele>
        <time>2024-01-27T10:19:32.000Z</time>
        <extensions>
          <ns3:TrackPointExtension>
            <ns3:hr>163</ns3:hr>
            <ns3:cad>89</ns3:cad>
          </ns3:TrackPointExtension>
        </extensions>
      </trkpt>
      <trkpt lat="43.83293330669403076171875" lon="4.2525547184050083160400390625">
        <ele>176</ele>
        <time>2024-01-27T10:19:33.000Z</time>
        <extensions>
          <ns3:TrackPointExtension>
            <ns3:hr>163</ns3:hr>
            <ns3:cad>89</ns3:cad>
          </ns3:TrackPointExtension>
        </extensions>
      </trkpt>
      <trkpt lat="43.83291578851640224456787109375" lon="4.25259671173989772796630859375">
        <ele>175.8000030517578125</ele>
        <time>2024-01-27T10:19:34.000Z</time>
        <extensions>
          <ns3:TrackPointExtension>
            <ns3:hr>163</ns3:hr>
            <ns3:cad>89</ns3:cad>
          </ns3:TrackPointExtension>
        </extensions>
      </trkpt>
      <trkpt lat="43.83290271274745464324951171875" lon="4.25263702869415283203125">
        <ele>175.8000030517578125</ele>
        <time>2024-01-27T10:19:35.000Z</time>
        <extensions>
          <ns3:TrackPointExtension>
            <ns3:hr>163</ns3:hr>
            <ns3:cad>89</ns3:cad>
          </ns3:TrackPointExtension>
        </extensions>
      </trkpt>
      <trkpt lat="43.8328838534653186798095703125" lon="4.25267650745809078216552734375">
        <ele>175.600006103515625</ele>
        <time>2024-01-27T10:19:36.000Z</time>
        <extensions>
          <ns3:TrackPointExtension>
            <ns3:hr>163</ns3:hr>
            <ns3:cad>90</ns3:cad>
          </ns3:TrackPointExtension>
        </extensions>
      </trkpt>
      <trkpt lat="43.8328729569911956787109375" lon="4.25271724350750446319580078125">
        <ele>175.600006103515625</ele>
        <time>2024-01-27T10:19:37.000Z</time>
        <extensions>
          <ns3:TrackPointExtension>
            <ns3:hr>163</ns3:hr>
            <ns3:cad>90</ns3:cad>
          </ns3:TrackPointExtension>
        </extensions>
      </trkpt>
      <trkpt lat="43.83286063559353351593017578125" lon="4.2527535371482372283935546875">
        <ele>175.399993896484375</ele>
        <time>2024-01-27T10:19:38.000Z</time>
        <extensions>
          <ns3:TrackPointExtension>
            <ns3:hr>163</ns3:hr>
            <ns3:cad>90</ns3:cad>
          </ns3:TrackPointExtension>
        </extensions>
      </trkpt>
      <trkpt lat="43.832848481833934783935546875" lon="4.25279033370316028594970703125">
        <ele>175.399993896484375</ele>
        <time>2024-01-27T10:19:39.000Z</time>
        <extensions>
          <ns3:TrackPointExtension>
            <ns3:hr>163</ns3:hr>
            <ns3:cad>90</ns3:cad>
          </ns3:TrackPointExtension>
        </extensions>
      </trkpt>
      <trkpt lat="43.832834064960479736328125" lon="4.2528232745826244354248046875">
        <ele>175.399993896484375</ele>
        <time>2024-01-27T10:19:40.000Z</time>
        <extensions>
          <ns3:TrackPointExtension>
            <ns3:hr>163</ns3:hr>
            <ns3:cad>90</ns3:cad>
          </ns3:TrackPointExtension>
        </extensions>
      </trkpt>
      <trkpt lat="43.83282006718218326568603515625" lon="4.25286275334656238555908203125">
        <ele>175.399993896484375</ele>
        <time>2024-01-27T10:19:41.000Z</time>
        <extensions>
          <ns3:TrackPointExtension>
            <ns3:hr>163</ns3:hr>
            <ns3:cad>90</ns3:cad>
          </ns3:TrackPointExtension>
        </extensions>
      </trkpt>
      <trkpt lat="43.8328090868890285491943359375" lon="4.25289644859731197357177734375">
        <ele>175.1999969482421875</ele>
        <time>2024-01-27T10:19:42.000Z</time>
        <extensions>
          <ns3:TrackPointExtension>
            <ns3:hr>163</ns3:hr>
            <ns3:cad>90</ns3:cad>
          </ns3:TrackPointExtension>
        </extensions>
      </trkpt>
      <trkpt lat="43.83279777131974697113037109375" lon="4.252934418618679046630859375">
        <ele>175.1999969482421875</ele>
        <time>2024-01-27T10:19:43.000Z</time>
        <extensions>
          <ns3:TrackPointExtension>
            <ns3:hr>163</ns3:hr>
            <ns3:cad>91</ns3:cad>
          </ns3:TrackPointExtension>
        </extensions>
      </trkpt>
      <trkpt lat="43.83278469555079936981201171875" lon="4.25296316854655742645263671875">
        <ele>175.1999969482421875</ele>
        <time>2024-01-27T10:19:44.000Z</time>
        <extensions>
          <ns3:TrackPointExtension>
            <ns3:hr>163</ns3:hr>
            <ns3:cad>91</ns3:cad>
          </ns3:TrackPointExtension>
        </extensions>
      </trkpt>
      <trkpt lat="43.83277011103928089141845703125" lon="4.253003485500812530517578125">
        <ele>175.1999969482421875</ele>
        <time>2024-01-27T10:19:45.000Z</time>
        <extensions>
          <ns3:TrackPointExtension>
            <ns3:hr>163</ns3:hr>
            <ns3:cad>92</ns3:cad>
          </ns3:TrackPointExtension>
        </extensions>
      </trkpt>
      <trkpt lat="43.83275820873677730560302734375" lon="4.253035001456737518310546875">
        <ele>175.1999969482421875</ele>
        <time>2024-01-27T10:19:46.000Z</time>
        <extensions>
          <ns3:TrackPointExtension>
            <ns3:hr>163</ns3:hr>
            <ns3:cad>92</ns3:cad>
          </ns3:TrackPointExtension>
        </extensions>
      </trkpt>
      <trkpt lat="43.832746557891368865966796875" lon="4.2530760727822780609130859375">
        <ele>175.1999969482421875</ele>
        <time>2024-01-27T10:19:47.000Z</time>
        <extensions>
          <ns3:TrackPointExtension>
            <ns3:hr>163</ns3:hr>
            <ns3:cad>92</ns3:cad>
          </ns3:TrackPointExtension>
        </extensions>
      </trkpt>
      <trkpt lat="43.83273675106465816497802734375" lon="4.25310834310948848724365234375">
        <ele>175.1999969482421875</ele>
        <time>2024-01-27T10:19:48.000Z</time>
        <extensions>
          <ns3:TrackPointExtension>
            <ns3:hr>163</ns3:hr>
            <ns3:cad>92</ns3:cad>
          </ns3:TrackPointExtension>
        </extensions>
      </trkpt>
      <trkpt lat="43.83272049017250537872314453125" lon="4.25314505584537982940673828125">
        <ele>175.1999969482421875</ele>
        <time>2024-01-27T10:19:49.000Z</time>
        <extensions>
          <ns3:TrackPointExtension>
            <ns3:hr>163</ns3:hr>
            <ns3:cad>92</ns3:cad>
          </ns3:TrackPointExtension>
        </extensions>
      </trkpt>
      <trkpt lat="43.83270540274679660797119140625" lon="4.2531766556203365325927734375">
        <ele>175</ele>
        <time>2024-01-27T10:19:50.000Z</time>
        <extensions>
          <ns3:TrackPointExtension>
            <ns3:hr>163</ns3:hr>
            <ns3:cad>92</ns3:cad>
          </ns3:TrackPointExtension>
        </extensions>
      </trkpt>
      <trkpt lat="43.83268914185464382171630859375" lon="4.25321328453719615936279296875">
        <ele>175</ele>
        <time>2024-01-27T10:19:51.000Z</time>
        <extensions>
          <ns3:TrackPointExtension>
            <ns3:hr>163</ns3:hr>
            <ns3:cad>92</ns3:cad>
          </ns3:TrackPointExtension>
        </extensions>
      </trkpt>
      <trkpt lat="43.83268126286566257476806640625" lon="4.253241531550884246826171875">
        <ele>175</ele>
        <time>2024-01-27T10:19:52.000Z</time>
        <extensions>
          <ns3:TrackPointExtension>
            <ns3:hr>163</ns3:hr>
            <ns3:cad>93</ns3:cad>
          </ns3:TrackPointExtension>
        </extensions>
      </trkpt>
      <trkpt lat="43.83266709744930267333984375" lon="4.253274388611316680908203125">
        <ele>175</ele>
        <time>2024-01-27T10:19:53.000Z</time>
        <extensions>
          <ns3:TrackPointExtension>
            <ns3:hr>163</ns3:hr>
            <ns3:cad>93</ns3:cad>
          </ns3:TrackPointExtension>
        </extensions>
      </trkpt>
      <trkpt lat="43.83265770971775054931640625" lon="4.25330498255789279937744140625">
        <ele>175.1999969482421875</ele>
        <time>2024-01-27T10:19:54.000Z</time>
        <extensions>
          <ns3:TrackPointExtension>
            <ns3:hr>163</ns3:hr>
            <ns3:cad>93</ns3:cad>
          </ns3:TrackPointExtension>
        </extensions>
      </trkpt>
      <trkpt lat="43.83264471776783466339111328125" lon="4.2533446289598941802978515625">
        <ele>175.1999969482421875</ele>
        <time>2024-01-27T10:19:55.000Z</time>
        <extensions>
          <ns3:TrackPointExtension>
            <ns3:hr>163</ns3:hr>
            <ns3:cad>93</ns3:cad>
          </ns3:TrackPointExtension>
        </extensions>
      </trkpt>
      <trkpt lat="43.8326370902359485626220703125" lon="4.25338092260062694549560546875">
        <ele>175.1999969482421875</ele>
        <time>2024-01-27T10:19:56.000Z</time>
        <extensions>
          <ns3:TrackPointExtension>
            <ns3:hr>163</ns3:hr>
            <ns3:cad>93</ns3:cad>
          </ns3:TrackPointExtension>
        </extensions>
      </trkpt>
      <trkpt lat="43.8326250202953815460205078125" lon="4.25341822206974029541015625">
        <ele>175.1999969482421875</ele>
        <time>2024-01-27T10:19:57.000Z</time>
        <extensions>
          <ns3:TrackPointExtension>
            <ns3:hr>163</ns3:hr>
            <ns3:cad>93</ns3:cad>
          </ns3:TrackPointExtension>
        </extensions>
      </trkpt>
      <trkpt lat="43.83261739276349544525146484375" lon="4.25345577299594879150390625">
        <ele>175</ele>
        <time>2024-01-27T10:19:58.000Z</time>
        <extensions>
          <ns3:TrackPointExtension>
            <ns3:hr>164</ns3:hr>
            <ns3:cad>93</ns3:cad>
          </ns3:TrackPointExtension>
        </extensions>
      </trkpt>
      <trkpt lat="43.832608424127101898193359375" lon="4.25349508412182331085205078125">
        <ele>175</ele>
        <time>2024-01-27T10:19:59.000Z</time>
        <extensions>
          <ns3:TrackPointExtension>
            <ns3:hr>164</ns3:hr>
            <ns3:cad>93</ns3:cad>
          </ns3:TrackPointExtension>
        </extensions>
      </trkpt>
      <trkpt lat="43.8326020538806915283203125" lon="4.2535313777625560760498046875">
        <ele>174.8000030517578125</ele>
        <time>2024-01-27T10:20:00.000Z</time>
        <extensions>
          <ns3:TrackPointExtension>
            <ns3:hr>164</ns3:hr>
            <ns3:cad>93</ns3:cad>
          </ns3:TrackPointExtension>
        </extensions>
      </trkpt>
      <trkpt lat="43.8325965218245983123779296875" lon="4.25356951542198657989501953125">
        <ele>174.600006103515625</ele>
        <time>2024-01-27T10:20:01.000Z</time>
        <extensions>
          <ns3:TrackPointExtension>
            <ns3:hr>164</ns3:hr>
            <ns3:cad>92</ns3:cad>
          </ns3:TrackPointExtension>
        </extensions>
      </trkpt>
      <trkpt lat="43.8325951807200908660888671875" lon="4.25360304303467273712158203125">
        <ele>174.399993896484375</ele>
        <time>2024-01-27T10:20:02.000Z</time>
        <extensions>
          <ns3:TrackPointExtension>
            <ns3:hr>164</ns3:hr>
            <ns3:cad>92</ns3:cad>
          </ns3:TrackPointExtension>
        </extensions>
      </trkpt>
      <trkpt lat="43.832598365843296051025390625" lon="4.253641180694103240966796875">
        <ele>174</ele>
        <time>2024-01-27T10:20:03.000Z</time>
        <extensions>
          <ns3:TrackPointExtension>
            <ns3:hr>164</ns3:hr>
            <ns3:cad>90</ns3:cad>
          </ns3:TrackPointExtension>
        </extensions>
      </trkpt>
      <trkpt lat="43.83259995840489864349365234375" lon="4.2536785639822483062744140625">
        <ele>173.8000030517578125</ele>
        <time>2024-01-27T10:20:04.000Z</time>
        <extensions>
          <ns3:TrackPointExtension>
            <ns3:hr>164</ns3:hr>
            <ns3:cad>90</ns3:cad>
          </ns3:TrackPointExtension>
        </extensions>
      </trkpt>
      <trkpt lat="43.83259870111942291259765625" lon="4.25372265279293060302734375">
        <ele>173.8000030517578125</ele>
        <time>2024-01-27T10:20:05.000Z</time>
        <extensions>
          <ns3:TrackPointExtension>
            <ns3:hr>164</ns3:hr>
            <ns3:cad>90</ns3:cad>
          </ns3:TrackPointExtension>
        </extensions>
      </trkpt>
      <trkpt lat="43.83259928785264492034912109375" lon="4.25375643186271190643310546875">
        <ele>173.600006103515625</ele>
        <time>2024-01-27T10:20:06.000Z</time>
        <extensions>
          <ns3:TrackPointExtension>
            <ns3:hr>164</ns3:hr>
            <ns3:cad>90</ns3:cad>
          </ns3:TrackPointExtension>
        </extensions>
      </trkpt>
      <trkpt lat="43.83260012604296207427978515625" lon="4.253802113234996795654296875">
        <ele>173.600006103515625</ele>
        <time>2024-01-27T10:20:07.000Z</time>
        <extensions>
          <ns3:TrackPointExtension>
            <ns3:hr>165</ns3:hr>
            <ns3:cad>90</ns3:cad>
          </ns3:TrackPointExtension>
        </extensions>
      </trkpt>
      <trkpt lat="43.83260046131908893585205078125" lon="4.25384142436087131500244140625">
        <ele>173.399993896484375</ele>
        <time>2024-01-27T10:20:08.000Z</time>
        <extensions>
          <ns3:TrackPointExtension>
            <ns3:hr>165</ns3:hr>
            <ns3:cad>87</ns3:cad>
          </ns3:TrackPointExtension>
        </extensions>
      </trkpt>
      <trkpt lat="43.83260247297585010528564453125" lon="4.2538830824196338653564453125">
        <ele>173.399993896484375</ele>
        <time>2024-01-27T10:20:09.000Z</time>
        <extensions>
          <ns3:TrackPointExtension>
            <ns3:hr>165</ns3:hr>
            <ns3:cad>86</ns3:cad>
          </ns3:TrackPointExtension>
        </extensions>
      </trkpt>
      <trkpt lat="43.83260113187134265899658203125" lon="4.25392457284033298492431640625">
        <ele>173</ele>
        <time>2024-01-27T10:20:10.000Z</time>
        <extensions>
          <ns3:TrackPointExtension>
            <ns3:hr>165</ns3:hr>
            <ns3:cad>86</ns3:cad>
          </ns3:TrackPointExtension>
        </extensions>
      </trkpt>
      <trkpt lat="43.83260247297585010528564453125" lon="4.25396128557622432708740234375">
        <ele>172.600006103515625</ele>
        <time>2024-01-27T10:20:11.000Z</time>
        <extensions>
          <ns3:TrackPointExtension>
            <ns3:hr>164</ns3:hr>
            <ns3:cad>86</ns3:cad>
          </ns3:TrackPointExtension>
        </extensions>
      </trkpt>
      <trkpt lat="43.83260096423327922821044921875" lon="4.254004955291748046875">
        <ele>172.399993896484375</ele>
        <time>2024-01-27T10:20:12.000Z</time>
        <extensions>
          <ns3:TrackPointExtension>
            <ns3:hr>164</ns3:hr>
            <ns3:cad>86</ns3:cad>
          </ns3:TrackPointExtension>
        </extensions>
      </trkpt>
      <trkpt lat="43.832601718604564666748046875" lon="4.25404057838022708892822265625">
        <ele>172.1999969482421875</ele>
        <time>2024-01-27T10:20:13.000Z</time>
        <extensions>
          <ns3:TrackPointExtension>
            <ns3:hr>164</ns3:hr>
            <ns3:cad>86</ns3:cad>
          </ns3:TrackPointExtension>
        </extensions>
      </trkpt>
      <trkpt lat="43.83260138332843780517578125" lon="4.25408542156219482421875">
        <ele>172</ele>
        <time>2024-01-27T10:20:14.000Z</time>
        <extensions>
          <ns3:TrackPointExtension>
            <ns3:hr>164</ns3:hr>
            <ns3:cad>86</ns3:cad>
          </ns3:TrackPointExtension>
        </extensions>
      </trkpt>
      <trkpt lat="43.83259878493845462799072265625" lon="4.25411718897521495819091796875">
        <ele>171.1999969482421875</ele>
        <time>2024-01-27T10:20:15.000Z</time>
        <extensions>
          <ns3:TrackPointExtension>
            <ns3:hr>164</ns3:hr>
            <ns3:cad>86</ns3:cad>
          </ns3:TrackPointExtension>
        </extensions>
      </trkpt>
      <trkpt lat="43.83260079659521579742431640625" lon="4.25416077487170696258544921875">
        <ele>170.8000030517578125</ele>
        <time>2024-01-27T10:20:16.000Z</time>
        <extensions>
          <ns3:TrackPointExtension>
            <ns3:hr>164</ns3:hr>
            <ns3:cad>86</ns3:cad>
          </ns3:TrackPointExtension>
        </extensions>
      </trkpt>
      <trkpt lat="43.8326015509665012359619140625" lon="4.25419832579791545867919921875">
        <ele>170.600006103515625</ele>
        <time>2024-01-27T10:20:17.000Z</time>
        <extensions>
          <ns3:TrackPointExtension>
            <ns3:hr>164</ns3:hr>
            <ns3:cad>87</ns3:cad>
          </ns3:TrackPointExtension>
        </extensions>
      </trkpt>
      <trkpt lat="43.83260280825197696685791015625" lon="4.25423721782863140106201171875">
        <ele>170</ele>
        <time>2024-01-27T10:20:18.000Z</time>
        <extensions>
          <ns3:TrackPointExtension>
            <ns3:hr>164</ns3:hr>
            <ns3:cad>87</ns3:cad>
          </ns3:TrackPointExtension>
        </extensions>
      </trkpt>
      <trkpt lat="43.83260062895715236663818359375" lon="4.2542723380029201507568359375">
        <ele>169.8000030517578125</ele>
        <time>2024-01-27T10:20:19.000Z</time>
        <extensions>
          <ns3:TrackPointExtension>
            <ns3:hr>164</ns3:hr>
            <ns3:cad>86</ns3:cad>
          </ns3:TrackPointExtension>
        </extensions>
      </trkpt>
      <trkpt lat="43.83260113187134265899658203125" lon="4.25430796109139919281005859375">
        <ele>169.600006103515625</ele>
        <time>2024-01-27T10:20:20.000Z</time>
        <extensions>
          <ns3:TrackPointExtension>
            <ns3:hr>164</ns3:hr>
            <ns3:cad>86</ns3:cad>
          </ns3:TrackPointExtension>
        </extensions>
      </trkpt>
      <trkpt lat="43.83259409107267856597900390625" lon="4.25434987060725688934326171875">
        <ele>169.1999969482421875</ele>
        <time>2024-01-27T10:20:21.000Z</time>
        <extensions>
          <ns3:TrackPointExtension>
            <ns3:hr>164</ns3:hr>
            <ns3:cad>87</ns3:cad>
          </ns3:TrackPointExtension>
        </extensions>
      </trkpt>
      <trkpt lat="43.83259157650172710418701171875" lon="4.2543880082666873931884765625">
        <ele>169</ele>
        <time>2024-01-27T10:20:22.000Z</time>
        <extensions>
          <ns3:TrackPointExtension>
            <ns3:hr>164</ns3:hr>
            <ns3:cad>87</ns3:cad>
          </ns3:TrackPointExtension>
        </extensions>
      </trkpt>
      <trkpt lat="43.83258068002760410308837890625" lon="4.25442296080291271209716796875">
        <ele>168.8000030517578125</ele>
        <time>2024-01-27T10:20:23.000Z</time>
        <extensions>
          <ns3:TrackPointExtension>
            <ns3:hr>164</ns3:hr>
            <ns3:cad>87</ns3:cad>
          </ns3:TrackPointExtension>
        </extensions>
      </trkpt>
      <trkpt lat="43.83257313631474971771240234375" lon="4.2544570751488208770751953125">
        <ele>168.8000030517578125</ele>
        <time>2024-01-27T10:20:24.000Z</time>
        <extensions>
          <ns3:TrackPointExtension>
            <ns3:hr>164</ns3:hr>
            <ns3:cad>88</ns3:cad>
          </ns3:TrackPointExtension>
        </extensions>
      </trkpt>
      <trkpt lat="43.83256383240222930908203125" lon="4.25448850728571414947509765625">
        <ele>168.600006103515625</ele>
        <time>2024-01-27T10:20:25.000Z</time>
        <extensions>
          <ns3:TrackPointExtension>
            <ns3:hr>164</ns3:hr>
            <ns3:cad>88</ns3:cad>
          </ns3:TrackPointExtension>
        </extensions>
      </trkpt>
      <trkpt lat="43.83255721069872379302978515625" lon="4.25452019087970256805419921875">
        <ele>168.600006103515625</ele>
        <time>2024-01-27T10:20:26.000Z</time>
        <extensions>
          <ns3:TrackPointExtension>
            <ns3:hr>164</ns3:hr>
            <ns3:cad>89</ns3:cad>
          </ns3:TrackPointExtension>
        </extensions>
      </trkpt>
      <trkpt lat="43.83255151100456714630126953125" lon="4.25454852171242237091064453125">
        <ele>168.600006103515625</ele>
        <time>2024-01-27T10:20:27.000Z</time>
        <extensions>
          <ns3:TrackPointExtension>
            <ns3:hr>164</ns3:hr>
            <ns3:cad>90</ns3:cad>
          </ns3:TrackPointExtension>
        </extensions>
      </trkpt>
      <trkpt lat="43.8325438834726810455322265625" lon="4.254590682685375213623046875">
        <ele>168.600006103515625</ele>
        <time>2024-01-27T10:20:28.000Z</time>
        <extensions>
          <ns3:TrackPointExtension>
            <ns3:hr>164</ns3:hr>
            <ns3:cad>90</ns3:cad>
          </ns3:TrackPointExtension>
        </extensions>
      </trkpt>
      <trkpt lat="43.8325381837785243988037109375" lon="4.2546213604509830474853515625">
        <ele>168.8000030517578125</ele>
        <time>2024-01-27T10:20:29.000Z</time>
        <extensions>
          <ns3:TrackPointExtension>
            <ns3:hr>164</ns3:hr>
            <ns3:cad>90</ns3:cad>
          </ns3:TrackPointExtension>
        </extensions>
      </trkpt>
      <trkpt lat="43.83252502419054508209228515625" lon="4.254659079015254974365234375">
        <ele>168.8000030517578125</ele>
        <time>2024-01-27T10:20:30.000Z</time>
        <extensions>
          <ns3:TrackPointExtension>
            <ns3:hr>164</ns3:hr>
            <ns3:cad>90</ns3:cad>
          </ns3:TrackPointExtension>
        </extensions>
      </trkpt>
      <trkpt lat="43.8325135409832000732421875" lon="4.2546864040195941925048828125">
        <ele>168.8000030517578125</ele>
        <time>2024-01-27T10:20:31.000Z</time>
        <extensions>
          <ns3:TrackPointExtension>
            <ns3:hr>164</ns3:hr>
            <ns3:cad>90</ns3:cad>
          </ns3:TrackPointExtension>
        </extensions>
      </trkpt>
      <trkpt lat="43.832497783005237579345703125" lon="4.254719428718090057373046875">
        <ele>168.8000030517578125</ele>
        <time>2024-01-27T10:20:32.000Z</time>
        <extensions>
          <ns3:TrackPointExtension>
            <ns3:hr>164</ns3:hr>
            <ns3:cad>90</ns3:cad>
          </ns3:TrackPointExtension>
        </extensions>
      </trkpt>
      <trkpt lat="43.8324842043220996856689453125" lon="4.25474247895181179046630859375">
        <ele>169</ele>
        <time>2024-01-27T10:20:33.000Z</time>
        <extensions>
          <ns3:TrackPointExtension>
            <ns3:hr>164</ns3:hr>
            <ns3:cad>90</ns3:cad>
          </ns3:TrackPointExtension>
        </extensions>
      </trkpt>
      <trkpt lat="43.83246668614447116851806640625" lon="4.2547765932977199554443359375">
        <ele>169</ele>
        <time>2024-01-27T10:20:34.000Z</time>
        <extensions>
          <ns3:TrackPointExtension>
            <ns3:hr>164</ns3:hr>
            <ns3:cad>90</ns3:cad>
          </ns3:TrackPointExtension>
        </extensions>
      </trkpt>
      <trkpt lat="43.83245444856584072113037109375" lon="4.25480165518820285797119140625">
        <ele>168.8000030517578125</ele>
        <time>2024-01-27T10:20:35.000Z</time>
        <extensions>
          <ns3:TrackPointExtension>
            <ns3:hr>164</ns3:hr>
            <ns3:cad>90</ns3:cad>
          </ns3:TrackPointExtension>
        </extensions>
      </trkpt>
      <trkpt lat="43.83243332616984844207763671875" lon="4.25483333878219127655029296875">
        <ele>168.8000030517578125</ele>
        <time>2024-01-27T10:20:36.000Z</time>
        <extensions>
          <ns3:TrackPointExtension>
            <ns3:hr>164</ns3:hr>
            <ns3:cad>90</ns3:cad>
          </ns3:TrackPointExtension>
        </extensions>
      </trkpt>
      <trkpt lat="43.832413293421268463134765625" lon="4.2548560537397861480712890625">
        <ele>168.8000030517578125</ele>
        <time>2024-01-27T10:20:37.000Z</time>
        <extensions>
          <ns3:TrackPointExtension>
            <ns3:hr>164</ns3:hr>
            <ns3:cad>90</ns3:cad>
          </ns3:TrackPointExtension>
        </extensions>
      </trkpt>
      <trkpt lat="43.832390494644641876220703125" lon="4.25488430075347423553466796875">
        <ele>168.600006103515625</ele>
        <time>2024-01-27T10:20:38.000Z</time>
        <extensions>
          <ns3:TrackPointExtension>
            <ns3:hr>164</ns3:hr>
            <ns3:cad>90</ns3:cad>
          </ns3:TrackPointExtension>
        </extensions>
      </trkpt>
      <trkpt lat="43.8323715515434741973876953125" lon="4.25491095520555973052978515625">
        <ele>168.600006103515625</ele>
        <time>2024-01-27T10:20:39.000Z</time>
        <extensions>
          <ns3:TrackPointExtension>
            <ns3:hr>164</ns3:hr>
            <ns3:cad>89</ns3:cad>
          </ns3:TrackPointExtension>
        </extensions>
      </trkpt>
      <trkpt lat="43.83234581910073757171630859375" lon="4.25493861548602581024169921875">
        <ele>168.600006103515625</ele>
        <time>2024-01-27T10:20:40.000Z</time>
        <extensions>
          <ns3:TrackPointExtension>
            <ns3:hr>164</ns3:hr>
            <ns3:cad>89</ns3:cad>
          </ns3:TrackPointExtension>
        </extensions>
      </trkpt>
      <trkpt lat="43.83232587017118930816650390625" lon="4.254960827529430389404296875">
        <ele>168.600006103515625</ele>
        <time>2024-01-27T10:20:41.000Z</time>
        <extensions>
          <ns3:TrackPointExtension>
            <ns3:hr>164</ns3:hr>
            <ns3:cad>90</ns3:cad>
          </ns3:TrackPointExtension>
        </extensions>
      </trkpt>
      <trkpt lat="43.83229971863329410552978515625" lon="4.25498320721089839935302734375">
        <ele>168.600006103515625</ele>
        <time>2024-01-27T10:20:42.000Z</time>
        <extensions>
          <ns3:TrackPointExtension>
            <ns3:hr>164</ns3:hr>
            <ns3:cad>90</ns3:cad>
          </ns3:TrackPointExtension>
        </extensions>
      </trkpt>
      <trkpt lat="43.8322800211608409881591796875" lon="4.25500365905463695526123046875">
        <ele>168.600006103515625</ele>
        <time>2024-01-27T10:20:43.000Z</time>
        <extensions>
          <ns3:TrackPointExtension>
            <ns3:hr>164</ns3:hr>
            <ns3:cad>90</ns3:cad>
          </ns3:TrackPointExtension>
        </extensions>
      </trkpt>
      <trkpt lat="43.83225462399423122406005859375" lon="4.25502209924161434173583984375">
        <ele>168.8000030517578125</ele>
        <time>2024-01-27T10:20:44.000Z</time>
        <extensions>
          <ns3:TrackPointExtension>
            <ns3:hr>164</ns3:hr>
            <ns3:cad>91</ns3:cad>
          </ns3:TrackPointExtension>
        </extensions>
      </trkpt>
      <trkpt lat="43.83223718963563442230224609375" lon="4.2550394497811794281005859375">
        <ele>168.8000030517578125</ele>
        <time>2024-01-27T10:20:45.000Z</time>
        <extensions>
          <ns3:TrackPointExtension>
            <ns3:hr>164</ns3:hr>
            <ns3:cad>91</ns3:cad>
          </ns3:TrackPointExtension>
        </extensions>
      </trkpt>
      <trkpt lat="43.8322143070399761199951171875" lon="4.25505981780588626861572265625">
        <ele>169</ele>
        <time>2024-01-27T10:20:46.000Z</time>
        <extensions>
          <ns3:TrackPointExtension>
            <ns3:hr>164</ns3:hr>
            <ns3:cad>90</ns3:cad>
          </ns3:TrackPointExtension>
        </extensions>
      </trkpt>
      <trkpt lat="43.83219494484364986419677734375" lon="4.25507842563092708587646484375">
        <ele>169</ele>
        <time>2024-01-27T10:20:47.000Z</time>
        <extensions>
          <ns3:TrackPointExtension>
            <ns3:hr>164</ns3:hr>
            <ns3:cad>90</ns3:cad>
          </ns3:TrackPointExtension>
        </extensions>
      </trkpt>
      <trkpt lat="43.8321740739047527313232421875" lon="4.2550977878272533416748046875">
        <ele>169</ele>
        <time>2024-01-27T10:20:48.000Z</time>
        <extensions>
          <ns3:TrackPointExtension>
            <ns3:hr>164</ns3:hr>
            <ns3:cad>91</ns3:cad>
          </ns3:TrackPointExtension>
        </extensions>
      </trkpt>
      <trkpt lat="43.832156471908092498779296875" lon="4.2551185749471187591552734375">
        <ele>169.1999969482421875</ele>
        <time>2024-01-27T10:20:49.000Z</time>
        <extensions>
          <ns3:TrackPointExtension>
            <ns3:hr>164</ns3:hr>
            <ns3:cad>92</ns3:cad>
          </ns3:TrackPointExtension>
        </extensions>
      </trkpt>
      <trkpt lat="43.83213744498789310455322265625" lon="4.2551360093057155609130859375">
        <ele>169.399993896484375</ele>
        <time>2024-01-27T10:20:50.000Z</time>
        <extensions>
          <ns3:TrackPointExtension>
            <ns3:hr>165</ns3:hr>
            <ns3:cad>92</ns3:cad>
          </ns3:TrackPointExtension>
        </extensions>
      </trkpt>
      <trkpt lat="43.83211791515350341796875" lon="4.25515688024461269378662109375">
        <ele>169.399993896484375</ele>
        <time>2024-01-27T10:20:51.000Z</time>
        <extensions>
          <ns3:TrackPointExtension>
            <ns3:hr>165</ns3:hr>
            <ns3:cad>91</ns3:cad>
          </ns3:TrackPointExtension>
        </extensions>
      </trkpt>
      <trkpt lat="43.83209955878555774688720703125" lon="4.255172722041606903076171875">
        <ele>169.8000030517578125</ele>
        <time>2024-01-27T10:20:52.000Z</time>
        <extensions>
          <ns3:TrackPointExtension>
            <ns3:hr>165</ns3:hr>
            <ns3:cad>91</ns3:cad>
          </ns3:TrackPointExtension>
        </extensions>
      </trkpt>
      <trkpt lat="43.83207776583731174468994140625" lon="4.25519828684628009796142578125">
        <ele>170</ele>
        <time>2024-01-27T10:20:53.000Z</time>
        <extensions>
          <ns3:TrackPointExtension>
            <ns3:hr>165</ns3:hr>
            <ns3:cad>91</ns3:cad>
          </ns3:TrackPointExtension>
        </extensions>
      </trkpt>
      <trkpt lat="43.8320634327828884124755859375" lon="4.255219660699367523193359375">
        <ele>170.1999969482421875</ele>
        <time>2024-01-27T10:20:54.000Z</time>
        <extensions>
          <ns3:TrackPointExtension>
            <ns3:hr>165</ns3:hr>
            <ns3:cad>92</ns3:cad>
          </ns3:TrackPointExtension>
        </extensions>
      </trkpt>
      <trkpt lat="43.83204222656786441802978515625" lon="4.25524673424661159515380859375">
        <ele>170.399993896484375</ele>
        <time>2024-01-27T10:20:55.000Z</time>
        <extensions>
          <ns3:TrackPointExtension>
            <ns3:hr>165</ns3:hr>
            <ns3:cad>93</ns3:cad>
          </ns3:TrackPointExtension>
        </extensions>
      </trkpt>
      <trkpt lat="43.83203099481761455535888671875" lon="4.25527137704193592071533203125">
        <ele>170.600006103515625</ele>
        <time>2024-01-27T10:20:56.000Z</time>
        <extensions>
          <ns3:TrackPointExtension>
            <ns3:hr>165</ns3:hr>
            <ns3:cad>93</ns3:cad>
          </ns3:TrackPointExtension>
        </extensions>
      </trkpt>
      <trkpt lat="43.83201540447771549224853515625" lon="4.255298115313053131103515625">
        <ele>170.8000030517578125</ele>
        <time>2024-01-27T10:20:57.000Z</time>
        <extensions>
          <ns3:TrackPointExtension>
            <ns3:hr>166</ns3:hr>
            <ns3:cad>93</ns3:cad>
          </ns3:TrackPointExtension>
        </extensions>
      </trkpt>
      <trkpt lat="43.8320030830800533294677734375" lon="4.25532200373709201812744140625">
        <ele>171</ele>
        <time>2024-01-27T10:20:58.000Z</time>
        <extensions>
          <ns3:TrackPointExtension>
            <ns3:hr>166</ns3:hr>
            <ns3:cad>93</ns3:cad>
          </ns3:TrackPointExtension>
        </extensions>
      </trkpt>
      <trkpt lat="43.83198522962629795074462890625" lon="4.2553475685417652130126953125">
        <ele>171.399993896484375</ele>
        <time>2024-01-27T10:20:59.000Z</time>
        <extensions>
          <ns3:TrackPointExtension>
            <ns3:hr>166</ns3:hr>
            <ns3:cad>93</ns3:cad>
          </ns3:TrackPointExtension>
        </extensions>
      </trkpt>
      <trkpt lat="43.83197500370442867279052734375" lon="4.25537397153675556182861328125">
        <ele>171.600006103515625</ele>
        <time>2024-01-27T10:21:00.000Z</time>
        <extensions>
          <ns3:TrackPointExtension>
            <ns3:hr>166</ns3:hr>
            <ns3:cad>93</ns3:cad>
          </ns3:TrackPointExtension>
        </extensions>
      </trkpt>
      <trkpt lat="43.83195991627871990203857421875" lon="4.25540230236947536468505859375">
        <ele>171.8000030517578125</ele>
        <time>2024-01-27T10:21:01.000Z</time>
        <extensions>
          <ns3:TrackPointExtension>
            <ns3:hr>166</ns3:hr>
            <ns3:cad>93</ns3:cad>
          </ns3:TrackPointExtension>
        </extensions>
      </trkpt>
      <trkpt lat="43.831950612366199493408203125" lon="4.25542728044092655181884765625">
        <ele>171.8000030517578125</ele>
        <time>2024-01-27T10:21:02.000Z</time>
        <extensions>
          <ns3:TrackPointExtension>
            <ns3:hr>166</ns3:hr>
            <ns3:cad>93</ns3:cad>
          </ns3:TrackPointExtension>
        </extensions>
      </trkpt>
      <trkpt lat="43.83193829096853733062744140625" lon="4.255450665950775146484375">
        <ele>172</ele>
        <time>2024-01-27T10:21:03.000Z</time>
        <extensions>
          <ns3:TrackPointExtension>
            <ns3:hr>165</ns3:hr>
            <ns3:cad>93</ns3:cad>
          </ns3:TrackPointExtension>
        </extensions>
      </trkpt>
      <trkpt lat="43.8319283165037631988525390625" lon="4.25547824241220951080322265625">
        <ele>172.1999969482421875</ele>
        <time>2024-01-27T10:21:04.000Z</time>
        <extensions>
          <ns3:TrackPointExtension>
            <ns3:hr>165</ns3:hr>
            <ns3:cad>93</ns3:cad>
          </ns3:TrackPointExtension>
        </extensions>
      </trkpt>
      <trkpt lat="43.8319179229438304901123046875" lon="4.25550187937915325164794921875">
        <ele>172.399993896484375</ele>
        <time>2024-01-27T10:21:05.000Z</time>
        <extensions>
          <ns3:TrackPointExtension>
            <ns3:hr>165</ns3:hr>
            <ns3:cad>92</ns3:cad>
          </ns3:TrackPointExtension>
        </extensions>
      </trkpt>
      <trkpt lat="43.83190526627004146575927734375" lon="4.25553046166896820068359375">
        <ele>172.399993896484375</ele>
        <time>2024-01-27T10:21:06.000Z</time>
        <extensions>
          <ns3:TrackPointExtension>
            <ns3:hr>165</ns3:hr>
            <ns3:cad>92</ns3:cad>
          </ns3:TrackPointExtension>
        </extensions>
      </trkpt>
      <trkpt lat="43.8318957947194576263427734375" lon="4.25555569119751453399658203125">
        <ele>172.600006103515625</ele>
        <time>2024-01-27T10:21:07.000Z</time>
        <extensions>
          <ns3:TrackPointExtension>
            <ns3:hr>165</ns3:hr>
            <ns3:cad>92</ns3:cad>
          </ns3:TrackPointExtension>
        </extensions>
      </trkpt>
      <trkpt lat="43.83188791573047637939453125" lon="4.25558947026729583740234375">
        <ele>172.8000030517578125</ele>
        <time>2024-01-27T10:21:08.000Z</time>
        <extensions>
          <ns3:TrackPointExtension>
            <ns3:hr>165</ns3:hr>
            <ns3:cad>91</ns3:cad>
          </ns3:TrackPointExtension>
        </extensions>
      </trkpt>
      <trkpt lat="43.83188364095985889434814453125" lon="4.2556129395961761474609375">
        <ele>173.1999969482421875</ele>
        <time>2024-01-27T10:21:09.000Z</time>
        <extensions>
          <ns3:TrackPointExtension>
            <ns3:hr>166</ns3:hr>
            <ns3:cad>91</ns3:cad>
          </ns3:TrackPointExtension>
        </extensions>
      </trkpt>
      <trkpt lat="43.83187592960894107818603515625" lon="4.2556449584662914276123046875">
        <ele>173.399993896484375</ele>
        <time>2024-01-27T10:21:10.000Z</time>
        <extensions>
          <ns3:TrackPointExtension>
            <ns3:hr>166</ns3:hr>
            <ns3:cad>92</ns3:cad>
          </ns3:TrackPointExtension>
        </extensions>
      </trkpt>
      <trkpt lat="43.8318706490099430084228515625" lon="4.2556711100041866302490234375">
        <ele>173.600006103515625</ele>
        <time>2024-01-27T10:21:11.000Z</time>
        <extensions>
          <ns3:TrackPointExtension>
            <ns3:hr>166</ns3:hr>
            <ns3:cad>92</ns3:cad>
          </ns3:TrackPointExtension>
        </extensions>
      </trkpt>
      <trkpt lat="43.8318626023828983306884765625" lon="4.2557016201317310333251953125">
        <ele>173.600006103515625</ele>
        <time>2024-01-27T10:21:12.000Z</time>
        <extensions>
          <ns3:TrackPointExtension>
            <ns3:hr>166</ns3:hr>
            <ns3:cad>93</ns3:cad>
          </ns3:TrackPointExtension>
        </extensions>
      </trkpt>
      <trkpt lat="43.8318562321364879608154296875" lon="4.25573053769767284393310546875">
        <ele>173.8000030517578125</ele>
        <time>2024-01-27T10:21:13.000Z</time>
        <extensions>
          <ns3:TrackPointExtension>
            <ns3:hr>166</ns3:hr>
            <ns3:cad>93</ns3:cad>
          </ns3:TrackPointExtension>
        </extensions>
      </trkpt>
      <trkpt lat="43.831848017871379852294921875" lon="4.2557606287300586700439453125">
        <ele>174</ele>
        <time>2024-01-27T10:21:14.000Z</time>
        <extensions>
          <ns3:TrackPointExtension>
            <ns3:hr>166</ns3:hr>
            <ns3:cad>93</ns3:cad>
          </ns3:TrackPointExtension>
        </extensions>
      </trkpt>
      <trkpt lat="43.831839300692081451416015625" lon="4.2557921446859836578369140625">
        <ele>174</ele>
        <time>2024-01-27T10:21:15.000Z</time>
        <extensions>
          <ns3:TrackPointExtension>
            <ns3:hr>167</ns3:hr>
            <ns3:cad>93</ns3:cad>
          </ns3:TrackPointExtension>
        </extensions>
      </trkpt>
      <trkpt lat="43.831833265721797943115234375" lon="4.25581988878548145294189453125">
        <ele>174.1999969482421875</ele>
        <time>2024-01-27T10:21:16.000Z</time>
        <extensions>
          <ns3:TrackPointExtension>
            <ns3:hr>167</ns3:hr>
            <ns3:cad>93</ns3:cad>
          </ns3:TrackPointExtension>
        </extensions>
      </trkpt>
      <trkpt lat="43.83182178251445293426513671875" lon="4.255854673683643341064453125">
        <ele>174.1999969482421875</ele>
        <time>2024-01-27T10:21:17.000Z</time>
        <extensions>
          <ns3:TrackPointExtension>
            <ns3:hr>167</ns3:hr>
            <ns3:cad>93</ns3:cad>
          </ns3:TrackPointExtension>
        </extensions>
      </trkpt>
      <trkpt lat="43.831815160810947418212890625" lon="4.25588157959282398223876953125">
        <ele>174.399993896484375</ele>
        <time>2024-01-27T10:21:18.000Z</time>
        <extensions>
          <ns3:TrackPointExtension>
            <ns3:hr>168</ns3:hr>
            <ns3:cad>94</ns3:cad>
          </ns3:TrackPointExtension>
        </extensions>
      </trkpt>
      <trkpt lat="43.83180250413715839385986328125" lon="4.25591326318681240081787109375">
        <ele>174.600006103515625</ele>
        <time>2024-01-27T10:21:19.000Z</time>
        <extensions>
          <ns3:TrackPointExtension>
            <ns3:hr>168</ns3:hr>
            <ns3:cad>94</ns3:cad>
          </ns3:TrackPointExtension>
        </extensions>
      </trkpt>
      <trkpt lat="43.83179345168173313140869140625" lon="4.25593790598213672637939453125">
        <ele>174.600006103515625</ele>
        <time>2024-01-27T10:21:20.000Z</time>
        <extensions>
          <ns3:TrackPointExtension>
            <ns3:hr>168</ns3:hr>
            <ns3:cad>94</ns3:cad>
          </ns3:TrackPointExtension>
        </extensions>
      </trkpt>
      <trkpt lat="43.8317804597318172454833984375" lon="4.2559674941003322601318359375">
        <ele>174.8000030517578125</ele>
        <time>2024-01-27T10:21:21.000Z</time>
        <extensions>
          <ns3:TrackPointExtension>
            <ns3:hr>168</ns3:hr>
            <ns3:cad>92</ns3:cad>
          </ns3:TrackPointExtension>
        </extensions>
      </trkpt>
      <trkpt lat="43.83177400566637516021728515625" lon="4.25599423237144947052001953125">
        <ele>175</ele>
        <time>2024-01-27T10:21:22.000Z</time>
        <extensions>
          <ns3:TrackPointExtension>
            <ns3:hr>168</ns3:hr>
            <ns3:cad>92</ns3:cad>
          </ns3:TrackPointExtension>
        </extensions>
      </trkpt>
      <trkpt lat="43.83176025934517383575439453125" lon="4.25602021627128124237060546875">
        <ele>175.1999969482421875</ele>
        <time>2024-01-27T10:21:23.000Z</time>
        <extensions>
          <ns3:TrackPointExtension>
            <ns3:hr>168</ns3:hr>
            <ns3:cad>92</ns3:cad>
          </ns3:TrackPointExtension>
        </extensions>
      </trkpt>
      <trkpt lat="43.831754140555858612060546875" lon="4.25604469142854213714599609375">
        <ele>175.1999969482421875</ele>
        <time>2024-01-27T10:21:24.000Z</time>
        <extensions>
          <ns3:TrackPointExtension>
            <ns3:hr>168</ns3:hr>
            <ns3:cad>92</ns3:cad>
          </ns3:TrackPointExtension>
        </extensions>
      </trkpt>
      <trkpt lat="43.8317439146339893341064453125" lon="4.25606958568096160888671875">
        <ele>175.1999969482421875</ele>
        <time>2024-01-27T10:21:25.000Z</time>
        <extensions>
          <ns3:TrackPointExtension>
            <ns3:hr>168</ns3:hr>
            <ns3:cad>91</ns3:cad>
          </ns3:TrackPointExtension>
        </extensions>
      </trkpt>
      <trkpt lat="43.83173075504601001739501953125" lon="4.2560970783233642578125">
        <ele>175.399993896484375</ele>
        <time>2024-01-27T10:21:26.000Z</time>
        <extensions>
          <ns3:TrackPointExtension>
            <ns3:hr>169</ns3:hr>
            <ns3:cad>91</ns3:cad>
          </ns3:TrackPointExtension>
        </extensions>
      </trkpt>
      <trkpt lat="43.83171935565769672393798828125" lon="4.256121218204498291015625">
        <ele>175.399993896484375</ele>
        <time>2024-01-27T10:21:27.000Z</time>
        <extensions>
          <ns3:TrackPointExtension>
            <ns3:hr>169</ns3:hr>
            <ns3:cad>92</ns3:cad>
          </ns3:TrackPointExtension>
        </extensions>
      </trkpt>
      <trkpt lat="43.8317048549652099609375" lon="4.25615139305591583251953125">
        <ele>175.600006103515625</ele>
        <time>2024-01-27T10:21:28.000Z</time>
        <extensions>
          <ns3:TrackPointExtension>
            <ns3:hr>169</ns3:hr>
            <ns3:cad>93</ns3:cad>
          </ns3:TrackPointExtension>
        </extensions>
      </trkpt>
      <trkpt lat="43.83169454522430896759033203125" lon="4.256176538765430450439453125">
        <ele>175.600006103515625</ele>
        <time>2024-01-27T10:21:29.000Z</time>
        <extensions>
          <ns3:TrackPointExtension>
            <ns3:hr>168</ns3:hr>
            <ns3:cad>93</ns3:cad>
          </ns3:TrackPointExtension>
        </extensions>
      </trkpt>
      <trkpt lat="43.8316785357892513275146484375" lon="4.256206713616847991943359375">
        <ele>175.8000030517578125</ele>
        <time>2024-01-27T10:21:30.000Z</time>
        <extensions>
          <ns3:TrackPointExtension>
            <ns3:hr>168</ns3:hr>
            <ns3:cad>93</ns3:cad>
          </ns3:TrackPointExtension>
        </extensions>
      </trkpt>
      <trkpt lat="43.83166923187673091888427734375" lon="4.2562300153076648712158203125">
        <ele>175.8000030517578125</ele>
        <time>2024-01-27T10:21:31.000Z</time>
        <extensions>
          <ns3:TrackPointExtension>
            <ns3:hr>168</ns3:hr>
            <ns3:cad>92</ns3:cad>
          </ns3:TrackPointExtension>
        </extensions>
      </trkpt>
      <trkpt lat="43.831654228270053863525390625" lon="4.2562571726739406585693359375">
        <ele>176</ele>
        <time>2024-01-27T10:21:32.000Z</time>
        <extensions>
          <ns3:TrackPointExtension>
            <ns3:hr>169</ns3:hr>
            <ns3:cad>92</ns3:cad>
          </ns3:TrackPointExtension>
        </extensions>
      </trkpt>
      <trkpt lat="43.831644169986248016357421875" lon="4.25628307275474071502685546875">
        <ele>176</ele>
        <time>2024-01-27T10:21:33.000Z</time>
        <extensions>
          <ns3:TrackPointExtension>
            <ns3:hr>169</ns3:hr>
            <ns3:cad>92</ns3:cad>
          </ns3:TrackPointExtension>
        </extensions>
      </trkpt>
      <trkpt lat="43.8316310942173004150390625" lon="4.2563145048916339874267578125">
        <ele>176</ele>
        <time>2024-01-27T10:21:34.000Z</time>
        <extensions>
          <ns3:TrackPointExtension>
            <ns3:hr>169</ns3:hr>
            <ns3:cad>92</ns3:cad>
          </ns3:TrackPointExtension>
        </extensions>
      </trkpt>
      <trkpt lat="43.83162078447639942169189453125" lon="4.2563440091907978057861328125">
        <ele>176</ele>
        <time>2024-01-27T10:21:35.000Z</time>
        <extensions>
          <ns3:TrackPointExtension>
            <ns3:hr>169</ns3:hr>
            <ns3:cad>92</ns3:cad>
          </ns3:TrackPointExtension>
        </extensions>
      </trkpt>
      <trkpt lat="43.83160804398357868194580078125" lon="4.2563720047473907470703125">
        <ele>176</ele>
        <time>2024-01-27T10:21:36.000Z</time>
        <extensions>
          <ns3:TrackPointExtension>
            <ns3:hr>169</ns3:hr>
            <ns3:cad>92</ns3:cad>
          </ns3:TrackPointExtension>
        </extensions>
      </trkpt>
      <trkpt lat="43.8315989077091217041015625" lon="4.2563989944756031036376953125">
        <ele>176.1999969482421875</ele>
        <time>2024-01-27T10:21:37.000Z</time>
        <extensions>
          <ns3:TrackPointExtension>
            <ns3:hr>169</ns3:hr>
            <ns3:cad>92</ns3:cad>
          </ns3:TrackPointExtension>
        </extensions>
      </trkpt>
      <trkpt lat="43.8315910287201404571533203125" lon="4.256424643099308013916015625">
        <ele>176.1999969482421875</ele>
        <time>2024-01-27T10:21:38.000Z</time>
        <extensions>
          <ns3:TrackPointExtension>
            <ns3:hr>169</ns3:hr>
            <ns3:cad>91</ns3:cad>
          </ns3:TrackPointExtension>
        </extensions>
      </trkpt>
      <trkpt lat="43.831582479178905487060546875" lon="4.256456829607486724853515625">
        <ele>176.1999969482421875</ele>
        <time>2024-01-27T10:21:39.000Z</time>
        <extensions>
          <ns3:TrackPointExtension>
            <ns3:hr>169</ns3:hr>
            <ns3:cad>91</ns3:cad>
          </ns3:TrackPointExtension>
        </extensions>
      </trkpt>
      <trkpt lat="43.83157602511346340179443359375" lon="4.25648373551666736602783203125">
        <ele>176.1999969482421875</ele>
        <time>2024-01-27T10:21:40.000Z</time>
        <extensions>
          <ns3:TrackPointExtension>
            <ns3:hr>169</ns3:hr>
            <ns3:cad>91</ns3:cad>
          </ns3:TrackPointExtension>
        </extensions>
      </trkpt>
      <trkpt lat="43.83156462572515010833740234375" lon="4.25651977770030498504638671875">
        <ele>176.1999969482421875</ele>
        <time>2024-01-27T10:21:41.000Z</time>
        <extensions>
          <ns3:TrackPointExtension>
            <ns3:hr>169</ns3:hr>
            <ns3:cad>92</ns3:cad>
          </ns3:TrackPointExtension>
        </extensions>
      </trkpt>
      <trkpt lat="43.83155691437423229217529296875" lon="4.25654844380915164947509765625">
        <ele>176.1999969482421875</ele>
        <time>2024-01-27T10:21:42.000Z</time>
        <extensions>
          <ns3:TrackPointExtension>
            <ns3:hr>169</ns3:hr>
            <ns3:cad>92</ns3:cad>
          </ns3:TrackPointExtension>
        </extensions>
      </trkpt>
      <trkpt lat="43.8315497897565364837646484375" lon="4.2565812170505523681640625">
        <ele>176.1999969482421875</ele>
        <time>2024-01-27T10:21:43.000Z</time>
        <extensions>
          <ns3:TrackPointExtension>
            <ns3:hr>169</ns3:hr>
            <ns3:cad>92</ns3:cad>
          </ns3:TrackPointExtension>
        </extensions>
      </trkpt>
      <trkpt lat="43.831544257700443267822265625" lon="4.25660728476941585540771484375">
        <ele>176.1999969482421875</ele>
        <time>2024-01-27T10:21:44.000Z</time>
        <extensions>
          <ns3:TrackPointExtension>
            <ns3:hr>169</ns3:hr>
            <ns3:cad>93</ns3:cad>
          </ns3:TrackPointExtension>
        </extensions>
      </trkpt>
      <trkpt lat="43.831536211073398590087890625" lon="4.25663821399211883544921875">
        <ele>176.1999969482421875</ele>
        <time>2024-01-27T10:21:45.000Z</time>
        <extensions>
          <ns3:TrackPointExtension>
            <ns3:hr>169</ns3:hr>
            <ns3:cad>93</ns3:cad>
          </ns3:TrackPointExtension>
        </extensions>
      </trkpt>
      <trkpt lat="43.831532187759876251220703125" lon="4.2566658742725849151611328125">
        <ele>176.1999969482421875</ele>
        <time>2024-01-27T10:21:46.000Z</time>
        <extensions>
          <ns3:TrackPointExtension>
            <ns3:hr>169</ns3:hr>
            <ns3:cad>93</ns3:cad>
          </ns3:TrackPointExtension>
        </extensions>
      </trkpt>
      <trkpt lat="43.83152623660862445831298828125" lon="4.25669563002884387969970703125">
        <ele>176.1999969482421875</ele>
        <time>2024-01-27T10:21:47.000Z</time>
        <extensions>
          <ns3:TrackPointExtension>
            <ns3:hr>169</ns3:hr>
            <ns3:cad>92</ns3:cad>
          </ns3:TrackPointExtension>
        </extensions>
      </trkpt>
      <trkpt lat="43.83152036927640438079833984375" lon="4.25672530196607112884521484375">
        <ele>176.1999969482421875</ele>
        <time>2024-01-27T10:21:48.000Z</time>
        <extensions>
          <ns3:TrackPointExtension>
            <ns3:hr>169</ns3:hr>
            <ns3:cad>92</ns3:cad>
          </ns3:TrackPointExtension>
        </extensions>
      </trkpt>
      <trkpt lat="43.83151165209710597991943359375" lon="4.25675329752266407012939453125">
        <ele>176.1999969482421875</ele>
        <time>2024-01-27T10:21:49.000Z</time>
        <extensions>
          <ns3:TrackPointExtension>
            <ns3:hr>169</ns3:hr>
            <ns3:cad>93</ns3:cad>
          </ns3:TrackPointExtension>
        </extensions>
      </trkpt>
      <trkpt lat="43.8315062038600444793701171875" lon="4.256786741316318511962890625">
        <ele>176.1999969482421875</ele>
        <time>2024-01-27T10:21:50.000Z</time>
        <extensions>
          <ns3:TrackPointExtension>
            <ns3:hr>169</ns3:hr>
            <ns3:cad>93</ns3:cad>
          </ns3:TrackPointExtension>
        </extensions>
      </trkpt>
      <trkpt lat="43.83150042034685611724853515625" lon="4.2568172514438629150390625">
        <ele>176.1999969482421875</ele>
        <time>2024-01-27T10:21:51.000Z</time>
        <extensions>
          <ns3:TrackPointExtension>
            <ns3:hr>170</ns3:hr>
            <ns3:cad>92</ns3:cad>
          </ns3:TrackPointExtension>
        </extensions>
      </trkpt>
      <trkpt lat="43.831489942967891693115234375" lon="4.25684952177107334136962890625">
        <ele>176.399993896484375</ele>
        <time>2024-01-27T10:21:52.000Z</time>
        <extensions>
          <ns3:TrackPointExtension>
            <ns3:hr>170</ns3:hr>
            <ns3:cad>92</ns3:cad>
          </ns3:TrackPointExtension>
        </extensions>
      </trkpt>
      <trkpt lat="43.83148298598825931549072265625" lon="4.2568789422512054443359375">
        <ele>176.399993896484375</ele>
        <time>2024-01-27T10:21:53.000Z</time>
        <extensions>
          <ns3:TrackPointExtension>
            <ns3:hr>171</ns3:hr>
            <ns3:cad>92</ns3:cad>
          </ns3:TrackPointExtension>
        </extensions>
      </trkpt>
      <trkpt lat="43.83147292770445346832275390625" lon="4.2569143138825893402099609375">
        <ele>176.1999969482421875</ele>
        <time>2024-01-27T10:21:54.000Z</time>
        <extensions>
          <ns3:TrackPointExtension>
            <ns3:hr>171</ns3:hr>
            <ns3:cad>92</ns3:cad>
          </ns3:TrackPointExtension>
        </extensions>
      </trkpt>
      <trkpt lat="43.831466473639011383056640625" lon="4.2569475062191486358642578125">
        <ele>176.1999969482421875</ele>
        <time>2024-01-27T10:21:55.000Z</time>
        <extensions>
          <ns3:TrackPointExtension>
            <ns3:hr>171</ns3:hr>
            <ns3:cad>92</ns3:cad>
          </ns3:TrackPointExtension>
        </extensions>
      </trkpt>
      <trkpt lat="43.83145834319293498992919921875" lon="4.25698245875537395477294921875">
        <ele>176.1999969482421875</ele>
        <time>2024-01-27T10:21:56.000Z</time>
        <extensions>
          <ns3:TrackPointExtension>
            <ns3:hr>172</ns3:hr>
            <ns3:cad>92</ns3:cad>
          </ns3:TrackPointExtension>
        </extensions>
      </trkpt>
      <trkpt lat="43.83145398460328578948974609375" lon="4.2570138908922672271728515625">
        <ele>176</ele>
        <time>2024-01-27T10:21:57.000Z</time>
        <extensions>
          <ns3:TrackPointExtension>
            <ns3:hr>172</ns3:hr>
            <ns3:cad>92</ns3:cad>
          </ns3:TrackPointExtension>
        </extensions>
      </trkpt>
      <trkpt lat="43.8314461894333362579345703125" lon="4.25704993307590484619140625">
        <ele>176</ele>
        <time>2024-01-27T10:21:58.000Z</time>
        <extensions>
          <ns3:TrackPointExtension>
            <ns3:hr>172</ns3:hr>
            <ns3:cad>92</ns3:cad>
          </ns3:TrackPointExtension>
        </extensions>
      </trkpt>
      <trkpt lat="43.831439651548862457275390625" lon="4.25708555616438388824462890625">
        <ele>176</ele>
        <time>2024-01-27T10:21:59.000Z</time>
        <extensions>
          <ns3:TrackPointExtension>
            <ns3:hr>172</ns3:hr>
            <ns3:cad>92</ns3:cad>
          </ns3:TrackPointExtension>
        </extensions>
      </trkpt>
      <trkpt lat="43.8314311020076274871826171875" lon="4.2571178264915943145751953125">
        <ele>175.8000030517578125</ele>
        <time>2024-01-27T10:22:00.000Z</time>
        <extensions>
          <ns3:TrackPointExtension>
            <ns3:hr>172</ns3:hr>
            <ns3:cad>92</ns3:cad>
          </ns3:TrackPointExtension>
        </extensions>
      </trkpt>
      <trkpt lat="43.831424899399280548095703125" lon="4.2571506835520267486572265625">
        <ele>175.8000030517578125</ele>
        <time>2024-01-27T10:22:01.000Z</time>
        <extensions>
          <ns3:TrackPointExtension>
            <ns3:hr>172</ns3:hr>
            <ns3:cad>92</ns3:cad>
          </ns3:TrackPointExtension>
        </extensions>
      </trkpt>
      <trkpt lat="43.83141894824802875518798828125" lon="4.25718027167022228240966796875">
        <ele>175.8000030517578125</ele>
        <time>2024-01-27T10:22:02.000Z</time>
        <extensions>
          <ns3:TrackPointExtension>
            <ns3:hr>172</ns3:hr>
            <ns3:cad>93</ns3:cad>
          </ns3:TrackPointExtension>
        </extensions>
      </trkpt>
      <trkpt lat="43.831416182219982147216796875" lon="4.2572150565683841705322265625">
        <ele>175.8000030517578125</ele>
        <time>2024-01-27T10:22:03.000Z</time>
        <extensions>
          <ns3:TrackPointExtension>
            <ns3:hr>172</ns3:hr>
            <ns3:cad>93</ns3:cad>
          </ns3:TrackPointExtension>
        </extensions>
      </trkpt>
      <trkpt lat="43.8314079679548740386962890625" lon="4.25724782980978488922119140625">
        <ele>175.600006103515625</ele>
        <time>2024-01-27T10:22:04.000Z</time>
        <extensions>
          <ns3:TrackPointExtension>
            <ns3:hr>172</ns3:hr>
            <ns3:cad>92</ns3:cad>
          </ns3:TrackPointExtension>
        </extensions>
      </trkpt>
      <trkpt lat="43.8314012624323368072509765625" lon="4.257283620536327362060546875">
        <ele>175.600006103515625</ele>
        <time>2024-01-27T10:22:05.000Z</time>
        <extensions>
          <ns3:TrackPointExtension>
            <ns3:hr>172</ns3:hr>
            <ns3:cad>91</ns3:cad>
          </ns3:TrackPointExtension>
        </extensions>
      </trkpt>
      <trkpt lat="43.83139573037624359130859375" lon="4.25731404684484004974365234375">
        <ele>175.399993896484375</ele>
        <time>2024-01-27T10:22:06.000Z</time>
        <extensions>
          <ns3:TrackPointExtension>
            <ns3:hr>172</ns3:hr>
            <ns3:cad>91</ns3:cad>
          </ns3:TrackPointExtension>
        </extensions>
      </trkpt>
      <trkpt lat="43.831386677920818328857421875" lon="4.2573511786758899688720703125">
        <ele>175.399993896484375</ele>
        <time>2024-01-27T10:22:07.000Z</time>
        <extensions>
          <ns3:TrackPointExtension>
            <ns3:hr>173</ns3:hr>
            <ns3:cad>93</ns3:cad>
          </ns3:TrackPointExtension>
        </extensions>
      </trkpt>
      <trkpt lat="43.83138122968375682830810546875" lon="4.257381856441497802734375">
        <ele>175.399993896484375</ele>
        <time>2024-01-27T10:22:08.000Z</time>
        <extensions>
          <ns3:TrackPointExtension>
            <ns3:hr>173</ns3:hr>
            <ns3:cad>93</ns3:cad>
          </ns3:TrackPointExtension>
        </extensions>
      </trkpt>
      <trkpt lat="43.83137159049510955810546875" lon="4.25741479732096195220947265625">
        <ele>175.1999969482421875</ele>
        <time>2024-01-27T10:22:09.000Z</time>
        <extensions>
          <ns3:TrackPointExtension>
            <ns3:hr>173</ns3:hr>
            <ns3:cad>93</ns3:cad>
          </ns3:TrackPointExtension>
        </extensions>
      </trkpt>
      <trkpt lat="43.83136547170579433441162109375" lon="4.257448576390743255615234375">
        <ele>175</ele>
        <time>2024-01-27T10:22:10.000Z</time>
        <extensions>
          <ns3:TrackPointExtension>
            <ns3:hr>173</ns3:hr>
            <ns3:cad>92</ns3:cad>
          </ns3:TrackPointExtension>
        </extensions>
      </trkpt>
      <trkpt lat="43.831357844173908233642578125" lon="4.25748310983180999755859375">
        <ele>175</ele>
        <time>2024-01-27T10:22:11.000Z</time>
        <extensions>
          <ns3:TrackPointExtension>
            <ns3:hr>172</ns3:hr>
            <ns3:cad>92</ns3:cad>
          </ns3:TrackPointExtension>
        </extensions>
      </trkpt>
      <trkpt lat="43.831352479755878448486328125" lon="4.25751797854900360107421875">
        <ele>174.8000030517578125</ele>
        <time>2024-01-27T10:22:12.000Z</time>
        <extensions>
          <ns3:TrackPointExtension>
            <ns3:hr>171</ns3:hr>
            <ns3:cad>92</ns3:cad>
          </ns3:TrackPointExtension>
        </extensions>
      </trkpt>
      <trkpt lat="43.831343092024326324462890625" lon="4.25755494274199008941650390625">
        <ele>174.600006103515625</ele>
        <time>2024-01-27T10:22:13.000Z</time>
        <extensions>
          <ns3:TrackPointExtension>
            <ns3:hr>171</ns3:hr>
            <ns3:cad>92</ns3:cad>
          </ns3:TrackPointExtension>
        </extensions>
      </trkpt>
      <trkpt lat="43.8313345424830913543701171875" lon="4.25759282894432544708251953125">
        <ele>174.600006103515625</ele>
        <time>2024-01-27T10:22:14.000Z</time>
        <extensions>
          <ns3:TrackPointExtension>
            <ns3:hr>171</ns3:hr>
            <ns3:cad>93</ns3:cad>
          </ns3:TrackPointExtension>
        </extensions>
      </trkpt>
      <trkpt lat="43.83133026771247386932373046875" lon="4.25762434490025043487548828125">
        <ele>174.399993896484375</ele>
        <time>2024-01-27T10:22:15.000Z</time>
        <extensions>
          <ns3:TrackPointExtension>
            <ns3:hr>171</ns3:hr>
            <ns3:cad>93</ns3:cad>
          </ns3:TrackPointExtension>
        </extensions>
      </trkpt>
      <trkpt lat="43.831322304904460906982421875" lon="4.25766524858772754669189453125">
        <ele>174.399993896484375</ele>
        <time>2024-01-27T10:22:16.000Z</time>
        <extensions>
          <ns3:TrackPointExtension>
            <ns3:hr>170</ns3:hr>
            <ns3:cad>93</ns3:cad>
          </ns3:TrackPointExtension>
        </extensions>
      </trkpt>
      <trkpt lat="43.83132054470479488372802734375" lon="4.25770028494298458099365234375">
        <ele>174.399993896484375</ele>
        <time>2024-01-27T10:22:17.000Z</time>
        <extensions>
          <ns3:TrackPointExtension>
            <ns3:hr>170</ns3:hr>
            <ns3:cad>92</ns3:cad>
          </ns3:TrackPointExtension>
        </extensions>
      </trkpt>
      <trkpt lat="43.8313137553632259368896484375" lon="4.25773766823112964630126953125">
        <ele>174.1999969482421875</ele>
        <time>2024-01-27T10:22:18.000Z</time>
        <extensions>
          <ns3:TrackPointExtension>
            <ns3:hr>170</ns3:hr>
            <ns3:cad>92</ns3:cad>
          </ns3:TrackPointExtension>
        </extensions>
      </trkpt>
      <trkpt lat="43.83130998350679874420166015625" lon="4.2577722854912281036376953125">
        <ele>174.1999969482421875</ele>
        <time>2024-01-27T10:22:19.000Z</time>
        <extensions>
          <ns3:TrackPointExtension>
            <ns3:hr>170</ns3:hr>
            <ns3:cad>92</ns3:cad>
          </ns3:TrackPointExtension>
        </extensions>
      </trkpt>
      <trkpt lat="43.83130243979394435882568359375" lon="4.2578058131039142608642578125">
        <ele>174</ele>
        <time>2024-01-27T10:22:20.000Z</time>
        <extensions>
          <ns3:TrackPointExtension>
            <ns3:hr>170</ns3:hr>
            <ns3:cad>92</ns3:cad>
          </ns3:TrackPointExtension>
        </extensions>
      </trkpt>
      <trkpt lat="43.8313016854226589202880859375" lon="4.25783992744982242584228515625">
        <ele>174</ele>
        <time>2024-01-27T10:22:21.000Z</time>
        <extensions>
          <ns3:TrackPointExtension>
            <ns3:hr>170</ns3:hr>
            <ns3:cad>92</ns3:cad>
          </ns3:TrackPointExtension>
        </extensions>
      </trkpt>
      <trkpt lat="43.83129757829010486602783203125" lon="4.2578732036054134368896484375">
        <ele>173.8000030517578125</ele>
        <time>2024-01-27T10:22:22.000Z</time>
        <extensions>
          <ns3:TrackPointExtension>
            <ns3:hr>169</ns3:hr>
            <ns3:cad>93</ns3:cad>
          </ns3:TrackPointExtension>
        </extensions>
      </trkpt>
      <trkpt lat="43.83129271678626537322998046875" lon="4.25791083835065364837646484375">
        <ele>173.8000030517578125</ele>
        <time>2024-01-27T10:22:23.000Z</time>
        <extensions>
          <ns3:TrackPointExtension>
            <ns3:hr>169</ns3:hr>
            <ns3:cad>93</ns3:cad>
          </ns3:TrackPointExtension>
        </extensions>
      </trkpt>
      <trkpt lat="43.83128919638693332672119140625" lon="4.25794436596333980560302734375">
        <ele>173.600006103515625</ele>
        <time>2024-01-27T10:22:24.000Z</time>
        <extensions>
          <ns3:TrackPointExtension>
            <ns3:hr>169</ns3:hr>
            <ns3:cad>92</ns3:cad>
          </ns3:TrackPointExtension>
        </extensions>
      </trkpt>
      <trkpt lat="43.83128467015922069549560546875" lon="4.257987029850482940673828125">
        <ele>173.399993896484375</ele>
        <time>2024-01-27T10:22:25.000Z</time>
        <extensions>
          <ns3:TrackPointExtension>
            <ns3:hr>169</ns3:hr>
            <ns3:cad>92</ns3:cad>
          </ns3:TrackPointExtension>
        </extensions>
      </trkpt>
      <trkpt lat="43.83128416724503040313720703125" lon="4.25801821053028106689453125">
        <ele>173.399993896484375</ele>
        <time>2024-01-27T10:22:26.000Z</time>
        <extensions>
          <ns3:TrackPointExtension>
            <ns3:hr>169</ns3:hr>
            <ns3:cad>92</ns3:cad>
          </ns3:TrackPointExtension>
        </extensions>
      </trkpt>
      <trkpt lat="43.83127796463668346405029296875" lon="4.25805299542844295501708984375">
        <ele>173.1999969482421875</ele>
        <time>2024-01-27T10:22:27.000Z</time>
        <extensions>
          <ns3:TrackPointExtension>
            <ns3:hr>169</ns3:hr>
            <ns3:cad>92</ns3:cad>
          </ns3:TrackPointExtension>
        </extensions>
      </trkpt>
      <trkpt lat="43.83127746172249317169189453125" lon="4.2580817453563213348388671875">
        <ele>173.1999969482421875</ele>
        <time>2024-01-27T10:22:28.000Z</time>
        <extensions>
          <ns3:TrackPointExtension>
            <ns3:hr>169</ns3:hr>
            <ns3:cad>93</ns3:cad>
          </ns3:TrackPointExtension>
        </extensions>
      </trkpt>
      <trkpt lat="43.83127444423735141754150390625" lon="4.2581169493496417999267578125">
        <ele>173.1999969482421875</ele>
        <time>2024-01-27T10:22:29.000Z</time>
        <extensions>
          <ns3:TrackPointExtension>
            <ns3:hr>169</ns3:hr>
            <ns3:cad>93</ns3:cad>
          </ns3:TrackPointExtension>
        </extensions>
      </trkpt>
      <trkpt lat="43.83127125911414623260498046875" lon="4.25815223716199398040771484375">
        <ele>173</ele>
        <time>2024-01-27T10:22:30.000Z</time>
        <extensions>
          <ns3:TrackPointExtension>
            <ns3:hr>169</ns3:hr>
            <ns3:cad>93</ns3:cad>
          </ns3:TrackPointExtension>
        </extensions>
      </trkpt>
      <trkpt lat="43.83126673288643360137939453125" lon="4.25818945281207561492919921875">
        <ele>173</ele>
        <time>2024-01-27T10:22:31.000Z</time>
        <extensions>
          <ns3:TrackPointExtension>
            <ns3:hr>169</ns3:hr>
            <ns3:cad>93</ns3:cad>
          </ns3:TrackPointExtension>
        </extensions>
      </trkpt>
      <trkpt lat="43.83126505650579929351806640625" lon="4.25822616554796695709228515625">
        <ele>173</ele>
        <time>2024-01-27T10:22:32.000Z</time>
        <extensions>
          <ns3:TrackPointExtension>
            <ns3:hr>169</ns3:hr>
            <ns3:cad>93</ns3:cad>
          </ns3:TrackPointExtension>
        </extensions>
      </trkpt>
      <trkpt lat="43.83126455359160900115966796875" lon="4.2582577653229236602783203125">
        <ele>172.8000030517578125</ele>
        <time>2024-01-27T10:22:33.000Z</time>
        <extensions>
          <ns3:TrackPointExtension>
            <ns3:hr>169</ns3:hr>
            <ns3:cad>93</ns3:cad>
          </ns3:TrackPointExtension>
        </extensions>
      </trkpt>
      <trkpt lat="43.83126287721097469329833984375" lon="4.2582963220775127410888671875">
        <ele>172.600006103515625</ele>
        <time>2024-01-27T10:22:34.000Z</time>
        <extensions>
          <ns3:TrackPointExtension>
            <ns3:hr>169</ns3:hr>
            <ns3:cad>93</ns3:cad>
          </ns3:TrackPointExtension>
        </extensions>
      </trkpt>
      <trkpt lat="43.831261955201625823974609375" lon="4.2583275027573108673095703125">
        <ele>172.600006103515625</ele>
        <time>2024-01-27T10:22:35.000Z</time>
        <extensions>
          <ns3:TrackPointExtension>
            <ns3:hr>169</ns3:hr>
            <ns3:cad>92</ns3:cad>
          </ns3:TrackPointExtension>
        </extensions>
      </trkpt>
      <trkpt lat="43.83125902153551578521728515625" lon="4.25836865790188312530517578125">
        <ele>172.399993896484375</ele>
        <time>2024-01-27T10:22:36.000Z</time>
        <extensions>
          <ns3:TrackPointExtension>
            <ns3:hr>169</ns3:hr>
            <ns3:cad>92</ns3:cad>
          </ns3:TrackPointExtension>
        </extensions>
      </trkpt>
      <trkpt lat="43.83125650696456432342529296875" lon="4.25840419717133045196533203125">
        <ele>172.399993896484375</ele>
        <time>2024-01-27T10:22:37.000Z</time>
        <extensions>
          <ns3:TrackPointExtension>
            <ns3:hr>169</ns3:hr>
            <ns3:cad>92</ns3:cad>
          </ns3:TrackPointExtension>
        </extensions>
      </trkpt>
      <trkpt lat="43.83125432766973972320556640625" lon="4.25844199955463409423828125">
        <ele>172.1999969482421875</ele>
        <time>2024-01-27T10:22:38.000Z</time>
        <extensions>
          <ns3:TrackPointExtension>
            <ns3:hr>168</ns3:hr>
            <ns3:cad>94</ns3:cad>
          </ns3:TrackPointExtension>
        </extensions>
      </trkpt>
      <trkpt lat="43.83125483058393001556396484375" lon="4.25847309641540050506591796875">
        <ele>172.1999969482421875</ele>
        <time>2024-01-27T10:22:39.000Z</time>
        <extensions>
          <ns3:TrackPointExtension>
            <ns3:hr>168</ns3:hr>
            <ns3:cad>94</ns3:cad>
          </ns3:TrackPointExtension>
        </extensions>
      </trkpt>
      <trkpt lat="43.83125181309878826141357421875" lon="4.25851400010287761688232421875">
        <ele>172</ele>
        <time>2024-01-27T10:22:40.000Z</time>
        <extensions>
          <ns3:TrackPointExtension>
            <ns3:hr>168</ns3:hr>
            <ns3:cad>93</ns3:cad>
          </ns3:TrackPointExtension>
        </extensions>
      </trkpt>
      <trkpt lat="43.8312502205371856689453125" lon="4.25854451023042201995849609375">
        <ele>171.8000030517578125</ele>
        <time>2024-01-27T10:22:41.000Z</time>
        <extensions>
          <ns3:TrackPointExtension>
            <ns3:hr>168</ns3:hr>
            <ns3:cad>93</ns3:cad>
          </ns3:TrackPointExtension>
        </extensions>
      </trkpt>
      <trkpt lat="43.8312460295855998992919921875" lon="4.258577786386013031005859375">
        <ele>171.600006103515625</ele>
        <time>2024-01-27T10:22:42.000Z</time>
        <extensions>
          <ns3:TrackPointExtension>
            <ns3:hr>168</ns3:hr>
            <ns3:cad>93</ns3:cad>
          </ns3:TrackPointExtension>
        </extensions>
      </trkpt>
      <trkpt lat="43.8312453590333461761474609375" lon="4.258611984550952911376953125">
        <ele>171.399993896484375</ele>
        <time>2024-01-27T10:22:43.000Z</time>
        <extensions>
          <ns3:TrackPointExtension>
            <ns3:hr>168</ns3:hr>
            <ns3:cad>93</ns3:cad>
          </ns3:TrackPointExtension>
        </extensions>
      </trkpt>
      <trkpt lat="43.83124292828142642974853515625" lon="4.25864676944911479949951171875">
        <ele>171.399993896484375</ele>
        <time>2024-01-27T10:22:44.000Z</time>
        <extensions>
          <ns3:TrackPointExtension>
            <ns3:hr>167</ns3:hr>
            <ns3:cad>93</ns3:cad>
          </ns3:TrackPointExtension>
        </extensions>
      </trkpt>
      <trkpt lat="43.831244520843029022216796875" lon="4.25868364982306957244873046875">
        <ele>171.399993896484375</ele>
        <time>2024-01-27T10:22:45.000Z</time>
        <extensions>
          <ns3:TrackPointExtension>
            <ns3:hr>167</ns3:hr>
            <ns3:cad>93</ns3:cad>
          </ns3:TrackPointExtension>
        </extensions>
      </trkpt>
      <trkpt lat="43.8312446884810924530029296875" lon="4.25871717743575572967529296875">
        <ele>171.1999969482421875</ele>
        <time>2024-01-27T10:22:46.000Z</time>
        <extensions>
          <ns3:TrackPointExtension>
            <ns3:hr>167</ns3:hr>
            <ns3:cad>92</ns3:cad>
          </ns3:TrackPointExtension>
        </extensions>
      </trkpt>
      <trkpt lat="43.831249885261058807373046875" lon="4.25875724293291568756103515625">
        <ele>171.1999969482421875</ele>
        <time>2024-01-27T10:22:47.000Z</time>
        <extensions>
          <ns3:TrackPointExtension>
            <ns3:hr>167</ns3:hr>
            <ns3:cad>92</ns3:cad>
          </ns3:TrackPointExtension>
        </extensions>
      </trkpt>
      <trkpt lat="43.83125348947942256927490234375" lon="4.25878842361271381378173828125">
        <ele>171.1999969482421875</ele>
        <time>2024-01-27T10:22:48.000Z</time>
        <extensions>
          <ns3:TrackPointExtension>
            <ns3:hr>167</ns3:hr>
            <ns3:cad>92</ns3:cad>
          </ns3:TrackPointExtension>
        </extensions>
      </trkpt>
      <trkpt lat="43.831264637410640716552734375" lon="4.25882312469184398651123046875">
        <ele>171.1999969482421875</ele>
        <time>2024-01-27T10:22:49.000Z</time>
        <extensions>
          <ns3:TrackPointExtension>
            <ns3:hr>167</ns3:hr>
            <ns3:cad>92</ns3:cad>
          </ns3:TrackPointExtension>
        </extensions>
      </trkpt>
      <trkpt lat="43.831272013485431671142578125" lon="4.25885397009551525115966796875">
        <ele>171</ele>
        <time>2024-01-27T10:22:50.000Z</time>
        <extensions>
          <ns3:TrackPointExtension>
            <ns3:hr>166</ns3:hr>
            <ns3:cad>92</ns3:cad>
          </ns3:TrackPointExtension>
        </extensions>
      </trkpt>
      <trkpt lat="43.831278383731842041015625" lon="4.25888833589851856231689453125">
        <ele>170.8000030517578125</ele>
        <time>2024-01-27T10:22:51.000Z</time>
        <extensions>
          <ns3:TrackPointExtension>
            <ns3:hr>166</ns3:hr>
            <ns3:cad>92</ns3:cad>
          </ns3:TrackPointExtension>
        </extensions>
      </trkpt>
      <trkpt lat="43.83128131739795207977294921875" lon="4.25891809165477752685546875">
        <ele>170.600006103515625</ele>
        <time>2024-01-27T10:22:52.000Z</time>
        <extensions>
          <ns3:TrackPointExtension>
            <ns3:hr>165</ns3:hr>
            <ns3:cad>91</ns3:cad>
          </ns3:TrackPointExtension>
        </extensions>
      </trkpt>
      <trkpt lat="43.83128467015922069549560546875" lon="4.2589554749429225921630859375">
        <ele>170.600006103515625</ele>
        <time>2024-01-27T10:22:53.000Z</time>
        <extensions>
          <ns3:TrackPointExtension>
            <ns3:hr>165</ns3:hr>
            <ns3:cad>90</ns3:cad>
          </ns3:TrackPointExtension>
        </extensions>
      </trkpt>
      <trkpt lat="43.83128643035888671875" lon="4.25898489542305469512939453125">
        <ele>170.600006103515625</ele>
        <time>2024-01-27T10:22:54.000Z</time>
        <extensions>
          <ns3:TrackPointExtension>
            <ns3:hr>165</ns3:hr>
            <ns3:cad>90</ns3:cad>
          </ns3:TrackPointExtension>
        </extensions>
      </trkpt>
      <trkpt lat="43.83128835819661617279052734375" lon="4.25901599228382110595703125">
        <ele>170.399993896484375</ele>
        <time>2024-01-27T10:22:55.000Z</time>
        <extensions>
          <ns3:TrackPointExtension>
            <ns3:hr>165</ns3:hr>
            <ns3:cad>89</ns3:cad>
          </ns3:TrackPointExtension>
        </extensions>
      </trkpt>
      <trkpt lat="43.8312865979969501495361328125" lon="4.259049855172634124755859375">
        <ele>170.1999969482421875</ele>
        <time>2024-01-27T10:22:56.000Z</time>
        <extensions>
          <ns3:TrackPointExtension>
            <ns3:hr>164</ns3:hr>
            <ns3:cad>89</ns3:cad>
          </ns3:TrackPointExtension>
        </extensions>
      </trkpt>
      <trkpt lat="43.83128316141664981842041015625" lon="4.2590855620801448822021484375">
        <ele>170</ele>
        <time>2024-01-27T10:22:57.000Z</time>
        <extensions>
          <ns3:TrackPointExtension>
            <ns3:hr>164</ns3:hr>
            <ns3:cad>89</ns3:cad>
          </ns3:TrackPointExtension>
        </extensions>
      </trkpt>
      <trkpt lat="43.83127762936055660247802734375" lon="4.25911213271319866180419921875">
        <ele>169.8000030517578125</ele>
        <time>2024-01-27T10:22:58.000Z</time>
        <extensions>
          <ns3:TrackPointExtension>
            <ns3:hr>164</ns3:hr>
            <ns3:cad>89</ns3:cad>
          </ns3:TrackPointExtension>
        </extensions>
      </trkpt>
      <trkpt lat="43.8312705047428607940673828125" lon="4.25914448685944080352783203125">
        <ele>169.600006103515625</ele>
        <time>2024-01-27T10:22:59.000Z</time>
        <extensions>
          <ns3:TrackPointExtension>
            <ns3:hr>164</ns3:hr>
            <ns3:cad>89</ns3:cad>
          </ns3:TrackPointExtension>
        </extensions>
      </trkpt>
      <trkpt lat="43.83125851862132549285888671875" lon="4.2591687105596065521240234375">
        <ele>169.399993896484375</ele>
        <time>2024-01-27T10:23:00.000Z</time>
        <extensions>
          <ns3:TrackPointExtension>
            <ns3:hr>164</ns3:hr>
            <ns3:cad>89</ns3:cad>
          </ns3:TrackPointExtension>
        </extensions>
      </trkpt>
      <trkpt lat="43.831246197223663330078125" lon="4.25919980742037296295166015625">
        <ele>169.399993896484375</ele>
        <time>2024-01-27T10:23:01.000Z</time>
        <extensions>
          <ns3:TrackPointExtension>
            <ns3:hr>164</ns3:hr>
            <ns3:cad>88</ns3:cad>
          </ns3:TrackPointExtension>
        </extensions>
      </trkpt>
      <trkpt lat="43.8312306068837642669677734375" lon="4.2592233605682849884033203125">
        <ele>169.1999969482421875</ele>
        <time>2024-01-27T10:23:02.000Z</time>
        <extensions>
          <ns3:TrackPointExtension>
            <ns3:hr>164</ns3:hr>
            <ns3:cad>88</ns3:cad>
          </ns3:TrackPointExtension>
        </extensions>
      </trkpt>
      <trkpt lat="43.83120789192616939544677734375" lon="4.259251691401004791259765625">
        <ele>169</ele>
        <time>2024-01-27T10:23:03.000Z</time>
        <extensions>
          <ns3:TrackPointExtension>
            <ns3:hr>164</ns3:hr>
            <ns3:cad>88</ns3:cad>
          </ns3:TrackPointExtension>
        </extensions>
      </trkpt>
      <trkpt lat="43.831181824207305908203125" lon="4.25927658565342426300048828125">
        <ele>168.600006103515625</ele>
        <time>2024-01-27T10:23:04.000Z</time>
        <extensions>
          <ns3:TrackPointExtension>
            <ns3:hr>164</ns3:hr>
            <ns3:cad>88</ns3:cad>
          </ns3:TrackPointExtension>
        </extensions>
      </trkpt>
      <trkpt lat="43.8311635516583919525146484375" lon="4.25930541940033435821533203125">
        <ele>168.600006103515625</ele>
        <time>2024-01-27T10:23:05.000Z</time>
        <extensions>
          <ns3:TrackPointExtension>
            <ns3:hr>164</ns3:hr>
            <ns3:cad>88</ns3:cad>
          </ns3:TrackPointExtension>
        </extensions>
      </trkpt>
      <trkpt lat="43.8311451114714145660400390625" lon="4.25933207385241985321044921875">
        <ele>168.1999969482421875</ele>
        <time>2024-01-27T10:23:06.000Z</time>
        <extensions>
          <ns3:TrackPointExtension>
            <ns3:hr>164</ns3:hr>
            <ns3:cad>88</ns3:cad>
          </ns3:TrackPointExtension>
        </extensions>
      </trkpt>
      <trkpt lat="43.8311363942921161651611328125" lon="4.25936400890350341796875">
        <ele>167.8000030517578125</ele>
        <time>2024-01-27T10:23:07.000Z</time>
        <extensions>
          <ns3:TrackPointExtension>
            <ns3:hr>164</ns3:hr>
            <ns3:cad>88</ns3:cad>
          </ns3:TrackPointExtension>
        </extensions>
      </trkpt>
      <trkpt lat="43.831126503646373748779296875" lon="4.25940491259098052978515625">
        <ele>167.600006103515625</ele>
        <time>2024-01-27T10:23:08.000Z</time>
        <extensions>
          <ns3:TrackPointExtension>
            <ns3:hr>163</ns3:hr>
            <ns3:cad>88</ns3:cad>
          </ns3:TrackPointExtension>
        </extensions>
      </trkpt>
      <trkpt lat="43.83112658746540546417236328125" lon="4.25944338552653789520263671875">
        <ele>167.1999969482421875</ele>
        <time>2024-01-27T10:23:09.000Z</time>
        <extensions>
          <ns3:TrackPointExtension>
            <ns3:hr>163</ns3:hr>
            <ns3:cad>88</ns3:cad>
          </ns3:TrackPointExtension>
        </extensions>
      </trkpt>
      <trkpt lat="43.83112675510346889495849609375" lon="4.2594865523278713226318359375">
        <ele>167.1999969482421875</ele>
        <time>2024-01-27T10:23:10.000Z</time>
        <extensions>
          <ns3:TrackPointExtension>
            <ns3:hr>163</ns3:hr>
            <ns3:cad>87</ns3:cad>
          </ns3:TrackPointExtension>
        </extensions>
      </trkpt>
      <trkpt lat="43.83113094605505466461181640625" lon="4.25952158868312835693359375">
        <ele>166.600006103515625</ele>
        <time>2024-01-27T10:23:11.000Z</time>
        <extensions>
          <ns3:TrackPointExtension>
            <ns3:hr>162</ns3:hr>
            <ns3:cad>87</ns3:cad>
          </ns3:TrackPointExtension>
        </extensions>
      </trkpt>
      <trkpt lat="43.83113647811114788055419921875" lon="4.25955838523805141448974609375">
        <ele>166.1999969482421875</ele>
        <time>2024-01-27T10:23:12.000Z</time>
        <extensions>
          <ns3:TrackPointExtension>
            <ns3:hr>162</ns3:hr>
            <ns3:cad>88</ns3:cad>
          </ns3:TrackPointExtension>
        </extensions>
      </trkpt>
      <trkpt lat="43.8311461172997951507568359375" lon="4.259586967527866363525390625">
        <ele>166</ele>
        <time>2024-01-27T10:23:13.000Z</time>
        <extensions>
          <ns3:TrackPointExtension>
            <ns3:hr>161</ns3:hr>
            <ns3:cad>88</ns3:cad>
          </ns3:TrackPointExtension>
        </extensions>
      </trkpt>
      <trkpt lat="43.83115894161164760589599609375" lon="4.25961823202669620513916015625">
        <ele>165.399993896484375</ele>
        <time>2024-01-27T10:23:14.000Z</time>
        <extensions>
          <ns3:TrackPointExtension>
            <ns3:hr>161</ns3:hr>
            <ns3:cad>88</ns3:cad>
          </ns3:TrackPointExtension>
        </extensions>
      </trkpt>
      <trkpt lat="43.83117252029478549957275390625" lon="4.2596442997455596923828125">
        <ele>165.1999969482421875</ele>
        <time>2024-01-27T10:23:15.000Z</time>
        <extensions>
          <ns3:TrackPointExtension>
            <ns3:hr>161</ns3:hr>
            <ns3:cad>88</ns3:cad>
          </ns3:TrackPointExtension>
        </extensions>
      </trkpt>
      <trkpt lat="43.8311937265098094940185546875" lon="4.25967388786375522613525390625">
        <ele>165.1999969482421875</ele>
        <time>2024-01-27T10:23:16.000Z</time>
        <extensions>
          <ns3:TrackPointExtension>
            <ns3:hr>161</ns3:hr>
            <ns3:cad>87</ns3:cad>
          </ns3:TrackPointExtension>
        </extensions>
      </trkpt>
      <trkpt lat="43.831214345991611480712890625" lon="4.25970154814422130584716796875">
        <ele>164.600006103515625</ele>
        <time>2024-01-27T10:23:17.000Z</time>
        <extensions>
          <ns3:TrackPointExtension>
            <ns3:hr>162</ns3:hr>
            <ns3:cad>87</ns3:cad>
          </ns3:TrackPointExtension>
        </extensions>
      </trkpt>
      <trkpt lat="43.831244520843029022216796875" lon="4.25971847958862781524658203125">
        <ele>164.399993896484375</ele>
        <time>2024-01-27T10:23:18.000Z</time>
        <extensions>
          <ns3:TrackPointExtension>
            <ns3:hr>162</ns3:hr>
            <ns3:cad>87</ns3:cad>
          </ns3:TrackPointExtension>
        </extensions>
      </trkpt>
      <trkpt lat="43.8312708400189876556396484375" lon="4.25973591394722461700439453125">
        <ele>164.1999969482421875</ele>
        <time>2024-01-27T10:23:19.000Z</time>
        <extensions>
          <ns3:TrackPointExtension>
            <ns3:hr>162</ns3:hr>
            <ns3:cad>87</ns3:cad>
          </ns3:TrackPointExtension>
        </extensions>
      </trkpt>
      <trkpt lat="43.83129925467073917388916015625" lon="4.2597510851919651031494140625">
        <ele>164</ele>
        <time>2024-01-27T10:23:20.000Z</time>
        <extensions>
          <ns3:TrackPointExtension>
            <ns3:hr>162</ns3:hr>
            <ns3:cad>88</ns3:cad>
          </ns3:TrackPointExtension>
        </extensions>
      </trkpt>
      <trkpt lat="43.8313248194754123687744140625" lon="4.25976625643670558929443359375">
        <ele>163.600006103515625</ele>
        <time>2024-01-27T10:23:21.000Z</time>
        <extensions>
          <ns3:TrackPointExtension>
            <ns3:hr>162</ns3:hr>
            <ns3:cad>88</ns3:cad>
          </ns3:TrackPointExtension>
        </extensions>
      </trkpt>
      <trkpt lat="43.83135038428008556365966796875" lon="4.25977631472051143646240234375">
        <ele>163.1999969482421875</ele>
        <time>2024-01-27T10:23:22.000Z</time>
        <extensions>
          <ns3:TrackPointExtension>
            <ns3:hr>162</ns3:hr>
            <ns3:cad>88</ns3:cad>
          </ns3:TrackPointExtension>
        </extensions>
      </trkpt>
      <trkpt lat="43.8313757814466953277587890625" lon="4.25978318788111209869384765625">
        <ele>162.8000030517578125</ele>
        <time>2024-01-27T10:23:23.000Z</time>
        <extensions>
          <ns3:TrackPointExtension>
            <ns3:hr>162</ns3:hr>
            <ns3:cad>88</ns3:cad>
          </ns3:TrackPointExtension>
        </extensions>
      </trkpt>
      <trkpt lat="43.83140251971781253814697265625" lon="4.25978855229914188385009765625">
        <ele>162.600006103515625</ele>
        <time>2024-01-27T10:23:24.000Z</time>
        <extensions>
          <ns3:TrackPointExtension>
            <ns3:hr>162</ns3:hr>
            <ns3:cad>88</ns3:cad>
          </ns3:TrackPointExtension>
        </extensions>
      </trkpt>
      <trkpt lat="43.8314299285411834716796875" lon="4.259795509278774261474609375">
        <ele>162.399993896484375</ele>
        <time>2024-01-27T10:23:25.000Z</time>
        <extensions>
          <ns3:TrackPointExtension>
            <ns3:hr>162</ns3:hr>
            <ns3:cad>88</ns3:cad>
          </ns3:TrackPointExtension>
        </extensions>
      </trkpt>
      <trkpt lat="43.8314542360603809356689453125" lon="4.2597973532974720001220703125">
        <ele>162.1999969482421875</ele>
        <time>2024-01-27T10:23:26.000Z</time>
        <extensions>
          <ns3:TrackPointExtension>
            <ns3:hr>162</ns3:hr>
            <ns3:cad>88</ns3:cad>
          </ns3:TrackPointExtension>
        </extensions>
      </trkpt>
      <trkpt lat="43.8314800523221492767333984375" lon="4.2598040588200092315673828125">
        <ele>162.1999969482421875</ele>
        <time>2024-01-27T10:23:27.000Z</time>
        <extensions>
          <ns3:TrackPointExtension>
            <ns3:hr>163</ns3:hr>
            <ns3:cad>87</ns3:cad>
          </ns3:TrackPointExtension>
        </extensions>
      </trkpt>
      <trkpt lat="43.831505365669727325439453125" lon="4.2598092555999755859375">
        <ele>161.600006103515625</ele>
        <time>2024-01-27T10:23:28.000Z</time>
        <extensions>
          <ns3:TrackPointExtension>
            <ns3:hr>163</ns3:hr>
            <ns3:cad>87</ns3:cad>
          </ns3:TrackPointExtension>
        </extensions>
      </trkpt>
      <trkpt lat="43.83153118193149566650390625" lon="4.25981772132217884063720703125">
        <ele>161.1999969482421875</ele>
        <time>2024-01-27T10:23:29.000Z</time>
        <extensions>
          <ns3:TrackPointExtension>
            <ns3:hr>163</ns3:hr>
            <ns3:cad>88</ns3:cad>
          </ns3:TrackPointExtension>
        </extensions>
      </trkpt>
      <trkpt lat="43.8315554894506931304931640625" lon="4.25981998443603515625">
        <ele>161</ele>
        <time>2024-01-27T10:23:30.000Z</time>
        <extensions>
          <ns3:TrackPointExtension>
            <ns3:hr>163</ns3:hr>
            <ns3:cad>88</ns3:cad>
          </ns3:TrackPointExtension>
        </extensions>
      </trkpt>
      <trkpt lat="43.83158323355019092559814453125" lon="4.2598349042236804962158203125">
        <ele>160.8000030517578125</ele>
        <time>2024-01-27T10:23:31.000Z</time>
        <extensions>
          <ns3:TrackPointExtension>
            <ns3:hr>163</ns3:hr>
            <ns3:cad>89</ns3:cad>
          </ns3:TrackPointExtension>
        </extensions>
      </trkpt>
      <trkpt lat="43.83160636760294437408447265625" lon="4.25984169356524944305419921875">
        <ele>160.600006103515625</ele>
        <time>2024-01-27T10:23:32.000Z</time>
        <extensions>
          <ns3:TrackPointExtension>
            <ns3:hr>163</ns3:hr>
            <ns3:cad>89</ns3:cad>
          </ns3:TrackPointExtension>
        </extensions>
      </trkpt>
      <trkpt lat="43.83163436315953731536865234375" lon="4.259852506220340728759765625">
        <ele>160.600006103515625</ele>
        <time>2024-01-27T10:23:33.000Z</time>
        <extensions>
          <ns3:TrackPointExtension>
            <ns3:hr>163</ns3:hr>
            <ns3:cad>88</ns3:cad>
          </ns3:TrackPointExtension>
        </extensions>
      </trkpt>
      <trkpt lat="43.8316574133932590484619140625" lon="4.25986097194254398345947265625">
        <ele>160.399993896484375</ele>
        <time>2024-01-27T10:23:34.000Z</time>
        <extensions>
          <ns3:TrackPointExtension>
            <ns3:hr>163</ns3:hr>
            <ns3:cad>88</ns3:cad>
          </ns3:TrackPointExtension>
        </extensions>
      </trkpt>
      <trkpt lat="43.831683062016963958740234375" lon="4.25987119786441326141357421875">
        <ele>159.399993896484375</ele>
        <time>2024-01-27T10:23:35.000Z</time>
        <extensions>
          <ns3:TrackPointExtension>
            <ns3:hr>163</ns3:hr>
            <ns3:cad>87</ns3:cad>
          </ns3:TrackPointExtension>
        </extensions>
      </trkpt>
      <trkpt lat="43.8317043520510196685791015625" lon="4.259882681071758270263671875">
        <ele>159.1999969482421875</ele>
        <time>2024-01-27T10:23:36.000Z</time>
        <extensions>
          <ns3:TrackPointExtension>
            <ns3:hr>163</ns3:hr>
            <ns3:cad>87</ns3:cad>
          </ns3:TrackPointExtension>
        </extensions>
      </trkpt>
      <trkpt lat="43.83172698318958282470703125" lon="4.25989533774554729461669921875">
        <ele>159</ele>
        <time>2024-01-27T10:23:37.000Z</time>
        <extensions>
          <ns3:TrackPointExtension>
            <ns3:hr>163</ns3:hr>
            <ns3:cad>87</ns3:cad>
          </ns3:TrackPointExtension>
        </extensions>
      </trkpt>
      <trkpt lat="43.831750787794589996337890625" lon="4.2599125206470489501953125">
        <ele>158.8000030517578125</ele>
        <time>2024-01-27T10:23:38.000Z</time>
        <extensions>
          <ns3:TrackPointExtension>
            <ns3:hr>163</ns3:hr>
            <ns3:cad>87</ns3:cad>
          </ns3:TrackPointExtension>
        </extensions>
      </trkpt>
      <trkpt lat="43.83177484385669231414794921875" lon="4.25992534495890140533447265625">
        <ele>158.600006103515625</ele>
        <time>2024-01-27T10:23:39.000Z</time>
        <extensions>
          <ns3:TrackPointExtension>
            <ns3:hr>163</ns3:hr>
            <ns3:cad>87</ns3:cad>
          </ns3:TrackPointExtension>
        </extensions>
      </trkpt>
      <trkpt lat="43.8318009115755558013916015625" lon="4.2599452100694179534912109375">
        <ele>158.1999969482421875</ele>
        <time>2024-01-27T10:23:40.000Z</time>
        <extensions>
          <ns3:TrackPointExtension>
            <ns3:hr>163</ns3:hr>
            <ns3:cad>87</ns3:cad>
          </ns3:TrackPointExtension>
        </extensions>
      </trkpt>
      <trkpt lat="43.83182446472346782684326171875" lon="4.259960465133190155029296875">
        <ele>158</ele>
        <time>2024-01-27T10:23:41.000Z</time>
        <extensions>
          <ns3:TrackPointExtension>
            <ns3:hr>163</ns3:hr>
            <ns3:cad>87</ns3:cad>
          </ns3:TrackPointExtension>
        </extensions>
      </trkpt>
      <trkpt lat="43.8318414799869060516357421875" lon="4.2599824257194995880126953125">
        <ele>158</ele>
        <time>2024-01-27T10:23:42.000Z</time>
        <extensions>
          <ns3:TrackPointExtension>
            <ns3:hr>163</ns3:hr>
            <ns3:cad>87</ns3:cad>
          </ns3:TrackPointExtension>
        </extensions>
      </trkpt>
      <trkpt lat="43.8318558968603610992431640625" lon="4.2600035481154918670654296875">
        <ele>157.600006103515625</ele>
        <time>2024-01-27T10:23:43.000Z</time>
        <extensions>
          <ns3:TrackPointExtension>
            <ns3:hr>163</ns3:hr>
            <ns3:cad>87</ns3:cad>
          </ns3:TrackPointExtension>
        </extensions>
      </trkpt>
      <trkpt lat="43.8318669609725475311279296875" lon="4.2600169591605663299560546875">
        <ele>157.1999969482421875</ele>
        <time>2024-01-27T10:23:44.000Z</time>
        <extensions>
          <ns3:TrackPointExtension>
            <ns3:hr>163</ns3:hr>
            <ns3:cad>87</ns3:cad>
          </ns3:TrackPointExtension>
        </extensions>
      </trkpt>
      <trkpt lat="43.83185950107872486114501953125" lon="4.2600273527204990386962890625">
        <ele>157</ele>
        <time>2024-01-27T10:23:45.000Z</time>
        <extensions>
          <ns3:TrackPointExtension>
            <ns3:hr>163</ns3:hr>
            <ns3:cad>87</ns3:cad>
          </ns3:TrackPointExtension>
        </extensions>
      </trkpt>
      <trkpt lat="43.83184877224266529083251953125" lon="4.260040260851383209228515625">
        <ele>156.600006103515625</ele>
        <time>2024-01-27T10:23:46.000Z</time>
        <extensions>
          <ns3:TrackPointExtension>
            <ns3:hr>163</ns3:hr>
            <ns3:cad>87</ns3:cad>
          </ns3:TrackPointExtension>
        </extensions>
      </trkpt>
      <trkpt lat="43.8318434916436672210693359375" lon="4.2600565217435359954833984375">
        <ele>156.399993896484375</ele>
        <time>2024-01-27T10:23:47.000Z</time>
        <extensions>
          <ns3:TrackPointExtension>
            <ns3:hr>163</ns3:hr>
            <ns3:cad>87</ns3:cad>
          </ns3:TrackPointExtension>
        </extensions>
      </trkpt>
      <trkpt lat="43.8318401388823986053466796875" lon="4.260091222822666168212890625">
        <ele>156.1999969482421875</ele>
        <time>2024-01-27T10:23:48.000Z</time>
        <extensions>
          <ns3:TrackPointExtension>
            <ns3:hr>162</ns3:hr>
            <ns3:cad>83</ns3:cad>
          </ns3:TrackPointExtension>
        </extensions>
      </trkpt>
      <trkpt lat="43.83183754049241542816162109375" lon="4.26011678762733936309814453125">
        <ele>155.600006103515625</ele>
        <time>2024-01-27T10:23:49.000Z</time>
        <extensions>
          <ns3:TrackPointExtension>
            <ns3:hr>163</ns3:hr>
            <ns3:cad>83</ns3:cad>
          </ns3:TrackPointExtension>
        </extensions>
      </trkpt>
      <trkpt lat="43.83183284662663936614990234375" lon="4.2601416818797588348388671875">
        <ele>155</ele>
        <time>2024-01-27T10:23:50.000Z</time>
        <extensions>
          <ns3:TrackPointExtension>
            <ns3:hr>163</ns3:hr>
            <ns3:cad>83</ns3:cad>
          </ns3:TrackPointExtension>
        </extensions>
      </trkpt>
      <trkpt lat="43.83182412944734096527099609375" lon="4.26016204990446567535400390625">
        <ele>154.600006103515625</ele>
        <time>2024-01-27T10:23:51.000Z</time>
        <extensions>
          <ns3:TrackPointExtension>
            <ns3:hr>163</ns3:hr>
            <ns3:cad>83</ns3:cad>
          </ns3:TrackPointExtension>
        </extensions>
      </trkpt>
      <trkpt lat="43.83181122131645679473876953125" lon="4.2601725272834300994873046875">
        <ele>154.1999969482421875</ele>
        <time>2024-01-27T10:23:52.000Z</time>
        <extensions>
          <ns3:TrackPointExtension>
            <ns3:hr>163</ns3:hr>
            <ns3:cad>83</ns3:cad>
          </ns3:TrackPointExtension>
        </extensions>
      </trkpt>
      <trkpt lat="43.831801749765872955322265625" lon="4.2601822502911090850830078125">
        <ele>153.1999969482421875</ele>
        <time>2024-01-27T10:23:53.000Z</time>
        <extensions>
          <ns3:TrackPointExtension>
            <ns3:hr>163</ns3:hr>
            <ns3:cad>83</ns3:cad>
          </ns3:TrackPointExtension>
        </extensions>
      </trkpt>
      <trkpt lat="43.8317888416349887847900390625" lon="4.26020479761064052581787109375">
        <ele>152.8000030517578125</ele>
        <time>2024-01-27T10:23:54.000Z</time>
        <extensions>
          <ns3:TrackPointExtension>
            <ns3:hr>163</ns3:hr>
            <ns3:cad>83</ns3:cad>
          </ns3:TrackPointExtension>
        </extensions>
      </trkpt>
      <trkpt lat="43.83177584968507289886474609375" lon="4.2602244950830936431884765625">
        <ele>152.399993896484375</ele>
        <time>2024-01-27T10:23:55.000Z</time>
        <extensions>
          <ns3:TrackPointExtension>
            <ns3:hr>163</ns3:hr>
            <ns3:cad>89</ns3:cad>
          </ns3:TrackPointExtension>
        </extensions>
      </trkpt>
      <trkpt lat="43.83175690658390522003173828125" lon="4.26025039516389369964599609375">
        <ele>152</ele>
        <time>2024-01-27T10:23:56.000Z</time>
        <extensions>
          <ns3:TrackPointExtension>
            <ns3:hr>163</ns3:hr>
            <ns3:cad>89</ns3:cad>
          </ns3:TrackPointExtension>
        </extensions>
      </trkpt>
      <trkpt lat="43.83174450136721134185791015625" lon="4.26026497967541217803955078125">
        <ele>151.8000030517578125</ele>
        <time>2024-01-27T10:23:57.000Z</time>
        <extensions>
          <ns3:TrackPointExtension>
            <ns3:hr>163</ns3:hr>
            <ns3:cad>87</ns3:cad>
          </ns3:TrackPointExtension>
        </extensions>
      </trkpt>
      <trkpt lat="43.83173561654984951019287109375" lon="4.260285682976245880126953125">
        <ele>151.1999969482421875</ele>
        <time>2024-01-27T10:23:58.000Z</time>
        <extensions>
          <ns3:TrackPointExtension>
            <ns3:hr>163</ns3:hr>
            <ns3:cad>87</ns3:cad>
          </ns3:TrackPointExtension>
        </extensions>
      </trkpt>
      <trkpt lat="43.83172622881829738616943359375" lon="4.260302446782588958740234375">
        <ele>151</ele>
        <time>2024-01-27T10:23:59.000Z</time>
        <extensions>
          <ns3:TrackPointExtension>
            <ns3:hr>164</ns3:hr>
            <ns3:cad>87</ns3:cad>
          </ns3:TrackPointExtension>
        </extensions>
      </trkpt>
      <trkpt lat="43.83171533234417438507080078125" lon="4.26031610928475856781005859375">
        <ele>150.600006103515625</ele>
        <time>2024-01-27T10:24:00.000Z</time>
        <extensions>
          <ns3:TrackPointExtension>
            <ns3:hr>164</ns3:hr>
            <ns3:cad>90</ns3:cad>
          </ns3:TrackPointExtension>
        </extensions>
      </trkpt>
      <trkpt lat="43.83170426823198795318603515625" lon="4.2603363096714019775390625">
        <ele>150.1999969482421875</ele>
        <time>2024-01-27T10:24:01.000Z</time>
        <extensions>
          <ns3:TrackPointExtension>
            <ns3:hr>163</ns3:hr>
            <ns3:cad>91</ns3:cad>
          </ns3:TrackPointExtension>
        </extensions>
      </trkpt>
      <trkpt lat="43.83169571869075298309326171875" lon="4.26035718061029911041259765625">
        <ele>150.1999969482421875</ele>
        <time>2024-01-27T10:24:02.000Z</time>
        <extensions>
          <ns3:TrackPointExtension>
            <ns3:hr>163</ns3:hr>
            <ns3:cad>91</ns3:cad>
          </ns3:TrackPointExtension>
        </extensions>
      </trkpt>
      <trkpt lat="43.83168750442564487457275390625" lon="4.2603733576834201812744140625">
        <ele>150</ele>
        <time>2024-01-27T10:24:03.000Z</time>
        <extensions>
          <ns3:TrackPointExtension>
            <ns3:hr>163</ns3:hr>
            <ns3:cad>91</ns3:cad>
          </ns3:TrackPointExtension>
        </extensions>
      </trkpt>
      <trkpt lat="43.83168415166437625885009765625" lon="4.26038970239460468292236328125">
        <ele>149.8000030517578125</ele>
        <time>2024-01-27T10:24:04.000Z</time>
        <extensions>
          <ns3:TrackPointExtension>
            <ns3:hr>163</ns3:hr>
            <ns3:cad>91</ns3:cad>
          </ns3:TrackPointExtension>
        </extensions>
      </trkpt>
      <trkpt lat="43.83168348111212253570556640625" lon="4.2604105733335018157958984375">
        <ele>149.1999969482421875</ele>
        <time>2024-01-27T10:24:05.000Z</time>
        <extensions>
          <ns3:TrackPointExtension>
            <ns3:hr>163</ns3:hr>
            <ns3:cad>91</ns3:cad>
          </ns3:TrackPointExtension>
        </extensions>
      </trkpt>
      <trkpt lat="43.831682391464710235595703125" lon="4.26044234074652194976806640625">
        <ele>149</ele>
        <time>2024-01-27T10:24:06.000Z</time>
        <extensions>
          <ns3:TrackPointExtension>
            <ns3:hr>163</ns3:hr>
            <ns3:cad>91</ns3:cad>
          </ns3:TrackPointExtension>
        </extensions>
      </trkpt>
      <trkpt lat="43.8316833972930908203125" lon="4.26046983338892459869384765625">
        <ele>148.600006103515625</ele>
        <time>2024-01-27T10:24:07.000Z</time>
        <extensions>
          <ns3:TrackPointExtension>
            <ns3:hr>163</ns3:hr>
            <ns3:cad>91</ns3:cad>
          </ns3:TrackPointExtension>
        </extensions>
      </trkpt>
      <trkpt lat="43.831684403121471405029296875" lon="4.26049313507974147796630859375">
        <ele>148</ele>
        <time>2024-01-27T10:24:08.000Z</time>
        <extensions>
          <ns3:TrackPointExtension>
            <ns3:hr>162</ns3:hr>
            <ns3:cad>91</ns3:cad>
          </ns3:TrackPointExtension>
        </extensions>
      </trkpt>
      <trkpt lat="43.83169052191078662872314453125" lon="4.26051811315119266510009765625">
        <ele>147.8000030517578125</ele>
        <time>2024-01-27T10:24:09.000Z</time>
        <extensions>
          <ns3:TrackPointExtension>
            <ns3:hr>162</ns3:hr>
            <ns3:cad>91</ns3:cad>
          </ns3:TrackPointExtension>
        </extensions>
      </trkpt>
      <trkpt lat="43.831699155271053314208984375" lon="4.260541163384914398193359375">
        <ele>146.600006103515625</ele>
        <time>2024-01-27T10:24:10.000Z</time>
        <extensions>
          <ns3:TrackPointExtension>
            <ns3:hr>162</ns3:hr>
            <ns3:cad>101</ns3:cad>
          </ns3:TrackPointExtension>
        </extensions>
      </trkpt>
      <trkpt lat="43.8317048549652099609375" lon="4.26055968739092350006103515625">
        <ele>146.1999969482421875</ele>
        <time>2024-01-27T10:24:11.000Z</time>
        <extensions>
          <ns3:TrackPointExtension>
            <ns3:hr>162</ns3:hr>
            <ns3:cad>102</ns3:cad>
          </ns3:TrackPointExtension>
        </extensions>
      </trkpt>
      <trkpt lat="43.8317080400884151458740234375" lon="4.26058097742497920989990234375">
        <ele>145.600006103515625</ele>
        <time>2024-01-27T10:24:12.000Z</time>
        <extensions>
          <ns3:TrackPointExtension>
            <ns3:hr>162</ns3:hr>
            <ns3:cad>102</ns3:cad>
          </ns3:TrackPointExtension>
        </extensions>
      </trkpt>
      <trkpt lat="43.83171214722096920013427734375" lon="4.26060847006738185882568359375">
        <ele>145.399993896484375</ele>
        <time>2024-01-27T10:24:13.000Z</time>
        <extensions>
          <ns3:TrackPointExtension>
            <ns3:hr>162</ns3:hr>
            <ns3:cad>102</ns3:cad>
          </ns3:TrackPointExtension>
        </extensions>
      </trkpt>
      <trkpt lat="43.8317191042006015777587890625" lon="4.2606345377862453460693359375">
        <ele>144.8000030517578125</ele>
        <time>2024-01-27T10:24:14.000Z</time>
        <extensions>
          <ns3:TrackPointExtension>
            <ns3:hr>163</ns3:hr>
            <ns3:cad>103</ns3:cad>
          </ns3:TrackPointExtension>
        </extensions>
      </trkpt>
      <trkpt lat="43.83171617053449153900146484375" lon="4.26065079867839813232421875">
        <ele>144</ele>
        <time>2024-01-27T10:24:15.000Z</time>
        <extensions>
          <ns3:TrackPointExtension>
            <ns3:hr>163</ns3:hr>
            <ns3:cad>103</ns3:cad>
          </ns3:TrackPointExtension>
        </extensions>
      </trkpt>
      <trkpt lat="43.831705190241336822509765625" lon="4.260664544999599456787109375">
        <ele>143.8000030517578125</ele>
        <time>2024-01-27T10:24:16.000Z</time>
        <extensions>
          <ns3:TrackPointExtension>
            <ns3:hr>163</ns3:hr>
            <ns3:cad>103</ns3:cad>
          </ns3:TrackPointExtension>
        </extensions>
      </trkpt>
      <trkpt lat="43.83169521577656269073486328125" lon="4.2606777884066104888916015625">
        <ele>143.1999969482421875</ele>
        <time>2024-01-27T10:24:17.000Z</time>
        <extensions>
          <ns3:TrackPointExtension>
            <ns3:hr>163</ns3:hr>
            <ns3:cad>103</ns3:cad>
          </ns3:TrackPointExtension>
        </extensions>
      </trkpt>
      <trkpt lat="43.83168465457856655120849609375" lon="4.26069832406938076019287109375">
        <ele>142.600006103515625</ele>
        <time>2024-01-27T10:24:18.000Z</time>
        <extensions>
          <ns3:TrackPointExtension>
            <ns3:hr>163</ns3:hr>
            <ns3:cad>103</ns3:cad>
          </ns3:TrackPointExtension>
        </extensions>
      </trkpt>
      <trkpt lat="43.83167962543666362762451171875" lon="4.26071785390377044677734375">
        <ele>142.399993896484375</ele>
        <time>2024-01-27T10:24:19.000Z</time>
        <extensions>
          <ns3:TrackPointExtension>
            <ns3:hr>163</ns3:hr>
            <ns3:cad>103</ns3:cad>
          </ns3:TrackPointExtension>
        </extensions>
      </trkpt>
      <trkpt lat="43.83167736232280731201171875" lon="4.260749705135822296142578125">
        <ele>142.399993896484375</ele>
        <time>2024-01-27T10:24:20.000Z</time>
        <extensions>
          <ns3:TrackPointExtension>
            <ns3:hr>163</ns3:hr>
            <ns3:cad>103</ns3:cad>
          </ns3:TrackPointExtension>
        </extensions>
      </trkpt>
      <trkpt lat="43.83167677558958530426025390625" lon="4.260774515569210052490234375">
        <ele>142</ele>
        <time>2024-01-27T10:24:21.000Z</time>
        <extensions>
          <ns3:TrackPointExtension>
            <ns3:hr>163</ns3:hr>
            <ns3:cad>90</ns3:cad>
          </ns3:TrackPointExtension>
        </extensions>
      </trkpt>
      <trkpt lat="43.8316738419234752655029296875" lon="4.26079940982162952423095703125">
        <ele>141.600006103515625</ele>
        <time>2024-01-27T10:24:22.000Z</time>
        <extensions>
          <ns3:TrackPointExtension>
            <ns3:hr>163</ns3:hr>
            <ns3:cad>89</ns3:cad>
          </ns3:TrackPointExtension>
        </extensions>
      </trkpt>
      <trkpt lat="43.8316711597144603729248046875" lon="4.260824806988239288330078125">
        <ele>141</ele>
        <time>2024-01-27T10:24:23.000Z</time>
        <extensions>
          <ns3:TrackPointExtension>
            <ns3:hr>163</ns3:hr>
            <ns3:cad>89</ns3:cad>
          </ns3:TrackPointExtension>
        </extensions>
      </trkpt>
      <trkpt lat="43.83166822604835033416748046875" lon="4.26084886305034160614013671875">
        <ele>140.600006103515625</ele>
        <time>2024-01-27T10:24:24.000Z</time>
        <extensions>
          <ns3:TrackPointExtension>
            <ns3:hr>162</ns3:hr>
            <ns3:cad>93</ns3:cad>
          </ns3:TrackPointExtension>
        </extensions>
      </trkpt>
      <trkpt lat="43.83166537620127201080322265625" lon="4.26087317056953907012939453125">
        <ele>139.600006103515625</ele>
        <time>2024-01-27T10:24:25.000Z</time>
        <extensions>
          <ns3:TrackPointExtension>
            <ns3:hr>161</ns3:hr>
            <ns3:cad>93</ns3:cad>
          </ns3:TrackPointExtension>
        </extensions>
      </trkpt>
      <trkpt lat="43.83166504092514514923095703125" lon="4.26090016029775142669677734375">
        <ele>139</ele>
        <time>2024-01-27T10:24:26.000Z</time>
        <extensions>
          <ns3:TrackPointExtension>
            <ns3:hr>161</ns3:hr>
            <ns3:cad>89</ns3:cad>
          </ns3:TrackPointExtension>
        </extensions>
      </trkpt>
      <trkpt lat="43.83166730403900146484375" lon="4.26092262379825115203857421875">
        <ele>138.600006103515625</ele>
        <time>2024-01-27T10:24:27.000Z</time>
        <extensions>
          <ns3:TrackPointExtension>
            <ns3:hr>161</ns3:hr>
            <ns3:cad>89</ns3:cad>
          </ns3:TrackPointExtension>
        </extensions>
      </trkpt>
      <trkpt lat="43.83166663348674774169921875" lon="4.2609463445842266082763671875">
        <ele>138.399993896484375</ele>
        <time>2024-01-27T10:24:28.000Z</time>
        <extensions>
          <ns3:TrackPointExtension>
            <ns3:hr>162</ns3:hr>
            <ns3:cad>89</ns3:cad>
          </ns3:TrackPointExtension>
        </extensions>
      </trkpt>
      <trkpt lat="43.8316671364009380340576171875" lon="4.2609708197414875030517578125">
        <ele>138.1999969482421875</ele>
        <time>2024-01-27T10:24:29.000Z</time>
        <extensions>
          <ns3:TrackPointExtension>
            <ns3:hr>162</ns3:hr>
            <ns3:cad>89</ns3:cad>
          </ns3:TrackPointExtension>
        </extensions>
      </trkpt>
      <trkpt lat="43.8316605985164642333984375" lon="4.26099671982228755950927734375">
        <ele>138</ele>
        <time>2024-01-27T10:24:30.000Z</time>
        <extensions>
          <ns3:TrackPointExtension>
            <ns3:hr>162</ns3:hr>
            <ns3:cad>89</ns3:cad>
          </ns3:TrackPointExtension>
        </extensions>
      </trkpt>
      <trkpt lat="43.831652887165546417236328125" lon="4.2610204406082630157470703125">
        <ele>137.600006103515625</ele>
        <time>2024-01-27T10:24:31.000Z</time>
        <extensions>
          <ns3:TrackPointExtension>
            <ns3:hr>162</ns3:hr>
            <ns3:cad>89</ns3:cad>
          </ns3:TrackPointExtension>
        </extensions>
      </trkpt>
      <trkpt lat="43.83164249360561370849609375" lon="4.26104374229907989501953125">
        <ele>137.1999969482421875</ele>
        <time>2024-01-27T10:24:32.000Z</time>
        <extensions>
          <ns3:TrackPointExtension>
            <ns3:hr>162</ns3:hr>
            <ns3:cad>89</ns3:cad>
          </ns3:TrackPointExtension>
        </extensions>
      </trkpt>
      <trkpt lat="43.83163302205502986907958984375" lon="4.261061511933803558349609375">
        <ele>137</ele>
        <time>2024-01-27T10:24:33.000Z</time>
        <extensions>
          <ns3:TrackPointExtension>
            <ns3:hr>162</ns3:hr>
            <ns3:cad>89</ns3:cad>
          </ns3:TrackPointExtension>
        </extensions>
      </trkpt>
      <trkpt lat="43.831620030105113983154296875" lon="4.2610814608633518218994140625">
        <ele>136.8000030517578125</ele>
        <time>2024-01-27T10:24:34.000Z</time>
        <extensions>
          <ns3:TrackPointExtension>
            <ns3:hr>161</ns3:hr>
            <ns3:cad>89</ns3:cad>
          </ns3:TrackPointExtension>
        </extensions>
      </trkpt>
      <trkpt lat="43.83160762488842010498046875" lon="4.2611002363264560699462890625">
        <ele>136.399993896484375</ele>
        <time>2024-01-27T10:24:35.000Z</time>
        <extensions>
          <ns3:TrackPointExtension>
            <ns3:hr>161</ns3:hr>
            <ns3:cad>90</ns3:cad>
          </ns3:TrackPointExtension>
        </extensions>
      </trkpt>
      <trkpt lat="43.8315943814814090728759765625" lon="4.26112781278789043426513671875">
        <ele>136.399993896484375</ele>
        <time>2024-01-27T10:24:36.000Z</time>
        <extensions>
          <ns3:TrackPointExtension>
            <ns3:hr>160</ns3:hr>
            <ns3:cad>90</ns3:cad>
          </ns3:TrackPointExtension>
        </extensions>
      </trkpt>
      <trkpt lat="43.8315836526453495025634765625" lon="4.26116301678121089935302734375">
        <ele>136.399993896484375</ele>
        <time>2024-01-27T10:24:37.000Z</time>
        <extensions>
          <ns3:TrackPointExtension>
            <ns3:hr>159</ns3:hr>
            <ns3:cad>90</ns3:cad>
          </ns3:TrackPointExtension>
        </extensions>
      </trkpt>
      <trkpt lat="43.831573426723480224609375" lon="4.26119537092745304107666015625">
        <ele>136.1999969482421875</ele>
        <time>2024-01-27T10:24:38.000Z</time>
        <extensions>
          <ns3:TrackPointExtension>
            <ns3:hr>159</ns3:hr>
            <ns3:cad>90</ns3:cad>
          </ns3:TrackPointExtension>
        </extensions>
      </trkpt>
      <trkpt lat="43.831568397581577301025390625" lon="4.26122839562594890594482421875">
        <ele>136</ele>
        <time>2024-01-27T10:24:39.000Z</time>
        <extensions>
          <ns3:TrackPointExtension>
            <ns3:hr>158</ns3:hr>
            <ns3:cad>90</ns3:cad>
          </ns3:TrackPointExtension>
        </extensions>
      </trkpt>
      <trkpt lat="43.8315662182867527008056640625" lon="4.26125236786901950836181640625">
        <ele>135.600006103515625</ele>
        <time>2024-01-27T10:24:40.000Z</time>
        <extensions>
          <ns3:TrackPointExtension>
            <ns3:hr>158</ns3:hr>
            <ns3:cad>90</ns3:cad>
          </ns3:TrackPointExtension>
        </extensions>
      </trkpt>
      <trkpt lat="43.8315668888390064239501953125" lon="4.26128170453011989593505859375">
        <ele>134.8000030517578125</ele>
        <time>2024-01-27T10:24:41.000Z</time>
        <extensions>
          <ns3:TrackPointExtension>
            <ns3:hr>157</ns3:hr>
            <ns3:cad>90</ns3:cad>
          </ns3:TrackPointExtension>
        </extensions>
      </trkpt>
      <trkpt lat="43.83157250471413135528564453125" lon="4.2613084428012371063232421875">
        <ele>134</ele>
        <time>2024-01-27T10:24:42.000Z</time>
        <extensions>
          <ns3:TrackPointExtension>
            <ns3:hr>157</ns3:hr>
            <ns3:cad>90</ns3:cad>
          </ns3:TrackPointExtension>
        </extensions>
      </trkpt>
      <trkpt lat="43.83158155716955661773681640625" lon="4.261321686208248138427734375">
        <ele>133.1999969482421875</ele>
        <time>2024-01-27T10:24:43.000Z</time>
        <extensions>
          <ns3:TrackPointExtension>
            <ns3:hr>156</ns3:hr>
            <ns3:cad>90</ns3:cad>
          </ns3:TrackPointExtension>
        </extensions>
      </trkpt>
      <trkpt lat="43.831595219671726226806640625" lon="4.26134071312844753265380859375">
        <ele>132.8000030517578125</ele>
        <time>2024-01-27T10:24:44.000Z</time>
        <extensions>
          <ns3:TrackPointExtension>
            <ns3:hr>156</ns3:hr>
            <ns3:cad>90</ns3:cad>
          </ns3:TrackPointExtension>
        </extensions>
      </trkpt>
      <trkpt lat="43.8316101394593715667724609375" lon="4.261356890201568603515625">
        <ele>132.600006103515625</ele>
        <time>2024-01-27T10:24:45.000Z</time>
        <extensions>
          <ns3:TrackPointExtension>
            <ns3:hr>155</ns3:hr>
            <ns3:cad>95</ns3:cad>
          </ns3:TrackPointExtension>
        </extensions>
      </trkpt>
      <trkpt lat="43.8316242210566997528076171875" lon="4.26137491129338741302490234375">
        <ele>131.8000030517578125</ele>
        <time>2024-01-27T10:24:46.000Z</time>
        <extensions>
          <ns3:TrackPointExtension>
            <ns3:hr>154</ns3:hr>
            <ns3:cad>96</ns3:cad>
          </ns3:TrackPointExtension>
        </extensions>
      </trkpt>
      <trkpt lat="43.83164073340594768524169921875" lon="4.26139452494680881500244140625">
        <ele>131.600006103515625</ele>
        <time>2024-01-27T10:24:47.000Z</time>
        <extensions>
          <ns3:TrackPointExtension>
            <ns3:hr>153</ns3:hr>
            <ns3:cad>96</ns3:cad>
          </ns3:TrackPointExtension>
        </extensions>
      </trkpt>
      <trkpt lat="43.83165900595486164093017578125" lon="4.2614078521728515625">
        <ele>131.1999969482421875</ele>
        <time>2024-01-27T10:24:48.000Z</time>
        <extensions>
          <ns3:TrackPointExtension>
            <ns3:hr>151</ns3:hr>
            <ns3:cad>98</ns3:cad>
          </ns3:TrackPointExtension>
        </extensions>
      </trkpt>
      <trkpt lat="43.83167945779860019683837890625" lon="4.2614083550870418548583984375">
        <ele>130.8000030517578125</ele>
        <time>2024-01-27T10:24:49.000Z</time>
        <extensions>
          <ns3:TrackPointExtension>
            <ns3:hr>150</ns3:hr>
            <ns3:cad>98</ns3:cad>
          </ns3:TrackPointExtension>
        </extensions>
      </trkpt>
      <trkpt lat="43.83169747889041900634765625" lon="4.26140374504029750823974609375">
        <ele>130.1999969482421875</ele>
        <time>2024-01-27T10:24:50.000Z</time>
        <extensions>
          <ns3:TrackPointExtension>
            <ns3:hr>149</ns3:hr>
            <ns3:cad>98</ns3:cad>
          </ns3:TrackPointExtension>
        </extensions>
      </trkpt>
      <trkpt lat="43.83170896209776401519775390625" lon="4.261397458612918853759765625">
        <ele>129.600006103515625</ele>
        <time>2024-01-27T10:24:51.000Z</time>
        <extensions>
          <ns3:TrackPointExtension>
            <ns3:hr>148</ns3:hr>
            <ns3:cad>95</ns3:cad>
          </ns3:TrackPointExtension>
        </extensions>
      </trkpt>
      <trkpt lat="43.83171214722096920013427734375" lon="4.26139301620423793792724609375">
        <ele>129.1999969482421875</ele>
        <time>2024-01-27T10:24:52.000Z</time>
        <extensions>
          <ns3:TrackPointExtension>
            <ns3:hr>148</ns3:hr>
            <ns3:cad>94</ns3:cad>
          </ns3:TrackPointExtension>
        </extensions>
      </trkpt>
      <trkpt lat="43.83171784691512584686279296875" lon="4.261389411985874176025390625">
        <ele>129</ele>
        <time>2024-01-27T10:24:53.000Z</time>
        <extensions>
          <ns3:TrackPointExtension>
            <ns3:hr>147</ns3:hr>
            <ns3:cad>94</ns3:cad>
          </ns3:TrackPointExtension>
        </extensions>
      </trkpt>
      <trkpt lat="43.83171893656253814697265625" lon="4.261386059224605560302734375">
        <ele>128.8000030517578125</ele>
        <time>2024-01-27T10:24:54.000Z</time>
        <extensions>
          <ns3:TrackPointExtension>
            <ns3:hr>147</ns3:hr>
            <ns3:cad>91</ns3:cad>
          </ns3:TrackPointExtension>
        </extensions>
      </trkpt>
      <trkpt lat="43.83172840811312198638916015625" lon="4.26138279028236865997314453125">
        <ele>128.600006103515625</ele>
        <time>2024-01-27T10:24:55.000Z</time>
        <extensions>
          <ns3:TrackPointExtension>
            <ns3:hr>147</ns3:hr>
            <ns3:cad>91</ns3:cad>
          </ns3:TrackPointExtension>
        </extensions>
      </trkpt>
      <trkpt lat="43.83173762820661067962646484375" lon="4.26138195209205150604248046875">
        <ele>128.600006103515625</ele>
        <time>2024-01-27T10:24:56.000Z</time>
        <extensions>
          <ns3:TrackPointExtension>
            <ns3:hr>146</ns3:hr>
            <ns3:cad>88</ns3:cad>
          </ns3:TrackPointExtension>
        </extensions>
      </trkpt>
      <trkpt lat="43.8317506201565265655517578125" lon="4.261386394500732421875">
        <ele>128.1999969482421875</ele>
        <time>2024-01-27T10:24:57.000Z</time>
        <extensions>
          <ns3:TrackPointExtension>
            <ns3:hr>146</ns3:hr>
            <ns3:cad>0</ns3:cad>
          </ns3:TrackPointExtension>
        </extensions>
      </trkpt>
      <trkpt lat="43.8317529670894145965576171875" lon="4.26139050163328647613525390625">
        <ele>127.8000030517578125</ele>
        <time>2024-01-27T10:24:58.000Z</time>
        <extensions>
          <ns3:TrackPointExtension>
            <ns3:hr>145</ns3:hr>
            <ns3:cad>0</ns3:cad>
          </ns3:TrackPointExtension>
        </extensions>
      </trkpt>
      <trkpt lat="43.8317593373358249664306640625" lon="4.26139787770807743072509765625">
        <ele>127.59999847412109375</ele>
        <time>2024-01-27T10:24:59.000Z</time>
        <extensions>
          <ns3:TrackPointExtension>
            <ns3:hr>145</ns3:hr>
            <ns3:cad>0</ns3:cad>
          </ns3:TrackPointExtension>
        </extensions>
      </trkpt>
      <trkpt lat="43.83176126517355442047119140625" lon="4.26140625961124897003173828125">
        <ele>127.1999969482421875</ele>
        <time>2024-01-27T10:25:00.000Z</time>
        <extensions>
          <ns3:TrackPointExtension>
            <ns3:hr>144</ns3:hr>
            <ns3:cad>0</ns3:cad>
          </ns3:TrackPointExtension>
        </extensions>
      </trkpt>
      <trkpt lat="43.83176981471478939056396484375" lon="4.261416234076023101806640625">
        <ele>126.8000030517578125</ele>
        <time>2024-01-27T10:25:01.000Z</time>
        <extensions>
          <ns3:TrackPointExtension>
            <ns3:hr>144</ns3:hr>
            <ns3:cad>0</ns3:cad>
          </ns3:TrackPointExtension>
        </extensions>
      </trkpt>
      <trkpt lat="43.83177903480827808380126953125" lon="4.2614308185875415802001953125">
        <ele>126.59999847412109375</ele>
        <time>2024-01-27T10:25:02.000Z</time>
        <extensions>
          <ns3:TrackPointExtension>
            <ns3:hr>144</ns3:hr>
            <ns3:cad>0</ns3:cad>
          </ns3:TrackPointExtension>
        </extensions>
      </trkpt>
      <trkpt lat="43.83178599178791046142578125" lon="4.26143911667168140411376953125">
        <ele>126.1999969482421875</ele>
        <time>2024-01-27T10:25:03.000Z</time>
        <extensions>
          <ns3:TrackPointExtension>
            <ns3:hr>144</ns3:hr>
            <ns3:cad>0</ns3:cad>
          </ns3:TrackPointExtension>
        </extensions>
      </trkpt>
      <trkpt lat="43.8317881710827350616455078125" lon="4.26144330762326717376708984375">
        <ele>125.8000030517578125</ele>
        <time>2024-01-27T10:25:04.000Z</time>
        <extensions>
          <ns3:TrackPointExtension>
            <ns3:hr>145</ns3:hr>
            <ns3:cad>0</ns3:cad>
          </ns3:TrackPointExtension>
        </extensions>
      </trkpt>
      <trkpt lat="43.83179445751011371612548828125" lon="4.261449761688709259033203125">
        <ele>125.59999847412109375</ele>
        <time>2024-01-27T10:25:05.000Z</time>
        <extensions>
          <ns3:TrackPointExtension>
            <ns3:hr>144</ns3:hr>
            <ns3:cad>0</ns3:cad>
          </ns3:TrackPointExtension>
        </extensions>
      </trkpt>
      <trkpt lat="43.83179948665201663970947265625" lon="4.261456467211246490478515625">
        <ele>125.1999969482421875</ele>
        <time>2024-01-27T10:25:06.000Z</time>
        <extensions>
          <ns3:TrackPointExtension>
            <ns3:hr>144</ns3:hr>
            <ns3:cad>0</ns3:cad>
          </ns3:TrackPointExtension>
        </extensions>
      </trkpt>
      <trkpt lat="43.83181013166904449462890625" lon="4.26147365011274814605712890625">
        <ele>124.8000030517578125</ele>
        <time>2024-01-27T10:25:07.000Z</time>
        <extensions>
          <ns3:TrackPointExtension>
            <ns3:hr>145</ns3:hr>
            <ns3:cad>0</ns3:cad>
          </ns3:TrackPointExtension>
        </extensions>
      </trkpt>
      <trkpt lat="43.83181859739124774932861328125" lon="4.261491000652313232421875">
        <ele>124.40000152587890625</ele>
        <time>2024-01-27T10:25:08.000Z</time>
        <extensions>
          <ns3:TrackPointExtension>
            <ns3:hr>145</ns3:hr>
            <ns3:cad>86</ns3:cad>
          </ns3:TrackPointExtension>
        </extensions>
      </trkpt>
      <trkpt lat="43.8318253867328166961669921875" lon="4.26150935702025890350341796875">
        <ele>124</ele>
        <time>2024-01-27T10:25:09.000Z</time>
        <extensions>
          <ns3:TrackPointExtension>
            <ns3:hr>145</ns3:hr>
            <ns3:cad>86</ns3:cad>
          </ns3:TrackPointExtension>
        </extensions>
      </trkpt>
      <trkpt lat="43.8318354450166225433349609375" lon="4.261524863541126251220703125">
        <ele>123.59999847412109375</ele>
        <time>2024-01-27T10:25:10.000Z</time>
        <extensions>
          <ns3:TrackPointExtension>
            <ns3:hr>144</ns3:hr>
            <ns3:cad>86</ns3:cad>
          </ns3:TrackPointExtension>
        </extensions>
      </trkpt>
      <trkpt lat="43.83184977807104587554931640625" lon="4.26154523156583309173583984375">
        <ele>123.40000152587890625</ele>
        <time>2024-01-27T10:25:11.000Z</time>
        <extensions>
          <ns3:TrackPointExtension>
            <ns3:hr>143</ns3:hr>
            <ns3:cad>88</ns3:cad>
          </ns3:TrackPointExtension>
        </extensions>
      </trkpt>
      <trkpt lat="43.8318629376590251922607421875" lon="4.26156367175281047821044921875">
        <ele>123</ele>
        <time>2024-01-27T10:25:12.000Z</time>
        <extensions>
          <ns3:TrackPointExtension>
            <ns3:hr>142</ns3:hr>
            <ns3:cad>88</ns3:cad>
          </ns3:TrackPointExtension>
        </extensions>
      </trkpt>
      <trkpt lat="43.8318699784576892852783203125" lon="4.26157942973077297210693359375">
        <ele>123</ele>
        <time>2024-01-27T10:25:13.000Z</time>
        <extensions>
          <ns3:TrackPointExtension>
            <ns3:hr>141</ns3:hr>
            <ns3:cad>88</ns3:cad>
          </ns3:TrackPointExtension>
        </extensions>
      </trkpt>
      <trkpt lat="43.83188121020793914794921875" lon="4.2616008035838603973388671875">
        <ele>122.8000030517578125</ele>
        <time>2024-01-27T10:25:14.000Z</time>
        <extensions>
          <ns3:TrackPointExtension>
            <ns3:hr>141</ns3:hr>
            <ns3:cad>88</ns3:cad>
          </ns3:TrackPointExtension>
        </extensions>
      </trkpt>
      <trkpt lat="43.83189328014850616455078125" lon="4.261622764170169830322265625">
        <ele>122.59999847412109375</ele>
        <time>2024-01-27T10:25:15.000Z</time>
        <extensions>
          <ns3:TrackPointExtension>
            <ns3:hr>140</ns3:hr>
            <ns3:cad>88</ns3:cad>
          </ns3:TrackPointExtension>
        </extensions>
      </trkpt>
      <trkpt lat="43.83190509863197803497314453125" lon="4.261646568775177001953125">
        <ele>122</ele>
        <time>2024-01-27T10:25:16.000Z</time>
        <extensions>
          <ns3:TrackPointExtension>
            <ns3:hr>140</ns3:hr>
            <ns3:cad>88</ns3:cad>
          </ns3:TrackPointExtension>
        </extensions>
      </trkpt>
      <trkpt lat="43.8319105468690395355224609375" lon="4.2616651766002178192138671875">
        <ele>121.59999847412109375</ele>
        <time>2024-01-27T10:25:17.000Z</time>
        <extensions>
          <ns3:TrackPointExtension>
            <ns3:hr>139</ns3:hr>
            <ns3:cad>88</ns3:cad>
          </ns3:TrackPointExtension>
        </extensions>
      </trkpt>
      <trkpt lat="43.83191063068807125091552734375" lon="4.2616879753768444061279296875">
        <ele>121.40000152587890625</ele>
        <time>2024-01-27T10:25:18.000Z</time>
        <extensions>
          <ns3:TrackPointExtension>
            <ns3:hr>139</ns3:hr>
            <ns3:cad>88</ns3:cad>
          </ns3:TrackPointExtension>
        </extensions>
      </trkpt>
      <trkpt lat="43.8319041766226291656494140625" lon="4.26170825958251953125">
        <ele>121</ele>
        <time>2024-01-27T10:25:19.000Z</time>
        <extensions>
          <ns3:TrackPointExtension>
            <ns3:hr>139</ns3:hr>
            <ns3:cad>95</ns3:cad>
          </ns3:TrackPointExtension>
        </extensions>
      </trkpt>
      <trkpt lat="43.8318971358239650726318359375" lon="4.26173198036849498748779296875">
        <ele>120.59999847412109375</ele>
        <time>2024-01-27T10:25:20.000Z</time>
        <extensions>
          <ns3:TrackPointExtension>
            <ns3:hr>139</ns3:hr>
            <ns3:cad>95</ns3:cad>
          </ns3:TrackPointExtension>
        </extensions>
      </trkpt>
      <trkpt lat="43.83189051412045955657958984375" lon="4.2617503367364406585693359375">
        <ele>120</ele>
        <time>2024-01-27T10:25:21.000Z</time>
        <extensions>
          <ns3:TrackPointExtension>
            <ns3:hr>139</ns3:hr>
            <ns3:cad>95</ns3:cad>
          </ns3:TrackPointExtension>
        </extensions>
      </trkpt>
      <trkpt lat="43.8318840600550174713134765625" lon="4.26176659762859344482421875">
        <ele>119.59999847412109375</ele>
        <time>2024-01-27T10:25:22.000Z</time>
        <extensions>
          <ns3:TrackPointExtension>
            <ns3:hr>139</ns3:hr>
            <ns3:cad>95</ns3:cad>
          </ns3:TrackPointExtension>
        </extensions>
      </trkpt>
      <trkpt lat="43.83188028819859027862548828125" lon="4.2617820203304290771484375">
        <ele>119</ele>
        <time>2024-01-27T10:25:23.000Z</time>
        <extensions>
          <ns3:TrackPointExtension>
            <ns3:hr>141</ns3:hr>
            <ns3:cad>97</ns3:cad>
          </ns3:TrackPointExtension>
        </extensions>
      </trkpt>
      <trkpt lat="43.8318793661892414093017578125" lon="4.26180473528802394866943359375">
        <ele>118.59999847412109375</ele>
        <time>2024-01-27T10:25:24.000Z</time>
        <extensions>
          <ns3:TrackPointExtension>
            <ns3:hr>143</ns3:hr>
            <ns3:cad>97</ns3:cad>
          </ns3:TrackPointExtension>
        </extensions>
      </trkpt>
      <trkpt lat="43.831880874931812286376953125" lon="4.26183206029236316680908203125">
        <ele>118</ele>
        <time>2024-01-27T10:25:25.000Z</time>
        <extensions>
          <ns3:TrackPointExtension>
            <ns3:hr>142</ns3:hr>
            <ns3:cad>97</ns3:cad>
          </ns3:TrackPointExtension>
        </extensions>
      </trkpt>
      <trkpt lat="43.8318840600550174713134765625" lon="4.26186072640120983123779296875">
        <ele>117.59999847412109375</ele>
        <time>2024-01-27T10:25:26.000Z</time>
        <extensions>
          <ns3:TrackPointExtension>
            <ns3:hr>142</ns3:hr>
            <ns3:cad>97</ns3:cad>
          </ns3:TrackPointExtension>
        </extensions>
      </trkpt>
      <trkpt lat="43.831882216036319732666015625" lon="4.2618807591497898101806640625">
        <ele>117.40000152587890625</ele>
        <time>2024-01-27T10:25:27.000Z</time>
        <extensions>
          <ns3:TrackPointExtension>
            <ns3:hr>142</ns3:hr>
            <ns3:cad>88</ns3:cad>
          </ns3:TrackPointExtension>
        </extensions>
      </trkpt>
      <trkpt lat="43.831879198551177978515625" lon="4.2619000375270843505859375">
        <ele>117.1999969482421875</ele>
        <time>2024-01-27T10:25:28.000Z</time>
        <extensions>
          <ns3:TrackPointExtension>
            <ns3:hr>142</ns3:hr>
            <ns3:cad>86</ns3:cad>
          </ns3:TrackPointExtension>
        </extensions>
      </trkpt>
      <trkpt lat="43.83187584578990936279296875" lon="4.26191403530538082122802734375">
        <ele>116.8000030517578125</ele>
        <time>2024-01-27T10:25:29.000Z</time>
        <extensions>
          <ns3:TrackPointExtension>
            <ns3:hr>141</ns3:hr>
            <ns3:cad>86</ns3:cad>
          </ns3:TrackPointExtension>
        </extensions>
      </trkpt>
      <trkpt lat="43.8318723253905773162841796875" lon="4.26193599589169025421142578125">
        <ele>116.59999847412109375</ele>
        <time>2024-01-27T10:25:30.000Z</time>
        <extensions>
          <ns3:TrackPointExtension>
            <ns3:hr>141</ns3:hr>
            <ns3:cad>86</ns3:cad>
          </ns3:TrackPointExtension>
        </extensions>
      </trkpt>
      <trkpt lat="43.8318716548383235931396484375" lon="4.26195971667766571044921875">
        <ele>116.40000152587890625</ele>
        <time>2024-01-27T10:25:31.000Z</time>
        <extensions>
          <ns3:TrackPointExtension>
            <ns3:hr>141</ns3:hr>
            <ns3:cad>87</ns3:cad>
          </ns3:TrackPointExtension>
        </extensions>
      </trkpt>
      <trkpt lat="43.83187408559024333953857421875" lon="4.261983521282672882080078125">
        <ele>116</ele>
        <time>2024-01-27T10:25:32.000Z</time>
        <extensions>
          <ns3:TrackPointExtension>
            <ns3:hr>141</ns3:hr>
            <ns3:cad>87</ns3:cad>
          </ns3:TrackPointExtension>
        </extensions>
      </trkpt>
      <trkpt lat="43.83187945000827312469482421875" lon="4.26200388930737972259521484375">
        <ele>115.8000030517578125</ele>
        <time>2024-01-27T10:25:33.000Z</time>
        <extensions>
          <ns3:TrackPointExtension>
            <ns3:hr>140</ns3:hr>
            <ns3:cad>87</ns3:cad>
          </ns3:TrackPointExtension>
        </extensions>
      </trkpt>
      <trkpt lat="43.83188447915017604827880859375" lon="4.26202719099819660186767578125">
        <ele>115.59999847412109375</ele>
        <time>2024-01-27T10:25:34.000Z</time>
        <extensions>
          <ns3:TrackPointExtension>
            <ns3:hr>141</ns3:hr>
            <ns3:cad>87</ns3:cad>
          </ns3:TrackPointExtension>
        </extensions>
      </trkpt>
      <trkpt lat="43.831884227693080902099609375" lon="4.26204496063292026519775390625">
        <ele>115.59999847412109375</ele>
        <time>2024-01-27T10:25:35.000Z</time>
        <extensions>
          <ns3:TrackPointExtension>
            <ns3:hr>141</ns3:hr>
            <ns3:cad>87</ns3:cad>
          </ns3:TrackPointExtension>
        </extensions>
      </trkpt>
      <trkpt lat="43.83188389241695404052734375" lon="4.2620648257434368133544921875">
        <ele>115.40000152587890625</ele>
        <time>2024-01-27T10:25:36.000Z</time>
        <extensions>
          <ns3:TrackPointExtension>
            <ns3:hr>140</ns3:hr>
            <ns3:cad>87</ns3:cad>
          </ns3:TrackPointExtension>
        </extensions>
      </trkpt>
      <trkpt lat="43.8318885862827301025390625" lon="4.26208519376814365386962890625">
        <ele>115.40000152587890625</ele>
        <time>2024-01-27T10:25:37.000Z</time>
        <extensions>
          <ns3:TrackPointExtension>
            <ns3:hr>140</ns3:hr>
            <ns3:cad>84</ns3:cad>
          </ns3:TrackPointExtension>
        </extensions>
      </trkpt>
      <trkpt lat="43.8318966329097747802734375" lon="4.26211201585829257965087890625">
        <ele>115.1999969482421875</ele>
        <time>2024-01-27T10:25:38.000Z</time>
        <extensions>
          <ns3:TrackPointExtension>
            <ns3:hr>139</ns3:hr>
            <ns3:cad>84</ns3:cad>
          </ns3:TrackPointExtension>
        </extensions>
      </trkpt>
      <trkpt lat="43.8319019973278045654296875" lon="4.262133054435253143310546875">
        <ele>115</ele>
        <time>2024-01-27T10:25:39.000Z</time>
        <extensions>
          <ns3:TrackPointExtension>
            <ns3:hr>139</ns3:hr>
            <ns3:cad>84</ns3:cad>
          </ns3:TrackPointExtension>
        </extensions>
      </trkpt>
      <trkpt lat="43.83190241642296314239501953125" lon="4.26215417683124542236328125">
        <ele>115</ele>
        <time>2024-01-27T10:25:40.000Z</time>
        <extensions>
          <ns3:TrackPointExtension>
            <ns3:hr>138</ns3:hr>
            <ns3:cad>84</ns3:cad>
          </ns3:TrackPointExtension>
        </extensions>
      </trkpt>
      <trkpt lat="43.8319058530032634735107421875" lon="4.26217890344560146331787109375">
        <ele>114.8000030517578125</ele>
        <time>2024-01-27T10:25:41.000Z</time>
        <extensions>
          <ns3:TrackPointExtension>
            <ns3:hr>138</ns3:hr>
            <ns3:cad>84</ns3:cad>
          </ns3:TrackPointExtension>
        </extensions>
      </trkpt>
      <trkpt lat="43.83191331289708614349365234375" lon="4.26220471970736980438232421875">
        <ele>114.8000030517578125</ele>
        <time>2024-01-27T10:25:42.000Z</time>
        <extensions>
          <ns3:TrackPointExtension>
            <ns3:hr>138</ns3:hr>
            <ns3:cad>84</ns3:cad>
          </ns3:TrackPointExtension>
        </extensions>
      </trkpt>
      <trkpt lat="43.831920437514781951904296875" lon="4.26223724149167537689208984375">
        <ele>114.1999969482421875</ele>
        <time>2024-01-27T10:25:43.000Z</time>
        <extensions>
          <ns3:TrackPointExtension>
            <ns3:hr>138</ns3:hr>
            <ns3:cad>84</ns3:cad>
          </ns3:TrackPointExtension>
        </extensions>
      </trkpt>
      <trkpt lat="43.8319159112870693206787109375" lon="4.26226875744760036468505859375">
        <ele>113.8000030517578125</ele>
        <time>2024-01-27T10:25:44.000Z</time>
        <extensions>
          <ns3:TrackPointExtension>
            <ns3:hr>139</ns3:hr>
            <ns3:cad>89</ns3:cad>
          </ns3:TrackPointExtension>
        </extensions>
      </trkpt>
      <trkpt lat="43.8319041766226291656494140625" lon="4.26229138858616352081298828125">
        <ele>113.8000030517578125</ele>
        <time>2024-01-27T10:25:45.000Z</time>
        <extensions>
          <ns3:TrackPointExtension>
            <ns3:hr>140</ns3:hr>
            <ns3:cad>90</ns3:cad>
          </ns3:TrackPointExtension>
        </extensions>
      </trkpt>
      <trkpt lat="43.831886909902095794677734375" lon="4.262296669185161590576171875">
        <ele>113.59999847412109375</ele>
        <time>2024-01-27T10:25:46.000Z</time>
        <extensions>
          <ns3:TrackPointExtension>
            <ns3:hr>144</ns3:hr>
            <ns3:cad>92</ns3:cad>
          </ns3:TrackPointExtension>
        </extensions>
      </trkpt>
      <trkpt lat="43.83186503313481807708740234375" lon="4.26230865530669689178466796875">
        <ele>113.40000152587890625</ele>
        <time>2024-01-27T10:25:47.000Z</time>
        <extensions>
          <ns3:TrackPointExtension>
            <ns3:hr>144</ns3:hr>
            <ns3:cad>92</ns3:cad>
          </ns3:TrackPointExtension>
        </extensions>
      </trkpt>
      <trkpt lat="43.83184709586203098297119140625" lon="4.262322150170803070068359375">
        <ele>113.1999969482421875</ele>
        <time>2024-01-27T10:25:48.000Z</time>
        <extensions>
          <ns3:TrackPointExtension>
            <ns3:hr>144</ns3:hr>
            <ns3:cad>92</ns3:cad>
          </ns3:TrackPointExtension>
        </extensions>
      </trkpt>
      <trkpt lat="43.83182379417121410369873046875" lon="4.262333549559116363525390625">
        <ele>113.1999969482421875</ele>
        <time>2024-01-27T10:25:49.000Z</time>
        <extensions>
          <ns3:TrackPointExtension>
            <ns3:hr>144</ns3:hr>
            <ns3:cad>92</ns3:cad>
          </ns3:TrackPointExtension>
        </extensions>
      </trkpt>
      <trkpt lat="43.8317955471575260162353515625" lon="4.2623441107571125030517578125">
        <ele>113</ele>
        <time>2024-01-27T10:25:50.000Z</time>
        <extensions>
          <ns3:TrackPointExtension>
            <ns3:hr>144</ns3:hr>
            <ns3:cad>92</ns3:cad>
          </ns3:TrackPointExtension>
        </extensions>
      </trkpt>
      <trkpt lat="43.83176713250577449798583984375" lon="4.26236095838248729705810546875">
        <ele>113</ele>
        <time>2024-01-27T10:25:51.000Z</time>
        <extensions>
          <ns3:TrackPointExtension>
            <ns3:hr>144</ns3:hr>
            <ns3:cad>92</ns3:cad>
          </ns3:TrackPointExtension>
        </extensions>
      </trkpt>
      <trkpt lat="43.831738047301769256591796875" lon="4.26237638108432292938232421875">
        <ele>113</ele>
        <time>2024-01-27T10:25:52.000Z</time>
        <extensions>
          <ns3:TrackPointExtension>
            <ns3:hr>144</ns3:hr>
            <ns3:cad>91</ns3:cad>
          </ns3:TrackPointExtension>
        </extensions>
      </trkpt>
      <trkpt lat="43.83171516470611095428466796875" lon="4.26239448599517345428466796875">
        <ele>113</ele>
        <time>2024-01-27T10:25:53.000Z</time>
        <extensions>
          <ns3:TrackPointExtension>
            <ns3:hr>144</ns3:hr>
            <ns3:cad>91</ns3:cad>
          </ns3:TrackPointExtension>
        </extensions>
      </trkpt>
      <trkpt lat="43.8316922821104526519775390625" lon="4.26240035332739353179931640625">
        <ele>113</ele>
        <time>2024-01-27T10:25:54.000Z</time>
        <extensions>
          <ns3:TrackPointExtension>
            <ns3:hr>144</ns3:hr>
            <ns3:cad>89</ns3:cad>
          </ns3:TrackPointExtension>
        </extensions>
      </trkpt>
      <trkpt lat="43.8316691480576992034912109375" lon="4.2624051310122013092041015625">
        <ele>112.8000030517578125</ele>
        <time>2024-01-27T10:25:55.000Z</time>
        <extensions>
          <ns3:TrackPointExtension>
            <ns3:hr>144</ns3:hr>
            <ns3:cad>89</ns3:cad>
          </ns3:TrackPointExtension>
        </extensions>
      </trkpt>
      <trkpt lat="43.83164509199559688568115234375" lon="4.262407980859279632568359375">
        <ele>112.8000030517578125</ele>
        <time>2024-01-27T10:25:56.000Z</time>
        <extensions>
          <ns3:TrackPointExtension>
            <ns3:hr>143</ns3:hr>
            <ns3:cad>89</ns3:cad>
          </ns3:TrackPointExtension>
        </extensions>
      </trkpt>
      <trkpt lat="43.831616677343845367431640625" lon="4.26241703331470489501953125">
        <ele>112.8000030517578125</ele>
        <time>2024-01-27T10:25:57.000Z</time>
        <extensions>
          <ns3:TrackPointExtension>
            <ns3:hr>143</ns3:hr>
            <ns3:cad>89</ns3:cad>
          </ns3:TrackPointExtension>
        </extensions>
      </trkpt>
      <trkpt lat="43.83159329183399677276611328125" lon="4.26242667250335216522216796875">
        <ele>112.8000030517578125</ele>
        <time>2024-01-27T10:25:58.000Z</time>
        <extensions>
          <ns3:TrackPointExtension>
            <ns3:hr>143</ns3:hr>
            <ns3:cad>90</ns3:cad>
          </ns3:TrackPointExtension>
        </extensions>
      </trkpt>
      <trkpt lat="43.8315682299435138702392578125" lon="4.26244159229099750518798828125">
        <ele>112.8000030517578125</ele>
        <time>2024-01-27T10:25:59.000Z</time>
        <extensions>
          <ns3:TrackPointExtension>
            <ns3:hr>143</ns3:hr>
            <ns3:cad>90</ns3:cad>
          </ns3:TrackPointExtension>
        </extensions>
      </trkpt>
      <trkpt lat="43.8315425813198089599609375" lon="4.2624540813267230987548828125">
        <ele>112.59999847412109375</ele>
        <time>2024-01-27T10:26:00.000Z</time>
        <extensions>
          <ns3:TrackPointExtension>
            <ns3:hr>142</ns3:hr>
            <ns3:cad>90</ns3:cad>
          </ns3:TrackPointExtension>
        </extensions>
      </trkpt>
      <trkpt lat="43.83151500485837459564208984375" lon="4.262462295591831207275390625">
        <ele>112.59999847412109375</ele>
        <time>2024-01-27T10:26:01.000Z</time>
        <extensions>
          <ns3:TrackPointExtension>
            <ns3:hr>142</ns3:hr>
            <ns3:cad>91</ns3:cad>
          </ns3:TrackPointExtension>
        </extensions>
      </trkpt>
      <trkpt lat="43.8314924575388431549072265625" lon="4.2624731920659542083740234375">
        <ele>112.59999847412109375</ele>
        <time>2024-01-27T10:26:02.000Z</time>
        <extensions>
          <ns3:TrackPointExtension>
            <ns3:hr>142</ns3:hr>
            <ns3:cad>91</ns3:cad>
          </ns3:TrackPointExtension>
        </extensions>
      </trkpt>
      <trkpt lat="43.8314666412770748138427734375" lon="4.26248073577880859375">
        <ele>112.59999847412109375</ele>
        <time>2024-01-27T10:26:03.000Z</time>
        <extensions>
          <ns3:TrackPointExtension>
            <ns3:hr>142</ns3:hr>
            <ns3:cad>91</ns3:cad>
          </ns3:TrackPointExtension>
        </extensions>
      </trkpt>
      <trkpt lat="43.83144266903400421142578125" lon="4.26249020732939243316650390625">
        <ele>112.59999847412109375</ele>
        <time>2024-01-27T10:26:04.000Z</time>
        <extensions>
          <ns3:TrackPointExtension>
            <ns3:hr>142</ns3:hr>
            <ns3:cad>92</ns3:cad>
          </ns3:TrackPointExtension>
        </extensions>
      </trkpt>
      <trkpt lat="43.83141794241964817047119140625" lon="4.2624963261187076568603515625">
        <ele>112.59999847412109375</ele>
        <time>2024-01-27T10:26:05.000Z</time>
        <extensions>
          <ns3:TrackPointExtension>
            <ns3:hr>142</ns3:hr>
            <ns3:cad>93</ns3:cad>
          </ns3:TrackPointExtension>
        </extensions>
      </trkpt>
      <trkpt lat="43.83139262907207012176513671875" lon="4.26250847987830638885498046875">
        <ele>112.8000030517578125</ele>
        <time>2024-01-27T10:26:06.000Z</time>
        <extensions>
          <ns3:TrackPointExtension>
            <ns3:hr>141</ns3:hr>
            <ns3:cad>93</ns3:cad>
          </ns3:TrackPointExtension>
        </extensions>
      </trkpt>
      <trkpt lat="43.831369243562221527099609375" lon="4.262519292533397674560546875">
        <ele>112.8000030517578125</ele>
        <time>2024-01-27T10:26:07.000Z</time>
        <extensions>
          <ns3:TrackPointExtension>
            <ns3:hr>143</ns3:hr>
            <ns3:cad>92</ns3:cad>
          </ns3:TrackPointExtension>
        </extensions>
      </trkpt>
      <trkpt lat="43.83134267292916774749755859375" lon="4.26252775825560092926025390625">
        <ele>112.8000030517578125</ele>
        <time>2024-01-27T10:26:08.000Z</time>
        <extensions>
          <ns3:TrackPointExtension>
            <ns3:hr>144</ns3:hr>
            <ns3:cad>92</ns3:cad>
          </ns3:TrackPointExtension>
        </extensions>
      </trkpt>
      <trkpt lat="43.83131953887641429901123046875" lon="4.26253681071102619171142578125">
        <ele>112.8000030517578125</ele>
        <time>2024-01-27T10:26:09.000Z</time>
        <extensions>
          <ns3:TrackPointExtension>
            <ns3:hr>145</ns3:hr>
            <ns3:cad>92</ns3:cad>
          </ns3:TrackPointExtension>
        </extensions>
      </trkpt>
      <trkpt lat="43.83129104040563106536865234375" lon="4.26253974437713623046875">
        <ele>112.8000030517578125</ele>
        <time>2024-01-27T10:26:10.000Z</time>
        <extensions>
          <ns3:TrackPointExtension>
            <ns3:hr>146</ns3:hr>
            <ns3:cad>92</ns3:cad>
          </ns3:TrackPointExtension>
        </extensions>
      </trkpt>
      <trkpt lat="43.83127109147608280181884765625" lon="4.26254787482321262359619140625">
        <ele>112.8000030517578125</ele>
        <time>2024-01-27T10:26:11.000Z</time>
        <extensions>
          <ns3:TrackPointExtension>
            <ns3:hr>147</ns3:hr>
            <ns3:cad>93</ns3:cad>
          </ns3:TrackPointExtension>
        </extensions>
      </trkpt>
      <trkpt lat="43.83124762214720249176025390625" lon="4.26255340687930583953857421875">
        <ele>112.59999847412109375</ele>
        <time>2024-01-27T10:26:12.000Z</time>
        <extensions>
          <ns3:TrackPointExtension>
            <ns3:hr>148</ns3:hr>
            <ns3:cad>93</ns3:cad>
          </ns3:TrackPointExtension>
        </extensions>
      </trkpt>
      <trkpt lat="43.83123270235955715179443359375" lon="4.2625643871724605560302734375">
        <ele>112.59999847412109375</ele>
        <time>2024-01-27T10:26:13.000Z</time>
        <extensions>
          <ns3:TrackPointExtension>
            <ns3:hr>149</ns3:hr>
            <ns3:cad>93</ns3:cad>
          </ns3:TrackPointExtension>
        </extensions>
      </trkpt>
      <trkpt lat="43.831210322678089141845703125" lon="4.26256723701953887939453125">
        <ele>112.59999847412109375</ele>
        <time>2024-01-27T10:26:14.000Z</time>
        <extensions>
          <ns3:TrackPointExtension>
            <ns3:hr>151</ns3:hr>
            <ns3:cad>92</ns3:cad>
          </ns3:TrackPointExtension>
        </extensions>
      </trkpt>
      <trkpt lat="43.831190206110477447509765625" lon="4.2625731043517589569091796875">
        <ele>112.59999847412109375</ele>
        <time>2024-01-27T10:26:15.000Z</time>
        <extensions>
          <ns3:TrackPointExtension>
            <ns3:hr>152</ns3:hr>
            <ns3:cad>92</ns3:cad>
          </ns3:TrackPointExtension>
        </extensions>
      </trkpt>
      <trkpt lat="43.8311675749719142913818359375" lon="4.26257939077913761138916015625">
        <ele>112.59999847412109375</ele>
        <time>2024-01-27T10:26:16.000Z</time>
        <extensions>
          <ns3:TrackPointExtension>
            <ns3:hr>154</ns3:hr>
            <ns3:cad>93</ns3:cad>
          </ns3:TrackPointExtension>
        </extensions>
      </trkpt>
      <trkpt lat="43.83114938624203205108642578125" lon="4.26259079016745090484619140625">
        <ele>112.40000152587890625</ele>
        <time>2024-01-27T10:26:17.000Z</time>
        <extensions>
          <ns3:TrackPointExtension>
            <ns3:hr>155</ns3:hr>
            <ns3:cad>93</ns3:cad>
          </ns3:TrackPointExtension>
        </extensions>
      </trkpt>
      <trkpt lat="43.83112859912216663360595703125" lon="4.26260453648865222930908203125">
        <ele>112.40000152587890625</ele>
        <time>2024-01-27T10:26:18.000Z</time>
        <extensions>
          <ns3:TrackPointExtension>
            <ns3:hr>155</ns3:hr>
            <ns3:cad>93</ns3:cad>
          </ns3:TrackPointExtension>
        </extensions>
      </trkpt>
      <trkpt lat="43.83111233823001384735107421875" lon="4.262617193162441253662109375">
        <ele>112.40000152587890625</ele>
        <time>2024-01-27T10:26:19.000Z</time>
        <extensions>
          <ns3:TrackPointExtension>
            <ns3:hr>156</ns3:hr>
            <ns3:cad>93</ns3:cad>
          </ns3:TrackPointExtension>
        </extensions>
      </trkpt>
      <trkpt lat="43.8310946524143218994140625" lon="4.26262951456010341644287109375">
        <ele>112.40000152587890625</ele>
        <time>2024-01-27T10:26:20.000Z</time>
        <extensions>
          <ns3:TrackPointExtension>
            <ns3:hr>156</ns3:hr>
            <ns3:cad>91</ns3:cad>
          </ns3:TrackPointExtension>
        </extensions>
      </trkpt>
      <trkpt lat="43.83107512257993221282958984375" lon="4.2626416683197021484375">
        <ele>112.1999969482421875</ele>
        <time>2024-01-27T10:26:21.000Z</time>
        <extensions>
          <ns3:TrackPointExtension>
            <ns3:hr>157</ns3:hr>
            <ns3:cad>91</ns3:cad>
          </ns3:TrackPointExtension>
        </extensions>
      </trkpt>
      <trkpt lat="43.8310599513351917266845703125" lon="4.26265776157379150390625">
        <ele>112.1999969482421875</ele>
        <time>2024-01-27T10:26:22.000Z</time>
        <extensions>
          <ns3:TrackPointExtension>
            <ns3:hr>157</ns3:hr>
            <ns3:cad>91</ns3:cad>
          </ns3:TrackPointExtension>
        </extensions>
      </trkpt>
      <trkpt lat="43.83104343898594379425048828125" lon="4.262666814029216766357421875">
        <ele>112.1999969482421875</ele>
        <time>2024-01-27T10:26:23.000Z</time>
        <extensions>
          <ns3:TrackPointExtension>
            <ns3:hr>158</ns3:hr>
            <ns3:cad>91</ns3:cad>
          </ns3:TrackPointExtension>
        </extensions>
      </trkpt>
      <trkpt lat="43.83102701045572757720947265625" lon="4.26268257200717926025390625">
        <ele>112.40000152587890625</ele>
        <time>2024-01-27T10:26:24.000Z</time>
        <extensions>
          <ns3:TrackPointExtension>
            <ns3:hr>159</ns3:hr>
            <ns3:cad>91</ns3:cad>
          </ns3:TrackPointExtension>
        </extensions>
      </trkpt>
      <trkpt lat="43.831007145345211029052734375" lon="4.2627005092799663543701171875">
        <ele>112.40000152587890625</ele>
        <time>2024-01-27T10:26:25.000Z</time>
        <extensions>
          <ns3:TrackPointExtension>
            <ns3:hr>160</ns3:hr>
            <ns3:cad>91</ns3:cad>
          </ns3:TrackPointExtension>
        </extensions>
      </trkpt>
      <trkpt lat="43.83099113591015338897705078125" lon="4.262715764343738555908203125">
        <ele>112.40000152587890625</ele>
        <time>2024-01-27T10:26:26.000Z</time>
        <extensions>
          <ns3:TrackPointExtension>
            <ns3:hr>160</ns3:hr>
            <ns3:cad>91</ns3:cad>
          </ns3:TrackPointExtension>
        </extensions>
      </trkpt>
      <trkpt lat="43.8309734500944614410400390625" lon="4.26273487508296966552734375">
        <ele>112.59999847412109375</ele>
        <time>2024-01-27T10:26:27.000Z</time>
        <extensions>
          <ns3:TrackPointExtension>
            <ns3:hr>161</ns3:hr>
            <ns3:cad>93</ns3:cad>
          </ns3:TrackPointExtension>
        </extensions>
      </trkpt>
      <trkpt lat="43.83096062578260898590087890625" lon="4.2627565003931522369384765625">
        <ele>112.59999847412109375</ele>
        <time>2024-01-27T10:26:28.000Z</time>
        <extensions>
          <ns3:TrackPointExtension>
            <ns3:hr>161</ns3:hr>
            <ns3:cad>93</ns3:cad>
          </ns3:TrackPointExtension>
        </extensions>
      </trkpt>
      <trkpt lat="43.83095190860331058502197265625" lon="4.26277686841785907745361328125">
        <ele>112.59999847412109375</ele>
        <time>2024-01-27T10:26:29.000Z</time>
        <extensions>
          <ns3:TrackPointExtension>
            <ns3:hr>162</ns3:hr>
            <ns3:cad>93</ns3:cad>
          </ns3:TrackPointExtension>
        </extensions>
      </trkpt>
      <trkpt lat="43.83093983866274356842041015625" lon="4.26279966719448566436767578125">
        <ele>112.59999847412109375</ele>
        <time>2024-01-27T10:26:30.000Z</time>
        <extensions>
          <ns3:TrackPointExtension>
            <ns3:hr>162</ns3:hr>
            <ns3:cad>92</ns3:cad>
          </ns3:TrackPointExtension>
        </extensions>
      </trkpt>
      <trkpt lat="43.83092642761766910552978515625" lon="4.262821711599826812744140625">
        <ele>112.59999847412109375</ele>
        <time>2024-01-27T10:26:31.000Z</time>
        <extensions>
          <ns3:TrackPointExtension>
            <ns3:hr>162</ns3:hr>
            <ns3:cad>92</ns3:cad>
          </ns3:TrackPointExtension>
        </extensions>
      </trkpt>
      <trkpt lat="43.83091217838227748870849609375" lon="4.26284476183354854583740234375">
        <ele>112.59999847412109375</ele>
        <time>2024-01-27T10:26:32.000Z</time>
        <extensions>
          <ns3:TrackPointExtension>
            <ns3:hr>163</ns3:hr>
            <ns3:cad>92</ns3:cad>
          </ns3:TrackPointExtension>
        </extensions>
      </trkpt>
      <trkpt lat="43.830899856984615325927734375" lon="4.2628654651343822479248046875">
        <ele>112.59999847412109375</ele>
        <time>2024-01-27T10:26:33.000Z</time>
        <extensions>
          <ns3:TrackPointExtension>
            <ns3:hr>163</ns3:hr>
            <ns3:cad>92</ns3:cad>
          </ns3:TrackPointExtension>
        </extensions>
      </trkpt>
      <trkpt lat="43.83088720031082630157470703125" lon="4.26289387978613376617431640625">
        <ele>112.40000152587890625</ele>
        <time>2024-01-27T10:26:34.000Z</time>
        <extensions>
          <ns3:TrackPointExtension>
            <ns3:hr>163</ns3:hr>
            <ns3:cad>92</ns3:cad>
          </ns3:TrackPointExtension>
        </extensions>
      </trkpt>
      <trkpt lat="43.83087630383670330047607421875" lon="4.2629219591617584228515625">
        <ele>112.40000152587890625</ele>
        <time>2024-01-27T10:26:35.000Z</time>
        <extensions>
          <ns3:TrackPointExtension>
            <ns3:hr>163</ns3:hr>
            <ns3:cad>92</ns3:cad>
          </ns3:TrackPointExtension>
        </extensions>
      </trkpt>
      <trkpt lat="43.83086339570581912994384765625" lon="4.2629499547183513641357421875">
        <ele>112.40000152587890625</ele>
        <time>2024-01-27T10:26:36.000Z</time>
        <extensions>
          <ns3:TrackPointExtension>
            <ns3:hr>163</ns3:hr>
            <ns3:cad>92</ns3:cad>
          </ns3:TrackPointExtension>
        </extensions>
      </trkpt>
      <trkpt lat="43.83085149340331554412841796875" lon="4.26297971047461032867431640625">
        <ele>112.40000152587890625</ele>
        <time>2024-01-27T10:26:37.000Z</time>
        <extensions>
          <ns3:TrackPointExtension>
            <ns3:hr>164</ns3:hr>
            <ns3:cad>86</ns3:cad>
          </ns3:TrackPointExtension>
        </extensions>
      </trkpt>
      <trkpt lat="43.8308416865766048431396484375" lon="4.26300569437444210052490234375">
        <ele>112.40000152587890625</ele>
        <time>2024-01-27T10:26:38.000Z</time>
        <extensions>
          <ns3:TrackPointExtension>
            <ns3:hr>163</ns3:hr>
            <ns3:cad>86</ns3:cad>
          </ns3:TrackPointExtension>
        </extensions>
      </trkpt>
      <trkpt lat="43.830835819244384765625" lon="4.2630391381680965423583984375">
        <ele>112.1999969482421875</ele>
        <time>2024-01-27T10:26:39.000Z</time>
        <extensions>
          <ns3:TrackPointExtension>
            <ns3:hr>162</ns3:hr>
            <ns3:cad>92</ns3:cad>
          </ns3:TrackPointExtension>
        </extensions>
      </trkpt>
      <trkpt lat="43.8308312930166721343994140625" lon="4.26306805573403835296630859375">
        <ele>112.1999969482421875</ele>
        <time>2024-01-27T10:26:40.000Z</time>
        <extensions>
          <ns3:TrackPointExtension>
            <ns3:hr>161</ns3:hr>
            <ns3:cad>93</ns3:cad>
          </ns3:TrackPointExtension>
        </extensions>
      </trkpt>
      <trkpt lat="43.8308309577405452728271484375" lon="4.263103008270263671875">
        <ele>112.1999969482421875</ele>
        <time>2024-01-27T10:26:41.000Z</time>
        <extensions>
          <ns3:TrackPointExtension>
            <ns3:hr>160</ns3:hr>
            <ns3:cad>94</ns3:cad>
          </ns3:TrackPointExtension>
        </extensions>
      </trkpt>
      <trkpt lat="43.83082970045506954193115234375" lon="4.26312941126525402069091796875">
        <ele>112</ele>
        <time>2024-01-27T10:26:42.000Z</time>
        <extensions>
          <ns3:TrackPointExtension>
            <ns3:hr>159</ns3:hr>
            <ns3:cad>94</ns3:cad>
          </ns3:TrackPointExtension>
        </extensions>
      </trkpt>
      <trkpt lat="43.83082718588411808013916015625" lon="4.26316645927727222442626953125">
        <ele>112</ele>
        <time>2024-01-27T10:26:43.000Z</time>
        <extensions>
          <ns3:TrackPointExtension>
            <ns3:hr>159</ns3:hr>
            <ns3:cad>91</ns3:cad>
          </ns3:TrackPointExtension>
        </extensions>
      </trkpt>
      <trkpt lat="43.83082601241767406463623046875" lon="4.2631957121193408966064453125">
        <ele>112</ele>
        <time>2024-01-27T10:26:44.000Z</time>
        <extensions>
          <ns3:TrackPointExtension>
            <ns3:hr>158</ns3:hr>
            <ns3:cad>91</ns3:cad>
          </ns3:TrackPointExtension>
        </extensions>
      </trkpt>
      <trkpt lat="43.83082148618996143341064453125" lon="4.263225384056568145751953125">
        <ele>112</ele>
        <time>2024-01-27T10:26:45.000Z</time>
        <extensions>
          <ns3:TrackPointExtension>
            <ns3:hr>158</ns3:hr>
            <ns3:cad>92</ns3:cad>
          </ns3:TrackPointExtension>
        </extensions>
      </trkpt>
      <trkpt lat="43.83082232438027858734130859375" lon="4.26325882785022258758544921875">
        <ele>112</ele>
        <time>2024-01-27T10:26:46.000Z</time>
        <extensions>
          <ns3:TrackPointExtension>
            <ns3:hr>158</ns3:hr>
            <ns3:cad>92</ns3:cad>
          </ns3:TrackPointExtension>
        </extensions>
      </trkpt>
      <trkpt lat="43.83081930689513683319091796875" lon="4.2632845602929592132568359375">
        <ele>112</ele>
        <time>2024-01-27T10:26:47.000Z</time>
        <extensions>
          <ns3:TrackPointExtension>
            <ns3:hr>157</ns3:hr>
            <ns3:cad>92</ns3:cad>
          </ns3:TrackPointExtension>
        </extensions>
      </trkpt>
      <trkpt lat="43.8308145292103290557861328125" lon="4.26331833936274051666259765625">
        <ele>112</ele>
        <time>2024-01-27T10:26:48.000Z</time>
        <extensions>
          <ns3:TrackPointExtension>
            <ns3:hr>157</ns3:hr>
            <ns3:cad>93</ns3:cad>
          </ns3:TrackPointExtension>
        </extensions>
      </trkpt>
      <trkpt lat="43.8308095000684261322021484375" lon="4.26334382034838199615478515625">
        <ele>112</ele>
        <time>2024-01-27T10:26:49.000Z</time>
        <extensions>
          <ns3:TrackPointExtension>
            <ns3:hr>156</ns3:hr>
            <ns3:cad>95</ns3:cad>
          </ns3:TrackPointExtension>
        </extensions>
      </trkpt>
      <trkpt lat="43.83080723695456981658935546875" lon="4.2633819580078125">
        <ele>112</ele>
        <time>2024-01-27T10:26:50.000Z</time>
        <extensions>
          <ns3:TrackPointExtension>
            <ns3:hr>156</ns3:hr>
            <ns3:cad>95</ns3:cad>
          </ns3:TrackPointExtension>
        </extensions>
      </trkpt>
      <trkpt lat="43.83080723695456981658935546875" lon="4.26341121084988117218017578125">
        <ele>112</ele>
        <time>2024-01-27T10:26:51.000Z</time>
        <extensions>
          <ns3:TrackPointExtension>
            <ns3:hr>155</ns3:hr>
            <ns3:cad>93</ns3:cad>
          </ns3:TrackPointExtension>
        </extensions>
      </trkpt>
      <trkpt lat="43.83080338127911090850830078125" lon="4.2634471692144870758056640625">
        <ele>112</ele>
        <time>2024-01-27T10:26:52.000Z</time>
        <extensions>
          <ns3:TrackPointExtension>
            <ns3:hr>154</ns3:hr>
            <ns3:cad>93</ns3:cad>
          </ns3:TrackPointExtension>
        </extensions>
      </trkpt>
      <trkpt lat="43.83080069907009601593017578125" lon="4.26348145119845867156982421875">
        <ele>111.8000030517578125</ele>
        <time>2024-01-27T10:26:53.000Z</time>
        <extensions>
          <ns3:TrackPointExtension>
            <ns3:hr>154</ns3:hr>
            <ns3:cad>93</ns3:cad>
          </ns3:TrackPointExtension>
        </extensions>
      </trkpt>
      <trkpt lat="43.8307964242994785308837890625" lon="4.26351380534470081329345703125">
        <ele>111.8000030517578125</ele>
        <time>2024-01-27T10:26:54.000Z</time>
        <extensions>
          <ns3:TrackPointExtension>
            <ns3:hr>153</ns3:hr>
            <ns3:cad>93</ns3:cad>
          </ns3:TrackPointExtension>
        </extensions>
      </trkpt>
      <trkpt lat="43.8307893835008144378662109375" lon="4.26354624330997467041015625">
        <ele>111.8000030517578125</ele>
        <time>2024-01-27T10:26:55.000Z</time>
        <extensions>
          <ns3:TrackPointExtension>
            <ns3:hr>154</ns3:hr>
            <ns3:cad>93</ns3:cad>
          </ns3:TrackPointExtension>
        </extensions>
      </trkpt>
      <trkpt lat="43.83078142069280147552490234375" lon="4.26357415504753589630126953125">
        <ele>111.8000030517578125</ele>
        <time>2024-01-27T10:26:56.000Z</time>
        <extensions>
          <ns3:TrackPointExtension>
            <ns3:hr>154</ns3:hr>
            <ns3:cad>94</ns3:cad>
          </ns3:TrackPointExtension>
        </extensions>
      </trkpt>
      <trkpt lat="43.830771781504154205322265625" lon="4.26360466517508029937744140625">
        <ele>111.59999847412109375</ele>
        <time>2024-01-27T10:26:57.000Z</time>
        <extensions>
          <ns3:TrackPointExtension>
            <ns3:hr>155</ns3:hr>
            <ns3:cad>94</ns3:cad>
          </ns3:TrackPointExtension>
        </extensions>
      </trkpt>
      <trkpt lat="43.83076541125774383544921875" lon="4.2636278830468654632568359375">
        <ele>111.59999847412109375</ele>
        <time>2024-01-27T10:26:58.000Z</time>
        <extensions>
          <ns3:TrackPointExtension>
            <ns3:hr>156</ns3:hr>
            <ns3:cad>94</ns3:cad>
          </ns3:TrackPointExtension>
        </extensions>
      </trkpt>
      <trkpt lat="43.83076147176325321197509765625" lon="4.263655208051204681396484375">
        <ele>111.59999847412109375</ele>
        <time>2024-01-27T10:26:59.000Z</time>
        <extensions>
          <ns3:TrackPointExtension>
            <ns3:hr>156</ns3:hr>
            <ns3:cad>94</ns3:cad>
          </ns3:TrackPointExtension>
        </extensions>
      </trkpt>
      <trkpt lat="43.83075644262135028839111328125" lon="4.2636842094361782073974609375">
        <ele>111.59999847412109375</ele>
        <time>2024-01-27T10:27:00.000Z</time>
        <extensions>
          <ns3:TrackPointExtension>
            <ns3:hr>157</ns3:hr>
            <ns3:cad>91</ns3:cad>
          </ns3:TrackPointExtension>
        </extensions>
      </trkpt>
      <trkpt lat="43.830747641623020172119140625" lon="4.263714887201786041259765625">
        <ele>111.59999847412109375</ele>
        <time>2024-01-27T10:27:01.000Z</time>
        <extensions>
          <ns3:TrackPointExtension>
            <ns3:hr>157</ns3:hr>
            <ns3:cad>91</ns3:cad>
          </ns3:TrackPointExtension>
        </extensions>
      </trkpt>
      <trkpt lat="43.83074001409113407135009765625" lon="4.2637455649673938751220703125">
        <ele>111.59999847412109375</ele>
        <time>2024-01-27T10:27:02.000Z</time>
        <extensions>
          <ns3:TrackPointExtension>
            <ns3:hr>157</ns3:hr>
            <ns3:cad>92</ns3:cad>
          </ns3:TrackPointExtension>
        </extensions>
      </trkpt>
      <trkpt lat="43.83073196746408939361572265625" lon="4.26377314142882823944091796875">
        <ele>111.59999847412109375</ele>
        <time>2024-01-27T10:27:03.000Z</time>
        <extensions>
          <ns3:TrackPointExtension>
            <ns3:hr>157</ns3:hr>
            <ns3:cad>93</ns3:cad>
          </ns3:TrackPointExtension>
        </extensions>
      </trkpt>
      <trkpt lat="43.8307213224470615386962890625" lon="4.26380415447056293487548828125">
        <ele>111.59999847412109375</ele>
        <time>2024-01-27T10:27:04.000Z</time>
        <extensions>
          <ns3:TrackPointExtension>
            <ns3:hr>156</ns3:hr>
            <ns3:cad>95</ns3:cad>
          </ns3:TrackPointExtension>
        </extensions>
      </trkpt>
      <trkpt lat="43.8307129405438899993896484375" lon="4.2638297192752361297607421875">
        <ele>111.8000030517578125</ele>
        <time>2024-01-27T10:27:05.000Z</time>
        <extensions>
          <ns3:TrackPointExtension>
            <ns3:hr>156</ns3:hr>
            <ns3:cad>95</ns3:cad>
          </ns3:TrackPointExtension>
        </extensions>
      </trkpt>
      <trkpt lat="43.8307038880884647369384765625" lon="4.26385662518441677093505859375">
        <ele>111.8000030517578125</ele>
        <time>2024-01-27T10:27:06.000Z</time>
        <extensions>
          <ns3:TrackPointExtension>
            <ns3:hr>156</ns3:hr>
            <ns3:cad>93</ns3:cad>
          </ns3:TrackPointExtension>
        </extensions>
      </trkpt>
      <trkpt lat="43.8306934945285320281982421875" lon="4.26387883722782135009765625">
        <ele>111.8000030517578125</ele>
        <time>2024-01-27T10:27:07.000Z</time>
        <extensions>
          <ns3:TrackPointExtension>
            <ns3:hr>156</ns3:hr>
            <ns3:cad>93</ns3:cad>
          </ns3:TrackPointExtension>
        </extensions>
      </trkpt>
      <trkpt lat="43.8306807540357112884521484375" lon="4.26390222273766994476318359375">
        <ele>111.8000030517578125</ele>
        <time>2024-01-27T10:27:08.000Z</time>
        <extensions>
          <ns3:TrackPointExtension>
            <ns3:hr>156</ns3:hr>
            <ns3:cad>93</ns3:cad>
          </ns3:TrackPointExtension>
        </extensions>
      </trkpt>
      <trkpt lat="43.83067094720900058746337890625" lon="4.26392200402915477752685546875">
        <ele>112</ele>
        <time>2024-01-27T10:27:09.000Z</time>
        <extensions>
          <ns3:TrackPointExtension>
            <ns3:hr>157</ns3:hr>
            <ns3:cad>92</ns3:cad>
          </ns3:TrackPointExtension>
        </extensions>
      </trkpt>
      <trkpt lat="43.830661810934543609619140625" lon="4.26394480280578136444091796875">
        <ele>112</ele>
        <time>2024-01-27T10:27:10.000Z</time>
        <extensions>
          <ns3:TrackPointExtension>
            <ns3:hr>157</ns3:hr>
            <ns3:cad>92</ns3:cad>
          </ns3:TrackPointExtension>
        </extensions>
      </trkpt>
      <trkpt lat="43.83065150119364261627197265625" lon="4.26397279836237430572509765625">
        <ele>112</ele>
        <time>2024-01-27T10:27:11.000Z</time>
        <extensions>
          <ns3:TrackPointExtension>
            <ns3:hr>157</ns3:hr>
            <ns3:cad>95</ns3:cad>
          </ns3:TrackPointExtension>
        </extensions>
      </trkpt>
      <trkpt lat="43.8306418620049953460693359375" lon="4.2639973573386669158935546875">
        <ele>112</ele>
        <time>2024-01-27T10:27:12.000Z</time>
        <extensions>
          <ns3:TrackPointExtension>
            <ns3:hr>158</ns3:hr>
            <ns3:cad>95</ns3:cad>
          </ns3:TrackPointExtension>
        </extensions>
      </trkpt>
      <trkpt lat="43.83063188754022121429443359375" lon="4.2640265263617038726806640625">
        <ele>112</ele>
        <time>2024-01-27T10:27:13.000Z</time>
        <extensions>
          <ns3:TrackPointExtension>
            <ns3:hr>158</ns3:hr>
            <ns3:cad>93</ns3:cad>
          </ns3:TrackPointExtension>
        </extensions>
      </trkpt>
      <trkpt lat="43.8306271098554134368896484375" lon="4.26405393518507480621337890625">
        <ele>112</ele>
        <time>2024-01-27T10:27:14.000Z</time>
        <extensions>
          <ns3:TrackPointExtension>
            <ns3:hr>160</ns3:hr>
            <ns3:cad>93</ns3:cad>
          </ns3:TrackPointExtension>
        </extensions>
      </trkpt>
      <trkpt lat="43.830620907247066497802734375" lon="4.264081679284572601318359375">
        <ele>112</ele>
        <time>2024-01-27T10:27:15.000Z</time>
        <extensions>
          <ns3:TrackPointExtension>
            <ns3:hr>160</ns3:hr>
            <ns3:cad>93</ns3:cad>
          </ns3:TrackPointExtension>
        </extensions>
      </trkpt>
      <trkpt lat="43.8306160457432270050048828125" lon="4.26410808227956295013427734375">
        <ele>112</ele>
        <time>2024-01-27T10:27:16.000Z</time>
        <extensions>
          <ns3:TrackPointExtension>
            <ns3:hr>160</ns3:hr>
            <ns3:cad>95</ns3:cad>
          </ns3:TrackPointExtension>
        </extensions>
      </trkpt>
      <trkpt lat="43.830610178411006927490234375" lon="4.26412962377071380615234375">
        <ele>112</ele>
        <time>2024-01-27T10:27:17.000Z</time>
        <extensions>
          <ns3:TrackPointExtension>
            <ns3:hr>160</ns3:hr>
            <ns3:cad>95</ns3:cad>
          </ns3:TrackPointExtension>
        </extensions>
      </trkpt>
      <trkpt lat="43.83060179650783538818359375" lon="4.264157116413116455078125">
        <ele>112</ele>
        <time>2024-01-27T10:27:18.000Z</time>
        <extensions>
          <ns3:TrackPointExtension>
            <ns3:hr>161</ns3:hr>
            <ns3:cad>95</ns3:cad>
          </ns3:TrackPointExtension>
        </extensions>
      </trkpt>
      <trkpt lat="43.83059919811785221099853515625" lon="4.2641770653426647186279296875">
        <ele>112</ele>
        <time>2024-01-27T10:27:19.000Z</time>
        <extensions>
          <ns3:TrackPointExtension>
            <ns3:hr>161</ns3:hr>
            <ns3:cad>95</ns3:cad>
          </ns3:TrackPointExtension>
        </extensions>
      </trkpt>
      <trkpt lat="43.8305875472724437713623046875" lon="4.26421134732663631439208984375">
        <ele>112</ele>
        <time>2024-01-27T10:27:20.000Z</time>
        <extensions>
          <ns3:TrackPointExtension>
            <ns3:hr>161</ns3:hr>
            <ns3:cad>95</ns3:cad>
          </ns3:TrackPointExtension>
        </extensions>
      </trkpt>
      <trkpt lat="43.830580003559589385986328125" lon="4.26423632539808750152587890625">
        <ele>112</ele>
        <time>2024-01-27T10:27:21.000Z</time>
        <extensions>
          <ns3:TrackPointExtension>
            <ns3:hr>161</ns3:hr>
            <ns3:cad>95</ns3:cad>
          </ns3:TrackPointExtension>
        </extensions>
      </trkpt>
      <trkpt lat="43.83057103492319583892822265625" lon="4.26426247693598270416259765625">
        <ele>112</ele>
        <time>2024-01-27T10:27:22.000Z</time>
        <extensions>
          <ns3:TrackPointExtension>
            <ns3:hr>161</ns3:hr>
            <ns3:cad>95</ns3:cad>
          </ns3:TrackPointExtension>
        </extensions>
      </trkpt>
      <trkpt lat="43.83056290447711944580078125" lon="4.2642887122929096221923828125">
        <ele>111.8000030517578125</ele>
        <time>2024-01-27T10:27:23.000Z</time>
        <extensions>
          <ns3:TrackPointExtension>
            <ns3:hr>161</ns3:hr>
            <ns3:cad>95</ns3:cad>
          </ns3:TrackPointExtension>
        </extensions>
      </trkpt>
      <trkpt lat="43.83055242709815502166748046875" lon="4.26431628875434398651123046875">
        <ele>111.8000030517578125</ele>
        <time>2024-01-27T10:27:24.000Z</time>
        <extensions>
          <ns3:TrackPointExtension>
            <ns3:hr>162</ns3:hr>
            <ns3:cad>94</ns3:cad>
          </ns3:TrackPointExtension>
        </extensions>
      </trkpt>
      <trkpt lat="43.83054086007177829742431640625" lon="4.2643571086227893829345703125">
        <ele>111.8000030517578125</ele>
        <time>2024-01-27T10:27:25.000Z</time>
        <extensions>
          <ns3:TrackPointExtension>
            <ns3:hr>162</ns3:hr>
            <ns3:cad>94</ns3:cad>
          </ns3:TrackPointExtension>
        </extensions>
      </trkpt>
      <trkpt lat="43.83053398691117763519287109375" lon="4.26438267342746257781982421875">
        <ele>111.8000030517578125</ele>
        <time>2024-01-27T10:27:26.000Z</time>
        <extensions>
          <ns3:TrackPointExtension>
            <ns3:hr>162</ns3:hr>
            <ns3:cad>94</ns3:cad>
          </ns3:TrackPointExtension>
        </extensions>
      </trkpt>
      <trkpt lat="43.83052040822803974151611328125" lon="4.2644226551055908203125">
        <ele>111.59999847412109375</ele>
        <time>2024-01-27T10:27:27.000Z</time>
        <extensions>
          <ns3:TrackPointExtension>
            <ns3:hr>162</ns3:hr>
            <ns3:cad>94</ns3:cad>
          </ns3:TrackPointExtension>
        </extensions>
      </trkpt>
      <trkpt lat="43.83051219396293163299560546875" lon="4.26444972865283489227294921875">
        <ele>111.59999847412109375</ele>
        <time>2024-01-27T10:27:28.000Z</time>
        <extensions>
          <ns3:TrackPointExtension>
            <ns3:hr>162</ns3:hr>
            <ns3:cad>93</ns3:cad>
          </ns3:TrackPointExtension>
        </extensions>
      </trkpt>
      <trkpt lat="43.83049928583204746246337890625" lon="4.26448191516101360321044921875">
        <ele>111.59999847412109375</ele>
        <time>2024-01-27T10:27:29.000Z</time>
        <extensions>
          <ns3:TrackPointExtension>
            <ns3:hr>162</ns3:hr>
            <ns3:cad>93</ns3:cad>
          </ns3:TrackPointExtension>
        </extensions>
      </trkpt>
      <trkpt lat="43.83048788644373416900634765625" lon="4.26451108418405055999755859375">
        <ele>111.40000152587890625</ele>
        <time>2024-01-27T10:27:30.000Z</time>
        <extensions>
          <ns3:TrackPointExtension>
            <ns3:hr>162</ns3:hr>
            <ns3:cad>94</ns3:cad>
          </ns3:TrackPointExtension>
        </extensions>
      </trkpt>
      <trkpt lat="43.8304688595235347747802734375" lon="4.26453622989356517791748046875">
        <ele>111.1999969482421875</ele>
        <time>2024-01-27T10:27:31.000Z</time>
        <extensions>
          <ns3:TrackPointExtension>
            <ns3:hr>162</ns3:hr>
            <ns3:cad>94</ns3:cad>
          </ns3:TrackPointExtension>
        </extensions>
      </trkpt>
      <trkpt lat="43.83045184426009654998779296875" lon="4.26455617882311344146728515625">
        <ele>111.1999969482421875</ele>
        <time>2024-01-27T10:27:32.000Z</time>
        <extensions>
          <ns3:TrackPointExtension>
            <ns3:hr>162</ns3:hr>
            <ns3:cad>94</ns3:cad>
          </ns3:TrackPointExtension>
        </extensions>
      </trkpt>
      <trkpt lat="43.830431811511516571044921875" lon="4.26456556655466556549072265625">
        <ele>111.1999969482421875</ele>
        <time>2024-01-27T10:27:33.000Z</time>
        <extensions>
          <ns3:TrackPointExtension>
            <ns3:hr>162</ns3:hr>
            <ns3:cad>94</ns3:cad>
          </ns3:TrackPointExtension>
        </extensions>
      </trkpt>
      <trkpt lat="43.83041345514357089996337890625" lon="4.2645741999149322509765625">
        <ele>111.1999969482421875</ele>
        <time>2024-01-27T10:27:34.000Z</time>
        <extensions>
          <ns3:TrackPointExtension>
            <ns3:hr>162</ns3:hr>
            <ns3:cad>91</ns3:cad>
          </ns3:TrackPointExtension>
        </extensions>
      </trkpt>
      <trkpt lat="43.8303944282233715057373046875" lon="4.26457847468554973602294921875">
        <ele>111.1999969482421875</ele>
        <time>2024-01-27T10:27:35.000Z</time>
        <extensions>
          <ns3:TrackPointExtension>
            <ns3:hr>163</ns3:hr>
            <ns3:cad>91</ns3:cad>
          </ns3:TrackPointExtension>
        </extensions>
      </trkpt>
      <trkpt lat="43.830374814569950103759765625" lon="4.26457914523780345916748046875">
        <ele>111.1999969482421875</ele>
        <time>2024-01-27T10:27:36.000Z</time>
        <extensions>
          <ns3:TrackPointExtension>
            <ns3:hr>163</ns3:hr>
            <ns3:cad>91</ns3:cad>
          </ns3:TrackPointExtension>
        </extensions>
      </trkpt>
      <trkpt lat="43.83035545237362384796142578125" lon="4.2645753733813762664794921875">
        <ele>111.1999969482421875</ele>
        <time>2024-01-27T10:27:37.000Z</time>
        <extensions>
          <ns3:TrackPointExtension>
            <ns3:hr>163</ns3:hr>
            <ns3:cad>92</ns3:cad>
          </ns3:TrackPointExtension>
        </extensions>
      </trkpt>
      <trkpt lat="43.8303302228450775146484375" lon="4.26457042805850505828857421875">
        <ele>111.1999969482421875</ele>
        <time>2024-01-27T10:27:38.000Z</time>
        <extensions>
          <ns3:TrackPointExtension>
            <ns3:hr>163</ns3:hr>
            <ns3:cad>93</ns3:cad>
          </ns3:TrackPointExtension>
        </extensions>
      </trkpt>
      <trkpt lat="43.83031069301068782806396484375" lon="4.26456824876368045806884765625">
        <ele>111.1999969482421875</ele>
        <time>2024-01-27T10:27:39.000Z</time>
        <extensions>
          <ns3:TrackPointExtension>
            <ns3:hr>163</ns3:hr>
            <ns3:cad>93</ns3:cad>
          </ns3:TrackPointExtension>
        </extensions>
      </trkpt>
      <trkpt lat="43.83028470911085605621337890625" lon="4.2645586095750331878662109375">
        <ele>111.1999969482421875</ele>
        <time>2024-01-27T10:27:40.000Z</time>
        <extensions>
          <ns3:TrackPointExtension>
            <ns3:hr>163</ns3:hr>
            <ns3:cad>92</ns3:cad>
          </ns3:TrackPointExtension>
        </extensions>
      </trkpt>
      <trkpt lat="43.83026123978197574615478515625" lon="4.2645545862615108489990234375">
        <ele>111.40000152587890625</ele>
        <time>2024-01-27T10:27:41.000Z</time>
        <extensions>
          <ns3:TrackPointExtension>
            <ns3:hr>163</ns3:hr>
            <ns3:cad>92</ns3:cad>
          </ns3:TrackPointExtension>
        </extensions>
      </trkpt>
      <trkpt lat="43.83023793809115886688232421875" lon="4.26454461179673671722412109375">
        <ele>111.40000152587890625</ele>
        <time>2024-01-27T10:27:42.000Z</time>
        <extensions>
          <ns3:TrackPointExtension>
            <ns3:hr>163</ns3:hr>
            <ns3:cad>92</ns3:cad>
          </ns3:TrackPointExtension>
        </extensions>
      </trkpt>
      <trkpt lat="43.830218575894832611083984375" lon="4.2645366489887237548828125">
        <ele>111.40000152587890625</ele>
        <time>2024-01-27T10:27:43.000Z</time>
        <extensions>
          <ns3:TrackPointExtension>
            <ns3:hr>163</ns3:hr>
            <ns3:cad>92</ns3:cad>
          </ns3:TrackPointExtension>
        </extensions>
      </trkpt>
      <trkpt lat="43.83019820787012577056884765625" lon="4.26452013663947582244873046875">
        <ele>111.40000152587890625</ele>
        <time>2024-01-27T10:27:44.000Z</time>
        <extensions>
          <ns3:TrackPointExtension>
            <ns3:hr>163</ns3:hr>
            <ns3:cad>92</ns3:cad>
          </ns3:TrackPointExtension>
        </extensions>
      </trkpt>
      <trkpt lat="43.8301741518080234527587890625" lon="4.2645071446895599365234375">
        <ele>111.59999847412109375</ele>
        <time>2024-01-27T10:27:45.000Z</time>
        <extensions>
          <ns3:TrackPointExtension>
            <ns3:hr>163</ns3:hr>
            <ns3:cad>92</ns3:cad>
          </ns3:TrackPointExtension>
        </extensions>
      </trkpt>
      <trkpt lat="43.83015043102204799652099609375" lon="4.2644902132451534271240234375">
        <ele>111.59999847412109375</ele>
        <time>2024-01-27T10:27:46.000Z</time>
        <extensions>
          <ns3:TrackPointExtension>
            <ns3:hr>163</ns3:hr>
            <ns3:cad>93</ns3:cad>
          </ns3:TrackPointExtension>
        </extensions>
      </trkpt>
      <trkpt lat="43.83012763224542140960693359375" lon="4.26447118632495403289794921875">
        <ele>111.59999847412109375</ele>
        <time>2024-01-27T10:27:47.000Z</time>
        <extensions>
          <ns3:TrackPointExtension>
            <ns3:hr>162</ns3:hr>
            <ns3:cad>92</ns3:cad>
          </ns3:TrackPointExtension>
        </extensions>
      </trkpt>
      <trkpt lat="43.8301081024110317230224609375" lon="4.26445308141410350799560546875">
        <ele>111.59999847412109375</ele>
        <time>2024-01-27T10:27:48.000Z</time>
        <extensions>
          <ns3:TrackPointExtension>
            <ns3:hr>162</ns3:hr>
            <ns3:cad>93</ns3:cad>
          </ns3:TrackPointExtension>
        </extensions>
      </trkpt>
      <trkpt lat="43.83008739911019802093505859375" lon="4.26443673670291900634765625">
        <ele>111.59999847412109375</ele>
        <time>2024-01-27T10:27:49.000Z</time>
        <extensions>
          <ns3:TrackPointExtension>
            <ns3:hr>161</ns3:hr>
            <ns3:cad>92</ns3:cad>
          </ns3:TrackPointExtension>
        </extensions>
      </trkpt>
      <trkpt lat="43.8300718925893306732177734375" lon="4.26441930234432220458984375">
        <ele>111.59999847412109375</ele>
        <time>2024-01-27T10:27:50.000Z</time>
        <extensions>
          <ns3:TrackPointExtension>
            <ns3:hr>161</ns3:hr>
            <ns3:cad>93</ns3:cad>
          </ns3:TrackPointExtension>
        </extensions>
      </trkpt>
      <trkpt lat="43.8300551287829875946044921875" lon="4.26440128125250339508056640625">
        <ele>111.40000152587890625</ele>
        <time>2024-01-27T10:27:51.000Z</time>
        <extensions>
          <ns3:TrackPointExtension>
            <ns3:hr>160</ns3:hr>
            <ns3:cad>93</ns3:cad>
          </ns3:TrackPointExtension>
        </extensions>
      </trkpt>
      <trkpt lat="43.83003987371921539306640625" lon="4.264384768903255462646484375">
        <ele>111.40000152587890625</ele>
        <time>2024-01-27T10:27:52.000Z</time>
        <extensions>
          <ns3:TrackPointExtension>
            <ns3:hr>159</ns3:hr>
            <ns3:cad>93</ns3:cad>
          </ns3:TrackPointExtension>
        </extensions>
      </trkpt>
      <trkpt lat="43.83002185262739658355712890625" lon="4.2643644846975803375244140625">
        <ele>111.1999969482421875</ele>
        <time>2024-01-27T10:27:53.000Z</time>
        <extensions>
          <ns3:TrackPointExtension>
            <ns3:hr>159</ns3:hr>
            <ns3:cad>93</ns3:cad>
          </ns3:TrackPointExtension>
        </extensions>
      </trkpt>
      <trkpt lat="43.83000777103006839752197265625" lon="4.2643483914434909820556640625">
        <ele>111.1999969482421875</ele>
        <time>2024-01-27T10:27:54.000Z</time>
        <extensions>
          <ns3:TrackPointExtension>
            <ns3:hr>159</ns3:hr>
            <ns3:cad>93</ns3:cad>
          </ns3:TrackPointExtension>
        </extensions>
      </trkpt>
      <trkpt lat="43.829989247024059295654296875" lon="4.26432299427688121795654296875">
        <ele>111.1999969482421875</ele>
        <time>2024-01-27T10:27:55.000Z</time>
        <extensions>
          <ns3:TrackPointExtension>
            <ns3:hr>159</ns3:hr>
            <ns3:cad>93</ns3:cad>
          </ns3:TrackPointExtension>
        </extensions>
      </trkpt>
      <trkpt lat="43.82997105829417705535888671875" lon="4.26430203951895236968994140625">
        <ele>111.1999969482421875</ele>
        <time>2024-01-27T10:27:56.000Z</time>
        <extensions>
          <ns3:TrackPointExtension>
            <ns3:hr>159</ns3:hr>
            <ns3:cad>93</ns3:cad>
          </ns3:TrackPointExtension>
        </extensions>
      </trkpt>
      <trkpt lat="43.82995949126780033111572265625" lon="4.26429030485451221466064453125">
        <ele>111.1999969482421875</ele>
        <time>2024-01-27T10:27:57.000Z</time>
        <extensions>
          <ns3:TrackPointExtension>
            <ns3:hr>159</ns3:hr>
            <ns3:cad>93</ns3:cad>
          </ns3:TrackPointExtension>
        </extensions>
      </trkpt>
      <trkpt lat="43.829947002232074737548828125" lon="4.26427873782813549041748046875">
        <ele>111.1999969482421875</ele>
        <time>2024-01-27T10:27:58.000Z</time>
        <extensions>
          <ns3:TrackPointExtension>
            <ns3:hr>159</ns3:hr>
            <ns3:cad>92</ns3:cad>
          </ns3:TrackPointExtension>
        </extensions>
      </trkpt>
      <trkpt lat="43.8299391232430934906005859375" lon="4.26427287049591541290283203125">
        <ele>111</ele>
        <time>2024-01-27T10:27:59.000Z</time>
        <extensions>
          <ns3:TrackPointExtension>
            <ns3:hr>159</ns3:hr>
            <ns3:cad>92</ns3:cad>
          </ns3:TrackPointExtension>
        </extensions>
      </trkpt>
      <trkpt lat="43.82993132807314395904541015625" lon="4.26427136175334453582763671875">
        <ele>111</ele>
        <time>2024-01-27T10:28:00.000Z</time>
        <extensions>
          <ns3:TrackPointExtension>
            <ns3:hr>159</ns3:hr>
            <ns3:cad>46</ns3:cad>
          </ns3:TrackPointExtension>
        </extensions>
      </trkpt>
      <trkpt lat="43.82992160506546497344970703125" lon="4.26427186466753482818603515625">
        <ele>110.8000030517578125</ele>
        <time>2024-01-27T10:28:01.000Z</time>
        <extensions>
          <ns3:TrackPointExtension>
            <ns3:hr>160</ns3:hr>
            <ns3:cad>46</ns3:cad>
          </ns3:TrackPointExtension>
        </extensions>
      </trkpt>
      <trkpt lat="43.82991305552423000335693359375" lon="4.2642779834568500518798828125">
        <ele>110.59999847412109375</ele>
        <time>2024-01-27T10:28:02.000Z</time>
        <extensions>
          <ns3:TrackPointExtension>
            <ns3:hr>160</ns3:hr>
            <ns3:cad>46</ns3:cad>
          </ns3:TrackPointExtension>
        </extensions>
      </trkpt>
      <trkpt lat="43.8299032486975193023681640625" lon="4.26428510807454586029052734375">
        <ele>110.40000152587890625</ele>
        <time>2024-01-27T10:28:03.000Z</time>
        <extensions>
          <ns3:TrackPointExtension>
            <ns3:hr>160</ns3:hr>
            <ns3:cad>66</ns3:cad>
          </ns3:TrackPointExtension>
        </extensions>
      </trkpt>
      <trkpt lat="43.82989042438566684722900390625" lon="4.26429600454866886138916015625">
        <ele>110.1999969482421875</ele>
        <time>2024-01-27T10:28:04.000Z</time>
        <extensions>
          <ns3:TrackPointExtension>
            <ns3:hr>160</ns3:hr>
            <ns3:cad>66</ns3:cad>
          </ns3:TrackPointExtension>
        </extensions>
      </trkpt>
      <trkpt lat="43.82988204248249530792236328125" lon="4.2643027938902378082275390625">
        <ele>110</ele>
        <time>2024-01-27T10:28:05.000Z</time>
        <extensions>
          <ns3:TrackPointExtension>
            <ns3:hr>160</ns3:hr>
            <ns3:cad>65</ns3:cad>
          </ns3:TrackPointExtension>
        </extensions>
      </trkpt>
      <trkpt lat="43.82986863143742084503173828125" lon="4.26432299427688121795654296875">
        <ele>109.59999847412109375</ele>
        <time>2024-01-27T10:28:06.000Z</time>
        <extensions>
          <ns3:TrackPointExtension>
            <ns3:hr>160</ns3:hr>
            <ns3:cad>65</ns3:cad>
          </ns3:TrackPointExtension>
        </extensions>
      </trkpt>
      <trkpt lat="43.82986494340002536773681640625" lon="4.264340512454509735107421875">
        <ele>109</ele>
        <time>2024-01-27T10:28:07.000Z</time>
        <extensions>
          <ns3:TrackPointExtension>
            <ns3:hr>159</ns3:hr>
            <ns3:cad>79</ns3:cad>
          </ns3:TrackPointExtension>
        </extensions>
      </trkpt>
      <trkpt lat="43.829863853752613067626953125" lon="4.26435668952763080596923828125">
        <ele>108.40000152587890625</ele>
        <time>2024-01-27T10:28:08.000Z</time>
        <extensions>
          <ns3:TrackPointExtension>
            <ns3:hr>158</ns3:hr>
            <ns3:cad>79</ns3:cad>
          </ns3:TrackPointExtension>
        </extensions>
      </trkpt>
      <trkpt lat="43.8298594951629638671875" lon="4.26437378861010074615478515625">
        <ele>108.1999969482421875</ele>
        <time>2024-01-27T10:28:09.000Z</time>
        <extensions>
          <ns3:TrackPointExtension>
            <ns3:hr>157</ns3:hr>
            <ns3:cad>79</ns3:cad>
          </ns3:TrackPointExtension>
        </extensions>
      </trkpt>
      <trkpt lat="43.82985421456396579742431640625" lon="4.2643859423696994781494140625">
        <ele>108</ele>
        <time>2024-01-27T10:28:10.000Z</time>
        <extensions>
          <ns3:TrackPointExtension>
            <ns3:hr>157</ns3:hr>
            <ns3:cad>79</ns3:cad>
          </ns3:TrackPointExtension>
        </extensions>
      </trkpt>
      <trkpt lat="43.829849101603031158447265625" lon="4.2643918097019195556640625">
        <ele>108</ele>
        <time>2024-01-27T10:28:11.000Z</time>
        <extensions>
          <ns3:TrackPointExtension>
            <ns3:hr>156</ns3:hr>
            <ns3:cad>79</ns3:cad>
          </ns3:TrackPointExtension>
        </extensions>
      </trkpt>
      <trkpt lat="43.82984147407114505767822265625" lon="4.2643899656832218170166015625">
        <ele>107.8000030517578125</ele>
        <time>2024-01-27T10:28:12.000Z</time>
        <extensions>
          <ns3:TrackPointExtension>
            <ns3:hr>155</ns3:hr>
            <ns3:cad>79</ns3:cad>
          </ns3:TrackPointExtension>
        </extensions>
      </trkpt>
      <trkpt lat="43.82982135750353336334228515625" lon="4.26438401453197002410888671875">
        <ele>107.40000152587890625</ele>
        <time>2024-01-27T10:28:13.000Z</time>
        <extensions>
          <ns3:TrackPointExtension>
            <ns3:hr>155</ns3:hr>
            <ns3:cad>0</ns3:cad>
          </ns3:TrackPointExtension>
        </extensions>
      </trkpt>
      <trkpt lat="43.8297979719936847686767578125" lon="4.2643676698207855224609375">
        <ele>107</ele>
        <time>2024-01-27T10:28:14.000Z</time>
        <extensions>
          <ns3:TrackPointExtension>
            <ns3:hr>154</ns3:hr>
            <ns3:cad>0</ns3:cad>
          </ns3:TrackPointExtension>
        </extensions>
      </trkpt>
      <trkpt lat="43.8297731615602970123291015625" lon="4.2643403448164463043212890625">
        <ele>106.40000152587890625</ele>
        <time>2024-01-27T10:28:15.000Z</time>
        <extensions>
          <ns3:TrackPointExtension>
            <ns3:hr>154</ns3:hr>
            <ns3:cad>0</ns3:cad>
          </ns3:TrackPointExtension>
        </extensions>
      </trkpt>
      <trkpt lat="43.8297522068023681640625" lon="4.26431293599307537078857421875">
        <ele>106</ele>
        <time>2024-01-27T10:28:16.000Z</time>
        <extensions>
          <ns3:TrackPointExtension>
            <ns3:hr>153</ns3:hr>
            <ns3:cad>0</ns3:cad>
          </ns3:TrackPointExtension>
        </extensions>
      </trkpt>
      <trkpt lat="43.82973737083375453948974609375" lon="4.26428259350359439849853515625">
        <ele>105.8000030517578125</ele>
        <time>2024-01-27T10:28:17.000Z</time>
        <extensions>
          <ns3:TrackPointExtension>
            <ns3:hr>153</ns3:hr>
            <ns3:cad>90</ns3:cad>
          </ns3:TrackPointExtension>
        </extensions>
      </trkpt>
      <trkpt lat="43.82972211576998233795166015625" lon="4.26425702869892120361328125">
        <ele>105.59999847412109375</ele>
        <time>2024-01-27T10:28:18.000Z</time>
        <extensions>
          <ns3:TrackPointExtension>
            <ns3:hr>153</ns3:hr>
            <ns3:cad>90</ns3:cad>
          </ns3:TrackPointExtension>
        </extensions>
      </trkpt>
      <trkpt lat="43.8297097943723201751708984375" lon="4.2642320506274700164794921875">
        <ele>105.59999847412109375</ele>
        <time>2024-01-27T10:28:19.000Z</time>
        <extensions>
          <ns3:TrackPointExtension>
            <ns3:hr>153</ns3:hr>
            <ns3:cad>90</ns3:cad>
          </ns3:TrackPointExtension>
        </extensions>
      </trkpt>
      <trkpt lat="43.829695880413055419921875" lon="4.2642058990895748138427734375">
        <ele>105.59999847412109375</ele>
        <time>2024-01-27T10:28:20.000Z</time>
        <extensions>
          <ns3:TrackPointExtension>
            <ns3:hr>154</ns3:hr>
            <ns3:cad>90</ns3:cad>
          </ns3:TrackPointExtension>
        </extensions>
      </trkpt>
      <trkpt lat="43.82968313992023468017578125" lon="4.26417899318039417266845703125">
        <ele>105.59999847412109375</ele>
        <time>2024-01-27T10:28:21.000Z</time>
        <extensions>
          <ns3:TrackPointExtension>
            <ns3:hr>154</ns3:hr>
            <ns3:cad>90</ns3:cad>
          </ns3:TrackPointExtension>
        </extensions>
      </trkpt>
      <trkpt lat="43.82966562174260616302490234375" lon="4.264148734509944915771484375">
        <ele>105.8000030517578125</ele>
        <time>2024-01-27T10:28:22.000Z</time>
        <extensions>
          <ns3:TrackPointExtension>
            <ns3:hr>154</ns3:hr>
            <ns3:cad>91</ns3:cad>
          </ns3:TrackPointExtension>
        </extensions>
      </trkpt>
      <trkpt lat="43.82965003140270709991455078125" lon="4.26412886939942836761474609375">
        <ele>105.8000030517578125</ele>
        <time>2024-01-27T10:28:23.000Z</time>
        <extensions>
          <ns3:TrackPointExtension>
            <ns3:hr>154</ns3:hr>
            <ns3:cad>92</ns3:cad>
          </ns3:TrackPointExtension>
        </extensions>
      </trkpt>
      <trkpt lat="43.8296286575496196746826171875" lon="4.26410682499408721923828125">
        <ele>106.1999969482421875</ele>
        <time>2024-01-27T10:28:24.000Z</time>
        <extensions>
          <ns3:TrackPointExtension>
            <ns3:hr>154</ns3:hr>
            <ns3:cad>92</ns3:cad>
          </ns3:TrackPointExtension>
        </extensions>
      </trkpt>
      <trkpt lat="43.82961264811456203460693359375" lon="4.26409542560577392578125">
        <ele>106.40000152587890625</ele>
        <time>2024-01-27T10:28:25.000Z</time>
        <extensions>
          <ns3:TrackPointExtension>
            <ns3:hr>154</ns3:hr>
            <ns3:cad>92</ns3:cad>
          </ns3:TrackPointExtension>
        </extensions>
      </trkpt>
      <trkpt lat="43.8295924477279186248779296875" lon="4.2640753090381622314453125">
        <ele>106.40000152587890625</ele>
        <time>2024-01-27T10:28:26.000Z</time>
        <extensions>
          <ns3:TrackPointExtension>
            <ns3:hr>155</ns3:hr>
            <ns3:cad>92</ns3:cad>
          </ns3:TrackPointExtension>
        </extensions>
      </trkpt>
      <trkpt lat="43.8295783661305904388427734375" lon="4.2640657536685466766357421875">
        <ele>106.59999847412109375</ele>
        <time>2024-01-27T10:28:27.000Z</time>
        <extensions>
          <ns3:TrackPointExtension>
            <ns3:hr>155</ns3:hr>
            <ns3:cad>93</ns3:cad>
          </ns3:TrackPointExtension>
        </extensions>
      </trkpt>
      <trkpt lat="43.8295538909733295440673828125" lon="4.26404505036771297454833984375">
        <ele>106.59999847412109375</ele>
        <time>2024-01-27T10:28:28.000Z</time>
        <extensions>
          <ns3:TrackPointExtension>
            <ns3:hr>155</ns3:hr>
            <ns3:cad>93</ns3:cad>
          </ns3:TrackPointExtension>
        </extensions>
      </trkpt>
      <trkpt lat="43.8295351155102252960205078125" lon="4.26403348334133625030517578125">
        <ele>106.8000030517578125</ele>
        <time>2024-01-27T10:28:29.000Z</time>
        <extensions>
          <ns3:TrackPointExtension>
            <ns3:hr>155</ns3:hr>
            <ns3:cad>93</ns3:cad>
          </ns3:TrackPointExtension>
        </extensions>
      </trkpt>
      <trkpt lat="43.8295089639723300933837890625" lon="4.26401671953499317169189453125">
        <ele>106.8000030517578125</ele>
        <time>2024-01-27T10:28:30.000Z</time>
        <extensions>
          <ns3:TrackPointExtension>
            <ns3:hr>155</ns3:hr>
            <ns3:cad>93</ns3:cad>
          </ns3:TrackPointExtension>
        </extensions>
      </trkpt>
      <trkpt lat="43.8294895179569721221923828125" lon="4.26401101984083652496337890625">
        <ele>106.8000030517578125</ele>
        <time>2024-01-27T10:28:31.000Z</time>
        <extensions>
          <ns3:TrackPointExtension>
            <ns3:hr>156</ns3:hr>
            <ns3:cad>93</ns3:cad>
          </ns3:TrackPointExtension>
        </extensions>
      </trkpt>
      <trkpt lat="43.82946697063744068145751953125" lon="4.26400221884250640869140625">
        <ele>106.8000030517578125</ele>
        <time>2024-01-27T10:28:32.000Z</time>
        <extensions>
          <ns3:TrackPointExtension>
            <ns3:hr>156</ns3:hr>
            <ns3:cad>93</ns3:cad>
          </ns3:TrackPointExtension>
        </extensions>
      </trkpt>
      <trkpt lat="43.8294462673366069793701171875" lon="4.26399844698607921600341796875">
        <ele>106.8000030517578125</ele>
        <time>2024-01-27T10:28:33.000Z</time>
        <extensions>
          <ns3:TrackPointExtension>
            <ns3:hr>156</ns3:hr>
            <ns3:cad>93</ns3:cad>
          </ns3:TrackPointExtension>
        </extensions>
      </trkpt>
      <trkpt lat="43.82942338474094867706298828125" lon="4.263990819454193115234375">
        <ele>107</ele>
        <time>2024-01-27T10:28:34.000Z</time>
        <extensions>
          <ns3:TrackPointExtension>
            <ns3:hr>156</ns3:hr>
            <ns3:cad>93</ns3:cad>
          </ns3:TrackPointExtension>
        </extensions>
      </trkpt>
      <trkpt lat="43.82940326817333698272705078125" lon="4.26398671232163906097412109375">
        <ele>107</ele>
        <time>2024-01-27T10:28:35.000Z</time>
        <extensions>
          <ns3:TrackPointExtension>
            <ns3:hr>157</ns3:hr>
            <ns3:cad>93</ns3:cad>
          </ns3:TrackPointExtension>
        </extensions>
      </trkpt>
      <trkpt lat="43.829379044473171234130859375" lon="4.26397682167589664459228515625">
        <ele>106.8000030517578125</ele>
        <time>2024-01-27T10:28:36.000Z</time>
        <extensions>
          <ns3:TrackPointExtension>
            <ns3:hr>157</ns3:hr>
            <ns3:cad>93</ns3:cad>
          </ns3:TrackPointExtension>
        </extensions>
      </trkpt>
      <trkpt lat="43.82935599423944950103759765625" lon="4.2639722116291522979736328125">
        <ele>106.8000030517578125</ele>
        <time>2024-01-27T10:28:37.000Z</time>
        <extensions>
          <ns3:TrackPointExtension>
            <ns3:hr>157</ns3:hr>
            <ns3:cad>92</ns3:cad>
          </ns3:TrackPointExtension>
        </extensions>
      </trkpt>
      <trkpt lat="43.82932933978736400604248046875" lon="4.26396491937339305877685546875">
        <ele>106.8000030517578125</ele>
        <time>2024-01-27T10:28:38.000Z</time>
        <extensions>
          <ns3:TrackPointExtension>
            <ns3:hr>157</ns3:hr>
            <ns3:cad>92</ns3:cad>
          </ns3:TrackPointExtension>
        </extensions>
      </trkpt>
      <trkpt lat="43.82930771447718143463134765625" lon="4.263960979878902435302734375">
        <ele>106.59999847412109375</ele>
        <time>2024-01-27T10:28:39.000Z</time>
        <extensions>
          <ns3:TrackPointExtension>
            <ns3:hr>157</ns3:hr>
            <ns3:cad>92</ns3:cad>
          </ns3:TrackPointExtension>
        </extensions>
      </trkpt>
      <trkpt lat="43.82928173057734966278076171875" lon="4.2639588005840778350830078125">
        <ele>106.59999847412109375</ele>
        <time>2024-01-27T10:28:40.000Z</time>
        <extensions>
          <ns3:TrackPointExtension>
            <ns3:hr>157</ns3:hr>
            <ns3:cad>92</ns3:cad>
          </ns3:TrackPointExtension>
        </extensions>
      </trkpt>
      <trkpt lat="43.82925759069621562957763671875" lon="4.2639520950615406036376953125">
        <ele>106.59999847412109375</ele>
        <time>2024-01-27T10:28:41.000Z</time>
        <extensions>
          <ns3:TrackPointExtension>
            <ns3:hr>157</ns3:hr>
            <ns3:cad>91</ns3:cad>
          </ns3:TrackPointExtension>
        </extensions>
      </trkpt>
      <trkpt lat="43.82923445664346218109130859375" lon="4.26394580863416194915771484375">
        <ele>106.59999847412109375</ele>
        <time>2024-01-27T10:28:42.000Z</time>
        <extensions>
          <ns3:TrackPointExtension>
            <ns3:hr>157</ns3:hr>
            <ns3:cad>91</ns3:cad>
          </ns3:TrackPointExtension>
        </extensions>
      </trkpt>
      <trkpt lat="43.82921383716166019439697265625" lon="4.26393776200711727142333984375">
        <ele>106.8000030517578125</ele>
        <time>2024-01-27T10:28:43.000Z</time>
        <extensions>
          <ns3:TrackPointExtension>
            <ns3:hr>157</ns3:hr>
            <ns3:cad>92</ns3:cad>
          </ns3:TrackPointExtension>
        </extensions>
      </trkpt>
      <trkpt lat="43.82919137366116046905517578125" lon="4.26393105648458003997802734375">
        <ele>106.8000030517578125</ele>
        <time>2024-01-27T10:28:44.000Z</time>
        <extensions>
          <ns3:TrackPointExtension>
            <ns3:hr>156</ns3:hr>
            <ns3:cad>92</ns3:cad>
          </ns3:TrackPointExtension>
        </extensions>
      </trkpt>
      <trkpt lat="43.82916807197034358978271484375" lon="4.263922758400440216064453125">
        <ele>106.8000030517578125</ele>
        <time>2024-01-27T10:28:45.000Z</time>
        <extensions>
          <ns3:TrackPointExtension>
            <ns3:hr>155</ns3:hr>
            <ns3:cad>92</ns3:cad>
          </ns3:TrackPointExtension>
        </extensions>
      </trkpt>
      <trkpt lat="43.829147033393383026123046875" lon="4.2639170587062835693359375">
        <ele>107</ele>
        <time>2024-01-27T10:28:46.000Z</time>
        <extensions>
          <ns3:TrackPointExtension>
            <ns3:hr>155</ns3:hr>
            <ns3:cad>92</ns3:cad>
          </ns3:TrackPointExtension>
        </extensions>
      </trkpt>
      <trkpt lat="43.829127587378025054931640625" lon="4.263911359012126922607421875">
        <ele>107.40000152587890625</ele>
        <time>2024-01-27T10:28:47.000Z</time>
        <extensions>
          <ns3:TrackPointExtension>
            <ns3:hr>155</ns3:hr>
            <ns3:cad>93</ns3:cad>
          </ns3:TrackPointExtension>
        </extensions>
      </trkpt>
      <trkpt lat="43.82910504005849361419677734375" lon="4.26390473730862140655517578125">
        <ele>107.40000152587890625</ele>
        <time>2024-01-27T10:28:48.000Z</time>
        <extensions>
          <ns3:TrackPointExtension>
            <ns3:hr>155</ns3:hr>
            <ns3:cad>93</ns3:cad>
          </ns3:TrackPointExtension>
        </extensions>
      </trkpt>
      <trkpt lat="43.8290841691195964813232421875" lon="4.26389652304351329803466796875">
        <ele>107.40000152587890625</ele>
        <time>2024-01-27T10:28:49.000Z</time>
        <extensions>
          <ns3:TrackPointExtension>
            <ns3:hr>155</ns3:hr>
            <ns3:cad>95</ns3:cad>
          </ns3:TrackPointExtension>
        </extensions>
      </trkpt>
      <trkpt lat="43.829059191048145294189453125" lon="4.26388914696872234344482421875">
        <ele>107.40000152587890625</ele>
        <time>2024-01-27T10:28:50.000Z</time>
        <extensions>
          <ns3:TrackPointExtension>
            <ns3:hr>155</ns3:hr>
            <ns3:cad>95</ns3:cad>
          </ns3:TrackPointExtension>
        </extensions>
      </trkpt>
      <trkpt lat="43.829041756689548492431640625" lon="4.263884536921977996826171875">
        <ele>107.40000152587890625</ele>
        <time>2024-01-27T10:28:51.000Z</time>
        <extensions>
          <ns3:TrackPointExtension>
            <ns3:hr>156</ns3:hr>
            <ns3:cad>94</ns3:cad>
          </ns3:TrackPointExtension>
        </extensions>
      </trkpt>
      <trkpt lat="43.829020299017429351806640625" lon="4.263869114220142364501953125">
        <ele>107.40000152587890625</ele>
        <time>2024-01-27T10:28:52.000Z</time>
        <extensions>
          <ns3:TrackPointExtension>
            <ns3:hr>156</ns3:hr>
            <ns3:cad>93</ns3:cad>
          </ns3:TrackPointExtension>
        </extensions>
      </trkpt>
      <trkpt lat="43.82899657823145389556884765625" lon="4.2638607323169708251953125">
        <ele>107.40000152587890625</ele>
        <time>2024-01-27T10:28:53.000Z</time>
        <extensions>
          <ns3:TrackPointExtension>
            <ns3:hr>156</ns3:hr>
            <ns3:cad>93</ns3:cad>
          </ns3:TrackPointExtension>
        </extensions>
      </trkpt>
      <trkpt lat="43.8289703428745269775390625" lon="4.2638555355370044708251953125">
        <ele>107.1999969482421875</ele>
        <time>2024-01-27T10:28:54.000Z</time>
        <extensions>
          <ns3:TrackPointExtension>
            <ns3:hr>156</ns3:hr>
            <ns3:cad>91</ns3:cad>
          </ns3:TrackPointExtension>
        </extensions>
      </trkpt>
      <trkpt lat="43.82894276641309261322021484375" lon="4.263855703175067901611328125">
        <ele>107</ele>
        <time>2024-01-27T10:28:55.000Z</time>
        <extensions>
          <ns3:TrackPointExtension>
            <ns3:hr>157</ns3:hr>
            <ns3:cad>91</ns3:cad>
          </ns3:TrackPointExtension>
        </extensions>
      </trkpt>
      <trkpt lat="43.828913681209087371826171875" lon="4.26386048085987567901611328125">
        <ele>107</ele>
        <time>2024-01-27T10:28:56.000Z</time>
        <extensions>
          <ns3:TrackPointExtension>
            <ns3:hr>157</ns3:hr>
            <ns3:cad>91</ns3:cad>
          </ns3:TrackPointExtension>
        </extensions>
      </trkpt>
      <trkpt lat="43.82889096625149250030517578125" lon="4.263863749802112579345703125">
        <ele>106.8000030517578125</ele>
        <time>2024-01-27T10:28:57.000Z</time>
        <extensions>
          <ns3:TrackPointExtension>
            <ns3:hr>157</ns3:hr>
            <ns3:cad>91</ns3:cad>
          </ns3:TrackPointExtension>
        </extensions>
      </trkpt>
      <trkpt lat="43.82886414416134357452392578125" lon="4.26385813392698764801025390625">
        <ele>106.59999847412109375</ele>
        <time>2024-01-27T10:28:58.000Z</time>
        <extensions>
          <ns3:TrackPointExtension>
            <ns3:hr>157</ns3:hr>
            <ns3:cad>91</ns3:cad>
          </ns3:TrackPointExtension>
        </extensions>
      </trkpt>
      <trkpt lat="43.82884251885116100311279296875" lon="4.26384774036705493927001953125">
        <ele>106.1999969482421875</ele>
        <time>2024-01-27T10:28:59.000Z</time>
        <extensions>
          <ns3:TrackPointExtension>
            <ns3:hr>157</ns3:hr>
            <ns3:cad>90</ns3:cad>
          </ns3:TrackPointExtension>
        </extensions>
      </trkpt>
      <trkpt lat="43.8288223184645175933837890625" lon="4.2638246901333332061767578125">
        <ele>106.1999969482421875</ele>
        <time>2024-01-27T10:29:00.000Z</time>
        <extensions>
          <ns3:TrackPointExtension>
            <ns3:hr>157</ns3:hr>
            <ns3:cad>88</ns3:cad>
          </ns3:TrackPointExtension>
        </extensions>
      </trkpt>
      <trkpt lat="43.8288072310388088226318359375" lon="4.263800717890262603759765625">
        <ele>105.8000030517578125</ele>
        <time>2024-01-27T10:29:01.000Z</time>
        <extensions>
          <ns3:TrackPointExtension>
            <ns3:hr>157</ns3:hr>
            <ns3:cad>88</ns3:cad>
          </ns3:TrackPointExtension>
        </extensions>
      </trkpt>
      <trkpt lat="43.82879734039306640625" lon="4.26376995630562305450439453125">
        <ele>105.40000152587890625</ele>
        <time>2024-01-27T10:29:02.000Z</time>
        <extensions>
          <ns3:TrackPointExtension>
            <ns3:hr>157</ns3:hr>
            <ns3:cad>88</ns3:cad>
          </ns3:TrackPointExtension>
        </extensions>
      </trkpt>
      <trkpt lat="43.828786276280879974365234375" lon="4.2637408711016178131103515625">
        <ele>105</ele>
        <time>2024-01-27T10:29:03.000Z</time>
        <extensions>
          <ns3:TrackPointExtension>
            <ns3:hr>157</ns3:hr>
            <ns3:cad>89</ns3:cad>
          </ns3:TrackPointExtension>
        </extensions>
      </trkpt>
      <trkpt lat="43.82877848111093044281005859375" lon="4.26369971595704555511474609375">
        <ele>104.8000030517578125</ele>
        <time>2024-01-27T10:29:04.000Z</time>
        <extensions>
          <ns3:TrackPointExtension>
            <ns3:hr>157</ns3:hr>
            <ns3:cad>90</ns3:cad>
          </ns3:TrackPointExtension>
        </extensions>
      </trkpt>
      <trkpt lat="43.828766830265522003173828125" lon="4.263666607439517974853515625">
        <ele>104.59999847412109375</ele>
        <time>2024-01-27T10:29:05.000Z</time>
        <extensions>
          <ns3:TrackPointExtension>
            <ns3:hr>157</ns3:hr>
            <ns3:cad>90</ns3:cad>
          </ns3:TrackPointExtension>
        </extensions>
      </trkpt>
      <trkpt lat="43.82875886745750904083251953125" lon="4.26362679339945316314697265625">
        <ele>104.1999969482421875</ele>
        <time>2024-01-27T10:29:06.000Z</time>
        <extensions>
          <ns3:TrackPointExtension>
            <ns3:hr>157</ns3:hr>
            <ns3:cad>90</ns3:cad>
          </ns3:TrackPointExtension>
        </extensions>
      </trkpt>
      <trkpt lat="43.8287502340972423553466796875" lon="4.26359728910028934478759765625">
        <ele>103.8000030517578125</ele>
        <time>2024-01-27T10:29:07.000Z</time>
        <extensions>
          <ns3:TrackPointExtension>
            <ns3:hr>157</ns3:hr>
            <ns3:cad>92</ns3:cad>
          </ns3:TrackPointExtension>
        </extensions>
      </trkpt>
      <trkpt lat="43.82874595932662487030029296875" lon="4.26356610842049121856689453125">
        <ele>103.1999969482421875</ele>
        <time>2024-01-27T10:29:08.000Z</time>
        <extensions>
          <ns3:TrackPointExtension>
            <ns3:hr>157</ns3:hr>
            <ns3:cad>92</ns3:cad>
          </ns3:TrackPointExtension>
        </extensions>
      </trkpt>
      <trkpt lat="43.8287482224404811859130859375" lon="4.26353140734136104583740234375">
        <ele>103</ele>
        <time>2024-01-27T10:29:09.000Z</time>
        <extensions>
          <ns3:TrackPointExtension>
            <ns3:hr>157</ns3:hr>
            <ns3:cad>92</ns3:cad>
          </ns3:TrackPointExtension>
        </extensions>
      </trkpt>
      <trkpt lat="43.82874629460275173187255859375" lon="4.2634991370141506195068359375">
        <ele>102.40000152587890625</ele>
        <time>2024-01-27T10:29:10.000Z</time>
        <extensions>
          <ns3:TrackPointExtension>
            <ns3:hr>157</ns3:hr>
            <ns3:cad>92</ns3:cad>
          </ns3:TrackPointExtension>
        </extensions>
      </trkpt>
      <trkpt lat="43.82874344475567340850830078125" lon="4.26346443593502044677734375">
        <ele>102.1999969482421875</ele>
        <time>2024-01-27T10:29:11.000Z</time>
        <extensions>
          <ns3:TrackPointExtension>
            <ns3:hr>157</ns3:hr>
            <ns3:cad>91</ns3:cad>
          </ns3:TrackPointExtension>
        </extensions>
      </trkpt>
      <trkpt lat="43.82874679751694202423095703125" lon="4.26342956721782684326171875">
        <ele>102.1999969482421875</ele>
        <time>2024-01-27T10:29:12.000Z</time>
        <extensions>
          <ns3:TrackPointExtension>
            <ns3:hr>157</ns3:hr>
            <ns3:cad>91</ns3:cad>
          </ns3:TrackPointExtension>
        </extensions>
      </trkpt>
      <trkpt lat="43.828744031488895416259765625" lon="4.263394363224506378173828125">
        <ele>102</ele>
        <time>2024-01-27T10:29:13.000Z</time>
        <extensions>
          <ns3:TrackPointExtension>
            <ns3:hr>157</ns3:hr>
            <ns3:cad>93</ns3:cad>
          </ns3:TrackPointExtension>
        </extensions>
      </trkpt>
      <trkpt lat="43.8287448696792125701904296875" lon="4.26336108706891536712646484375">
        <ele>101.8000030517578125</ele>
        <time>2024-01-27T10:29:14.000Z</time>
        <extensions>
          <ns3:TrackPointExtension>
            <ns3:hr>157</ns3:hr>
            <ns3:cad>93</ns3:cad>
          </ns3:TrackPointExtension>
        </extensions>
      </trkpt>
      <trkpt lat="43.82874445058405399322509765625" lon="4.26332236267626285552978515625">
        <ele>101.59999847412109375</ele>
        <time>2024-01-27T10:29:15.000Z</time>
        <extensions>
          <ns3:TrackPointExtension>
            <ns3:hr>156</ns3:hr>
            <ns3:cad>93</ns3:cad>
          </ns3:TrackPointExtension>
        </extensions>
      </trkpt>
      <trkpt lat="43.82874478586018085479736328125" lon="4.263296462595462799072265625">
        <ele>101.40000152587890625</ele>
        <time>2024-01-27T10:29:16.000Z</time>
        <extensions>
          <ns3:TrackPointExtension>
            <ns3:hr>156</ns3:hr>
            <ns3:cad>92</ns3:cad>
          </ns3:TrackPointExtension>
        </extensions>
      </trkpt>
      <trkpt lat="43.82874646224081516265869140625" lon="4.26325790584087371826171875">
        <ele>101.1999969482421875</ele>
        <time>2024-01-27T10:29:17.000Z</time>
        <extensions>
          <ns3:TrackPointExtension>
            <ns3:hr>156</ns3:hr>
            <ns3:cad>92</ns3:cad>
          </ns3:TrackPointExtension>
        </extensions>
      </trkpt>
      <trkpt lat="43.82874679751694202423095703125" lon="4.26322362385690212249755859375">
        <ele>101</ele>
        <time>2024-01-27T10:29:18.000Z</time>
        <extensions>
          <ns3:TrackPointExtension>
            <ns3:hr>156</ns3:hr>
            <ns3:cad>92</ns3:cad>
          </ns3:TrackPointExtension>
        </extensions>
      </trkpt>
      <trkpt lat="43.8287468813359737396240234375" lon="4.26318104378879070281982421875">
        <ele>100.8000030517578125</ele>
        <time>2024-01-27T10:29:19.000Z</time>
        <extensions>
          <ns3:TrackPointExtension>
            <ns3:hr>155</ns3:hr>
            <ns3:cad>92</ns3:cad>
          </ns3:TrackPointExtension>
        </extensions>
      </trkpt>
      <trkpt lat="43.8287441991269588470458984375" lon="4.2631504498422145843505859375">
        <ele>100.59999847412109375</ele>
        <time>2024-01-27T10:29:20.000Z</time>
        <extensions>
          <ns3:TrackPointExtension>
            <ns3:hr>155</ns3:hr>
            <ns3:cad>92</ns3:cad>
          </ns3:TrackPointExtension>
        </extensions>
      </trkpt>
      <trkpt lat="43.828743360936641693115234375" lon="4.26311147399246692657470703125">
        <ele>100.40000152587890625</ele>
        <time>2024-01-27T10:29:21.000Z</time>
        <extensions>
          <ns3:TrackPointExtension>
            <ns3:hr>154</ns3:hr>
            <ns3:cad>92</ns3:cad>
          </ns3:TrackPointExtension>
        </extensions>
      </trkpt>
      <trkpt lat="43.828740678727626800537109375" lon="4.2630743421614170074462890625">
        <ele>100.1999969482421875</ele>
        <time>2024-01-27T10:29:22.000Z</time>
        <extensions>
          <ns3:TrackPointExtension>
            <ns3:hr>154</ns3:hr>
            <ns3:cad>92</ns3:cad>
          </ns3:TrackPointExtension>
        </extensions>
      </trkpt>
      <trkpt lat="43.82873908616602420806884765625" lon="4.26303863525390625">
        <ele>100</ele>
        <time>2024-01-27T10:29:23.000Z</time>
        <extensions>
          <ns3:TrackPointExtension>
            <ns3:hr>154</ns3:hr>
            <ns3:cad>92</ns3:cad>
          </ns3:TrackPointExtension>
        </extensions>
      </trkpt>
      <trkpt lat="43.82873472757637500762939453125" lon="4.263001419603824615478515625">
        <ele>99.8000030517578125</ele>
        <time>2024-01-27T10:29:24.000Z</time>
        <extensions>
          <ns3:TrackPointExtension>
            <ns3:hr>153</ns3:hr>
            <ns3:cad>93</ns3:cad>
          </ns3:TrackPointExtension>
        </extensions>
      </trkpt>
      <trkpt lat="43.8287304528057575225830078125" lon="4.26296328194439411163330078125">
        <ele>99.59999847412109375</ele>
        <time>2024-01-27T10:29:25.000Z</time>
        <extensions>
          <ns3:TrackPointExtension>
            <ns3:hr>153</ns3:hr>
            <ns3:cad>93</ns3:cad>
          </ns3:TrackPointExtension>
        </extensions>
      </trkpt>
      <trkpt lat="43.82872533984482288360595703125" lon="4.2629246413707733154296875">
        <ele>99.40000152587890625</ele>
        <time>2024-01-27T10:29:26.000Z</time>
        <extensions>
          <ns3:TrackPointExtension>
            <ns3:hr>152</ns3:hr>
            <ns3:cad>93</ns3:cad>
          </ns3:TrackPointExtension>
        </extensions>
      </trkpt>
      <trkpt lat="43.82872148416936397552490234375" lon="4.2628924548625946044921875">
        <ele>99.1999969482421875</ele>
        <time>2024-01-27T10:29:27.000Z</time>
        <extensions>
          <ns3:TrackPointExtension>
            <ns3:hr>152</ns3:hr>
            <ns3:cad>93</ns3:cad>
          </ns3:TrackPointExtension>
        </extensions>
      </trkpt>
      <trkpt lat="43.8287163712084293365478515625" lon="4.26285649649798870086669921875">
        <ele>99</ele>
        <time>2024-01-27T10:29:28.000Z</time>
        <extensions>
          <ns3:TrackPointExtension>
            <ns3:hr>152</ns3:hr>
            <ns3:cad>93</ns3:cad>
          </ns3:TrackPointExtension>
        </extensions>
      </trkpt>
      <trkpt lat="43.82871218025684356689453125" lon="4.26282464526593685150146484375">
        <ele>98.8000030517578125</ele>
        <time>2024-01-27T10:29:29.000Z</time>
        <extensions>
          <ns3:TrackPointExtension>
            <ns3:hr>152</ns3:hr>
            <ns3:cad>92</ns3:cad>
          </ns3:TrackPointExtension>
        </extensions>
      </trkpt>
      <trkpt lat="43.82870555855333805084228515625" lon="4.2627940513193607330322265625">
        <ele>98.8000030517578125</ele>
        <time>2024-01-27T10:29:30.000Z</time>
        <extensions>
          <ns3:TrackPointExtension>
            <ns3:hr>152</ns3:hr>
            <ns3:cad>92</ns3:cad>
          </ns3:TrackPointExtension>
        </extensions>
      </trkpt>
      <trkpt lat="43.82868410088121891021728515625" lon="4.26276261918246746063232421875">
        <ele>98.59999847412109375</ele>
        <time>2024-01-27T10:29:31.000Z</time>
        <extensions>
          <ns3:TrackPointExtension>
            <ns3:hr>152</ns3:hr>
            <ns3:cad>91</ns3:cad>
          </ns3:TrackPointExtension>
        </extensions>
      </trkpt>
      <trkpt lat="43.82866658270359039306640625" lon="4.26272682845592498779296875">
        <ele>97.8000030517578125</ele>
        <time>2024-01-27T10:29:32.000Z</time>
        <extensions>
          <ns3:TrackPointExtension>
            <ns3:hr>152</ns3:hr>
            <ns3:cad>90</ns3:cad>
          </ns3:TrackPointExtension>
        </extensions>
      </trkpt>
      <trkpt lat="43.82864822633564472198486328125" lon="4.26269707269966602325439453125">
        <ele>97.40000152587890625</ele>
        <time>2024-01-27T10:29:33.000Z</time>
        <extensions>
          <ns3:TrackPointExtension>
            <ns3:hr>152</ns3:hr>
            <ns3:cad>90</ns3:cad>
          </ns3:TrackPointExtension>
        </extensions>
      </trkpt>
      <trkpt lat="43.8286305405199527740478515625" lon="4.2626693286001682281494140625">
        <ele>97.1999969482421875</ele>
        <time>2024-01-27T10:29:34.000Z</time>
        <extensions>
          <ns3:TrackPointExtension>
            <ns3:hr>152</ns3:hr>
            <ns3:cad>90</ns3:cad>
          </ns3:TrackPointExtension>
        </extensions>
      </trkpt>
      <trkpt lat="43.82861620746552944183349609375" lon="4.26264711655676364898681640625">
        <ele>97</ele>
        <time>2024-01-27T10:29:35.000Z</time>
        <extensions>
          <ns3:TrackPointExtension>
            <ns3:hr>152</ns3:hr>
            <ns3:cad>90</ns3:cad>
          </ns3:TrackPointExtension>
        </extensions>
      </trkpt>
      <trkpt lat="43.82860464043915271759033203125" lon="4.262621887028217315673828125">
        <ele>96.59999847412109375</ele>
        <time>2024-01-27T10:29:36.000Z</time>
        <extensions>
          <ns3:TrackPointExtension>
            <ns3:hr>152</ns3:hr>
            <ns3:cad>90</ns3:cad>
          </ns3:TrackPointExtension>
        </extensions>
      </trkpt>
      <trkpt lat="43.8285916484892368316650390625" lon="4.26259531639516353607177734375">
        <ele>96.59999847412109375</ele>
        <time>2024-01-27T10:29:37.000Z</time>
        <extensions>
          <ns3:TrackPointExtension>
            <ns3:hr>152</ns3:hr>
            <ns3:cad>91</ns3:cad>
          </ns3:TrackPointExtension>
        </extensions>
      </trkpt>
      <trkpt lat="43.82857806980609893798828125" lon="4.26256564445793628692626953125">
        <ele>96.40000152587890625</ele>
        <time>2024-01-27T10:29:38.000Z</time>
        <extensions>
          <ns3:TrackPointExtension>
            <ns3:hr>152</ns3:hr>
            <ns3:cad>91</ns3:cad>
          </ns3:TrackPointExtension>
        </extensions>
      </trkpt>
      <trkpt lat="43.8285628147423267364501953125" lon="4.2625422589480876922607421875">
        <ele>96.40000152587890625</ele>
        <time>2024-01-27T10:29:39.000Z</time>
        <extensions>
          <ns3:TrackPointExtension>
            <ns3:hr>152</ns3:hr>
            <ns3:cad>92</ns3:cad>
          </ns3:TrackPointExtension>
        </extensions>
      </trkpt>
      <trkpt lat="43.8285497389733791351318359375" lon="4.26251602359116077423095703125">
        <ele>96.1999969482421875</ele>
        <time>2024-01-27T10:29:40.000Z</time>
        <extensions>
          <ns3:TrackPointExtension>
            <ns3:hr>152</ns3:hr>
            <ns3:cad>92</ns3:cad>
          </ns3:TrackPointExtension>
        </extensions>
      </trkpt>
      <trkpt lat="43.82853423245251178741455078125" lon="4.26248920150101184844970703125">
        <ele>96</ele>
        <time>2024-01-27T10:29:41.000Z</time>
        <extensions>
          <ns3:TrackPointExtension>
            <ns3:hr>152</ns3:hr>
            <ns3:cad>93</ns3:cad>
          </ns3:TrackPointExtension>
        </extensions>
      </trkpt>
      <trkpt lat="43.82851696573197841644287109375" lon="4.26245986483991146087646484375">
        <ele>96</ele>
        <time>2024-01-27T10:29:42.000Z</time>
        <extensions>
          <ns3:TrackPointExtension>
            <ns3:hr>152</ns3:hr>
            <ns3:cad>93</ns3:cad>
          </ns3:TrackPointExtension>
        </extensions>
      </trkpt>
      <trkpt lat="43.82849936373531818389892578125" lon="4.2624292708933353424072265625">
        <ele>95.8000030517578125</ele>
        <time>2024-01-27T10:29:43.000Z</time>
        <extensions>
          <ns3:TrackPointExtension>
            <ns3:hr>152</ns3:hr>
            <ns3:cad>93</ns3:cad>
          </ns3:TrackPointExtension>
        </extensions>
      </trkpt>
      <trkpt lat="43.82848628796637058258056640625" lon="4.26240052096545696258544921875">
        <ele>95.8000030517578125</ele>
        <time>2024-01-27T10:29:44.000Z</time>
        <extensions>
          <ns3:TrackPointExtension>
            <ns3:hr>152</ns3:hr>
            <ns3:cad>92</ns3:cad>
          </ns3:TrackPointExtension>
        </extensions>
      </trkpt>
      <trkpt lat="43.8284686021506786346435546875" lon="4.2623746208846569061279296875">
        <ele>95.59999847412109375</ele>
        <time>2024-01-27T10:29:45.000Z</time>
        <extensions>
          <ns3:TrackPointExtension>
            <ns3:hr>152</ns3:hr>
            <ns3:cad>92</ns3:cad>
          </ns3:TrackPointExtension>
        </extensions>
      </trkpt>
      <trkpt lat="43.828455023467540740966796875" lon="4.26234888844192028045654296875">
        <ele>95.40000152587890625</ele>
        <time>2024-01-27T10:29:46.000Z</time>
        <extensions>
          <ns3:TrackPointExtension>
            <ns3:hr>152</ns3:hr>
            <ns3:cad>91</ns3:cad>
          </ns3:TrackPointExtension>
        </extensions>
      </trkpt>
      <trkpt lat="43.8284390978515148162841796875" lon="4.262320138514041900634765625">
        <ele>95.40000152587890625</ele>
        <time>2024-01-27T10:29:47.000Z</time>
        <extensions>
          <ns3:TrackPointExtension>
            <ns3:hr>152</ns3:hr>
            <ns3:cad>91</ns3:cad>
          </ns3:TrackPointExtension>
        </extensions>
      </trkpt>
      <trkpt lat="43.828424178063869476318359375" lon="4.2622970044612884521484375">
        <ele>95.1999969482421875</ele>
        <time>2024-01-27T10:29:48.000Z</time>
        <extensions>
          <ns3:TrackPointExtension>
            <ns3:hr>152</ns3:hr>
            <ns3:cad>92</ns3:cad>
          </ns3:TrackPointExtension>
        </extensions>
      </trkpt>
      <trkpt lat="43.828407414257526397705078125" lon="4.2622666619718074798583984375">
        <ele>95</ele>
        <time>2024-01-27T10:29:49.000Z</time>
        <extensions>
          <ns3:TrackPointExtension>
            <ns3:hr>151</ns3:hr>
            <ns3:cad>92</ns3:cad>
          </ns3:TrackPointExtension>
        </extensions>
      </trkpt>
      <trkpt lat="43.82839391939342021942138671875" lon="4.26224478520452976226806640625">
        <ele>95</ele>
        <time>2024-01-27T10:29:50.000Z</time>
        <extensions>
          <ns3:TrackPointExtension>
            <ns3:hr>151</ns3:hr>
            <ns3:cad>91</ns3:cad>
          </ns3:TrackPointExtension>
        </extensions>
      </trkpt>
      <trkpt lat="43.82837732322514057159423828125" lon="4.26221075467765331268310546875">
        <ele>94.8000030517578125</ele>
        <time>2024-01-27T10:29:51.000Z</time>
        <extensions>
          <ns3:TrackPointExtension>
            <ns3:hr>152</ns3:hr>
            <ns3:cad>91</ns3:cad>
          </ns3:TrackPointExtension>
        </extensions>
      </trkpt>
      <trkpt lat="43.82836357690393924713134765625" lon="4.262188374996185302734375">
        <ele>94.59999847412109375</ele>
        <time>2024-01-27T10:29:52.000Z</time>
        <extensions>
          <ns3:TrackPointExtension>
            <ns3:hr>152</ns3:hr>
            <ns3:cad>92</ns3:cad>
          </ns3:TrackPointExtension>
        </extensions>
      </trkpt>
      <trkpt lat="43.82834731601178646087646484375" lon="4.26215627230703830718994140625">
        <ele>94.59999847412109375</ele>
        <time>2024-01-27T10:29:53.000Z</time>
        <extensions>
          <ns3:TrackPointExtension>
            <ns3:hr>152</ns3:hr>
            <ns3:cad>92</ns3:cad>
          </ns3:TrackPointExtension>
        </extensions>
      </trkpt>
      <trkpt lat="43.8283324800431728363037109375" lon="4.26213406026363372802734375">
        <ele>94.40000152587890625</ele>
        <time>2024-01-27T10:29:54.000Z</time>
        <extensions>
          <ns3:TrackPointExtension>
            <ns3:hr>152</ns3:hr>
            <ns3:cad>92</ns3:cad>
          </ns3:TrackPointExtension>
        </extensions>
      </trkpt>
      <trkpt lat="43.82831831462681293487548828125" lon="4.2621057294309139251708984375">
        <ele>94.1999969482421875</ele>
        <time>2024-01-27T10:29:55.000Z</time>
        <extensions>
          <ns3:TrackPointExtension>
            <ns3:hr>152</ns3:hr>
            <ns3:cad>93</ns3:cad>
          </ns3:TrackPointExtension>
        </extensions>
      </trkpt>
      <trkpt lat="43.82830423302948474884033203125" lon="4.2620789073407649993896484375">
        <ele>94.1999969482421875</ele>
        <time>2024-01-27T10:29:56.000Z</time>
        <extensions>
          <ns3:TrackPointExtension>
            <ns3:hr>152</ns3:hr>
            <ns3:cad>93</ns3:cad>
          </ns3:TrackPointExtension>
        </extensions>
      </trkpt>
      <trkpt lat="43.82828914560377597808837890625" lon="4.26205300725996494293212890625">
        <ele>94</ele>
        <time>2024-01-27T10:29:57.000Z</time>
        <extensions>
          <ns3:TrackPointExtension>
            <ns3:hr>152</ns3:hr>
            <ns3:cad>92</ns3:cad>
          </ns3:TrackPointExtension>
        </extensions>
      </trkpt>
      <trkpt lat="43.8282731361687183380126953125" lon="4.2620234191417694091796875">
        <ele>93.8000030517578125</ele>
        <time>2024-01-27T10:29:58.000Z</time>
        <extensions>
          <ns3:TrackPointExtension>
            <ns3:hr>152</ns3:hr>
            <ns3:cad>92</ns3:cad>
          </ns3:TrackPointExtension>
        </extensions>
      </trkpt>
      <trkpt lat="43.8282590545713901519775390625" lon="4.26199458539485931396484375">
        <ele>93.59999847412109375</ele>
        <time>2024-01-27T10:29:59.000Z</time>
        <extensions>
          <ns3:TrackPointExtension>
            <ns3:hr>153</ns3:hr>
            <ns3:cad>93</ns3:cad>
          </ns3:TrackPointExtension>
        </extensions>
      </trkpt>
      <trkpt lat="43.82824187166988849639892578125" lon="4.26196650601923465728759765625">
        <ele>93.59999847412109375</ele>
        <time>2024-01-27T10:30:00.000Z</time>
        <extensions>
          <ns3:TrackPointExtension>
            <ns3:hr>153</ns3:hr>
            <ns3:cad>93</ns3:cad>
          </ns3:TrackPointExtension>
        </extensions>
      </trkpt>
      <trkpt lat="43.82822862826287746429443359375" lon="4.2619454674422740936279296875">
        <ele>93.40000152587890625</ele>
        <time>2024-01-27T10:30:01.000Z</time>
        <extensions>
          <ns3:TrackPointExtension>
            <ns3:hr>153</ns3:hr>
            <ns3:cad>93</ns3:cad>
          </ns3:TrackPointExtension>
        </extensions>
      </trkpt>
      <trkpt lat="43.828212283551692962646484375" lon="4.26192945800721645355224609375">
        <ele>93.1999969482421875</ele>
        <time>2024-01-27T10:30:02.000Z</time>
        <extensions>
          <ns3:TrackPointExtension>
            <ns3:hr>153</ns3:hr>
            <ns3:cad>93</ns3:cad>
          </ns3:TrackPointExtension>
        </extensions>
      </trkpt>
      <trkpt lat="43.8281943462789058685302734375" lon="4.261920154094696044921875">
        <ele>93.1999969482421875</ele>
        <time>2024-01-27T10:30:03.000Z</time>
        <extensions>
          <ns3:TrackPointExtension>
            <ns3:hr>153</ns3:hr>
            <ns3:cad>93</ns3:cad>
          </ns3:TrackPointExtension>
        </extensions>
      </trkpt>
      <trkpt lat="43.8281692005693912506103515625" lon="4.2619105987250804901123046875">
        <ele>93</ele>
        <time>2024-01-27T10:30:04.000Z</time>
        <extensions>
          <ns3:TrackPointExtension>
            <ns3:hr>153</ns3:hr>
            <ns3:cad>92</ns3:cad>
          </ns3:TrackPointExtension>
        </extensions>
      </trkpt>
      <trkpt lat="43.8281447254121303558349609375" lon="4.2619082517921924591064453125">
        <ele>93</ele>
        <time>2024-01-27T10:30:05.000Z</time>
        <extensions>
          <ns3:TrackPointExtension>
            <ns3:hr>154</ns3:hr>
            <ns3:cad>92</ns3:cad>
          </ns3:TrackPointExtension>
        </extensions>
      </trkpt>
      <trkpt lat="43.82811329327523708343505859375" lon="4.261899702250957489013671875">
        <ele>92.8000030517578125</ele>
        <time>2024-01-27T10:30:06.000Z</time>
        <extensions>
          <ns3:TrackPointExtension>
            <ns3:hr>154</ns3:hr>
            <ns3:cad>92</ns3:cad>
          </ns3:TrackPointExtension>
        </extensions>
      </trkpt>
      <trkpt lat="43.82808496244251728057861328125" lon="4.26189777441322803497314453125">
        <ele>92.59999847412109375</ele>
        <time>2024-01-27T10:30:07.000Z</time>
        <extensions>
          <ns3:TrackPointExtension>
            <ns3:hr>154</ns3:hr>
            <ns3:cad>92</ns3:cad>
          </ns3:TrackPointExtension>
        </extensions>
      </trkpt>
      <trkpt lat="43.82805847562849521636962890625" lon="4.26189475692808628082275390625">
        <ele>92.1999969482421875</ele>
        <time>2024-01-27T10:30:08.000Z</time>
        <extensions>
          <ns3:TrackPointExtension>
            <ns3:hr>154</ns3:hr>
            <ns3:cad>91</ns3:cad>
          </ns3:TrackPointExtension>
        </extensions>
      </trkpt>
      <trkpt lat="43.82803282700479030609130859375" lon="4.26189861260354518890380859375">
        <ele>92.1999969482421875</ele>
        <time>2024-01-27T10:30:09.000Z</time>
        <extensions>
          <ns3:TrackPointExtension>
            <ns3:hr>155</ns3:hr>
            <ns3:cad>91</ns3:cad>
          </ns3:TrackPointExtension>
        </extensions>
      </trkpt>
      <trkpt lat="43.82800114341080188751220703125" lon="4.2619035579264163970947265625">
        <ele>92</ele>
        <time>2024-01-27T10:30:10.000Z</time>
        <extensions>
          <ns3:TrackPointExtension>
            <ns3:hr>155</ns3:hr>
            <ns3:cad>91</ns3:cad>
          </ns3:TrackPointExtension>
        </extensions>
      </trkpt>
      <trkpt lat="43.82797499187290668487548828125" lon="4.26191034726798534393310546875">
        <ele>91.8000030517578125</ele>
        <time>2024-01-27T10:30:11.000Z</time>
        <extensions>
          <ns3:TrackPointExtension>
            <ns3:hr>156</ns3:hr>
            <ns3:cad>92</ns3:cad>
          </ns3:TrackPointExtension>
        </extensions>
      </trkpt>
      <trkpt lat="43.82794909179210662841796875" lon="4.26191772334277629852294921875">
        <ele>91.8000030517578125</ele>
        <time>2024-01-27T10:30:12.000Z</time>
        <extensions>
          <ns3:TrackPointExtension>
            <ns3:hr>156</ns3:hr>
            <ns3:cad>93</ns3:cad>
          </ns3:TrackPointExtension>
        </extensions>
      </trkpt>
      <trkpt lat="43.82792151533067226409912109375" lon="4.26192912273108959197998046875">
        <ele>91.8000030517578125</ele>
        <time>2024-01-27T10:30:13.000Z</time>
        <extensions>
          <ns3:TrackPointExtension>
            <ns3:hr>156</ns3:hr>
            <ns3:cad>93</ns3:cad>
          </ns3:TrackPointExtension>
        </extensions>
      </trkpt>
      <trkpt lat="43.827897123992443084716796875" lon="4.26193783991038799285888671875">
        <ele>91.59999847412109375</ele>
        <time>2024-01-27T10:30:14.000Z</time>
        <extensions>
          <ns3:TrackPointExtension>
            <ns3:hr>157</ns3:hr>
            <ns3:cad>92</ns3:cad>
          </ns3:TrackPointExtension>
        </extensions>
      </trkpt>
      <trkpt lat="43.827871643006801605224609375" lon="4.26194706000387668609619140625">
        <ele>91.40000152587890625</ele>
        <time>2024-01-27T10:30:15.000Z</time>
        <extensions>
          <ns3:TrackPointExtension>
            <ns3:hr>157</ns3:hr>
            <ns3:cad>92</ns3:cad>
          </ns3:TrackPointExtension>
        </extensions>
      </trkpt>
      <trkpt lat="43.82784708403050899505615234375" lon="4.26195125095546245574951171875">
        <ele>91.1999969482421875</ele>
        <time>2024-01-27T10:30:16.000Z</time>
        <extensions>
          <ns3:TrackPointExtension>
            <ns3:hr>157</ns3:hr>
            <ns3:cad>92</ns3:cad>
          </ns3:TrackPointExtension>
        </extensions>
      </trkpt>
      <trkpt lat="43.82781959138810634613037109375" lon="4.26195510663092136383056640625">
        <ele>91.1999969482421875</ele>
        <time>2024-01-27T10:30:17.000Z</time>
        <extensions>
          <ns3:TrackPointExtension>
            <ns3:hr>157</ns3:hr>
            <ns3:cad>91</ns3:cad>
          </ns3:TrackPointExtension>
        </extensions>
      </trkpt>
      <trkpt lat="43.82779511623084545135498046875" lon="4.261961393058300018310546875">
        <ele>91</ele>
        <time>2024-01-27T10:30:18.000Z</time>
        <extensions>
          <ns3:TrackPointExtension>
            <ns3:hr>157</ns3:hr>
            <ns3:cad>91</ns3:cad>
          </ns3:TrackPointExtension>
        </extensions>
      </trkpt>
      <trkpt lat="43.827768377959728240966796875" lon="4.26196499727666378021240234375">
        <ele>91</ele>
        <time>2024-01-27T10:30:19.000Z</time>
        <extensions>
          <ns3:TrackPointExtension>
            <ns3:hr>156</ns3:hr>
            <ns3:cad>92</ns3:cad>
          </ns3:TrackPointExtension>
        </extensions>
      </trkpt>
      <trkpt lat="43.82774683646857738494873046875" lon="4.26196935586631298065185546875">
        <ele>91</ele>
        <time>2024-01-27T10:30:20.000Z</time>
        <extensions>
          <ns3:TrackPointExtension>
            <ns3:hr>152</ns3:hr>
            <ns3:cad>92</ns3:cad>
          </ns3:TrackPointExtension>
        </extensions>
      </trkpt>
      <trkpt lat="43.827720768749713897705078125" lon="4.2619729600846767425537109375">
        <ele>90.59999847412109375</ele>
        <time>2024-01-27T10:30:21.000Z</time>
        <extensions>
          <ns3:TrackPointExtension>
            <ns3:hr>150</ns3:hr>
            <ns3:cad>92</ns3:cad>
          </ns3:TrackPointExtension>
        </extensions>
      </trkpt>
      <trkpt lat="43.82769830524921417236328125" lon="4.2619776539504528045654296875">
        <ele>90.59999847412109375</ele>
        <time>2024-01-27T10:30:22.000Z</time>
        <extensions>
          <ns3:TrackPointExtension>
            <ns3:hr>150</ns3:hr>
            <ns3:cad>92</ns3:cad>
          </ns3:TrackPointExtension>
        </extensions>
      </trkpt>
      <trkpt lat="43.82767408154904842376708984375" lon="4.26197974942624568939208984375">
        <ele>90.59999847412109375</ele>
        <time>2024-01-27T10:30:23.000Z</time>
        <extensions>
          <ns3:TrackPointExtension>
            <ns3:hr>150</ns3:hr>
            <ns3:cad>92</ns3:cad>
          </ns3:TrackPointExtension>
        </extensions>
      </trkpt>
      <trkpt lat="43.82764658890664577484130859375" lon="4.26198360510170459747314453125">
        <ele>90.40000152587890625</ele>
        <time>2024-01-27T10:30:24.000Z</time>
        <extensions>
          <ns3:TrackPointExtension>
            <ns3:hr>150</ns3:hr>
            <ns3:cad>92</ns3:cad>
          </ns3:TrackPointExtension>
        </extensions>
      </trkpt>
      <trkpt lat="43.8276196829974651336669921875" lon="4.26198444329202175140380859375">
        <ele>90.40000152587890625</ele>
        <time>2024-01-27T10:30:25.000Z</time>
        <extensions>
          <ns3:TrackPointExtension>
            <ns3:hr>150</ns3:hr>
            <ns3:cad>92</ns3:cad>
          </ns3:TrackPointExtension>
        </extensions>
      </trkpt>
      <trkpt lat="43.82759411819279193878173828125" lon="4.26198595203459262847900390625">
        <ele>90.1999969482421875</ele>
        <time>2024-01-27T10:30:26.000Z</time>
        <extensions>
          <ns3:TrackPointExtension>
            <ns3:hr>150</ns3:hr>
            <ns3:cad>93</ns3:cad>
          </ns3:TrackPointExtension>
        </extensions>
      </trkpt>
      <trkpt lat="43.82756662555038928985595703125" lon="4.2619870416820049285888671875">
        <ele>90.1999969482421875</ele>
        <time>2024-01-27T10:30:27.000Z</time>
        <extensions>
          <ns3:TrackPointExtension>
            <ns3:hr>151</ns3:hr>
            <ns3:cad>93</ns3:cad>
          </ns3:TrackPointExtension>
        </extensions>
      </trkpt>
      <trkpt lat="43.82753913290798664093017578125" lon="4.2619863711297512054443359375">
        <ele>90.1999969482421875</ele>
        <time>2024-01-27T10:30:28.000Z</time>
        <extensions>
          <ns3:TrackPointExtension>
            <ns3:hr>151</ns3:hr>
            <ns3:cad>93</ns3:cad>
          </ns3:TrackPointExtension>
        </extensions>
      </trkpt>
      <trkpt lat="43.82751365192234516143798828125" lon="4.2619907297194004058837890625">
        <ele>90</ele>
        <time>2024-01-27T10:30:29.000Z</time>
        <extensions>
          <ns3:TrackPointExtension>
            <ns3:hr>151</ns3:hr>
            <ns3:cad>93</ns3:cad>
          </ns3:TrackPointExtension>
        </extensions>
      </trkpt>
      <trkpt lat="43.8274869136512279510498046875" lon="4.2619887180626392364501953125">
        <ele>90</ele>
        <time>2024-01-27T10:30:30.000Z</time>
        <extensions>
          <ns3:TrackPointExtension>
            <ns3:hr>151</ns3:hr>
            <ns3:cad>93</ns3:cad>
          </ns3:TrackPointExtension>
        </extensions>
      </trkpt>
      <trkpt lat="43.827463276684284210205078125" lon="4.26198679022490978240966796875">
        <ele>90</ele>
        <time>2024-01-27T10:30:31.000Z</time>
        <extensions>
          <ns3:TrackPointExtension>
            <ns3:hr>151</ns3:hr>
            <ns3:cad>93</ns3:cad>
          </ns3:TrackPointExtension>
        </extensions>
      </trkpt>
      <trkpt lat="43.8274352811276912689208984375" lon="4.26198192872107028961181640625">
        <ele>90</ele>
        <time>2024-01-27T10:30:32.000Z</time>
        <extensions>
          <ns3:TrackPointExtension>
            <ns3:hr>151</ns3:hr>
            <ns3:cad>95</ns3:cad>
          </ns3:TrackPointExtension>
        </extensions>
      </trkpt>
      <trkpt lat="43.827409632503986358642578125" lon="4.26198251545429229736328125">
        <ele>89.8000030517578125</ele>
        <time>2024-01-27T10:30:33.000Z</time>
        <extensions>
          <ns3:TrackPointExtension>
            <ns3:hr>151</ns3:hr>
            <ns3:cad>95</ns3:cad>
          </ns3:TrackPointExtension>
        </extensions>
      </trkpt>
      <trkpt lat="43.82738289423286914825439453125" lon="4.261981509625911712646484375">
        <ele>89.8000030517578125</ele>
        <time>2024-01-27T10:30:34.000Z</time>
        <extensions>
          <ns3:TrackPointExtension>
            <ns3:hr>151</ns3:hr>
            <ns3:cad>94</ns3:cad>
          </ns3:TrackPointExtension>
        </extensions>
      </trkpt>
      <trkpt lat="43.82735774852335453033447265625" lon="4.26198427565395832061767578125">
        <ele>89.8000030517578125</ele>
        <time>2024-01-27T10:30:35.000Z</time>
        <extensions>
          <ns3:TrackPointExtension>
            <ns3:hr>151</ns3:hr>
            <ns3:cad>93</ns3:cad>
          </ns3:TrackPointExtension>
        </extensions>
      </trkpt>
      <trkpt lat="43.827329836785793304443359375" lon="4.26198611967265605926513671875">
        <ele>89.8000030517578125</ele>
        <time>2024-01-27T10:30:36.000Z</time>
        <extensions>
          <ns3:TrackPointExtension>
            <ns3:hr>151</ns3:hr>
            <ns3:cad>93</ns3:cad>
          </ns3:TrackPointExtension>
        </extensions>
      </trkpt>
      <trkpt lat="43.827300332486629486083984375" lon="4.26198846660554409027099609375">
        <ele>89.8000030517578125</ele>
        <time>2024-01-27T10:30:37.000Z</time>
        <extensions>
          <ns3:TrackPointExtension>
            <ns3:hr>151</ns3:hr>
            <ns3:cad>91</ns3:cad>
          </ns3:TrackPointExtension>
        </extensions>
      </trkpt>
      <trkpt lat="43.8272730074822902679443359375" lon="4.26199416629970073699951171875">
        <ele>89.8000030517578125</ele>
        <time>2024-01-27T10:30:38.000Z</time>
        <extensions>
          <ns3:TrackPointExtension>
            <ns3:hr>151</ns3:hr>
            <ns3:cad>91</ns3:cad>
          </ns3:TrackPointExtension>
        </extensions>
      </trkpt>
      <trkpt lat="43.8272451795637607574462890625" lon="4.26199584268033504486083984375">
        <ele>89.59999847412109375</ele>
        <time>2024-01-27T10:30:39.000Z</time>
        <extensions>
          <ns3:TrackPointExtension>
            <ns3:hr>151</ns3:hr>
            <ns3:cad>91</ns3:cad>
          </ns3:TrackPointExtension>
        </extensions>
      </trkpt>
      <trkpt lat="43.82722028531134128570556640625" lon="4.2620007880032062530517578125">
        <ele>89.59999847412109375</ele>
        <time>2024-01-27T10:30:40.000Z</time>
        <extensions>
          <ns3:TrackPointExtension>
            <ns3:hr>151</ns3:hr>
            <ns3:cad>92</ns3:cad>
          </ns3:TrackPointExtension>
        </extensions>
      </trkpt>
      <trkpt lat="43.82719337940216064453125" lon="4.26200187765061855316162109375">
        <ele>89.59999847412109375</ele>
        <time>2024-01-27T10:30:41.000Z</time>
        <extensions>
          <ns3:TrackPointExtension>
            <ns3:hr>151</ns3:hr>
            <ns3:cad>92</ns3:cad>
          </ns3:TrackPointExtension>
        </extensions>
      </trkpt>
      <trkpt lat="43.82716613821685314178466796875" lon="4.26200221292674541473388671875">
        <ele>89.59999847412109375</ele>
        <time>2024-01-27T10:30:42.000Z</time>
        <extensions>
          <ns3:TrackPointExtension>
            <ns3:hr>152</ns3:hr>
            <ns3:cad>92</ns3:cad>
          </ns3:TrackPointExtension>
        </extensions>
      </trkpt>
      <trkpt lat="43.827136047184467315673828125" lon="4.26199634559452533721923828125">
        <ele>89.40000152587890625</ele>
        <time>2024-01-27T10:30:43.000Z</time>
        <extensions>
          <ns3:TrackPointExtension>
            <ns3:hr>152</ns3:hr>
            <ns3:cad>93</ns3:cad>
          </ns3:TrackPointExtension>
        </extensions>
      </trkpt>
      <trkpt lat="43.8271060399711132049560546875" lon="4.2619947530329227447509765625">
        <ele>89.40000152587890625</ele>
        <time>2024-01-27T10:30:44.000Z</time>
        <extensions>
          <ns3:TrackPointExtension>
            <ns3:hr>152</ns3:hr>
            <ns3:cad>93</ns3:cad>
          </ns3:TrackPointExtension>
        </extensions>
      </trkpt>
      <trkpt lat="43.827073685824871063232421875" lon="4.26198930479586124420166015625">
        <ele>89.40000152587890625</ele>
        <time>2024-01-27T10:30:45.000Z</time>
        <extensions>
          <ns3:TrackPointExtension>
            <ns3:hr>152</ns3:hr>
            <ns3:cad>93</ns3:cad>
          </ns3:TrackPointExtension>
        </extensions>
      </trkpt>
      <trkpt lat="43.82704158313572406768798828125" lon="4.26198829896748065948486328125">
        <ele>89.1999969482421875</ele>
        <time>2024-01-27T10:30:46.000Z</time>
        <extensions>
          <ns3:TrackPointExtension>
            <ns3:hr>152</ns3:hr>
            <ns3:cad>92</ns3:cad>
          </ns3:TrackPointExtension>
        </extensions>
      </trkpt>
      <trkpt lat="43.82701325230300426483154296875" lon="4.2619826830923557281494140625">
        <ele>89.1999969482421875</ele>
        <time>2024-01-27T10:30:47.000Z</time>
        <extensions>
          <ns3:TrackPointExtension>
            <ns3:hr>152</ns3:hr>
            <ns3:cad>92</ns3:cad>
          </ns3:TrackPointExtension>
        </extensions>
      </trkpt>
      <trkpt lat="43.8269856758415699005126953125" lon="4.2619778215885162353515625">
        <ele>89</ele>
        <time>2024-01-27T10:30:48.000Z</time>
        <extensions>
          <ns3:TrackPointExtension>
            <ns3:hr>152</ns3:hr>
            <ns3:cad>92</ns3:cad>
          </ns3:TrackPointExtension>
        </extensions>
      </trkpt>
      <trkpt lat="43.826960362493991851806640625" lon="4.26197337917983531951904296875">
        <ele>89</ele>
        <time>2024-01-27T10:30:49.000Z</time>
        <extensions>
          <ns3:TrackPointExtension>
            <ns3:hr>152</ns3:hr>
            <ns3:cad>91</ns3:cad>
          </ns3:TrackPointExtension>
        </extensions>
      </trkpt>
      <trkpt lat="43.82692851126194000244140625" lon="4.261963404715061187744140625">
        <ele>88.8000030517578125</ele>
        <time>2024-01-27T10:30:50.000Z</time>
        <extensions>
          <ns3:TrackPointExtension>
            <ns3:hr>152</ns3:hr>
            <ns3:cad>90</ns3:cad>
          </ns3:TrackPointExtension>
        </extensions>
      </trkpt>
      <trkpt lat="43.82690177299082279205322265625" lon="4.26195678301155567169189453125">
        <ele>88.8000030517578125</ele>
        <time>2024-01-27T10:30:51.000Z</time>
        <extensions>
          <ns3:TrackPointExtension>
            <ns3:hr>153</ns3:hr>
            <ns3:cad>90</ns3:cad>
          </ns3:TrackPointExtension>
        </extensions>
      </trkpt>
      <trkpt lat="43.82686874829232692718505859375" lon="4.26194253377616405487060546875">
        <ele>88.59999847412109375</ele>
        <time>2024-01-27T10:30:52.000Z</time>
        <extensions>
          <ns3:TrackPointExtension>
            <ns3:hr>153</ns3:hr>
            <ns3:cad>90</ns3:cad>
          </ns3:TrackPointExtension>
        </extensions>
      </trkpt>
      <trkpt lat="43.82683974690735340118408203125" lon="4.26193633116781711578369140625">
        <ele>88.59999847412109375</ele>
        <time>2024-01-27T10:30:53.000Z</time>
        <extensions>
          <ns3:TrackPointExtension>
            <ns3:hr>153</ns3:hr>
            <ns3:cad>90</ns3:cad>
          </ns3:TrackPointExtension>
        </extensions>
      </trkpt>
      <trkpt lat="43.8268046267330646514892578125" lon="4.261923171579837799072265625">
        <ele>88.59999847412109375</ele>
        <time>2024-01-27T10:30:54.000Z</time>
        <extensions>
          <ns3:TrackPointExtension>
            <ns3:hr>153</ns3:hr>
            <ns3:cad>93</ns3:cad>
          </ns3:TrackPointExtension>
        </extensions>
      </trkpt>
      <trkpt lat="43.82677495479583740234375" lon="4.26191587932407855987548828125">
        <ele>88.40000152587890625</ele>
        <time>2024-01-27T10:30:55.000Z</time>
        <extensions>
          <ns3:TrackPointExtension>
            <ns3:hr>153</ns3:hr>
            <ns3:cad>93</ns3:cad>
          </ns3:TrackPointExtension>
        </extensions>
      </trkpt>
      <trkpt lat="43.82674620486795902252197265625" lon="4.26190280355513095855712890625">
        <ele>88.40000152587890625</ele>
        <time>2024-01-27T10:30:56.000Z</time>
        <extensions>
          <ns3:TrackPointExtension>
            <ns3:hr>153</ns3:hr>
            <ns3:cad>93</ns3:cad>
          </ns3:TrackPointExtension>
        </extensions>
      </trkpt>
      <trkpt lat="43.82672198116779327392578125" lon="4.261893667280673980712890625">
        <ele>88.40000152587890625</ele>
        <time>2024-01-27T10:30:57.000Z</time>
        <extensions>
          <ns3:TrackPointExtension>
            <ns3:hr>154</ns3:hr>
            <ns3:cad>93</ns3:cad>
          </ns3:TrackPointExtension>
        </extensions>
      </trkpt>
      <trkpt lat="43.82669641636312007904052734375" lon="4.2618790827691555023193359375">
        <ele>88.1999969482421875</ele>
        <time>2024-01-27T10:30:58.000Z</time>
        <extensions>
          <ns3:TrackPointExtension>
            <ns3:hr>154</ns3:hr>
            <ns3:cad>92</ns3:cad>
          </ns3:TrackPointExtension>
        </extensions>
      </trkpt>
      <trkpt lat="43.82667428813874721527099609375" lon="4.26186986267566680908203125">
        <ele>88.1999969482421875</ele>
        <time>2024-01-27T10:30:59.000Z</time>
        <extensions>
          <ns3:TrackPointExtension>
            <ns3:hr>154</ns3:hr>
            <ns3:cad>90</ns3:cad>
          </ns3:TrackPointExtension>
        </extensions>
      </trkpt>
      <trkpt lat="43.82664713077247142791748046875" lon="4.26185787655413150787353515625">
        <ele>88</ele>
        <time>2024-01-27T10:31:00.000Z</time>
        <extensions>
          <ns3:TrackPointExtension>
            <ns3:hr>155</ns3:hr>
            <ns3:cad>90</ns3:cad>
          </ns3:TrackPointExtension>
        </extensions>
      </trkpt>
      <trkpt lat="43.8266207277774810791015625" lon="4.26185033284127712249755859375">
        <ele>87.59999847412109375</ele>
        <time>2024-01-27T10:31:01.000Z</time>
        <extensions>
          <ns3:TrackPointExtension>
            <ns3:hr>155</ns3:hr>
            <ns3:cad>90</ns3:cad>
          </ns3:TrackPointExtension>
        </extensions>
      </trkpt>
      <trkpt lat="43.826591558754444122314453125" lon="4.26184128038585186004638671875">
        <ele>87.59999847412109375</ele>
        <time>2024-01-27T10:31:02.000Z</time>
        <extensions>
          <ns3:TrackPointExtension>
            <ns3:hr>155</ns3:hr>
            <ns3:cad>91</ns3:cad>
          </ns3:TrackPointExtension>
        </extensions>
      </trkpt>
      <trkpt lat="43.8265672512352466583251953125" lon="4.26183893345296382904052734375">
        <ele>87.59999847412109375</ele>
        <time>2024-01-27T10:31:03.000Z</time>
        <extensions>
          <ns3:TrackPointExtension>
            <ns3:hr>155</ns3:hr>
            <ns3:cad>92</ns3:cad>
          </ns3:TrackPointExtension>
        </extensions>
      </trkpt>
      <trkpt lat="43.8265451230108737945556640625" lon="4.26183625124394893646240234375">
        <ele>87.40000152587890625</ele>
        <time>2024-01-27T10:31:04.000Z</time>
        <extensions>
          <ns3:TrackPointExtension>
            <ns3:hr>155</ns3:hr>
            <ns3:cad>92</ns3:cad>
          </ns3:TrackPointExtension>
        </extensions>
      </trkpt>
      <trkpt lat="43.8265246711671352386474609375" lon="4.2618324793875217437744140625">
        <ele>87.40000152587890625</ele>
        <time>2024-01-27T10:31:05.000Z</time>
        <extensions>
          <ns3:TrackPointExtension>
            <ns3:hr>155</ns3:hr>
            <ns3:cad>92</ns3:cad>
          </ns3:TrackPointExtension>
        </extensions>
      </trkpt>
      <trkpt lat="43.826504051685333251953125" lon="4.261831305921077728271484375">
        <ele>87.40000152587890625</ele>
        <time>2024-01-27T10:31:06.000Z</time>
        <extensions>
          <ns3:TrackPointExtension>
            <ns3:hr>155</ns3:hr>
            <ns3:cad>92</ns3:cad>
          </ns3:TrackPointExtension>
        </extensions>
      </trkpt>
      <trkpt lat="43.8264820910990238189697265625" lon="4.2618267796933650970458984375">
        <ele>87.40000152587890625</ele>
        <time>2024-01-27T10:31:07.000Z</time>
        <extensions>
          <ns3:TrackPointExtension>
            <ns3:hr>155</ns3:hr>
            <ns3:cad>92</ns3:cad>
          </ns3:TrackPointExtension>
        </extensions>
      </trkpt>
      <trkpt lat="43.8264624774456024169921875" lon="4.261810518801212310791015625">
        <ele>87.40000152587890625</ele>
        <time>2024-01-27T10:31:08.000Z</time>
        <extensions>
          <ns3:TrackPointExtension>
            <ns3:hr>155</ns3:hr>
            <ns3:cad>92</ns3:cad>
          </ns3:TrackPointExtension>
        </extensions>
      </trkpt>
      <trkpt lat="43.8264364935457706451416015625" lon="4.26178646273910999298095703125">
        <ele>87.40000152587890625</ele>
        <time>2024-01-27T10:31:09.000Z</time>
        <extensions>
          <ns3:TrackPointExtension>
            <ns3:hr>155</ns3:hr>
            <ns3:cad>93</ns3:cad>
          </ns3:TrackPointExtension>
        </extensions>
      </trkpt>
      <trkpt lat="43.8264130242168903350830078125" lon="4.26176181994378566741943359375">
        <ele>87.40000152587890625</ele>
        <time>2024-01-27T10:31:10.000Z</time>
        <extensions>
          <ns3:TrackPointExtension>
            <ns3:hr>155</ns3:hr>
            <ns3:cad>93</ns3:cad>
          </ns3:TrackPointExtension>
        </extensions>
      </trkpt>
      <trkpt lat="43.8263865374028682708740234375" lon="4.26172913052141666412353515625">
        <ele>87.40000152587890625</ele>
        <time>2024-01-27T10:31:11.000Z</time>
        <extensions>
          <ns3:TrackPointExtension>
            <ns3:hr>156</ns3:hr>
            <ns3:cad>93</ns3:cad>
          </ns3:TrackPointExtension>
        </extensions>
      </trkpt>
      <trkpt lat="43.826364912092685699462890625" lon="4.26170214079320430755615234375">
        <ele>87.40000152587890625</ele>
        <time>2024-01-27T10:31:12.000Z</time>
        <extensions>
          <ns3:TrackPointExtension>
            <ns3:hr>156</ns3:hr>
            <ns3:cad>92</ns3:cad>
          </ns3:TrackPointExtension>
        </extensions>
      </trkpt>
      <trkpt lat="43.8263417780399322509765625" lon="4.26166442222893238067626953125">
        <ele>87.40000152587890625</ele>
        <time>2024-01-27T10:31:13.000Z</time>
        <extensions>
          <ns3:TrackPointExtension>
            <ns3:hr>155</ns3:hr>
            <ns3:cad>92</ns3:cad>
          </ns3:TrackPointExtension>
        </extensions>
      </trkpt>
      <trkpt lat="43.82632627151906490325927734375" lon="4.26164061762392520904541015625">
        <ele>87.40000152587890625</ele>
        <time>2024-01-27T10:31:14.000Z</time>
        <extensions>
          <ns3:TrackPointExtension>
            <ns3:hr>155</ns3:hr>
            <ns3:cad>92</ns3:cad>
          </ns3:TrackPointExtension>
        </extensions>
      </trkpt>
      <trkpt lat="43.8263100944459438323974609375" lon="4.2616115324199199676513671875">
        <ele>87.40000152587890625</ele>
        <time>2024-01-27T10:31:15.000Z</time>
        <extensions>
          <ns3:TrackPointExtension>
            <ns3:hr>155</ns3:hr>
            <ns3:cad>92</ns3:cad>
          </ns3:TrackPointExtension>
        </extensions>
      </trkpt>
      <trkpt lat="43.8262943364679813385009765625" lon="4.2615880630910396575927734375">
        <ele>87.1999969482421875</ele>
        <time>2024-01-27T10:31:16.000Z</time>
        <extensions>
          <ns3:TrackPointExtension>
            <ns3:hr>155</ns3:hr>
            <ns3:cad>92</ns3:cad>
          </ns3:TrackPointExtension>
        </extensions>
      </trkpt>
      <trkpt lat="43.8262745551764965057373046875" lon="4.261560402810573577880859375">
        <ele>87</ele>
        <time>2024-01-27T10:31:17.000Z</time>
        <extensions>
          <ns3:TrackPointExtension>
            <ns3:hr>155</ns3:hr>
            <ns3:cad>91</ns3:cad>
          </ns3:TrackPointExtension>
        </extensions>
      </trkpt>
      <trkpt lat="43.8262587971985340118408203125" lon="4.26153483800590038299560546875">
        <ele>86.8000030517578125</ele>
        <time>2024-01-27T10:31:18.000Z</time>
        <extensions>
          <ns3:TrackPointExtension>
            <ns3:hr>155</ns3:hr>
            <ns3:cad>90</ns3:cad>
          </ns3:TrackPointExtension>
        </extensions>
      </trkpt>
      <trkpt lat="43.8262398540973663330078125" lon="4.2615044116973876953125">
        <ele>86.8000030517578125</ele>
        <time>2024-01-27T10:31:19.000Z</time>
        <extensions>
          <ns3:TrackPointExtension>
            <ns3:hr>155</ns3:hr>
            <ns3:cad>90</ns3:cad>
          </ns3:TrackPointExtension>
        </extensions>
      </trkpt>
      <trkpt lat="43.82622250355780124664306640625" lon="4.26148789934813976287841796875">
        <ele>86.8000030517578125</ele>
        <time>2024-01-27T10:31:20.000Z</time>
        <extensions>
          <ns3:TrackPointExtension>
            <ns3:hr>155</ns3:hr>
            <ns3:cad>90</ns3:cad>
          </ns3:TrackPointExtension>
        </extensions>
      </trkpt>
      <trkpt lat="43.826198279857635498046875" lon="4.26146359182894229888916015625">
        <ele>86.8000030517578125</ele>
        <time>2024-01-27T10:31:21.000Z</time>
        <extensions>
          <ns3:TrackPointExtension>
            <ns3:hr>156</ns3:hr>
            <ns3:cad>90</ns3:cad>
          </ns3:TrackPointExtension>
        </extensions>
      </trkpt>
      <trkpt lat="43.82618017494678497314453125" lon="4.26145789213478565216064453125">
        <ele>87.1999969482421875</ele>
        <time>2024-01-27T10:31:22.000Z</time>
        <extensions>
          <ns3:TrackPointExtension>
            <ns3:hr>156</ns3:hr>
            <ns3:cad>90</ns3:cad>
          </ns3:TrackPointExtension>
        </extensions>
      </trkpt>
      <trkpt lat="43.82615930400788784027099609375" lon="4.26145370118319988250732421875">
        <ele>87.1999969482421875</ele>
        <time>2024-01-27T10:31:23.000Z</time>
        <extensions>
          <ns3:TrackPointExtension>
            <ns3:hr>156</ns3:hr>
            <ns3:cad>90</ns3:cad>
          </ns3:TrackPointExtension>
        </extensions>
      </trkpt>
      <trkpt lat="43.8261406123638153076171875" lon="4.26144347526133060455322265625">
        <ele>87.1999969482421875</ele>
        <time>2024-01-27T10:31:24.000Z</time>
        <extensions>
          <ns3:TrackPointExtension>
            <ns3:hr>156</ns3:hr>
            <ns3:cad>90</ns3:cad>
          </ns3:TrackPointExtension>
        </extensions>
      </trkpt>
      <trkpt lat="43.8261216692626476287841796875" lon="4.261437356472015380859375">
        <ele>87.40000152587890625</ele>
        <time>2024-01-27T10:31:25.000Z</time>
        <extensions>
          <ns3:TrackPointExtension>
            <ns3:hr>157</ns3:hr>
            <ns3:cad>90</ns3:cad>
          </ns3:TrackPointExtension>
        </extensions>
      </trkpt>
      <trkpt lat="43.8261002115905284881591796875" lon="4.26143006421625614166259765625">
        <ele>87.40000152587890625</ele>
        <time>2024-01-27T10:31:26.000Z</time>
        <extensions>
          <ns3:TrackPointExtension>
            <ns3:hr>157</ns3:hr>
            <ns3:cad>89</ns3:cad>
          </ns3:TrackPointExtension>
        </extensions>
      </trkpt>
      <trkpt lat="43.82607883773744106292724609375" lon="4.261417575180530548095703125">
        <ele>87.59999847412109375</ele>
        <time>2024-01-27T10:31:27.000Z</time>
        <extensions>
          <ns3:TrackPointExtension>
            <ns3:hr>157</ns3:hr>
            <ns3:cad>89</ns3:cad>
          </ns3:TrackPointExtension>
        </extensions>
      </trkpt>
      <trkpt lat="43.82606274448335170745849609375" lon="4.261406846344470977783203125">
        <ele>87.59999847412109375</ele>
        <time>2024-01-27T10:31:28.000Z</time>
        <extensions>
          <ns3:TrackPointExtension>
            <ns3:hr>157</ns3:hr>
            <ns3:cad>89</ns3:cad>
          </ns3:TrackPointExtension>
        </extensions>
      </trkpt>
      <trkpt lat="43.82603173144161701202392578125" lon="4.2613855563104152679443359375">
        <ele>87.59999847412109375</ele>
        <time>2024-01-27T10:31:29.000Z</time>
        <extensions>
          <ns3:TrackPointExtension>
            <ns3:hr>157</ns3:hr>
            <ns3:cad>90</ns3:cad>
          </ns3:TrackPointExtension>
        </extensions>
      </trkpt>
      <trkpt lat="43.82600993849337100982666015625" lon="4.26137189380824565887451171875">
        <ele>87.59999847412109375</ele>
        <time>2024-01-27T10:31:30.000Z</time>
        <extensions>
          <ns3:TrackPointExtension>
            <ns3:hr>157</ns3:hr>
            <ns3:cad>90</ns3:cad>
          </ns3:TrackPointExtension>
        </extensions>
      </trkpt>
      <trkpt lat="43.8259832002222537994384765625" lon="4.26135797984898090362548828125">
        <ele>87.40000152587890625</ele>
        <time>2024-01-27T10:31:31.000Z</time>
        <extensions>
          <ns3:TrackPointExtension>
            <ns3:hr>158</ns3:hr>
            <ns3:cad>91</ns3:cad>
          </ns3:TrackPointExtension>
        </extensions>
      </trkpt>
      <trkpt lat="43.8259634189307689666748046875" lon="4.26135244779288768768310546875">
        <ele>87.1999969482421875</ele>
        <time>2024-01-27T10:31:32.000Z</time>
        <extensions>
          <ns3:TrackPointExtension>
            <ns3:hr>158</ns3:hr>
            <ns3:cad>92</ns3:cad>
          </ns3:TrackPointExtension>
        </extensions>
      </trkpt>
      <trkpt lat="43.82594338618218898773193359375" lon="4.26135194487869739532470703125">
        <ele>87.1999969482421875</ele>
        <time>2024-01-27T10:31:33.000Z</time>
        <extensions>
          <ns3:TrackPointExtension>
            <ns3:hr>159</ns3:hr>
            <ns3:cad>92</ns3:cad>
          </ns3:TrackPointExtension>
        </extensions>
      </trkpt>
      <trkpt lat="43.8259205035865306854248046875" lon="4.26135127432644367218017578125">
        <ele>87.1999969482421875</ele>
        <time>2024-01-27T10:31:34.000Z</time>
        <extensions>
          <ns3:TrackPointExtension>
            <ns3:hr>159</ns3:hr>
            <ns3:cad>92</ns3:cad>
          </ns3:TrackPointExtension>
        </extensions>
      </trkpt>
      <trkpt lat="43.8258990459144115447998046875" lon="4.26135630346834659576416015625">
        <ele>87.1999969482421875</ele>
        <time>2024-01-27T10:31:35.000Z</time>
        <extensions>
          <ns3:TrackPointExtension>
            <ns3:hr>159</ns3:hr>
            <ns3:cad>92</ns3:cad>
          </ns3:TrackPointExtension>
        </extensions>
      </trkpt>
      <trkpt lat="43.825879432260990142822265625" lon="4.26136619411408901214599609375">
        <ele>87.1999969482421875</ele>
        <time>2024-01-27T10:31:36.000Z</time>
        <extensions>
          <ns3:TrackPointExtension>
            <ns3:hr>160</ns3:hr>
            <ns3:cad>90</ns3:cad>
          </ns3:TrackPointExtension>
        </extensions>
      </trkpt>
      <trkpt lat="43.825847916305065155029296875" lon="4.26137633621692657470703125">
        <ele>87.1999969482421875</ele>
        <time>2024-01-27T10:31:37.000Z</time>
        <extensions>
          <ns3:TrackPointExtension>
            <ns3:hr>160</ns3:hr>
            <ns3:cad>90</ns3:cad>
          </ns3:TrackPointExtension>
        </extensions>
      </trkpt>
      <trkpt lat="43.82581715472042560577392578125" lon="4.261387400329113006591796875">
        <ele>87.1999969482421875</ele>
        <time>2024-01-27T10:31:38.000Z</time>
        <extensions>
          <ns3:TrackPointExtension>
            <ns3:hr>160</ns3:hr>
            <ns3:cad>90</ns3:cad>
          </ns3:TrackPointExtension>
        </extensions>
      </trkpt>
      <trkpt lat="43.8257892429828643798828125" lon="4.2613922618329524993896484375">
        <ele>87.1999969482421875</ele>
        <time>2024-01-27T10:31:39.000Z</time>
        <extensions>
          <ns3:TrackPointExtension>
            <ns3:hr>160</ns3:hr>
            <ns3:cad>90</ns3:cad>
          </ns3:TrackPointExtension>
        </extensions>
      </trkpt>
      <trkpt lat="43.82576971314847469329833984375" lon="4.26139502786099910736083984375">
        <ele>87</ele>
        <time>2024-01-27T10:31:40.000Z</time>
        <extensions>
          <ns3:TrackPointExtension>
            <ns3:hr>161</ns3:hr>
            <ns3:cad>90</ns3:cad>
          </ns3:TrackPointExtension>
        </extensions>
      </trkpt>
      <trkpt lat="43.8257448188960552215576171875" lon="4.2613855563104152679443359375">
        <ele>87</ele>
        <time>2024-01-27T10:31:41.000Z</time>
        <extensions>
          <ns3:TrackPointExtension>
            <ns3:hr>161</ns3:hr>
            <ns3:cad>91</ns3:cad>
          </ns3:TrackPointExtension>
        </extensions>
      </trkpt>
      <trkpt lat="43.8257186673581600189208984375" lon="4.2613714747130870819091796875">
        <ele>86.8000030517578125</ele>
        <time>2024-01-27T10:31:42.000Z</time>
        <extensions>
          <ns3:TrackPointExtension>
            <ns3:hr>161</ns3:hr>
            <ns3:cad>92</ns3:cad>
          </ns3:TrackPointExtension>
        </extensions>
      </trkpt>
      <trkpt lat="43.82568530738353729248046875" lon="4.2613526992499828338623046875">
        <ele>86.8000030517578125</ele>
        <time>2024-01-27T10:31:43.000Z</time>
        <extensions>
          <ns3:TrackPointExtension>
            <ns3:hr>161</ns3:hr>
            <ns3:cad>92</ns3:cad>
          </ns3:TrackPointExtension>
        </extensions>
      </trkpt>
      <trkpt lat="43.82565169595181941986083984375" lon="4.26132897846400737762451171875">
        <ele>86.59999847412109375</ele>
        <time>2024-01-27T10:31:44.000Z</time>
        <extensions>
          <ns3:TrackPointExtension>
            <ns3:hr>161</ns3:hr>
            <ns3:cad>93</ns3:cad>
          </ns3:TrackPointExtension>
        </extensions>
      </trkpt>
      <trkpt lat="43.82563040591776371002197265625" lon="4.2613081075251102447509765625">
        <ele>86.40000152587890625</ele>
        <time>2024-01-27T10:31:45.000Z</time>
        <extensions>
          <ns3:TrackPointExtension>
            <ns3:hr>162</ns3:hr>
            <ns3:cad>93</ns3:cad>
          </ns3:TrackPointExtension>
        </extensions>
      </trkpt>
      <trkpt lat="43.82561196573078632354736328125" lon="4.2612812854349613189697265625">
        <ele>86.40000152587890625</ele>
        <time>2024-01-27T10:31:46.000Z</time>
        <extensions>
          <ns3:TrackPointExtension>
            <ns3:hr>162</ns3:hr>
            <ns3:cad>92</ns3:cad>
          </ns3:TrackPointExtension>
        </extensions>
      </trkpt>
      <trkpt lat="43.825612552464008331298828125" lon="4.26124717108905315399169921875">
        <ele>86.40000152587890625</ele>
        <time>2024-01-27T10:31:47.000Z</time>
        <extensions>
          <ns3:TrackPointExtension>
            <ns3:hr>162</ns3:hr>
            <ns3:cad>92</ns3:cad>
          </ns3:TrackPointExtension>
        </extensions>
      </trkpt>
      <trkpt lat="43.82562361657619476318359375" lon="4.26121649332344532012939453125">
        <ele>86.1999969482421875</ele>
        <time>2024-01-27T10:31:48.000Z</time>
        <extensions>
          <ns3:TrackPointExtension>
            <ns3:hr>162</ns3:hr>
            <ns3:cad>92</ns3:cad>
          </ns3:TrackPointExtension>
        </extensions>
      </trkpt>
      <trkpt lat="43.8256428949534893035888671875" lon="4.26118430681526660919189453125">
        <ele>86.1999969482421875</ele>
        <time>2024-01-27T10:31:49.000Z</time>
        <extensions>
          <ns3:TrackPointExtension>
            <ns3:hr>162</ns3:hr>
            <ns3:cad>92</ns3:cad>
          </ns3:TrackPointExtension>
        </extensions>
      </trkpt>
      <trkpt lat="43.8256673701107501983642578125" lon="4.261147677898406982421875">
        <ele>86.1999969482421875</ele>
        <time>2024-01-27T10:31:50.000Z</time>
        <extensions>
          <ns3:TrackPointExtension>
            <ns3:hr>162</ns3:hr>
            <ns3:cad>92</ns3:cad>
          </ns3:TrackPointExtension>
        </extensions>
      </trkpt>
      <trkpt lat="43.8256864808499813079833984375" lon="4.26111892797052860260009765625">
        <ele>86.1999969482421875</ele>
        <time>2024-01-27T10:31:51.000Z</time>
        <extensions>
          <ns3:TrackPointExtension>
            <ns3:hr>162</ns3:hr>
            <ns3:cad>92</ns3:cad>
          </ns3:TrackPointExtension>
        </extensions>
      </trkpt>
      <trkpt lat="43.82570584304630756378173828125" lon="4.2610841430723667144775390625">
        <ele>86</ele>
        <time>2024-01-27T10:31:52.000Z</time>
        <extensions>
          <ns3:TrackPointExtension>
            <ns3:hr>162</ns3:hr>
            <ns3:cad>92</ns3:cad>
          </ns3:TrackPointExtension>
        </extensions>
      </trkpt>
      <trkpt lat="43.825720511376857757568359375" lon="4.26105807535350322723388671875">
        <ele>86</ele>
        <time>2024-01-27T10:31:53.000Z</time>
        <extensions>
          <ns3:TrackPointExtension>
            <ns3:hr>162</ns3:hr>
            <ns3:cad>92</ns3:cad>
          </ns3:TrackPointExtension>
        </extensions>
      </trkpt>
      <trkpt lat="43.82573953829705715179443359375" lon="4.26102303899824619293212890625">
        <ele>86</ele>
        <time>2024-01-27T10:31:54.000Z</time>
        <extensions>
          <ns3:TrackPointExtension>
            <ns3:hr>163</ns3:hr>
            <ns3:cad>92</ns3:cad>
          </ns3:TrackPointExtension>
        </extensions>
      </trkpt>
      <trkpt lat="43.82575395517051219940185546875" lon="4.260992445051670074462890625">
        <ele>85.8000030517578125</ele>
        <time>2024-01-27T10:31:55.000Z</time>
        <extensions>
          <ns3:TrackPointExtension>
            <ns3:hr>163</ns3:hr>
            <ns3:cad>92</ns3:cad>
          </ns3:TrackPointExtension>
        </extensions>
      </trkpt>
      <trkpt lat="43.8257733173668384552001953125" lon="4.2609580792486667633056640625">
        <ele>85.8000030517578125</ele>
        <time>2024-01-27T10:31:56.000Z</time>
        <extensions>
          <ns3:TrackPointExtension>
            <ns3:hr>163</ns3:hr>
            <ns3:cad>92</ns3:cad>
          </ns3:TrackPointExtension>
        </extensions>
      </trkpt>
      <trkpt lat="43.8257904164493083953857421875" lon="4.26092698238790035247802734375">
        <ele>85.8000030517578125</ele>
        <time>2024-01-27T10:31:57.000Z</time>
        <extensions>
          <ns3:TrackPointExtension>
            <ns3:hr>163</ns3:hr>
            <ns3:cad>93</ns3:cad>
          </ns3:TrackPointExtension>
        </extensions>
      </trkpt>
      <trkpt lat="43.82580860517919063568115234375" lon="4.260900914669036865234375">
        <ele>85.8000030517578125</ele>
        <time>2024-01-27T10:31:58.000Z</time>
        <extensions>
          <ns3:TrackPointExtension>
            <ns3:hr>163</ns3:hr>
            <ns3:cad>93</ns3:cad>
          </ns3:TrackPointExtension>
        </extensions>
      </trkpt>
      <trkpt lat="43.82583106867969036102294921875" lon="4.26087350584566593170166015625">
        <ele>85.8000030517578125</ele>
        <time>2024-01-27T10:31:59.000Z</time>
        <extensions>
          <ns3:TrackPointExtension>
            <ns3:hr>163</ns3:hr>
            <ns3:cad>93</ns3:cad>
          </ns3:TrackPointExtension>
        </extensions>
      </trkpt>
      <trkpt lat="43.8258464075624942779541015625" lon="4.2608541436493396759033203125">
        <ele>85.8000030517578125</ele>
        <time>2024-01-27T10:32:00.000Z</time>
        <extensions>
          <ns3:TrackPointExtension>
            <ns3:hr>163</ns3:hr>
            <ns3:cad>92</ns3:cad>
          </ns3:TrackPointExtension>
        </extensions>
      </trkpt>
      <trkpt lat="43.82587029598653316497802734375" lon="4.260824806988239288330078125">
        <ele>85.59999847412109375</ele>
        <time>2024-01-27T10:32:01.000Z</time>
        <extensions>
          <ns3:TrackPointExtension>
            <ns3:hr>164</ns3:hr>
            <ns3:cad>92</ns3:cad>
          </ns3:TrackPointExtension>
        </extensions>
      </trkpt>
      <trkpt lat="43.82588773034512996673583984375" lon="4.26079924218356609344482421875">
        <ele>85.59999847412109375</ele>
        <time>2024-01-27T10:32:02.000Z</time>
        <extensions>
          <ns3:TrackPointExtension>
            <ns3:hr>164</ns3:hr>
            <ns3:cad>92</ns3:cad>
          </ns3:TrackPointExtension>
        </extensions>
      </trkpt>
      <trkpt lat="43.82590952329337596893310546875" lon="4.26076504401862621307373046875">
        <ele>85.8000030517578125</ele>
        <time>2024-01-27T10:32:03.000Z</time>
        <extensions>
          <ns3:TrackPointExtension>
            <ns3:hr>164</ns3:hr>
            <ns3:cad>93</ns3:cad>
          </ns3:TrackPointExtension>
        </extensions>
      </trkpt>
      <trkpt lat="43.825924694538116455078125" lon="4.2607314325869083404541015625">
        <ele>85.8000030517578125</ele>
        <time>2024-01-27T10:32:04.000Z</time>
        <extensions>
          <ns3:TrackPointExtension>
            <ns3:hr>164</ns3:hr>
            <ns3:cad>93</ns3:cad>
          </ns3:TrackPointExtension>
        </extensions>
      </trkpt>
      <trkpt lat="43.82594279944896697998046875" lon="4.2606962285935878753662109375">
        <ele>85.8000030517578125</ele>
        <time>2024-01-27T10:32:05.000Z</time>
        <extensions>
          <ns3:TrackPointExtension>
            <ns3:hr>164</ns3:hr>
            <ns3:cad>93</ns3:cad>
          </ns3:TrackPointExtension>
        </extensions>
      </trkpt>
      <trkpt lat="43.825957216322422027587890625" lon="4.26066152751445770263671875">
        <ele>85.8000030517578125</ele>
        <time>2024-01-27T10:32:06.000Z</time>
        <extensions>
          <ns3:TrackPointExtension>
            <ns3:hr>164</ns3:hr>
            <ns3:cad>93</ns3:cad>
          </ns3:TrackPointExtension>
        </extensions>
      </trkpt>
      <trkpt lat="43.82597590796649456024169921875" lon="4.260625652968883514404296875">
        <ele>85.8000030517578125</ele>
        <time>2024-01-27T10:32:07.000Z</time>
        <extensions>
          <ns3:TrackPointExtension>
            <ns3:hr>164</ns3:hr>
            <ns3:cad>93</ns3:cad>
          </ns3:TrackPointExtension>
        </extensions>
      </trkpt>
      <trkpt lat="43.82599719800055027008056640625" lon="4.2605949752032756805419921875">
        <ele>86</ele>
        <time>2024-01-27T10:32:08.000Z</time>
        <extensions>
          <ns3:TrackPointExtension>
            <ns3:hr>164</ns3:hr>
            <ns3:cad>93</ns3:cad>
          </ns3:TrackPointExtension>
        </extensions>
      </trkpt>
      <trkpt lat="43.826018907129764556884765625" lon="4.26056941039860248565673828125">
        <ele>86</ele>
        <time>2024-01-27T10:32:09.000Z</time>
        <extensions>
          <ns3:TrackPointExtension>
            <ns3:hr>164</ns3:hr>
            <ns3:cad>93</ns3:cad>
          </ns3:TrackPointExtension>
        </extensions>
      </trkpt>
      <trkpt lat="43.82603642530739307403564453125" lon="4.2605534009635448455810546875">
        <ele>86</ele>
        <time>2024-01-27T10:32:10.000Z</time>
        <extensions>
          <ns3:TrackPointExtension>
            <ns3:hr>165</ns3:hr>
            <ns3:cad>92</ns3:cad>
          </ns3:TrackPointExtension>
        </extensions>
      </trkpt>
      <trkpt lat="43.82605939172208309173583984375" lon="4.260535128414630889892578125">
        <ele>86</ele>
        <time>2024-01-27T10:32:11.000Z</time>
        <extensions>
          <ns3:TrackPointExtension>
            <ns3:hr>165</ns3:hr>
            <ns3:cad>90</ns3:cad>
          </ns3:TrackPointExtension>
        </extensions>
      </trkpt>
      <trkpt lat="43.8260851241648197174072265625" lon="4.26052783615887165069580078125">
        <ele>85.8000030517578125</ele>
        <time>2024-01-27T10:32:12.000Z</time>
        <extensions>
          <ns3:TrackPointExtension>
            <ns3:hr>164</ns3:hr>
            <ns3:cad>90</ns3:cad>
          </ns3:TrackPointExtension>
        </extensions>
      </trkpt>
      <trkpt lat="43.8261166401207447052001953125" lon="4.260520040988922119140625">
        <ele>85.59999847412109375</ele>
        <time>2024-01-27T10:32:13.000Z</time>
        <extensions>
          <ns3:TrackPointExtension>
            <ns3:hr>164</ns3:hr>
            <ns3:cad>90</ns3:cad>
          </ns3:TrackPointExtension>
        </extensions>
      </trkpt>
      <trkpt lat="43.82613650523126125335693359375" lon="4.2605064623057842254638671875">
        <ele>85.59999847412109375</ele>
        <time>2024-01-27T10:32:14.000Z</time>
        <extensions>
          <ns3:TrackPointExtension>
            <ns3:hr>163</ns3:hr>
            <ns3:cad>90</ns3:cad>
          </ns3:TrackPointExtension>
        </extensions>
      </trkpt>
      <trkpt lat="43.826165087521076202392578125" lon="4.2605017684400081634521484375">
        <ele>85.40000152587890625</ele>
        <time>2024-01-27T10:32:15.000Z</time>
        <extensions>
          <ns3:TrackPointExtension>
            <ns3:hr>163</ns3:hr>
            <ns3:cad>90</ns3:cad>
          </ns3:TrackPointExtension>
        </extensions>
      </trkpt>
      <trkpt lat="43.8261934183537960052490234375" lon="4.260500259697437286376953125">
        <ele>85.59999847412109375</ele>
        <time>2024-01-27T10:32:16.000Z</time>
        <extensions>
          <ns3:TrackPointExtension>
            <ns3:hr>163</ns3:hr>
            <ns3:cad>91</ns3:cad>
          </ns3:TrackPointExtension>
        </extensions>
      </trkpt>
      <trkpt lat="43.82622149772942066192626953125" lon="4.2605091445147991180419921875">
        <ele>85.59999847412109375</ele>
        <time>2024-01-27T10:32:17.000Z</time>
        <extensions>
          <ns3:TrackPointExtension>
            <ns3:hr>163</ns3:hr>
            <ns3:cad>92</ns3:cad>
          </ns3:TrackPointExtension>
        </extensions>
      </trkpt>
      <trkpt lat="43.82624429650604724884033203125" lon="4.26051576621830463409423828125">
        <ele>85.8000030517578125</ele>
        <time>2024-01-27T10:32:18.000Z</time>
        <extensions>
          <ns3:TrackPointExtension>
            <ns3:hr>163</ns3:hr>
            <ns3:cad>92</ns3:cad>
          </ns3:TrackPointExtension>
        </extensions>
      </trkpt>
      <trkpt lat="43.8262665085494518280029296875" lon="4.26053546369075775146484375">
        <ele>86</ele>
        <time>2024-01-27T10:32:19.000Z</time>
        <extensions>
          <ns3:TrackPointExtension>
            <ns3:hr>163</ns3:hr>
            <ns3:cad>92</ns3:cad>
          </ns3:TrackPointExtension>
        </extensions>
      </trkpt>
      <trkpt lat="43.82628343999385833740234375" lon="4.26055583171546459197998046875">
        <ele>86.1999969482421875</ele>
        <time>2024-01-27T10:32:20.000Z</time>
        <extensions>
          <ns3:TrackPointExtension>
            <ns3:hr>163</ns3:hr>
            <ns3:cad>91</ns3:cad>
          </ns3:TrackPointExtension>
        </extensions>
      </trkpt>
      <trkpt lat="43.8262988626956939697265625" lon="4.26057879813015460968017578125">
        <ele>86.1999969482421875</ele>
        <time>2024-01-27T10:32:21.000Z</time>
        <extensions>
          <ns3:TrackPointExtension>
            <ns3:hr>163</ns3:hr>
            <ns3:cad>90</ns3:cad>
          </ns3:TrackPointExtension>
        </extensions>
      </trkpt>
    </trkseg>
  </trk>
</gpx>
